<?xml version="1.0" encoding="UTF-8" standalone="no" ?>
<gpx xmlns="http://www.topografix.com/GPX/1/1" xmlns:xsi="http://www.w3.org/2001/XMLSchema-instance" xsi:schemaLocation="http://www.topografix.com/GPX/1/1 http://www.topografix.com/GPX/1/1/gpx.xsd" version="1.1" creator="VisuGPX - https://www.visugpx.com">
  <metadata>
    <name>Crètes de Chamouse</name>
    <desc><![CDATA[Une belle randonnée, pas de difficulté particulière si ce n'est la descente après l'antenne qui peut etre un peu compliquée par temps humide. De très beaux points de vues tout au long du parcours]]></desc>
  </metadata>
  <trk>
    <name><![CDATA[Montauban-sur-l'Ouvèze Crète de Chamouse]]></name>
    <trkseg>
      <trkpt lat="44.28522" lon="5.54893">
        <ele>1290.1999511719</ele>
        <time>2021-09-25T08:50:41.000Z</time>
      </trkpt>
      <trkpt lat="44.28523" lon="5.54893">
        <ele>1290.1999511719</ele>
        <time>2021-09-25T08:50:42.000Z</time>
      </trkpt>
      <trkpt lat="44.28524" lon="5.54894">
        <ele>1290.1999511719</ele>
        <time>2021-09-25T08:50:44.000Z</time>
      </trkpt>
      <trkpt lat="44.28525" lon="5.54896">
        <ele>1290</ele>
        <time>2021-09-25T08:50:47.000Z</time>
      </trkpt>
      <trkpt lat="44.28525" lon="5.54899">
        <ele>1290</ele>
        <time>2021-09-25T08:50:49.000Z</time>
      </trkpt>
      <trkpt lat="44.28524" lon="5.54905">
        <ele>1290.5999755859</ele>
        <time>2021-09-25T08:50:55.000Z</time>
      </trkpt>
      <trkpt lat="44.28524" lon="5.54907">
        <ele>1290.8000488281</ele>
        <time>2021-09-25T08:50:59.000Z</time>
      </trkpt>
      <trkpt lat="44.28522" lon="5.54913">
        <ele>1291.1999511719</ele>
        <time>2021-09-25T08:51:05.000Z</time>
      </trkpt>
      <trkpt lat="44.28521" lon="5.54915">
        <ele>1291.1999511719</ele>
        <time>2021-09-25T08:51:07.000Z</time>
      </trkpt>
      <trkpt lat="44.28521" lon="5.54917">
        <ele>1291.4000244141</ele>
        <time>2021-09-25T08:51:08.000Z</time>
      </trkpt>
      <trkpt lat="44.2852" lon="5.54925">
        <ele>1292.1999511719</ele>
        <time>2021-09-25T08:51:15.000Z</time>
      </trkpt>
      <trkpt lat="44.28519" lon="5.54926">
        <ele>1292.1999511719</ele>
        <time>2021-09-25T08:51:16.000Z</time>
      </trkpt>
      <trkpt lat="44.28518" lon="5.5493">
        <ele>1292.4000244141</ele>
        <time>2021-09-25T08:51:19.000Z</time>
      </trkpt>
      <trkpt lat="44.28516" lon="5.54933">
        <ele>1292.5999755859</ele>
        <time>2021-09-25T08:51:22.000Z</time>
      </trkpt>
      <trkpt lat="44.28512" lon="5.54936">
        <ele>1292.5999755859</ele>
        <time>2021-09-25T08:51:27.000Z</time>
      </trkpt>
      <trkpt lat="44.28509" lon="5.5494">
        <ele>1292.8000488281</ele>
        <time>2021-09-25T08:51:30.000Z</time>
      </trkpt>
      <trkpt lat="44.28506" lon="5.54945">
        <ele>1292.8000488281</ele>
        <time>2021-09-25T08:51:35.000Z</time>
      </trkpt>
      <trkpt lat="44.28505" lon="5.54949">
        <ele>1293</ele>
        <time>2021-09-25T08:51:38.000Z</time>
      </trkpt>
      <trkpt lat="44.28502" lon="5.54951">
        <ele>1293.4000244141</ele>
        <time>2021-09-25T08:51:42.000Z</time>
      </trkpt>
      <trkpt lat="44.28502" lon="5.54952">
        <ele>1293.1999511719</ele>
        <time>2021-09-25T08:51:43.000Z</time>
      </trkpt>
      <trkpt lat="44.28502" lon="5.54951">
        <ele>1293.1999511719</ele>
        <time>2021-09-25T08:51:47.000Z</time>
      </trkpt>
      <trkpt lat="44.28501" lon="5.54952">
        <ele>1293</ele>
        <time>2021-09-25T08:51:49.000Z</time>
      </trkpt>
      <trkpt lat="44.28501" lon="5.54953">
        <ele>1293</ele>
        <time>2021-09-25T08:51:50.000Z</time>
      </trkpt>
      <trkpt lat="44.285" lon="5.54955">
        <ele>1293</ele>
        <time>2021-09-25T08:51:53.000Z</time>
      </trkpt>
      <trkpt lat="44.28498" lon="5.54958">
        <ele>1293.4000244141</ele>
        <time>2021-09-25T08:51:56.000Z</time>
      </trkpt>
      <trkpt lat="44.28497" lon="5.5496">
        <ele>1293.8000488281</ele>
        <time>2021-09-25T08:51:58.000Z</time>
      </trkpt>
      <trkpt lat="44.28496" lon="5.54961">
        <ele>1294</ele>
        <time>2021-09-25T08:52:00.000Z</time>
      </trkpt>
      <trkpt lat="44.28492" lon="5.54967">
        <ele>1294.1999511719</ele>
        <time>2021-09-25T08:52:05.000Z</time>
      </trkpt>
      <trkpt lat="44.28491" lon="5.54968">
        <ele>1294.1999511719</ele>
        <time>2021-09-25T08:52:06.000Z</time>
      </trkpt>
      <trkpt lat="44.2849" lon="5.54972">
        <ele>1294.1999511719</ele>
        <time>2021-09-25T08:52:09.000Z</time>
      </trkpt>
      <trkpt lat="44.28489" lon="5.54973">
        <ele>1294.4000244141</ele>
        <time>2021-09-25T08:52:10.000Z</time>
      </trkpt>
      <trkpt lat="44.28488" lon="5.54975">
        <ele>1294.5999755859</ele>
        <time>2021-09-25T08:52:12.000Z</time>
      </trkpt>
      <trkpt lat="44.28487" lon="5.54977">
        <ele>1294.5999755859</ele>
        <time>2021-09-25T08:52:13.000Z</time>
      </trkpt>
      <trkpt lat="44.28487" lon="5.54978">
        <ele>1294.8000488281</ele>
        <time>2021-09-25T08:52:14.000Z</time>
      </trkpt>
      <trkpt lat="44.28486" lon="5.54981">
        <ele>1294.8000488281</ele>
        <time>2021-09-25T08:52:16.000Z</time>
      </trkpt>
      <trkpt lat="44.28484" lon="5.54988">
        <ele>1295.4000244141</ele>
        <time>2021-09-25T08:52:21.000Z</time>
      </trkpt>
      <trkpt lat="44.28483" lon="5.54992">
        <ele>1295.8000488281</ele>
        <time>2021-09-25T08:52:24.000Z</time>
      </trkpt>
      <trkpt lat="44.2848" lon="5.54992">
        <ele>1296</ele>
        <time>2021-09-25T08:52:27.000Z</time>
      </trkpt>
      <trkpt lat="44.28477" lon="5.54996">
        <ele>1296.4000244141</ele>
        <time>2021-09-25T08:52:31.000Z</time>
      </trkpt>
      <trkpt lat="44.28477" lon="5.54999">
        <ele>1296.5999755859</ele>
        <time>2021-09-25T08:52:34.000Z</time>
      </trkpt>
      <trkpt lat="44.28475" lon="5.55005">
        <ele>1296.8000488281</ele>
        <time>2021-09-25T08:52:39.000Z</time>
      </trkpt>
      <trkpt lat="44.28475" lon="5.55007">
        <ele>1297</ele>
        <time>2021-09-25T08:52:40.000Z</time>
      </trkpt>
      <trkpt lat="44.28474" lon="5.55008">
        <ele>1297.1999511719</ele>
        <time>2021-09-25T08:52:41.000Z</time>
      </trkpt>
      <trkpt lat="44.28474" lon="5.5501">
        <ele>1297.4000244141</ele>
        <time>2021-09-25T08:52:42.000Z</time>
      </trkpt>
      <trkpt lat="44.28474" lon="5.55011">
        <ele>1297.4000244141</ele>
        <time>2021-09-25T08:52:43.000Z</time>
      </trkpt>
      <trkpt lat="44.28473" lon="5.55013">
        <ele>1297.4000244141</ele>
        <time>2021-09-25T08:52:44.000Z</time>
      </trkpt>
      <trkpt lat="44.28473" lon="5.55014">
        <ele>1297.5999755859</ele>
        <time>2021-09-25T08:52:45.000Z</time>
      </trkpt>
      <trkpt lat="44.28472" lon="5.55016">
        <ele>1297.4000244141</ele>
        <time>2021-09-25T08:52:47.000Z</time>
      </trkpt>
      <trkpt lat="44.28471" lon="5.55019">
        <ele>1297.4000244141</ele>
        <time>2021-09-25T08:52:49.000Z</time>
      </trkpt>
      <trkpt lat="44.28471" lon="5.55021">
        <ele>1297.5999755859</ele>
        <time>2021-09-25T08:52:50.000Z</time>
      </trkpt>
      <trkpt lat="44.2847" lon="5.55022">
        <ele>1297.8000488281</ele>
        <time>2021-09-25T08:52:51.000Z</time>
      </trkpt>
      <trkpt lat="44.2847" lon="5.55024">
        <ele>1298</ele>
        <time>2021-09-25T08:52:53.000Z</time>
      </trkpt>
      <trkpt lat="44.28468" lon="5.55029">
        <ele>1298</ele>
        <time>2021-09-25T08:52:58.000Z</time>
      </trkpt>
      <trkpt lat="44.28468" lon="5.5503">
        <ele>1298</ele>
        <time>2021-09-25T08:52:59.000Z</time>
      </trkpt>
      <trkpt lat="44.28468" lon="5.55032">
        <ele>1298.1999511719</ele>
        <time>2021-09-25T08:53:02.000Z</time>
      </trkpt>
      <trkpt lat="44.28468" lon="5.55033">
        <ele>1298.1999511719</ele>
        <time>2021-09-25T08:53:06.000Z</time>
      </trkpt>
      <trkpt lat="44.28468" lon="5.55033">
        <ele>1298.5999755859</ele>
        <time>2021-09-25T08:53:09.000Z</time>
      </trkpt>
      <trkpt lat="44.28467" lon="5.55035">
        <ele>1298.5999755859</ele>
        <time>2021-09-25T08:53:12.000Z</time>
      </trkpt>
      <trkpt lat="44.28466" lon="5.55037">
        <ele>1298.4000244141</ele>
        <time>2021-09-25T08:53:14.000Z</time>
      </trkpt>
      <trkpt lat="44.28464" lon="5.55044">
        <ele>1298</ele>
        <time>2021-09-25T08:53:18.000Z</time>
      </trkpt>
      <trkpt lat="44.28464" lon="5.55046">
        <ele>1298</ele>
        <time>2021-09-25T08:53:20.000Z</time>
      </trkpt>
      <trkpt lat="44.2846" lon="5.55056">
        <ele>1299</ele>
        <time>2021-09-25T08:53:28.000Z</time>
      </trkpt>
      <trkpt lat="44.28459" lon="5.55061">
        <ele>1299.5999755859</ele>
        <time>2021-09-25T08:53:32.000Z</time>
      </trkpt>
      <trkpt lat="44.28458" lon="5.55066">
        <ele>1299.8000488281</ele>
        <time>2021-09-25T08:53:36.000Z</time>
      </trkpt>
      <trkpt lat="44.28457" lon="5.5507">
        <ele>1299.5999755859</ele>
        <time>2021-09-25T08:53:39.000Z</time>
      </trkpt>
      <trkpt lat="44.28456" lon="5.55074">
        <ele>1299.8000488281</ele>
        <time>2021-09-25T08:53:42.000Z</time>
      </trkpt>
      <trkpt lat="44.28456" lon="5.55076">
        <ele>1299.8000488281</ele>
        <time>2021-09-25T08:53:43.000Z</time>
      </trkpt>
      <trkpt lat="44.28456" lon="5.55078">
        <ele>1299.8000488281</ele>
        <time>2021-09-25T08:53:44.000Z</time>
      </trkpt>
      <trkpt lat="44.28455" lon="5.55081">
        <ele>1300.1999511719</ele>
        <time>2021-09-25T08:53:46.000Z</time>
      </trkpt>
      <trkpt lat="44.28454" lon="5.55086">
        <ele>1300.5999755859</ele>
        <time>2021-09-25T08:53:50.000Z</time>
      </trkpt>
      <trkpt lat="44.28451" lon="5.55094">
        <ele>1300.8000488281</ele>
        <time>2021-09-25T08:53:57.000Z</time>
      </trkpt>
      <trkpt lat="44.28451" lon="5.55095">
        <ele>1300.8000488281</ele>
        <time>2021-09-25T08:53:58.000Z</time>
      </trkpt>
      <trkpt lat="44.28449" lon="5.55104">
        <ele>1301</ele>
        <time>2021-09-25T08:54:04.000Z</time>
      </trkpt>
      <trkpt lat="44.28446" lon="5.5511">
        <ele>1301.4000244141</ele>
        <time>2021-09-25T08:54:09.000Z</time>
      </trkpt>
      <trkpt lat="44.28445" lon="5.55113">
        <ele>1301.5999755859</ele>
        <time>2021-09-25T08:54:11.000Z</time>
      </trkpt>
      <trkpt lat="44.28445" lon="5.55115">
        <ele>1301.5999755859</ele>
        <time>2021-09-25T08:54:12.000Z</time>
      </trkpt>
      <trkpt lat="44.28443" lon="5.55121">
        <ele>1302</ele>
        <time>2021-09-25T08:54:17.000Z</time>
      </trkpt>
      <trkpt lat="44.28441" lon="5.55123">
        <ele>1302</ele>
        <time>2021-09-25T08:54:19.000Z</time>
      </trkpt>
      <trkpt lat="44.2844" lon="5.55127">
        <ele>1302.1999511719</ele>
        <time>2021-09-25T08:54:22.000Z</time>
      </trkpt>
      <trkpt lat="44.28439" lon="5.55129">
        <ele>1302.4000244141</ele>
        <time>2021-09-25T08:54:24.000Z</time>
      </trkpt>
      <trkpt lat="44.28438" lon="5.5513">
        <ele>1302.4000244141</ele>
        <time>2021-09-25T08:54:25.000Z</time>
      </trkpt>
      <trkpt lat="44.28437" lon="5.55133">
        <ele>1302.8000488281</ele>
        <time>2021-09-25T08:54:27.000Z</time>
      </trkpt>
      <trkpt lat="44.28437" lon="5.55134">
        <ele>1302.8000488281</ele>
        <time>2021-09-25T08:54:28.000Z</time>
      </trkpt>
      <trkpt lat="44.28436" lon="5.55135">
        <ele>1303</ele>
        <time>2021-09-25T08:54:29.000Z</time>
      </trkpt>
      <trkpt lat="44.28435" lon="5.55139">
        <ele>1303</ele>
        <time>2021-09-25T08:54:32.000Z</time>
      </trkpt>
      <trkpt lat="44.28435" lon="5.55142">
        <ele>1303</ele>
        <time>2021-09-25T08:54:34.000Z</time>
      </trkpt>
      <trkpt lat="44.28433" lon="5.55149">
        <ele>1303.1999511719</ele>
        <time>2021-09-25T08:54:40.000Z</time>
      </trkpt>
      <trkpt lat="44.28432" lon="5.5515">
        <ele>1303.1999511719</ele>
        <time>2021-09-25T08:54:41.000Z</time>
      </trkpt>
      <trkpt lat="44.28429" lon="5.55159">
        <ele>1303.8000488281</ele>
        <time>2021-09-25T08:54:49.000Z</time>
      </trkpt>
      <trkpt lat="44.28429" lon="5.5516">
        <ele>1304</ele>
        <time>2021-09-25T08:54:50.000Z</time>
      </trkpt>
      <trkpt lat="44.28429" lon="5.55163">
        <ele>1304.1999511719</ele>
        <time>2021-09-25T08:54:52.000Z</time>
      </trkpt>
      <trkpt lat="44.28428" lon="5.55165">
        <ele>1304.1999511719</ele>
        <time>2021-09-25T08:54:55.000Z</time>
      </trkpt>
      <trkpt lat="44.28426" lon="5.55168">
        <ele>1304.4000244141</ele>
        <time>2021-09-25T08:54:58.000Z</time>
      </trkpt>
      <trkpt lat="44.28424" lon="5.55173">
        <ele>1305</ele>
        <time>2021-09-25T08:55:02.000Z</time>
      </trkpt>
      <trkpt lat="44.28422" lon="5.5518">
        <ele>1305.8000488281</ele>
        <time>2021-09-25T08:55:07.000Z</time>
      </trkpt>
      <trkpt lat="44.28422" lon="5.55181">
        <ele>1306</ele>
        <time>2021-09-25T08:55:08.000Z</time>
      </trkpt>
      <trkpt lat="44.28419" lon="5.5519">
        <ele>1306.5999755859</ele>
        <time>2021-09-25T08:55:15.000Z</time>
      </trkpt>
      <trkpt lat="44.28417" lon="5.55193">
        <ele>1306.5999755859</ele>
        <time>2021-09-25T08:55:17.000Z</time>
      </trkpt>
      <trkpt lat="44.28417" lon="5.55196">
        <ele>1306.5999755859</ele>
        <time>2021-09-25T08:55:19.000Z</time>
      </trkpt>
      <trkpt lat="44.28417" lon="5.55197">
        <ele>1306.8000488281</ele>
        <time>2021-09-25T08:55:20.000Z</time>
      </trkpt>
      <trkpt lat="44.28415" lon="5.55198">
        <ele>1307</ele>
        <time>2021-09-25T08:55:21.000Z</time>
      </trkpt>
      <trkpt lat="44.28415" lon="5.55199">
        <ele>1307.1999511719</ele>
        <time>2021-09-25T08:55:22.000Z</time>
      </trkpt>
      <trkpt lat="44.28415" lon="5.552">
        <ele>1307.5999755859</ele>
        <time>2021-09-25T08:55:23.000Z</time>
      </trkpt>
      <trkpt lat="44.28412" lon="5.55202">
        <ele>1308</ele>
        <time>2021-09-25T08:55:25.000Z</time>
      </trkpt>
      <trkpt lat="44.28412" lon="5.55205">
        <ele>1308</ele>
        <time>2021-09-25T08:55:27.000Z</time>
      </trkpt>
      <trkpt lat="44.2841" lon="5.55207">
        <ele>1308</ele>
        <time>2021-09-25T08:55:29.000Z</time>
      </trkpt>
      <trkpt lat="44.28407" lon="5.55211">
        <ele>1308.1999511719</ele>
        <time>2021-09-25T08:55:33.000Z</time>
      </trkpt>
      <trkpt lat="44.28405" lon="5.55216">
        <ele>1308.8000488281</ele>
        <time>2021-09-25T08:55:38.000Z</time>
      </trkpt>
      <trkpt lat="44.28403" lon="5.55219">
        <ele>1309</ele>
        <time>2021-09-25T08:55:41.000Z</time>
      </trkpt>
      <trkpt lat="44.28401" lon="5.55225">
        <ele>1309.1999511719</ele>
        <time>2021-09-25T08:55:46.000Z</time>
      </trkpt>
      <trkpt lat="44.284" lon="5.55228">
        <ele>1309.1999511719</ele>
        <time>2021-09-25T08:55:48.000Z</time>
      </trkpt>
      <trkpt lat="44.284" lon="5.5523">
        <ele>1309.1999511719</ele>
        <time>2021-09-25T08:55:49.000Z</time>
      </trkpt>
      <trkpt lat="44.28396" lon="5.55237">
        <ele>1309.8000488281</ele>
        <time>2021-09-25T08:55:55.000Z</time>
      </trkpt>
      <trkpt lat="44.2839" lon="5.55243">
        <ele>1310</ele>
        <time>2021-09-25T08:56:02.000Z</time>
      </trkpt>
      <trkpt lat="44.28388" lon="5.55244">
        <ele>1310.1999511719</ele>
        <time>2021-09-25T08:56:04.000Z</time>
      </trkpt>
      <trkpt lat="44.28385" lon="5.55247">
        <ele>1310.4000244141</ele>
        <time>2021-09-25T08:56:08.000Z</time>
      </trkpt>
      <trkpt lat="44.28383" lon="5.55248">
        <ele>1310.5999755859</ele>
        <time>2021-09-25T08:56:10.000Z</time>
      </trkpt>
      <trkpt lat="44.2838" lon="5.55248">
        <ele>1311</ele>
        <time>2021-09-25T08:56:13.000Z</time>
      </trkpt>
      <trkpt lat="44.28379" lon="5.5525">
        <ele>1311.4000244141</ele>
        <time>2021-09-25T08:56:15.000Z</time>
      </trkpt>
      <trkpt lat="44.28378" lon="5.5525">
        <ele>1311.4000244141</ele>
        <time>2021-09-25T08:56:16.000Z</time>
      </trkpt>
      <trkpt lat="44.28373" lon="5.55254">
        <ele>1311.4000244141</ele>
        <time>2021-09-25T08:56:22.000Z</time>
      </trkpt>
      <trkpt lat="44.28372" lon="5.55254">
        <ele>1311.8000488281</ele>
        <time>2021-09-25T08:56:23.000Z</time>
      </trkpt>
      <trkpt lat="44.2837" lon="5.55255">
        <ele>1312</ele>
        <time>2021-09-25T08:56:25.000Z</time>
      </trkpt>
      <trkpt lat="44.28367" lon="5.55257">
        <ele>1312.4000244141</ele>
        <time>2021-09-25T08:56:28.000Z</time>
      </trkpt>
      <trkpt lat="44.28366" lon="5.55259">
        <ele>1312.5999755859</ele>
        <time>2021-09-25T08:56:30.000Z</time>
      </trkpt>
      <trkpt lat="44.28364" lon="5.5526">
        <ele>1312.5999755859</ele>
        <time>2021-09-25T08:56:32.000Z</time>
      </trkpt>
      <trkpt lat="44.28362" lon="5.55262">
        <ele>1312.8000488281</ele>
        <time>2021-09-25T08:56:34.000Z</time>
      </trkpt>
      <trkpt lat="44.2836" lon="5.55265">
        <ele>1313.4000244141</ele>
        <time>2021-09-25T08:56:38.000Z</time>
      </trkpt>
      <trkpt lat="44.28359" lon="5.55266">
        <ele>1313.4000244141</ele>
        <time>2021-09-25T08:56:39.000Z</time>
      </trkpt>
      <trkpt lat="44.28358" lon="5.55266">
        <ele>1313.5999755859</ele>
        <time>2021-09-25T08:56:40.000Z</time>
      </trkpt>
      <trkpt lat="44.28356" lon="5.55267">
        <ele>1313.8000488281</ele>
        <time>2021-09-25T08:56:43.000Z</time>
      </trkpt>
      <trkpt lat="44.28355" lon="5.55268">
        <ele>1314</ele>
        <time>2021-09-25T08:56:44.000Z</time>
      </trkpt>
      <trkpt lat="44.28354" lon="5.55268">
        <ele>1314</ele>
        <time>2021-09-25T08:56:45.000Z</time>
      </trkpt>
      <trkpt lat="44.28349" lon="5.55272">
        <ele>1314.5999755859</ele>
        <time>2021-09-25T08:56:51.000Z</time>
      </trkpt>
      <trkpt lat="44.28348" lon="5.55273">
        <ele>1314.8000488281</ele>
        <time>2021-09-25T08:56:52.000Z</time>
      </trkpt>
      <trkpt lat="44.28346" lon="5.55275">
        <ele>1315</ele>
        <time>2021-09-25T08:56:55.000Z</time>
      </trkpt>
      <trkpt lat="44.28345" lon="5.55275">
        <ele>1315.1999511719</ele>
        <time>2021-09-25T08:56:57.000Z</time>
      </trkpt>
      <trkpt lat="44.28343" lon="5.55276">
        <ele>1315.5999755859</ele>
        <time>2021-09-25T08:56:59.000Z</time>
      </trkpt>
      <trkpt lat="44.28342" lon="5.55277">
        <ele>1315.8000488281</ele>
        <time>2021-09-25T08:57:00.000Z</time>
      </trkpt>
      <trkpt lat="44.28341" lon="5.55276">
        <ele>1315.8000488281</ele>
        <time>2021-09-25T08:57:01.000Z</time>
      </trkpt>
      <trkpt lat="44.2834" lon="5.55276">
        <ele>1316</ele>
        <time>2021-09-25T08:57:02.000Z</time>
      </trkpt>
      <trkpt lat="44.28339" lon="5.55277">
        <ele>1316</ele>
        <time>2021-09-25T08:57:03.000Z</time>
      </trkpt>
      <trkpt lat="44.28333" lon="5.55277">
        <ele>1316.8000488281</ele>
        <time>2021-09-25T08:57:09.000Z</time>
      </trkpt>
      <trkpt lat="44.28332" lon="5.55278">
        <ele>1316.8000488281</ele>
        <time>2021-09-25T08:57:10.000Z</time>
      </trkpt>
      <trkpt lat="44.28331" lon="5.55278">
        <ele>1316.8000488281</ele>
        <time>2021-09-25T08:57:11.000Z</time>
      </trkpt>
      <trkpt lat="44.28329" lon="5.55279">
        <ele>1316.8000488281</ele>
        <time>2021-09-25T08:57:13.000Z</time>
      </trkpt>
      <trkpt lat="44.28329" lon="5.55279">
        <ele>1316.8000488281</ele>
        <time>2021-09-25T08:57:14.000Z</time>
      </trkpt>
      <trkpt lat="44.28328" lon="5.55279">
        <ele>1317</ele>
        <time>2021-09-25T08:57:15.000Z</time>
      </trkpt>
      <trkpt lat="44.28326" lon="5.5528">
        <ele>1317.4000244141</ele>
        <time>2021-09-25T08:57:17.000Z</time>
      </trkpt>
      <trkpt lat="44.28325" lon="5.55281">
        <ele>1317.4000244141</ele>
        <time>2021-09-25T08:57:18.000Z</time>
      </trkpt>
      <trkpt lat="44.28324" lon="5.55281">
        <ele>1317.4000244141</ele>
        <time>2021-09-25T08:57:19.000Z</time>
      </trkpt>
      <trkpt lat="44.28324" lon="5.55282">
        <ele>1317.5999755859</ele>
        <time>2021-09-25T08:57:21.000Z</time>
      </trkpt>
      <trkpt lat="44.28323" lon="5.55282">
        <ele>1317.8000488281</ele>
        <time>2021-09-25T08:57:22.000Z</time>
      </trkpt>
      <trkpt lat="44.28322" lon="5.55282">
        <ele>1318</ele>
        <time>2021-09-25T08:57:23.000Z</time>
      </trkpt>
      <trkpt lat="44.28321" lon="5.55283">
        <ele>1318.1999511719</ele>
        <time>2021-09-25T08:57:24.000Z</time>
      </trkpt>
      <trkpt lat="44.28316" lon="5.55285">
        <ele>1318.5999755859</ele>
        <time>2021-09-25T08:57:29.000Z</time>
      </trkpt>
      <trkpt lat="44.28315" lon="5.55286">
        <ele>1318.8000488281</ele>
        <time>2021-09-25T08:57:30.000Z</time>
      </trkpt>
      <trkpt lat="44.28314" lon="5.55287">
        <ele>1319</ele>
        <time>2021-09-25T08:57:31.000Z</time>
      </trkpt>
      <trkpt lat="44.28313" lon="5.55288">
        <ele>1319</ele>
        <time>2021-09-25T08:57:32.000Z</time>
      </trkpt>
      <trkpt lat="44.28308" lon="5.55292">
        <ele>1319.8000488281</ele>
        <time>2021-09-25T08:57:38.000Z</time>
      </trkpt>
      <trkpt lat="44.28307" lon="5.55292">
        <ele>1320</ele>
        <time>2021-09-25T08:57:39.000Z</time>
      </trkpt>
      <trkpt lat="44.28306" lon="5.55293">
        <ele>1320</ele>
        <time>2021-09-25T08:57:40.000Z</time>
      </trkpt>
      <trkpt lat="44.28306" lon="5.55294">
        <ele>1320.1999511719</ele>
        <time>2021-09-25T08:57:41.000Z</time>
      </trkpt>
      <trkpt lat="44.28302" lon="5.55296">
        <ele>1320.4000244141</ele>
        <time>2021-09-25T08:57:45.000Z</time>
      </trkpt>
      <trkpt lat="44.28299" lon="5.55298">
        <ele>1320.8000488281</ele>
        <time>2021-09-25T08:57:48.000Z</time>
      </trkpt>
      <trkpt lat="44.28296" lon="5.55301">
        <ele>1321</ele>
        <time>2021-09-25T08:57:51.000Z</time>
      </trkpt>
      <trkpt lat="44.28293" lon="5.55303">
        <ele>1321.1999511719</ele>
        <time>2021-09-25T08:57:55.000Z</time>
      </trkpt>
      <trkpt lat="44.28289" lon="5.55307">
        <ele>1321.5999755859</ele>
        <time>2021-09-25T08:58:00.000Z</time>
      </trkpt>
      <trkpt lat="44.28288" lon="5.55308">
        <ele>1321.5999755859</ele>
        <time>2021-09-25T08:58:01.000Z</time>
      </trkpt>
      <trkpt lat="44.28287" lon="5.55309">
        <ele>1321.5999755859</ele>
        <time>2021-09-25T08:58:03.000Z</time>
      </trkpt>
      <trkpt lat="44.28285" lon="5.55309">
        <ele>1321.5999755859</ele>
        <time>2021-09-25T08:58:05.000Z</time>
      </trkpt>
      <trkpt lat="44.2828" lon="5.55311">
        <ele>1321.1999511719</ele>
        <time>2021-09-25T08:58:10.000Z</time>
      </trkpt>
      <trkpt lat="44.28277" lon="5.55312">
        <ele>1321.4000244141</ele>
        <time>2021-09-25T08:58:14.000Z</time>
      </trkpt>
      <trkpt lat="44.28274" lon="5.55315">
        <ele>1321.4000244141</ele>
        <time>2021-09-25T08:58:17.000Z</time>
      </trkpt>
      <trkpt lat="44.28273" lon="5.55317">
        <ele>1321.4000244141</ele>
        <time>2021-09-25T08:58:19.000Z</time>
      </trkpt>
      <trkpt lat="44.28272" lon="5.5532">
        <ele>1321.1999511719</ele>
        <time>2021-09-25T08:58:22.000Z</time>
      </trkpt>
      <trkpt lat="44.2827" lon="5.55321">
        <ele>1321.1999511719</ele>
        <time>2021-09-25T08:58:24.000Z</time>
      </trkpt>
      <trkpt lat="44.28268" lon="5.55324">
        <ele>1321</ele>
        <time>2021-09-25T08:58:27.000Z</time>
      </trkpt>
      <trkpt lat="44.28267" lon="5.55328">
        <ele>1320.8000488281</ele>
        <time>2021-09-25T08:58:30.000Z</time>
      </trkpt>
      <trkpt lat="44.28266" lon="5.5533">
        <ele>1320.5999755859</ele>
        <time>2021-09-25T08:58:32.000Z</time>
      </trkpt>
      <trkpt lat="44.28266" lon="5.55332">
        <ele>1320.4000244141</ele>
        <time>2021-09-25T08:58:34.000Z</time>
      </trkpt>
      <trkpt lat="44.28263" lon="5.5534">
        <ele>1320</ele>
        <time>2021-09-25T08:58:41.000Z</time>
      </trkpt>
      <trkpt lat="44.28263" lon="5.55346">
        <ele>1319.5999755859</ele>
        <time>2021-09-25T08:58:46.000Z</time>
      </trkpt>
      <trkpt lat="44.28262" lon="5.5535">
        <ele>1319.1999511719</ele>
        <time>2021-09-25T08:58:50.000Z</time>
      </trkpt>
      <trkpt lat="44.28262" lon="5.55353">
        <ele>1319</ele>
        <time>2021-09-25T08:58:52.000Z</time>
      </trkpt>
      <trkpt lat="44.28263" lon="5.55357">
        <ele>1318.8000488281</ele>
        <time>2021-09-25T08:58:56.000Z</time>
      </trkpt>
      <trkpt lat="44.28263" lon="5.55359">
        <ele>1318.5999755859</ele>
        <time>2021-09-25T08:58:57.000Z</time>
      </trkpt>
      <trkpt lat="44.28263" lon="5.5536">
        <ele>1318.4000244141</ele>
        <time>2021-09-25T08:58:58.000Z</time>
      </trkpt>
      <trkpt lat="44.28264" lon="5.55364">
        <ele>1318</ele>
        <time>2021-09-25T08:59:01.000Z</time>
      </trkpt>
      <trkpt lat="44.28265" lon="5.55368">
        <ele>1317.4000244141</ele>
        <time>2021-09-25T08:59:04.000Z</time>
      </trkpt>
      <trkpt lat="44.28265" lon="5.55371">
        <ele>1317.4000244141</ele>
        <time>2021-09-25T08:59:06.000Z</time>
      </trkpt>
      <trkpt lat="44.28264" lon="5.55373">
        <ele>1317.1999511719</ele>
        <time>2021-09-25T08:59:08.000Z</time>
      </trkpt>
      <trkpt lat="44.28263" lon="5.55375">
        <ele>1317</ele>
        <time>2021-09-25T08:59:10.000Z</time>
      </trkpt>
      <trkpt lat="44.28262" lon="5.55376">
        <ele>1316.5999755859</ele>
        <time>2021-09-25T08:59:12.000Z</time>
      </trkpt>
      <trkpt lat="44.28262" lon="5.55378">
        <ele>1316.4000244141</ele>
        <time>2021-09-25T08:59:13.000Z</time>
      </trkpt>
      <trkpt lat="44.2826" lon="5.55382">
        <ele>1316</ele>
        <time>2021-09-25T08:59:18.000Z</time>
      </trkpt>
      <trkpt lat="44.28258" lon="5.55384">
        <ele>1316</ele>
        <time>2021-09-25T08:59:20.000Z</time>
      </trkpt>
      <trkpt lat="44.28257" lon="5.55386">
        <ele>1315</ele>
        <time>2021-09-25T08:59:22.000Z</time>
      </trkpt>
      <trkpt lat="44.28257" lon="5.55387">
        <ele>1314.8000488281</ele>
        <time>2021-09-25T08:59:23.000Z</time>
      </trkpt>
      <trkpt lat="44.28256" lon="5.55389">
        <ele>1314.5999755859</ele>
        <time>2021-09-25T08:59:24.000Z</time>
      </trkpt>
      <trkpt lat="44.28255" lon="5.55393">
        <ele>1314.1999511719</ele>
        <time>2021-09-25T08:59:27.000Z</time>
      </trkpt>
      <trkpt lat="44.28251" lon="5.55401">
        <ele>1313.5999755859</ele>
        <time>2021-09-25T08:59:33.000Z</time>
      </trkpt>
      <trkpt lat="44.2825" lon="5.55402">
        <ele>1313.4000244141</ele>
        <time>2021-09-25T08:59:35.000Z</time>
      </trkpt>
      <trkpt lat="44.28247" lon="5.55405">
        <ele>1313.1999511719</ele>
        <time>2021-09-25T08:59:38.000Z</time>
      </trkpt>
      <trkpt lat="44.28246" lon="5.55406">
        <ele>1313.1999511719</ele>
        <time>2021-09-25T08:59:39.000Z</time>
      </trkpt>
      <trkpt lat="44.2824" lon="5.55407">
        <ele>1312.8000488281</ele>
        <time>2021-09-25T08:59:44.000Z</time>
      </trkpt>
      <trkpt lat="44.28238" lon="5.55409">
        <ele>1312.5999755859</ele>
        <time>2021-09-25T08:59:47.000Z</time>
      </trkpt>
      <trkpt lat="44.28235" lon="5.55409">
        <ele>1312.4000244141</ele>
        <time>2021-09-25T08:59:49.000Z</time>
      </trkpt>
      <trkpt lat="44.28233" lon="5.5541">
        <ele>1312.5999755859</ele>
        <time>2021-09-25T08:59:51.000Z</time>
      </trkpt>
      <trkpt lat="44.28232" lon="5.55409">
        <ele>1312.8000488281</ele>
        <time>2021-09-25T08:59:52.000Z</time>
      </trkpt>
      <trkpt lat="44.28229" lon="5.5541">
        <ele>1313</ele>
        <time>2021-09-25T08:59:54.000Z</time>
      </trkpt>
      <trkpt lat="44.28227" lon="5.55411">
        <ele>1313.4000244141</ele>
        <time>2021-09-25T08:59:57.000Z</time>
      </trkpt>
      <trkpt lat="44.28226" lon="5.55411">
        <ele>1313.4000244141</ele>
        <time>2021-09-25T08:59:58.000Z</time>
      </trkpt>
      <trkpt lat="44.28222" lon="5.55412">
        <ele>1313</ele>
        <time>2021-09-25T09:00:03.000Z</time>
      </trkpt>
      <trkpt lat="44.28221" lon="5.55412">
        <ele>1313</ele>
        <time>2021-09-25T09:00:04.000Z</time>
      </trkpt>
      <trkpt lat="44.28218" lon="5.55412">
        <ele>1313</ele>
        <time>2021-09-25T09:00:06.000Z</time>
      </trkpt>
      <trkpt lat="44.28215" lon="5.55414">
        <ele>1313.1999511719</ele>
        <time>2021-09-25T09:00:10.000Z</time>
      </trkpt>
      <trkpt lat="44.28214" lon="5.55413">
        <ele>1313.1999511719</ele>
        <time>2021-09-25T09:00:12.000Z</time>
      </trkpt>
      <trkpt lat="44.28213" lon="5.55413">
        <ele>1313.1999511719</ele>
        <time>2021-09-25T09:00:13.000Z</time>
      </trkpt>
      <trkpt lat="44.28212" lon="5.55413">
        <ele>1313</ele>
        <time>2021-09-25T09:00:14.000Z</time>
      </trkpt>
      <trkpt lat="44.2821" lon="5.55412">
        <ele>1313.5999755859</ele>
        <time>2021-09-25T09:00:18.000Z</time>
      </trkpt>
      <trkpt lat="44.28209" lon="5.55412">
        <ele>1313.8000488281</ele>
        <time>2021-09-25T09:00:19.000Z</time>
      </trkpt>
      <trkpt lat="44.28208" lon="5.55412">
        <ele>1314</ele>
        <time>2021-09-25T09:00:21.000Z</time>
      </trkpt>
      <trkpt lat="44.28205" lon="5.55412">
        <ele>1314</ele>
        <time>2021-09-25T09:00:24.000Z</time>
      </trkpt>
      <trkpt lat="44.28204" lon="5.55413">
        <ele>1314</ele>
        <time>2021-09-25T09:00:25.000Z</time>
      </trkpt>
      <trkpt lat="44.28202" lon="5.55415">
        <ele>1314.1999511719</ele>
        <time>2021-09-25T09:00:28.000Z</time>
      </trkpt>
      <trkpt lat="44.282" lon="5.55416">
        <ele>1314.1999511719</ele>
        <time>2021-09-25T09:00:31.000Z</time>
      </trkpt>
      <trkpt lat="44.28192" lon="5.55419">
        <ele>1314.4000244141</ele>
        <time>2021-09-25T09:00:39.000Z</time>
      </trkpt>
      <trkpt lat="44.28188" lon="5.55421">
        <ele>1315</ele>
        <time>2021-09-25T09:00:44.000Z</time>
      </trkpt>
      <trkpt lat="44.28186" lon="5.55422">
        <ele>1315.4000244141</ele>
        <time>2021-09-25T09:00:46.000Z</time>
      </trkpt>
      <trkpt lat="44.28185" lon="5.55422">
        <ele>1315.4000244141</ele>
        <time>2021-09-25T09:00:47.000Z</time>
      </trkpt>
      <trkpt lat="44.28183" lon="5.55423">
        <ele>1315.4000244141</ele>
        <time>2021-09-25T09:00:50.000Z</time>
      </trkpt>
      <trkpt lat="44.28182" lon="5.55424">
        <ele>1315.4000244141</ele>
        <time>2021-09-25T09:00:51.000Z</time>
      </trkpt>
      <trkpt lat="44.28179" lon="5.55425">
        <ele>1315.8000488281</ele>
        <time>2021-09-25T09:00:55.000Z</time>
      </trkpt>
      <trkpt lat="44.28178" lon="5.55425">
        <ele>1315.8000488281</ele>
        <time>2021-09-25T09:00:56.000Z</time>
      </trkpt>
      <trkpt lat="44.28177" lon="5.55425">
        <ele>1316</ele>
        <time>2021-09-25T09:00:57.000Z</time>
      </trkpt>
      <trkpt lat="44.28174" lon="5.55427">
        <ele>1316.4000244141</ele>
        <time>2021-09-25T09:01:00.000Z</time>
      </trkpt>
      <trkpt lat="44.28172" lon="5.55428">
        <ele>1316.5999755859</ele>
        <time>2021-09-25T09:01:02.000Z</time>
      </trkpt>
      <trkpt lat="44.28168" lon="5.55431">
        <ele>1316.8000488281</ele>
        <time>2021-09-25T09:01:08.000Z</time>
      </trkpt>
      <trkpt lat="44.28166" lon="5.55432">
        <ele>1317</ele>
        <time>2021-09-25T09:01:10.000Z</time>
      </trkpt>
      <trkpt lat="44.28163" lon="5.55433">
        <ele>1317.5999755859</ele>
        <time>2021-09-25T09:01:13.000Z</time>
      </trkpt>
      <trkpt lat="44.28161" lon="5.55434">
        <ele>1317.8000488281</ele>
        <time>2021-09-25T09:01:15.000Z</time>
      </trkpt>
      <trkpt lat="44.28158" lon="5.55435">
        <ele>1317.8000488281</ele>
        <time>2021-09-25T09:01:17.000Z</time>
      </trkpt>
      <trkpt lat="44.28155" lon="5.55435">
        <ele>1318.1999511719</ele>
        <time>2021-09-25T09:01:20.000Z</time>
      </trkpt>
      <trkpt lat="44.28154" lon="5.55437">
        <ele>1318.1999511719</ele>
        <time>2021-09-25T09:01:22.000Z</time>
      </trkpt>
      <trkpt lat="44.28153" lon="5.55438">
        <ele>1318.4000244141</ele>
        <time>2021-09-25T09:01:23.000Z</time>
      </trkpt>
      <trkpt lat="44.28151" lon="5.55441">
        <ele>1318.4000244141</ele>
        <time>2021-09-25T09:01:27.000Z</time>
      </trkpt>
      <trkpt lat="44.2815" lon="5.55442">
        <ele>1318.5999755859</ele>
        <time>2021-09-25T09:01:29.000Z</time>
      </trkpt>
      <trkpt lat="44.28149" lon="5.55443">
        <ele>1318.5999755859</ele>
        <time>2021-09-25T09:01:30.000Z</time>
      </trkpt>
      <trkpt lat="44.28146" lon="5.55444">
        <ele>1319</ele>
        <time>2021-09-25T09:01:34.000Z</time>
      </trkpt>
      <trkpt lat="44.28145" lon="5.55445">
        <ele>1319.4000244141</ele>
        <time>2021-09-25T09:01:35.000Z</time>
      </trkpt>
      <trkpt lat="44.28141" lon="5.55449">
        <ele>1319.5999755859</ele>
        <time>2021-09-25T09:01:41.000Z</time>
      </trkpt>
      <trkpt lat="44.28136" lon="5.55455">
        <ele>1320.4000244141</ele>
        <time>2021-09-25T09:01:48.000Z</time>
      </trkpt>
      <trkpt lat="44.28134" lon="5.55454">
        <ele>1320.4000244141</ele>
        <time>2021-09-25T09:01:49.000Z</time>
      </trkpt>
      <trkpt lat="44.28132" lon="5.55455">
        <ele>1320.4000244141</ele>
        <time>2021-09-25T09:01:51.000Z</time>
      </trkpt>
      <trkpt lat="44.28131" lon="5.55456">
        <ele>1320.4000244141</ele>
        <time>2021-09-25T09:01:52.000Z</time>
      </trkpt>
      <trkpt lat="44.28127" lon="5.55459">
        <ele>1320.8000488281</ele>
        <time>2021-09-25T09:01:56.000Z</time>
      </trkpt>
      <trkpt lat="44.28125" lon="5.5546">
        <ele>1321.4000244141</ele>
        <time>2021-09-25T09:01:59.000Z</time>
      </trkpt>
      <trkpt lat="44.28122" lon="5.55459">
        <ele>1321.5999755859</ele>
        <time>2021-09-25T09:02:03.000Z</time>
      </trkpt>
      <trkpt lat="44.28121" lon="5.55458">
        <ele>1321.8000488281</ele>
        <time>2021-09-25T09:02:04.000Z</time>
      </trkpt>
      <trkpt lat="44.28118" lon="5.55456">
        <ele>1321.8000488281</ele>
        <time>2021-09-25T09:02:07.000Z</time>
      </trkpt>
      <trkpt lat="44.28118" lon="5.55455">
        <ele>1321.8000488281</ele>
        <time>2021-09-25T09:02:08.000Z</time>
      </trkpt>
      <trkpt lat="44.28116" lon="5.55453">
        <ele>1321.8000488281</ele>
        <time>2021-09-25T09:02:10.000Z</time>
      </trkpt>
      <trkpt lat="44.28114" lon="5.5545">
        <ele>1321.8000488281</ele>
        <time>2021-09-25T09:02:13.000Z</time>
      </trkpt>
      <trkpt lat="44.28113" lon="5.55448">
        <ele>1322</ele>
        <time>2021-09-25T09:02:16.000Z</time>
      </trkpt>
      <trkpt lat="44.28111" lon="5.55445">
        <ele>1322.1999511719</ele>
        <time>2021-09-25T09:02:20.000Z</time>
      </trkpt>
      <trkpt lat="44.2811" lon="5.55443">
        <ele>1322.1999511719</ele>
        <time>2021-09-25T09:02:23.000Z</time>
      </trkpt>
      <trkpt lat="44.28109" lon="5.5544">
        <ele>1322.4000244141</ele>
        <time>2021-09-25T09:02:25.000Z</time>
      </trkpt>
      <trkpt lat="44.28108" lon="5.55438">
        <ele>1323.1999511719</ele>
        <time>2021-09-25T09:02:29.000Z</time>
      </trkpt>
      <trkpt lat="44.28103" lon="5.55437">
        <ele>1323</ele>
        <time>2021-09-25T09:02:36.000Z</time>
      </trkpt>
      <trkpt lat="44.28101" lon="5.55438">
        <ele>1323.5999755859</ele>
        <time>2021-09-25T09:02:39.000Z</time>
      </trkpt>
      <trkpt lat="44.281" lon="5.5544">
        <ele>1324</ele>
        <time>2021-09-25T09:02:42.000Z</time>
      </trkpt>
      <trkpt lat="44.281" lon="5.55441">
        <ele>1324</ele>
        <time>2021-09-25T09:02:43.000Z</time>
      </trkpt>
      <trkpt lat="44.28097" lon="5.55445">
        <ele>1324.4000244141</ele>
        <time>2021-09-25T09:02:49.000Z</time>
      </trkpt>
      <trkpt lat="44.28097" lon="5.55447">
        <ele>1324.8000488281</ele>
        <time>2021-09-25T09:02:52.000Z</time>
      </trkpt>
      <trkpt lat="44.28099" lon="5.55453">
        <ele>1325.5999755859</ele>
        <time>2021-09-25T09:02:57.000Z</time>
      </trkpt>
      <trkpt lat="44.281" lon="5.55457">
        <ele>1325.5999755859</ele>
        <time>2021-09-25T09:03:01.000Z</time>
      </trkpt>
      <trkpt lat="44.28101" lon="5.5546">
        <ele>1325.8000488281</ele>
        <time>2021-09-25T09:03:03.000Z</time>
      </trkpt>
      <trkpt lat="44.28101" lon="5.55462">
        <ele>1326.1999511719</ele>
        <time>2021-09-25T09:03:05.000Z</time>
      </trkpt>
      <trkpt lat="44.281" lon="5.55468">
        <ele>1326.4000244141</ele>
        <time>2021-09-25T09:03:09.000Z</time>
      </trkpt>
      <trkpt lat="44.281" lon="5.55471">
        <ele>1326.4000244141</ele>
        <time>2021-09-25T09:03:11.000Z</time>
      </trkpt>
      <trkpt lat="44.28099" lon="5.55473">
        <ele>1326.4000244141</ele>
        <time>2021-09-25T09:03:12.000Z</time>
      </trkpt>
      <trkpt lat="44.28099" lon="5.55476">
        <ele>1326.1999511719</ele>
        <time>2021-09-25T09:03:15.000Z</time>
      </trkpt>
      <trkpt lat="44.28099" lon="5.55479">
        <ele>1326.4000244141</ele>
        <time>2021-09-25T09:03:17.000Z</time>
      </trkpt>
      <trkpt lat="44.281" lon="5.5548">
        <ele>1326.4000244141</ele>
        <time>2021-09-25T09:03:18.000Z</time>
      </trkpt>
      <trkpt lat="44.281" lon="5.55482">
        <ele>1326.5999755859</ele>
        <time>2021-09-25T09:03:20.000Z</time>
      </trkpt>
      <trkpt lat="44.28101" lon="5.55484">
        <ele>1326.8000488281</ele>
        <time>2021-09-25T09:03:23.000Z</time>
      </trkpt>
      <trkpt lat="44.28101" lon="5.55486">
        <ele>1326.8000488281</ele>
        <time>2021-09-25T09:03:25.000Z</time>
      </trkpt>
      <trkpt lat="44.28101" lon="5.55489">
        <ele>1327</ele>
        <time>2021-09-25T09:03:28.000Z</time>
      </trkpt>
      <trkpt lat="44.28102" lon="5.55495">
        <ele>1327.5999755859</ele>
        <time>2021-09-25T09:03:33.000Z</time>
      </trkpt>
      <trkpt lat="44.28102" lon="5.55497">
        <ele>1328</ele>
        <time>2021-09-25T09:03:35.000Z</time>
      </trkpt>
      <trkpt lat="44.28103" lon="5.555">
        <ele>1328.4000244141</ele>
        <time>2021-09-25T09:03:38.000Z</time>
      </trkpt>
      <trkpt lat="44.28103" lon="5.55502">
        <ele>1328.4000244141</ele>
        <time>2021-09-25T09:03:40.000Z</time>
      </trkpt>
      <trkpt lat="44.28104" lon="5.55507">
        <ele>1329</ele>
        <time>2021-09-25T09:03:45.000Z</time>
      </trkpt>
      <trkpt lat="44.28104" lon="5.55507">
        <ele>1329</ele>
        <time>2021-09-25T09:03:46.000Z</time>
      </trkpt>
      <trkpt lat="44.28105" lon="5.5551">
        <ele>1329.1999511719</ele>
        <time>2021-09-25T09:03:49.000Z</time>
      </trkpt>
      <trkpt lat="44.28105" lon="5.55511">
        <ele>1329.4000244141</ele>
        <time>2021-09-25T09:03:50.000Z</time>
      </trkpt>
      <trkpt lat="44.28106" lon="5.55513">
        <ele>1329.8000488281</ele>
        <time>2021-09-25T09:03:52.000Z</time>
      </trkpt>
      <trkpt lat="44.28106" lon="5.55514">
        <ele>1330</ele>
        <time>2021-09-25T09:03:53.000Z</time>
      </trkpt>
      <trkpt lat="44.28106" lon="5.55515">
        <ele>1330</ele>
        <time>2021-09-25T09:03:54.000Z</time>
      </trkpt>
      <trkpt lat="44.28106" lon="5.55516">
        <ele>1330.1999511719</ele>
        <time>2021-09-25T09:03:55.000Z</time>
      </trkpt>
      <trkpt lat="44.28106" lon="5.55517">
        <ele>1330.5999755859</ele>
        <time>2021-09-25T09:03:56.000Z</time>
      </trkpt>
      <trkpt lat="44.28107" lon="5.55518">
        <ele>1330.5999755859</ele>
        <time>2021-09-25T09:03:57.000Z</time>
      </trkpt>
      <trkpt lat="44.28107" lon="5.5552">
        <ele>1330.8000488281</ele>
        <time>2021-09-25T09:03:58.000Z</time>
      </trkpt>
      <trkpt lat="44.28107" lon="5.55521">
        <ele>1331</ele>
        <time>2021-09-25T09:03:59.000Z</time>
      </trkpt>
      <trkpt lat="44.28107" lon="5.55522">
        <ele>1331.1999511719</ele>
        <time>2021-09-25T09:04:00.000Z</time>
      </trkpt>
      <trkpt lat="44.28108" lon="5.55524">
        <ele>1331.4000244141</ele>
        <time>2021-09-25T09:04:01.000Z</time>
      </trkpt>
      <trkpt lat="44.28107" lon="5.55527">
        <ele>1331.4000244141</ele>
        <time>2021-09-25T09:04:03.000Z</time>
      </trkpt>
      <trkpt lat="44.28107" lon="5.55528">
        <ele>1331.5999755859</ele>
        <time>2021-09-25T09:04:04.000Z</time>
      </trkpt>
      <trkpt lat="44.28107" lon="5.5553">
        <ele>1331.8000488281</ele>
        <time>2021-09-25T09:04:06.000Z</time>
      </trkpt>
      <trkpt lat="44.28106" lon="5.55531">
        <ele>1331.8000488281</ele>
        <time>2021-09-25T09:04:08.000Z</time>
      </trkpt>
      <trkpt lat="44.28102" lon="5.55534">
        <ele>1332</ele>
        <time>2021-09-25T09:04:14.000Z</time>
      </trkpt>
      <trkpt lat="44.28101" lon="5.55535">
        <ele>1332.1999511719</ele>
        <time>2021-09-25T09:04:15.000Z</time>
      </trkpt>
      <trkpt lat="44.281" lon="5.55535">
        <ele>1332.4000244141</ele>
        <time>2021-09-25T09:04:16.000Z</time>
      </trkpt>
      <trkpt lat="44.28098" lon="5.55533">
        <ele>1332.5999755859</ele>
        <time>2021-09-25T09:04:18.000Z</time>
      </trkpt>
      <trkpt lat="44.28096" lon="5.5553">
        <ele>1333</ele>
        <time>2021-09-25T09:04:22.000Z</time>
      </trkpt>
      <trkpt lat="44.28095" lon="5.5553">
        <ele>1333</ele>
        <time>2021-09-25T09:04:23.000Z</time>
      </trkpt>
      <trkpt lat="44.28094" lon="5.55528">
        <ele>1333.1999511719</ele>
        <time>2021-09-25T09:04:25.000Z</time>
      </trkpt>
      <trkpt lat="44.28092" lon="5.55525">
        <ele>1333.5999755859</ele>
        <time>2021-09-25T09:04:27.000Z</time>
      </trkpt>
      <trkpt lat="44.28091" lon="5.55524">
        <ele>1333.8000488281</ele>
        <time>2021-09-25T09:04:29.000Z</time>
      </trkpt>
      <trkpt lat="44.28085" lon="5.5552">
        <ele>1334.5999755859</ele>
        <time>2021-09-25T09:04:37.000Z</time>
      </trkpt>
      <trkpt lat="44.28085" lon="5.5552">
        <ele>1334.8000488281</ele>
        <time>2021-09-25T09:04:38.000Z</time>
      </trkpt>
      <trkpt lat="44.28083" lon="5.5552">
        <ele>1335</ele>
        <time>2021-09-25T09:04:40.000Z</time>
      </trkpt>
      <trkpt lat="44.28081" lon="5.55518">
        <ele>1335.1999511719</ele>
        <time>2021-09-25T09:04:42.000Z</time>
      </trkpt>
      <trkpt lat="44.28081" lon="5.55517">
        <ele>1335.1999511719</ele>
        <time>2021-09-25T09:04:43.000Z</time>
      </trkpt>
      <trkpt lat="44.2808" lon="5.55516">
        <ele>1335.1999511719</ele>
        <time>2021-09-25T09:04:45.000Z</time>
      </trkpt>
      <trkpt lat="44.28079" lon="5.55517">
        <ele>1335.1999511719</ele>
        <time>2021-09-25T09:04:46.000Z</time>
      </trkpt>
      <trkpt lat="44.28076" lon="5.55514">
        <ele>1335.5999755859</ele>
        <time>2021-09-25T09:04:51.000Z</time>
      </trkpt>
      <trkpt lat="44.28076" lon="5.55514">
        <ele>1335.5999755859</ele>
        <time>2021-09-25T09:04:52.000Z</time>
      </trkpt>
      <trkpt lat="44.28072" lon="5.55508">
        <ele>1336</ele>
        <time>2021-09-25T09:04:59.000Z</time>
      </trkpt>
      <trkpt lat="44.28069" lon="5.55505">
        <ele>1336.4000244141</ele>
        <time>2021-09-25T09:05:05.000Z</time>
      </trkpt>
      <trkpt lat="44.28066" lon="5.55502">
        <ele>1336.5999755859</ele>
        <time>2021-09-25T09:05:11.000Z</time>
      </trkpt>
      <trkpt lat="44.28065" lon="5.55501">
        <ele>1336.8000488281</ele>
        <time>2021-09-25T09:05:12.000Z</time>
      </trkpt>
      <trkpt lat="44.28061" lon="5.55491">
        <ele>1337.4000244141</ele>
        <time>2021-09-25T09:05:21.000Z</time>
      </trkpt>
      <trkpt lat="44.28061" lon="5.55491">
        <ele>1337.5999755859</ele>
        <time>2021-09-25T09:05:22.000Z</time>
      </trkpt>
      <trkpt lat="44.2806" lon="5.55489">
        <ele>1337.8000488281</ele>
        <time>2021-09-25T09:05:23.000Z</time>
      </trkpt>
      <trkpt lat="44.2806" lon="5.55488">
        <ele>1337.8000488281</ele>
        <time>2021-09-25T09:05:24.000Z</time>
      </trkpt>
      <trkpt lat="44.28058" lon="5.55485">
        <ele>1338</ele>
        <time>2021-09-25T09:05:28.000Z</time>
      </trkpt>
      <trkpt lat="44.28057" lon="5.55484">
        <ele>1338.4000244141</ele>
        <time>2021-09-25T09:05:29.000Z</time>
      </trkpt>
      <trkpt lat="44.28056" lon="5.55484">
        <ele>1338.8000488281</ele>
        <time>2021-09-25T09:05:31.000Z</time>
      </trkpt>
      <trkpt lat="44.28055" lon="5.55482">
        <ele>1339.4000244141</ele>
        <time>2021-09-25T09:05:33.000Z</time>
      </trkpt>
      <trkpt lat="44.28053" lon="5.55479">
        <ele>1340.1999511719</ele>
        <time>2021-09-25T09:05:36.000Z</time>
      </trkpt>
      <trkpt lat="44.28052" lon="5.55479">
        <ele>1340.1999511719</ele>
        <time>2021-09-25T09:05:37.000Z</time>
      </trkpt>
      <trkpt lat="44.2805" lon="5.55476">
        <ele>1340.8000488281</ele>
        <time>2021-09-25T09:05:42.000Z</time>
      </trkpt>
      <trkpt lat="44.28049" lon="5.55474">
        <ele>1341</ele>
        <time>2021-09-25T09:05:43.000Z</time>
      </trkpt>
      <trkpt lat="44.28048" lon="5.55473">
        <ele>1341</ele>
        <time>2021-09-25T09:05:45.000Z</time>
      </trkpt>
      <trkpt lat="44.28048" lon="5.55472">
        <ele>1341.1999511719</ele>
        <time>2021-09-25T09:05:46.000Z</time>
      </trkpt>
      <trkpt lat="44.28047" lon="5.5547">
        <ele>1341.5999755859</ele>
        <time>2021-09-25T09:05:48.000Z</time>
      </trkpt>
      <trkpt lat="44.28046" lon="5.55469">
        <ele>1341.5999755859</ele>
        <time>2021-09-25T09:05:49.000Z</time>
      </trkpt>
      <trkpt lat="44.28045" lon="5.55467">
        <ele>1342</ele>
        <time>2021-09-25T09:05:51.000Z</time>
      </trkpt>
      <trkpt lat="44.28044" lon="5.55464">
        <ele>1342.4000244141</ele>
        <time>2021-09-25T09:05:54.000Z</time>
      </trkpt>
      <trkpt lat="44.28041" lon="5.55462">
        <ele>1342.8000488281</ele>
        <time>2021-09-25T09:05:58.000Z</time>
      </trkpt>
      <trkpt lat="44.28041" lon="5.55461">
        <ele>1342.5999755859</ele>
        <time>2021-09-25T09:05:59.000Z</time>
      </trkpt>
      <trkpt lat="44.2804" lon="5.55461">
        <ele>1342.8000488281</ele>
        <time>2021-09-25T09:06:00.000Z</time>
      </trkpt>
      <trkpt lat="44.2804" lon="5.55461">
        <ele>1342.8000488281</ele>
        <time>2021-09-25T09:06:01.000Z</time>
      </trkpt>
      <trkpt lat="44.28035" lon="5.5546">
        <ele>1343.4000244141</ele>
        <time>2021-09-25T09:06:06.000Z</time>
      </trkpt>
      <trkpt lat="44.28035" lon="5.5546">
        <ele>1343.5999755859</ele>
        <time>2021-09-25T09:06:07.000Z</time>
      </trkpt>
      <trkpt lat="44.2803" lon="5.55463">
        <ele>1344.1999511719</ele>
        <time>2021-09-25T09:06:13.000Z</time>
      </trkpt>
      <trkpt lat="44.28026" lon="5.55465">
        <ele>1344.4000244141</ele>
        <time>2021-09-25T09:06:17.000Z</time>
      </trkpt>
      <trkpt lat="44.28025" lon="5.55465">
        <ele>1344.4000244141</ele>
        <time>2021-09-25T09:06:18.000Z</time>
      </trkpt>
      <trkpt lat="44.28025" lon="5.55466">
        <ele>1344.8000488281</ele>
        <time>2021-09-25T09:06:19.000Z</time>
      </trkpt>
      <trkpt lat="44.28024" lon="5.55468">
        <ele>1345.1999511719</ele>
        <time>2021-09-25T09:06:22.000Z</time>
      </trkpt>
      <trkpt lat="44.28025" lon="5.55469">
        <ele>1344.1999511719</ele>
        <time>2021-09-25T09:06:25.000Z</time>
      </trkpt>
      <trkpt lat="44.28021" lon="5.55469">
        <ele>1344</ele>
        <time>2021-09-25T09:06:31.000Z</time>
      </trkpt>
      <trkpt lat="44.2802" lon="5.55468">
        <ele>1344</ele>
        <time>2021-09-25T09:06:36.000Z</time>
      </trkpt>
      <trkpt lat="44.28021" lon="5.55469">
        <ele>1344</ele>
        <time>2021-09-25T09:06:43.000Z</time>
      </trkpt>
      <trkpt lat="44.28021" lon="5.55469">
        <ele>1343.8000488281</ele>
        <time>2021-09-25T09:06:45.000Z</time>
      </trkpt>
      <trkpt lat="44.28021" lon="5.55471">
        <ele>1343.4000244141</ele>
        <time>2021-09-25T09:06:49.000Z</time>
      </trkpt>
      <trkpt lat="44.28021" lon="5.55471">
        <ele>1343.4000244141</ele>
        <time>2021-09-25T09:06:50.000Z</time>
      </trkpt>
      <trkpt lat="44.28022" lon="5.55472">
        <ele>1342.5999755859</ele>
        <time>2021-09-25T09:06:54.000Z</time>
      </trkpt>
      <trkpt lat="44.28022" lon="5.55472">
        <ele>1342.1999511719</ele>
        <time>2021-09-25T09:06:57.000Z</time>
      </trkpt>
      <trkpt lat="44.28022" lon="5.55472">
        <ele>1342</ele>
        <time>2021-09-25T09:06:58.000Z</time>
      </trkpt>
      <trkpt lat="44.28022" lon="5.55471">
        <ele>1341.5999755859</ele>
        <time>2021-09-25T09:07:01.000Z</time>
      </trkpt>
      <trkpt lat="44.28023" lon="5.55471">
        <ele>1341.4000244141</ele>
        <time>2021-09-25T09:07:02.000Z</time>
      </trkpt>
      <trkpt lat="44.28023" lon="5.55471">
        <ele>1341.1999511719</ele>
        <time>2021-09-25T09:07:05.000Z</time>
      </trkpt>
      <trkpt lat="44.28023" lon="5.55472">
        <ele>1341</ele>
        <time>2021-09-25T09:07:07.000Z</time>
      </trkpt>
      <trkpt lat="44.28022" lon="5.55472">
        <ele>1341</ele>
        <time>2021-09-25T09:07:12.000Z</time>
      </trkpt>
      <trkpt lat="44.28021" lon="5.55472">
        <ele>1341</ele>
        <time>2021-09-25T09:07:16.000Z</time>
      </trkpt>
      <trkpt lat="44.2802" lon="5.55471">
        <ele>1341</ele>
        <time>2021-09-25T09:07:19.000Z</time>
      </trkpt>
      <trkpt lat="44.2802" lon="5.55471">
        <ele>1341.1999511719</ele>
        <time>2021-09-25T09:07:23.000Z</time>
      </trkpt>
      <trkpt lat="44.2802" lon="5.55468">
        <ele>1341.1999511719</ele>
        <time>2021-09-25T09:07:27.000Z</time>
      </trkpt>
      <trkpt lat="44.28019" lon="5.55468">
        <ele>1341</ele>
        <time>2021-09-25T09:07:33.000Z</time>
      </trkpt>
      <trkpt lat="44.2802" lon="5.55471">
        <ele>1341.4000244141</ele>
        <time>2021-09-25T09:07:36.000Z</time>
      </trkpt>
      <trkpt lat="44.2802" lon="5.55472">
        <ele>1341.4000244141</ele>
        <time>2021-09-25T09:07:37.000Z</time>
      </trkpt>
      <trkpt lat="44.28021" lon="5.55472">
        <ele>1341.4000244141</ele>
        <time>2021-09-25T09:07:38.000Z</time>
      </trkpt>
      <trkpt lat="44.28022" lon="5.55472">
        <ele>1341.8000488281</ele>
        <time>2021-09-25T09:07:42.000Z</time>
      </trkpt>
      <trkpt lat="44.28022" lon="5.55472">
        <ele>1342.1999511719</ele>
        <time>2021-09-25T09:07:44.000Z</time>
      </trkpt>
      <trkpt lat="44.28022" lon="5.55472">
        <ele>1342.1999511719</ele>
        <time>2021-09-25T09:07:45.000Z</time>
      </trkpt>
      <trkpt lat="44.28021" lon="5.55473">
        <ele>1342</ele>
        <time>2021-09-25T09:07:51.000Z</time>
      </trkpt>
      <trkpt lat="44.28021" lon="5.55472">
        <ele>1341.5999755859</ele>
        <time>2021-09-25T09:07:53.000Z</time>
      </trkpt>
      <trkpt lat="44.28024" lon="5.55473">
        <ele>1341.4000244141</ele>
        <time>2021-09-25T09:08:00.000Z</time>
      </trkpt>
      <trkpt lat="44.28027" lon="5.55472">
        <ele>1341.5999755859</ele>
        <time>2021-09-25T09:08:09.000Z</time>
      </trkpt>
      <trkpt lat="44.28025" lon="5.55472">
        <ele>1341.5999755859</ele>
        <time>2021-09-25T09:08:18.000Z</time>
      </trkpt>
      <trkpt lat="44.28023" lon="5.55471">
        <ele>1341.1999511719</ele>
        <time>2021-09-25T09:08:24.000Z</time>
      </trkpt>
      <trkpt lat="44.28024" lon="5.55471">
        <ele>1341.1999511719</ele>
        <time>2021-09-25T09:08:25.000Z</time>
      </trkpt>
      <trkpt lat="44.28024" lon="5.5547">
        <ele>1341</ele>
        <time>2021-09-25T09:08:26.000Z</time>
      </trkpt>
      <trkpt lat="44.28024" lon="5.55471">
        <ele>1341.1999511719</ele>
        <time>2021-09-25T09:08:34.000Z</time>
      </trkpt>
      <trkpt lat="44.28024" lon="5.55471">
        <ele>1341.5999755859</ele>
        <time>2021-09-25T09:08:36.000Z</time>
      </trkpt>
      <trkpt lat="44.28023" lon="5.5547">
        <ele>1341.4000244141</ele>
        <time>2021-09-25T09:08:44.000Z</time>
      </trkpt>
      <trkpt lat="44.28023" lon="5.55469">
        <ele>1341.8000488281</ele>
        <time>2021-09-25T09:08:52.000Z</time>
      </trkpt>
      <trkpt lat="44.28024" lon="5.55469">
        <ele>1341.1999511719</ele>
        <time>2021-09-25T09:09:00.000Z</time>
      </trkpt>
      <trkpt lat="44.28022" lon="5.55467">
        <ele>1340.8000488281</ele>
        <time>2021-09-25T09:09:06.000Z</time>
      </trkpt>
      <trkpt lat="44.28017" lon="5.5547">
        <ele>1340.4000244141</ele>
        <time>2021-09-25T09:09:12.000Z</time>
      </trkpt>
      <trkpt lat="44.28016" lon="5.55471">
        <ele>1340.4000244141</ele>
        <time>2021-09-25T09:09:13.000Z</time>
      </trkpt>
      <trkpt lat="44.28013" lon="5.55473">
        <ele>1340.8000488281</ele>
        <time>2021-09-25T09:09:16.000Z</time>
      </trkpt>
      <trkpt lat="44.28012" lon="5.55475">
        <ele>1341</ele>
        <time>2021-09-25T09:09:18.000Z</time>
      </trkpt>
      <trkpt lat="44.28011" lon="5.55476">
        <ele>1341</ele>
        <time>2021-09-25T09:09:19.000Z</time>
      </trkpt>
      <trkpt lat="44.28011" lon="5.55476">
        <ele>1341.1999511719</ele>
        <time>2021-09-25T09:09:20.000Z</time>
      </trkpt>
      <trkpt lat="44.28009" lon="5.55478">
        <ele>1341.4000244141</ele>
        <time>2021-09-25T09:09:22.000Z</time>
      </trkpt>
      <trkpt lat="44.28008" lon="5.55479">
        <ele>1341.5999755859</ele>
        <time>2021-09-25T09:09:23.000Z</time>
      </trkpt>
      <trkpt lat="44.28005" lon="5.55486">
        <ele>1341.8000488281</ele>
        <time>2021-09-25T09:09:29.000Z</time>
      </trkpt>
      <trkpt lat="44.28004" lon="5.55487">
        <ele>1341.8000488281</ele>
        <time>2021-09-25T09:09:30.000Z</time>
      </trkpt>
      <trkpt lat="44.28001" lon="5.55493">
        <ele>1342.5999755859</ele>
        <time>2021-09-25T09:09:36.000Z</time>
      </trkpt>
      <trkpt lat="44.28001" lon="5.55494">
        <ele>1342.5999755859</ele>
        <time>2021-09-25T09:09:37.000Z</time>
      </trkpt>
      <trkpt lat="44.27998" lon="5.555">
        <ele>1343</ele>
        <time>2021-09-25T09:09:42.000Z</time>
      </trkpt>
      <trkpt lat="44.27997" lon="5.55505">
        <ele>1343.1999511719</ele>
        <time>2021-09-25T09:09:46.000Z</time>
      </trkpt>
      <trkpt lat="44.27996" lon="5.55506">
        <ele>1343.4000244141</ele>
        <time>2021-09-25T09:09:48.000Z</time>
      </trkpt>
      <trkpt lat="44.27996" lon="5.55507">
        <ele>1343.5999755859</ele>
        <time>2021-09-25T09:09:49.000Z</time>
      </trkpt>
      <trkpt lat="44.27996" lon="5.55508">
        <ele>1343.8000488281</ele>
        <time>2021-09-25T09:09:50.000Z</time>
      </trkpt>
      <trkpt lat="44.27995" lon="5.55511">
        <ele>1344.1999511719</ele>
        <time>2021-09-25T09:09:53.000Z</time>
      </trkpt>
      <trkpt lat="44.27995" lon="5.55514">
        <ele>1344.4000244141</ele>
        <time>2021-09-25T09:09:55.000Z</time>
      </trkpt>
      <trkpt lat="44.27995" lon="5.55515">
        <ele>1344.5999755859</ele>
        <time>2021-09-25T09:09:56.000Z</time>
      </trkpt>
      <trkpt lat="44.27995" lon="5.55517">
        <ele>1344.5999755859</ele>
        <time>2021-09-25T09:09:57.000Z</time>
      </trkpt>
      <trkpt lat="44.27995" lon="5.55519">
        <ele>1344.8000488281</ele>
        <time>2021-09-25T09:09:59.000Z</time>
      </trkpt>
      <trkpt lat="44.27994" lon="5.5552">
        <ele>1344.8000488281</ele>
        <time>2021-09-25T09:10:00.000Z</time>
      </trkpt>
      <trkpt lat="44.27994" lon="5.55521">
        <ele>1345</ele>
        <time>2021-09-25T09:10:01.000Z</time>
      </trkpt>
      <trkpt lat="44.27994" lon="5.55522">
        <ele>1345.1999511719</ele>
        <time>2021-09-25T09:10:02.000Z</time>
      </trkpt>
      <trkpt lat="44.27994" lon="5.55528">
        <ele>1345.8000488281</ele>
        <time>2021-09-25T09:10:07.000Z</time>
      </trkpt>
      <trkpt lat="44.27993" lon="5.55531">
        <ele>1346</ele>
        <time>2021-09-25T09:10:09.000Z</time>
      </trkpt>
      <trkpt lat="44.27993" lon="5.55532">
        <ele>1346.1999511719</ele>
        <time>2021-09-25T09:10:10.000Z</time>
      </trkpt>
      <trkpt lat="44.27993" lon="5.55535">
        <ele>1346.8000488281</ele>
        <time>2021-09-25T09:10:13.000Z</time>
      </trkpt>
      <trkpt lat="44.27993" lon="5.55537">
        <ele>1347</ele>
        <time>2021-09-25T09:10:14.000Z</time>
      </trkpt>
      <trkpt lat="44.27993" lon="5.55539">
        <ele>1347.1999511719</ele>
        <time>2021-09-25T09:10:16.000Z</time>
      </trkpt>
      <trkpt lat="44.27993" lon="5.55541">
        <ele>1347.4000244141</ele>
        <time>2021-09-25T09:10:17.000Z</time>
      </trkpt>
      <trkpt lat="44.27992" lon="5.55545">
        <ele>1347.5999755859</ele>
        <time>2021-09-25T09:10:19.000Z</time>
      </trkpt>
      <trkpt lat="44.27991" lon="5.55549">
        <ele>1348.1999511719</ele>
        <time>2021-09-25T09:10:21.000Z</time>
      </trkpt>
      <trkpt lat="44.2799" lon="5.55555">
        <ele>1348.4000244141</ele>
        <time>2021-09-25T09:10:25.000Z</time>
      </trkpt>
      <trkpt lat="44.2799" lon="5.55558">
        <ele>1348.4000244141</ele>
        <time>2021-09-25T09:10:28.000Z</time>
      </trkpt>
      <trkpt lat="44.27991" lon="5.55561">
        <ele>1348.8000488281</ele>
        <time>2021-09-25T09:10:31.000Z</time>
      </trkpt>
      <trkpt lat="44.27991" lon="5.55563">
        <ele>1349.1999511719</ele>
        <time>2021-09-25T09:10:33.000Z</time>
      </trkpt>
      <trkpt lat="44.27991" lon="5.55566">
        <ele>1349.4000244141</ele>
        <time>2021-09-25T09:10:35.000Z</time>
      </trkpt>
      <trkpt lat="44.27991" lon="5.55569">
        <ele>1349.5999755859</ele>
        <time>2021-09-25T09:10:38.000Z</time>
      </trkpt>
      <trkpt lat="44.27991" lon="5.55572">
        <ele>1349.8000488281</ele>
        <time>2021-09-25T09:10:40.000Z</time>
      </trkpt>
      <trkpt lat="44.27991" lon="5.55575">
        <ele>1349.8000488281</ele>
        <time>2021-09-25T09:10:42.000Z</time>
      </trkpt>
      <trkpt lat="44.2799" lon="5.55576">
        <ele>1350.1999511719</ele>
        <time>2021-09-25T09:10:43.000Z</time>
      </trkpt>
      <trkpt lat="44.27989" lon="5.55583">
        <ele>1350.8000488281</ele>
        <time>2021-09-25T09:10:48.000Z</time>
      </trkpt>
      <trkpt lat="44.27988" lon="5.55585">
        <ele>1351</ele>
        <time>2021-09-25T09:10:50.000Z</time>
      </trkpt>
      <trkpt lat="44.27987" lon="5.55587">
        <ele>1351.1999511719</ele>
        <time>2021-09-25T09:10:52.000Z</time>
      </trkpt>
      <trkpt lat="44.27986" lon="5.55588">
        <ele>1351.4000244141</ele>
        <time>2021-09-25T09:10:53.000Z</time>
      </trkpt>
      <trkpt lat="44.27986" lon="5.55589">
        <ele>1351.4000244141</ele>
        <time>2021-09-25T09:10:55.000Z</time>
      </trkpt>
      <trkpt lat="44.27987" lon="5.55589">
        <ele>1351.5999755859</ele>
        <time>2021-09-25T09:10:56.000Z</time>
      </trkpt>
      <trkpt lat="44.27989" lon="5.55591">
        <ele>1351.5999755859</ele>
        <time>2021-09-25T09:11:00.000Z</time>
      </trkpt>
      <trkpt lat="44.27989" lon="5.55591">
        <ele>1352</ele>
        <time>2021-09-25T09:11:02.000Z</time>
      </trkpt>
      <trkpt lat="44.27989" lon="5.55591">
        <ele>1351.8000488281</ele>
        <time>2021-09-25T09:11:03.000Z</time>
      </trkpt>
      <trkpt lat="44.2799" lon="5.55593">
        <ele>1351.8000488281</ele>
        <time>2021-09-25T09:11:08.000Z</time>
      </trkpt>
      <trkpt lat="44.2799" lon="5.55594">
        <ele>1352</ele>
        <time>2021-09-25T09:11:09.000Z</time>
      </trkpt>
      <trkpt lat="44.2799" lon="5.55594">
        <ele>1352.5999755859</ele>
        <time>2021-09-25T09:11:12.000Z</time>
      </trkpt>
      <trkpt lat="44.2799" lon="5.55595">
        <ele>1353.1999511719</ele>
        <time>2021-09-25T09:11:15.000Z</time>
      </trkpt>
      <trkpt lat="44.2799" lon="5.55595">
        <ele>1353.1999511719</ele>
        <time>2021-09-25T09:11:17.000Z</time>
      </trkpt>
      <trkpt lat="44.27989" lon="5.55593">
        <ele>1352.4000244141</ele>
        <time>2021-09-25T09:11:23.000Z</time>
      </trkpt>
      <trkpt lat="44.27989" lon="5.55593">
        <ele>1352.1999511719</ele>
        <time>2021-09-25T09:11:24.000Z</time>
      </trkpt>
      <trkpt lat="44.27987" lon="5.55592">
        <ele>1351.8000488281</ele>
        <time>2021-09-25T09:11:27.000Z</time>
      </trkpt>
      <trkpt lat="44.27987" lon="5.55591">
        <ele>1351.5999755859</ele>
        <time>2021-09-25T09:11:31.000Z</time>
      </trkpt>
      <trkpt lat="44.27987" lon="5.5559">
        <ele>1351.5999755859</ele>
        <time>2021-09-25T09:11:35.000Z</time>
      </trkpt>
      <trkpt lat="44.27987" lon="5.5559">
        <ele>1351.5999755859</ele>
        <time>2021-09-25T09:11:37.000Z</time>
      </trkpt>
      <trkpt lat="44.27987" lon="5.5559">
        <ele>1351.5999755859</ele>
        <time>2021-09-25T09:11:39.000Z</time>
      </trkpt>
      <trkpt lat="44.27986" lon="5.55591">
        <ele>1351.5999755859</ele>
        <time>2021-09-25T09:11:40.000Z</time>
      </trkpt>
      <trkpt lat="44.27985" lon="5.55591">
        <ele>1351.1999511719</ele>
        <time>2021-09-25T09:11:48.000Z</time>
      </trkpt>
      <trkpt lat="44.27983" lon="5.55591">
        <ele>1351</ele>
        <time>2021-09-25T09:11:54.000Z</time>
      </trkpt>
      <trkpt lat="44.27983" lon="5.55591">
        <ele>1351</ele>
        <time>2021-09-25T09:11:55.000Z</time>
      </trkpt>
      <trkpt lat="44.27984" lon="5.55592">
        <ele>1351.1999511719</ele>
        <time>2021-09-25T09:11:59.000Z</time>
      </trkpt>
      <trkpt lat="44.27984" lon="5.55592">
        <ele>1351.1999511719</ele>
        <time>2021-09-25T09:12:02.000Z</time>
      </trkpt>
      <trkpt lat="44.27984" lon="5.55593">
        <ele>1351.1999511719</ele>
        <time>2021-09-25T09:12:06.000Z</time>
      </trkpt>
      <trkpt lat="44.27985" lon="5.55593">
        <ele>1351</ele>
        <time>2021-09-25T09:12:09.000Z</time>
      </trkpt>
      <trkpt lat="44.27985" lon="5.55593">
        <ele>1351</ele>
        <time>2021-09-25T09:12:10.000Z</time>
      </trkpt>
      <trkpt lat="44.27991" lon="5.55593">
        <ele>1351</ele>
        <time>2021-09-25T09:12:17.000Z</time>
      </trkpt>
      <trkpt lat="44.27992" lon="5.55595">
        <ele>1351</ele>
        <time>2021-09-25T09:12:19.000Z</time>
      </trkpt>
      <trkpt lat="44.27992" lon="5.55595">
        <ele>1350.8000488281</ele>
        <time>2021-09-25T09:12:20.000Z</time>
      </trkpt>
      <trkpt lat="44.27992" lon="5.55595">
        <ele>1350.5999755859</ele>
        <time>2021-09-25T09:12:21.000Z</time>
      </trkpt>
      <trkpt lat="44.27992" lon="5.55595">
        <ele>1350.5999755859</ele>
        <time>2021-09-25T09:12:22.000Z</time>
      </trkpt>
      <trkpt lat="44.27992" lon="5.55595">
        <ele>1350.5999755859</ele>
        <time>2021-09-25T09:12:23.000Z</time>
      </trkpt>
      <trkpt lat="44.27992" lon="5.55594">
        <ele>1350.4000244141</ele>
        <time>2021-09-25T09:12:25.000Z</time>
      </trkpt>
      <trkpt lat="44.27992" lon="5.55593">
        <ele>1350.1999511719</ele>
        <time>2021-09-25T09:12:30.000Z</time>
      </trkpt>
      <trkpt lat="44.27992" lon="5.55594">
        <ele>1350.1999511719</ele>
        <time>2021-09-25T09:12:32.000Z</time>
      </trkpt>
      <trkpt lat="44.27992" lon="5.55594">
        <ele>1350.1999511719</ele>
        <time>2021-09-25T09:12:35.000Z</time>
      </trkpt>
      <trkpt lat="44.27993" lon="5.55593">
        <ele>1350</ele>
        <time>2021-09-25T09:12:38.000Z</time>
      </trkpt>
      <trkpt lat="44.27992" lon="5.55592">
        <ele>1350</ele>
        <time>2021-09-25T09:12:40.000Z</time>
      </trkpt>
      <trkpt lat="44.27992" lon="5.55591">
        <ele>1350.1999511719</ele>
        <time>2021-09-25T09:12:43.000Z</time>
      </trkpt>
      <trkpt lat="44.27992" lon="5.5559">
        <ele>1350.4000244141</ele>
        <time>2021-09-25T09:12:44.000Z</time>
      </trkpt>
      <trkpt lat="44.2799" lon="5.55588">
        <ele>1350.5999755859</ele>
        <time>2021-09-25T09:12:47.000Z</time>
      </trkpt>
      <trkpt lat="44.27989" lon="5.55587">
        <ele>1350.8000488281</ele>
        <time>2021-09-25T09:12:49.000Z</time>
      </trkpt>
      <trkpt lat="44.27988" lon="5.55585">
        <ele>1350.8000488281</ele>
        <time>2021-09-25T09:12:51.000Z</time>
      </trkpt>
      <trkpt lat="44.27987" lon="5.55585">
        <ele>1350.8000488281</ele>
        <time>2021-09-25T09:12:52.000Z</time>
      </trkpt>
      <trkpt lat="44.27984" lon="5.55584">
        <ele>1350.8000488281</ele>
        <time>2021-09-25T09:12:56.000Z</time>
      </trkpt>
      <trkpt lat="44.27983" lon="5.55584">
        <ele>1351</ele>
        <time>2021-09-25T09:12:57.000Z</time>
      </trkpt>
      <trkpt lat="44.27982" lon="5.55583">
        <ele>1351.4000244141</ele>
        <time>2021-09-25T09:12:58.000Z</time>
      </trkpt>
      <trkpt lat="44.2798" lon="5.55583">
        <ele>1351.8000488281</ele>
        <time>2021-09-25T09:12:59.000Z</time>
      </trkpt>
      <trkpt lat="44.2798" lon="5.55583">
        <ele>1352</ele>
        <time>2021-09-25T09:13:00.000Z</time>
      </trkpt>
      <trkpt lat="44.27978" lon="5.5558">
        <ele>1352.4000244141</ele>
        <time>2021-09-25T09:13:03.000Z</time>
      </trkpt>
      <trkpt lat="44.27977" lon="5.5558">
        <ele>1352.5999755859</ele>
        <time>2021-09-25T09:13:04.000Z</time>
      </trkpt>
      <trkpt lat="44.27976" lon="5.55577">
        <ele>1353</ele>
        <time>2021-09-25T09:13:08.000Z</time>
      </trkpt>
      <trkpt lat="44.27975" lon="5.55575">
        <ele>1353.1999511719</ele>
        <time>2021-09-25T09:13:10.000Z</time>
      </trkpt>
      <trkpt lat="44.27974" lon="5.55573">
        <ele>1353.4000244141</ele>
        <time>2021-09-25T09:13:12.000Z</time>
      </trkpt>
      <trkpt lat="44.27972" lon="5.55572">
        <ele>1353.5999755859</ele>
        <time>2021-09-25T09:13:14.000Z</time>
      </trkpt>
      <trkpt lat="44.27971" lon="5.55571">
        <ele>1353.5999755859</ele>
        <time>2021-09-25T09:13:15.000Z</time>
      </trkpt>
      <trkpt lat="44.27971" lon="5.5557">
        <ele>1353.8000488281</ele>
        <time>2021-09-25T09:13:16.000Z</time>
      </trkpt>
      <trkpt lat="44.2797" lon="5.5557">
        <ele>1353.8000488281</ele>
        <time>2021-09-25T09:13:17.000Z</time>
      </trkpt>
      <trkpt lat="44.2797" lon="5.55569">
        <ele>1353.8000488281</ele>
        <time>2021-09-25T09:13:18.000Z</time>
      </trkpt>
      <trkpt lat="44.27969" lon="5.55568">
        <ele>1353.8000488281</ele>
        <time>2021-09-25T09:13:19.000Z</time>
      </trkpt>
      <trkpt lat="44.27969" lon="5.55566">
        <ele>1354.1999511719</ele>
        <time>2021-09-25T09:13:20.000Z</time>
      </trkpt>
      <trkpt lat="44.27968" lon="5.55565">
        <ele>1354.5999755859</ele>
        <time>2021-09-25T09:13:21.000Z</time>
      </trkpt>
      <trkpt lat="44.27967" lon="5.55563">
        <ele>1355.4000244141</ele>
        <time>2021-09-25T09:13:23.000Z</time>
      </trkpt>
      <trkpt lat="44.27967" lon="5.55563">
        <ele>1355.8000488281</ele>
        <time>2021-09-25T09:13:24.000Z</time>
      </trkpt>
      <trkpt lat="44.27966" lon="5.55561">
        <ele>1356.1999511719</ele>
        <time>2021-09-25T09:13:26.000Z</time>
      </trkpt>
      <trkpt lat="44.27964" lon="5.55559">
        <ele>1356</ele>
        <time>2021-09-25T09:13:29.000Z</time>
      </trkpt>
      <trkpt lat="44.27963" lon="5.55556">
        <ele>1355.8000488281</ele>
        <time>2021-09-25T09:13:31.000Z</time>
      </trkpt>
      <trkpt lat="44.27963" lon="5.55556">
        <ele>1356</ele>
        <time>2021-09-25T09:13:32.000Z</time>
      </trkpt>
      <trkpt lat="44.2796" lon="5.55553">
        <ele>1356.1999511719</ele>
        <time>2021-09-25T09:13:35.000Z</time>
      </trkpt>
      <trkpt lat="44.2796" lon="5.55552">
        <ele>1356.1999511719</ele>
        <time>2021-09-25T09:13:36.000Z</time>
      </trkpt>
      <trkpt lat="44.27959" lon="5.5555">
        <ele>1356.1999511719</ele>
        <time>2021-09-25T09:13:38.000Z</time>
      </trkpt>
      <trkpt lat="44.27957" lon="5.55547">
        <ele>1356.1999511719</ele>
        <time>2021-09-25T09:13:42.000Z</time>
      </trkpt>
      <trkpt lat="44.27955" lon="5.55544">
        <ele>1356.4000244141</ele>
        <time>2021-09-25T09:13:46.000Z</time>
      </trkpt>
      <trkpt lat="44.27953" lon="5.55541">
        <ele>1357</ele>
        <time>2021-09-25T09:13:50.000Z</time>
      </trkpt>
      <trkpt lat="44.27952" lon="5.5554">
        <ele>1357.1999511719</ele>
        <time>2021-09-25T09:13:51.000Z</time>
      </trkpt>
      <trkpt lat="44.27951" lon="5.5554">
        <ele>1357.4000244141</ele>
        <time>2021-09-25T09:13:53.000Z</time>
      </trkpt>
      <trkpt lat="44.2795" lon="5.55539">
        <ele>1357.4000244141</ele>
        <time>2021-09-25T09:13:54.000Z</time>
      </trkpt>
      <trkpt lat="44.2795" lon="5.55539">
        <ele>1357.4000244141</ele>
        <time>2021-09-25T09:13:55.000Z</time>
      </trkpt>
      <trkpt lat="44.2795" lon="5.55538">
        <ele>1357.5999755859</ele>
        <time>2021-09-25T09:13:56.000Z</time>
      </trkpt>
      <trkpt lat="44.27949" lon="5.55537">
        <ele>1357.8000488281</ele>
        <time>2021-09-25T09:13:57.000Z</time>
      </trkpt>
      <trkpt lat="44.27948" lon="5.55536">
        <ele>1358</ele>
        <time>2021-09-25T09:13:58.000Z</time>
      </trkpt>
      <trkpt lat="44.27947" lon="5.55534">
        <ele>1358.1999511719</ele>
        <time>2021-09-25T09:14:01.000Z</time>
      </trkpt>
      <trkpt lat="44.27946" lon="5.5553">
        <ele>1358.4000244141</ele>
        <time>2021-09-25T09:14:05.000Z</time>
      </trkpt>
      <trkpt lat="44.27946" lon="5.5553">
        <ele>1358.4000244141</ele>
        <time>2021-09-25T09:14:06.000Z</time>
      </trkpt>
      <trkpt lat="44.27946" lon="5.55529">
        <ele>1358.4000244141</ele>
        <time>2021-09-25T09:14:07.000Z</time>
      </trkpt>
      <trkpt lat="44.27944" lon="5.55524">
        <ele>1358.8000488281</ele>
        <time>2021-09-25T09:14:12.000Z</time>
      </trkpt>
      <trkpt lat="44.27944" lon="5.55524">
        <ele>1358.8000488281</ele>
        <time>2021-09-25T09:14:13.000Z</time>
      </trkpt>
      <trkpt lat="44.27944" lon="5.55523">
        <ele>1359</ele>
        <time>2021-09-25T09:14:14.000Z</time>
      </trkpt>
      <trkpt lat="44.27943" lon="5.55522">
        <ele>1359.1999511719</ele>
        <time>2021-09-25T09:14:16.000Z</time>
      </trkpt>
      <trkpt lat="44.27943" lon="5.55521">
        <ele>1359.1999511719</ele>
        <time>2021-09-25T09:14:17.000Z</time>
      </trkpt>
      <trkpt lat="44.27943" lon="5.5552">
        <ele>1359.5999755859</ele>
        <time>2021-09-25T09:14:18.000Z</time>
      </trkpt>
      <trkpt lat="44.27941" lon="5.55516">
        <ele>1360.4000244141</ele>
        <time>2021-09-25T09:14:21.000Z</time>
      </trkpt>
      <trkpt lat="44.27939" lon="5.55513">
        <ele>1360.8000488281</ele>
        <time>2021-09-25T09:14:26.000Z</time>
      </trkpt>
      <trkpt lat="44.27938" lon="5.55512">
        <ele>1361</ele>
        <time>2021-09-25T09:14:28.000Z</time>
      </trkpt>
      <trkpt lat="44.27935" lon="5.55508">
        <ele>1361.8000488281</ele>
        <time>2021-09-25T09:14:32.000Z</time>
      </trkpt>
      <trkpt lat="44.27935" lon="5.55506">
        <ele>1361.8000488281</ele>
        <time>2021-09-25T09:14:34.000Z</time>
      </trkpt>
      <trkpt lat="44.27934" lon="5.55505">
        <ele>1362</ele>
        <time>2021-09-25T09:14:35.000Z</time>
      </trkpt>
      <trkpt lat="44.27934" lon="5.55501">
        <ele>1362.4000244141</ele>
        <time>2021-09-25T09:14:38.000Z</time>
      </trkpt>
      <trkpt lat="44.27933" lon="5.555">
        <ele>1362.5999755859</ele>
        <time>2021-09-25T09:14:40.000Z</time>
      </trkpt>
      <trkpt lat="44.27932" lon="5.55499">
        <ele>1363</ele>
        <time>2021-09-25T09:14:41.000Z</time>
      </trkpt>
      <trkpt lat="44.27932" lon="5.55498">
        <ele>1363.1999511719</ele>
        <time>2021-09-25T09:14:42.000Z</time>
      </trkpt>
      <trkpt lat="44.27931" lon="5.55498">
        <ele>1363.4000244141</ele>
        <time>2021-09-25T09:14:43.000Z</time>
      </trkpt>
      <trkpt lat="44.2793" lon="5.55495">
        <ele>1363.5999755859</ele>
        <time>2021-09-25T09:14:45.000Z</time>
      </trkpt>
      <trkpt lat="44.27927" lon="5.55491">
        <ele>1364</ele>
        <time>2021-09-25T09:14:50.000Z</time>
      </trkpt>
      <trkpt lat="44.27926" lon="5.55489">
        <ele>1364.4000244141</ele>
        <time>2021-09-25T09:14:53.000Z</time>
      </trkpt>
      <trkpt lat="44.27923" lon="5.55489">
        <ele>1364.5999755859</ele>
        <time>2021-09-25T09:14:57.000Z</time>
      </trkpt>
      <trkpt lat="44.27919" lon="5.55489">
        <ele>1365.4000244141</ele>
        <time>2021-09-25T09:15:01.000Z</time>
      </trkpt>
      <trkpt lat="44.27916" lon="5.55489">
        <ele>1365.8000488281</ele>
        <time>2021-09-25T09:15:05.000Z</time>
      </trkpt>
      <trkpt lat="44.27913" lon="5.5549">
        <ele>1366.5999755859</ele>
        <time>2021-09-25T09:15:09.000Z</time>
      </trkpt>
      <trkpt lat="44.27912" lon="5.5549">
        <ele>1367.1999511719</ele>
        <time>2021-09-25T09:15:11.000Z</time>
      </trkpt>
      <trkpt lat="44.27911" lon="5.55491">
        <ele>1367.4000244141</ele>
        <time>2021-09-25T09:15:13.000Z</time>
      </trkpt>
      <trkpt lat="44.2791" lon="5.55493">
        <ele>1367.8000488281</ele>
        <time>2021-09-25T09:15:15.000Z</time>
      </trkpt>
      <trkpt lat="44.2791" lon="5.55495">
        <ele>1367.8000488281</ele>
        <time>2021-09-25T09:15:17.000Z</time>
      </trkpt>
      <trkpt lat="44.2791" lon="5.55497">
        <ele>1368</ele>
        <time>2021-09-25T09:15:19.000Z</time>
      </trkpt>
      <trkpt lat="44.2791" lon="5.55503">
        <ele>1368.5999755859</ele>
        <time>2021-09-25T09:15:25.000Z</time>
      </trkpt>
      <trkpt lat="44.2791" lon="5.55504">
        <ele>1368.5999755859</ele>
        <time>2021-09-25T09:15:26.000Z</time>
      </trkpt>
      <trkpt lat="44.2791" lon="5.55505">
        <ele>1368.8000488281</ele>
        <time>2021-09-25T09:15:27.000Z</time>
      </trkpt>
      <trkpt lat="44.2791" lon="5.55506">
        <ele>1368.8000488281</ele>
        <time>2021-09-25T09:15:28.000Z</time>
      </trkpt>
      <trkpt lat="44.2791" lon="5.55514">
        <ele>1369.1999511719</ele>
        <time>2021-09-25T09:15:35.000Z</time>
      </trkpt>
      <trkpt lat="44.27911" lon="5.55518">
        <ele>1369.5999755859</ele>
        <time>2021-09-25T09:15:39.000Z</time>
      </trkpt>
      <trkpt lat="44.27911" lon="5.5552">
        <ele>1369.8000488281</ele>
        <time>2021-09-25T09:15:42.000Z</time>
      </trkpt>
      <trkpt lat="44.27911" lon="5.55521">
        <ele>1369.8000488281</ele>
        <time>2021-09-25T09:15:43.000Z</time>
      </trkpt>
      <trkpt lat="44.27911" lon="5.5553">
        <ele>1370.5999755859</ele>
        <time>2021-09-25T09:15:51.000Z</time>
      </trkpt>
      <trkpt lat="44.27911" lon="5.55537">
        <ele>1370.5999755859</ele>
        <time>2021-09-25T09:15:56.000Z</time>
      </trkpt>
      <trkpt lat="44.27911" lon="5.55539">
        <ele>1371</ele>
        <time>2021-09-25T09:15:58.000Z</time>
      </trkpt>
      <trkpt lat="44.27911" lon="5.55546">
        <ele>1371.8000488281</ele>
        <time>2021-09-25T09:16:05.000Z</time>
      </trkpt>
      <trkpt lat="44.27911" lon="5.5555">
        <ele>1372</ele>
        <time>2021-09-25T09:16:08.000Z</time>
      </trkpt>
      <trkpt lat="44.2791" lon="5.55551">
        <ele>1372</ele>
        <time>2021-09-25T09:16:09.000Z</time>
      </trkpt>
      <trkpt lat="44.27909" lon="5.55553">
        <ele>1372.1999511719</ele>
        <time>2021-09-25T09:16:12.000Z</time>
      </trkpt>
      <trkpt lat="44.27909" lon="5.55555">
        <ele>1372.4000244141</ele>
        <time>2021-09-25T09:16:14.000Z</time>
      </trkpt>
      <trkpt lat="44.27905" lon="5.55559">
        <ele>1372.1999511719</ele>
        <time>2021-09-25T09:16:17.000Z</time>
      </trkpt>
      <trkpt lat="44.27905" lon="5.55562">
        <ele>1372.4000244141</ele>
        <time>2021-09-25T09:16:19.000Z</time>
      </trkpt>
      <trkpt lat="44.27904" lon="5.55565">
        <ele>1373</ele>
        <time>2021-09-25T09:16:22.000Z</time>
      </trkpt>
      <trkpt lat="44.27902" lon="5.55567">
        <ele>1373.4000244141</ele>
        <time>2021-09-25T09:16:24.000Z</time>
      </trkpt>
      <trkpt lat="44.27902" lon="5.55568">
        <ele>1373.5999755859</ele>
        <time>2021-09-25T09:16:25.000Z</time>
      </trkpt>
      <trkpt lat="44.279" lon="5.5557">
        <ele>1373.8000488281</ele>
        <time>2021-09-25T09:16:28.000Z</time>
      </trkpt>
      <trkpt lat="44.279" lon="5.5557">
        <ele>1374.1999511719</ele>
        <time>2021-09-25T09:16:29.000Z</time>
      </trkpt>
      <trkpt lat="44.27899" lon="5.5557">
        <ele>1374.1999511719</ele>
        <time>2021-09-25T09:16:30.000Z</time>
      </trkpt>
      <trkpt lat="44.27895" lon="5.55568">
        <ele>1375</ele>
        <time>2021-09-25T09:16:36.000Z</time>
      </trkpt>
      <trkpt lat="44.27893" lon="5.55566">
        <ele>1375.1999511719</ele>
        <time>2021-09-25T09:16:38.000Z</time>
      </trkpt>
      <trkpt lat="44.2789" lon="5.55564">
        <ele>1376</ele>
        <time>2021-09-25T09:16:43.000Z</time>
      </trkpt>
      <trkpt lat="44.27888" lon="5.55562">
        <ele>1376.1999511719</ele>
        <time>2021-09-25T09:16:46.000Z</time>
      </trkpt>
      <trkpt lat="44.27886" lon="5.55559">
        <ele>1376.4000244141</ele>
        <time>2021-09-25T09:16:49.000Z</time>
      </trkpt>
      <trkpt lat="44.27883" lon="5.55557">
        <ele>1377</ele>
        <time>2021-09-25T09:16:53.000Z</time>
      </trkpt>
      <trkpt lat="44.27883" lon="5.55556">
        <ele>1377.4000244141</ele>
        <time>2021-09-25T09:16:54.000Z</time>
      </trkpt>
      <trkpt lat="44.27881" lon="5.55554">
        <ele>1377.8000488281</ele>
        <time>2021-09-25T09:16:57.000Z</time>
      </trkpt>
      <trkpt lat="44.27877" lon="5.55549">
        <ele>1378.1999511719</ele>
        <time>2021-09-25T09:17:03.000Z</time>
      </trkpt>
      <trkpt lat="44.27877" lon="5.55548">
        <ele>1378.1999511719</ele>
        <time>2021-09-25T09:17:04.000Z</time>
      </trkpt>
      <trkpt lat="44.27876" lon="5.55546">
        <ele>1378.4000244141</ele>
        <time>2021-09-25T09:17:06.000Z</time>
      </trkpt>
      <trkpt lat="44.27874" lon="5.55543">
        <ele>1378.5999755859</ele>
        <time>2021-09-25T09:17:10.000Z</time>
      </trkpt>
      <trkpt lat="44.27872" lon="5.55539">
        <ele>1379.1999511719</ele>
        <time>2021-09-25T09:17:15.000Z</time>
      </trkpt>
      <trkpt lat="44.2787" lon="5.55536">
        <ele>1379.4000244141</ele>
        <time>2021-09-25T09:17:18.000Z</time>
      </trkpt>
      <trkpt lat="44.27869" lon="5.55535">
        <ele>1379.4000244141</ele>
        <time>2021-09-25T09:17:19.000Z</time>
      </trkpt>
      <trkpt lat="44.27865" lon="5.55532">
        <ele>1380.4000244141</ele>
        <time>2021-09-25T09:17:25.000Z</time>
      </trkpt>
      <trkpt lat="44.27864" lon="5.55532">
        <ele>1380.4000244141</ele>
        <time>2021-09-25T09:17:26.000Z</time>
      </trkpt>
      <trkpt lat="44.27863" lon="5.55532">
        <ele>1380.4000244141</ele>
        <time>2021-09-25T09:17:27.000Z</time>
      </trkpt>
      <trkpt lat="44.2786" lon="5.5553">
        <ele>1381</ele>
        <time>2021-09-25T09:17:31.000Z</time>
      </trkpt>
      <trkpt lat="44.27859" lon="5.55529">
        <ele>1381.1999511719</ele>
        <time>2021-09-25T09:17:32.000Z</time>
      </trkpt>
      <trkpt lat="44.27856" lon="5.55528">
        <ele>1381.5999755859</ele>
        <time>2021-09-25T09:17:35.000Z</time>
      </trkpt>
      <trkpt lat="44.27852" lon="5.5553">
        <ele>1382.1999511719</ele>
        <time>2021-09-25T09:17:39.000Z</time>
      </trkpt>
      <trkpt lat="44.27852" lon="5.5553">
        <ele>1382.1999511719</ele>
        <time>2021-09-25T09:17:40.000Z</time>
      </trkpt>
      <trkpt lat="44.27848" lon="5.55534">
        <ele>1382.4000244141</ele>
        <time>2021-09-25T09:17:45.000Z</time>
      </trkpt>
      <trkpt lat="44.27846" lon="5.55535">
        <ele>1382.4000244141</ele>
        <time>2021-09-25T09:17:47.000Z</time>
      </trkpt>
      <trkpt lat="44.27844" lon="5.55536">
        <ele>1382.5999755859</ele>
        <time>2021-09-25T09:17:49.000Z</time>
      </trkpt>
      <trkpt lat="44.2784" lon="5.55541">
        <ele>1383.1999511719</ele>
        <time>2021-09-25T09:17:55.000Z</time>
      </trkpt>
      <trkpt lat="44.27839" lon="5.55543">
        <ele>1383.4000244141</ele>
        <time>2021-09-25T09:17:57.000Z</time>
      </trkpt>
      <trkpt lat="44.27837" lon="5.55544">
        <ele>1383.4000244141</ele>
        <time>2021-09-25T09:17:59.000Z</time>
      </trkpt>
      <trkpt lat="44.27837" lon="5.55545">
        <ele>1383.4000244141</ele>
        <time>2021-09-25T09:18:00.000Z</time>
      </trkpt>
      <trkpt lat="44.27836" lon="5.55545">
        <ele>1383.4000244141</ele>
        <time>2021-09-25T09:18:01.000Z</time>
      </trkpt>
      <trkpt lat="44.27835" lon="5.55546">
        <ele>1383.4000244141</ele>
        <time>2021-09-25T09:18:02.000Z</time>
      </trkpt>
      <trkpt lat="44.27832" lon="5.55547">
        <ele>1383.8000488281</ele>
        <time>2021-09-25T09:18:06.000Z</time>
      </trkpt>
      <trkpt lat="44.2783" lon="5.55547">
        <ele>1384.1999511719</ele>
        <time>2021-09-25T09:18:08.000Z</time>
      </trkpt>
      <trkpt lat="44.27828" lon="5.55548">
        <ele>1384.4000244141</ele>
        <time>2021-09-25T09:18:11.000Z</time>
      </trkpt>
      <trkpt lat="44.27828" lon="5.55548">
        <ele>1384.4000244141</ele>
        <time>2021-09-25T09:18:12.000Z</time>
      </trkpt>
      <trkpt lat="44.27828" lon="5.55549">
        <ele>1384.8000488281</ele>
        <time>2021-09-25T09:18:15.000Z</time>
      </trkpt>
      <trkpt lat="44.27828" lon="5.55549">
        <ele>1385</ele>
        <time>2021-09-25T09:18:16.000Z</time>
      </trkpt>
      <trkpt lat="44.27827" lon="5.55549">
        <ele>1385.1999511719</ele>
        <time>2021-09-25T09:18:19.000Z</time>
      </trkpt>
      <trkpt lat="44.27827" lon="5.55549">
        <ele>1385</ele>
        <time>2021-09-25T09:18:23.000Z</time>
      </trkpt>
      <trkpt lat="44.27828" lon="5.5555">
        <ele>1383.8000488281</ele>
        <time>2021-09-25T09:18:29.000Z</time>
      </trkpt>
      <trkpt lat="44.27828" lon="5.55549">
        <ele>1383.1999511719</ele>
        <time>2021-09-25T09:18:33.000Z</time>
      </trkpt>
      <trkpt lat="44.27828" lon="5.55549">
        <ele>1382.8000488281</ele>
        <time>2021-09-25T09:18:37.000Z</time>
      </trkpt>
      <trkpt lat="44.27828" lon="5.55549">
        <ele>1382.4000244141</ele>
        <time>2021-09-25T09:18:42.000Z</time>
      </trkpt>
      <trkpt lat="44.27827" lon="5.55548">
        <ele>1383.8000488281</ele>
        <time>2021-09-25T09:18:53.000Z</time>
      </trkpt>
      <trkpt lat="44.27827" lon="5.55547">
        <ele>1383.8000488281</ele>
        <time>2021-09-25T09:18:56.000Z</time>
      </trkpt>
      <trkpt lat="44.27828" lon="5.55547">
        <ele>1384</ele>
        <time>2021-09-25T09:18:58.000Z</time>
      </trkpt>
      <trkpt lat="44.27828" lon="5.55547">
        <ele>1383.8000488281</ele>
        <time>2021-09-25T09:18:59.000Z</time>
      </trkpt>
      <trkpt lat="44.27828" lon="5.55546">
        <ele>1384</ele>
        <time>2021-09-25T09:19:01.000Z</time>
      </trkpt>
      <trkpt lat="44.27829" lon="5.55547">
        <ele>1383.4000244141</ele>
        <time>2021-09-25T09:19:08.000Z</time>
      </trkpt>
      <trkpt lat="44.27829" lon="5.55548">
        <ele>1383.1999511719</ele>
        <time>2021-09-25T09:19:15.000Z</time>
      </trkpt>
      <trkpt lat="44.27829" lon="5.55549">
        <ele>1384</ele>
        <time>2021-09-25T09:19:23.000Z</time>
      </trkpt>
      <trkpt lat="44.27829" lon="5.55549">
        <ele>1385</ele>
        <time>2021-09-25T09:19:24.000Z</time>
      </trkpt>
      <trkpt lat="44.27829" lon="5.55549">
        <ele>1384</ele>
        <time>2021-09-25T09:19:30.000Z</time>
      </trkpt>
      <trkpt lat="44.27829" lon="5.5555">
        <ele>1384</ele>
        <time>2021-09-25T09:19:36.000Z</time>
      </trkpt>
      <trkpt lat="44.2783" lon="5.5555">
        <ele>1384</ele>
        <time>2021-09-25T09:19:37.000Z</time>
      </trkpt>
      <trkpt lat="44.27829" lon="5.55549">
        <ele>1384.8000488281</ele>
        <time>2021-09-25T09:19:43.000Z</time>
      </trkpt>
      <trkpt lat="44.27829" lon="5.55549">
        <ele>1384.8000488281</ele>
        <time>2021-09-25T09:19:45.000Z</time>
      </trkpt>
      <trkpt lat="44.27828" lon="5.5555">
        <ele>1383.5999755859</ele>
        <time>2021-09-25T09:19:56.000Z</time>
      </trkpt>
      <trkpt lat="44.27828" lon="5.5555">
        <ele>1383.1999511719</ele>
        <time>2021-09-25T09:20:02.000Z</time>
      </trkpt>
      <trkpt lat="44.27828" lon="5.5555">
        <ele>1385</ele>
        <time>2021-09-25T09:20:04.000Z</time>
      </trkpt>
      <trkpt lat="44.27828" lon="5.5555">
        <ele>1384.8000488281</ele>
        <time>2021-09-25T09:20:09.000Z</time>
      </trkpt>
      <trkpt lat="44.27827" lon="5.5555">
        <ele>1384.8000488281</ele>
        <time>2021-09-25T09:20:11.000Z</time>
      </trkpt>
      <trkpt lat="44.27827" lon="5.5555">
        <ele>1384.5999755859</ele>
        <time>2021-09-25T09:20:14.000Z</time>
      </trkpt>
      <trkpt lat="44.27826" lon="5.55551">
        <ele>1384.5999755859</ele>
        <time>2021-09-25T09:20:15.000Z</time>
      </trkpt>
      <trkpt lat="44.27822" lon="5.55554">
        <ele>1385.1999511719</ele>
        <time>2021-09-25T09:20:24.000Z</time>
      </trkpt>
      <trkpt lat="44.27821" lon="5.55556">
        <ele>1385.5999755859</ele>
        <time>2021-09-25T09:20:26.000Z</time>
      </trkpt>
      <trkpt lat="44.2782" lon="5.55557">
        <ele>1386.1999511719</ele>
        <time>2021-09-25T09:20:28.000Z</time>
      </trkpt>
      <trkpt lat="44.27819" lon="5.55558">
        <ele>1386.4000244141</ele>
        <time>2021-09-25T09:20:29.000Z</time>
      </trkpt>
      <trkpt lat="44.27817" lon="5.55559">
        <ele>1386.8000488281</ele>
        <time>2021-09-25T09:20:32.000Z</time>
      </trkpt>
      <trkpt lat="44.27815" lon="5.5556">
        <ele>1386.8000488281</ele>
        <time>2021-09-25T09:20:34.000Z</time>
      </trkpt>
      <trkpt lat="44.27815" lon="5.5556">
        <ele>1387</ele>
        <time>2021-09-25T09:20:35.000Z</time>
      </trkpt>
      <trkpt lat="44.27814" lon="5.55561">
        <ele>1387.1999511719</ele>
        <time>2021-09-25T09:20:36.000Z</time>
      </trkpt>
      <trkpt lat="44.27813" lon="5.55561">
        <ele>1387.4000244141</ele>
        <time>2021-09-25T09:20:37.000Z</time>
      </trkpt>
      <trkpt lat="44.27813" lon="5.55563">
        <ele>1387.5999755859</ele>
        <time>2021-09-25T09:20:38.000Z</time>
      </trkpt>
      <trkpt lat="44.27813" lon="5.55563">
        <ele>1387.5999755859</ele>
        <time>2021-09-25T09:20:39.000Z</time>
      </trkpt>
      <trkpt lat="44.27812" lon="5.55564">
        <ele>1387.5999755859</ele>
        <time>2021-09-25T09:20:40.000Z</time>
      </trkpt>
      <trkpt lat="44.27812" lon="5.55565">
        <ele>1387.8000488281</ele>
        <time>2021-09-25T09:20:41.000Z</time>
      </trkpt>
      <trkpt lat="44.27811" lon="5.55565">
        <ele>1388</ele>
        <time>2021-09-25T09:20:42.000Z</time>
      </trkpt>
      <trkpt lat="44.2781" lon="5.55566">
        <ele>1388.1999511719</ele>
        <time>2021-09-25T09:20:43.000Z</time>
      </trkpt>
      <trkpt lat="44.2781" lon="5.55566">
        <ele>1388.1999511719</ele>
        <time>2021-09-25T09:20:44.000Z</time>
      </trkpt>
      <trkpt lat="44.27809" lon="5.55568">
        <ele>1388.4000244141</ele>
        <time>2021-09-25T09:20:46.000Z</time>
      </trkpt>
      <trkpt lat="44.27809" lon="5.55569">
        <ele>1388.4000244141</ele>
        <time>2021-09-25T09:20:47.000Z</time>
      </trkpt>
      <trkpt lat="44.27809" lon="5.5557">
        <ele>1388.8000488281</ele>
        <time>2021-09-25T09:20:48.000Z</time>
      </trkpt>
      <trkpt lat="44.27807" lon="5.55571">
        <ele>1389.1999511719</ele>
        <time>2021-09-25T09:20:50.000Z</time>
      </trkpt>
      <trkpt lat="44.27806" lon="5.55571">
        <ele>1389.4000244141</ele>
        <time>2021-09-25T09:20:51.000Z</time>
      </trkpt>
      <trkpt lat="44.27805" lon="5.55572">
        <ele>1389.4000244141</ele>
        <time>2021-09-25T09:20:53.000Z</time>
      </trkpt>
      <trkpt lat="44.27801" lon="5.55575">
        <ele>1389.5999755859</ele>
        <time>2021-09-25T09:20:58.000Z</time>
      </trkpt>
      <trkpt lat="44.278" lon="5.55575">
        <ele>1390</ele>
        <time>2021-09-25T09:21:00.000Z</time>
      </trkpt>
      <trkpt lat="44.27796" lon="5.55578">
        <ele>1390.1999511719</ele>
        <time>2021-09-25T09:21:05.000Z</time>
      </trkpt>
      <trkpt lat="44.27795" lon="5.55578">
        <ele>1390.5999755859</ele>
        <time>2021-09-25T09:21:06.000Z</time>
      </trkpt>
      <trkpt lat="44.27793" lon="5.55581">
        <ele>1391</ele>
        <time>2021-09-25T09:21:10.000Z</time>
      </trkpt>
      <trkpt lat="44.27791" lon="5.55582">
        <ele>1391.1999511719</ele>
        <time>2021-09-25T09:21:13.000Z</time>
      </trkpt>
      <trkpt lat="44.2779" lon="5.55584">
        <ele>1391.5999755859</ele>
        <time>2021-09-25T09:21:15.000Z</time>
      </trkpt>
      <trkpt lat="44.27789" lon="5.55585">
        <ele>1392</ele>
        <time>2021-09-25T09:21:17.000Z</time>
      </trkpt>
      <trkpt lat="44.27787" lon="5.55586">
        <ele>1392.1999511719</ele>
        <time>2021-09-25T09:21:20.000Z</time>
      </trkpt>
      <trkpt lat="44.27786" lon="5.55588">
        <ele>1392.4000244141</ele>
        <time>2021-09-25T09:21:22.000Z</time>
      </trkpt>
      <trkpt lat="44.27785" lon="5.55589">
        <ele>1392.8000488281</ele>
        <time>2021-09-25T09:21:24.000Z</time>
      </trkpt>
      <trkpt lat="44.27784" lon="5.55591">
        <ele>1393</ele>
        <time>2021-09-25T09:21:26.000Z</time>
      </trkpt>
      <trkpt lat="44.27784" lon="5.55593">
        <ele>1393.1999511719</ele>
        <time>2021-09-25T09:21:27.000Z</time>
      </trkpt>
      <trkpt lat="44.27781" lon="5.55596">
        <ele>1393.8000488281</ele>
        <time>2021-09-25T09:21:31.000Z</time>
      </trkpt>
      <trkpt lat="44.27781" lon="5.55596">
        <ele>1394</ele>
        <time>2021-09-25T09:21:32.000Z</time>
      </trkpt>
      <trkpt lat="44.2778" lon="5.55597">
        <ele>1394</ele>
        <time>2021-09-25T09:21:34.000Z</time>
      </trkpt>
      <trkpt lat="44.27777" lon="5.556">
        <ele>1394.8000488281</ele>
        <time>2021-09-25T09:21:39.000Z</time>
      </trkpt>
      <trkpt lat="44.27777" lon="5.55601">
        <ele>1395.1999511719</ele>
        <time>2021-09-25T09:21:40.000Z</time>
      </trkpt>
      <trkpt lat="44.27776" lon="5.55602">
        <ele>1395.4000244141</ele>
        <time>2021-09-25T09:21:41.000Z</time>
      </trkpt>
      <trkpt lat="44.27776" lon="5.55603">
        <ele>1395.5999755859</ele>
        <time>2021-09-25T09:21:42.000Z</time>
      </trkpt>
      <trkpt lat="44.27775" lon="5.55605">
        <ele>1395.8000488281</ele>
        <time>2021-09-25T09:21:44.000Z</time>
      </trkpt>
      <trkpt lat="44.27774" lon="5.55606">
        <ele>1396.1999511719</ele>
        <time>2021-09-25T09:21:45.000Z</time>
      </trkpt>
      <trkpt lat="44.27772" lon="5.55608">
        <ele>1396.5999755859</ele>
        <time>2021-09-25T09:21:49.000Z</time>
      </trkpt>
      <trkpt lat="44.27771" lon="5.5561">
        <ele>1396.8000488281</ele>
        <time>2021-09-25T09:21:51.000Z</time>
      </trkpt>
      <trkpt lat="44.2777" lon="5.55611">
        <ele>1397.1999511719</ele>
        <time>2021-09-25T09:21:52.000Z</time>
      </trkpt>
      <trkpt lat="44.27769" lon="5.55613">
        <ele>1397.5999755859</ele>
        <time>2021-09-25T09:21:54.000Z</time>
      </trkpt>
      <trkpt lat="44.27768" lon="5.55613">
        <ele>1397.8000488281</ele>
        <time>2021-09-25T09:21:55.000Z</time>
      </trkpt>
      <trkpt lat="44.27768" lon="5.55614">
        <ele>1397.8000488281</ele>
        <time>2021-09-25T09:21:56.000Z</time>
      </trkpt>
      <trkpt lat="44.27766" lon="5.55615">
        <ele>1398.4000244141</ele>
        <time>2021-09-25T09:21:59.000Z</time>
      </trkpt>
      <trkpt lat="44.27765" lon="5.55616">
        <ele>1398.4000244141</ele>
        <time>2021-09-25T09:22:00.000Z</time>
      </trkpt>
      <trkpt lat="44.27763" lon="5.55618">
        <ele>1398.5999755859</ele>
        <time>2021-09-25T09:22:03.000Z</time>
      </trkpt>
      <trkpt lat="44.2776" lon="5.5562">
        <ele>1399.4000244141</ele>
        <time>2021-09-25T09:22:09.000Z</time>
      </trkpt>
      <trkpt lat="44.27757" lon="5.55621">
        <ele>1400</ele>
        <time>2021-09-25T09:22:12.000Z</time>
      </trkpt>
      <trkpt lat="44.27756" lon="5.55621">
        <ele>1400.8000488281</ele>
        <time>2021-09-25T09:22:14.000Z</time>
      </trkpt>
      <trkpt lat="44.27754" lon="5.55624">
        <ele>1401.4000244141</ele>
        <time>2021-09-25T09:22:18.000Z</time>
      </trkpt>
      <trkpt lat="44.27752" lon="5.55626">
        <ele>1401.4000244141</ele>
        <time>2021-09-25T09:22:21.000Z</time>
      </trkpt>
      <trkpt lat="44.27751" lon="5.55627">
        <ele>1402</ele>
        <time>2021-09-25T09:22:23.000Z</time>
      </trkpt>
      <trkpt lat="44.2775" lon="5.55628">
        <ele>1402.4000244141</ele>
        <time>2021-09-25T09:22:25.000Z</time>
      </trkpt>
      <trkpt lat="44.27749" lon="5.55631">
        <ele>1403.1999511719</ele>
        <time>2021-09-25T09:22:28.000Z</time>
      </trkpt>
      <trkpt lat="44.27746" lon="5.55634">
        <ele>1403.4000244141</ele>
        <time>2021-09-25T09:22:32.000Z</time>
      </trkpt>
      <trkpt lat="44.27743" lon="5.55642">
        <ele>1404.1999511719</ele>
        <time>2021-09-25T09:22:39.000Z</time>
      </trkpt>
      <trkpt lat="44.27742" lon="5.55642">
        <ele>1404.1999511719</ele>
        <time>2021-09-25T09:22:40.000Z</time>
      </trkpt>
      <trkpt lat="44.27741" lon="5.55643">
        <ele>1404.8000488281</ele>
        <time>2021-09-25T09:22:42.000Z</time>
      </trkpt>
      <trkpt lat="44.2774" lon="5.55644">
        <ele>1405.1999511719</ele>
        <time>2021-09-25T09:22:44.000Z</time>
      </trkpt>
      <trkpt lat="44.27739" lon="5.55646">
        <ele>1405.5999755859</ele>
        <time>2021-09-25T09:22:47.000Z</time>
      </trkpt>
      <trkpt lat="44.27738" lon="5.55647">
        <ele>1405.8000488281</ele>
        <time>2021-09-25T09:22:48.000Z</time>
      </trkpt>
      <trkpt lat="44.27736" lon="5.55648">
        <ele>1406.5999755859</ele>
        <time>2021-09-25T09:22:50.000Z</time>
      </trkpt>
      <trkpt lat="44.27733" lon="5.55652">
        <ele>1407.5999755859</ele>
        <time>2021-09-25T09:22:56.000Z</time>
      </trkpt>
      <trkpt lat="44.27733" lon="5.55653">
        <ele>1407.5999755859</ele>
        <time>2021-09-25T09:22:57.000Z</time>
      </trkpt>
      <trkpt lat="44.27732" lon="5.55654">
        <ele>1407.5999755859</ele>
        <time>2021-09-25T09:22:58.000Z</time>
      </trkpt>
      <trkpt lat="44.27728" lon="5.55655">
        <ele>1408.5999755859</ele>
        <time>2021-09-25T09:23:03.000Z</time>
      </trkpt>
      <trkpt lat="44.27727" lon="5.55657">
        <ele>1408.8000488281</ele>
        <time>2021-09-25T09:23:05.000Z</time>
      </trkpt>
      <trkpt lat="44.27724" lon="5.55657">
        <ele>1409.5999755859</ele>
        <time>2021-09-25T09:23:08.000Z</time>
      </trkpt>
      <trkpt lat="44.27723" lon="5.55659">
        <ele>1410</ele>
        <time>2021-09-25T09:23:11.000Z</time>
      </trkpt>
      <trkpt lat="44.2772" lon="5.55663">
        <ele>1410.5999755859</ele>
        <time>2021-09-25T09:23:17.000Z</time>
      </trkpt>
      <trkpt lat="44.2772" lon="5.55663">
        <ele>1410.5999755859</ele>
        <time>2021-09-25T09:23:18.000Z</time>
      </trkpt>
      <trkpt lat="44.27717" lon="5.55664">
        <ele>1411</ele>
        <time>2021-09-25T09:23:22.000Z</time>
      </trkpt>
      <trkpt lat="44.27715" lon="5.55664">
        <ele>1411</ele>
        <time>2021-09-25T09:23:24.000Z</time>
      </trkpt>
      <trkpt lat="44.27714" lon="5.55666">
        <ele>1411.8000488281</ele>
        <time>2021-09-25T09:23:27.000Z</time>
      </trkpt>
      <trkpt lat="44.27712" lon="5.55667">
        <ele>1412.1999511719</ele>
        <time>2021-09-25T09:23:30.000Z</time>
      </trkpt>
      <trkpt lat="44.27711" lon="5.55668">
        <ele>1412.1999511719</ele>
        <time>2021-09-25T09:23:31.000Z</time>
      </trkpt>
      <trkpt lat="44.2771" lon="5.55669">
        <ele>1412.8000488281</ele>
        <time>2021-09-25T09:23:33.000Z</time>
      </trkpt>
      <trkpt lat="44.27708" lon="5.55673">
        <ele>1413.5999755859</ele>
        <time>2021-09-25T09:23:38.000Z</time>
      </trkpt>
      <trkpt lat="44.27707" lon="5.55675">
        <ele>1414</ele>
        <time>2021-09-25T09:23:40.000Z</time>
      </trkpt>
      <trkpt lat="44.27703" lon="5.55679">
        <ele>1414.5999755859</ele>
        <time>2021-09-25T09:23:46.000Z</time>
      </trkpt>
      <trkpt lat="44.27702" lon="5.55681">
        <ele>1415</ele>
        <time>2021-09-25T09:23:49.000Z</time>
      </trkpt>
      <trkpt lat="44.27699" lon="5.55686">
        <ele>1415.8000488281</ele>
        <time>2021-09-25T09:23:54.000Z</time>
      </trkpt>
      <trkpt lat="44.27697" lon="5.55691">
        <ele>1416.4000244141</ele>
        <time>2021-09-25T09:23:58.000Z</time>
      </trkpt>
      <trkpt lat="44.27697" lon="5.55693">
        <ele>1417</ele>
        <time>2021-09-25T09:24:00.000Z</time>
      </trkpt>
      <trkpt lat="44.27697" lon="5.55694">
        <ele>1417</ele>
        <time>2021-09-25T09:24:02.000Z</time>
      </trkpt>
      <trkpt lat="44.27697" lon="5.55696">
        <ele>1417</ele>
        <time>2021-09-25T09:24:03.000Z</time>
      </trkpt>
      <trkpt lat="44.27697" lon="5.55697">
        <ele>1417.1999511719</ele>
        <time>2021-09-25T09:24:04.000Z</time>
      </trkpt>
      <trkpt lat="44.27696" lon="5.55699">
        <ele>1417.4000244141</ele>
        <time>2021-09-25T09:24:06.000Z</time>
      </trkpt>
      <trkpt lat="44.27694" lon="5.55701">
        <ele>1417.8000488281</ele>
        <time>2021-09-25T09:24:09.000Z</time>
      </trkpt>
      <trkpt lat="44.27692" lon="5.55705">
        <ele>1418.5999755859</ele>
        <time>2021-09-25T09:24:14.000Z</time>
      </trkpt>
      <trkpt lat="44.27691" lon="5.55706">
        <ele>1418.5999755859</ele>
        <time>2021-09-25T09:24:16.000Z</time>
      </trkpt>
      <trkpt lat="44.2769" lon="5.55706">
        <ele>1418.5999755859</ele>
        <time>2021-09-25T09:24:17.000Z</time>
      </trkpt>
      <trkpt lat="44.27687" lon="5.55708">
        <ele>1418.8000488281</ele>
        <time>2021-09-25T09:24:23.000Z</time>
      </trkpt>
      <trkpt lat="44.27684" lon="5.5571">
        <ele>1419.5999755859</ele>
        <time>2021-09-25T09:24:29.000Z</time>
      </trkpt>
      <trkpt lat="44.27683" lon="5.55711">
        <ele>1419.5999755859</ele>
        <time>2021-09-25T09:24:30.000Z</time>
      </trkpt>
      <trkpt lat="44.27681" lon="5.55718">
        <ele>1420.5999755859</ele>
        <time>2021-09-25T09:24:37.000Z</time>
      </trkpt>
      <trkpt lat="44.2768" lon="5.5572">
        <ele>1421.1999511719</ele>
        <time>2021-09-25T09:24:39.000Z</time>
      </trkpt>
      <trkpt lat="44.27679" lon="5.55722">
        <ele>1421.8000488281</ele>
        <time>2021-09-25T09:24:42.000Z</time>
      </trkpt>
      <trkpt lat="44.27678" lon="5.55725">
        <ele>1421.8000488281</ele>
        <time>2021-09-25T09:24:46.000Z</time>
      </trkpt>
      <trkpt lat="44.27677" lon="5.55726">
        <ele>1421.8000488281</ele>
        <time>2021-09-25T09:24:47.000Z</time>
      </trkpt>
      <trkpt lat="44.27675" lon="5.55728">
        <ele>1421.5999755859</ele>
        <time>2021-09-25T09:24:52.000Z</time>
      </trkpt>
      <trkpt lat="44.27674" lon="5.55729">
        <ele>1421.5999755859</ele>
        <time>2021-09-25T09:24:54.000Z</time>
      </trkpt>
      <trkpt lat="44.27676" lon="5.55732">
        <ele>1421.5999755859</ele>
        <time>2021-09-25T09:25:01.000Z</time>
      </trkpt>
      <trkpt lat="44.27675" lon="5.55733">
        <ele>1422.8000488281</ele>
        <time>2021-09-25T09:25:06.000Z</time>
      </trkpt>
      <trkpt lat="44.27675" lon="5.55733">
        <ele>1423.1999511719</ele>
        <time>2021-09-25T09:25:08.000Z</time>
      </trkpt>
      <trkpt lat="44.27675" lon="5.55733">
        <ele>1422.8000488281</ele>
        <time>2021-09-25T09:25:11.000Z</time>
      </trkpt>
      <trkpt lat="44.27676" lon="5.55732">
        <ele>1423</ele>
        <time>2021-09-25T09:25:18.000Z</time>
      </trkpt>
      <trkpt lat="44.27676" lon="5.55731">
        <ele>1421.5999755859</ele>
        <time>2021-09-25T09:25:24.000Z</time>
      </trkpt>
      <trkpt lat="44.27676" lon="5.55731">
        <ele>1421.4000244141</ele>
        <time>2021-09-25T09:25:26.000Z</time>
      </trkpt>
      <trkpt lat="44.27676" lon="5.55732">
        <ele>1421.4000244141</ele>
        <time>2021-09-25T09:25:28.000Z</time>
      </trkpt>
      <trkpt lat="44.27677" lon="5.55731">
        <ele>1421.1999511719</ele>
        <time>2021-09-25T09:25:30.000Z</time>
      </trkpt>
      <trkpt lat="44.27678" lon="5.5573">
        <ele>1421</ele>
        <time>2021-09-25T09:25:35.000Z</time>
      </trkpt>
      <trkpt lat="44.27678" lon="5.5573">
        <ele>1420.8000488281</ele>
        <time>2021-09-25T09:25:38.000Z</time>
      </trkpt>
      <trkpt lat="44.27677" lon="5.55735">
        <ele>1420.8000488281</ele>
        <time>2021-09-25T09:25:41.000Z</time>
      </trkpt>
      <trkpt lat="44.27677" lon="5.55736">
        <ele>1420.5999755859</ele>
        <time>2021-09-25T09:25:43.000Z</time>
      </trkpt>
      <trkpt lat="44.27677" lon="5.55736">
        <ele>1420.5999755859</ele>
        <time>2021-09-25T09:25:44.000Z</time>
      </trkpt>
      <trkpt lat="44.27675" lon="5.55735">
        <ele>1420.5999755859</ele>
        <time>2021-09-25T09:25:49.000Z</time>
      </trkpt>
      <trkpt lat="44.27675" lon="5.55734">
        <ele>1420.8000488281</ele>
        <time>2021-09-25T09:25:53.000Z</time>
      </trkpt>
      <trkpt lat="44.27675" lon="5.55734">
        <ele>1420.8000488281</ele>
        <time>2021-09-25T09:25:55.000Z</time>
      </trkpt>
      <trkpt lat="44.27674" lon="5.55733">
        <ele>1421.5999755859</ele>
        <time>2021-09-25T09:26:01.000Z</time>
      </trkpt>
      <trkpt lat="44.27674" lon="5.55735">
        <ele>1421.4000244141</ele>
        <time>2021-09-25T09:26:08.000Z</time>
      </trkpt>
      <trkpt lat="44.27674" lon="5.55736">
        <ele>1420.8000488281</ele>
        <time>2021-09-25T09:26:15.000Z</time>
      </trkpt>
      <trkpt lat="44.27674" lon="5.55737">
        <ele>1420.1999511719</ele>
        <time>2021-09-25T09:26:18.000Z</time>
      </trkpt>
      <trkpt lat="44.27674" lon="5.55737">
        <ele>1421.5999755859</ele>
        <time>2021-09-25T09:26:25.000Z</time>
      </trkpt>
      <trkpt lat="44.27674" lon="5.55737">
        <ele>1421.4000244141</ele>
        <time>2021-09-25T09:26:28.000Z</time>
      </trkpt>
      <trkpt lat="44.27674" lon="5.55737">
        <ele>1421</ele>
        <time>2021-09-25T09:26:32.000Z</time>
      </trkpt>
      <trkpt lat="44.27674" lon="5.55737">
        <ele>1420.5999755859</ele>
        <time>2021-09-25T09:26:37.000Z</time>
      </trkpt>
      <trkpt lat="44.27674" lon="5.55738">
        <ele>1420.5999755859</ele>
        <time>2021-09-25T09:26:38.000Z</time>
      </trkpt>
      <trkpt lat="44.27675" lon="5.55738">
        <ele>1420.5999755859</ele>
        <time>2021-09-25T09:26:39.000Z</time>
      </trkpt>
      <trkpt lat="44.27674" lon="5.55738">
        <ele>1420.4000244141</ele>
        <time>2021-09-25T09:26:43.000Z</time>
      </trkpt>
      <trkpt lat="44.27674" lon="5.55738">
        <ele>1420.4000244141</ele>
        <time>2021-09-25T09:26:44.000Z</time>
      </trkpt>
      <trkpt lat="44.27674" lon="5.55736">
        <ele>1420.4000244141</ele>
        <time>2021-09-25T09:26:52.000Z</time>
      </trkpt>
      <trkpt lat="44.27674" lon="5.55736">
        <ele>1419.5999755859</ele>
        <time>2021-09-25T09:26:55.000Z</time>
      </trkpt>
      <trkpt lat="44.27674" lon="5.55735">
        <ele>1420.5999755859</ele>
        <time>2021-09-25T09:27:01.000Z</time>
      </trkpt>
      <trkpt lat="44.27674" lon="5.55734">
        <ele>1420.1999511719</ele>
        <time>2021-09-25T09:27:06.000Z</time>
      </trkpt>
      <trkpt lat="44.27674" lon="5.55734">
        <ele>1419.5999755859</ele>
        <time>2021-09-25T09:27:09.000Z</time>
      </trkpt>
      <trkpt lat="44.27674" lon="5.55734">
        <ele>1419.5999755859</ele>
        <time>2021-09-25T09:27:10.000Z</time>
      </trkpt>
      <trkpt lat="44.27674" lon="5.55734">
        <ele>1419.4000244141</ele>
        <time>2021-09-25T09:27:19.000Z</time>
      </trkpt>
      <trkpt lat="44.27675" lon="5.55735">
        <ele>1419.4000244141</ele>
        <time>2021-09-25T09:27:26.000Z</time>
      </trkpt>
      <trkpt lat="44.27674" lon="5.55733">
        <ele>1419.4000244141</ele>
        <time>2021-09-25T09:27:30.000Z</time>
      </trkpt>
      <trkpt lat="44.27674" lon="5.55733">
        <ele>1419.4000244141</ele>
        <time>2021-09-25T09:27:34.000Z</time>
      </trkpt>
      <trkpt lat="44.27675" lon="5.55733">
        <ele>1419.4000244141</ele>
        <time>2021-09-25T09:27:41.000Z</time>
      </trkpt>
      <trkpt lat="44.27675" lon="5.55733">
        <ele>1419.4000244141</ele>
        <time>2021-09-25T09:27:42.000Z</time>
      </trkpt>
      <trkpt lat="44.27674" lon="5.55732">
        <ele>1419.4000244141</ele>
        <time>2021-09-25T09:27:43.000Z</time>
      </trkpt>
      <trkpt lat="44.27675" lon="5.55732">
        <ele>1419.4000244141</ele>
        <time>2021-09-25T09:27:48.000Z</time>
      </trkpt>
      <trkpt lat="44.27675" lon="5.5573">
        <ele>1419.4000244141</ele>
        <time>2021-09-25T09:27:51.000Z</time>
      </trkpt>
      <trkpt lat="44.27673" lon="5.5573">
        <ele>1419.4000244141</ele>
        <time>2021-09-25T09:27:55.000Z</time>
      </trkpt>
      <trkpt lat="44.2767" lon="5.5573">
        <ele>1419.4000244141</ele>
        <time>2021-09-25T09:28:03.000Z</time>
      </trkpt>
      <trkpt lat="44.27671" lon="5.55729">
        <ele>1419.4000244141</ele>
        <time>2021-09-25T09:28:06.000Z</time>
      </trkpt>
      <trkpt lat="44.27671" lon="5.5573">
        <ele>1419.4000244141</ele>
        <time>2021-09-25T09:28:09.000Z</time>
      </trkpt>
      <trkpt lat="44.27673" lon="5.55729">
        <ele>1419.4000244141</ele>
        <time>2021-09-25T09:28:15.000Z</time>
      </trkpt>
      <trkpt lat="44.27673" lon="5.55729">
        <ele>1419.4000244141</ele>
        <time>2021-09-25T09:28:17.000Z</time>
      </trkpt>
      <trkpt lat="44.27673" lon="5.55727">
        <ele>1419.4000244141</ele>
        <time>2021-09-25T09:28:27.000Z</time>
      </trkpt>
      <trkpt lat="44.27673" lon="5.55726">
        <ele>1419.4000244141</ele>
        <time>2021-09-25T09:28:32.000Z</time>
      </trkpt>
      <trkpt lat="44.2767" lon="5.55723">
        <ele>1419.4000244141</ele>
        <time>2021-09-25T09:28:37.000Z</time>
      </trkpt>
      <trkpt lat="44.27669" lon="5.55723">
        <ele>1419.4000244141</ele>
        <time>2021-09-25T09:28:39.000Z</time>
      </trkpt>
      <trkpt lat="44.27669" lon="5.55723">
        <ele>1419.4000244141</ele>
        <time>2021-09-25T09:28:42.000Z</time>
      </trkpt>
      <trkpt lat="44.27668" lon="5.55723">
        <ele>1419.4000244141</ele>
        <time>2021-09-25T09:28:49.000Z</time>
      </trkpt>
      <trkpt lat="44.27667" lon="5.55723">
        <ele>1419.4000244141</ele>
        <time>2021-09-25T09:28:50.000Z</time>
      </trkpt>
      <trkpt lat="44.27664" lon="5.5572">
        <ele>1419.4000244141</ele>
        <time>2021-09-25T09:28:57.000Z</time>
      </trkpt>
      <trkpt lat="44.27664" lon="5.55719">
        <ele>1419.4000244141</ele>
        <time>2021-09-25T09:28:58.000Z</time>
      </trkpt>
      <trkpt lat="44.27663" lon="5.55716">
        <ele>1418</ele>
        <time>2021-09-25T09:29:03.000Z</time>
      </trkpt>
      <trkpt lat="44.27663" lon="5.55717">
        <ele>1416.8000488281</ele>
        <time>2021-09-25T09:29:05.000Z</time>
      </trkpt>
      <trkpt lat="44.27662" lon="5.55717">
        <ele>1416.1999511719</ele>
        <time>2021-09-25T09:29:13.000Z</time>
      </trkpt>
      <trkpt lat="44.27658" lon="5.55715">
        <ele>1416</ele>
        <time>2021-09-25T09:29:20.000Z</time>
      </trkpt>
      <trkpt lat="44.27654" lon="5.55716">
        <ele>1416.4000244141</ele>
        <time>2021-09-25T09:29:25.000Z</time>
      </trkpt>
      <trkpt lat="44.27652" lon="5.55717">
        <ele>1416.5999755859</ele>
        <time>2021-09-25T09:29:27.000Z</time>
      </trkpt>
      <trkpt lat="44.27652" lon="5.55722">
        <ele>1417.8000488281</ele>
        <time>2021-09-25T09:29:34.000Z</time>
      </trkpt>
      <trkpt lat="44.27649" lon="5.55724">
        <ele>1419</ele>
        <time>2021-09-25T09:29:39.000Z</time>
      </trkpt>
      <trkpt lat="44.27648" lon="5.55725">
        <ele>1419</ele>
        <time>2021-09-25T09:29:40.000Z</time>
      </trkpt>
      <trkpt lat="44.27646" lon="5.55729">
        <ele>1418.8000488281</ele>
        <time>2021-09-25T09:29:44.000Z</time>
      </trkpt>
      <trkpt lat="44.27645" lon="5.55729">
        <ele>1418.8000488281</ele>
        <time>2021-09-25T09:29:45.000Z</time>
      </trkpt>
      <trkpt lat="44.27645" lon="5.5573">
        <ele>1418.8000488281</ele>
        <time>2021-09-25T09:29:46.000Z</time>
      </trkpt>
      <trkpt lat="44.27645" lon="5.55731">
        <ele>1418.8000488281</ele>
        <time>2021-09-25T09:29:47.000Z</time>
      </trkpt>
      <trkpt lat="44.27644" lon="5.55732">
        <ele>1418.8000488281</ele>
        <time>2021-09-25T09:29:48.000Z</time>
      </trkpt>
      <trkpt lat="44.27643" lon="5.55733">
        <ele>1418.8000488281</ele>
        <time>2021-09-25T09:29:49.000Z</time>
      </trkpt>
      <trkpt lat="44.27643" lon="5.55733">
        <ele>1419</ele>
        <time>2021-09-25T09:29:50.000Z</time>
      </trkpt>
      <trkpt lat="44.27642" lon="5.55734">
        <ele>1419</ele>
        <time>2021-09-25T09:29:51.000Z</time>
      </trkpt>
      <trkpt lat="44.27641" lon="5.55735">
        <ele>1419.4000244141</ele>
        <time>2021-09-25T09:29:53.000Z</time>
      </trkpt>
      <trkpt lat="44.2764" lon="5.55736">
        <ele>1419.4000244141</ele>
        <time>2021-09-25T09:29:55.000Z</time>
      </trkpt>
      <trkpt lat="44.2764" lon="5.55736">
        <ele>1419.5999755859</ele>
        <time>2021-09-25T09:29:56.000Z</time>
      </trkpt>
      <trkpt lat="44.2764" lon="5.55737">
        <ele>1420</ele>
        <time>2021-09-25T09:29:58.000Z</time>
      </trkpt>
      <trkpt lat="44.2764" lon="5.55738">
        <ele>1420.1999511719</ele>
        <time>2021-09-25T09:29:59.000Z</time>
      </trkpt>
      <trkpt lat="44.2764" lon="5.5574">
        <ele>1420.4000244141</ele>
        <time>2021-09-25T09:30:01.000Z</time>
      </trkpt>
      <trkpt lat="44.27639" lon="5.5574">
        <ele>1420.5999755859</ele>
        <time>2021-09-25T09:30:02.000Z</time>
      </trkpt>
      <trkpt lat="44.27639" lon="5.55742">
        <ele>1421</ele>
        <time>2021-09-25T09:30:04.000Z</time>
      </trkpt>
      <trkpt lat="44.27638" lon="5.55743">
        <ele>1421.1999511719</ele>
        <time>2021-09-25T09:30:05.000Z</time>
      </trkpt>
      <trkpt lat="44.27638" lon="5.55745">
        <ele>1421.4000244141</ele>
        <time>2021-09-25T09:30:06.000Z</time>
      </trkpt>
      <trkpt lat="44.27637" lon="5.55748">
        <ele>1422</ele>
        <time>2021-09-25T09:30:09.000Z</time>
      </trkpt>
      <trkpt lat="44.27637" lon="5.55748">
        <ele>1422</ele>
        <time>2021-09-25T09:30:10.000Z</time>
      </trkpt>
      <trkpt lat="44.27635" lon="5.5575">
        <ele>1422.4000244141</ele>
        <time>2021-09-25T09:30:14.000Z</time>
      </trkpt>
      <trkpt lat="44.27634" lon="5.5575">
        <ele>1422.4000244141</ele>
        <time>2021-09-25T09:30:16.000Z</time>
      </trkpt>
      <trkpt lat="44.27632" lon="5.55748">
        <ele>1422.4000244141</ele>
        <time>2021-09-25T09:30:21.000Z</time>
      </trkpt>
      <trkpt lat="44.27631" lon="5.55747">
        <ele>1422.4000244141</ele>
        <time>2021-09-25T09:30:22.000Z</time>
      </trkpt>
      <trkpt lat="44.27631" lon="5.55746">
        <ele>1422.1999511719</ele>
        <time>2021-09-25T09:30:24.000Z</time>
      </trkpt>
      <trkpt lat="44.2763" lon="5.55746">
        <ele>1422.1999511719</ele>
        <time>2021-09-25T09:30:26.000Z</time>
      </trkpt>
      <trkpt lat="44.27629" lon="5.55746">
        <ele>1422.1999511719</ele>
        <time>2021-09-25T09:30:28.000Z</time>
      </trkpt>
      <trkpt lat="44.27629" lon="5.55746">
        <ele>1422.1999511719</ele>
        <time>2021-09-25T09:30:29.000Z</time>
      </trkpt>
      <trkpt lat="44.27625" lon="5.55748">
        <ele>1422.4000244141</ele>
        <time>2021-09-25T09:30:35.000Z</time>
      </trkpt>
      <trkpt lat="44.27624" lon="5.55748">
        <ele>1422.1999511719</ele>
        <time>2021-09-25T09:30:37.000Z</time>
      </trkpt>
      <trkpt lat="44.27623" lon="5.5575">
        <ele>1422</ele>
        <time>2021-09-25T09:30:41.000Z</time>
      </trkpt>
      <trkpt lat="44.27622" lon="5.5575">
        <ele>1421.8000488281</ele>
        <time>2021-09-25T09:30:45.000Z</time>
      </trkpt>
      <trkpt lat="44.27621" lon="5.55749">
        <ele>1421.5999755859</ele>
        <time>2021-09-25T09:30:48.000Z</time>
      </trkpt>
      <trkpt lat="44.2762" lon="5.55749">
        <ele>1421.4000244141</ele>
        <time>2021-09-25T09:30:51.000Z</time>
      </trkpt>
      <trkpt lat="44.2762" lon="5.55749">
        <ele>1421.1999511719</ele>
        <time>2021-09-25T09:30:52.000Z</time>
      </trkpt>
      <trkpt lat="44.27619" lon="5.55748">
        <ele>1420.8000488281</ele>
        <time>2021-09-25T09:30:57.000Z</time>
      </trkpt>
      <trkpt lat="44.27619" lon="5.55748">
        <ele>1420.8000488281</ele>
        <time>2021-09-25T09:30:58.000Z</time>
      </trkpt>
      <trkpt lat="44.27616" lon="5.5575">
        <ele>1420.8000488281</ele>
        <time>2021-09-25T09:31:04.000Z</time>
      </trkpt>
      <trkpt lat="44.27615" lon="5.5575">
        <ele>1420.8000488281</ele>
        <time>2021-09-25T09:31:11.000Z</time>
      </trkpt>
      <trkpt lat="44.27613" lon="5.55752">
        <ele>1420.5999755859</ele>
        <time>2021-09-25T09:31:16.000Z</time>
      </trkpt>
      <trkpt lat="44.27612" lon="5.55752">
        <ele>1420.5999755859</ele>
        <time>2021-09-25T09:31:18.000Z</time>
      </trkpt>
      <trkpt lat="44.27611" lon="5.55752">
        <ele>1420.5999755859</ele>
        <time>2021-09-25T09:31:21.000Z</time>
      </trkpt>
      <trkpt lat="44.2761" lon="5.55752">
        <ele>1420.1999511719</ele>
        <time>2021-09-25T09:31:22.000Z</time>
      </trkpt>
      <trkpt lat="44.27608" lon="5.55753">
        <ele>1419.5999755859</ele>
        <time>2021-09-25T09:31:27.000Z</time>
      </trkpt>
      <trkpt lat="44.27604" lon="5.55754">
        <ele>1419.4000244141</ele>
        <time>2021-09-25T09:31:34.000Z</time>
      </trkpt>
      <trkpt lat="44.27603" lon="5.55755">
        <ele>1419</ele>
        <time>2021-09-25T09:31:36.000Z</time>
      </trkpt>
      <trkpt lat="44.27602" lon="5.55756">
        <ele>1418.8000488281</ele>
        <time>2021-09-25T09:31:38.000Z</time>
      </trkpt>
      <trkpt lat="44.27602" lon="5.55756">
        <ele>1418.8000488281</ele>
        <time>2021-09-25T09:31:39.000Z</time>
      </trkpt>
      <trkpt lat="44.27602" lon="5.55757">
        <ele>1418.8000488281</ele>
        <time>2021-09-25T09:31:42.000Z</time>
      </trkpt>
      <trkpt lat="44.27601" lon="5.55759">
        <ele>1419.1999511719</ele>
        <time>2021-09-25T09:31:46.000Z</time>
      </trkpt>
      <trkpt lat="44.27601" lon="5.5576">
        <ele>1419.1999511719</ele>
        <time>2021-09-25T09:31:47.000Z</time>
      </trkpt>
      <trkpt lat="44.27599" lon="5.55761">
        <ele>1419.1999511719</ele>
        <time>2021-09-25T09:31:49.000Z</time>
      </trkpt>
      <trkpt lat="44.27598" lon="5.55762">
        <ele>1419.1999511719</ele>
        <time>2021-09-25T09:31:52.000Z</time>
      </trkpt>
      <trkpt lat="44.27597" lon="5.55762">
        <ele>1419.4000244141</ele>
        <time>2021-09-25T09:31:53.000Z</time>
      </trkpt>
      <trkpt lat="44.27596" lon="5.55763">
        <ele>1419.4000244141</ele>
        <time>2021-09-25T09:31:55.000Z</time>
      </trkpt>
      <trkpt lat="44.27595" lon="5.55765">
        <ele>1419.1999511719</ele>
        <time>2021-09-25T09:31:57.000Z</time>
      </trkpt>
      <trkpt lat="44.27595" lon="5.55765">
        <ele>1419.1999511719</ele>
        <time>2021-09-25T09:31:58.000Z</time>
      </trkpt>
      <trkpt lat="44.27594" lon="5.55766">
        <ele>1419</ele>
        <time>2021-09-25T09:32:00.000Z</time>
      </trkpt>
      <trkpt lat="44.27593" lon="5.55767">
        <ele>1418.8000488281</ele>
        <time>2021-09-25T09:32:02.000Z</time>
      </trkpt>
      <trkpt lat="44.27591" lon="5.55768">
        <ele>1418.8000488281</ele>
        <time>2021-09-25T09:32:05.000Z</time>
      </trkpt>
      <trkpt lat="44.27586" lon="5.5577">
        <ele>1418.5999755859</ele>
        <time>2021-09-25T09:32:12.000Z</time>
      </trkpt>
      <trkpt lat="44.27584" lon="5.55771">
        <ele>1418.5999755859</ele>
        <time>2021-09-25T09:32:16.000Z</time>
      </trkpt>
      <trkpt lat="44.27583" lon="5.55772">
        <ele>1418.5999755859</ele>
        <time>2021-09-25T09:32:18.000Z</time>
      </trkpt>
      <trkpt lat="44.2758" lon="5.55777">
        <ele>1419.1999511719</ele>
        <time>2021-09-25T09:32:25.000Z</time>
      </trkpt>
      <trkpt lat="44.27576" lon="5.55777">
        <ele>1420</ele>
        <time>2021-09-25T09:32:31.000Z</time>
      </trkpt>
      <trkpt lat="44.27572" lon="5.55776">
        <ele>1418.4000244141</ele>
        <time>2021-09-25T09:32:39.000Z</time>
      </trkpt>
      <trkpt lat="44.27568" lon="5.55777">
        <ele>1418.4000244141</ele>
        <time>2021-09-25T09:32:43.000Z</time>
      </trkpt>
      <trkpt lat="44.27566" lon="5.55778">
        <ele>1418.4000244141</ele>
        <time>2021-09-25T09:32:46.000Z</time>
      </trkpt>
      <trkpt lat="44.27564" lon="5.55778">
        <ele>1418.8000488281</ele>
        <time>2021-09-25T09:32:49.000Z</time>
      </trkpt>
      <trkpt lat="44.27562" lon="5.55777">
        <ele>1418.8000488281</ele>
        <time>2021-09-25T09:32:51.000Z</time>
      </trkpt>
      <trkpt lat="44.27561" lon="5.55777">
        <ele>1419</ele>
        <time>2021-09-25T09:32:53.000Z</time>
      </trkpt>
      <trkpt lat="44.2756" lon="5.55777">
        <ele>1419</ele>
        <time>2021-09-25T09:32:54.000Z</time>
      </trkpt>
      <trkpt lat="44.27558" lon="5.55776">
        <ele>1418.8000488281</ele>
        <time>2021-09-25T09:32:58.000Z</time>
      </trkpt>
      <trkpt lat="44.27557" lon="5.55777">
        <ele>1418.1999511719</ele>
        <time>2021-09-25T09:33:00.000Z</time>
      </trkpt>
      <trkpt lat="44.27556" lon="5.55779">
        <ele>1418.1999511719</ele>
        <time>2021-09-25T09:33:03.000Z</time>
      </trkpt>
      <trkpt lat="44.27555" lon="5.55781">
        <ele>1418.4000244141</ele>
        <time>2021-09-25T09:33:08.000Z</time>
      </trkpt>
      <trkpt lat="44.27553" lon="5.55781">
        <ele>1418</ele>
        <time>2021-09-25T09:33:12.000Z</time>
      </trkpt>
      <trkpt lat="44.27552" lon="5.55781">
        <ele>1417.8000488281</ele>
        <time>2021-09-25T09:33:14.000Z</time>
      </trkpt>
      <trkpt lat="44.27551" lon="5.55781">
        <ele>1416.8000488281</ele>
        <time>2021-09-25T09:33:18.000Z</time>
      </trkpt>
      <trkpt lat="44.2755" lon="5.5578">
        <ele>1416.5999755859</ele>
        <time>2021-09-25T09:33:19.000Z</time>
      </trkpt>
      <trkpt lat="44.2755" lon="5.5578">
        <ele>1416.4000244141</ele>
        <time>2021-09-25T09:33:20.000Z</time>
      </trkpt>
      <trkpt lat="44.27549" lon="5.5578">
        <ele>1416.4000244141</ele>
        <time>2021-09-25T09:33:21.000Z</time>
      </trkpt>
      <trkpt lat="44.27547" lon="5.5578">
        <ele>1415.8000488281</ele>
        <time>2021-09-25T09:33:25.000Z</time>
      </trkpt>
      <trkpt lat="44.27546" lon="5.55782">
        <ele>1415.5999755859</ele>
        <time>2021-09-25T09:33:29.000Z</time>
      </trkpt>
      <trkpt lat="44.27544" lon="5.55781">
        <ele>1415.1999511719</ele>
        <time>2021-09-25T09:33:31.000Z</time>
      </trkpt>
      <trkpt lat="44.27542" lon="5.55782">
        <ele>1414.8000488281</ele>
        <time>2021-09-25T09:33:35.000Z</time>
      </trkpt>
      <trkpt lat="44.27542" lon="5.55781">
        <ele>1414.5999755859</ele>
        <time>2021-09-25T09:33:37.000Z</time>
      </trkpt>
      <trkpt lat="44.2754" lon="5.5578">
        <ele>1413.8000488281</ele>
        <time>2021-09-25T09:33:43.000Z</time>
      </trkpt>
      <trkpt lat="44.27539" lon="5.5578">
        <ele>1413.4000244141</ele>
        <time>2021-09-25T09:33:45.000Z</time>
      </trkpt>
      <trkpt lat="44.27538" lon="5.55782">
        <ele>1413.1999511719</ele>
        <time>2021-09-25T09:33:50.000Z</time>
      </trkpt>
      <trkpt lat="44.27538" lon="5.55783">
        <ele>1413.4000244141</ele>
        <time>2021-09-25T09:33:52.000Z</time>
      </trkpt>
      <trkpt lat="44.27537" lon="5.55783">
        <ele>1413.4000244141</ele>
        <time>2021-09-25T09:33:53.000Z</time>
      </trkpt>
      <trkpt lat="44.27536" lon="5.55781">
        <ele>1412.5999755859</ele>
        <time>2021-09-25T09:34:00.000Z</time>
      </trkpt>
      <trkpt lat="44.27534" lon="5.55781">
        <ele>1411.8000488281</ele>
        <time>2021-09-25T09:34:08.000Z</time>
      </trkpt>
      <trkpt lat="44.27533" lon="5.55782">
        <ele>1411.4000244141</ele>
        <time>2021-09-25T09:34:10.000Z</time>
      </trkpt>
      <trkpt lat="44.27532" lon="5.55782">
        <ele>1411</ele>
        <time>2021-09-25T09:34:12.000Z</time>
      </trkpt>
      <trkpt lat="44.2753" lon="5.55783">
        <ele>1410.5999755859</ele>
        <time>2021-09-25T09:34:16.000Z</time>
      </trkpt>
      <trkpt lat="44.27528" lon="5.55783">
        <ele>1410.4000244141</ele>
        <time>2021-09-25T09:34:22.000Z</time>
      </trkpt>
      <trkpt lat="44.27528" lon="5.55783">
        <ele>1410.4000244141</ele>
        <time>2021-09-25T09:34:23.000Z</time>
      </trkpt>
      <trkpt lat="44.27528" lon="5.55782">
        <ele>1410.8000488281</ele>
        <time>2021-09-25T09:34:27.000Z</time>
      </trkpt>
      <trkpt lat="44.27526" lon="5.55784">
        <ele>1410.1999511719</ele>
        <time>2021-09-25T09:34:31.000Z</time>
      </trkpt>
      <trkpt lat="44.27522" lon="5.55785">
        <ele>1409.5999755859</ele>
        <time>2021-09-25T09:34:36.000Z</time>
      </trkpt>
      <trkpt lat="44.27521" lon="5.55785">
        <ele>1409.5999755859</ele>
        <time>2021-09-25T09:34:38.000Z</time>
      </trkpt>
      <trkpt lat="44.2752" lon="5.55786">
        <ele>1409.4000244141</ele>
        <time>2021-09-25T09:34:40.000Z</time>
      </trkpt>
      <trkpt lat="44.27519" lon="5.55788">
        <ele>1409.1999511719</ele>
        <time>2021-09-25T09:34:44.000Z</time>
      </trkpt>
      <trkpt lat="44.27519" lon="5.55788">
        <ele>1409.1999511719</ele>
        <time>2021-09-25T09:34:45.000Z</time>
      </trkpt>
      <trkpt lat="44.27519" lon="5.55789">
        <ele>1409</ele>
        <time>2021-09-25T09:34:46.000Z</time>
      </trkpt>
      <trkpt lat="44.27519" lon="5.5579">
        <ele>1408.8000488281</ele>
        <time>2021-09-25T09:34:48.000Z</time>
      </trkpt>
      <trkpt lat="44.2752" lon="5.5579">
        <ele>1408.8000488281</ele>
        <time>2021-09-25T09:34:49.000Z</time>
      </trkpt>
      <trkpt lat="44.27519" lon="5.55787">
        <ele>1408.1999511719</ele>
        <time>2021-09-25T09:34:52.000Z</time>
      </trkpt>
      <trkpt lat="44.27519" lon="5.55786">
        <ele>1407.8000488281</ele>
        <time>2021-09-25T09:34:54.000Z</time>
      </trkpt>
      <trkpt lat="44.27518" lon="5.55785">
        <ele>1407.5999755859</ele>
        <time>2021-09-25T09:35:00.000Z</time>
      </trkpt>
      <trkpt lat="44.27518" lon="5.55786">
        <ele>1406.8000488281</ele>
        <time>2021-09-25T09:35:07.000Z</time>
      </trkpt>
      <trkpt lat="44.27517" lon="5.55786">
        <ele>1406.8000488281</ele>
        <time>2021-09-25T09:35:09.000Z</time>
      </trkpt>
      <trkpt lat="44.27517" lon="5.55784">
        <ele>1406.4000244141</ele>
        <time>2021-09-25T09:35:12.000Z</time>
      </trkpt>
      <trkpt lat="44.27516" lon="5.55784">
        <ele>1406.5999755859</ele>
        <time>2021-09-25T09:35:13.000Z</time>
      </trkpt>
      <trkpt lat="44.27515" lon="5.55784">
        <ele>1406.5999755859</ele>
        <time>2021-09-25T09:35:17.000Z</time>
      </trkpt>
      <trkpt lat="44.27515" lon="5.55783">
        <ele>1406.5999755859</ele>
        <time>2021-09-25T09:35:18.000Z</time>
      </trkpt>
      <trkpt lat="44.27514" lon="5.55783">
        <ele>1406.4000244141</ele>
        <time>2021-09-25T09:35:21.000Z</time>
      </trkpt>
      <trkpt lat="44.27514" lon="5.55784">
        <ele>1406</ele>
        <time>2021-09-25T09:35:25.000Z</time>
      </trkpt>
      <trkpt lat="44.27513" lon="5.55784">
        <ele>1405.8000488281</ele>
        <time>2021-09-25T09:35:26.000Z</time>
      </trkpt>
      <trkpt lat="44.27513" lon="5.55783">
        <ele>1404.8000488281</ele>
        <time>2021-09-25T09:35:31.000Z</time>
      </trkpt>
      <trkpt lat="44.27512" lon="5.55785">
        <ele>1404.8000488281</ele>
        <time>2021-09-25T09:35:37.000Z</time>
      </trkpt>
      <trkpt lat="44.27512" lon="5.55785">
        <ele>1404.5999755859</ele>
        <time>2021-09-25T09:35:38.000Z</time>
      </trkpt>
      <trkpt lat="44.2751" lon="5.55785">
        <ele>1404.5999755859</ele>
        <time>2021-09-25T09:35:44.000Z</time>
      </trkpt>
      <trkpt lat="44.27511" lon="5.55785">
        <ele>1404.5999755859</ele>
        <time>2021-09-25T09:35:52.000Z</time>
      </trkpt>
      <trkpt lat="44.27511" lon="5.55784">
        <ele>1404.5999755859</ele>
        <time>2021-09-25T09:36:00.000Z</time>
      </trkpt>
      <trkpt lat="44.27512" lon="5.55785">
        <ele>1404.1999511719</ele>
        <time>2021-09-25T09:36:05.000Z</time>
      </trkpt>
      <trkpt lat="44.27512" lon="5.55785">
        <ele>1404.5999755859</ele>
        <time>2021-09-25T09:36:09.000Z</time>
      </trkpt>
      <trkpt lat="44.27512" lon="5.55785">
        <ele>1404.5999755859</ele>
        <time>2021-09-25T09:36:10.000Z</time>
      </trkpt>
      <trkpt lat="44.27509" lon="5.55782">
        <ele>1404.4000244141</ele>
        <time>2021-09-25T09:36:17.000Z</time>
      </trkpt>
      <trkpt lat="44.27509" lon="5.55782">
        <ele>1404.1999511719</ele>
        <time>2021-09-25T09:36:20.000Z</time>
      </trkpt>
      <trkpt lat="44.27509" lon="5.55782">
        <ele>1404.1999511719</ele>
        <time>2021-09-25T09:36:24.000Z</time>
      </trkpt>
      <trkpt lat="44.27508" lon="5.55781">
        <ele>1403.8000488281</ele>
        <time>2021-09-25T09:36:28.000Z</time>
      </trkpt>
      <trkpt lat="44.27507" lon="5.55781">
        <ele>1403.4000244141</ele>
        <time>2021-09-25T09:36:30.000Z</time>
      </trkpt>
      <trkpt lat="44.27506" lon="5.55782">
        <ele>1402.5999755859</ele>
        <time>2021-09-25T09:36:34.000Z</time>
      </trkpt>
      <trkpt lat="44.27505" lon="5.55782">
        <ele>1402.5999755859</ele>
        <time>2021-09-25T09:36:35.000Z</time>
      </trkpt>
      <trkpt lat="44.27505" lon="5.55782">
        <ele>1402.4000244141</ele>
        <time>2021-09-25T09:36:37.000Z</time>
      </trkpt>
      <trkpt lat="44.27504" lon="5.55781">
        <ele>1402.1999511719</ele>
        <time>2021-09-25T09:36:39.000Z</time>
      </trkpt>
      <trkpt lat="44.27504" lon="5.5578">
        <ele>1402.1999511719</ele>
        <time>2021-09-25T09:36:41.000Z</time>
      </trkpt>
      <trkpt lat="44.27501" lon="5.55777">
        <ele>1401.1999511719</ele>
        <time>2021-09-25T09:36:46.000Z</time>
      </trkpt>
      <trkpt lat="44.275" lon="5.55776">
        <ele>1400.8000488281</ele>
        <time>2021-09-25T09:36:47.000Z</time>
      </trkpt>
      <trkpt lat="44.27499" lon="5.55775">
        <ele>1400.1999511719</ele>
        <time>2021-09-25T09:36:49.000Z</time>
      </trkpt>
      <trkpt lat="44.27498" lon="5.55775">
        <ele>1400</ele>
        <time>2021-09-25T09:36:50.000Z</time>
      </trkpt>
      <trkpt lat="44.27498" lon="5.55775">
        <ele>1399.8000488281</ele>
        <time>2021-09-25T09:36:51.000Z</time>
      </trkpt>
      <trkpt lat="44.27496" lon="5.55775">
        <ele>1399.8000488281</ele>
        <time>2021-09-25T09:36:56.000Z</time>
      </trkpt>
      <trkpt lat="44.27494" lon="5.55776">
        <ele>1399</ele>
        <time>2021-09-25T09:37:04.000Z</time>
      </trkpt>
      <trkpt lat="44.27493" lon="5.55776">
        <ele>1399</ele>
        <time>2021-09-25T09:37:06.000Z</time>
      </trkpt>
      <trkpt lat="44.27491" lon="5.55777">
        <ele>1399</ele>
        <time>2021-09-25T09:37:10.000Z</time>
      </trkpt>
      <trkpt lat="44.2749" lon="5.55777">
        <ele>1399</ele>
        <time>2021-09-25T09:37:12.000Z</time>
      </trkpt>
      <trkpt lat="44.27489" lon="5.55778">
        <ele>1399</ele>
        <time>2021-09-25T09:37:15.000Z</time>
      </trkpt>
      <trkpt lat="44.27487" lon="5.55779">
        <ele>1399</ele>
        <time>2021-09-25T09:37:19.000Z</time>
      </trkpt>
      <trkpt lat="44.27485" lon="5.55781">
        <ele>1399</ele>
        <time>2021-09-25T09:37:23.000Z</time>
      </trkpt>
      <trkpt lat="44.27484" lon="5.55782">
        <ele>1399</ele>
        <time>2021-09-25T09:37:24.000Z</time>
      </trkpt>
      <trkpt lat="44.27484" lon="5.55783">
        <ele>1399</ele>
        <time>2021-09-25T09:37:25.000Z</time>
      </trkpt>
      <trkpt lat="44.27483" lon="5.55784">
        <ele>1399</ele>
        <time>2021-09-25T09:37:26.000Z</time>
      </trkpt>
      <trkpt lat="44.27483" lon="5.55784">
        <ele>1399</ele>
        <time>2021-09-25T09:37:27.000Z</time>
      </trkpt>
      <trkpt lat="44.27482" lon="5.55786">
        <ele>1398.8000488281</ele>
        <time>2021-09-25T09:37:29.000Z</time>
      </trkpt>
      <trkpt lat="44.27481" lon="5.55786">
        <ele>1398.8000488281</ele>
        <time>2021-09-25T09:37:30.000Z</time>
      </trkpt>
      <trkpt lat="44.27479" lon="5.55785">
        <ele>1398.5999755859</ele>
        <time>2021-09-25T09:37:37.000Z</time>
      </trkpt>
      <trkpt lat="44.27478" lon="5.55784">
        <ele>1398.5999755859</ele>
        <time>2021-09-25T09:37:43.000Z</time>
      </trkpt>
      <trkpt lat="44.27478" lon="5.55783">
        <ele>1398.8000488281</ele>
        <time>2021-09-25T09:37:49.000Z</time>
      </trkpt>
      <trkpt lat="44.27477" lon="5.55782">
        <ele>1398.4000244141</ele>
        <time>2021-09-25T09:37:52.000Z</time>
      </trkpt>
      <trkpt lat="44.27476" lon="5.55783">
        <ele>1398</ele>
        <time>2021-09-25T09:37:54.000Z</time>
      </trkpt>
      <trkpt lat="44.27476" lon="5.55783">
        <ele>1397.8000488281</ele>
        <time>2021-09-25T09:37:56.000Z</time>
      </trkpt>
      <trkpt lat="44.27476" lon="5.55782">
        <ele>1397</ele>
        <time>2021-09-25T09:37:59.000Z</time>
      </trkpt>
      <trkpt lat="44.27476" lon="5.55781">
        <ele>1396.8000488281</ele>
        <time>2021-09-25T09:38:00.000Z</time>
      </trkpt>
      <trkpt lat="44.27475" lon="5.5578">
        <ele>1395.8000488281</ele>
        <time>2021-09-25T09:38:07.000Z</time>
      </trkpt>
      <trkpt lat="44.27473" lon="5.5578">
        <ele>1395.8000488281</ele>
        <time>2021-09-25T09:38:08.000Z</time>
      </trkpt>
      <trkpt lat="44.27469" lon="5.55782">
        <ele>1395.4000244141</ele>
        <time>2021-09-25T09:38:16.000Z</time>
      </trkpt>
      <trkpt lat="44.27468" lon="5.55783">
        <ele>1395.4000244141</ele>
        <time>2021-09-25T09:38:18.000Z</time>
      </trkpt>
      <trkpt lat="44.27468" lon="5.55784">
        <ele>1395.5999755859</ele>
        <time>2021-09-25T09:38:20.000Z</time>
      </trkpt>
      <trkpt lat="44.27468" lon="5.55785">
        <ele>1396</ele>
        <time>2021-09-25T09:38:21.000Z</time>
      </trkpt>
      <trkpt lat="44.27467" lon="5.55786">
        <ele>1396.1999511719</ele>
        <time>2021-09-25T09:38:23.000Z</time>
      </trkpt>
      <trkpt lat="44.27466" lon="5.55789">
        <ele>1394.8000488281</ele>
        <time>2021-09-25T09:38:29.000Z</time>
      </trkpt>
      <trkpt lat="44.27465" lon="5.55788">
        <ele>1393.8000488281</ele>
        <time>2021-09-25T09:38:32.000Z</time>
      </trkpt>
      <trkpt lat="44.27465" lon="5.55788">
        <ele>1393.5999755859</ele>
        <time>2021-09-25T09:38:33.000Z</time>
      </trkpt>
      <trkpt lat="44.27465" lon="5.55788">
        <ele>1393.4000244141</ele>
        <time>2021-09-25T09:38:34.000Z</time>
      </trkpt>
      <trkpt lat="44.27462" lon="5.5579">
        <ele>1392.5999755859</ele>
        <time>2021-09-25T09:38:40.000Z</time>
      </trkpt>
      <trkpt lat="44.27459" lon="5.55789">
        <ele>1391.4000244141</ele>
        <time>2021-09-25T09:38:45.000Z</time>
      </trkpt>
      <trkpt lat="44.27459" lon="5.55789">
        <ele>1391</ele>
        <time>2021-09-25T09:38:47.000Z</time>
      </trkpt>
      <trkpt lat="44.27459" lon="5.55788">
        <ele>1390.5999755859</ele>
        <time>2021-09-25T09:38:48.000Z</time>
      </trkpt>
      <trkpt lat="44.27458" lon="5.55788">
        <ele>1390.4000244141</ele>
        <time>2021-09-25T09:38:49.000Z</time>
      </trkpt>
      <trkpt lat="44.27458" lon="5.55788">
        <ele>1390.1999511719</ele>
        <time>2021-09-25T09:38:51.000Z</time>
      </trkpt>
      <trkpt lat="44.27458" lon="5.55787">
        <ele>1390</ele>
        <time>2021-09-25T09:38:52.000Z</time>
      </trkpt>
      <trkpt lat="44.27458" lon="5.55787">
        <ele>1390</ele>
        <time>2021-09-25T09:38:54.000Z</time>
      </trkpt>
      <trkpt lat="44.27457" lon="5.55785">
        <ele>1389.4000244141</ele>
        <time>2021-09-25T09:38:58.000Z</time>
      </trkpt>
      <trkpt lat="44.27457" lon="5.55784">
        <ele>1389.1999511719</ele>
        <time>2021-09-25T09:38:59.000Z</time>
      </trkpt>
      <trkpt lat="44.27457" lon="5.55784">
        <ele>1389.1999511719</ele>
        <time>2021-09-25T09:39:00.000Z</time>
      </trkpt>
      <trkpt lat="44.27457" lon="5.55784">
        <ele>1388.5999755859</ele>
        <time>2021-09-25T09:39:04.000Z</time>
      </trkpt>
      <trkpt lat="44.27456" lon="5.55783">
        <ele>1388.4000244141</ele>
        <time>2021-09-25T09:39:06.000Z</time>
      </trkpt>
      <trkpt lat="44.27456" lon="5.55782">
        <ele>1388.4000244141</ele>
        <time>2021-09-25T09:39:08.000Z</time>
      </trkpt>
      <trkpt lat="44.27455" lon="5.55783">
        <ele>1388.4000244141</ele>
        <time>2021-09-25T09:39:12.000Z</time>
      </trkpt>
      <trkpt lat="44.27454" lon="5.55783">
        <ele>1387.8000488281</ele>
        <time>2021-09-25T09:39:16.000Z</time>
      </trkpt>
      <trkpt lat="44.27454" lon="5.55782">
        <ele>1387.1999511719</ele>
        <time>2021-09-25T09:39:18.000Z</time>
      </trkpt>
      <trkpt lat="44.27454" lon="5.55782">
        <ele>1386.5999755859</ele>
        <time>2021-09-25T09:39:20.000Z</time>
      </trkpt>
      <trkpt lat="44.27454" lon="5.55782">
        <ele>1387.1999511719</ele>
        <time>2021-09-25T09:39:28.000Z</time>
      </trkpt>
      <trkpt lat="44.27454" lon="5.55782">
        <ele>1387.1999511719</ele>
        <time>2021-09-25T09:39:29.000Z</time>
      </trkpt>
      <trkpt lat="44.27453" lon="5.55781">
        <ele>1385.5999755859</ele>
        <time>2021-09-25T09:39:33.000Z</time>
      </trkpt>
      <trkpt lat="44.27453" lon="5.55781">
        <ele>1385.1999511719</ele>
        <time>2021-09-25T09:39:36.000Z</time>
      </trkpt>
      <trkpt lat="44.27451" lon="5.5578">
        <ele>1385.1999511719</ele>
        <time>2021-09-25T09:39:42.000Z</time>
      </trkpt>
      <trkpt lat="44.27451" lon="5.55781">
        <ele>1385</ele>
        <time>2021-09-25T09:39:43.000Z</time>
      </trkpt>
      <trkpt lat="44.27451" lon="5.55781">
        <ele>1384.8000488281</ele>
        <time>2021-09-25T09:39:45.000Z</time>
      </trkpt>
      <trkpt lat="44.27452" lon="5.55777">
        <ele>1384.8000488281</ele>
        <time>2021-09-25T09:39:50.000Z</time>
      </trkpt>
      <trkpt lat="44.27452" lon="5.55778">
        <ele>1384.4000244141</ele>
        <time>2021-09-25T09:39:52.000Z</time>
      </trkpt>
      <trkpt lat="44.27452" lon="5.55778">
        <ele>1383.5999755859</ele>
        <time>2021-09-25T09:39:55.000Z</time>
      </trkpt>
      <trkpt lat="44.27449" lon="5.55777">
        <ele>1383.4000244141</ele>
        <time>2021-09-25T09:40:05.000Z</time>
      </trkpt>
      <trkpt lat="44.27449" lon="5.55777">
        <ele>1383.4000244141</ele>
        <time>2021-09-25T09:40:07.000Z</time>
      </trkpt>
      <trkpt lat="44.27449" lon="5.55778">
        <ele>1383.4000244141</ele>
        <time>2021-09-25T09:40:14.000Z</time>
      </trkpt>
      <trkpt lat="44.27449" lon="5.55777">
        <ele>1383.1999511719</ele>
        <time>2021-09-25T09:40:15.000Z</time>
      </trkpt>
      <trkpt lat="44.27447" lon="5.55775">
        <ele>1382.1999511719</ele>
        <time>2021-09-25T09:40:20.000Z</time>
      </trkpt>
      <trkpt lat="44.27446" lon="5.55775">
        <ele>1382</ele>
        <time>2021-09-25T09:40:21.000Z</time>
      </trkpt>
      <trkpt lat="44.27445" lon="5.55774">
        <ele>1381.5999755859</ele>
        <time>2021-09-25T09:40:23.000Z</time>
      </trkpt>
      <trkpt lat="44.27445" lon="5.55773">
        <ele>1381</ele>
        <time>2021-09-25T09:40:25.000Z</time>
      </trkpt>
      <trkpt lat="44.27446" lon="5.55775">
        <ele>1380.1999511719</ele>
        <time>2021-09-25T09:40:29.000Z</time>
      </trkpt>
      <trkpt lat="44.27446" lon="5.55775">
        <ele>1380.1999511719</ele>
        <time>2021-09-25T09:40:32.000Z</time>
      </trkpt>
      <trkpt lat="44.27445" lon="5.55776">
        <ele>1380</ele>
        <time>2021-09-25T09:40:36.000Z</time>
      </trkpt>
      <trkpt lat="44.27445" lon="5.55775">
        <ele>1379.4000244141</ele>
        <time>2021-09-25T09:40:40.000Z</time>
      </trkpt>
      <trkpt lat="44.27444" lon="5.55774">
        <ele>1379</ele>
        <time>2021-09-25T09:40:43.000Z</time>
      </trkpt>
      <trkpt lat="44.27444" lon="5.55775">
        <ele>1378.8000488281</ele>
        <time>2021-09-25T09:40:44.000Z</time>
      </trkpt>
      <trkpt lat="44.27443" lon="5.55775">
        <ele>1378.8000488281</ele>
        <time>2021-09-25T09:40:45.000Z</time>
      </trkpt>
      <trkpt lat="44.27444" lon="5.55775">
        <ele>1378.4000244141</ele>
        <time>2021-09-25T09:40:46.000Z</time>
      </trkpt>
      <trkpt lat="44.27443" lon="5.55773">
        <ele>1378.1999511719</ele>
        <time>2021-09-25T09:40:50.000Z</time>
      </trkpt>
      <trkpt lat="44.27441" lon="5.55772">
        <ele>1378.1999511719</ele>
        <time>2021-09-25T09:40:53.000Z</time>
      </trkpt>
      <trkpt lat="44.2744" lon="5.55773">
        <ele>1378</ele>
        <time>2021-09-25T09:40:57.000Z</time>
      </trkpt>
      <trkpt lat="44.2744" lon="5.55773">
        <ele>1378</ele>
        <time>2021-09-25T09:40:58.000Z</time>
      </trkpt>
      <trkpt lat="44.2744" lon="5.55773">
        <ele>1377.8000488281</ele>
        <time>2021-09-25T09:40:59.000Z</time>
      </trkpt>
      <trkpt lat="44.2744" lon="5.55773">
        <ele>1377</ele>
        <time>2021-09-25T09:41:04.000Z</time>
      </trkpt>
      <trkpt lat="44.2744" lon="5.55773">
        <ele>1376.8000488281</ele>
        <time>2021-09-25T09:41:05.000Z</time>
      </trkpt>
      <trkpt lat="44.2744" lon="5.55773">
        <ele>1376.4000244141</ele>
        <time>2021-09-25T09:41:06.000Z</time>
      </trkpt>
      <trkpt lat="44.2744" lon="5.55769">
        <ele>1375.8000488281</ele>
        <time>2021-09-25T09:41:11.000Z</time>
      </trkpt>
      <trkpt lat="44.2744" lon="5.55768">
        <ele>1375.8000488281</ele>
        <time>2021-09-25T09:41:12.000Z</time>
      </trkpt>
      <trkpt lat="44.27439" lon="5.5577">
        <ele>1375.1999511719</ele>
        <time>2021-09-25T09:41:16.000Z</time>
      </trkpt>
      <trkpt lat="44.27438" lon="5.55771">
        <ele>1374.8000488281</ele>
        <time>2021-09-25T09:41:19.000Z</time>
      </trkpt>
      <trkpt lat="44.27439" lon="5.55772">
        <ele>1374.5999755859</ele>
        <time>2021-09-25T09:41:23.000Z</time>
      </trkpt>
      <trkpt lat="44.27438" lon="5.55771">
        <ele>1374.4000244141</ele>
        <time>2021-09-25T09:41:32.000Z</time>
      </trkpt>
      <trkpt lat="44.27438" lon="5.55774">
        <ele>1374.5999755859</ele>
        <time>2021-09-25T09:41:39.000Z</time>
      </trkpt>
      <trkpt lat="44.27435" lon="5.55771">
        <ele>1374.5999755859</ele>
        <time>2021-09-25T09:41:47.000Z</time>
      </trkpt>
      <trkpt lat="44.27435" lon="5.55771">
        <ele>1374.4000244141</ele>
        <time>2021-09-25T09:41:48.000Z</time>
      </trkpt>
      <trkpt lat="44.27434" lon="5.5577">
        <ele>1374.4000244141</ele>
        <time>2021-09-25T09:41:53.000Z</time>
      </trkpt>
      <trkpt lat="44.27434" lon="5.55771">
        <ele>1374.4000244141</ele>
        <time>2021-09-25T09:41:54.000Z</time>
      </trkpt>
      <trkpt lat="44.27434" lon="5.55771">
        <ele>1374.1999511719</ele>
        <time>2021-09-25T09:41:56.000Z</time>
      </trkpt>
      <trkpt lat="44.27434" lon="5.55769">
        <ele>1374</ele>
        <time>2021-09-25T09:41:59.000Z</time>
      </trkpt>
      <trkpt lat="44.27433" lon="5.55767">
        <ele>1374.5999755859</ele>
        <time>2021-09-25T09:42:09.000Z</time>
      </trkpt>
      <trkpt lat="44.27433" lon="5.55765">
        <ele>1374.8000488281</ele>
        <time>2021-09-25T09:42:13.000Z</time>
      </trkpt>
      <trkpt lat="44.27434" lon="5.55768">
        <ele>1374.8000488281</ele>
        <time>2021-09-25T09:42:17.000Z</time>
      </trkpt>
      <trkpt lat="44.27434" lon="5.55768">
        <ele>1374.4000244141</ele>
        <time>2021-09-25T09:42:26.000Z</time>
      </trkpt>
      <trkpt lat="44.27434" lon="5.55768">
        <ele>1374.1999511719</ele>
        <time>2021-09-25T09:42:31.000Z</time>
      </trkpt>
      <trkpt lat="44.27434" lon="5.55768">
        <ele>1374.1999511719</ele>
        <time>2021-09-25T09:42:35.000Z</time>
      </trkpt>
      <trkpt lat="44.27435" lon="5.55771">
        <ele>1374.5999755859</ele>
        <time>2021-09-25T09:42:43.000Z</time>
      </trkpt>
      <trkpt lat="44.27435" lon="5.55772">
        <ele>1374.5999755859</ele>
        <time>2021-09-25T09:42:44.000Z</time>
      </trkpt>
      <trkpt lat="44.27434" lon="5.55771">
        <ele>1374.8000488281</ele>
        <time>2021-09-25T09:42:51.000Z</time>
      </trkpt>
      <trkpt lat="44.27433" lon="5.55772">
        <ele>1374.1999511719</ele>
        <time>2021-09-25T09:42:58.000Z</time>
      </trkpt>
      <trkpt lat="44.27433" lon="5.55772">
        <ele>1373.5999755859</ele>
        <time>2021-09-25T09:42:59.000Z</time>
      </trkpt>
      <trkpt lat="44.27434" lon="5.55773">
        <ele>1373</ele>
        <time>2021-09-25T09:43:00.000Z</time>
      </trkpt>
      <trkpt lat="44.27433" lon="5.55772">
        <ele>1372.4000244141</ele>
        <time>2021-09-25T09:43:02.000Z</time>
      </trkpt>
      <trkpt lat="44.27433" lon="5.55772">
        <ele>1372.1999511719</ele>
        <time>2021-09-25T09:43:03.000Z</time>
      </trkpt>
      <trkpt lat="44.27433" lon="5.55772">
        <ele>1372</ele>
        <time>2021-09-25T09:43:04.000Z</time>
      </trkpt>
      <trkpt lat="44.27433" lon="5.55771">
        <ele>1372</ele>
        <time>2021-09-25T09:43:05.000Z</time>
      </trkpt>
      <trkpt lat="44.27433" lon="5.55772">
        <ele>1371.5999755859</ele>
        <time>2021-09-25T09:43:08.000Z</time>
      </trkpt>
      <trkpt lat="44.27433" lon="5.55773">
        <ele>1371.4000244141</ele>
        <time>2021-09-25T09:43:11.000Z</time>
      </trkpt>
      <trkpt lat="44.27432" lon="5.55773">
        <ele>1371.1999511719</ele>
        <time>2021-09-25T09:43:12.000Z</time>
      </trkpt>
      <trkpt lat="44.27432" lon="5.55773">
        <ele>1371</ele>
        <time>2021-09-25T09:43:13.000Z</time>
      </trkpt>
      <trkpt lat="44.27431" lon="5.55774">
        <ele>1371</ele>
        <time>2021-09-25T09:43:14.000Z</time>
      </trkpt>
      <trkpt lat="44.27431" lon="5.55774">
        <ele>1370</ele>
        <time>2021-09-25T09:43:17.000Z</time>
      </trkpt>
      <trkpt lat="44.27431" lon="5.55774">
        <ele>1369.5999755859</ele>
        <time>2021-09-25T09:43:18.000Z</time>
      </trkpt>
      <trkpt lat="44.27431" lon="5.55774">
        <ele>1369.4000244141</ele>
        <time>2021-09-25T09:43:19.000Z</time>
      </trkpt>
      <trkpt lat="44.2743" lon="5.55775">
        <ele>1369</ele>
        <time>2021-09-25T09:43:24.000Z</time>
      </trkpt>
      <trkpt lat="44.27429" lon="5.55775">
        <ele>1368.8000488281</ele>
        <time>2021-09-25T09:43:26.000Z</time>
      </trkpt>
      <trkpt lat="44.27428" lon="5.55776">
        <ele>1368</ele>
        <time>2021-09-25T09:43:29.000Z</time>
      </trkpt>
      <trkpt lat="44.27428" lon="5.55776">
        <ele>1367.8000488281</ele>
        <time>2021-09-25T09:43:30.000Z</time>
      </trkpt>
      <trkpt lat="44.27427" lon="5.55775">
        <ele>1367.4000244141</ele>
        <time>2021-09-25T09:43:33.000Z</time>
      </trkpt>
      <trkpt lat="44.27427" lon="5.55773">
        <ele>1366.8000488281</ele>
        <time>2021-09-25T09:43:37.000Z</time>
      </trkpt>
      <trkpt lat="44.27427" lon="5.55773">
        <ele>1366.8000488281</ele>
        <time>2021-09-25T09:43:38.000Z</time>
      </trkpt>
      <trkpt lat="44.27427" lon="5.55772">
        <ele>1366.5999755859</ele>
        <time>2021-09-25T09:43:41.000Z</time>
      </trkpt>
      <trkpt lat="44.27427" lon="5.55772">
        <ele>1366.4000244141</ele>
        <time>2021-09-25T09:43:43.000Z</time>
      </trkpt>
      <trkpt lat="44.27426" lon="5.55773">
        <ele>1365.4000244141</ele>
        <time>2021-09-25T09:43:50.000Z</time>
      </trkpt>
      <trkpt lat="44.27426" lon="5.55774">
        <ele>1365.1999511719</ele>
        <time>2021-09-25T09:43:51.000Z</time>
      </trkpt>
      <trkpt lat="44.27425" lon="5.55773">
        <ele>1364.4000244141</ele>
        <time>2021-09-25T09:43:57.000Z</time>
      </trkpt>
      <trkpt lat="44.27424" lon="5.55773">
        <ele>1364.4000244141</ele>
        <time>2021-09-25T09:43:59.000Z</time>
      </trkpt>
      <trkpt lat="44.27423" lon="5.55772">
        <ele>1363.5999755859</ele>
        <time>2021-09-25T09:44:09.000Z</time>
      </trkpt>
      <trkpt lat="44.27423" lon="5.55774">
        <ele>1364.4000244141</ele>
        <time>2021-09-25T09:44:17.000Z</time>
      </trkpt>
      <trkpt lat="44.27423" lon="5.55773">
        <ele>1364</ele>
        <time>2021-09-25T09:44:19.000Z</time>
      </trkpt>
      <trkpt lat="44.27421" lon="5.55774">
        <ele>1363.1999511719</ele>
        <time>2021-09-25T09:44:23.000Z</time>
      </trkpt>
      <trkpt lat="44.27421" lon="5.55775">
        <ele>1362.8000488281</ele>
        <time>2021-09-25T09:44:26.000Z</time>
      </trkpt>
      <trkpt lat="44.2742" lon="5.55775">
        <ele>1362.5999755859</ele>
        <time>2021-09-25T09:44:27.000Z</time>
      </trkpt>
      <trkpt lat="44.2742" lon="5.55775">
        <ele>1362.1999511719</ele>
        <time>2021-09-25T09:44:28.000Z</time>
      </trkpt>
      <trkpt lat="44.27418" lon="5.55773">
        <ele>1361</ele>
        <time>2021-09-25T09:44:34.000Z</time>
      </trkpt>
      <trkpt lat="44.27418" lon="5.55772">
        <ele>1360</ele>
        <time>2021-09-25T09:44:40.000Z</time>
      </trkpt>
      <trkpt lat="44.27417" lon="5.55771">
        <ele>1359.8000488281</ele>
        <time>2021-09-25T09:44:41.000Z</time>
      </trkpt>
      <trkpt lat="44.27417" lon="5.55772">
        <ele>1360.1999511719</ele>
        <time>2021-09-25T09:44:49.000Z</time>
      </trkpt>
      <trkpt lat="44.27416" lon="5.55772">
        <ele>1359.4000244141</ele>
        <time>2021-09-25T09:44:54.000Z</time>
      </trkpt>
      <trkpt lat="44.27415" lon="5.55771">
        <ele>1359.1999511719</ele>
        <time>2021-09-25T09:44:56.000Z</time>
      </trkpt>
      <trkpt lat="44.27415" lon="5.55775">
        <ele>1359</ele>
        <time>2021-09-25T09:45:03.000Z</time>
      </trkpt>
      <trkpt lat="44.27416" lon="5.55777">
        <ele>1358.8000488281</ele>
        <time>2021-09-25T09:45:09.000Z</time>
      </trkpt>
      <trkpt lat="44.27416" lon="5.55777">
        <ele>1358.5999755859</ele>
        <time>2021-09-25T09:45:10.000Z</time>
      </trkpt>
      <trkpt lat="44.27418" lon="5.55782">
        <ele>1358.4000244141</ele>
        <time>2021-09-25T09:45:17.000Z</time>
      </trkpt>
      <trkpt lat="44.27418" lon="5.55782">
        <ele>1358.4000244141</ele>
        <time>2021-09-25T09:45:18.000Z</time>
      </trkpt>
      <trkpt lat="44.27419" lon="5.55783">
        <ele>1358.4000244141</ele>
        <time>2021-09-25T09:45:23.000Z</time>
      </trkpt>
      <trkpt lat="44.27419" lon="5.55784">
        <ele>1358.4000244141</ele>
        <time>2021-09-25T09:45:24.000Z</time>
      </trkpt>
      <trkpt lat="44.2742" lon="5.55785">
        <ele>1359.4000244141</ele>
        <time>2021-09-25T09:45:29.000Z</time>
      </trkpt>
      <trkpt lat="44.2742" lon="5.55786">
        <ele>1359.5999755859</ele>
        <time>2021-09-25T09:45:34.000Z</time>
      </trkpt>
      <trkpt lat="44.27416" lon="5.55788">
        <ele>1359.4000244141</ele>
        <time>2021-09-25T09:45:42.000Z</time>
      </trkpt>
      <trkpt lat="44.27416" lon="5.55788">
        <ele>1359.4000244141</ele>
        <time>2021-09-25T09:45:43.000Z</time>
      </trkpt>
      <trkpt lat="44.27416" lon="5.5579">
        <ele>1359.1999511719</ele>
        <time>2021-09-25T09:45:46.000Z</time>
      </trkpt>
      <trkpt lat="44.27416" lon="5.55791">
        <ele>1359</ele>
        <time>2021-09-25T09:45:48.000Z</time>
      </trkpt>
      <trkpt lat="44.27415" lon="5.55791">
        <ele>1359</ele>
        <time>2021-09-25T09:45:54.000Z</time>
      </trkpt>
      <trkpt lat="44.27414" lon="5.55791">
        <ele>1358.8000488281</ele>
        <time>2021-09-25T09:45:57.000Z</time>
      </trkpt>
      <trkpt lat="44.27415" lon="5.55793">
        <ele>1358.5999755859</ele>
        <time>2021-09-25T09:46:04.000Z</time>
      </trkpt>
      <trkpt lat="44.27415" lon="5.55794">
        <ele>1358.5999755859</ele>
        <time>2021-09-25T09:46:06.000Z</time>
      </trkpt>
      <trkpt lat="44.27416" lon="5.55794">
        <ele>1358.4000244141</ele>
        <time>2021-09-25T09:46:09.000Z</time>
      </trkpt>
      <trkpt lat="44.27416" lon="5.55795">
        <ele>1358.1999511719</ele>
        <time>2021-09-25T09:46:12.000Z</time>
      </trkpt>
      <trkpt lat="44.27417" lon="5.55799">
        <ele>1358.1999511719</ele>
        <time>2021-09-25T09:46:18.000Z</time>
      </trkpt>
      <trkpt lat="44.27416" lon="5.55803">
        <ele>1357.8000488281</ele>
        <time>2021-09-25T09:46:23.000Z</time>
      </trkpt>
      <trkpt lat="44.27416" lon="5.55804">
        <ele>1357.8000488281</ele>
        <time>2021-09-25T09:46:24.000Z</time>
      </trkpt>
      <trkpt lat="44.27416" lon="5.55804">
        <ele>1358</ele>
        <time>2021-09-25T09:46:25.000Z</time>
      </trkpt>
      <trkpt lat="44.27415" lon="5.55809">
        <ele>1357.8000488281</ele>
        <time>2021-09-25T09:46:32.000Z</time>
      </trkpt>
      <trkpt lat="44.27415" lon="5.55814">
        <ele>1358.1999511719</ele>
        <time>2021-09-25T09:46:37.000Z</time>
      </trkpt>
      <trkpt lat="44.27414" lon="5.55815">
        <ele>1358.1999511719</ele>
        <time>2021-09-25T09:46:40.000Z</time>
      </trkpt>
      <trkpt lat="44.27413" lon="5.55822">
        <ele>1357.5999755859</ele>
        <time>2021-09-25T09:46:47.000Z</time>
      </trkpt>
      <trkpt lat="44.27409" lon="5.5583">
        <ele>1357.4000244141</ele>
        <time>2021-09-25T09:46:54.000Z</time>
      </trkpt>
      <trkpt lat="44.27408" lon="5.5584">
        <ele>1357.1999511719</ele>
        <time>2021-09-25T09:47:01.000Z</time>
      </trkpt>
      <trkpt lat="44.27408" lon="5.55849">
        <ele>1358</ele>
        <time>2021-09-25T09:47:08.000Z</time>
      </trkpt>
      <trkpt lat="44.27407" lon="5.5585">
        <ele>1358.1999511719</ele>
        <time>2021-09-25T09:47:09.000Z</time>
      </trkpt>
      <trkpt lat="44.27407" lon="5.55852">
        <ele>1358.1999511719</ele>
        <time>2021-09-25T09:47:11.000Z</time>
      </trkpt>
      <trkpt lat="44.27407" lon="5.55853">
        <ele>1358.1999511719</ele>
        <time>2021-09-25T09:47:12.000Z</time>
      </trkpt>
      <trkpt lat="44.27405" lon="5.55855">
        <ele>1357.8000488281</ele>
        <time>2021-09-25T09:47:16.000Z</time>
      </trkpt>
      <trkpt lat="44.27404" lon="5.55856">
        <ele>1357.8000488281</ele>
        <time>2021-09-25T09:47:17.000Z</time>
      </trkpt>
      <trkpt lat="44.27405" lon="5.55857">
        <ele>1357.8000488281</ele>
        <time>2021-09-25T09:47:18.000Z</time>
      </trkpt>
      <trkpt lat="44.27405" lon="5.55863">
        <ele>1358.5999755859</ele>
        <time>2021-09-25T09:47:23.000Z</time>
      </trkpt>
      <trkpt lat="44.27405" lon="5.55866">
        <ele>1358.8000488281</ele>
        <time>2021-09-25T09:47:25.000Z</time>
      </trkpt>
      <trkpt lat="44.27405" lon="5.55867">
        <ele>1359</ele>
        <time>2021-09-25T09:47:26.000Z</time>
      </trkpt>
      <trkpt lat="44.27404" lon="5.55869">
        <ele>1358.8000488281</ele>
        <time>2021-09-25T09:47:28.000Z</time>
      </trkpt>
      <trkpt lat="44.27403" lon="5.5587">
        <ele>1358.5999755859</ele>
        <time>2021-09-25T09:47:29.000Z</time>
      </trkpt>
      <trkpt lat="44.27402" lon="5.55871">
        <ele>1358.1999511719</ele>
        <time>2021-09-25T09:47:31.000Z</time>
      </trkpt>
      <trkpt lat="44.27401" lon="5.55871">
        <ele>1358</ele>
        <time>2021-09-25T09:47:33.000Z</time>
      </trkpt>
      <trkpt lat="44.274" lon="5.55871">
        <ele>1357.8000488281</ele>
        <time>2021-09-25T09:47:34.000Z</time>
      </trkpt>
      <trkpt lat="44.274" lon="5.55872">
        <ele>1357</ele>
        <time>2021-09-25T09:47:35.000Z</time>
      </trkpt>
      <trkpt lat="44.274" lon="5.55874">
        <ele>1356.5999755859</ele>
        <time>2021-09-25T09:47:36.000Z</time>
      </trkpt>
      <trkpt lat="44.27397" lon="5.55878">
        <ele>1356.1999511719</ele>
        <time>2021-09-25T09:47:40.000Z</time>
      </trkpt>
      <trkpt lat="44.27395" lon="5.55881">
        <ele>1355.8000488281</ele>
        <time>2021-09-25T09:47:43.000Z</time>
      </trkpt>
      <trkpt lat="44.27394" lon="5.55882">
        <ele>1355.5999755859</ele>
        <time>2021-09-25T09:47:45.000Z</time>
      </trkpt>
      <trkpt lat="44.27392" lon="5.55885">
        <ele>1354.8000488281</ele>
        <time>2021-09-25T09:47:48.000Z</time>
      </trkpt>
      <trkpt lat="44.27392" lon="5.55886">
        <ele>1354.4000244141</ele>
        <time>2021-09-25T09:47:49.000Z</time>
      </trkpt>
      <trkpt lat="44.27392" lon="5.55887">
        <ele>1354.1999511719</ele>
        <time>2021-09-25T09:47:50.000Z</time>
      </trkpt>
      <trkpt lat="44.2739" lon="5.55892">
        <ele>1353.4000244141</ele>
        <time>2021-09-25T09:47:54.000Z</time>
      </trkpt>
      <trkpt lat="44.27389" lon="5.55892">
        <ele>1353.4000244141</ele>
        <time>2021-09-25T09:47:56.000Z</time>
      </trkpt>
      <trkpt lat="44.27388" lon="5.55893">
        <ele>1353.4000244141</ele>
        <time>2021-09-25T09:47:57.000Z</time>
      </trkpt>
      <trkpt lat="44.27385" lon="5.55894">
        <ele>1353.1999511719</ele>
        <time>2021-09-25T09:48:00.000Z</time>
      </trkpt>
      <trkpt lat="44.27384" lon="5.55894">
        <ele>1353</ele>
        <time>2021-09-25T09:48:01.000Z</time>
      </trkpt>
      <trkpt lat="44.27384" lon="5.55894">
        <ele>1353</ele>
        <time>2021-09-25T09:48:02.000Z</time>
      </trkpt>
      <trkpt lat="44.27383" lon="5.55895">
        <ele>1352.8000488281</ele>
        <time>2021-09-25T09:48:04.000Z</time>
      </trkpt>
      <trkpt lat="44.27381" lon="5.55897">
        <ele>1352.5999755859</ele>
        <time>2021-09-25T09:48:07.000Z</time>
      </trkpt>
      <trkpt lat="44.2738" lon="5.55897">
        <ele>1352.5999755859</ele>
        <time>2021-09-25T09:48:08.000Z</time>
      </trkpt>
      <trkpt lat="44.27379" lon="5.55898">
        <ele>1352.4000244141</ele>
        <time>2021-09-25T09:48:10.000Z</time>
      </trkpt>
      <trkpt lat="44.27378" lon="5.55898">
        <ele>1351.8000488281</ele>
        <time>2021-09-25T09:48:12.000Z</time>
      </trkpt>
      <trkpt lat="44.27378" lon="5.55899">
        <ele>1351.5999755859</ele>
        <time>2021-09-25T09:48:13.000Z</time>
      </trkpt>
      <trkpt lat="44.27378" lon="5.55899">
        <ele>1351.4000244141</ele>
        <time>2021-09-25T09:48:14.000Z</time>
      </trkpt>
      <trkpt lat="44.27376" lon="5.559">
        <ele>1351.1999511719</ele>
        <time>2021-09-25T09:48:16.000Z</time>
      </trkpt>
      <trkpt lat="44.27375" lon="5.559">
        <ele>1351</ele>
        <time>2021-09-25T09:48:19.000Z</time>
      </trkpt>
      <trkpt lat="44.27375" lon="5.55901">
        <ele>1350.8000488281</ele>
        <time>2021-09-25T09:48:20.000Z</time>
      </trkpt>
      <trkpt lat="44.27374" lon="5.55902">
        <ele>1350.5999755859</ele>
        <time>2021-09-25T09:48:21.000Z</time>
      </trkpt>
      <trkpt lat="44.27373" lon="5.55902">
        <ele>1350.5999755859</ele>
        <time>2021-09-25T09:48:22.000Z</time>
      </trkpt>
      <trkpt lat="44.27371" lon="5.55904">
        <ele>1349.8000488281</ele>
        <time>2021-09-25T09:48:28.000Z</time>
      </trkpt>
      <trkpt lat="44.2737" lon="5.55904">
        <ele>1349.8000488281</ele>
        <time>2021-09-25T09:48:29.000Z</time>
      </trkpt>
      <trkpt lat="44.27369" lon="5.55906">
        <ele>1348.8000488281</ele>
        <time>2021-09-25T09:48:32.000Z</time>
      </trkpt>
      <trkpt lat="44.27367" lon="5.55908">
        <ele>1348.1999511719</ele>
        <time>2021-09-25T09:48:36.000Z</time>
      </trkpt>
      <trkpt lat="44.27363" lon="5.5591">
        <ele>1347.8000488281</ele>
        <time>2021-09-25T09:48:43.000Z</time>
      </trkpt>
      <trkpt lat="44.27362" lon="5.55911">
        <ele>1347.8000488281</ele>
        <time>2021-09-25T09:48:44.000Z</time>
      </trkpt>
      <trkpt lat="44.27362" lon="5.55913">
        <ele>1348</ele>
        <time>2021-09-25T09:48:45.000Z</time>
      </trkpt>
      <trkpt lat="44.27361" lon="5.55917">
        <ele>1348.4000244141</ele>
        <time>2021-09-25T09:48:49.000Z</time>
      </trkpt>
      <trkpt lat="44.27361" lon="5.55917">
        <ele>1348.4000244141</ele>
        <time>2021-09-25T09:48:50.000Z</time>
      </trkpt>
      <trkpt lat="44.27362" lon="5.55917">
        <ele>1349.8000488281</ele>
        <time>2021-09-25T09:48:57.000Z</time>
      </trkpt>
      <trkpt lat="44.27362" lon="5.55917">
        <ele>1349.8000488281</ele>
        <time>2021-09-25T09:49:01.000Z</time>
      </trkpt>
      <trkpt lat="44.27362" lon="5.55917">
        <ele>1350</ele>
        <time>2021-09-25T09:49:06.000Z</time>
      </trkpt>
      <trkpt lat="44.27362" lon="5.55917">
        <ele>1350</ele>
        <time>2021-09-25T09:49:07.000Z</time>
      </trkpt>
      <trkpt lat="44.27362" lon="5.55917">
        <ele>1350</ele>
        <time>2021-09-25T09:49:08.000Z</time>
      </trkpt>
      <trkpt lat="44.27362" lon="5.55917">
        <ele>1348.8000488281</ele>
        <time>2021-09-25T09:49:13.000Z</time>
      </trkpt>
      <trkpt lat="44.27363" lon="5.55917">
        <ele>1348.8000488281</ele>
        <time>2021-09-25T09:49:14.000Z</time>
      </trkpt>
      <trkpt lat="44.27362" lon="5.55917">
        <ele>1348.1999511719</ele>
        <time>2021-09-25T09:49:16.000Z</time>
      </trkpt>
      <trkpt lat="44.27361" lon="5.55917">
        <ele>1348.5999755859</ele>
        <time>2021-09-25T09:49:18.000Z</time>
      </trkpt>
      <trkpt lat="44.27361" lon="5.55917">
        <ele>1348.8000488281</ele>
        <time>2021-09-25T09:49:19.000Z</time>
      </trkpt>
      <trkpt lat="44.27358" lon="5.55916">
        <ele>1349</ele>
        <time>2021-09-25T09:49:24.000Z</time>
      </trkpt>
      <trkpt lat="44.27358" lon="5.55916">
        <ele>1348.5999755859</ele>
        <time>2021-09-25T09:49:25.000Z</time>
      </trkpt>
      <trkpt lat="44.27356" lon="5.55917">
        <ele>1348.1999511719</ele>
        <time>2021-09-25T09:49:27.000Z</time>
      </trkpt>
      <trkpt lat="44.27355" lon="5.55919">
        <ele>1347.8000488281</ele>
        <time>2021-09-25T09:49:29.000Z</time>
      </trkpt>
      <trkpt lat="44.27356" lon="5.55921">
        <ele>1347.4000244141</ele>
        <time>2021-09-25T09:49:31.000Z</time>
      </trkpt>
      <trkpt lat="44.27356" lon="5.55922">
        <ele>1347</ele>
        <time>2021-09-25T09:49:33.000Z</time>
      </trkpt>
      <trkpt lat="44.27354" lon="5.55927">
        <ele>1346.8000488281</ele>
        <time>2021-09-25T09:49:38.000Z</time>
      </trkpt>
      <trkpt lat="44.27353" lon="5.55927">
        <ele>1346.5999755859</ele>
        <time>2021-09-25T09:49:39.000Z</time>
      </trkpt>
      <trkpt lat="44.27353" lon="5.55934">
        <ele>1347.1999511719</ele>
        <time>2021-09-25T09:49:47.000Z</time>
      </trkpt>
      <trkpt lat="44.27351" lon="5.55937">
        <ele>1346.8000488281</ele>
        <time>2021-09-25T09:49:50.000Z</time>
      </trkpt>
      <trkpt lat="44.27351" lon="5.55938">
        <ele>1346.8000488281</ele>
        <time>2021-09-25T09:49:51.000Z</time>
      </trkpt>
      <trkpt lat="44.27349" lon="5.55939">
        <ele>1346.5999755859</ele>
        <time>2021-09-25T09:49:54.000Z</time>
      </trkpt>
      <trkpt lat="44.27348" lon="5.55939">
        <ele>1346.4000244141</ele>
        <time>2021-09-25T09:49:55.000Z</time>
      </trkpt>
      <trkpt lat="44.27346" lon="5.55941">
        <ele>1346</ele>
        <time>2021-09-25T09:49:57.000Z</time>
      </trkpt>
      <trkpt lat="44.27345" lon="5.55941">
        <ele>1346</ele>
        <time>2021-09-25T09:49:58.000Z</time>
      </trkpt>
      <trkpt lat="44.27343" lon="5.55943">
        <ele>1345.8000488281</ele>
        <time>2021-09-25T09:50:00.000Z</time>
      </trkpt>
      <trkpt lat="44.27342" lon="5.55943">
        <ele>1345.5999755859</ele>
        <time>2021-09-25T09:50:01.000Z</time>
      </trkpt>
      <trkpt lat="44.2734" lon="5.55946">
        <ele>1345.1999511719</ele>
        <time>2021-09-25T09:50:05.000Z</time>
      </trkpt>
      <trkpt lat="44.27339" lon="5.55946">
        <ele>1345.1999511719</ele>
        <time>2021-09-25T09:50:06.000Z</time>
      </trkpt>
      <trkpt lat="44.27336" lon="5.55948">
        <ele>1345.4000244141</ele>
        <time>2021-09-25T09:50:09.000Z</time>
      </trkpt>
      <trkpt lat="44.27335" lon="5.55949">
        <ele>1345.5999755859</ele>
        <time>2021-09-25T09:50:10.000Z</time>
      </trkpt>
      <trkpt lat="44.27335" lon="5.5595">
        <ele>1345.5999755859</ele>
        <time>2021-09-25T09:50:11.000Z</time>
      </trkpt>
      <trkpt lat="44.27335" lon="5.5595">
        <ele>1345.5999755859</ele>
        <time>2021-09-25T09:50:12.000Z</time>
      </trkpt>
      <trkpt lat="44.27334" lon="5.55951">
        <ele>1345.5999755859</ele>
        <time>2021-09-25T09:50:13.000Z</time>
      </trkpt>
      <trkpt lat="44.27332" lon="5.55953">
        <ele>1345.1999511719</ele>
        <time>2021-09-25T09:50:17.000Z</time>
      </trkpt>
      <trkpt lat="44.27331" lon="5.55954">
        <ele>1345</ele>
        <time>2021-09-25T09:50:18.000Z</time>
      </trkpt>
      <trkpt lat="44.27329" lon="5.55954">
        <ele>1344.5999755859</ele>
        <time>2021-09-25T09:50:21.000Z</time>
      </trkpt>
      <trkpt lat="44.27326" lon="5.55952">
        <ele>1344</ele>
        <time>2021-09-25T09:50:24.000Z</time>
      </trkpt>
      <trkpt lat="44.27326" lon="5.55953">
        <ele>1343.8000488281</ele>
        <time>2021-09-25T09:50:25.000Z</time>
      </trkpt>
      <trkpt lat="44.27324" lon="5.55952">
        <ele>1343.4000244141</ele>
        <time>2021-09-25T09:50:27.000Z</time>
      </trkpt>
      <trkpt lat="44.27323" lon="5.55952">
        <ele>1343</ele>
        <time>2021-09-25T09:50:29.000Z</time>
      </trkpt>
      <trkpt lat="44.27322" lon="5.55952">
        <ele>1343</ele>
        <time>2021-09-25T09:50:30.000Z</time>
      </trkpt>
      <trkpt lat="44.27321" lon="5.55954">
        <ele>1342.5999755859</ele>
        <time>2021-09-25T09:50:32.000Z</time>
      </trkpt>
      <trkpt lat="44.27319" lon="5.55953">
        <ele>1342.4000244141</ele>
        <time>2021-09-25T09:50:34.000Z</time>
      </trkpt>
      <trkpt lat="44.27314" lon="5.55953">
        <ele>1342.5999755859</ele>
        <time>2021-09-25T09:50:38.000Z</time>
      </trkpt>
      <trkpt lat="44.27313" lon="5.55955">
        <ele>1342.8000488281</ele>
        <time>2021-09-25T09:50:40.000Z</time>
      </trkpt>
      <trkpt lat="44.27311" lon="5.5596">
        <ele>1342.5999755859</ele>
        <time>2021-09-25T09:50:43.000Z</time>
      </trkpt>
      <trkpt lat="44.2731" lon="5.55963">
        <ele>1342.4000244141</ele>
        <time>2021-09-25T09:50:45.000Z</time>
      </trkpt>
      <trkpt lat="44.27308" lon="5.55968">
        <ele>1342.1999511719</ele>
        <time>2021-09-25T09:50:51.000Z</time>
      </trkpt>
      <trkpt lat="44.27308" lon="5.55968">
        <ele>1342.4000244141</ele>
        <time>2021-09-25T09:50:52.000Z</time>
      </trkpt>
      <trkpt lat="44.27307" lon="5.55971">
        <ele>1343.1999511719</ele>
        <time>2021-09-25T09:50:56.000Z</time>
      </trkpt>
      <trkpt lat="44.27307" lon="5.55972">
        <ele>1343.4000244141</ele>
        <time>2021-09-25T09:50:58.000Z</time>
      </trkpt>
      <trkpt lat="44.27307" lon="5.55973">
        <ele>1343.5999755859</ele>
        <time>2021-09-25T09:50:59.000Z</time>
      </trkpt>
      <trkpt lat="44.27308" lon="5.55976">
        <ele>1344.5999755859</ele>
        <time>2021-09-25T09:51:02.000Z</time>
      </trkpt>
      <trkpt lat="44.2731" lon="5.55979">
        <ele>1345.8000488281</ele>
        <time>2021-09-25T09:51:06.000Z</time>
      </trkpt>
      <trkpt lat="44.27306" lon="5.5598">
        <ele>1346.8000488281</ele>
        <time>2021-09-25T09:51:13.000Z</time>
      </trkpt>
      <trkpt lat="44.27306" lon="5.5598">
        <ele>1346.8000488281</ele>
        <time>2021-09-25T09:51:14.000Z</time>
      </trkpt>
      <trkpt lat="44.27305" lon="5.5598">
        <ele>1346.8000488281</ele>
        <time>2021-09-25T09:51:15.000Z</time>
      </trkpt>
      <trkpt lat="44.27305" lon="5.55982">
        <ele>1346.8000488281</ele>
        <time>2021-09-25T09:51:16.000Z</time>
      </trkpt>
      <trkpt lat="44.27305" lon="5.55984">
        <ele>1346.8000488281</ele>
        <time>2021-09-25T09:51:17.000Z</time>
      </trkpt>
      <trkpt lat="44.27305" lon="5.55986">
        <ele>1346.8000488281</ele>
        <time>2021-09-25T09:51:18.000Z</time>
      </trkpt>
      <trkpt lat="44.27305" lon="5.55987">
        <ele>1346.8000488281</ele>
        <time>2021-09-25T09:51:19.000Z</time>
      </trkpt>
      <trkpt lat="44.27304" lon="5.55988">
        <ele>1347</ele>
        <time>2021-09-25T09:51:20.000Z</time>
      </trkpt>
      <trkpt lat="44.27302" lon="5.55991">
        <ele>1346.8000488281</ele>
        <time>2021-09-25T09:51:22.000Z</time>
      </trkpt>
      <trkpt lat="44.273" lon="5.55993">
        <ele>1346.8000488281</ele>
        <time>2021-09-25T09:51:25.000Z</time>
      </trkpt>
      <trkpt lat="44.273" lon="5.55994">
        <ele>1346.8000488281</ele>
        <time>2021-09-25T09:51:26.000Z</time>
      </trkpt>
      <trkpt lat="44.27299" lon="5.55994">
        <ele>1346.8000488281</ele>
        <time>2021-09-25T09:51:27.000Z</time>
      </trkpt>
      <trkpt lat="44.27298" lon="5.55996">
        <ele>1347.1999511719</ele>
        <time>2021-09-25T09:51:30.000Z</time>
      </trkpt>
      <trkpt lat="44.27296" lon="5.55999">
        <ele>1347.5999755859</ele>
        <time>2021-09-25T09:51:34.000Z</time>
      </trkpt>
      <trkpt lat="44.27296" lon="5.55999">
        <ele>1347.5999755859</ele>
        <time>2021-09-25T09:51:35.000Z</time>
      </trkpt>
      <trkpt lat="44.27295" lon="5.56">
        <ele>1347.5999755859</ele>
        <time>2021-09-25T09:51:36.000Z</time>
      </trkpt>
      <trkpt lat="44.27294" lon="5.56001">
        <ele>1347.8000488281</ele>
        <time>2021-09-25T09:51:38.000Z</time>
      </trkpt>
      <trkpt lat="44.27294" lon="5.56003">
        <ele>1347.8000488281</ele>
        <time>2021-09-25T09:51:40.000Z</time>
      </trkpt>
      <trkpt lat="44.27294" lon="5.56005">
        <ele>1347.8000488281</ele>
        <time>2021-09-25T09:51:41.000Z</time>
      </trkpt>
      <trkpt lat="44.27293" lon="5.56005">
        <ele>1348</ele>
        <time>2021-09-25T09:51:42.000Z</time>
      </trkpt>
      <trkpt lat="44.27292" lon="5.56006">
        <ele>1348.4000244141</ele>
        <time>2021-09-25T09:51:44.000Z</time>
      </trkpt>
      <trkpt lat="44.27292" lon="5.5601">
        <ele>1348.8000488281</ele>
        <time>2021-09-25T09:51:47.000Z</time>
      </trkpt>
      <trkpt lat="44.27293" lon="5.56012">
        <ele>1349</ele>
        <time>2021-09-25T09:51:48.000Z</time>
      </trkpt>
      <trkpt lat="44.27293" lon="5.56013">
        <ele>1349.4000244141</ele>
        <time>2021-09-25T09:51:49.000Z</time>
      </trkpt>
      <trkpt lat="44.27292" lon="5.56016">
        <ele>1350.1999511719</ele>
        <time>2021-09-25T09:51:52.000Z</time>
      </trkpt>
      <trkpt lat="44.27292" lon="5.56018">
        <ele>1350.1999511719</ele>
        <time>2021-09-25T09:51:53.000Z</time>
      </trkpt>
      <trkpt lat="44.27291" lon="5.56019">
        <ele>1350.4000244141</ele>
        <time>2021-09-25T09:51:54.000Z</time>
      </trkpt>
      <trkpt lat="44.27289" lon="5.56022">
        <ele>1350.8000488281</ele>
        <time>2021-09-25T09:51:57.000Z</time>
      </trkpt>
      <trkpt lat="44.27286" lon="5.56023">
        <ele>1350.8000488281</ele>
        <time>2021-09-25T09:51:59.000Z</time>
      </trkpt>
      <trkpt lat="44.27285" lon="5.56024">
        <ele>1351</ele>
        <time>2021-09-25T09:52:00.000Z</time>
      </trkpt>
      <trkpt lat="44.27284" lon="5.56026">
        <ele>1351</ele>
        <time>2021-09-25T09:52:02.000Z</time>
      </trkpt>
      <trkpt lat="44.27284" lon="5.56027">
        <ele>1351.1999511719</ele>
        <time>2021-09-25T09:52:03.000Z</time>
      </trkpt>
      <trkpt lat="44.27283" lon="5.56031">
        <ele>1351.4000244141</ele>
        <time>2021-09-25T09:52:06.000Z</time>
      </trkpt>
      <trkpt lat="44.27282" lon="5.56032">
        <ele>1351.4000244141</ele>
        <time>2021-09-25T09:52:08.000Z</time>
      </trkpt>
      <trkpt lat="44.27281" lon="5.56033">
        <ele>1351.8000488281</ele>
        <time>2021-09-25T09:52:10.000Z</time>
      </trkpt>
      <trkpt lat="44.2728" lon="5.56033">
        <ele>1351.8000488281</ele>
        <time>2021-09-25T09:52:11.000Z</time>
      </trkpt>
      <trkpt lat="44.27279" lon="5.56034">
        <ele>1352</ele>
        <time>2021-09-25T09:52:12.000Z</time>
      </trkpt>
      <trkpt lat="44.27276" lon="5.56037">
        <ele>1352</ele>
        <time>2021-09-25T09:52:15.000Z</time>
      </trkpt>
      <trkpt lat="44.27275" lon="5.56038">
        <ele>1352</ele>
        <time>2021-09-25T09:52:16.000Z</time>
      </trkpt>
      <trkpt lat="44.27274" lon="5.5604">
        <ele>1352</ele>
        <time>2021-09-25T09:52:18.000Z</time>
      </trkpt>
      <trkpt lat="44.27274" lon="5.56042">
        <ele>1352.1999511719</ele>
        <time>2021-09-25T09:52:20.000Z</time>
      </trkpt>
      <trkpt lat="44.2727" lon="5.56046">
        <ele>1352.4000244141</ele>
        <time>2021-09-25T09:52:27.000Z</time>
      </trkpt>
      <trkpt lat="44.27265" lon="5.5605">
        <ele>1353.1999511719</ele>
        <time>2021-09-25T09:52:32.000Z</time>
      </trkpt>
      <trkpt lat="44.27264" lon="5.5605">
        <ele>1353.4000244141</ele>
        <time>2021-09-25T09:52:33.000Z</time>
      </trkpt>
      <trkpt lat="44.27259" lon="5.56053">
        <ele>1353.5999755859</ele>
        <time>2021-09-25T09:52:40.000Z</time>
      </trkpt>
      <trkpt lat="44.27258" lon="5.56054">
        <ele>1353.8000488281</ele>
        <time>2021-09-25T09:52:41.000Z</time>
      </trkpt>
      <trkpt lat="44.27257" lon="5.56055">
        <ele>1353.8000488281</ele>
        <time>2021-09-25T09:52:42.000Z</time>
      </trkpt>
      <trkpt lat="44.27254" lon="5.5606">
        <ele>1354</ele>
        <time>2021-09-25T09:52:48.000Z</time>
      </trkpt>
      <trkpt lat="44.27254" lon="5.56061">
        <ele>1354</ele>
        <time>2021-09-25T09:52:50.000Z</time>
      </trkpt>
      <trkpt lat="44.27253" lon="5.56062">
        <ele>1354</ele>
        <time>2021-09-25T09:52:52.000Z</time>
      </trkpt>
      <trkpt lat="44.27254" lon="5.56063">
        <ele>1354</ele>
        <time>2021-09-25T09:52:55.000Z</time>
      </trkpt>
      <trkpt lat="44.27254" lon="5.56064">
        <ele>1354.4000244141</ele>
        <time>2021-09-25T09:52:57.000Z</time>
      </trkpt>
      <trkpt lat="44.27254" lon="5.56064">
        <ele>1354.4000244141</ele>
        <time>2021-09-25T09:53:01.000Z</time>
      </trkpt>
      <trkpt lat="44.27254" lon="5.56064">
        <ele>1354.5999755859</ele>
        <time>2021-09-25T09:53:04.000Z</time>
      </trkpt>
      <trkpt lat="44.27254" lon="5.56066">
        <ele>1355.4000244141</ele>
        <time>2021-09-25T09:53:08.000Z</time>
      </trkpt>
      <trkpt lat="44.27254" lon="5.56066">
        <ele>1355.5999755859</ele>
        <time>2021-09-25T09:53:10.000Z</time>
      </trkpt>
      <trkpt lat="44.27255" lon="5.56069">
        <ele>1356.1999511719</ele>
        <time>2021-09-25T09:53:18.000Z</time>
      </trkpt>
      <trkpt lat="44.27256" lon="5.5607">
        <ele>1356.4000244141</ele>
        <time>2021-09-25T09:53:21.000Z</time>
      </trkpt>
      <trkpt lat="44.27256" lon="5.56071">
        <ele>1356.4000244141</ele>
        <time>2021-09-25T09:53:23.000Z</time>
      </trkpt>
      <trkpt lat="44.27257" lon="5.56072">
        <ele>1356.8000488281</ele>
        <time>2021-09-25T09:53:26.000Z</time>
      </trkpt>
      <trkpt lat="44.27258" lon="5.56072">
        <ele>1356.8000488281</ele>
        <time>2021-09-25T09:53:29.000Z</time>
      </trkpt>
      <trkpt lat="44.2726" lon="5.56074">
        <ele>1357.1999511719</ele>
        <time>2021-09-25T09:53:34.000Z</time>
      </trkpt>
      <trkpt lat="44.27262" lon="5.56074">
        <ele>1357.5999755859</ele>
        <time>2021-09-25T09:53:36.000Z</time>
      </trkpt>
      <trkpt lat="44.27264" lon="5.56075">
        <ele>1357.5999755859</ele>
        <time>2021-09-25T09:53:39.000Z</time>
      </trkpt>
      <trkpt lat="44.27265" lon="5.56074">
        <ele>1357.5999755859</ele>
        <time>2021-09-25T09:53:44.000Z</time>
      </trkpt>
      <trkpt lat="44.27267" lon="5.56074">
        <ele>1358.5999755859</ele>
        <time>2021-09-25T09:53:49.000Z</time>
      </trkpt>
      <trkpt lat="44.27268" lon="5.56074">
        <ele>1358.5999755859</ele>
        <time>2021-09-25T09:53:50.000Z</time>
      </trkpt>
      <trkpt lat="44.27268" lon="5.56074">
        <ele>1359.1999511719</ele>
        <time>2021-09-25T09:53:52.000Z</time>
      </trkpt>
      <trkpt lat="44.27268" lon="5.56075">
        <ele>1359.5999755859</ele>
        <time>2021-09-25T09:53:54.000Z</time>
      </trkpt>
      <trkpt lat="44.27268" lon="5.56075">
        <ele>1359.8000488281</ele>
        <time>2021-09-25T09:53:55.000Z</time>
      </trkpt>
      <trkpt lat="44.27267" lon="5.56075">
        <ele>1359.8000488281</ele>
        <time>2021-09-25T09:53:56.000Z</time>
      </trkpt>
      <trkpt lat="44.27266" lon="5.56075">
        <ele>1359.8000488281</ele>
        <time>2021-09-25T09:53:57.000Z</time>
      </trkpt>
      <trkpt lat="44.27266" lon="5.56076">
        <ele>1360</ele>
        <time>2021-09-25T09:53:58.000Z</time>
      </trkpt>
      <trkpt lat="44.27265" lon="5.56077">
        <ele>1360.1999511719</ele>
        <time>2021-09-25T09:54:00.000Z</time>
      </trkpt>
      <trkpt lat="44.27264" lon="5.56077">
        <ele>1360.5999755859</ele>
        <time>2021-09-25T09:54:02.000Z</time>
      </trkpt>
      <trkpt lat="44.27264" lon="5.56077">
        <ele>1360.8000488281</ele>
        <time>2021-09-25T09:54:03.000Z</time>
      </trkpt>
      <trkpt lat="44.27262" lon="5.56077">
        <ele>1361</ele>
        <time>2021-09-25T09:54:07.000Z</time>
      </trkpt>
      <trkpt lat="44.27262" lon="5.56081">
        <ele>1361</ele>
        <time>2021-09-25T09:54:12.000Z</time>
      </trkpt>
      <trkpt lat="44.27262" lon="5.56081">
        <ele>1361.1999511719</ele>
        <time>2021-09-25T09:54:13.000Z</time>
      </trkpt>
      <trkpt lat="44.27263" lon="5.56082">
        <ele>1361.4000244141</ele>
        <time>2021-09-25T09:54:15.000Z</time>
      </trkpt>
      <trkpt lat="44.27263" lon="5.56083">
        <ele>1361.8000488281</ele>
        <time>2021-09-25T09:54:18.000Z</time>
      </trkpt>
      <trkpt lat="44.27264" lon="5.56084">
        <ele>1362.1999511719</ele>
        <time>2021-09-25T09:54:20.000Z</time>
      </trkpt>
      <trkpt lat="44.27263" lon="5.56085">
        <ele>1362.4000244141</ele>
        <time>2021-09-25T09:54:24.000Z</time>
      </trkpt>
      <trkpt lat="44.27264" lon="5.56084">
        <ele>1362.5999755859</ele>
        <time>2021-09-25T09:54:27.000Z</time>
      </trkpt>
      <trkpt lat="44.27264" lon="5.56084">
        <ele>1363</ele>
        <time>2021-09-25T09:54:30.000Z</time>
      </trkpt>
      <trkpt lat="44.27264" lon="5.56082">
        <ele>1363.1999511719</ele>
        <time>2021-09-25T09:54:37.000Z</time>
      </trkpt>
      <trkpt lat="44.27265" lon="5.56082">
        <ele>1363.4000244141</ele>
        <time>2021-09-25T09:54:39.000Z</time>
      </trkpt>
      <trkpt lat="44.27262" lon="5.56084">
        <ele>1363.4000244141</ele>
        <time>2021-09-25T09:54:45.000Z</time>
      </trkpt>
      <trkpt lat="44.27262" lon="5.56086">
        <ele>1363.5999755859</ele>
        <time>2021-09-25T09:54:47.000Z</time>
      </trkpt>
      <trkpt lat="44.2726" lon="5.56088">
        <ele>1364</ele>
        <time>2021-09-25T09:54:50.000Z</time>
      </trkpt>
      <trkpt lat="44.27259" lon="5.56089">
        <ele>1364</ele>
        <time>2021-09-25T09:54:51.000Z</time>
      </trkpt>
      <trkpt lat="44.27258" lon="5.56089">
        <ele>1364.1999511719</ele>
        <time>2021-09-25T09:54:52.000Z</time>
      </trkpt>
      <trkpt lat="44.27257" lon="5.5609">
        <ele>1364.1999511719</ele>
        <time>2021-09-25T09:54:54.000Z</time>
      </trkpt>
      <trkpt lat="44.27254" lon="5.56092">
        <ele>1364.1999511719</ele>
        <time>2021-09-25T09:54:58.000Z</time>
      </trkpt>
      <trkpt lat="44.27252" lon="5.56092">
        <ele>1364.1999511719</ele>
        <time>2021-09-25T09:55:00.000Z</time>
      </trkpt>
      <trkpt lat="44.27246" lon="5.56096">
        <ele>1364</ele>
        <time>2021-09-25T09:55:08.000Z</time>
      </trkpt>
      <trkpt lat="44.27245" lon="5.56099">
        <ele>1364</ele>
        <time>2021-09-25T09:55:11.000Z</time>
      </trkpt>
      <trkpt lat="44.27242" lon="5.56102">
        <ele>1363.8000488281</ele>
        <time>2021-09-25T09:55:15.000Z</time>
      </trkpt>
      <trkpt lat="44.27241" lon="5.56102">
        <ele>1363.8000488281</ele>
        <time>2021-09-25T09:55:16.000Z</time>
      </trkpt>
      <trkpt lat="44.27239" lon="5.56106">
        <ele>1363.5999755859</ele>
        <time>2021-09-25T09:55:20.000Z</time>
      </trkpt>
      <trkpt lat="44.27237" lon="5.56107">
        <ele>1363.5999755859</ele>
        <time>2021-09-25T09:55:22.000Z</time>
      </trkpt>
      <trkpt lat="44.27235" lon="5.5611">
        <ele>1363.8000488281</ele>
        <time>2021-09-25T09:55:25.000Z</time>
      </trkpt>
      <trkpt lat="44.27234" lon="5.56112">
        <ele>1363.8000488281</ele>
        <time>2021-09-25T09:55:27.000Z</time>
      </trkpt>
      <trkpt lat="44.27231" lon="5.56114">
        <ele>1363.8000488281</ele>
        <time>2021-09-25T09:55:30.000Z</time>
      </trkpt>
      <trkpt lat="44.27225" lon="5.56118">
        <ele>1363.5999755859</ele>
        <time>2021-09-25T09:55:38.000Z</time>
      </trkpt>
      <trkpt lat="44.27224" lon="5.5612">
        <ele>1363.8000488281</ele>
        <time>2021-09-25T09:55:41.000Z</time>
      </trkpt>
      <trkpt lat="44.27222" lon="5.56121">
        <ele>1363.8000488281</ele>
        <time>2021-09-25T09:55:44.000Z</time>
      </trkpt>
      <trkpt lat="44.27222" lon="5.56121">
        <ele>1363.8000488281</ele>
        <time>2021-09-25T09:55:45.000Z</time>
      </trkpt>
      <trkpt lat="44.27219" lon="5.56123">
        <ele>1364</ele>
        <time>2021-09-25T09:55:49.000Z</time>
      </trkpt>
      <trkpt lat="44.27218" lon="5.56125">
        <ele>1364</ele>
        <time>2021-09-25T09:55:51.000Z</time>
      </trkpt>
      <trkpt lat="44.27214" lon="5.56129">
        <ele>1363.8000488281</ele>
        <time>2021-09-25T09:55:56.000Z</time>
      </trkpt>
      <trkpt lat="44.27212" lon="5.56131">
        <ele>1363.8000488281</ele>
        <time>2021-09-25T09:55:58.000Z</time>
      </trkpt>
      <trkpt lat="44.27211" lon="5.56131">
        <ele>1363.8000488281</ele>
        <time>2021-09-25T09:55:59.000Z</time>
      </trkpt>
      <trkpt lat="44.27206" lon="5.56135">
        <ele>1363.4000244141</ele>
        <time>2021-09-25T09:56:04.000Z</time>
      </trkpt>
      <trkpt lat="44.27205" lon="5.56135">
        <ele>1363.5999755859</ele>
        <time>2021-09-25T09:56:05.000Z</time>
      </trkpt>
      <trkpt lat="44.27203" lon="5.56137">
        <ele>1363.5999755859</ele>
        <time>2021-09-25T09:56:07.000Z</time>
      </trkpt>
      <trkpt lat="44.272" lon="5.5614">
        <ele>1363.8000488281</ele>
        <time>2021-09-25T09:56:11.000Z</time>
      </trkpt>
      <trkpt lat="44.27198" lon="5.56144">
        <ele>1363.8000488281</ele>
        <time>2021-09-25T09:56:15.000Z</time>
      </trkpt>
      <trkpt lat="44.27197" lon="5.56145">
        <ele>1364</ele>
        <time>2021-09-25T09:56:17.000Z</time>
      </trkpt>
      <trkpt lat="44.27197" lon="5.56149">
        <ele>1364.1999511719</ele>
        <time>2021-09-25T09:56:21.000Z</time>
      </trkpt>
      <trkpt lat="44.27196" lon="5.56152">
        <ele>1364.1999511719</ele>
        <time>2021-09-25T09:56:23.000Z</time>
      </trkpt>
      <trkpt lat="44.27196" lon="5.56153">
        <ele>1364.1999511719</ele>
        <time>2021-09-25T09:56:24.000Z</time>
      </trkpt>
      <trkpt lat="44.27194" lon="5.56156">
        <ele>1364.4000244141</ele>
        <time>2021-09-25T09:56:27.000Z</time>
      </trkpt>
      <trkpt lat="44.27193" lon="5.56158">
        <ele>1364.8000488281</ele>
        <time>2021-09-25T09:56:29.000Z</time>
      </trkpt>
      <trkpt lat="44.27192" lon="5.56159">
        <ele>1365</ele>
        <time>2021-09-25T09:56:30.000Z</time>
      </trkpt>
      <trkpt lat="44.27189" lon="5.56165">
        <ele>1365</ele>
        <time>2021-09-25T09:56:36.000Z</time>
      </trkpt>
      <trkpt lat="44.27186" lon="5.56171">
        <ele>1365.4000244141</ele>
        <time>2021-09-25T09:56:43.000Z</time>
      </trkpt>
      <trkpt lat="44.27185" lon="5.56173">
        <ele>1365.5999755859</ele>
        <time>2021-09-25T09:56:45.000Z</time>
      </trkpt>
      <trkpt lat="44.27182" lon="5.5618">
        <ele>1366</ele>
        <time>2021-09-25T09:56:50.000Z</time>
      </trkpt>
      <trkpt lat="44.27181" lon="5.56182">
        <ele>1366.1999511719</ele>
        <time>2021-09-25T09:56:52.000Z</time>
      </trkpt>
      <trkpt lat="44.27178" lon="5.56187">
        <ele>1366.4000244141</ele>
        <time>2021-09-25T09:56:57.000Z</time>
      </trkpt>
      <trkpt lat="44.27176" lon="5.56189">
        <ele>1366.5999755859</ele>
        <time>2021-09-25T09:57:01.000Z</time>
      </trkpt>
      <trkpt lat="44.27176" lon="5.56193">
        <ele>1366.8000488281</ele>
        <time>2021-09-25T09:57:05.000Z</time>
      </trkpt>
      <trkpt lat="44.27176" lon="5.56195">
        <ele>1367.1999511719</ele>
        <time>2021-09-25T09:57:07.000Z</time>
      </trkpt>
      <trkpt lat="44.27175" lon="5.56196">
        <ele>1367.1999511719</ele>
        <time>2021-09-25T09:57:08.000Z</time>
      </trkpt>
      <trkpt lat="44.27175" lon="5.56197">
        <ele>1367.4000244141</ele>
        <time>2021-09-25T09:57:09.000Z</time>
      </trkpt>
      <trkpt lat="44.27173" lon="5.56201">
        <ele>1367.5999755859</ele>
        <time>2021-09-25T09:57:12.000Z</time>
      </trkpt>
      <trkpt lat="44.27169" lon="5.56205">
        <ele>1367.8000488281</ele>
        <time>2021-09-25T09:57:19.000Z</time>
      </trkpt>
      <trkpt lat="44.27168" lon="5.56206">
        <ele>1367.8000488281</ele>
        <time>2021-09-25T09:57:20.000Z</time>
      </trkpt>
      <trkpt lat="44.27165" lon="5.56211">
        <ele>1368</ele>
        <time>2021-09-25T09:57:25.000Z</time>
      </trkpt>
      <trkpt lat="44.27165" lon="5.56212">
        <ele>1368.1999511719</ele>
        <time>2021-09-25T09:57:26.000Z</time>
      </trkpt>
      <trkpt lat="44.27165" lon="5.56213">
        <ele>1368.4000244141</ele>
        <time>2021-09-25T09:57:27.000Z</time>
      </trkpt>
      <trkpt lat="44.27162" lon="5.56215">
        <ele>1368.5999755859</ele>
        <time>2021-09-25T09:57:30.000Z</time>
      </trkpt>
      <trkpt lat="44.2716" lon="5.56216">
        <ele>1368.8000488281</ele>
        <time>2021-09-25T09:57:32.000Z</time>
      </trkpt>
      <trkpt lat="44.27156" lon="5.56221">
        <ele>1368.8000488281</ele>
        <time>2021-09-25T09:57:38.000Z</time>
      </trkpt>
      <trkpt lat="44.27154" lon="5.56224">
        <ele>1369.1999511719</ele>
        <time>2021-09-25T09:57:42.000Z</time>
      </trkpt>
      <trkpt lat="44.27153" lon="5.56225">
        <ele>1369.1999511719</ele>
        <time>2021-09-25T09:57:43.000Z</time>
      </trkpt>
      <trkpt lat="44.27152" lon="5.56229">
        <ele>1369.5999755859</ele>
        <time>2021-09-25T09:57:46.000Z</time>
      </trkpt>
      <trkpt lat="44.2715" lon="5.56231">
        <ele>1369.8000488281</ele>
        <time>2021-09-25T09:57:48.000Z</time>
      </trkpt>
      <trkpt lat="44.27149" lon="5.56235">
        <ele>1370</ele>
        <time>2021-09-25T09:57:52.000Z</time>
      </trkpt>
      <trkpt lat="44.27148" lon="5.56235">
        <ele>1370.1999511719</ele>
        <time>2021-09-25T09:57:53.000Z</time>
      </trkpt>
      <trkpt lat="44.27147" lon="5.56236">
        <ele>1370.4000244141</ele>
        <time>2021-09-25T09:57:54.000Z</time>
      </trkpt>
      <trkpt lat="44.27147" lon="5.56237">
        <ele>1370.5999755859</ele>
        <time>2021-09-25T09:57:55.000Z</time>
      </trkpt>
      <trkpt lat="44.27147" lon="5.56238">
        <ele>1370.8000488281</ele>
        <time>2021-09-25T09:57:56.000Z</time>
      </trkpt>
      <trkpt lat="44.27145" lon="5.56242">
        <ele>1371.4000244141</ele>
        <time>2021-09-25T09:58:00.000Z</time>
      </trkpt>
      <trkpt lat="44.27144" lon="5.56243">
        <ele>1371.5999755859</ele>
        <time>2021-09-25T09:58:01.000Z</time>
      </trkpt>
      <trkpt lat="44.27141" lon="5.56246">
        <ele>1371.4000244141</ele>
        <time>2021-09-25T09:58:07.000Z</time>
      </trkpt>
      <trkpt lat="44.2714" lon="5.56248">
        <ele>1371.5999755859</ele>
        <time>2021-09-25T09:58:09.000Z</time>
      </trkpt>
      <trkpt lat="44.2714" lon="5.56249">
        <ele>1372</ele>
        <time>2021-09-25T09:58:11.000Z</time>
      </trkpt>
      <trkpt lat="44.27139" lon="5.5625">
        <ele>1372.1999511719</ele>
        <time>2021-09-25T09:58:13.000Z</time>
      </trkpt>
      <trkpt lat="44.27138" lon="5.56251">
        <ele>1372.4000244141</ele>
        <time>2021-09-25T09:58:14.000Z</time>
      </trkpt>
      <trkpt lat="44.27137" lon="5.56251">
        <ele>1372.5999755859</ele>
        <time>2021-09-25T09:58:15.000Z</time>
      </trkpt>
      <trkpt lat="44.27136" lon="5.56253">
        <ele>1373</ele>
        <time>2021-09-25T09:58:18.000Z</time>
      </trkpt>
      <trkpt lat="44.27135" lon="5.56255">
        <ele>1373.1999511719</ele>
        <time>2021-09-25T09:58:20.000Z</time>
      </trkpt>
      <trkpt lat="44.27134" lon="5.56256">
        <ele>1373.4000244141</ele>
        <time>2021-09-25T09:58:21.000Z</time>
      </trkpt>
      <trkpt lat="44.27134" lon="5.56256">
        <ele>1373.4000244141</ele>
        <time>2021-09-25T09:58:22.000Z</time>
      </trkpt>
      <trkpt lat="44.27132" lon="5.56258">
        <ele>1373.5999755859</ele>
        <time>2021-09-25T09:58:24.000Z</time>
      </trkpt>
      <trkpt lat="44.27132" lon="5.56258">
        <ele>1373.5999755859</ele>
        <time>2021-09-25T09:58:25.000Z</time>
      </trkpt>
      <trkpt lat="44.27131" lon="5.56259">
        <ele>1373.5999755859</ele>
        <time>2021-09-25T09:58:26.000Z</time>
      </trkpt>
      <trkpt lat="44.2713" lon="5.56259">
        <ele>1373.5999755859</ele>
        <time>2021-09-25T09:58:27.000Z</time>
      </trkpt>
      <trkpt lat="44.27129" lon="5.56261">
        <ele>1373.5999755859</ele>
        <time>2021-09-25T09:58:29.000Z</time>
      </trkpt>
      <trkpt lat="44.27128" lon="5.56263">
        <ele>1374</ele>
        <time>2021-09-25T09:58:31.000Z</time>
      </trkpt>
      <trkpt lat="44.27128" lon="5.56264">
        <ele>1374</ele>
        <time>2021-09-25T09:58:32.000Z</time>
      </trkpt>
      <trkpt lat="44.27127" lon="5.56264">
        <ele>1374.4000244141</ele>
        <time>2021-09-25T09:58:33.000Z</time>
      </trkpt>
      <trkpt lat="44.27126" lon="5.56265">
        <ele>1374.5999755859</ele>
        <time>2021-09-25T09:58:34.000Z</time>
      </trkpt>
      <trkpt lat="44.27126" lon="5.56266">
        <ele>1374.8000488281</ele>
        <time>2021-09-25T09:58:35.000Z</time>
      </trkpt>
      <trkpt lat="44.27125" lon="5.56266">
        <ele>1375</ele>
        <time>2021-09-25T09:58:36.000Z</time>
      </trkpt>
      <trkpt lat="44.27124" lon="5.56267">
        <ele>1375.4000244141</ele>
        <time>2021-09-25T09:58:38.000Z</time>
      </trkpt>
      <trkpt lat="44.27122" lon="5.56268">
        <ele>1375.8000488281</ele>
        <time>2021-09-25T09:58:40.000Z</time>
      </trkpt>
      <trkpt lat="44.27121" lon="5.56268">
        <ele>1376</ele>
        <time>2021-09-25T09:58:41.000Z</time>
      </trkpt>
      <trkpt lat="44.2712" lon="5.56268">
        <ele>1376</ele>
        <time>2021-09-25T09:58:42.000Z</time>
      </trkpt>
      <trkpt lat="44.27116" lon="5.56274">
        <ele>1376.1999511719</ele>
        <time>2021-09-25T09:58:49.000Z</time>
      </trkpt>
      <trkpt lat="44.27115" lon="5.56275">
        <ele>1376.8000488281</ele>
        <time>2021-09-25T09:58:51.000Z</time>
      </trkpt>
      <trkpt lat="44.27113" lon="5.56278">
        <ele>1377.4000244141</ele>
        <time>2021-09-25T09:58:56.000Z</time>
      </trkpt>
      <trkpt lat="44.27111" lon="5.5628">
        <ele>1377.8000488281</ele>
        <time>2021-09-25T09:59:00.000Z</time>
      </trkpt>
      <trkpt lat="44.27108" lon="5.56283">
        <ele>1378.4000244141</ele>
        <time>2021-09-25T09:59:04.000Z</time>
      </trkpt>
      <trkpt lat="44.27106" lon="5.56286">
        <ele>1378.8000488281</ele>
        <time>2021-09-25T09:59:07.000Z</time>
      </trkpt>
      <trkpt lat="44.27106" lon="5.56287">
        <ele>1378.8000488281</ele>
        <time>2021-09-25T09:59:08.000Z</time>
      </trkpt>
      <trkpt lat="44.27105" lon="5.56289">
        <ele>1379.1999511719</ele>
        <time>2021-09-25T09:59:11.000Z</time>
      </trkpt>
      <trkpt lat="44.27101" lon="5.56294">
        <ele>1379.5999755859</ele>
        <time>2021-09-25T09:59:18.000Z</time>
      </trkpt>
      <trkpt lat="44.271" lon="5.56296">
        <ele>1379.8000488281</ele>
        <time>2021-09-25T09:59:20.000Z</time>
      </trkpt>
      <trkpt lat="44.27099" lon="5.56297">
        <ele>1380.1999511719</ele>
        <time>2021-09-25T09:59:22.000Z</time>
      </trkpt>
      <trkpt lat="44.27097" lon="5.56299">
        <ele>1380.4000244141</ele>
        <time>2021-09-25T09:59:25.000Z</time>
      </trkpt>
      <trkpt lat="44.27094" lon="5.56305">
        <ele>1380.4000244141</ele>
        <time>2021-09-25T09:59:33.000Z</time>
      </trkpt>
      <trkpt lat="44.27092" lon="5.56308">
        <ele>1380.5999755859</ele>
        <time>2021-09-25T09:59:36.000Z</time>
      </trkpt>
      <trkpt lat="44.27091" lon="5.56309">
        <ele>1380.5999755859</ele>
        <time>2021-09-25T09:59:37.000Z</time>
      </trkpt>
      <trkpt lat="44.2709" lon="5.56311">
        <ele>1381</ele>
        <time>2021-09-25T09:59:40.000Z</time>
      </trkpt>
      <trkpt lat="44.27088" lon="5.56312">
        <ele>1381</ele>
        <time>2021-09-25T09:59:42.000Z</time>
      </trkpt>
      <trkpt lat="44.27085" lon="5.56315">
        <ele>1381.1999511719</ele>
        <time>2021-09-25T09:59:46.000Z</time>
      </trkpt>
      <trkpt lat="44.27084" lon="5.56316">
        <ele>1381.4000244141</ele>
        <time>2021-09-25T09:59:48.000Z</time>
      </trkpt>
      <trkpt lat="44.27083" lon="5.56317">
        <ele>1381.5999755859</ele>
        <time>2021-09-25T09:59:49.000Z</time>
      </trkpt>
      <trkpt lat="44.2708" lon="5.56319">
        <ele>1382.1999511719</ele>
        <time>2021-09-25T09:59:54.000Z</time>
      </trkpt>
      <trkpt lat="44.2708" lon="5.5632">
        <ele>1382.1999511719</ele>
        <time>2021-09-25T09:59:55.000Z</time>
      </trkpt>
      <trkpt lat="44.2708" lon="5.56321">
        <ele>1382.1999511719</ele>
        <time>2021-09-25T09:59:56.000Z</time>
      </trkpt>
      <trkpt lat="44.27079" lon="5.56321">
        <ele>1382.1999511719</ele>
        <time>2021-09-25T09:59:57.000Z</time>
      </trkpt>
      <trkpt lat="44.27078" lon="5.56325">
        <ele>1382.4000244141</ele>
        <time>2021-09-25T10:00:01.000Z</time>
      </trkpt>
      <trkpt lat="44.27074" lon="5.5633">
        <ele>1382.5999755859</ele>
        <time>2021-09-25T10:00:07.000Z</time>
      </trkpt>
      <trkpt lat="44.27072" lon="5.56333">
        <ele>1383.1999511719</ele>
        <time>2021-09-25T10:00:12.000Z</time>
      </trkpt>
      <trkpt lat="44.27071" lon="5.56333">
        <ele>1383.4000244141</ele>
        <time>2021-09-25T10:00:13.000Z</time>
      </trkpt>
      <trkpt lat="44.27069" lon="5.56336">
        <ele>1383.8000488281</ele>
        <time>2021-09-25T10:00:17.000Z</time>
      </trkpt>
      <trkpt lat="44.27066" lon="5.56339">
        <ele>1384</ele>
        <time>2021-09-25T10:00:21.000Z</time>
      </trkpt>
      <trkpt lat="44.27065" lon="5.5634">
        <ele>1384.4000244141</ele>
        <time>2021-09-25T10:00:23.000Z</time>
      </trkpt>
      <trkpt lat="44.27063" lon="5.56345">
        <ele>1384.5999755859</ele>
        <time>2021-09-25T10:00:28.000Z</time>
      </trkpt>
      <trkpt lat="44.27062" lon="5.56346">
        <ele>1384.8000488281</ele>
        <time>2021-09-25T10:00:30.000Z</time>
      </trkpt>
      <trkpt lat="44.2706" lon="5.56348">
        <ele>1385</ele>
        <time>2021-09-25T10:00:32.000Z</time>
      </trkpt>
      <trkpt lat="44.27058" lon="5.5635">
        <ele>1385.4000244141</ele>
        <time>2021-09-25T10:00:35.000Z</time>
      </trkpt>
      <trkpt lat="44.27057" lon="5.56352">
        <ele>1385.8000488281</ele>
        <time>2021-09-25T10:00:38.000Z</time>
      </trkpt>
      <trkpt lat="44.27057" lon="5.56353">
        <ele>1386</ele>
        <time>2021-09-25T10:00:40.000Z</time>
      </trkpt>
      <trkpt lat="44.27055" lon="5.56356">
        <ele>1386.5999755859</ele>
        <time>2021-09-25T10:00:43.000Z</time>
      </trkpt>
      <trkpt lat="44.27054" lon="5.56357">
        <ele>1387</ele>
        <time>2021-09-25T10:00:46.000Z</time>
      </trkpt>
      <trkpt lat="44.2705" lon="5.56366">
        <ele>1387.5999755859</ele>
        <time>2021-09-25T10:00:55.000Z</time>
      </trkpt>
      <trkpt lat="44.27049" lon="5.56368">
        <ele>1388</ele>
        <time>2021-09-25T10:00:59.000Z</time>
      </trkpt>
      <trkpt lat="44.27049" lon="5.56369">
        <ele>1388</ele>
        <time>2021-09-25T10:01:01.000Z</time>
      </trkpt>
      <trkpt lat="44.27047" lon="5.5637">
        <ele>1388.8000488281</ele>
        <time>2021-09-25T10:01:07.000Z</time>
      </trkpt>
      <trkpt lat="44.27047" lon="5.5637">
        <ele>1388.8000488281</ele>
        <time>2021-09-25T10:01:08.000Z</time>
      </trkpt>
      <trkpt lat="44.27045" lon="5.56375">
        <ele>1389</ele>
        <time>2021-09-25T10:01:15.000Z</time>
      </trkpt>
      <trkpt lat="44.27043" lon="5.56379">
        <ele>1389.4000244141</ele>
        <time>2021-09-25T10:01:21.000Z</time>
      </trkpt>
      <trkpt lat="44.27042" lon="5.5638">
        <ele>1389.4000244141</ele>
        <time>2021-09-25T10:01:22.000Z</time>
      </trkpt>
      <trkpt lat="44.27041" lon="5.56381">
        <ele>1389.5999755859</ele>
        <time>2021-09-25T10:01:24.000Z</time>
      </trkpt>
      <trkpt lat="44.2704" lon="5.56385">
        <ele>1389.8000488281</ele>
        <time>2021-09-25T10:01:28.000Z</time>
      </trkpt>
      <trkpt lat="44.27039" lon="5.56386">
        <ele>1389.8000488281</ele>
        <time>2021-09-25T10:01:29.000Z</time>
      </trkpt>
      <trkpt lat="44.27039" lon="5.56386">
        <ele>1390</ele>
        <time>2021-09-25T10:01:30.000Z</time>
      </trkpt>
      <trkpt lat="44.27037" lon="5.56386">
        <ele>1390.1999511719</ele>
        <time>2021-09-25T10:01:34.000Z</time>
      </trkpt>
      <trkpt lat="44.27037" lon="5.56386">
        <ele>1390.4000244141</ele>
        <time>2021-09-25T10:01:36.000Z</time>
      </trkpt>
      <trkpt lat="44.27037" lon="5.56386">
        <ele>1390.5999755859</ele>
        <time>2021-09-25T10:01:39.000Z</time>
      </trkpt>
      <trkpt lat="44.27037" lon="5.56386">
        <ele>1390.5999755859</ele>
        <time>2021-09-25T10:01:40.000Z</time>
      </trkpt>
      <trkpt lat="44.27037" lon="5.56386">
        <ele>1390.5999755859</ele>
        <time>2021-09-25T10:01:41.000Z</time>
      </trkpt>
      <trkpt lat="44.27037" lon="5.56386">
        <ele>1390.4000244141</ele>
        <time>2021-09-25T10:01:44.000Z</time>
      </trkpt>
      <trkpt lat="44.27037" lon="5.56384">
        <ele>1389.5999755859</ele>
        <time>2021-09-25T10:01:52.000Z</time>
      </trkpt>
      <trkpt lat="44.27036" lon="5.56384">
        <ele>1389.4000244141</ele>
        <time>2021-09-25T10:01:54.000Z</time>
      </trkpt>
      <trkpt lat="44.27036" lon="5.56384">
        <ele>1389.5999755859</ele>
        <time>2021-09-25T10:02:00.000Z</time>
      </trkpt>
      <trkpt lat="44.27036" lon="5.56385">
        <ele>1389.5999755859</ele>
        <time>2021-09-25T10:02:01.000Z</time>
      </trkpt>
      <trkpt lat="44.27034" lon="5.56387">
        <ele>1389.5999755859</ele>
        <time>2021-09-25T10:02:07.000Z</time>
      </trkpt>
      <trkpt lat="44.27034" lon="5.56388">
        <ele>1389.5999755859</ele>
        <time>2021-09-25T10:02:08.000Z</time>
      </trkpt>
      <trkpt lat="44.27031" lon="5.56392">
        <ele>1389.4000244141</ele>
        <time>2021-09-25T10:02:12.000Z</time>
      </trkpt>
      <trkpt lat="44.27029" lon="5.56394">
        <ele>1389.4000244141</ele>
        <time>2021-09-25T10:02:15.000Z</time>
      </trkpt>
      <trkpt lat="44.27029" lon="5.56394">
        <ele>1389.1999511719</ele>
        <time>2021-09-25T10:02:17.000Z</time>
      </trkpt>
      <trkpt lat="44.2703" lon="5.56394">
        <ele>1389.1999511719</ele>
        <time>2021-09-25T10:02:21.000Z</time>
      </trkpt>
      <trkpt lat="44.27029" lon="5.56392">
        <ele>1389.1999511719</ele>
        <time>2021-09-25T10:02:28.000Z</time>
      </trkpt>
      <trkpt lat="44.27029" lon="5.5639">
        <ele>1389.1999511719</ele>
        <time>2021-09-25T10:02:36.000Z</time>
      </trkpt>
      <trkpt lat="44.2703" lon="5.56392">
        <ele>1390</ele>
        <time>2021-09-25T10:02:45.000Z</time>
      </trkpt>
      <trkpt lat="44.27032" lon="5.56393">
        <ele>1390</ele>
        <time>2021-09-25T10:02:48.000Z</time>
      </trkpt>
      <trkpt lat="44.27034" lon="5.56395">
        <ele>1390</ele>
        <time>2021-09-25T10:02:54.000Z</time>
      </trkpt>
      <trkpt lat="44.27035" lon="5.56395">
        <ele>1390</ele>
        <time>2021-09-25T10:03:00.000Z</time>
      </trkpt>
      <trkpt lat="44.27035" lon="5.56394">
        <ele>1390</ele>
        <time>2021-09-25T10:03:01.000Z</time>
      </trkpt>
      <trkpt lat="44.27033" lon="5.56391">
        <ele>1390</ele>
        <time>2021-09-25T10:03:03.000Z</time>
      </trkpt>
      <trkpt lat="44.27032" lon="5.5639">
        <ele>1390</ele>
        <time>2021-09-25T10:03:04.000Z</time>
      </trkpt>
      <trkpt lat="44.27031" lon="5.5639">
        <ele>1390</ele>
        <time>2021-09-25T10:03:10.000Z</time>
      </trkpt>
      <trkpt lat="44.2703" lon="5.5639">
        <ele>1390</ele>
        <time>2021-09-25T10:03:18.000Z</time>
      </trkpt>
      <trkpt lat="44.27028" lon="5.56393">
        <ele>1390</ele>
        <time>2021-09-25T10:03:24.000Z</time>
      </trkpt>
      <trkpt lat="44.27027" lon="5.56393">
        <ele>1390</ele>
        <time>2021-09-25T10:03:26.000Z</time>
      </trkpt>
      <trkpt lat="44.27027" lon="5.56393">
        <ele>1390</ele>
        <time>2021-09-25T10:03:27.000Z</time>
      </trkpt>
      <trkpt lat="44.27027" lon="5.56396">
        <ele>1390</ele>
        <time>2021-09-25T10:03:30.000Z</time>
      </trkpt>
      <trkpt lat="44.27027" lon="5.56397">
        <ele>1390</ele>
        <time>2021-09-25T10:03:31.000Z</time>
      </trkpt>
      <trkpt lat="44.27028" lon="5.56397">
        <ele>1390</ele>
        <time>2021-09-25T10:03:32.000Z</time>
      </trkpt>
      <trkpt lat="44.27026" lon="5.56401">
        <ele>1390</ele>
        <time>2021-09-25T10:03:36.000Z</time>
      </trkpt>
      <trkpt lat="44.27025" lon="5.56401">
        <ele>1390</ele>
        <time>2021-09-25T10:03:38.000Z</time>
      </trkpt>
      <trkpt lat="44.27021" lon="5.56404">
        <ele>1390</ele>
        <time>2021-09-25T10:03:43.000Z</time>
      </trkpt>
      <trkpt lat="44.27021" lon="5.56404">
        <ele>1390</ele>
        <time>2021-09-25T10:03:44.000Z</time>
      </trkpt>
      <trkpt lat="44.27021" lon="5.56404">
        <ele>1390</ele>
        <time>2021-09-25T10:03:45.000Z</time>
      </trkpt>
      <trkpt lat="44.27022" lon="5.56404">
        <ele>1390.4000244141</ele>
        <time>2021-09-25T10:03:47.000Z</time>
      </trkpt>
      <trkpt lat="44.27022" lon="5.56403">
        <ele>1390.8000488281</ele>
        <time>2021-09-25T10:03:49.000Z</time>
      </trkpt>
      <trkpt lat="44.27022" lon="5.56403">
        <ele>1391</ele>
        <time>2021-09-25T10:03:50.000Z</time>
      </trkpt>
      <trkpt lat="44.27021" lon="5.56405">
        <ele>1391.5999755859</ele>
        <time>2021-09-25T10:03:55.000Z</time>
      </trkpt>
      <trkpt lat="44.2702" lon="5.56407">
        <ele>1391.8000488281</ele>
        <time>2021-09-25T10:04:05.000Z</time>
      </trkpt>
      <trkpt lat="44.27019" lon="5.56406">
        <ele>1391.8000488281</ele>
        <time>2021-09-25T10:04:11.000Z</time>
      </trkpt>
      <trkpt lat="44.27019" lon="5.56407">
        <ele>1391.8000488281</ele>
        <time>2021-09-25T10:04:13.000Z</time>
      </trkpt>
      <trkpt lat="44.27018" lon="5.56409">
        <ele>1391.8000488281</ele>
        <time>2021-09-25T10:04:22.000Z</time>
      </trkpt>
      <trkpt lat="44.27018" lon="5.56411">
        <ele>1392</ele>
        <time>2021-09-25T10:04:27.000Z</time>
      </trkpt>
      <trkpt lat="44.27018" lon="5.56412">
        <ele>1392</ele>
        <time>2021-09-25T10:04:29.000Z</time>
      </trkpt>
      <trkpt lat="44.27017" lon="5.56412">
        <ele>1391.8000488281</ele>
        <time>2021-09-25T10:04:35.000Z</time>
      </trkpt>
      <trkpt lat="44.27017" lon="5.56412">
        <ele>1392</ele>
        <time>2021-09-25T10:04:37.000Z</time>
      </trkpt>
      <trkpt lat="44.27016" lon="5.56413">
        <ele>1392</ele>
        <time>2021-09-25T10:04:39.000Z</time>
      </trkpt>
      <trkpt lat="44.27013" lon="5.5642">
        <ele>1393.1999511719</ele>
        <time>2021-09-25T10:04:44.000Z</time>
      </trkpt>
      <trkpt lat="44.2701" lon="5.56424">
        <ele>1394.1999511719</ele>
        <time>2021-09-25T10:04:48.000Z</time>
      </trkpt>
      <trkpt lat="44.27009" lon="5.56426">
        <ele>1394.8000488281</ele>
        <time>2021-09-25T10:04:50.000Z</time>
      </trkpt>
      <trkpt lat="44.2701" lon="5.56429">
        <ele>1395</ele>
        <time>2021-09-25T10:04:56.000Z</time>
      </trkpt>
      <trkpt lat="44.27009" lon="5.56429">
        <ele>1395.1999511719</ele>
        <time>2021-09-25T10:05:01.000Z</time>
      </trkpt>
      <trkpt lat="44.27009" lon="5.5643">
        <ele>1395.4000244141</ele>
        <time>2021-09-25T10:05:02.000Z</time>
      </trkpt>
      <trkpt lat="44.27008" lon="5.56432">
        <ele>1396</ele>
        <time>2021-09-25T10:05:05.000Z</time>
      </trkpt>
      <trkpt lat="44.27006" lon="5.56434">
        <ele>1396.4000244141</ele>
        <time>2021-09-25T10:05:07.000Z</time>
      </trkpt>
      <trkpt lat="44.27004" lon="5.56437">
        <ele>1397</ele>
        <time>2021-09-25T10:05:11.000Z</time>
      </trkpt>
      <trkpt lat="44.27002" lon="5.56441">
        <ele>1397.5999755859</ele>
        <time>2021-09-25T10:05:16.000Z</time>
      </trkpt>
      <trkpt lat="44.27002" lon="5.56442">
        <ele>1397.8000488281</ele>
        <time>2021-09-25T10:05:18.000Z</time>
      </trkpt>
      <trkpt lat="44.27001" lon="5.56441">
        <ele>1398</ele>
        <time>2021-09-25T10:05:19.000Z</time>
      </trkpt>
      <trkpt lat="44.27001" lon="5.56442">
        <ele>1398</ele>
        <time>2021-09-25T10:05:20.000Z</time>
      </trkpt>
      <trkpt lat="44.27001" lon="5.56442">
        <ele>1397.8000488281</ele>
        <time>2021-09-25T10:05:21.000Z</time>
      </trkpt>
      <trkpt lat="44.27001" lon="5.56442">
        <ele>1397.5999755859</ele>
        <time>2021-09-25T10:05:22.000Z</time>
      </trkpt>
      <trkpt lat="44.27001" lon="5.56441">
        <ele>1397.5999755859</ele>
        <time>2021-09-25T10:05:23.000Z</time>
      </trkpt>
      <trkpt lat="44.27001" lon="5.56441">
        <ele>1397.5999755859</ele>
        <time>2021-09-25T10:05:24.000Z</time>
      </trkpt>
      <trkpt lat="44.27001" lon="5.56441">
        <ele>1397.5999755859</ele>
        <time>2021-09-25T10:05:25.000Z</time>
      </trkpt>
      <trkpt lat="44.27001" lon="5.56441">
        <ele>1397.5999755859</ele>
        <time>2021-09-25T10:05:26.000Z</time>
      </trkpt>
      <trkpt lat="44.26999" lon="5.56441">
        <ele>1397.5999755859</ele>
        <time>2021-09-25T10:05:28.000Z</time>
      </trkpt>
      <trkpt lat="44.26998" lon="5.56442">
        <ele>1397.5999755859</ele>
        <time>2021-09-25T10:05:30.000Z</time>
      </trkpt>
      <trkpt lat="44.26997" lon="5.56442">
        <ele>1397.5999755859</ele>
        <time>2021-09-25T10:05:31.000Z</time>
      </trkpt>
      <trkpt lat="44.26996" lon="5.56443">
        <ele>1397.5999755859</ele>
        <time>2021-09-25T10:05:32.000Z</time>
      </trkpt>
      <trkpt lat="44.26995" lon="5.56443">
        <ele>1397.5999755859</ele>
        <time>2021-09-25T10:05:33.000Z</time>
      </trkpt>
      <trkpt lat="44.26992" lon="5.56449">
        <ele>1398</ele>
        <time>2021-09-25T10:05:38.000Z</time>
      </trkpt>
      <trkpt lat="44.2699" lon="5.56452">
        <ele>1398.4000244141</ele>
        <time>2021-09-25T10:05:40.000Z</time>
      </trkpt>
      <trkpt lat="44.26988" lon="5.56454">
        <ele>1398.8000488281</ele>
        <time>2021-09-25T10:05:42.000Z</time>
      </trkpt>
      <trkpt lat="44.26985" lon="5.56457">
        <ele>1399.1999511719</ele>
        <time>2021-09-25T10:05:46.000Z</time>
      </trkpt>
      <trkpt lat="44.26985" lon="5.56457">
        <ele>1399.5999755859</ele>
        <time>2021-09-25T10:05:47.000Z</time>
      </trkpt>
      <trkpt lat="44.26985" lon="5.56458">
        <ele>1399.8000488281</ele>
        <time>2021-09-25T10:05:48.000Z</time>
      </trkpt>
      <trkpt lat="44.26985" lon="5.56459">
        <ele>1400</ele>
        <time>2021-09-25T10:05:49.000Z</time>
      </trkpt>
      <trkpt lat="44.26985" lon="5.5646">
        <ele>1400.1999511719</ele>
        <time>2021-09-25T10:05:51.000Z</time>
      </trkpt>
      <trkpt lat="44.26986" lon="5.56461">
        <ele>1400.4000244141</ele>
        <time>2021-09-25T10:05:54.000Z</time>
      </trkpt>
      <trkpt lat="44.26985" lon="5.56461">
        <ele>1400.4000244141</ele>
        <time>2021-09-25T10:05:56.000Z</time>
      </trkpt>
      <trkpt lat="44.26985" lon="5.56462">
        <ele>1400.4000244141</ele>
        <time>2021-09-25T10:06:00.000Z</time>
      </trkpt>
      <trkpt lat="44.26985" lon="5.56462">
        <ele>1400.4000244141</ele>
        <time>2021-09-25T10:06:04.000Z</time>
      </trkpt>
      <trkpt lat="44.26984" lon="5.56462">
        <ele>1400.4000244141</ele>
        <time>2021-09-25T10:06:06.000Z</time>
      </trkpt>
      <trkpt lat="44.26983" lon="5.56466">
        <ele>1401</ele>
        <time>2021-09-25T10:06:09.000Z</time>
      </trkpt>
      <trkpt lat="44.26983" lon="5.56467">
        <ele>1401.5999755859</ele>
        <time>2021-09-25T10:06:13.000Z</time>
      </trkpt>
      <trkpt lat="44.26982" lon="5.56468">
        <ele>1402.1999511719</ele>
        <time>2021-09-25T10:06:15.000Z</time>
      </trkpt>
      <trkpt lat="44.26982" lon="5.56468">
        <ele>1402</ele>
        <time>2021-09-25T10:06:16.000Z</time>
      </trkpt>
      <trkpt lat="44.26978" lon="5.56471">
        <ele>1402.4000244141</ele>
        <time>2021-09-25T10:06:21.000Z</time>
      </trkpt>
      <trkpt lat="44.26976" lon="5.56473">
        <ele>1402.5999755859</ele>
        <time>2021-09-25T10:06:23.000Z</time>
      </trkpt>
      <trkpt lat="44.26972" lon="5.56478">
        <ele>1403.1999511719</ele>
        <time>2021-09-25T10:06:28.000Z</time>
      </trkpt>
      <trkpt lat="44.2697" lon="5.56481">
        <ele>1403.5999755859</ele>
        <time>2021-09-25T10:06:31.000Z</time>
      </trkpt>
      <trkpt lat="44.26969" lon="5.56482">
        <ele>1403.5999755859</ele>
        <time>2021-09-25T10:06:32.000Z</time>
      </trkpt>
      <trkpt lat="44.26964" lon="5.56492">
        <ele>1403.5999755859</ele>
        <time>2021-09-25T10:06:41.000Z</time>
      </trkpt>
      <trkpt lat="44.26962" lon="5.56494">
        <ele>1403.5999755859</ele>
        <time>2021-09-25T10:06:43.000Z</time>
      </trkpt>
      <trkpt lat="44.2696" lon="5.56496">
        <ele>1403.5999755859</ele>
        <time>2021-09-25T10:06:46.000Z</time>
      </trkpt>
      <trkpt lat="44.26957" lon="5.56498">
        <ele>1404</ele>
        <time>2021-09-25T10:06:49.000Z</time>
      </trkpt>
      <trkpt lat="44.26952" lon="5.565">
        <ele>1404.1999511719</ele>
        <time>2021-09-25T10:06:54.000Z</time>
      </trkpt>
      <trkpt lat="44.26948" lon="5.56503">
        <ele>1404.4000244141</ele>
        <time>2021-09-25T10:06:58.000Z</time>
      </trkpt>
      <trkpt lat="44.26946" lon="5.56504">
        <ele>1404.5999755859</ele>
        <time>2021-09-25T10:07:00.000Z</time>
      </trkpt>
      <trkpt lat="44.26945" lon="5.56505">
        <ele>1404.1999511719</ele>
        <time>2021-09-25T10:07:01.000Z</time>
      </trkpt>
      <trkpt lat="44.26943" lon="5.56505">
        <ele>1404</ele>
        <time>2021-09-25T10:07:03.000Z</time>
      </trkpt>
      <trkpt lat="44.2694" lon="5.56506">
        <ele>1404</ele>
        <time>2021-09-25T10:07:06.000Z</time>
      </trkpt>
      <trkpt lat="44.26931" lon="5.56509">
        <ele>1405</ele>
        <time>2021-09-25T10:07:15.000Z</time>
      </trkpt>
      <trkpt lat="44.26929" lon="5.5651">
        <ele>1405.4000244141</ele>
        <time>2021-09-25T10:07:17.000Z</time>
      </trkpt>
      <trkpt lat="44.2692" lon="5.56516">
        <ele>1405.5999755859</ele>
        <time>2021-09-25T10:07:25.000Z</time>
      </trkpt>
      <trkpt lat="44.26918" lon="5.56519">
        <ele>1406</ele>
        <time>2021-09-25T10:07:28.000Z</time>
      </trkpt>
      <trkpt lat="44.26918" lon="5.56522">
        <ele>1406.4000244141</ele>
        <time>2021-09-25T10:07:30.000Z</time>
      </trkpt>
      <trkpt lat="44.26915" lon="5.56529">
        <ele>1407.5999755859</ele>
        <time>2021-09-25T10:07:35.000Z</time>
      </trkpt>
      <trkpt lat="44.26912" lon="5.56533">
        <ele>1408</ele>
        <time>2021-09-25T10:07:39.000Z</time>
      </trkpt>
      <trkpt lat="44.26911" lon="5.56534">
        <ele>1408</ele>
        <time>2021-09-25T10:07:40.000Z</time>
      </trkpt>
      <trkpt lat="44.2691" lon="5.56535">
        <ele>1408</ele>
        <time>2021-09-25T10:07:41.000Z</time>
      </trkpt>
      <trkpt lat="44.26909" lon="5.56537">
        <ele>1408.1999511719</ele>
        <time>2021-09-25T10:07:43.000Z</time>
      </trkpt>
      <trkpt lat="44.26909" lon="5.56537">
        <ele>1408.1999511719</ele>
        <time>2021-09-25T10:07:44.000Z</time>
      </trkpt>
      <trkpt lat="44.26909" lon="5.56537">
        <ele>1408.1999511719</ele>
        <time>2021-09-25T10:07:45.000Z</time>
      </trkpt>
      <trkpt lat="44.26908" lon="5.56538">
        <ele>1408.1999511719</ele>
        <time>2021-09-25T10:07:47.000Z</time>
      </trkpt>
      <trkpt lat="44.26907" lon="5.56538">
        <ele>1408.1999511719</ele>
        <time>2021-09-25T10:07:48.000Z</time>
      </trkpt>
      <trkpt lat="44.26906" lon="5.5654">
        <ele>1408.4000244141</ele>
        <time>2021-09-25T10:07:50.000Z</time>
      </trkpt>
      <trkpt lat="44.26905" lon="5.56541">
        <ele>1408.4000244141</ele>
        <time>2021-09-25T10:07:52.000Z</time>
      </trkpt>
      <trkpt lat="44.26903" lon="5.56544">
        <ele>1408.5999755859</ele>
        <time>2021-09-25T10:07:56.000Z</time>
      </trkpt>
      <trkpt lat="44.269" lon="5.56547">
        <ele>1408.8000488281</ele>
        <time>2021-09-25T10:08:00.000Z</time>
      </trkpt>
      <trkpt lat="44.26894" lon="5.56553">
        <ele>1408.4000244141</ele>
        <time>2021-09-25T10:08:06.000Z</time>
      </trkpt>
      <trkpt lat="44.26894" lon="5.56558">
        <ele>1408.1999511719</ele>
        <time>2021-09-25T10:08:10.000Z</time>
      </trkpt>
      <trkpt lat="44.26889" lon="5.56561">
        <ele>1408.1999511719</ele>
        <time>2021-09-25T10:08:14.000Z</time>
      </trkpt>
      <trkpt lat="44.26886" lon="5.56564">
        <ele>1408.4000244141</ele>
        <time>2021-09-25T10:08:17.000Z</time>
      </trkpt>
      <trkpt lat="44.26882" lon="5.5657">
        <ele>1408.5999755859</ele>
        <time>2021-09-25T10:08:22.000Z</time>
      </trkpt>
      <trkpt lat="44.26876" lon="5.56576">
        <ele>1408.8000488281</ele>
        <time>2021-09-25T10:08:28.000Z</time>
      </trkpt>
      <trkpt lat="44.26872" lon="5.56578">
        <ele>1409.1999511719</ele>
        <time>2021-09-25T10:08:32.000Z</time>
      </trkpt>
      <trkpt lat="44.26871" lon="5.56578">
        <ele>1409.4000244141</ele>
        <time>2021-09-25T10:08:34.000Z</time>
      </trkpt>
      <trkpt lat="44.2687" lon="5.56579">
        <ele>1409.4000244141</ele>
        <time>2021-09-25T10:08:35.000Z</time>
      </trkpt>
      <trkpt lat="44.26869" lon="5.5658">
        <ele>1409.4000244141</ele>
        <time>2021-09-25T10:08:36.000Z</time>
      </trkpt>
      <trkpt lat="44.26867" lon="5.56583">
        <ele>1409</ele>
        <time>2021-09-25T10:08:41.000Z</time>
      </trkpt>
      <trkpt lat="44.26865" lon="5.56586">
        <ele>1409.5999755859</ele>
        <time>2021-09-25T10:08:44.000Z</time>
      </trkpt>
      <trkpt lat="44.26864" lon="5.56586">
        <ele>1410</ele>
        <time>2021-09-25T10:08:45.000Z</time>
      </trkpt>
      <trkpt lat="44.26862" lon="5.56587">
        <ele>1410.1999511719</ele>
        <time>2021-09-25T10:08:47.000Z</time>
      </trkpt>
      <trkpt lat="44.26858" lon="5.56594">
        <ele>1409.8000488281</ele>
        <time>2021-09-25T10:08:53.000Z</time>
      </trkpt>
      <trkpt lat="44.26858" lon="5.56596">
        <ele>1409.8000488281</ele>
        <time>2021-09-25T10:08:54.000Z</time>
      </trkpt>
      <trkpt lat="44.26856" lon="5.566">
        <ele>1409.4000244141</ele>
        <time>2021-09-25T10:08:58.000Z</time>
      </trkpt>
      <trkpt lat="44.26855" lon="5.566">
        <ele>1409.4000244141</ele>
        <time>2021-09-25T10:08:59.000Z</time>
      </trkpt>
      <trkpt lat="44.26855" lon="5.56601">
        <ele>1409.4000244141</ele>
        <time>2021-09-25T10:09:00.000Z</time>
      </trkpt>
      <trkpt lat="44.26853" lon="5.56603">
        <ele>1409.5999755859</ele>
        <time>2021-09-25T10:09:03.000Z</time>
      </trkpt>
      <trkpt lat="44.26852" lon="5.56603">
        <ele>1409.5999755859</ele>
        <time>2021-09-25T10:09:04.000Z</time>
      </trkpt>
      <trkpt lat="44.26851" lon="5.56604">
        <ele>1409.5999755859</ele>
        <time>2021-09-25T10:09:05.000Z</time>
      </trkpt>
      <trkpt lat="44.26845" lon="5.56607">
        <ele>1410</ele>
        <time>2021-09-25T10:09:11.000Z</time>
      </trkpt>
      <trkpt lat="44.26844" lon="5.56609">
        <ele>1410.4000244141</ele>
        <time>2021-09-25T10:09:13.000Z</time>
      </trkpt>
      <trkpt lat="44.26842" lon="5.56611">
        <ele>1411.1999511719</ele>
        <time>2021-09-25T10:09:15.000Z</time>
      </trkpt>
      <trkpt lat="44.26841" lon="5.56612">
        <ele>1411.1999511719</ele>
        <time>2021-09-25T10:09:16.000Z</time>
      </trkpt>
      <trkpt lat="44.26838" lon="5.56616">
        <ele>1410.1999511719</ele>
        <time>2021-09-25T10:09:20.000Z</time>
      </trkpt>
      <trkpt lat="44.26837" lon="5.56617">
        <ele>1410</ele>
        <time>2021-09-25T10:09:21.000Z</time>
      </trkpt>
      <trkpt lat="44.26837" lon="5.56618">
        <ele>1409.5999755859</ele>
        <time>2021-09-25T10:09:22.000Z</time>
      </trkpt>
      <trkpt lat="44.26834" lon="5.5662">
        <ele>1409.4000244141</ele>
        <time>2021-09-25T10:09:26.000Z</time>
      </trkpt>
      <trkpt lat="44.26834" lon="5.56621">
        <ele>1409.5999755859</ele>
        <time>2021-09-25T10:09:27.000Z</time>
      </trkpt>
      <trkpt lat="44.26832" lon="5.56622">
        <ele>1409.5999755859</ele>
        <time>2021-09-25T10:09:29.000Z</time>
      </trkpt>
      <trkpt lat="44.26831" lon="5.56623">
        <ele>1409.8000488281</ele>
        <time>2021-09-25T10:09:31.000Z</time>
      </trkpt>
      <trkpt lat="44.2683" lon="5.56623">
        <ele>1409.8000488281</ele>
        <time>2021-09-25T10:09:32.000Z</time>
      </trkpt>
      <trkpt lat="44.26826" lon="5.56626">
        <ele>1410.1999511719</ele>
        <time>2021-09-25T10:09:37.000Z</time>
      </trkpt>
      <trkpt lat="44.26824" lon="5.56628">
        <ele>1410.1999511719</ele>
        <time>2021-09-25T10:09:39.000Z</time>
      </trkpt>
      <trkpt lat="44.26823" lon="5.56629">
        <ele>1410.5999755859</ele>
        <time>2021-09-25T10:09:41.000Z</time>
      </trkpt>
      <trkpt lat="44.2682" lon="5.56632">
        <ele>1410.5999755859</ele>
        <time>2021-09-25T10:09:45.000Z</time>
      </trkpt>
      <trkpt lat="44.26816" lon="5.56636">
        <ele>1411.4000244141</ele>
        <time>2021-09-25T10:09:50.000Z</time>
      </trkpt>
      <trkpt lat="44.26815" lon="5.56637">
        <ele>1411.5999755859</ele>
        <time>2021-09-25T10:09:51.000Z</time>
      </trkpt>
      <trkpt lat="44.26814" lon="5.56638">
        <ele>1411.8000488281</ele>
        <time>2021-09-25T10:09:52.000Z</time>
      </trkpt>
      <trkpt lat="44.2681" lon="5.56641">
        <ele>1412.4000244141</ele>
        <time>2021-09-25T10:09:56.000Z</time>
      </trkpt>
      <trkpt lat="44.26809" lon="5.56642">
        <ele>1412.5999755859</ele>
        <time>2021-09-25T10:09:58.000Z</time>
      </trkpt>
      <trkpt lat="44.26808" lon="5.56643">
        <ele>1412.5999755859</ele>
        <time>2021-09-25T10:09:59.000Z</time>
      </trkpt>
      <trkpt lat="44.26808" lon="5.56643">
        <ele>1412.5999755859</ele>
        <time>2021-09-25T10:10:00.000Z</time>
      </trkpt>
      <trkpt lat="44.26807" lon="5.56644">
        <ele>1412.8000488281</ele>
        <time>2021-09-25T10:10:01.000Z</time>
      </trkpt>
      <trkpt lat="44.26806" lon="5.56645">
        <ele>1413</ele>
        <time>2021-09-25T10:10:02.000Z</time>
      </trkpt>
      <trkpt lat="44.26806" lon="5.56646">
        <ele>1413.1999511719</ele>
        <time>2021-09-25T10:10:03.000Z</time>
      </trkpt>
      <trkpt lat="44.26805" lon="5.56646">
        <ele>1413.1999511719</ele>
        <time>2021-09-25T10:10:04.000Z</time>
      </trkpt>
      <trkpt lat="44.26805" lon="5.56646">
        <ele>1413.1999511719</ele>
        <time>2021-09-25T10:10:06.000Z</time>
      </trkpt>
      <trkpt lat="44.26805" lon="5.56646">
        <ele>1413.1999511719</ele>
        <time>2021-09-25T10:10:07.000Z</time>
      </trkpt>
      <trkpt lat="44.26804" lon="5.56647">
        <ele>1413.1999511719</ele>
        <time>2021-09-25T10:10:09.000Z</time>
      </trkpt>
      <trkpt lat="44.26803" lon="5.56647">
        <ele>1413.4000244141</ele>
        <time>2021-09-25T10:10:10.000Z</time>
      </trkpt>
      <trkpt lat="44.268" lon="5.56652">
        <ele>1413.1999511719</ele>
        <time>2021-09-25T10:10:15.000Z</time>
      </trkpt>
      <trkpt lat="44.26799" lon="5.56653">
        <ele>1413.4000244141</ele>
        <time>2021-09-25T10:10:16.000Z</time>
      </trkpt>
      <trkpt lat="44.26797" lon="5.56656">
        <ele>1413.4000244141</ele>
        <time>2021-09-25T10:10:19.000Z</time>
      </trkpt>
      <trkpt lat="44.26796" lon="5.56656">
        <ele>1413.5999755859</ele>
        <time>2021-09-25T10:10:20.000Z</time>
      </trkpt>
      <trkpt lat="44.26794" lon="5.56657">
        <ele>1414</ele>
        <time>2021-09-25T10:10:22.000Z</time>
      </trkpt>
      <trkpt lat="44.26794" lon="5.56659">
        <ele>1414.1999511719</ele>
        <time>2021-09-25T10:10:23.000Z</time>
      </trkpt>
      <trkpt lat="44.26794" lon="5.56661">
        <ele>1414.1999511719</ele>
        <time>2021-09-25T10:10:25.000Z</time>
      </trkpt>
      <trkpt lat="44.26793" lon="5.56661">
        <ele>1414.1999511719</ele>
        <time>2021-09-25T10:10:26.000Z</time>
      </trkpt>
      <trkpt lat="44.26791" lon="5.56663">
        <ele>1414.4000244141</ele>
        <time>2021-09-25T10:10:28.000Z</time>
      </trkpt>
      <trkpt lat="44.26791" lon="5.56664">
        <ele>1414.4000244141</ele>
        <time>2021-09-25T10:10:29.000Z</time>
      </trkpt>
      <trkpt lat="44.26791" lon="5.56664">
        <ele>1414.4000244141</ele>
        <time>2021-09-25T10:10:32.000Z</time>
      </trkpt>
      <trkpt lat="44.26791" lon="5.56664">
        <ele>1414.4000244141</ele>
        <time>2021-09-25T10:10:35.000Z</time>
      </trkpt>
      <trkpt lat="44.2679" lon="5.56666">
        <ele>1414.4000244141</ele>
        <time>2021-09-25T10:10:40.000Z</time>
      </trkpt>
      <trkpt lat="44.26789" lon="5.56666">
        <ele>1414.4000244141</ele>
        <time>2021-09-25T10:10:41.000Z</time>
      </trkpt>
      <trkpt lat="44.26785" lon="5.56668">
        <ele>1413.8000488281</ele>
        <time>2021-09-25T10:10:46.000Z</time>
      </trkpt>
      <trkpt lat="44.26784" lon="5.5667">
        <ele>1413.8000488281</ele>
        <time>2021-09-25T10:10:48.000Z</time>
      </trkpt>
      <trkpt lat="44.26782" lon="5.5667">
        <ele>1413.8000488281</ele>
        <time>2021-09-25T10:10:50.000Z</time>
      </trkpt>
      <trkpt lat="44.2678" lon="5.56671">
        <ele>1413.8000488281</ele>
        <time>2021-09-25T10:10:52.000Z</time>
      </trkpt>
      <trkpt lat="44.26779" lon="5.56672">
        <ele>1413.8000488281</ele>
        <time>2021-09-25T10:10:53.000Z</time>
      </trkpt>
      <trkpt lat="44.26779" lon="5.56673">
        <ele>1414</ele>
        <time>2021-09-25T10:10:54.000Z</time>
      </trkpt>
      <trkpt lat="44.26778" lon="5.56673">
        <ele>1414</ele>
        <time>2021-09-25T10:10:56.000Z</time>
      </trkpt>
      <trkpt lat="44.26776" lon="5.56675">
        <ele>1414.1999511719</ele>
        <time>2021-09-25T10:10:59.000Z</time>
      </trkpt>
      <trkpt lat="44.26771" lon="5.5668">
        <ele>1415</ele>
        <time>2021-09-25T10:11:05.000Z</time>
      </trkpt>
      <trkpt lat="44.26769" lon="5.56682">
        <ele>1415.5999755859</ele>
        <time>2021-09-25T10:11:07.000Z</time>
      </trkpt>
      <trkpt lat="44.26765" lon="5.56687">
        <ele>1415.8000488281</ele>
        <time>2021-09-25T10:11:13.000Z</time>
      </trkpt>
      <trkpt lat="44.26762" lon="5.56691">
        <ele>1415.5999755859</ele>
        <time>2021-09-25T10:11:17.000Z</time>
      </trkpt>
      <trkpt lat="44.2676" lon="5.56694">
        <ele>1416</ele>
        <time>2021-09-25T10:11:20.000Z</time>
      </trkpt>
      <trkpt lat="44.26757" lon="5.567">
        <ele>1416.5999755859</ele>
        <time>2021-09-25T10:11:25.000Z</time>
      </trkpt>
      <trkpt lat="44.26753" lon="5.56704">
        <ele>1416.8000488281</ele>
        <time>2021-09-25T10:11:31.000Z</time>
      </trkpt>
      <trkpt lat="44.26752" lon="5.56705">
        <ele>1416.8000488281</ele>
        <time>2021-09-25T10:11:32.000Z</time>
      </trkpt>
      <trkpt lat="44.26751" lon="5.56706">
        <ele>1416.8000488281</ele>
        <time>2021-09-25T10:11:34.000Z</time>
      </trkpt>
      <trkpt lat="44.26747" lon="5.56708">
        <ele>1416.8000488281</ele>
        <time>2021-09-25T10:11:38.000Z</time>
      </trkpt>
      <trkpt lat="44.2674" lon="5.56714">
        <ele>1417.4000244141</ele>
        <time>2021-09-25T10:11:46.000Z</time>
      </trkpt>
      <trkpt lat="44.26737" lon="5.56716">
        <ele>1417.8000488281</ele>
        <time>2021-09-25T10:11:49.000Z</time>
      </trkpt>
      <trkpt lat="44.26734" lon="5.56717">
        <ele>1418.1999511719</ele>
        <time>2021-09-25T10:11:53.000Z</time>
      </trkpt>
      <trkpt lat="44.26734" lon="5.56718">
        <ele>1418.1999511719</ele>
        <time>2021-09-25T10:11:54.000Z</time>
      </trkpt>
      <trkpt lat="44.26732" lon="5.56719">
        <ele>1418.1999511719</ele>
        <time>2021-09-25T10:11:56.000Z</time>
      </trkpt>
      <trkpt lat="44.26729" lon="5.56721">
        <ele>1418.5999755859</ele>
        <time>2021-09-25T10:12:00.000Z</time>
      </trkpt>
      <trkpt lat="44.26728" lon="5.56722">
        <ele>1419</ele>
        <time>2021-09-25T10:12:02.000Z</time>
      </trkpt>
      <trkpt lat="44.26726" lon="5.56723">
        <ele>1419.5999755859</ele>
        <time>2021-09-25T10:12:08.000Z</time>
      </trkpt>
      <trkpt lat="44.26721" lon="5.56728">
        <ele>1419.4000244141</ele>
        <time>2021-09-25T10:12:15.000Z</time>
      </trkpt>
      <trkpt lat="44.26719" lon="5.5673">
        <ele>1419.5999755859</ele>
        <time>2021-09-25T10:12:19.000Z</time>
      </trkpt>
      <trkpt lat="44.26718" lon="5.56731">
        <ele>1419.8000488281</ele>
        <time>2021-09-25T10:12:20.000Z</time>
      </trkpt>
      <trkpt lat="44.26716" lon="5.56733">
        <ele>1420</ele>
        <time>2021-09-25T10:12:24.000Z</time>
      </trkpt>
      <trkpt lat="44.26713" lon="5.56735">
        <ele>1420.8000488281</ele>
        <time>2021-09-25T10:12:28.000Z</time>
      </trkpt>
      <trkpt lat="44.26709" lon="5.56737">
        <ele>1421.1999511719</ele>
        <time>2021-09-25T10:12:32.000Z</time>
      </trkpt>
      <trkpt lat="44.26706" lon="5.56738">
        <ele>1421.5999755859</ele>
        <time>2021-09-25T10:12:36.000Z</time>
      </trkpt>
      <trkpt lat="44.26705" lon="5.56741">
        <ele>1422.1999511719</ele>
        <time>2021-09-25T10:12:39.000Z</time>
      </trkpt>
      <trkpt lat="44.26704" lon="5.56741">
        <ele>1422.1999511719</ele>
        <time>2021-09-25T10:12:40.000Z</time>
      </trkpt>
      <trkpt lat="44.26702" lon="5.56743">
        <ele>1422.5999755859</ele>
        <time>2021-09-25T10:12:43.000Z</time>
      </trkpt>
      <trkpt lat="44.26702" lon="5.56744">
        <ele>1422.8000488281</ele>
        <time>2021-09-25T10:12:44.000Z</time>
      </trkpt>
      <trkpt lat="44.26701" lon="5.56744">
        <ele>1423</ele>
        <time>2021-09-25T10:12:45.000Z</time>
      </trkpt>
      <trkpt lat="44.26701" lon="5.56745">
        <ele>1423.1999511719</ele>
        <time>2021-09-25T10:12:46.000Z</time>
      </trkpt>
      <trkpt lat="44.267" lon="5.56745">
        <ele>1423.4000244141</ele>
        <time>2021-09-25T10:12:47.000Z</time>
      </trkpt>
      <trkpt lat="44.26699" lon="5.56745">
        <ele>1423.5999755859</ele>
        <time>2021-09-25T10:12:48.000Z</time>
      </trkpt>
      <trkpt lat="44.26699" lon="5.56746">
        <ele>1423.8000488281</ele>
        <time>2021-09-25T10:12:49.000Z</time>
      </trkpt>
      <trkpt lat="44.26698" lon="5.56747">
        <ele>1424</ele>
        <time>2021-09-25T10:12:50.000Z</time>
      </trkpt>
      <trkpt lat="44.26697" lon="5.56747">
        <ele>1424</ele>
        <time>2021-09-25T10:12:52.000Z</time>
      </trkpt>
      <trkpt lat="44.26697" lon="5.56748">
        <ele>1424.1999511719</ele>
        <time>2021-09-25T10:12:53.000Z</time>
      </trkpt>
      <trkpt lat="44.26695" lon="5.5675">
        <ele>1424.1999511719</ele>
        <time>2021-09-25T10:12:55.000Z</time>
      </trkpt>
      <trkpt lat="44.26693" lon="5.56751">
        <ele>1424.5999755859</ele>
        <time>2021-09-25T10:12:58.000Z</time>
      </trkpt>
      <trkpt lat="44.26692" lon="5.56753">
        <ele>1425</ele>
        <time>2021-09-25T10:13:00.000Z</time>
      </trkpt>
      <trkpt lat="44.26692" lon="5.56753">
        <ele>1425.1999511719</ele>
        <time>2021-09-25T10:13:02.000Z</time>
      </trkpt>
      <trkpt lat="44.26691" lon="5.56754">
        <ele>1425.4000244141</ele>
        <time>2021-09-25T10:13:03.000Z</time>
      </trkpt>
      <trkpt lat="44.2669" lon="5.56755">
        <ele>1425.8000488281</ele>
        <time>2021-09-25T10:13:05.000Z</time>
      </trkpt>
      <trkpt lat="44.26689" lon="5.56756">
        <ele>1426</ele>
        <time>2021-09-25T10:13:07.000Z</time>
      </trkpt>
      <trkpt lat="44.26686" lon="5.56758">
        <ele>1426.4000244141</ele>
        <time>2021-09-25T10:13:11.000Z</time>
      </trkpt>
      <trkpt lat="44.26685" lon="5.56758">
        <ele>1426.5999755859</ele>
        <time>2021-09-25T10:13:12.000Z</time>
      </trkpt>
      <trkpt lat="44.26681" lon="5.56759">
        <ele>1427.1999511719</ele>
        <time>2021-09-25T10:13:17.000Z</time>
      </trkpt>
      <trkpt lat="44.26679" lon="5.5676">
        <ele>1427.4000244141</ele>
        <time>2021-09-25T10:13:19.000Z</time>
      </trkpt>
      <trkpt lat="44.26679" lon="5.5676">
        <ele>1427.8000488281</ele>
        <time>2021-09-25T10:13:20.000Z</time>
      </trkpt>
      <trkpt lat="44.26676" lon="5.56764">
        <ele>1428.5999755859</ele>
        <time>2021-09-25T10:13:27.000Z</time>
      </trkpt>
      <trkpt lat="44.26675" lon="5.56765">
        <ele>1429</ele>
        <time>2021-09-25T10:13:29.000Z</time>
      </trkpt>
      <trkpt lat="44.26672" lon="5.56764">
        <ele>1429.8000488281</ele>
        <time>2021-09-25T10:13:34.000Z</time>
      </trkpt>
      <trkpt lat="44.26671" lon="5.56765">
        <ele>1429.8000488281</ele>
        <time>2021-09-25T10:13:36.000Z</time>
      </trkpt>
      <trkpt lat="44.2667" lon="5.56768">
        <ele>1430</ele>
        <time>2021-09-25T10:13:41.000Z</time>
      </trkpt>
      <trkpt lat="44.26665" lon="5.56771">
        <ele>1431</ele>
        <time>2021-09-25T10:13:49.000Z</time>
      </trkpt>
      <trkpt lat="44.26664" lon="5.56771">
        <ele>1431.1999511719</ele>
        <time>2021-09-25T10:13:50.000Z</time>
      </trkpt>
      <trkpt lat="44.26662" lon="5.56772">
        <ele>1431.4000244141</ele>
        <time>2021-09-25T10:13:52.000Z</time>
      </trkpt>
      <trkpt lat="44.2666" lon="5.56775">
        <ele>1432</ele>
        <time>2021-09-25T10:13:57.000Z</time>
      </trkpt>
      <trkpt lat="44.26659" lon="5.56775">
        <ele>1432.1999511719</ele>
        <time>2021-09-25T10:13:58.000Z</time>
      </trkpt>
      <trkpt lat="44.26657" lon="5.56776">
        <ele>1432.8000488281</ele>
        <time>2021-09-25T10:14:01.000Z</time>
      </trkpt>
      <trkpt lat="44.26655" lon="5.56778">
        <ele>1433.1999511719</ele>
        <time>2021-09-25T10:14:04.000Z</time>
      </trkpt>
      <trkpt lat="44.26654" lon="5.5678">
        <ele>1433.4000244141</ele>
        <time>2021-09-25T10:14:06.000Z</time>
      </trkpt>
      <trkpt lat="44.26654" lon="5.56781">
        <ele>1434</ele>
        <time>2021-09-25T10:14:08.000Z</time>
      </trkpt>
      <trkpt lat="44.26654" lon="5.56782">
        <ele>1434.4000244141</ele>
        <time>2021-09-25T10:14:09.000Z</time>
      </trkpt>
      <trkpt lat="44.26653" lon="5.56784">
        <ele>1434.5999755859</ele>
        <time>2021-09-25T10:14:11.000Z</time>
      </trkpt>
      <trkpt lat="44.26649" lon="5.56787">
        <ele>1434.8000488281</ele>
        <time>2021-09-25T10:14:17.000Z</time>
      </trkpt>
      <trkpt lat="44.26648" lon="5.56788">
        <ele>1435.1999511719</ele>
        <time>2021-09-25T10:14:20.000Z</time>
      </trkpt>
      <trkpt lat="44.26647" lon="5.56789">
        <ele>1435.5999755859</ele>
        <time>2021-09-25T10:14:22.000Z</time>
      </trkpt>
      <trkpt lat="44.26647" lon="5.5679">
        <ele>1435.5999755859</ele>
        <time>2021-09-25T10:14:23.000Z</time>
      </trkpt>
      <trkpt lat="44.26646" lon="5.5679">
        <ele>1435.8000488281</ele>
        <time>2021-09-25T10:14:25.000Z</time>
      </trkpt>
      <trkpt lat="44.26645" lon="5.56795">
        <ele>1436.5999755859</ele>
        <time>2021-09-25T10:14:31.000Z</time>
      </trkpt>
      <trkpt lat="44.26642" lon="5.56797">
        <ele>1437.4000244141</ele>
        <time>2021-09-25T10:14:37.000Z</time>
      </trkpt>
      <trkpt lat="44.26642" lon="5.56797">
        <ele>1437.5999755859</ele>
        <time>2021-09-25T10:14:39.000Z</time>
      </trkpt>
      <trkpt lat="44.26643" lon="5.56796">
        <ele>1437.8000488281</ele>
        <time>2021-09-25T10:14:47.000Z</time>
      </trkpt>
      <trkpt lat="44.26643" lon="5.56795">
        <ele>1437.4000244141</ele>
        <time>2021-09-25T10:14:49.000Z</time>
      </trkpt>
      <trkpt lat="44.26642" lon="5.56795">
        <ele>1437.8000488281</ele>
        <time>2021-09-25T10:14:51.000Z</time>
      </trkpt>
      <trkpt lat="44.26638" lon="5.56798">
        <ele>1437.1999511719</ele>
        <time>2021-09-25T10:14:56.000Z</time>
      </trkpt>
      <trkpt lat="44.26638" lon="5.56798">
        <ele>1437.1999511719</ele>
        <time>2021-09-25T10:14:57.000Z</time>
      </trkpt>
      <trkpt lat="44.26638" lon="5.56798">
        <ele>1438</ele>
        <time>2021-09-25T10:15:03.000Z</time>
      </trkpt>
      <trkpt lat="44.26636" lon="5.56798">
        <ele>1437.8000488281</ele>
        <time>2021-09-25T10:15:08.000Z</time>
      </trkpt>
      <trkpt lat="44.26636" lon="5.56796">
        <ele>1437.8000488281</ele>
        <time>2021-09-25T10:15:15.000Z</time>
      </trkpt>
      <trkpt lat="44.26635" lon="5.56796">
        <ele>1438</ele>
        <time>2021-09-25T10:15:17.000Z</time>
      </trkpt>
      <trkpt lat="44.26635" lon="5.56795">
        <ele>1438</ele>
        <time>2021-09-25T10:15:21.000Z</time>
      </trkpt>
      <trkpt lat="44.26635" lon="5.56795">
        <ele>1438</ele>
        <time>2021-09-25T10:15:23.000Z</time>
      </trkpt>
      <trkpt lat="44.26635" lon="5.56795">
        <ele>1438.5999755859</ele>
        <time>2021-09-25T10:15:27.000Z</time>
      </trkpt>
      <trkpt lat="44.26636" lon="5.56796">
        <ele>1438.5999755859</ele>
        <time>2021-09-25T10:15:29.000Z</time>
      </trkpt>
      <trkpt lat="44.26636" lon="5.56796">
        <ele>1438.5999755859</ele>
        <time>2021-09-25T10:15:31.000Z</time>
      </trkpt>
      <trkpt lat="44.26636" lon="5.56796">
        <ele>1438.4000244141</ele>
        <time>2021-09-25T10:15:35.000Z</time>
      </trkpt>
      <trkpt lat="44.26636" lon="5.56796">
        <ele>1438.4000244141</ele>
        <time>2021-09-25T10:15:36.000Z</time>
      </trkpt>
      <trkpt lat="44.26636" lon="5.56796">
        <ele>1438.1999511719</ele>
        <time>2021-09-25T10:15:41.000Z</time>
      </trkpt>
      <trkpt lat="44.26637" lon="5.56797">
        <ele>1438.1999511719</ele>
        <time>2021-09-25T10:15:46.000Z</time>
      </trkpt>
      <trkpt lat="44.26637" lon="5.56797">
        <ele>1437.5999755859</ele>
        <time>2021-09-25T10:15:50.000Z</time>
      </trkpt>
      <trkpt lat="44.26637" lon="5.56797">
        <ele>1437.4000244141</ele>
        <time>2021-09-25T10:15:54.000Z</time>
      </trkpt>
      <trkpt lat="44.26637" lon="5.56796">
        <ele>1437</ele>
        <time>2021-09-25T10:16:03.000Z</time>
      </trkpt>
      <trkpt lat="44.26637" lon="5.56796">
        <ele>1436.8000488281</ele>
        <time>2021-09-25T10:16:11.000Z</time>
      </trkpt>
      <trkpt lat="44.26638" lon="5.56796">
        <ele>1436.8000488281</ele>
        <time>2021-09-25T10:16:14.000Z</time>
      </trkpt>
      <trkpt lat="44.26638" lon="5.56796">
        <ele>1437</ele>
        <time>2021-09-25T10:16:15.000Z</time>
      </trkpt>
      <trkpt lat="44.26638" lon="5.56797">
        <ele>1436.8000488281</ele>
        <time>2021-09-25T10:16:23.000Z</time>
      </trkpt>
      <trkpt lat="44.26637" lon="5.56798">
        <ele>1436.5999755859</ele>
        <time>2021-09-25T10:16:27.000Z</time>
      </trkpt>
      <trkpt lat="44.26638" lon="5.56799">
        <ele>1436.4000244141</ele>
        <time>2021-09-25T10:16:30.000Z</time>
      </trkpt>
      <trkpt lat="44.26638" lon="5.56799">
        <ele>1436.4000244141</ele>
        <time>2021-09-25T10:16:31.000Z</time>
      </trkpt>
      <trkpt lat="44.26638" lon="5.56798">
        <ele>1436.5999755859</ele>
        <time>2021-09-25T10:16:38.000Z</time>
      </trkpt>
      <trkpt lat="44.26638" lon="5.56797">
        <ele>1436.4000244141</ele>
        <time>2021-09-25T10:16:46.000Z</time>
      </trkpt>
      <trkpt lat="44.26638" lon="5.56797">
        <ele>1436.5999755859</ele>
        <time>2021-09-25T10:16:48.000Z</time>
      </trkpt>
      <trkpt lat="44.26638" lon="5.56797">
        <ele>1436.8000488281</ele>
        <time>2021-09-25T10:16:50.000Z</time>
      </trkpt>
      <trkpt lat="44.26637" lon="5.56797">
        <ele>1436.8000488281</ele>
        <time>2021-09-25T10:16:53.000Z</time>
      </trkpt>
      <trkpt lat="44.26637" lon="5.56797">
        <ele>1437.1999511719</ele>
        <time>2021-09-25T10:16:54.000Z</time>
      </trkpt>
      <trkpt lat="44.26637" lon="5.56797">
        <ele>1437.5999755859</ele>
        <time>2021-09-25T10:16:55.000Z</time>
      </trkpt>
      <trkpt lat="44.26637" lon="5.56796">
        <ele>1437.8000488281</ele>
        <time>2021-09-25T10:16:58.000Z</time>
      </trkpt>
      <trkpt lat="44.26637" lon="5.56797">
        <ele>1437.4000244141</ele>
        <time>2021-09-25T10:17:00.000Z</time>
      </trkpt>
      <trkpt lat="44.26636" lon="5.56797">
        <ele>1437</ele>
        <time>2021-09-25T10:17:02.000Z</time>
      </trkpt>
      <trkpt lat="44.26635" lon="5.56797">
        <ele>1437</ele>
        <time>2021-09-25T10:17:04.000Z</time>
      </trkpt>
      <trkpt lat="44.26634" lon="5.56798">
        <ele>1436.5999755859</ele>
        <time>2021-09-25T10:17:07.000Z</time>
      </trkpt>
      <trkpt lat="44.26634" lon="5.56798">
        <ele>1436.8000488281</ele>
        <time>2021-09-25T10:17:09.000Z</time>
      </trkpt>
      <trkpt lat="44.26634" lon="5.56798">
        <ele>1437</ele>
        <time>2021-09-25T10:17:10.000Z</time>
      </trkpt>
      <trkpt lat="44.26632" lon="5.56797">
        <ele>1437.5999755859</ele>
        <time>2021-09-25T10:17:18.000Z</time>
      </trkpt>
      <trkpt lat="44.26632" lon="5.56797">
        <ele>1437.4000244141</ele>
        <time>2021-09-25T10:17:19.000Z</time>
      </trkpt>
      <trkpt lat="44.26632" lon="5.56797">
        <ele>1437.4000244141</ele>
        <time>2021-09-25T10:17:20.000Z</time>
      </trkpt>
      <trkpt lat="44.26632" lon="5.56797">
        <ele>1437.4000244141</ele>
        <time>2021-09-25T10:17:21.000Z</time>
      </trkpt>
      <trkpt lat="44.26632" lon="5.56797">
        <ele>1437.4000244141</ele>
        <time>2021-09-25T10:17:22.000Z</time>
      </trkpt>
      <trkpt lat="44.26632" lon="5.56797">
        <ele>1437.8000488281</ele>
        <time>2021-09-25T10:17:26.000Z</time>
      </trkpt>
      <trkpt lat="44.26632" lon="5.56798">
        <ele>1438</ele>
        <time>2021-09-25T10:17:28.000Z</time>
      </trkpt>
      <trkpt lat="44.26632" lon="5.56798">
        <ele>1438.4000244141</ele>
        <time>2021-09-25T10:17:30.000Z</time>
      </trkpt>
      <trkpt lat="44.26633" lon="5.56798">
        <ele>1438.5999755859</ele>
        <time>2021-09-25T10:17:34.000Z</time>
      </trkpt>
      <trkpt lat="44.26633" lon="5.56798">
        <ele>1438.5999755859</ele>
        <time>2021-09-25T10:17:35.000Z</time>
      </trkpt>
      <trkpt lat="44.26633" lon="5.56798">
        <ele>1438.8000488281</ele>
        <time>2021-09-25T10:17:37.000Z</time>
      </trkpt>
      <trkpt lat="44.26634" lon="5.56797">
        <ele>1438</ele>
        <time>2021-09-25T10:17:43.000Z</time>
      </trkpt>
      <trkpt lat="44.26635" lon="5.56798">
        <ele>1438.1999511719</ele>
        <time>2021-09-25T10:17:52.000Z</time>
      </trkpt>
      <trkpt lat="44.26635" lon="5.56798">
        <ele>1438.1999511719</ele>
        <time>2021-09-25T10:18:00.000Z</time>
      </trkpt>
      <trkpt lat="44.26634" lon="5.56798">
        <ele>1438.1999511719</ele>
        <time>2021-09-25T10:18:01.000Z</time>
      </trkpt>
      <trkpt lat="44.26633" lon="5.56797">
        <ele>1437.4000244141</ele>
        <time>2021-09-25T10:18:04.000Z</time>
      </trkpt>
      <trkpt lat="44.26634" lon="5.56797">
        <ele>1437.4000244141</ele>
        <time>2021-09-25T10:18:06.000Z</time>
      </trkpt>
      <trkpt lat="44.26631" lon="5.56799">
        <ele>1437.1999511719</ele>
        <time>2021-09-25T10:18:11.000Z</time>
      </trkpt>
      <trkpt lat="44.26628" lon="5.56801">
        <ele>1436.5999755859</ele>
        <time>2021-09-25T10:18:16.000Z</time>
      </trkpt>
      <trkpt lat="44.26627" lon="5.56801">
        <ele>1436.5999755859</ele>
        <time>2021-09-25T10:18:17.000Z</time>
      </trkpt>
      <trkpt lat="44.26626" lon="5.56802">
        <ele>1437.1999511719</ele>
        <time>2021-09-25T10:18:21.000Z</time>
      </trkpt>
      <trkpt lat="44.26625" lon="5.56803">
        <ele>1437.4000244141</ele>
        <time>2021-09-25T10:18:22.000Z</time>
      </trkpt>
      <trkpt lat="44.26624" lon="5.56805">
        <ele>1437.8000488281</ele>
        <time>2021-09-25T10:18:25.000Z</time>
      </trkpt>
      <trkpt lat="44.26622" lon="5.56807">
        <ele>1438.5999755859</ele>
        <time>2021-09-25T10:18:28.000Z</time>
      </trkpt>
      <trkpt lat="44.26621" lon="5.56808">
        <ele>1438.8000488281</ele>
        <time>2021-09-25T10:18:29.000Z</time>
      </trkpt>
      <trkpt lat="44.2662" lon="5.5681">
        <ele>1439.1999511719</ele>
        <time>2021-09-25T10:18:31.000Z</time>
      </trkpt>
      <trkpt lat="44.26619" lon="5.56813">
        <ele>1439.8000488281</ele>
        <time>2021-09-25T10:18:34.000Z</time>
      </trkpt>
      <trkpt lat="44.26619" lon="5.56813">
        <ele>1439.8000488281</ele>
        <time>2021-09-25T10:18:35.000Z</time>
      </trkpt>
      <trkpt lat="44.26619" lon="5.56814">
        <ele>1440</ele>
        <time>2021-09-25T10:18:36.000Z</time>
      </trkpt>
      <trkpt lat="44.26618" lon="5.56815">
        <ele>1440</ele>
        <time>2021-09-25T10:18:37.000Z</time>
      </trkpt>
      <trkpt lat="44.26618" lon="5.56815">
        <ele>1440.1999511719</ele>
        <time>2021-09-25T10:18:38.000Z</time>
      </trkpt>
      <trkpt lat="44.26617" lon="5.56815">
        <ele>1440.1999511719</ele>
        <time>2021-09-25T10:18:39.000Z</time>
      </trkpt>
      <trkpt lat="44.26616" lon="5.56817">
        <ele>1440.4000244141</ele>
        <time>2021-09-25T10:18:41.000Z</time>
      </trkpt>
      <trkpt lat="44.26616" lon="5.56818">
        <ele>1440.5999755859</ele>
        <time>2021-09-25T10:18:42.000Z</time>
      </trkpt>
      <trkpt lat="44.26616" lon="5.56819">
        <ele>1441</ele>
        <time>2021-09-25T10:18:43.000Z</time>
      </trkpt>
      <trkpt lat="44.26616" lon="5.56822">
        <ele>1441.1999511719</ele>
        <time>2021-09-25T10:18:45.000Z</time>
      </trkpt>
      <trkpt lat="44.26615" lon="5.56823">
        <ele>1441.5999755859</ele>
        <time>2021-09-25T10:18:47.000Z</time>
      </trkpt>
      <trkpt lat="44.26614" lon="5.56824">
        <ele>1441.5999755859</ele>
        <time>2021-09-25T10:18:48.000Z</time>
      </trkpt>
      <trkpt lat="44.26613" lon="5.56825">
        <ele>1442</ele>
        <time>2021-09-25T10:18:51.000Z</time>
      </trkpt>
      <trkpt lat="44.26611" lon="5.56825">
        <ele>1442.1999511719</ele>
        <time>2021-09-25T10:18:53.000Z</time>
      </trkpt>
      <trkpt lat="44.2661" lon="5.56825">
        <ele>1442.1999511719</ele>
        <time>2021-09-25T10:18:54.000Z</time>
      </trkpt>
      <trkpt lat="44.26609" lon="5.56826">
        <ele>1442.1999511719</ele>
        <time>2021-09-25T10:18:56.000Z</time>
      </trkpt>
      <trkpt lat="44.26608" lon="5.56827">
        <ele>1442.1999511719</ele>
        <time>2021-09-25T10:18:58.000Z</time>
      </trkpt>
      <trkpt lat="44.26607" lon="5.56828">
        <ele>1442.4000244141</ele>
        <time>2021-09-25T10:19:00.000Z</time>
      </trkpt>
      <trkpt lat="44.26604" lon="5.56831">
        <ele>1442.8000488281</ele>
        <time>2021-09-25T10:19:05.000Z</time>
      </trkpt>
      <trkpt lat="44.26602" lon="5.56831">
        <ele>1443</ele>
        <time>2021-09-25T10:19:07.000Z</time>
      </trkpt>
      <trkpt lat="44.26601" lon="5.56831">
        <ele>1443</ele>
        <time>2021-09-25T10:19:08.000Z</time>
      </trkpt>
      <trkpt lat="44.26601" lon="5.56832">
        <ele>1443</ele>
        <time>2021-09-25T10:19:09.000Z</time>
      </trkpt>
      <trkpt lat="44.266" lon="5.56832">
        <ele>1443.1999511719</ele>
        <time>2021-09-25T10:19:11.000Z</time>
      </trkpt>
      <trkpt lat="44.26598" lon="5.56834">
        <ele>1443.5999755859</ele>
        <time>2021-09-25T10:19:14.000Z</time>
      </trkpt>
      <trkpt lat="44.26597" lon="5.56835">
        <ele>1444</ele>
        <time>2021-09-25T10:19:16.000Z</time>
      </trkpt>
      <trkpt lat="44.26596" lon="5.56837">
        <ele>1444.5999755859</ele>
        <time>2021-09-25T10:19:19.000Z</time>
      </trkpt>
      <trkpt lat="44.26594" lon="5.56839">
        <ele>1445.1999511719</ele>
        <time>2021-09-25T10:19:22.000Z</time>
      </trkpt>
      <trkpt lat="44.2659" lon="5.56843">
        <ele>1446</ele>
        <time>2021-09-25T10:19:30.000Z</time>
      </trkpt>
      <trkpt lat="44.26589" lon="5.56844">
        <ele>1446.1999511719</ele>
        <time>2021-09-25T10:19:32.000Z</time>
      </trkpt>
      <trkpt lat="44.26585" lon="5.56848">
        <ele>1446.8000488281</ele>
        <time>2021-09-25T10:19:37.000Z</time>
      </trkpt>
      <trkpt lat="44.26584" lon="5.5685">
        <ele>1447</ele>
        <time>2021-09-25T10:19:40.000Z</time>
      </trkpt>
      <trkpt lat="44.26584" lon="5.56851">
        <ele>1447</ele>
        <time>2021-09-25T10:19:41.000Z</time>
      </trkpt>
      <trkpt lat="44.26584" lon="5.56852">
        <ele>1446.8000488281</ele>
        <time>2021-09-25T10:19:42.000Z</time>
      </trkpt>
      <trkpt lat="44.26583" lon="5.56853">
        <ele>1446.8000488281</ele>
        <time>2021-09-25T10:19:44.000Z</time>
      </trkpt>
      <trkpt lat="44.26582" lon="5.56855">
        <ele>1447.4000244141</ele>
        <time>2021-09-25T10:19:47.000Z</time>
      </trkpt>
      <trkpt lat="44.26579" lon="5.56857">
        <ele>1448.4000244141</ele>
        <time>2021-09-25T10:19:51.000Z</time>
      </trkpt>
      <trkpt lat="44.26579" lon="5.56857">
        <ele>1448.4000244141</ele>
        <time>2021-09-25T10:19:52.000Z</time>
      </trkpt>
      <trkpt lat="44.26576" lon="5.56863">
        <ele>1449.1999511719</ele>
        <time>2021-09-25T10:20:01.000Z</time>
      </trkpt>
      <trkpt lat="44.26574" lon="5.56864">
        <ele>1449.5999755859</ele>
        <time>2021-09-25T10:20:04.000Z</time>
      </trkpt>
      <trkpt lat="44.26572" lon="5.56868">
        <ele>1449.8000488281</ele>
        <time>2021-09-25T10:20:09.000Z</time>
      </trkpt>
      <trkpt lat="44.26571" lon="5.56871">
        <ele>1449.8000488281</ele>
        <time>2021-09-25T10:20:13.000Z</time>
      </trkpt>
      <trkpt lat="44.2657" lon="5.56872">
        <ele>1450</ele>
        <time>2021-09-25T10:20:15.000Z</time>
      </trkpt>
      <trkpt lat="44.26569" lon="5.56873">
        <ele>1450.5999755859</ele>
        <time>2021-09-25T10:20:17.000Z</time>
      </trkpt>
      <trkpt lat="44.26568" lon="5.56874">
        <ele>1451.1999511719</ele>
        <time>2021-09-25T10:20:21.000Z</time>
      </trkpt>
      <trkpt lat="44.26567" lon="5.56875">
        <ele>1451.5999755859</ele>
        <time>2021-09-25T10:20:23.000Z</time>
      </trkpt>
      <trkpt lat="44.26565" lon="5.56876">
        <ele>1452.5999755859</ele>
        <time>2021-09-25T10:20:27.000Z</time>
      </trkpt>
      <trkpt lat="44.26564" lon="5.56876">
        <ele>1452.8000488281</ele>
        <time>2021-09-25T10:20:28.000Z</time>
      </trkpt>
      <trkpt lat="44.26562" lon="5.56882">
        <ele>1453.1999511719</ele>
        <time>2021-09-25T10:20:34.000Z</time>
      </trkpt>
      <trkpt lat="44.26561" lon="5.56883">
        <ele>1453.8000488281</ele>
        <time>2021-09-25T10:20:37.000Z</time>
      </trkpt>
      <trkpt lat="44.26559" lon="5.56885">
        <ele>1454</ele>
        <time>2021-09-25T10:20:41.000Z</time>
      </trkpt>
      <trkpt lat="44.26559" lon="5.56885">
        <ele>1454.1999511719</ele>
        <time>2021-09-25T10:20:42.000Z</time>
      </trkpt>
      <trkpt lat="44.26556" lon="5.56887">
        <ele>1454.4000244141</ele>
        <time>2021-09-25T10:20:49.000Z</time>
      </trkpt>
      <trkpt lat="44.26555" lon="5.56887">
        <ele>1455</ele>
        <time>2021-09-25T10:20:51.000Z</time>
      </trkpt>
      <trkpt lat="44.26553" lon="5.56887">
        <ele>1455.5999755859</ele>
        <time>2021-09-25T10:20:56.000Z</time>
      </trkpt>
      <trkpt lat="44.26551" lon="5.5689">
        <ele>1455.4000244141</ele>
        <time>2021-09-25T10:21:02.000Z</time>
      </trkpt>
      <trkpt lat="44.26551" lon="5.56891">
        <ele>1455.4000244141</ele>
        <time>2021-09-25T10:21:03.000Z</time>
      </trkpt>
      <trkpt lat="44.2655" lon="5.56897">
        <ele>1456.1999511719</ele>
        <time>2021-09-25T10:21:10.000Z</time>
      </trkpt>
      <trkpt lat="44.2655" lon="5.56898">
        <ele>1456.5999755859</ele>
        <time>2021-09-25T10:21:11.000Z</time>
      </trkpt>
      <trkpt lat="44.26549" lon="5.56899">
        <ele>1457.5999755859</ele>
        <time>2021-09-25T10:21:15.000Z</time>
      </trkpt>
      <trkpt lat="44.26549" lon="5.56901">
        <ele>1457.8000488281</ele>
        <time>2021-09-25T10:21:17.000Z</time>
      </trkpt>
      <trkpt lat="44.26548" lon="5.56902">
        <ele>1458.1999511719</ele>
        <time>2021-09-25T10:21:19.000Z</time>
      </trkpt>
      <trkpt lat="44.26546" lon="5.56904">
        <ele>1458.8000488281</ele>
        <time>2021-09-25T10:21:22.000Z</time>
      </trkpt>
      <trkpt lat="44.26544" lon="5.56906">
        <ele>1459.1999511719</ele>
        <time>2021-09-25T10:21:27.000Z</time>
      </trkpt>
      <trkpt lat="44.26542" lon="5.56909">
        <ele>1459.8000488281</ele>
        <time>2021-09-25T10:21:32.000Z</time>
      </trkpt>
      <trkpt lat="44.26541" lon="5.56909">
        <ele>1460</ele>
        <time>2021-09-25T10:21:34.000Z</time>
      </trkpt>
      <trkpt lat="44.26539" lon="5.56909">
        <ele>1460.1999511719</ele>
        <time>2021-09-25T10:21:37.000Z</time>
      </trkpt>
      <trkpt lat="44.26538" lon="5.56911">
        <ele>1460.8000488281</ele>
        <time>2021-09-25T10:21:40.000Z</time>
      </trkpt>
      <trkpt lat="44.26537" lon="5.56912">
        <ele>1460.8000488281</ele>
        <time>2021-09-25T10:21:41.000Z</time>
      </trkpt>
      <trkpt lat="44.26538" lon="5.56912">
        <ele>1461</ele>
        <time>2021-09-25T10:21:43.000Z</time>
      </trkpt>
      <trkpt lat="44.26538" lon="5.56912">
        <ele>1461</ele>
        <time>2021-09-25T10:21:46.000Z</time>
      </trkpt>
      <trkpt lat="44.26536" lon="5.56914">
        <ele>1461</ele>
        <time>2021-09-25T10:21:51.000Z</time>
      </trkpt>
      <trkpt lat="44.26535" lon="5.56915">
        <ele>1462</ele>
        <time>2021-09-25T10:21:57.000Z</time>
      </trkpt>
      <trkpt lat="44.26533" lon="5.56919">
        <ele>1461.8000488281</ele>
        <time>2021-09-25T10:22:04.000Z</time>
      </trkpt>
      <trkpt lat="44.26531" lon="5.5692">
        <ele>1462.8000488281</ele>
        <time>2021-09-25T10:22:07.000Z</time>
      </trkpt>
      <trkpt lat="44.26531" lon="5.5692">
        <ele>1463</ele>
        <time>2021-09-25T10:22:08.000Z</time>
      </trkpt>
      <trkpt lat="44.2653" lon="5.56921">
        <ele>1463.1999511719</ele>
        <time>2021-09-25T10:22:11.000Z</time>
      </trkpt>
      <trkpt lat="44.26529" lon="5.56922">
        <ele>1463</ele>
        <time>2021-09-25T10:22:18.000Z</time>
      </trkpt>
      <trkpt lat="44.26526" lon="5.56924">
        <ele>1463.4000244141</ele>
        <time>2021-09-25T10:22:24.000Z</time>
      </trkpt>
      <trkpt lat="44.26524" lon="5.56927">
        <ele>1463.5999755859</ele>
        <time>2021-09-25T10:22:30.000Z</time>
      </trkpt>
      <trkpt lat="44.26524" lon="5.56927">
        <ele>1463.5999755859</ele>
        <time>2021-09-25T10:22:31.000Z</time>
      </trkpt>
      <trkpt lat="44.26523" lon="5.5693">
        <ele>1464</ele>
        <time>2021-09-25T10:22:36.000Z</time>
      </trkpt>
      <trkpt lat="44.26522" lon="5.5693">
        <ele>1464.4000244141</ele>
        <time>2021-09-25T10:22:37.000Z</time>
      </trkpt>
      <trkpt lat="44.26522" lon="5.56931">
        <ele>1464.4000244141</ele>
        <time>2021-09-25T10:22:38.000Z</time>
      </trkpt>
      <trkpt lat="44.26522" lon="5.56931">
        <ele>1464.5999755859</ele>
        <time>2021-09-25T10:22:39.000Z</time>
      </trkpt>
      <trkpt lat="44.2652" lon="5.56931">
        <ele>1464.8000488281</ele>
        <time>2021-09-25T10:22:41.000Z</time>
      </trkpt>
      <trkpt lat="44.26518" lon="5.56933">
        <ele>1465.4000244141</ele>
        <time>2021-09-25T10:22:44.000Z</time>
      </trkpt>
      <trkpt lat="44.26517" lon="5.56933">
        <ele>1465.8000488281</ele>
        <time>2021-09-25T10:22:46.000Z</time>
      </trkpt>
      <trkpt lat="44.26514" lon="5.56933">
        <ele>1466.5999755859</ele>
        <time>2021-09-25T10:22:50.000Z</time>
      </trkpt>
      <trkpt lat="44.26512" lon="5.56934">
        <ele>1466.8000488281</ele>
        <time>2021-09-25T10:22:52.000Z</time>
      </trkpt>
      <trkpt lat="44.26512" lon="5.56934">
        <ele>1466.8000488281</ele>
        <time>2021-09-25T10:22:53.000Z</time>
      </trkpt>
      <trkpt lat="44.26511" lon="5.56936">
        <ele>1467</ele>
        <time>2021-09-25T10:22:59.000Z</time>
      </trkpt>
      <trkpt lat="44.26512" lon="5.56938">
        <ele>1467.5999755859</ele>
        <time>2021-09-25T10:23:05.000Z</time>
      </trkpt>
      <trkpt lat="44.26512" lon="5.56938">
        <ele>1467.8000488281</ele>
        <time>2021-09-25T10:23:08.000Z</time>
      </trkpt>
      <trkpt lat="44.26512" lon="5.56938">
        <ele>1467.8000488281</ele>
        <time>2021-09-25T10:23:10.000Z</time>
      </trkpt>
      <trkpt lat="44.26511" lon="5.56938">
        <ele>1467.5999755859</ele>
        <time>2021-09-25T10:23:12.000Z</time>
      </trkpt>
      <trkpt lat="44.26511" lon="5.5694">
        <ele>1467.1999511719</ele>
        <time>2021-09-25T10:23:15.000Z</time>
      </trkpt>
      <trkpt lat="44.26509" lon="5.56943">
        <ele>1467.1999511719</ele>
        <time>2021-09-25T10:23:20.000Z</time>
      </trkpt>
      <trkpt lat="44.26508" lon="5.56944">
        <ele>1468.1999511719</ele>
        <time>2021-09-25T10:23:23.000Z</time>
      </trkpt>
      <trkpt lat="44.26507" lon="5.56944">
        <ele>1468.4000244141</ele>
        <time>2021-09-25T10:23:25.000Z</time>
      </trkpt>
      <trkpt lat="44.26507" lon="5.56946">
        <ele>1468.8000488281</ele>
        <time>2021-09-25T10:23:27.000Z</time>
      </trkpt>
      <trkpt lat="44.26506" lon="5.56946">
        <ele>1469.4000244141</ele>
        <time>2021-09-25T10:23:29.000Z</time>
      </trkpt>
      <trkpt lat="44.26505" lon="5.56946">
        <ele>1469.8000488281</ele>
        <time>2021-09-25T10:23:31.000Z</time>
      </trkpt>
      <trkpt lat="44.26502" lon="5.56948">
        <ele>1470.1999511719</ele>
        <time>2021-09-25T10:23:36.000Z</time>
      </trkpt>
      <trkpt lat="44.26501" lon="5.5695">
        <ele>1470.5999755859</ele>
        <time>2021-09-25T10:23:40.000Z</time>
      </trkpt>
      <trkpt lat="44.26501" lon="5.56956">
        <ele>1470.8000488281</ele>
        <time>2021-09-25T10:23:45.000Z</time>
      </trkpt>
      <trkpt lat="44.265" lon="5.56956">
        <ele>1470.8000488281</ele>
        <time>2021-09-25T10:23:46.000Z</time>
      </trkpt>
      <trkpt lat="44.265" lon="5.56958">
        <ele>1471.1999511719</ele>
        <time>2021-09-25T10:23:48.000Z</time>
      </trkpt>
      <trkpt lat="44.26499" lon="5.56958">
        <ele>1471.4000244141</ele>
        <time>2021-09-25T10:23:49.000Z</time>
      </trkpt>
      <trkpt lat="44.26499" lon="5.5696">
        <ele>1471.8000488281</ele>
        <time>2021-09-25T10:23:51.000Z</time>
      </trkpt>
      <trkpt lat="44.265" lon="5.56968">
        <ele>1472.8000488281</ele>
        <time>2021-09-25T10:23:58.000Z</time>
      </trkpt>
      <trkpt lat="44.265" lon="5.56969">
        <ele>1472.8000488281</ele>
        <time>2021-09-25T10:23:59.000Z</time>
      </trkpt>
      <trkpt lat="44.26497" lon="5.56974">
        <ele>1473.8000488281</ele>
        <time>2021-09-25T10:24:06.000Z</time>
      </trkpt>
      <trkpt lat="44.26496" lon="5.56974">
        <ele>1474.4000244141</ele>
        <time>2021-09-25T10:24:08.000Z</time>
      </trkpt>
      <trkpt lat="44.26495" lon="5.56976">
        <ele>1475</ele>
        <time>2021-09-25T10:24:11.000Z</time>
      </trkpt>
      <trkpt lat="44.26494" lon="5.56976">
        <ele>1475</ele>
        <time>2021-09-25T10:24:13.000Z</time>
      </trkpt>
      <trkpt lat="44.26492" lon="5.56977">
        <ele>1475.5999755859</ele>
        <time>2021-09-25T10:24:18.000Z</time>
      </trkpt>
      <trkpt lat="44.2649" lon="5.56976">
        <ele>1475.8000488281</ele>
        <time>2021-09-25T10:24:21.000Z</time>
      </trkpt>
      <trkpt lat="44.26489" lon="5.56977">
        <ele>1476</ele>
        <time>2021-09-25T10:24:23.000Z</time>
      </trkpt>
      <trkpt lat="44.26489" lon="5.56977">
        <ele>1476.1999511719</ele>
        <time>2021-09-25T10:24:29.000Z</time>
      </trkpt>
      <trkpt lat="44.26488" lon="5.5698">
        <ele>1476.1999511719</ele>
        <time>2021-09-25T10:24:35.000Z</time>
      </trkpt>
      <trkpt lat="44.26487" lon="5.56982">
        <ele>1476.5999755859</ele>
        <time>2021-09-25T10:24:38.000Z</time>
      </trkpt>
      <trkpt lat="44.26486" lon="5.56983">
        <ele>1477.1999511719</ele>
        <time>2021-09-25T10:24:40.000Z</time>
      </trkpt>
      <trkpt lat="44.26485" lon="5.56983">
        <ele>1477.4000244141</ele>
        <time>2021-09-25T10:24:41.000Z</time>
      </trkpt>
      <trkpt lat="44.26483" lon="5.56985">
        <ele>1477.8000488281</ele>
        <time>2021-09-25T10:24:45.000Z</time>
      </trkpt>
      <trkpt lat="44.26482" lon="5.56986">
        <ele>1478.4000244141</ele>
        <time>2021-09-25T10:24:48.000Z</time>
      </trkpt>
      <trkpt lat="44.26482" lon="5.56991">
        <ele>1478.8000488281</ele>
        <time>2021-09-25T10:24:56.000Z</time>
      </trkpt>
      <trkpt lat="44.26481" lon="5.56994">
        <ele>1479.1999511719</ele>
        <time>2021-09-25T10:25:00.000Z</time>
      </trkpt>
      <trkpt lat="44.26481" lon="5.56994">
        <ele>1479.5999755859</ele>
        <time>2021-09-25T10:25:01.000Z</time>
      </trkpt>
      <trkpt lat="44.26479" lon="5.56994">
        <ele>1479.8000488281</ele>
        <time>2021-09-25T10:25:03.000Z</time>
      </trkpt>
      <trkpt lat="44.26478" lon="5.56996">
        <ele>1480.5999755859</ele>
        <time>2021-09-25T10:25:07.000Z</time>
      </trkpt>
      <trkpt lat="44.26477" lon="5.56997">
        <ele>1481.1999511719</ele>
        <time>2021-09-25T10:25:10.000Z</time>
      </trkpt>
      <trkpt lat="44.26474" lon="5.56999">
        <ele>1482</ele>
        <time>2021-09-25T10:25:14.000Z</time>
      </trkpt>
      <trkpt lat="44.26472" lon="5.56999">
        <ele>1482.4000244141</ele>
        <time>2021-09-25T10:25:17.000Z</time>
      </trkpt>
      <trkpt lat="44.2647" lon="5.57001">
        <ele>1483</ele>
        <time>2021-09-25T10:25:22.000Z</time>
      </trkpt>
      <trkpt lat="44.2647" lon="5.57001">
        <ele>1483</ele>
        <time>2021-09-25T10:25:23.000Z</time>
      </trkpt>
      <trkpt lat="44.26468" lon="5.57004">
        <ele>1484</ele>
        <time>2021-09-25T10:25:29.000Z</time>
      </trkpt>
      <trkpt lat="44.26467" lon="5.57005">
        <ele>1484.8000488281</ele>
        <time>2021-09-25T10:25:31.000Z</time>
      </trkpt>
      <trkpt lat="44.26467" lon="5.57006">
        <ele>1485.1999511719</ele>
        <time>2021-09-25T10:25:32.000Z</time>
      </trkpt>
      <trkpt lat="44.26467" lon="5.57007">
        <ele>1485.5999755859</ele>
        <time>2021-09-25T10:25:37.000Z</time>
      </trkpt>
      <trkpt lat="44.26462" lon="5.57009">
        <ele>1485.1999511719</ele>
        <time>2021-09-25T10:25:44.000Z</time>
      </trkpt>
      <trkpt lat="44.2646" lon="5.57011">
        <ele>1486.1999511719</ele>
        <time>2021-09-25T10:25:48.000Z</time>
      </trkpt>
      <trkpt lat="44.26458" lon="5.57012">
        <ele>1486.8000488281</ele>
        <time>2021-09-25T10:25:51.000Z</time>
      </trkpt>
      <trkpt lat="44.26458" lon="5.57013">
        <ele>1486.8000488281</ele>
        <time>2021-09-25T10:25:52.000Z</time>
      </trkpt>
      <trkpt lat="44.26457" lon="5.57014">
        <ele>1487.4000244141</ele>
        <time>2021-09-25T10:25:56.000Z</time>
      </trkpt>
      <trkpt lat="44.26457" lon="5.57015">
        <ele>1487.4000244141</ele>
        <time>2021-09-25T10:25:58.000Z</time>
      </trkpt>
      <trkpt lat="44.26456" lon="5.57019">
        <ele>1488.4000244141</ele>
        <time>2021-09-25T10:26:02.000Z</time>
      </trkpt>
      <trkpt lat="44.26455" lon="5.57019">
        <ele>1489</ele>
        <time>2021-09-25T10:26:04.000Z</time>
      </trkpt>
      <trkpt lat="44.26454" lon="5.57019">
        <ele>1489.5999755859</ele>
        <time>2021-09-25T10:26:06.000Z</time>
      </trkpt>
      <trkpt lat="44.26453" lon="5.57021">
        <ele>1490</ele>
        <time>2021-09-25T10:26:10.000Z</time>
      </trkpt>
      <trkpt lat="44.26451" lon="5.57028">
        <ele>1490.8000488281</ele>
        <time>2021-09-25T10:26:17.000Z</time>
      </trkpt>
      <trkpt lat="44.26451" lon="5.57029">
        <ele>1490.8000488281</ele>
        <time>2021-09-25T10:26:18.000Z</time>
      </trkpt>
      <trkpt lat="44.26451" lon="5.57031">
        <ele>1491.4000244141</ele>
        <time>2021-09-25T10:26:23.000Z</time>
      </trkpt>
      <trkpt lat="44.2645" lon="5.57031">
        <ele>1491.5999755859</ele>
        <time>2021-09-25T10:26:30.000Z</time>
      </trkpt>
      <trkpt lat="44.2645" lon="5.57032">
        <ele>1491.8000488281</ele>
        <time>2021-09-25T10:26:31.000Z</time>
      </trkpt>
      <trkpt lat="44.26449" lon="5.57035">
        <ele>1492.4000244141</ele>
        <time>2021-09-25T10:26:36.000Z</time>
      </trkpt>
      <trkpt lat="44.26449" lon="5.57036">
        <ele>1492.4000244141</ele>
        <time>2021-09-25T10:26:37.000Z</time>
      </trkpt>
      <trkpt lat="44.26449" lon="5.57037">
        <ele>1492.8000488281</ele>
        <time>2021-09-25T10:26:39.000Z</time>
      </trkpt>
      <trkpt lat="44.26449" lon="5.57037">
        <ele>1493</ele>
        <time>2021-09-25T10:26:40.000Z</time>
      </trkpt>
      <trkpt lat="44.26449" lon="5.57038">
        <ele>1493</ele>
        <time>2021-09-25T10:26:41.000Z</time>
      </trkpt>
      <trkpt lat="44.26449" lon="5.57038">
        <ele>1493.1999511719</ele>
        <time>2021-09-25T10:26:42.000Z</time>
      </trkpt>
      <trkpt lat="44.26448" lon="5.57039">
        <ele>1493.8000488281</ele>
        <time>2021-09-25T10:26:44.000Z</time>
      </trkpt>
      <trkpt lat="44.26447" lon="5.57039">
        <ele>1494</ele>
        <time>2021-09-25T10:26:45.000Z</time>
      </trkpt>
      <trkpt lat="44.26445" lon="5.5704">
        <ele>1495</ele>
        <time>2021-09-25T10:26:48.000Z</time>
      </trkpt>
      <trkpt lat="44.26443" lon="5.57041">
        <ele>1496.1999511719</ele>
        <time>2021-09-25T10:26:51.000Z</time>
      </trkpt>
      <trkpt lat="44.2644" lon="5.57041">
        <ele>1497.4000244141</ele>
        <time>2021-09-25T10:26:55.000Z</time>
      </trkpt>
      <trkpt lat="44.26439" lon="5.57043">
        <ele>1497.5999755859</ele>
        <time>2021-09-25T10:26:58.000Z</time>
      </trkpt>
      <trkpt lat="44.26437" lon="5.57044">
        <ele>1497.8000488281</ele>
        <time>2021-09-25T10:27:00.000Z</time>
      </trkpt>
      <trkpt lat="44.26435" lon="5.57044">
        <ele>1498</ele>
        <time>2021-09-25T10:27:04.000Z</time>
      </trkpt>
      <trkpt lat="44.26433" lon="5.57046">
        <ele>1498.1999511719</ele>
        <time>2021-09-25T10:27:10.000Z</time>
      </trkpt>
      <trkpt lat="44.26432" lon="5.57047">
        <ele>1498.4000244141</ele>
        <time>2021-09-25T10:27:11.000Z</time>
      </trkpt>
      <trkpt lat="44.26427" lon="5.57046">
        <ele>1498.1999511719</ele>
        <time>2021-09-25T10:27:17.000Z</time>
      </trkpt>
      <trkpt lat="44.26424" lon="5.57045">
        <ele>1499.4000244141</ele>
        <time>2021-09-25T10:27:21.000Z</time>
      </trkpt>
      <trkpt lat="44.26423" lon="5.57045">
        <ele>1499.5999755859</ele>
        <time>2021-09-25T10:27:22.000Z</time>
      </trkpt>
      <trkpt lat="44.26421" lon="5.57045">
        <ele>1499.5999755859</ele>
        <time>2021-09-25T10:27:23.000Z</time>
      </trkpt>
      <trkpt lat="44.26417" lon="5.57047">
        <ele>1499.8000488281</ele>
        <time>2021-09-25T10:27:29.000Z</time>
      </trkpt>
      <trkpt lat="44.26419" lon="5.57049">
        <ele>1500.1999511719</ele>
        <time>2021-09-25T10:27:35.000Z</time>
      </trkpt>
      <trkpt lat="44.26421" lon="5.57049">
        <ele>1499.8000488281</ele>
        <time>2021-09-25T10:27:42.000Z</time>
      </trkpt>
      <trkpt lat="44.26421" lon="5.5705">
        <ele>1499.8000488281</ele>
        <time>2021-09-25T10:27:45.000Z</time>
      </trkpt>
      <trkpt lat="44.26422" lon="5.5705">
        <ele>1500</ele>
        <time>2021-09-25T10:27:46.000Z</time>
      </trkpt>
      <trkpt lat="44.26422" lon="5.5705">
        <ele>1500</ele>
        <time>2021-09-25T10:27:47.000Z</time>
      </trkpt>
      <trkpt lat="44.26422" lon="5.5705">
        <ele>1500.1999511719</ele>
        <time>2021-09-25T10:27:51.000Z</time>
      </trkpt>
      <trkpt lat="44.26422" lon="5.5705">
        <ele>1500.4000244141</ele>
        <time>2021-09-25T10:27:55.000Z</time>
      </trkpt>
      <trkpt lat="44.26421" lon="5.5705">
        <ele>1499.8000488281</ele>
        <time>2021-09-25T10:27:59.000Z</time>
      </trkpt>
      <trkpt lat="44.26421" lon="5.5705">
        <ele>1499.8000488281</ele>
        <time>2021-09-25T10:28:01.000Z</time>
      </trkpt>
      <trkpt lat="44.26421" lon="5.5705">
        <ele>1499.5999755859</ele>
        <time>2021-09-25T10:28:03.000Z</time>
      </trkpt>
      <trkpt lat="44.2642" lon="5.5705">
        <ele>1499.5999755859</ele>
        <time>2021-09-25T10:28:07.000Z</time>
      </trkpt>
      <trkpt lat="44.26419" lon="5.57051">
        <ele>1500.1999511719</ele>
        <time>2021-09-25T10:28:13.000Z</time>
      </trkpt>
      <trkpt lat="44.26419" lon="5.57051">
        <ele>1499.8000488281</ele>
        <time>2021-09-25T10:28:15.000Z</time>
      </trkpt>
      <trkpt lat="44.2642" lon="5.57052">
        <ele>1499</ele>
        <time>2021-09-25T10:28:20.000Z</time>
      </trkpt>
      <trkpt lat="44.26416" lon="5.5705">
        <ele>1499</ele>
        <time>2021-09-25T10:28:28.000Z</time>
      </trkpt>
      <trkpt lat="44.26417" lon="5.57051">
        <ele>1499</ele>
        <time>2021-09-25T10:28:34.000Z</time>
      </trkpt>
      <trkpt lat="44.26417" lon="5.57051">
        <ele>1499</ele>
        <time>2021-09-25T10:28:36.000Z</time>
      </trkpt>
      <trkpt lat="44.26418" lon="5.57053">
        <ele>1499</ele>
        <time>2021-09-25T10:28:45.000Z</time>
      </trkpt>
      <trkpt lat="44.26418" lon="5.57051">
        <ele>1499</ele>
        <time>2021-09-25T10:28:52.000Z</time>
      </trkpt>
      <trkpt lat="44.26417" lon="5.57051">
        <ele>1499</ele>
        <time>2021-09-25T10:28:57.000Z</time>
      </trkpt>
      <trkpt lat="44.26417" lon="5.57051">
        <ele>1499</ele>
        <time>2021-09-25T10:29:00.000Z</time>
      </trkpt>
      <trkpt lat="44.26417" lon="5.57052">
        <ele>1499</ele>
        <time>2021-09-25T10:29:09.000Z</time>
      </trkpt>
      <trkpt lat="44.26418" lon="5.57052">
        <ele>1499</ele>
        <time>2021-09-25T10:29:14.000Z</time>
      </trkpt>
      <trkpt lat="44.26419" lon="5.57052">
        <ele>1499</ele>
        <time>2021-09-25T10:29:19.000Z</time>
      </trkpt>
      <trkpt lat="44.26419" lon="5.57052">
        <ele>1499</ele>
        <time>2021-09-25T10:29:20.000Z</time>
      </trkpt>
      <trkpt lat="44.26418" lon="5.57051">
        <ele>1499</ele>
        <time>2021-09-25T10:29:27.000Z</time>
      </trkpt>
      <trkpt lat="44.26418" lon="5.57052">
        <ele>1499</ele>
        <time>2021-09-25T10:29:32.000Z</time>
      </trkpt>
      <trkpt lat="44.26418" lon="5.5705">
        <ele>1499</ele>
        <time>2021-09-25T10:29:41.000Z</time>
      </trkpt>
      <trkpt lat="44.26417" lon="5.57052">
        <ele>1499</ele>
        <time>2021-09-25T10:29:49.000Z</time>
      </trkpt>
      <trkpt lat="44.26415" lon="5.57052">
        <ele>1499</ele>
        <time>2021-09-25T10:29:55.000Z</time>
      </trkpt>
      <trkpt lat="44.26414" lon="5.57053">
        <ele>1499</ele>
        <time>2021-09-25T10:29:57.000Z</time>
      </trkpt>
      <trkpt lat="44.26412" lon="5.57055">
        <ele>1499</ele>
        <time>2021-09-25T10:30:02.000Z</time>
      </trkpt>
      <trkpt lat="44.2641" lon="5.57056">
        <ele>1499</ele>
        <time>2021-09-25T10:30:05.000Z</time>
      </trkpt>
      <trkpt lat="44.26408" lon="5.57055">
        <ele>1499</ele>
        <time>2021-09-25T10:30:07.000Z</time>
      </trkpt>
      <trkpt lat="44.26406" lon="5.57055">
        <ele>1499</ele>
        <time>2021-09-25T10:30:09.000Z</time>
      </trkpt>
      <trkpt lat="44.26402" lon="5.57057">
        <ele>1499</ele>
        <time>2021-09-25T10:30:15.000Z</time>
      </trkpt>
      <trkpt lat="44.26401" lon="5.57058">
        <ele>1498.5999755859</ele>
        <time>2021-09-25T10:30:21.000Z</time>
      </trkpt>
      <trkpt lat="44.264" lon="5.57058">
        <ele>1498.4000244141</ele>
        <time>2021-09-25T10:30:22.000Z</time>
      </trkpt>
      <trkpt lat="44.26397" lon="5.5706">
        <ele>1498.4000244141</ele>
        <time>2021-09-25T10:30:29.000Z</time>
      </trkpt>
      <trkpt lat="44.26394" lon="5.57062">
        <ele>1498.4000244141</ele>
        <time>2021-09-25T10:30:33.000Z</time>
      </trkpt>
      <trkpt lat="44.26392" lon="5.57063">
        <ele>1498.5999755859</ele>
        <time>2021-09-25T10:30:37.000Z</time>
      </trkpt>
      <trkpt lat="44.26391" lon="5.57065">
        <ele>1498.5999755859</ele>
        <time>2021-09-25T10:30:40.000Z</time>
      </trkpt>
      <trkpt lat="44.2639" lon="5.57066">
        <ele>1498.8000488281</ele>
        <time>2021-09-25T10:30:43.000Z</time>
      </trkpt>
      <trkpt lat="44.26389" lon="5.57066">
        <ele>1498.8000488281</ele>
        <time>2021-09-25T10:30:44.000Z</time>
      </trkpt>
      <trkpt lat="44.26386" lon="5.57067">
        <ele>1498.8000488281</ele>
        <time>2021-09-25T10:30:47.000Z</time>
      </trkpt>
      <trkpt lat="44.26384" lon="5.57069">
        <ele>1498.5999755859</ele>
        <time>2021-09-25T10:30:51.000Z</time>
      </trkpt>
      <trkpt lat="44.26382" lon="5.57071">
        <ele>1498.4000244141</ele>
        <time>2021-09-25T10:30:54.000Z</time>
      </trkpt>
      <trkpt lat="44.26381" lon="5.57071">
        <ele>1498.1999511719</ele>
        <time>2021-09-25T10:30:55.000Z</time>
      </trkpt>
      <trkpt lat="44.2638" lon="5.57074">
        <ele>1497.8000488281</ele>
        <time>2021-09-25T10:30:59.000Z</time>
      </trkpt>
      <trkpt lat="44.26378" lon="5.57077">
        <ele>1498.1999511719</ele>
        <time>2021-09-25T10:31:06.000Z</time>
      </trkpt>
      <trkpt lat="44.26375" lon="5.57078">
        <ele>1497.4000244141</ele>
        <time>2021-09-25T10:31:11.000Z</time>
      </trkpt>
      <trkpt lat="44.26375" lon="5.57078">
        <ele>1497.4000244141</ele>
        <time>2021-09-25T10:31:12.000Z</time>
      </trkpt>
      <trkpt lat="44.26374" lon="5.57078">
        <ele>1497.1999511719</ele>
        <time>2021-09-25T10:31:14.000Z</time>
      </trkpt>
      <trkpt lat="44.26372" lon="5.57081">
        <ele>1497.1999511719</ele>
        <time>2021-09-25T10:31:19.000Z</time>
      </trkpt>
      <trkpt lat="44.26371" lon="5.57081">
        <ele>1497.1999511719</ele>
        <time>2021-09-25T10:31:26.000Z</time>
      </trkpt>
      <trkpt lat="44.26368" lon="5.57078">
        <ele>1497</ele>
        <time>2021-09-25T10:31:31.000Z</time>
      </trkpt>
      <trkpt lat="44.26368" lon="5.57084">
        <ele>1497</ele>
        <time>2021-09-25T10:31:37.000Z</time>
      </trkpt>
      <trkpt lat="44.26368" lon="5.57085">
        <ele>1497.1999511719</ele>
        <time>2021-09-25T10:31:39.000Z</time>
      </trkpt>
      <trkpt lat="44.26366" lon="5.57088">
        <ele>1497.4000244141</ele>
        <time>2021-09-25T10:31:44.000Z</time>
      </trkpt>
      <trkpt lat="44.26365" lon="5.57089">
        <ele>1497.4000244141</ele>
        <time>2021-09-25T10:31:46.000Z</time>
      </trkpt>
      <trkpt lat="44.26363" lon="5.57091">
        <ele>1497</ele>
        <time>2021-09-25T10:31:52.000Z</time>
      </trkpt>
      <trkpt lat="44.26363" lon="5.57092">
        <ele>1496.8000488281</ele>
        <time>2021-09-25T10:31:59.000Z</time>
      </trkpt>
      <trkpt lat="44.26362" lon="5.57092">
        <ele>1496.5999755859</ele>
        <time>2021-09-25T10:32:01.000Z</time>
      </trkpt>
      <trkpt lat="44.26362" lon="5.57092">
        <ele>1496.1999511719</ele>
        <time>2021-09-25T10:32:02.000Z</time>
      </trkpt>
      <trkpt lat="44.26362" lon="5.57093">
        <ele>1496.1999511719</ele>
        <time>2021-09-25T10:32:03.000Z</time>
      </trkpt>
      <trkpt lat="44.26362" lon="5.57092">
        <ele>1496</ele>
        <time>2021-09-25T10:32:06.000Z</time>
      </trkpt>
      <trkpt lat="44.26361" lon="5.57093">
        <ele>1496</ele>
        <time>2021-09-25T10:32:15.000Z</time>
      </trkpt>
      <trkpt lat="44.26358" lon="5.57096">
        <ele>1496.1999511719</ele>
        <time>2021-09-25T10:32:21.000Z</time>
      </trkpt>
      <trkpt lat="44.26356" lon="5.57096">
        <ele>1496</ele>
        <time>2021-09-25T10:32:28.000Z</time>
      </trkpt>
      <trkpt lat="44.26355" lon="5.57094">
        <ele>1496.1999511719</ele>
        <time>2021-09-25T10:32:33.000Z</time>
      </trkpt>
      <trkpt lat="44.26353" lon="5.57094">
        <ele>1496.1999511719</ele>
        <time>2021-09-25T10:32:36.000Z</time>
      </trkpt>
      <trkpt lat="44.26351" lon="5.57095">
        <ele>1496</ele>
        <time>2021-09-25T10:32:40.000Z</time>
      </trkpt>
      <trkpt lat="44.26351" lon="5.57098">
        <ele>1496.4000244141</ele>
        <time>2021-09-25T10:32:44.000Z</time>
      </trkpt>
      <trkpt lat="44.26349" lon="5.571">
        <ele>1496.1999511719</ele>
        <time>2021-09-25T10:32:52.000Z</time>
      </trkpt>
      <trkpt lat="44.26348" lon="5.57103">
        <ele>1495.5999755859</ele>
        <time>2021-09-25T10:32:55.000Z</time>
      </trkpt>
      <trkpt lat="44.26347" lon="5.57107">
        <ele>1495.4000244141</ele>
        <time>2021-09-25T10:32:58.000Z</time>
      </trkpt>
      <trkpt lat="44.26346" lon="5.57108">
        <ele>1495.4000244141</ele>
        <time>2021-09-25T10:32:59.000Z</time>
      </trkpt>
      <trkpt lat="44.26346" lon="5.57109">
        <ele>1495.4000244141</ele>
        <time>2021-09-25T10:33:00.000Z</time>
      </trkpt>
      <trkpt lat="44.26346" lon="5.57114">
        <ele>1495.1999511719</ele>
        <time>2021-09-25T10:33:02.000Z</time>
      </trkpt>
      <trkpt lat="44.26345" lon="5.57116">
        <ele>1495.1999511719</ele>
        <time>2021-09-25T10:33:04.000Z</time>
      </trkpt>
      <trkpt lat="44.26343" lon="5.57125">
        <ele>1494.8000488281</ele>
        <time>2021-09-25T10:33:12.000Z</time>
      </trkpt>
      <trkpt lat="44.26343" lon="5.57128">
        <ele>1494.8000488281</ele>
        <time>2021-09-25T10:33:15.000Z</time>
      </trkpt>
      <trkpt lat="44.26341" lon="5.5713">
        <ele>1494.1999511719</ele>
        <time>2021-09-25T10:33:18.000Z</time>
      </trkpt>
      <trkpt lat="44.2634" lon="5.5713">
        <ele>1494</ele>
        <time>2021-09-25T10:33:19.000Z</time>
      </trkpt>
      <trkpt lat="44.2634" lon="5.5713">
        <ele>1493.5999755859</ele>
        <time>2021-09-25T10:33:20.000Z</time>
      </trkpt>
      <trkpt lat="44.2634" lon="5.57131">
        <ele>1493.1999511719</ele>
        <time>2021-09-25T10:33:22.000Z</time>
      </trkpt>
      <trkpt lat="44.26339" lon="5.5713">
        <ele>1493</ele>
        <time>2021-09-25T10:33:24.000Z</time>
      </trkpt>
      <trkpt lat="44.26339" lon="5.5713">
        <ele>1493</ele>
        <time>2021-09-25T10:33:25.000Z</time>
      </trkpt>
      <trkpt lat="44.26339" lon="5.5713">
        <ele>1493</ele>
        <time>2021-09-25T10:33:26.000Z</time>
      </trkpt>
      <trkpt lat="44.26339" lon="5.5713">
        <ele>1493</ele>
        <time>2021-09-25T10:33:27.000Z</time>
      </trkpt>
      <trkpt lat="44.26337" lon="5.57132">
        <ele>1493.1999511719</ele>
        <time>2021-09-25T10:33:32.000Z</time>
      </trkpt>
      <trkpt lat="44.26336" lon="5.57133">
        <ele>1492</ele>
        <time>2021-09-25T10:33:35.000Z</time>
      </trkpt>
      <trkpt lat="44.26335" lon="5.57134">
        <ele>1491.5999755859</ele>
        <time>2021-09-25T10:33:37.000Z</time>
      </trkpt>
      <trkpt lat="44.26334" lon="5.57134">
        <ele>1491.5999755859</ele>
        <time>2021-09-25T10:33:38.000Z</time>
      </trkpt>
      <trkpt lat="44.26333" lon="5.57136">
        <ele>1491</ele>
        <time>2021-09-25T10:33:41.000Z</time>
      </trkpt>
      <trkpt lat="44.26331" lon="5.57137">
        <ele>1490.8000488281</ele>
        <time>2021-09-25T10:33:45.000Z</time>
      </trkpt>
      <trkpt lat="44.2633" lon="5.57141">
        <ele>1490.1999511719</ele>
        <time>2021-09-25T10:33:50.000Z</time>
      </trkpt>
      <trkpt lat="44.2633" lon="5.57142">
        <ele>1490</ele>
        <time>2021-09-25T10:33:51.000Z</time>
      </trkpt>
      <trkpt lat="44.26328" lon="5.57143">
        <ele>1490</ele>
        <time>2021-09-25T10:33:53.000Z</time>
      </trkpt>
      <trkpt lat="44.26325" lon="5.57145">
        <ele>1489.5999755859</ele>
        <time>2021-09-25T10:33:58.000Z</time>
      </trkpt>
      <trkpt lat="44.26324" lon="5.57146">
        <ele>1488.8000488281</ele>
        <time>2021-09-25T10:34:01.000Z</time>
      </trkpt>
      <trkpt lat="44.26323" lon="5.57146">
        <ele>1488.5999755859</ele>
        <time>2021-09-25T10:34:03.000Z</time>
      </trkpt>
      <trkpt lat="44.26321" lon="5.57147">
        <ele>1488.5999755859</ele>
        <time>2021-09-25T10:34:06.000Z</time>
      </trkpt>
      <trkpt lat="44.26319" lon="5.57146">
        <ele>1488.1999511719</ele>
        <time>2021-09-25T10:34:09.000Z</time>
      </trkpt>
      <trkpt lat="44.26316" lon="5.57149">
        <ele>1487.8000488281</ele>
        <time>2021-09-25T10:34:13.000Z</time>
      </trkpt>
      <trkpt lat="44.26316" lon="5.5715">
        <ele>1487.8000488281</ele>
        <time>2021-09-25T10:34:14.000Z</time>
      </trkpt>
      <trkpt lat="44.26315" lon="5.57151">
        <ele>1487.8000488281</ele>
        <time>2021-09-25T10:34:16.000Z</time>
      </trkpt>
      <trkpt lat="44.26314" lon="5.57151">
        <ele>1487.5999755859</ele>
        <time>2021-09-25T10:34:17.000Z</time>
      </trkpt>
      <trkpt lat="44.26312" lon="5.57152">
        <ele>1487.4000244141</ele>
        <time>2021-09-25T10:34:19.000Z</time>
      </trkpt>
      <trkpt lat="44.26312" lon="5.57153">
        <ele>1487.1999511719</ele>
        <time>2021-09-25T10:34:20.000Z</time>
      </trkpt>
      <trkpt lat="44.26311" lon="5.57154">
        <ele>1486.8000488281</ele>
        <time>2021-09-25T10:34:21.000Z</time>
      </trkpt>
      <trkpt lat="44.26311" lon="5.57154">
        <ele>1486.5999755859</ele>
        <time>2021-09-25T10:34:22.000Z</time>
      </trkpt>
      <trkpt lat="44.2631" lon="5.57156">
        <ele>1486.8000488281</ele>
        <time>2021-09-25T10:34:24.000Z</time>
      </trkpt>
      <trkpt lat="44.2631" lon="5.57156">
        <ele>1487</ele>
        <time>2021-09-25T10:34:26.000Z</time>
      </trkpt>
      <trkpt lat="44.26307" lon="5.57156">
        <ele>1486.5999755859</ele>
        <time>2021-09-25T10:34:30.000Z</time>
      </trkpt>
      <trkpt lat="44.26304" lon="5.57157">
        <ele>1485.5999755859</ele>
        <time>2021-09-25T10:34:34.000Z</time>
      </trkpt>
      <trkpt lat="44.26303" lon="5.57157">
        <ele>1485.5999755859</ele>
        <time>2021-09-25T10:34:35.000Z</time>
      </trkpt>
      <trkpt lat="44.263" lon="5.57159">
        <ele>1485.4000244141</ele>
        <time>2021-09-25T10:34:39.000Z</time>
      </trkpt>
      <trkpt lat="44.26298" lon="5.5716">
        <ele>1485.4000244141</ele>
        <time>2021-09-25T10:34:41.000Z</time>
      </trkpt>
      <trkpt lat="44.26298" lon="5.5716">
        <ele>1485.4000244141</ele>
        <time>2021-09-25T10:34:42.000Z</time>
      </trkpt>
      <trkpt lat="44.26294" lon="5.57163">
        <ele>1484.8000488281</ele>
        <time>2021-09-25T10:34:47.000Z</time>
      </trkpt>
      <trkpt lat="44.26293" lon="5.57164">
        <ele>1485</ele>
        <time>2021-09-25T10:34:49.000Z</time>
      </trkpt>
      <trkpt lat="44.26291" lon="5.57167">
        <ele>1485.1999511719</ele>
        <time>2021-09-25T10:34:52.000Z</time>
      </trkpt>
      <trkpt lat="44.2629" lon="5.57169">
        <ele>1485.5999755859</ele>
        <time>2021-09-25T10:34:54.000Z</time>
      </trkpt>
      <trkpt lat="44.26289" lon="5.5717">
        <ele>1485.5999755859</ele>
        <time>2021-09-25T10:34:56.000Z</time>
      </trkpt>
      <trkpt lat="44.26284" lon="5.57172">
        <ele>1485.5999755859</ele>
        <time>2021-09-25T10:35:01.000Z</time>
      </trkpt>
      <trkpt lat="44.26279" lon="5.57176">
        <ele>1485.1999511719</ele>
        <time>2021-09-25T10:35:08.000Z</time>
      </trkpt>
      <trkpt lat="44.26275" lon="5.57177">
        <ele>1485.8000488281</ele>
        <time>2021-09-25T10:35:13.000Z</time>
      </trkpt>
      <trkpt lat="44.26275" lon="5.57177">
        <ele>1486.1999511719</ele>
        <time>2021-09-25T10:35:14.000Z</time>
      </trkpt>
      <trkpt lat="44.26272" lon="5.57178">
        <ele>1486.4000244141</ele>
        <time>2021-09-25T10:35:18.000Z</time>
      </trkpt>
      <trkpt lat="44.26271" lon="5.57178">
        <ele>1486.5999755859</ele>
        <time>2021-09-25T10:35:19.000Z</time>
      </trkpt>
      <trkpt lat="44.2627" lon="5.57179">
        <ele>1486.5999755859</ele>
        <time>2021-09-25T10:35:21.000Z</time>
      </trkpt>
      <trkpt lat="44.26269" lon="5.57179">
        <ele>1486.5999755859</ele>
        <time>2021-09-25T10:35:22.000Z</time>
      </trkpt>
      <trkpt lat="44.26268" lon="5.57179">
        <ele>1486.8000488281</ele>
        <time>2021-09-25T10:35:24.000Z</time>
      </trkpt>
      <trkpt lat="44.26265" lon="5.57179">
        <ele>1487.1999511719</ele>
        <time>2021-09-25T10:35:27.000Z</time>
      </trkpt>
      <trkpt lat="44.26263" lon="5.57181">
        <ele>1487.5999755859</ele>
        <time>2021-09-25T10:35:31.000Z</time>
      </trkpt>
      <trkpt lat="44.26261" lon="5.57183">
        <ele>1487.8000488281</ele>
        <time>2021-09-25T10:35:33.000Z</time>
      </trkpt>
      <trkpt lat="44.26261" lon="5.57184">
        <ele>1487.8000488281</ele>
        <time>2021-09-25T10:35:34.000Z</time>
      </trkpt>
      <trkpt lat="44.26257" lon="5.57186">
        <ele>1489</ele>
        <time>2021-09-25T10:35:40.000Z</time>
      </trkpt>
      <trkpt lat="44.26256" lon="5.57186">
        <ele>1489.4000244141</ele>
        <time>2021-09-25T10:35:42.000Z</time>
      </trkpt>
      <trkpt lat="44.26254" lon="5.57188">
        <ele>1489.8000488281</ele>
        <time>2021-09-25T10:35:45.000Z</time>
      </trkpt>
      <trkpt lat="44.26254" lon="5.57189">
        <ele>1490.1999511719</ele>
        <time>2021-09-25T10:35:46.000Z</time>
      </trkpt>
      <trkpt lat="44.26252" lon="5.5719">
        <ele>1490.8000488281</ele>
        <time>2021-09-25T10:35:50.000Z</time>
      </trkpt>
      <trkpt lat="44.26251" lon="5.57191">
        <ele>1491.4000244141</ele>
        <time>2021-09-25T10:35:53.000Z</time>
      </trkpt>
      <trkpt lat="44.2625" lon="5.57191">
        <ele>1491.5999755859</ele>
        <time>2021-09-25T10:35:54.000Z</time>
      </trkpt>
      <trkpt lat="44.26249" lon="5.57192">
        <ele>1491.5999755859</ele>
        <time>2021-09-25T10:35:55.000Z</time>
      </trkpt>
      <trkpt lat="44.26248" lon="5.57192">
        <ele>1491.8000488281</ele>
        <time>2021-09-25T10:35:56.000Z</time>
      </trkpt>
      <trkpt lat="44.26248" lon="5.57193">
        <ele>1492</ele>
        <time>2021-09-25T10:35:57.000Z</time>
      </trkpt>
      <trkpt lat="44.26247" lon="5.57193">
        <ele>1492.1999511719</ele>
        <time>2021-09-25T10:35:58.000Z</time>
      </trkpt>
      <trkpt lat="44.26246" lon="5.57195">
        <ele>1492.4000244141</ele>
        <time>2021-09-25T10:36:00.000Z</time>
      </trkpt>
      <trkpt lat="44.26245" lon="5.57195">
        <ele>1492.5999755859</ele>
        <time>2021-09-25T10:36:01.000Z</time>
      </trkpt>
      <trkpt lat="44.26244" lon="5.57196">
        <ele>1492.8000488281</ele>
        <time>2021-09-25T10:36:03.000Z</time>
      </trkpt>
      <trkpt lat="44.26244" lon="5.57197">
        <ele>1493</ele>
        <time>2021-09-25T10:36:04.000Z</time>
      </trkpt>
      <trkpt lat="44.26243" lon="5.57197">
        <ele>1493.1999511719</ele>
        <time>2021-09-25T10:36:05.000Z</time>
      </trkpt>
      <trkpt lat="44.26242" lon="5.57197">
        <ele>1493.4000244141</ele>
        <time>2021-09-25T10:36:06.000Z</time>
      </trkpt>
      <trkpt lat="44.2624" lon="5.57197">
        <ele>1493.5999755859</ele>
        <time>2021-09-25T10:36:08.000Z</time>
      </trkpt>
      <trkpt lat="44.26239" lon="5.57198">
        <ele>1493.8000488281</ele>
        <time>2021-09-25T10:36:10.000Z</time>
      </trkpt>
      <trkpt lat="44.26237" lon="5.57199">
        <ele>1494</ele>
        <time>2021-09-25T10:36:12.000Z</time>
      </trkpt>
      <trkpt lat="44.26237" lon="5.572">
        <ele>1494.1999511719</ele>
        <time>2021-09-25T10:36:13.000Z</time>
      </trkpt>
      <trkpt lat="44.26237" lon="5.572">
        <ele>1494.4000244141</ele>
        <time>2021-09-25T10:36:14.000Z</time>
      </trkpt>
      <trkpt lat="44.26236" lon="5.57201">
        <ele>1494.8000488281</ele>
        <time>2021-09-25T10:36:15.000Z</time>
      </trkpt>
      <trkpt lat="44.26232" lon="5.57203">
        <ele>1495.1999511719</ele>
        <time>2021-09-25T10:36:20.000Z</time>
      </trkpt>
      <trkpt lat="44.26229" lon="5.57205">
        <ele>1495.5999755859</ele>
        <time>2021-09-25T10:36:25.000Z</time>
      </trkpt>
      <trkpt lat="44.26226" lon="5.57205">
        <ele>1495.8000488281</ele>
        <time>2021-09-25T10:36:28.000Z</time>
      </trkpt>
      <trkpt lat="44.26226" lon="5.57206">
        <ele>1495.8000488281</ele>
        <time>2021-09-25T10:36:29.000Z</time>
      </trkpt>
      <trkpt lat="44.26221" lon="5.57208">
        <ele>1496.8000488281</ele>
        <time>2021-09-25T10:36:36.000Z</time>
      </trkpt>
      <trkpt lat="44.2622" lon="5.57208">
        <ele>1497</ele>
        <time>2021-09-25T10:36:37.000Z</time>
      </trkpt>
      <trkpt lat="44.26216" lon="5.57208">
        <ele>1497.8000488281</ele>
        <time>2021-09-25T10:36:43.000Z</time>
      </trkpt>
      <trkpt lat="44.26216" lon="5.57209">
        <ele>1498</ele>
        <time>2021-09-25T10:36:44.000Z</time>
      </trkpt>
      <trkpt lat="44.26214" lon="5.57211">
        <ele>1498.1999511719</ele>
        <time>2021-09-25T10:36:48.000Z</time>
      </trkpt>
      <trkpt lat="44.26208" lon="5.57212">
        <ele>1498.5999755859</ele>
        <time>2021-09-25T10:36:55.000Z</time>
      </trkpt>
      <trkpt lat="44.26206" lon="5.57213">
        <ele>1499</ele>
        <time>2021-09-25T10:36:58.000Z</time>
      </trkpt>
      <trkpt lat="44.26204" lon="5.57212">
        <ele>1499.1999511719</ele>
        <time>2021-09-25T10:37:01.000Z</time>
      </trkpt>
      <trkpt lat="44.26204" lon="5.57213">
        <ele>1499.1999511719</ele>
        <time>2021-09-25T10:37:02.000Z</time>
      </trkpt>
      <trkpt lat="44.26198" lon="5.57215">
        <ele>1500</ele>
        <time>2021-09-25T10:37:08.000Z</time>
      </trkpt>
      <trkpt lat="44.26195" lon="5.57217">
        <ele>1501</ele>
        <time>2021-09-25T10:37:13.000Z</time>
      </trkpt>
      <trkpt lat="44.26194" lon="5.57218">
        <ele>1501.1999511719</ele>
        <time>2021-09-25T10:37:14.000Z</time>
      </trkpt>
      <trkpt lat="44.26192" lon="5.57218">
        <ele>1501.1999511719</ele>
        <time>2021-09-25T10:37:17.000Z</time>
      </trkpt>
      <trkpt lat="44.26192" lon="5.57218">
        <ele>1501</ele>
        <time>2021-09-25T10:37:18.000Z</time>
      </trkpt>
      <trkpt lat="44.26187" lon="5.57219">
        <ele>1500.5999755859</ele>
        <time>2021-09-25T10:37:24.000Z</time>
      </trkpt>
      <trkpt lat="44.26182" lon="5.57219">
        <ele>1501.1999511719</ele>
        <time>2021-09-25T10:37:30.000Z</time>
      </trkpt>
      <trkpt lat="44.26179" lon="5.57223">
        <ele>1501</ele>
        <time>2021-09-25T10:37:36.000Z</time>
      </trkpt>
      <trkpt lat="44.26173" lon="5.57224">
        <ele>1501.1999511719</ele>
        <time>2021-09-25T10:37:43.000Z</time>
      </trkpt>
      <trkpt lat="44.26172" lon="5.57225">
        <ele>1501.4000244141</ele>
        <time>2021-09-25T10:37:44.000Z</time>
      </trkpt>
      <trkpt lat="44.2617" lon="5.57226">
        <ele>1501.5999755859</ele>
        <time>2021-09-25T10:37:46.000Z</time>
      </trkpt>
      <trkpt lat="44.26168" lon="5.57229">
        <ele>1501.5999755859</ele>
        <time>2021-09-25T10:37:50.000Z</time>
      </trkpt>
      <trkpt lat="44.26168" lon="5.5723">
        <ele>1501.1999511719</ele>
        <time>2021-09-25T10:37:53.000Z</time>
      </trkpt>
      <trkpt lat="44.26167" lon="5.57231">
        <ele>1501.1999511719</ele>
        <time>2021-09-25T10:37:55.000Z</time>
      </trkpt>
      <trkpt lat="44.26165" lon="5.57232">
        <ele>1501</ele>
        <time>2021-09-25T10:37:57.000Z</time>
      </trkpt>
      <trkpt lat="44.26161" lon="5.57233">
        <ele>1501.1999511719</ele>
        <time>2021-09-25T10:38:01.000Z</time>
      </trkpt>
      <trkpt lat="44.26156" lon="5.57233">
        <ele>1501.4000244141</ele>
        <time>2021-09-25T10:38:06.000Z</time>
      </trkpt>
      <trkpt lat="44.26152" lon="5.57233">
        <ele>1501.4000244141</ele>
        <time>2021-09-25T10:38:09.000Z</time>
      </trkpt>
      <trkpt lat="44.26144" lon="5.57234">
        <ele>1501.1999511719</ele>
        <time>2021-09-25T10:38:15.000Z</time>
      </trkpt>
      <trkpt lat="44.26141" lon="5.57234">
        <ele>1501</ele>
        <time>2021-09-25T10:38:17.000Z</time>
      </trkpt>
      <trkpt lat="44.26135" lon="5.57235">
        <ele>1500.8000488281</ele>
        <time>2021-09-25T10:38:20.000Z</time>
      </trkpt>
      <trkpt lat="44.26127" lon="5.57236">
        <ele>1500.8000488281</ele>
        <time>2021-09-25T10:38:27.000Z</time>
      </trkpt>
      <trkpt lat="44.26123" lon="5.57236">
        <ele>1500.8000488281</ele>
        <time>2021-09-25T10:38:30.000Z</time>
      </trkpt>
      <trkpt lat="44.2612" lon="5.57236">
        <ele>1500.8000488281</ele>
        <time>2021-09-25T10:38:33.000Z</time>
      </trkpt>
      <trkpt lat="44.26117" lon="5.57236">
        <ele>1500.1999511719</ele>
        <time>2021-09-25T10:38:36.000Z</time>
      </trkpt>
      <trkpt lat="44.26116" lon="5.57237">
        <ele>1500</ele>
        <time>2021-09-25T10:38:38.000Z</time>
      </trkpt>
      <trkpt lat="44.26116" lon="5.57238">
        <ele>1500</ele>
        <time>2021-09-25T10:38:40.000Z</time>
      </trkpt>
      <trkpt lat="44.26112" lon="5.57241">
        <ele>1499.8000488281</ele>
        <time>2021-09-25T10:38:44.000Z</time>
      </trkpt>
      <trkpt lat="44.26105" lon="5.57242">
        <ele>1499.4000244141</ele>
        <time>2021-09-25T10:38:50.000Z</time>
      </trkpt>
      <trkpt lat="44.26106" lon="5.57246">
        <ele>1499.5999755859</ele>
        <time>2021-09-25T10:38:52.000Z</time>
      </trkpt>
      <trkpt lat="44.26105" lon="5.57247">
        <ele>1499.5999755859</ele>
        <time>2021-09-25T10:38:53.000Z</time>
      </trkpt>
      <trkpt lat="44.26103" lon="5.57248">
        <ele>1500.1999511719</ele>
        <time>2021-09-25T10:38:57.000Z</time>
      </trkpt>
      <trkpt lat="44.26101" lon="5.57251">
        <ele>1500.1999511719</ele>
        <time>2021-09-25T10:38:59.000Z</time>
      </trkpt>
      <trkpt lat="44.26099" lon="5.57256">
        <ele>1500.5999755859</ele>
        <time>2021-09-25T10:39:03.000Z</time>
      </trkpt>
      <trkpt lat="44.26099" lon="5.57258">
        <ele>1500.8000488281</ele>
        <time>2021-09-25T10:39:06.000Z</time>
      </trkpt>
      <trkpt lat="44.261" lon="5.57258">
        <ele>1501</ele>
        <time>2021-09-25T10:39:07.000Z</time>
      </trkpt>
      <trkpt lat="44.261" lon="5.57258">
        <ele>1501.1999511719</ele>
        <time>2021-09-25T10:39:08.000Z</time>
      </trkpt>
      <trkpt lat="44.261" lon="5.57258">
        <ele>1501</ele>
        <time>2021-09-25T10:39:10.000Z</time>
      </trkpt>
      <trkpt lat="44.26097" lon="5.57257">
        <ele>1500.8000488281</ele>
        <time>2021-09-25T10:39:13.000Z</time>
      </trkpt>
      <trkpt lat="44.26096" lon="5.57257">
        <ele>1500.4000244141</ele>
        <time>2021-09-25T10:39:20.000Z</time>
      </trkpt>
      <trkpt lat="44.26096" lon="5.57256">
        <ele>1500.4000244141</ele>
        <time>2021-09-25T10:39:21.000Z</time>
      </trkpt>
      <trkpt lat="44.26094" lon="5.57254">
        <ele>1500.1999511719</ele>
        <time>2021-09-25T10:39:24.000Z</time>
      </trkpt>
      <trkpt lat="44.26093" lon="5.57253">
        <ele>1499.5999755859</ele>
        <time>2021-09-25T10:39:27.000Z</time>
      </trkpt>
      <trkpt lat="44.26092" lon="5.57252">
        <ele>1499.1999511719</ele>
        <time>2021-09-25T10:39:28.000Z</time>
      </trkpt>
      <trkpt lat="44.26089" lon="5.5725">
        <ele>1498.5999755859</ele>
        <time>2021-09-25T10:39:32.000Z</time>
      </trkpt>
      <trkpt lat="44.26087" lon="5.57251">
        <ele>1498.5999755859</ele>
        <time>2021-09-25T10:39:35.000Z</time>
      </trkpt>
      <trkpt lat="44.26086" lon="5.57251">
        <ele>1498.4000244141</ele>
        <time>2021-09-25T10:39:36.000Z</time>
      </trkpt>
      <trkpt lat="44.26081" lon="5.57246">
        <ele>1497.5999755859</ele>
        <time>2021-09-25T10:39:42.000Z</time>
      </trkpt>
      <trkpt lat="44.26081" lon="5.57246">
        <ele>1497.4000244141</ele>
        <time>2021-09-25T10:39:43.000Z</time>
      </trkpt>
      <trkpt lat="44.26078" lon="5.57247">
        <ele>1497.1999511719</ele>
        <time>2021-09-25T10:39:48.000Z</time>
      </trkpt>
      <trkpt lat="44.26078" lon="5.57247">
        <ele>1497.1999511719</ele>
        <time>2021-09-25T10:39:51.000Z</time>
      </trkpt>
      <trkpt lat="44.26078" lon="5.57246">
        <ele>1497.1999511719</ele>
        <time>2021-09-25T10:39:54.000Z</time>
      </trkpt>
      <trkpt lat="44.26077" lon="5.57247">
        <ele>1497</ele>
        <time>2021-09-25T10:39:58.000Z</time>
      </trkpt>
      <trkpt lat="44.26078" lon="5.57246">
        <ele>1497.1999511719</ele>
        <time>2021-09-25T10:40:01.000Z</time>
      </trkpt>
      <trkpt lat="44.26078" lon="5.57246">
        <ele>1497.5999755859</ele>
        <time>2021-09-25T10:40:08.000Z</time>
      </trkpt>
      <trkpt lat="44.26077" lon="5.57246">
        <ele>1497.1999511719</ele>
        <time>2021-09-25T10:40:11.000Z</time>
      </trkpt>
      <trkpt lat="44.26077" lon="5.57246">
        <ele>1497.1999511719</ele>
        <time>2021-09-25T10:40:16.000Z</time>
      </trkpt>
      <trkpt lat="44.26078" lon="5.57245">
        <ele>1497.1999511719</ele>
        <time>2021-09-25T10:40:19.000Z</time>
      </trkpt>
      <trkpt lat="44.26077" lon="5.57247">
        <ele>1497.1999511719</ele>
        <time>2021-09-25T10:40:23.000Z</time>
      </trkpt>
      <trkpt lat="44.26078" lon="5.57248">
        <ele>1497.1999511719</ele>
        <time>2021-09-25T10:40:28.000Z</time>
      </trkpt>
      <trkpt lat="44.26077" lon="5.57248">
        <ele>1497.1999511719</ele>
        <time>2021-09-25T10:40:29.000Z</time>
      </trkpt>
      <trkpt lat="44.26078" lon="5.57248">
        <ele>1497.1999511719</ele>
        <time>2021-09-25T10:40:31.000Z</time>
      </trkpt>
      <trkpt lat="44.26078" lon="5.57249">
        <ele>1497.1999511719</ele>
        <time>2021-09-25T10:40:37.000Z</time>
      </trkpt>
      <trkpt lat="44.26078" lon="5.57248">
        <ele>1497.1999511719</ele>
        <time>2021-09-25T10:40:45.000Z</time>
      </trkpt>
      <trkpt lat="44.26077" lon="5.57248">
        <ele>1497.1999511719</ele>
        <time>2021-09-25T10:40:49.000Z</time>
      </trkpt>
      <trkpt lat="44.26077" lon="5.57248">
        <ele>1497.1999511719</ele>
        <time>2021-09-25T10:40:51.000Z</time>
      </trkpt>
      <trkpt lat="44.26079" lon="5.57248">
        <ele>1497.1999511719</ele>
        <time>2021-09-25T10:40:59.000Z</time>
      </trkpt>
      <trkpt lat="44.26078" lon="5.57249">
        <ele>1497.1999511719</ele>
        <time>2021-09-25T10:41:05.000Z</time>
      </trkpt>
      <trkpt lat="44.26077" lon="5.5725">
        <ele>1497.1999511719</ele>
        <time>2021-09-25T10:41:08.000Z</time>
      </trkpt>
      <trkpt lat="44.26078" lon="5.57252">
        <ele>1497.1999511719</ele>
        <time>2021-09-25T10:41:12.000Z</time>
      </trkpt>
      <trkpt lat="44.26078" lon="5.57251">
        <ele>1497.1999511719</ele>
        <time>2021-09-25T10:41:19.000Z</time>
      </trkpt>
      <trkpt lat="44.26078" lon="5.57251">
        <ele>1497.1999511719</ele>
        <time>2021-09-25T10:41:21.000Z</time>
      </trkpt>
      <trkpt lat="44.26078" lon="5.5725">
        <ele>1497.1999511719</ele>
        <time>2021-09-25T10:41:24.000Z</time>
      </trkpt>
      <trkpt lat="44.26078" lon="5.5725">
        <ele>1497.1999511719</ele>
        <time>2021-09-25T10:41:27.000Z</time>
      </trkpt>
      <trkpt lat="44.26078" lon="5.5725">
        <ele>1497.1999511719</ele>
        <time>2021-09-25T10:41:32.000Z</time>
      </trkpt>
      <trkpt lat="44.2608" lon="5.57249">
        <ele>1497.1999511719</ele>
        <time>2021-09-25T10:41:34.000Z</time>
      </trkpt>
      <trkpt lat="44.2608" lon="5.57248">
        <ele>1497.1999511719</ele>
        <time>2021-09-25T10:41:37.000Z</time>
      </trkpt>
      <trkpt lat="44.2608" lon="5.57247">
        <ele>1497.1999511719</ele>
        <time>2021-09-25T10:41:40.000Z</time>
      </trkpt>
      <trkpt lat="44.26079" lon="5.57247">
        <ele>1497.1999511719</ele>
        <time>2021-09-25T10:41:44.000Z</time>
      </trkpt>
      <trkpt lat="44.26079" lon="5.57247">
        <ele>1497.1999511719</ele>
        <time>2021-09-25T10:41:45.000Z</time>
      </trkpt>
      <trkpt lat="44.26078" lon="5.57247">
        <ele>1497.1999511719</ele>
        <time>2021-09-25T10:41:50.000Z</time>
      </trkpt>
      <trkpt lat="44.26077" lon="5.57247">
        <ele>1497.1999511719</ele>
        <time>2021-09-25T10:41:55.000Z</time>
      </trkpt>
      <trkpt lat="44.26076" lon="5.57248">
        <ele>1497.1999511719</ele>
        <time>2021-09-25T10:42:02.000Z</time>
      </trkpt>
      <trkpt lat="44.26076" lon="5.57248">
        <ele>1497.1999511719</ele>
        <time>2021-09-25T10:42:03.000Z</time>
      </trkpt>
      <trkpt lat="44.26076" lon="5.57249">
        <ele>1497.1999511719</ele>
        <time>2021-09-25T10:42:13.000Z</time>
      </trkpt>
      <trkpt lat="44.26076" lon="5.57248">
        <ele>1497.1999511719</ele>
        <time>2021-09-25T10:42:20.000Z</time>
      </trkpt>
      <trkpt lat="44.26077" lon="5.57248">
        <ele>1497.1999511719</ele>
        <time>2021-09-25T10:42:22.000Z</time>
      </trkpt>
      <trkpt lat="44.26077" lon="5.57248">
        <ele>1497.1999511719</ele>
        <time>2021-09-25T10:42:24.000Z</time>
      </trkpt>
      <trkpt lat="44.26078" lon="5.57248">
        <ele>1497.1999511719</ele>
        <time>2021-09-25T10:42:30.000Z</time>
      </trkpt>
      <trkpt lat="44.26077" lon="5.57248">
        <ele>1497.1999511719</ele>
        <time>2021-09-25T10:42:31.000Z</time>
      </trkpt>
      <trkpt lat="44.26077" lon="5.57248">
        <ele>1497.1999511719</ele>
        <time>2021-09-25T10:42:32.000Z</time>
      </trkpt>
      <trkpt lat="44.2608" lon="5.57247">
        <ele>1497.1999511719</ele>
        <time>2021-09-25T10:42:39.000Z</time>
      </trkpt>
      <trkpt lat="44.26079" lon="5.57248">
        <ele>1497.1999511719</ele>
        <time>2021-09-25T10:42:46.000Z</time>
      </trkpt>
      <trkpt lat="44.26079" lon="5.57248">
        <ele>1497.1999511719</ele>
        <time>2021-09-25T10:42:47.000Z</time>
      </trkpt>
      <trkpt lat="44.26079" lon="5.57247">
        <ele>1497.1999511719</ele>
        <time>2021-09-25T10:42:49.000Z</time>
      </trkpt>
      <trkpt lat="44.26078" lon="5.5725">
        <ele>1497.1999511719</ele>
        <time>2021-09-25T10:42:55.000Z</time>
      </trkpt>
      <trkpt lat="44.26078" lon="5.57249">
        <ele>1497.1999511719</ele>
        <time>2021-09-25T10:42:59.000Z</time>
      </trkpt>
      <trkpt lat="44.26078" lon="5.57249">
        <ele>1497.1999511719</ele>
        <time>2021-09-25T10:43:01.000Z</time>
      </trkpt>
      <trkpt lat="44.26078" lon="5.57247">
        <ele>1497.1999511719</ele>
        <time>2021-09-25T10:43:05.000Z</time>
      </trkpt>
      <trkpt lat="44.26078" lon="5.57248">
        <ele>1497.1999511719</ele>
        <time>2021-09-25T10:43:07.000Z</time>
      </trkpt>
      <trkpt lat="44.26078" lon="5.57249">
        <ele>1497.1999511719</ele>
        <time>2021-09-25T10:43:13.000Z</time>
      </trkpt>
      <trkpt lat="44.26078" lon="5.57249">
        <ele>1497.1999511719</ele>
        <time>2021-09-25T10:43:14.000Z</time>
      </trkpt>
      <trkpt lat="44.26078" lon="5.57249">
        <ele>1497.1999511719</ele>
        <time>2021-09-25T10:43:21.000Z</time>
      </trkpt>
      <trkpt lat="44.26078" lon="5.57249">
        <ele>1497.1999511719</ele>
        <time>2021-09-25T10:43:22.000Z</time>
      </trkpt>
      <trkpt lat="44.26077" lon="5.57249">
        <ele>1497.1999511719</ele>
        <time>2021-09-25T10:43:31.000Z</time>
      </trkpt>
      <trkpt lat="44.26078" lon="5.57248">
        <ele>1497.1999511719</ele>
        <time>2021-09-25T10:43:34.000Z</time>
      </trkpt>
      <trkpt lat="44.26078" lon="5.5725">
        <ele>1497.1999511719</ele>
        <time>2021-09-25T10:43:39.000Z</time>
      </trkpt>
      <trkpt lat="44.26076" lon="5.57247">
        <ele>1500.8000488281</ele>
        <time>2021-09-25T11:05:54.000Z</time>
      </trkpt>
      <trkpt lat="44.26076" lon="5.57247">
        <ele>1500.5999755859</ele>
        <time>2021-09-25T11:05:55.000Z</time>
      </trkpt>
      <trkpt lat="44.26074" lon="5.57246">
        <ele>1500.5999755859</ele>
        <time>2021-09-25T11:05:57.000Z</time>
      </trkpt>
      <trkpt lat="44.26072" lon="5.57246">
        <ele>1500.4000244141</ele>
        <time>2021-09-25T11:05:59.000Z</time>
      </trkpt>
      <trkpt lat="44.26071" lon="5.57245">
        <ele>1500.4000244141</ele>
        <time>2021-09-25T11:06:01.000Z</time>
      </trkpt>
      <trkpt lat="44.26066" lon="5.5724">
        <ele>1500</ele>
        <time>2021-09-25T11:06:10.000Z</time>
      </trkpt>
      <trkpt lat="44.26065" lon="5.5724">
        <ele>1499.5999755859</ele>
        <time>2021-09-25T11:06:12.000Z</time>
      </trkpt>
      <trkpt lat="44.26063" lon="5.57237">
        <ele>1499</ele>
        <time>2021-09-25T11:06:16.000Z</time>
      </trkpt>
      <trkpt lat="44.26062" lon="5.57235">
        <ele>1499</ele>
        <time>2021-09-25T11:06:18.000Z</time>
      </trkpt>
      <trkpt lat="44.26061" lon="5.57234">
        <ele>1498.5999755859</ele>
        <time>2021-09-25T11:06:20.000Z</time>
      </trkpt>
      <trkpt lat="44.26059" lon="5.57232">
        <ele>1497.8000488281</ele>
        <time>2021-09-25T11:06:26.000Z</time>
      </trkpt>
      <trkpt lat="44.26057" lon="5.57229">
        <ele>1498</ele>
        <time>2021-09-25T11:06:33.000Z</time>
      </trkpt>
      <trkpt lat="44.26056" lon="5.57227">
        <ele>1497.1999511719</ele>
        <time>2021-09-25T11:06:36.000Z</time>
      </trkpt>
      <trkpt lat="44.26052" lon="5.57223">
        <ele>1496.8000488281</ele>
        <time>2021-09-25T11:06:41.000Z</time>
      </trkpt>
      <trkpt lat="44.26051" lon="5.57222">
        <ele>1497</ele>
        <time>2021-09-25T11:06:43.000Z</time>
      </trkpt>
      <trkpt lat="44.26048" lon="5.5722">
        <ele>1497</ele>
        <time>2021-09-25T11:06:46.000Z</time>
      </trkpt>
      <trkpt lat="44.26046" lon="5.5722">
        <ele>1497</ele>
        <time>2021-09-25T11:06:48.000Z</time>
      </trkpt>
      <trkpt lat="44.26044" lon="5.57219">
        <ele>1497</ele>
        <time>2021-09-25T11:06:50.000Z</time>
      </trkpt>
      <trkpt lat="44.26041" lon="5.57215">
        <ele>1496.5999755859</ele>
        <time>2021-09-25T11:06:54.000Z</time>
      </trkpt>
      <trkpt lat="44.2604" lon="5.57215">
        <ele>1496.5999755859</ele>
        <time>2021-09-25T11:06:55.000Z</time>
      </trkpt>
      <trkpt lat="44.26038" lon="5.57211">
        <ele>1496.5999755859</ele>
        <time>2021-09-25T11:06:58.000Z</time>
      </trkpt>
      <trkpt lat="44.26036" lon="5.5721">
        <ele>1496.4000244141</ele>
        <time>2021-09-25T11:07:01.000Z</time>
      </trkpt>
      <trkpt lat="44.26034" lon="5.57208">
        <ele>1496.4000244141</ele>
        <time>2021-09-25T11:07:05.000Z</time>
      </trkpt>
      <trkpt lat="44.26033" lon="5.57208">
        <ele>1496.1999511719</ele>
        <time>2021-09-25T11:07:07.000Z</time>
      </trkpt>
      <trkpt lat="44.26032" lon="5.57207">
        <ele>1496</ele>
        <time>2021-09-25T11:07:08.000Z</time>
      </trkpt>
      <trkpt lat="44.26028" lon="5.572">
        <ele>1496.4000244141</ele>
        <time>2021-09-25T11:07:15.000Z</time>
      </trkpt>
      <trkpt lat="44.26022" lon="5.57195">
        <ele>1496.8000488281</ele>
        <time>2021-09-25T11:07:22.000Z</time>
      </trkpt>
      <trkpt lat="44.26019" lon="5.57193">
        <ele>1496.4000244141</ele>
        <time>2021-09-25T11:07:27.000Z</time>
      </trkpt>
      <trkpt lat="44.26018" lon="5.57192">
        <ele>1496.4000244141</ele>
        <time>2021-09-25T11:07:28.000Z</time>
      </trkpt>
      <trkpt lat="44.26016" lon="5.57191">
        <ele>1496.1999511719</ele>
        <time>2021-09-25T11:07:30.000Z</time>
      </trkpt>
      <trkpt lat="44.26016" lon="5.5719">
        <ele>1496.1999511719</ele>
        <time>2021-09-25T11:07:31.000Z</time>
      </trkpt>
      <trkpt lat="44.26013" lon="5.57189">
        <ele>1496</ele>
        <time>2021-09-25T11:07:33.000Z</time>
      </trkpt>
      <trkpt lat="44.26013" lon="5.57188">
        <ele>1496</ele>
        <time>2021-09-25T11:07:34.000Z</time>
      </trkpt>
      <trkpt lat="44.26012" lon="5.57188">
        <ele>1496</ele>
        <time>2021-09-25T11:07:35.000Z</time>
      </trkpt>
      <trkpt lat="44.26006" lon="5.57184">
        <ele>1497.4000244141</ele>
        <time>2021-09-25T11:07:41.000Z</time>
      </trkpt>
      <trkpt lat="44.26005" lon="5.57183">
        <ele>1497.4000244141</ele>
        <time>2021-09-25T11:07:42.000Z</time>
      </trkpt>
      <trkpt lat="44.26004" lon="5.57183">
        <ele>1497.1999511719</ele>
        <time>2021-09-25T11:07:43.000Z</time>
      </trkpt>
      <trkpt lat="44.26001" lon="5.57181">
        <ele>1497</ele>
        <time>2021-09-25T11:07:46.000Z</time>
      </trkpt>
      <trkpt lat="44.26001" lon="5.5718">
        <ele>1497</ele>
        <time>2021-09-25T11:07:47.000Z</time>
      </trkpt>
      <trkpt lat="44.25997" lon="5.57177">
        <ele>1496</ele>
        <time>2021-09-25T11:07:52.000Z</time>
      </trkpt>
      <trkpt lat="44.25994" lon="5.57175">
        <ele>1495.5999755859</ele>
        <time>2021-09-25T11:07:54.000Z</time>
      </trkpt>
      <trkpt lat="44.25989" lon="5.57169">
        <ele>1495.5999755859</ele>
        <time>2021-09-25T11:08:01.000Z</time>
      </trkpt>
      <trkpt lat="44.25984" lon="5.57164">
        <ele>1494.8000488281</ele>
        <time>2021-09-25T11:08:07.000Z</time>
      </trkpt>
      <trkpt lat="44.25983" lon="5.57163">
        <ele>1494.5999755859</ele>
        <time>2021-09-25T11:08:08.000Z</time>
      </trkpt>
      <trkpt lat="44.25981" lon="5.57161">
        <ele>1494.4000244141</ele>
        <time>2021-09-25T11:08:11.000Z</time>
      </trkpt>
      <trkpt lat="44.2598" lon="5.5716">
        <ele>1494.5999755859</ele>
        <time>2021-09-25T11:08:12.000Z</time>
      </trkpt>
      <trkpt lat="44.25978" lon="5.5716">
        <ele>1494.5999755859</ele>
        <time>2021-09-25T11:08:15.000Z</time>
      </trkpt>
      <trkpt lat="44.25973" lon="5.57154">
        <ele>1494</ele>
        <time>2021-09-25T11:08:23.000Z</time>
      </trkpt>
      <trkpt lat="44.25969" lon="5.5715">
        <ele>1493.8000488281</ele>
        <time>2021-09-25T11:08:28.000Z</time>
      </trkpt>
      <trkpt lat="44.25968" lon="5.57149">
        <ele>1493.5999755859</ele>
        <time>2021-09-25T11:08:29.000Z</time>
      </trkpt>
      <trkpt lat="44.25967" lon="5.57147">
        <ele>1493.1999511719</ele>
        <time>2021-09-25T11:08:31.000Z</time>
      </trkpt>
      <trkpt lat="44.25966" lon="5.57146">
        <ele>1493.1999511719</ele>
        <time>2021-09-25T11:08:32.000Z</time>
      </trkpt>
      <trkpt lat="44.25965" lon="5.57144">
        <ele>1493</ele>
        <time>2021-09-25T11:08:34.000Z</time>
      </trkpt>
      <trkpt lat="44.25962" lon="5.5714">
        <ele>1493.4000244141</ele>
        <time>2021-09-25T11:08:38.000Z</time>
      </trkpt>
      <trkpt lat="44.25961" lon="5.57137">
        <ele>1493.1999511719</ele>
        <time>2021-09-25T11:08:41.000Z</time>
      </trkpt>
      <trkpt lat="44.25959" lon="5.57134">
        <ele>1493.4000244141</ele>
        <time>2021-09-25T11:08:45.000Z</time>
      </trkpt>
      <trkpt lat="44.25958" lon="5.57132">
        <ele>1493.5999755859</ele>
        <time>2021-09-25T11:08:47.000Z</time>
      </trkpt>
      <trkpt lat="44.25955" lon="5.57128">
        <ele>1494.5999755859</ele>
        <time>2021-09-25T11:08:52.000Z</time>
      </trkpt>
      <trkpt lat="44.25954" lon="5.57126">
        <ele>1495</ele>
        <time>2021-09-25T11:08:54.000Z</time>
      </trkpt>
      <trkpt lat="44.25953" lon="5.57126">
        <ele>1495</ele>
        <time>2021-09-25T11:08:55.000Z</time>
      </trkpt>
      <trkpt lat="44.25951" lon="5.57123">
        <ele>1494.8000488281</ele>
        <time>2021-09-25T11:08:58.000Z</time>
      </trkpt>
      <trkpt lat="44.2595" lon="5.57122">
        <ele>1494.5999755859</ele>
        <time>2021-09-25T11:08:59.000Z</time>
      </trkpt>
      <trkpt lat="44.25947" lon="5.57118">
        <ele>1494.4000244141</ele>
        <time>2021-09-25T11:09:05.000Z</time>
      </trkpt>
      <trkpt lat="44.25946" lon="5.57117">
        <ele>1494.4000244141</ele>
        <time>2021-09-25T11:09:06.000Z</time>
      </trkpt>
      <trkpt lat="44.25945" lon="5.57115">
        <ele>1494.5999755859</ele>
        <time>2021-09-25T11:09:08.000Z</time>
      </trkpt>
      <trkpt lat="44.25946" lon="5.57115">
        <ele>1494.5999755859</ele>
        <time>2021-09-25T11:09:09.000Z</time>
      </trkpt>
      <trkpt lat="44.25946" lon="5.57115">
        <ele>1494.8000488281</ele>
        <time>2021-09-25T11:09:10.000Z</time>
      </trkpt>
      <trkpt lat="44.25946" lon="5.57115">
        <ele>1495</ele>
        <time>2021-09-25T11:09:11.000Z</time>
      </trkpt>
      <trkpt lat="44.25946" lon="5.57114">
        <ele>1495.5999755859</ele>
        <time>2021-09-25T11:09:12.000Z</time>
      </trkpt>
      <trkpt lat="44.25946" lon="5.57114">
        <ele>1495.8000488281</ele>
        <time>2021-09-25T11:09:13.000Z</time>
      </trkpt>
      <trkpt lat="44.25946" lon="5.57112">
        <ele>1495.4000244141</ele>
        <time>2021-09-25T11:09:15.000Z</time>
      </trkpt>
      <trkpt lat="44.25944" lon="5.57109">
        <ele>1496.4000244141</ele>
        <time>2021-09-25T11:09:19.000Z</time>
      </trkpt>
      <trkpt lat="44.25943" lon="5.57106">
        <ele>1496.8000488281</ele>
        <time>2021-09-25T11:09:22.000Z</time>
      </trkpt>
      <trkpt lat="44.25943" lon="5.57101">
        <ele>1497.1999511719</ele>
        <time>2021-09-25T11:09:25.000Z</time>
      </trkpt>
      <trkpt lat="44.25942" lon="5.571">
        <ele>1497</ele>
        <time>2021-09-25T11:09:26.000Z</time>
      </trkpt>
      <trkpt lat="44.25942" lon="5.57097">
        <ele>1497</ele>
        <time>2021-09-25T11:09:28.000Z</time>
      </trkpt>
      <trkpt lat="44.25942" lon="5.57095">
        <ele>1496.5999755859</ele>
        <time>2021-09-25T11:09:30.000Z</time>
      </trkpt>
      <trkpt lat="44.25943" lon="5.57091">
        <ele>1496.4000244141</ele>
        <time>2021-09-25T11:09:33.000Z</time>
      </trkpt>
      <trkpt lat="44.25943" lon="5.5709">
        <ele>1496.4000244141</ele>
        <time>2021-09-25T11:09:34.000Z</time>
      </trkpt>
      <trkpt lat="44.25941" lon="5.57088">
        <ele>1496.4000244141</ele>
        <time>2021-09-25T11:09:39.000Z</time>
      </trkpt>
      <trkpt lat="44.2594" lon="5.57087">
        <ele>1496.5999755859</ele>
        <time>2021-09-25T11:09:41.000Z</time>
      </trkpt>
      <trkpt lat="44.25938" lon="5.5708">
        <ele>1497.1999511719</ele>
        <time>2021-09-25T11:09:47.000Z</time>
      </trkpt>
      <trkpt lat="44.25936" lon="5.57071">
        <ele>1496.8000488281</ele>
        <time>2021-09-25T11:09:55.000Z</time>
      </trkpt>
      <trkpt lat="44.25935" lon="5.57066">
        <ele>1496.8000488281</ele>
        <time>2021-09-25T11:09:59.000Z</time>
      </trkpt>
      <trkpt lat="44.25934" lon="5.57063">
        <ele>1497.1999511719</ele>
        <time>2021-09-25T11:10:01.000Z</time>
      </trkpt>
      <trkpt lat="44.25934" lon="5.57062">
        <ele>1497.4000244141</ele>
        <time>2021-09-25T11:10:02.000Z</time>
      </trkpt>
      <trkpt lat="44.25934" lon="5.57058">
        <ele>1497.8000488281</ele>
        <time>2021-09-25T11:10:05.000Z</time>
      </trkpt>
      <trkpt lat="44.25934" lon="5.57055">
        <ele>1497.8000488281</ele>
        <time>2021-09-25T11:10:08.000Z</time>
      </trkpt>
      <trkpt lat="44.25933" lon="5.57045">
        <ele>1497.8000488281</ele>
        <time>2021-09-25T11:10:16.000Z</time>
      </trkpt>
      <trkpt lat="44.25932" lon="5.57041">
        <ele>1497.5999755859</ele>
        <time>2021-09-25T11:10:19.000Z</time>
      </trkpt>
      <trkpt lat="44.25932" lon="5.57037">
        <ele>1497.1999511719</ele>
        <time>2021-09-25T11:10:22.000Z</time>
      </trkpt>
      <trkpt lat="44.25932" lon="5.57036">
        <ele>1497.1999511719</ele>
        <time>2021-09-25T11:10:23.000Z</time>
      </trkpt>
      <trkpt lat="44.25933" lon="5.5703">
        <ele>1497</ele>
        <time>2021-09-25T11:10:27.000Z</time>
      </trkpt>
      <trkpt lat="44.25933" lon="5.57027">
        <ele>1497.4000244141</ele>
        <time>2021-09-25T11:10:30.000Z</time>
      </trkpt>
      <trkpt lat="44.25931" lon="5.57017">
        <ele>1497.4000244141</ele>
        <time>2021-09-25T11:10:37.000Z</time>
      </trkpt>
      <trkpt lat="44.25931" lon="5.57015">
        <ele>1497.5999755859</ele>
        <time>2021-09-25T11:10:39.000Z</time>
      </trkpt>
      <trkpt lat="44.25931" lon="5.57013">
        <ele>1497.5999755859</ele>
        <time>2021-09-25T11:10:41.000Z</time>
      </trkpt>
      <trkpt lat="44.2593" lon="5.57011">
        <ele>1497.8000488281</ele>
        <time>2021-09-25T11:10:43.000Z</time>
      </trkpt>
      <trkpt lat="44.2593" lon="5.5701">
        <ele>1498.1999511719</ele>
        <time>2021-09-25T11:10:44.000Z</time>
      </trkpt>
      <trkpt lat="44.25929" lon="5.57005">
        <ele>1498.8000488281</ele>
        <time>2021-09-25T11:10:47.000Z</time>
      </trkpt>
      <trkpt lat="44.25927" lon="5.57001">
        <ele>1499.8000488281</ele>
        <time>2021-09-25T11:10:51.000Z</time>
      </trkpt>
      <trkpt lat="44.25926" lon="5.56999">
        <ele>1500</ele>
        <time>2021-09-25T11:10:52.000Z</time>
      </trkpt>
      <trkpt lat="44.25925" lon="5.56993">
        <ele>1500</ele>
        <time>2021-09-25T11:10:57.000Z</time>
      </trkpt>
      <trkpt lat="44.25926" lon="5.56988">
        <ele>1500.8000488281</ele>
        <time>2021-09-25T11:11:01.000Z</time>
      </trkpt>
      <trkpt lat="44.25926" lon="5.56986">
        <ele>1501.4000244141</ele>
        <time>2021-09-25T11:11:03.000Z</time>
      </trkpt>
      <trkpt lat="44.25926" lon="5.56984">
        <ele>1501.5999755859</ele>
        <time>2021-09-25T11:11:05.000Z</time>
      </trkpt>
      <trkpt lat="44.25926" lon="5.56977">
        <ele>1501.8000488281</ele>
        <time>2021-09-25T11:11:10.000Z</time>
      </trkpt>
      <trkpt lat="44.25927" lon="5.56975">
        <ele>1501.8000488281</ele>
        <time>2021-09-25T11:11:12.000Z</time>
      </trkpt>
      <trkpt lat="44.25927" lon="5.56974">
        <ele>1502</ele>
        <time>2021-09-25T11:11:13.000Z</time>
      </trkpt>
      <trkpt lat="44.25926" lon="5.56969">
        <ele>1501.4000244141</ele>
        <time>2021-09-25T11:11:17.000Z</time>
      </trkpt>
      <trkpt lat="44.25926" lon="5.56967">
        <ele>1501</ele>
        <time>2021-09-25T11:11:19.000Z</time>
      </trkpt>
      <trkpt lat="44.25926" lon="5.56964">
        <ele>1500.8000488281</ele>
        <time>2021-09-25T11:11:21.000Z</time>
      </trkpt>
      <trkpt lat="44.25925" lon="5.56958">
        <ele>1501</ele>
        <time>2021-09-25T11:11:27.000Z</time>
      </trkpt>
      <trkpt lat="44.25926" lon="5.56957">
        <ele>1502</ele>
        <time>2021-09-25T11:11:29.000Z</time>
      </trkpt>
      <trkpt lat="44.25926" lon="5.56955">
        <ele>1502.1999511719</ele>
        <time>2021-09-25T11:11:30.000Z</time>
      </trkpt>
      <trkpt lat="44.25926" lon="5.56952">
        <ele>1502.8000488281</ele>
        <time>2021-09-25T11:11:33.000Z</time>
      </trkpt>
      <trkpt lat="44.25926" lon="5.56951">
        <ele>1502.8000488281</ele>
        <time>2021-09-25T11:11:34.000Z</time>
      </trkpt>
      <trkpt lat="44.25926" lon="5.56949">
        <ele>1502.8000488281</ele>
        <time>2021-09-25T11:11:36.000Z</time>
      </trkpt>
      <trkpt lat="44.25926" lon="5.56948">
        <ele>1503.1999511719</ele>
        <time>2021-09-25T11:11:37.000Z</time>
      </trkpt>
      <trkpt lat="44.25926" lon="5.56947">
        <ele>1503.4000244141</ele>
        <time>2021-09-25T11:11:38.000Z</time>
      </trkpt>
      <trkpt lat="44.25926" lon="5.56945">
        <ele>1503.5999755859</ele>
        <time>2021-09-25T11:11:40.000Z</time>
      </trkpt>
      <trkpt lat="44.25925" lon="5.56945">
        <ele>1503.5999755859</ele>
        <time>2021-09-25T11:11:43.000Z</time>
      </trkpt>
      <trkpt lat="44.25925" lon="5.56944">
        <ele>1503.5999755859</ele>
        <time>2021-09-25T11:11:44.000Z</time>
      </trkpt>
      <trkpt lat="44.25924" lon="5.56944">
        <ele>1503.4000244141</ele>
        <time>2021-09-25T11:11:45.000Z</time>
      </trkpt>
      <trkpt lat="44.25924" lon="5.56944">
        <ele>1503.4000244141</ele>
        <time>2021-09-25T11:11:46.000Z</time>
      </trkpt>
      <trkpt lat="44.25923" lon="5.56943">
        <ele>1503.1999511719</ele>
        <time>2021-09-25T11:11:53.000Z</time>
      </trkpt>
      <trkpt lat="44.25924" lon="5.56939">
        <ele>1502.5999755859</ele>
        <time>2021-09-25T11:12:01.000Z</time>
      </trkpt>
      <trkpt lat="44.25923" lon="5.56937">
        <ele>1502</ele>
        <time>2021-09-25T11:12:03.000Z</time>
      </trkpt>
      <trkpt lat="44.25923" lon="5.56935">
        <ele>1501.5999755859</ele>
        <time>2021-09-25T11:12:06.000Z</time>
      </trkpt>
      <trkpt lat="44.25923" lon="5.5693">
        <ele>1502.5999755859</ele>
        <time>2021-09-25T11:12:10.000Z</time>
      </trkpt>
      <trkpt lat="44.25923" lon="5.56928">
        <ele>1502.5999755859</ele>
        <time>2021-09-25T11:12:11.000Z</time>
      </trkpt>
      <trkpt lat="44.25923" lon="5.56925">
        <ele>1503</ele>
        <time>2021-09-25T11:12:14.000Z</time>
      </trkpt>
      <trkpt lat="44.25923" lon="5.5692">
        <ele>1502.8000488281</ele>
        <time>2021-09-25T11:12:18.000Z</time>
      </trkpt>
      <trkpt lat="44.25923" lon="5.56918">
        <ele>1502.8000488281</ele>
        <time>2021-09-25T11:12:20.000Z</time>
      </trkpt>
      <trkpt lat="44.25923" lon="5.56916">
        <ele>1502.5999755859</ele>
        <time>2021-09-25T11:12:21.000Z</time>
      </trkpt>
      <trkpt lat="44.25922" lon="5.56914">
        <ele>1502.5999755859</ele>
        <time>2021-09-25T11:12:23.000Z</time>
      </trkpt>
      <trkpt lat="44.25921" lon="5.56911">
        <ele>1502.5999755859</ele>
        <time>2021-09-25T11:12:25.000Z</time>
      </trkpt>
      <trkpt lat="44.2592" lon="5.56905">
        <ele>1503.1999511719</ele>
        <time>2021-09-25T11:12:30.000Z</time>
      </trkpt>
      <trkpt lat="44.2592" lon="5.56902">
        <ele>1503.4000244141</ele>
        <time>2021-09-25T11:12:32.000Z</time>
      </trkpt>
      <trkpt lat="44.2592" lon="5.56899">
        <ele>1503.5999755859</ele>
        <time>2021-09-25T11:12:35.000Z</time>
      </trkpt>
      <trkpt lat="44.2592" lon="5.56895">
        <ele>1504</ele>
        <time>2021-09-25T11:12:38.000Z</time>
      </trkpt>
      <trkpt lat="44.25923" lon="5.56887">
        <ele>1504.8000488281</ele>
        <time>2021-09-25T11:12:44.000Z</time>
      </trkpt>
      <trkpt lat="44.25923" lon="5.56885">
        <ele>1504.5999755859</ele>
        <time>2021-09-25T11:12:45.000Z</time>
      </trkpt>
      <trkpt lat="44.25924" lon="5.56884">
        <ele>1504.5999755859</ele>
        <time>2021-09-25T11:12:46.000Z</time>
      </trkpt>
      <trkpt lat="44.25925" lon="5.5688">
        <ele>1504</ele>
        <time>2021-09-25T11:12:49.000Z</time>
      </trkpt>
      <trkpt lat="44.25926" lon="5.56876">
        <ele>1503.8000488281</ele>
        <time>2021-09-25T11:12:51.000Z</time>
      </trkpt>
      <trkpt lat="44.25926" lon="5.56875">
        <ele>1503.8000488281</ele>
        <time>2021-09-25T11:12:52.000Z</time>
      </trkpt>
      <trkpt lat="44.25926" lon="5.56872">
        <ele>1503.5999755859</ele>
        <time>2021-09-25T11:12:54.000Z</time>
      </trkpt>
      <trkpt lat="44.25927" lon="5.56869">
        <ele>1503</ele>
        <time>2021-09-25T11:12:57.000Z</time>
      </trkpt>
      <trkpt lat="44.25927" lon="5.56866">
        <ele>1503.4000244141</ele>
        <time>2021-09-25T11:12:59.000Z</time>
      </trkpt>
      <trkpt lat="44.25927" lon="5.56865">
        <ele>1503.4000244141</ele>
        <time>2021-09-25T11:13:00.000Z</time>
      </trkpt>
      <trkpt lat="44.25927" lon="5.56864">
        <ele>1503.5999755859</ele>
        <time>2021-09-25T11:13:01.000Z</time>
      </trkpt>
      <trkpt lat="44.25928" lon="5.56861">
        <ele>1503.5999755859</ele>
        <time>2021-09-25T11:13:04.000Z</time>
      </trkpt>
      <trkpt lat="44.25928" lon="5.56857">
        <ele>1503.1999511719</ele>
        <time>2021-09-25T11:13:07.000Z</time>
      </trkpt>
      <trkpt lat="44.2593" lon="5.56853">
        <ele>1502.8000488281</ele>
        <time>2021-09-25T11:13:13.000Z</time>
      </trkpt>
      <trkpt lat="44.2593" lon="5.56853">
        <ele>1502.8000488281</ele>
        <time>2021-09-25T11:13:14.000Z</time>
      </trkpt>
      <trkpt lat="44.2593" lon="5.56851">
        <ele>1503</ele>
        <time>2021-09-25T11:13:16.000Z</time>
      </trkpt>
      <trkpt lat="44.2593" lon="5.56849">
        <ele>1503.1999511719</ele>
        <time>2021-09-25T11:13:18.000Z</time>
      </trkpt>
      <trkpt lat="44.2593" lon="5.56846">
        <ele>1504</ele>
        <time>2021-09-25T11:13:21.000Z</time>
      </trkpt>
      <trkpt lat="44.2593" lon="5.56845">
        <ele>1504.1999511719</ele>
        <time>2021-09-25T11:13:24.000Z</time>
      </trkpt>
      <trkpt lat="44.25932" lon="5.5684">
        <ele>1504.5999755859</ele>
        <time>2021-09-25T11:13:29.000Z</time>
      </trkpt>
      <trkpt lat="44.25934" lon="5.56836">
        <ele>1503.8000488281</ele>
        <time>2021-09-25T11:13:33.000Z</time>
      </trkpt>
      <trkpt lat="44.25934" lon="5.56834">
        <ele>1503.4000244141</ele>
        <time>2021-09-25T11:13:35.000Z</time>
      </trkpt>
      <trkpt lat="44.25935" lon="5.5683">
        <ele>1503.1999511719</ele>
        <time>2021-09-25T11:13:39.000Z</time>
      </trkpt>
      <trkpt lat="44.25935" lon="5.5683">
        <ele>1503.4000244141</ele>
        <time>2021-09-25T11:13:42.000Z</time>
      </trkpt>
      <trkpt lat="44.25937" lon="5.56831">
        <ele>1504</ele>
        <time>2021-09-25T11:13:52.000Z</time>
      </trkpt>
      <trkpt lat="44.25936" lon="5.56828">
        <ele>1503.4000244141</ele>
        <time>2021-09-25T11:13:57.000Z</time>
      </trkpt>
      <trkpt lat="44.25936" lon="5.56827">
        <ele>1503.4000244141</ele>
        <time>2021-09-25T11:13:58.000Z</time>
      </trkpt>
      <trkpt lat="44.25937" lon="5.56824">
        <ele>1503.1999511719</ele>
        <time>2021-09-25T11:14:02.000Z</time>
      </trkpt>
      <trkpt lat="44.25938" lon="5.56823">
        <ele>1502.5999755859</ele>
        <time>2021-09-25T11:14:03.000Z</time>
      </trkpt>
      <trkpt lat="44.25938" lon="5.56821">
        <ele>1501.8000488281</ele>
        <time>2021-09-25T11:14:05.000Z</time>
      </trkpt>
      <trkpt lat="44.25938" lon="5.56821">
        <ele>1501.5999755859</ele>
        <time>2021-09-25T11:14:06.000Z</time>
      </trkpt>
      <trkpt lat="44.25938" lon="5.56816">
        <ele>1500.8000488281</ele>
        <time>2021-09-25T11:14:12.000Z</time>
      </trkpt>
      <trkpt lat="44.25934" lon="5.5681">
        <ele>1501</ele>
        <time>2021-09-25T11:14:19.000Z</time>
      </trkpt>
      <trkpt lat="44.25935" lon="5.5681">
        <ele>1501</ele>
        <time>2021-09-25T11:14:20.000Z</time>
      </trkpt>
      <trkpt lat="44.25935" lon="5.56808">
        <ele>1501</ele>
        <time>2021-09-25T11:14:21.000Z</time>
      </trkpt>
      <trkpt lat="44.25935" lon="5.56807">
        <ele>1501</ele>
        <time>2021-09-25T11:14:23.000Z</time>
      </trkpt>
      <trkpt lat="44.25936" lon="5.56805">
        <ele>1500.8000488281</ele>
        <time>2021-09-25T11:14:25.000Z</time>
      </trkpt>
      <trkpt lat="44.25937" lon="5.56802">
        <ele>1500.4000244141</ele>
        <time>2021-09-25T11:14:28.000Z</time>
      </trkpt>
      <trkpt lat="44.25939" lon="5.56799">
        <ele>1499.8000488281</ele>
        <time>2021-09-25T11:14:32.000Z</time>
      </trkpt>
      <trkpt lat="44.25942" lon="5.56797">
        <ele>1499.5999755859</ele>
        <time>2021-09-25T11:14:35.000Z</time>
      </trkpt>
      <trkpt lat="44.25944" lon="5.56795">
        <ele>1500.1999511719</ele>
        <time>2021-09-25T11:14:38.000Z</time>
      </trkpt>
      <trkpt lat="44.25945" lon="5.56792">
        <ele>1500</ele>
        <time>2021-09-25T11:14:41.000Z</time>
      </trkpt>
      <trkpt lat="44.25945" lon="5.5679">
        <ele>1499.8000488281</ele>
        <time>2021-09-25T11:14:43.000Z</time>
      </trkpt>
      <trkpt lat="44.25945" lon="5.56789">
        <ele>1499.8000488281</ele>
        <time>2021-09-25T11:14:44.000Z</time>
      </trkpt>
      <trkpt lat="44.25945" lon="5.56786">
        <ele>1499.4000244141</ele>
        <time>2021-09-25T11:14:48.000Z</time>
      </trkpt>
      <trkpt lat="44.25945" lon="5.56783">
        <ele>1498.1999511719</ele>
        <time>2021-09-25T11:14:51.000Z</time>
      </trkpt>
      <trkpt lat="44.25945" lon="5.56781">
        <ele>1497.8000488281</ele>
        <time>2021-09-25T11:14:53.000Z</time>
      </trkpt>
      <trkpt lat="44.25945" lon="5.56778">
        <ele>1497</ele>
        <time>2021-09-25T11:14:56.000Z</time>
      </trkpt>
      <trkpt lat="44.25946" lon="5.56774">
        <ele>1496.5999755859</ele>
        <time>2021-09-25T11:15:00.000Z</time>
      </trkpt>
      <trkpt lat="44.25946" lon="5.56773">
        <ele>1496.4000244141</ele>
        <time>2021-09-25T11:15:01.000Z</time>
      </trkpt>
      <trkpt lat="44.25946" lon="5.56772">
        <ele>1496.4000244141</ele>
        <time>2021-09-25T11:15:02.000Z</time>
      </trkpt>
      <trkpt lat="44.25947" lon="5.56771">
        <ele>1496</ele>
        <time>2021-09-25T11:15:06.000Z</time>
      </trkpt>
      <trkpt lat="44.25948" lon="5.56771">
        <ele>1495.5999755859</ele>
        <time>2021-09-25T11:15:08.000Z</time>
      </trkpt>
      <trkpt lat="44.25951" lon="5.56764">
        <ele>1495.4000244141</ele>
        <time>2021-09-25T11:15:14.000Z</time>
      </trkpt>
      <trkpt lat="44.2595" lon="5.56762">
        <ele>1495.1999511719</ele>
        <time>2021-09-25T11:15:16.000Z</time>
      </trkpt>
      <trkpt lat="44.2595" lon="5.56762">
        <ele>1494.8000488281</ele>
        <time>2021-09-25T11:15:19.000Z</time>
      </trkpt>
      <trkpt lat="44.25951" lon="5.56761">
        <ele>1494.5999755859</ele>
        <time>2021-09-25T11:15:22.000Z</time>
      </trkpt>
      <trkpt lat="44.25952" lon="5.56758">
        <ele>1494.4000244141</ele>
        <time>2021-09-25T11:15:26.000Z</time>
      </trkpt>
      <trkpt lat="44.25954" lon="5.56756">
        <ele>1494.4000244141</ele>
        <time>2021-09-25T11:15:29.000Z</time>
      </trkpt>
      <trkpt lat="44.25956" lon="5.56752">
        <ele>1494</ele>
        <time>2021-09-25T11:15:35.000Z</time>
      </trkpt>
      <trkpt lat="44.25956" lon="5.56748">
        <ele>1493.8000488281</ele>
        <time>2021-09-25T11:15:38.000Z</time>
      </trkpt>
      <trkpt lat="44.25958" lon="5.56745">
        <ele>1493.4000244141</ele>
        <time>2021-09-25T11:15:42.000Z</time>
      </trkpt>
      <trkpt lat="44.25959" lon="5.56741">
        <ele>1492.8000488281</ele>
        <time>2021-09-25T11:15:45.000Z</time>
      </trkpt>
      <trkpt lat="44.25961" lon="5.56738">
        <ele>1492.5999755859</ele>
        <time>2021-09-25T11:15:49.000Z</time>
      </trkpt>
      <trkpt lat="44.2596" lon="5.56738">
        <ele>1492.1999511719</ele>
        <time>2021-09-25T11:15:50.000Z</time>
      </trkpt>
      <trkpt lat="44.25961" lon="5.56736">
        <ele>1492.4000244141</ele>
        <time>2021-09-25T11:15:53.000Z</time>
      </trkpt>
      <trkpt lat="44.25962" lon="5.56736">
        <ele>1492.5999755859</ele>
        <time>2021-09-25T11:15:55.000Z</time>
      </trkpt>
      <trkpt lat="44.25962" lon="5.56735">
        <ele>1492.8000488281</ele>
        <time>2021-09-25T11:15:57.000Z</time>
      </trkpt>
      <trkpt lat="44.25963" lon="5.56732">
        <ele>1492.1999511719</ele>
        <time>2021-09-25T11:16:01.000Z</time>
      </trkpt>
      <trkpt lat="44.25962" lon="5.56731">
        <ele>1492</ele>
        <time>2021-09-25T11:16:02.000Z</time>
      </trkpt>
      <trkpt lat="44.25962" lon="5.5673">
        <ele>1491.5999755859</ele>
        <time>2021-09-25T11:16:03.000Z</time>
      </trkpt>
      <trkpt lat="44.25962" lon="5.56724">
        <ele>1491</ele>
        <time>2021-09-25T11:16:09.000Z</time>
      </trkpt>
      <trkpt lat="44.25963" lon="5.56722">
        <ele>1490.5999755859</ele>
        <time>2021-09-25T11:16:13.000Z</time>
      </trkpt>
      <trkpt lat="44.25962" lon="5.5672">
        <ele>1489.8000488281</ele>
        <time>2021-09-25T11:16:17.000Z</time>
      </trkpt>
      <trkpt lat="44.25962" lon="5.56719">
        <ele>1489.4000244141</ele>
        <time>2021-09-25T11:16:19.000Z</time>
      </trkpt>
      <trkpt lat="44.25962" lon="5.56713">
        <ele>1488.5999755859</ele>
        <time>2021-09-25T11:16:25.000Z</time>
      </trkpt>
      <trkpt lat="44.25962" lon="5.56712">
        <ele>1488.4000244141</ele>
        <time>2021-09-25T11:16:26.000Z</time>
      </trkpt>
      <trkpt lat="44.25961" lon="5.56707">
        <ele>1487.4000244141</ele>
        <time>2021-09-25T11:16:31.000Z</time>
      </trkpt>
      <trkpt lat="44.25961" lon="5.56704">
        <ele>1487</ele>
        <time>2021-09-25T11:16:34.000Z</time>
      </trkpt>
      <trkpt lat="44.25965" lon="5.56697">
        <ele>1487.4000244141</ele>
        <time>2021-09-25T11:16:43.000Z</time>
      </trkpt>
      <trkpt lat="44.25965" lon="5.56696">
        <ele>1487.4000244141</ele>
        <time>2021-09-25T11:16:45.000Z</time>
      </trkpt>
      <trkpt lat="44.25965" lon="5.56694">
        <ele>1486</ele>
        <time>2021-09-25T11:16:47.000Z</time>
      </trkpt>
      <trkpt lat="44.25965" lon="5.56692">
        <ele>1485.4000244141</ele>
        <time>2021-09-25T11:16:49.000Z</time>
      </trkpt>
      <trkpt lat="44.25964" lon="5.5669">
        <ele>1485.1999511719</ele>
        <time>2021-09-25T11:16:51.000Z</time>
      </trkpt>
      <trkpt lat="44.25964" lon="5.56688">
        <ele>1484.8000488281</ele>
        <time>2021-09-25T11:16:53.000Z</time>
      </trkpt>
      <trkpt lat="44.25965" lon="5.56685">
        <ele>1483.8000488281</ele>
        <time>2021-09-25T11:16:57.000Z</time>
      </trkpt>
      <trkpt lat="44.25965" lon="5.56679">
        <ele>1483.4000244141</ele>
        <time>2021-09-25T11:17:03.000Z</time>
      </trkpt>
      <trkpt lat="44.25964" lon="5.56675">
        <ele>1482.5999755859</ele>
        <time>2021-09-25T11:17:08.000Z</time>
      </trkpt>
      <trkpt lat="44.25964" lon="5.56672">
        <ele>1481.8000488281</ele>
        <time>2021-09-25T11:17:11.000Z</time>
      </trkpt>
      <trkpt lat="44.25963" lon="5.56669">
        <ele>1481.4000244141</ele>
        <time>2021-09-25T11:17:15.000Z</time>
      </trkpt>
      <trkpt lat="44.25963" lon="5.56665">
        <ele>1480.4000244141</ele>
        <time>2021-09-25T11:17:19.000Z</time>
      </trkpt>
      <trkpt lat="44.25963" lon="5.5666">
        <ele>1480.4000244141</ele>
        <time>2021-09-25T11:17:24.000Z</time>
      </trkpt>
      <trkpt lat="44.25964" lon="5.56657">
        <ele>1480.4000244141</ele>
        <time>2021-09-25T11:17:28.000Z</time>
      </trkpt>
      <trkpt lat="44.25964" lon="5.56654">
        <ele>1480.1999511719</ele>
        <time>2021-09-25T11:17:32.000Z</time>
      </trkpt>
      <trkpt lat="44.25965" lon="5.56652">
        <ele>1479.1999511719</ele>
        <time>2021-09-25T11:17:35.000Z</time>
      </trkpt>
      <trkpt lat="44.25965" lon="5.56651">
        <ele>1479</ele>
        <time>2021-09-25T11:17:36.000Z</time>
      </trkpt>
      <trkpt lat="44.25964" lon="5.56649">
        <ele>1478</ele>
        <time>2021-09-25T11:17:38.000Z</time>
      </trkpt>
      <trkpt lat="44.25964" lon="5.56647">
        <ele>1477.5999755859</ele>
        <time>2021-09-25T11:17:40.000Z</time>
      </trkpt>
      <trkpt lat="44.25964" lon="5.56645">
        <ele>1477.1999511719</ele>
        <time>2021-09-25T11:17:43.000Z</time>
      </trkpt>
      <trkpt lat="44.25963" lon="5.56641">
        <ele>1477</ele>
        <time>2021-09-25T11:17:48.000Z</time>
      </trkpt>
      <trkpt lat="44.25963" lon="5.56639">
        <ele>1476.4000244141</ele>
        <time>2021-09-25T11:17:50.000Z</time>
      </trkpt>
      <trkpt lat="44.25962" lon="5.56634">
        <ele>1475.8000488281</ele>
        <time>2021-09-25T11:17:56.000Z</time>
      </trkpt>
      <trkpt lat="44.25962" lon="5.56632">
        <ele>1475.4000244141</ele>
        <time>2021-09-25T11:17:59.000Z</time>
      </trkpt>
      <trkpt lat="44.25961" lon="5.5663">
        <ele>1475</ele>
        <time>2021-09-25T11:18:01.000Z</time>
      </trkpt>
      <trkpt lat="44.25961" lon="5.5663">
        <ele>1475</ele>
        <time>2021-09-25T11:18:02.000Z</time>
      </trkpt>
      <trkpt lat="44.25961" lon="5.56629">
        <ele>1474.5999755859</ele>
        <time>2021-09-25T11:18:03.000Z</time>
      </trkpt>
      <trkpt lat="44.2596" lon="5.56625">
        <ele>1473.4000244141</ele>
        <time>2021-09-25T11:18:07.000Z</time>
      </trkpt>
      <trkpt lat="44.2596" lon="5.56623">
        <ele>1473</ele>
        <time>2021-09-25T11:18:10.000Z</time>
      </trkpt>
      <trkpt lat="44.25961" lon="5.56621">
        <ele>1472.8000488281</ele>
        <time>2021-09-25T11:18:12.000Z</time>
      </trkpt>
      <trkpt lat="44.2596" lon="5.56618">
        <ele>1472.5999755859</ele>
        <time>2021-09-25T11:18:15.000Z</time>
      </trkpt>
      <trkpt lat="44.2596" lon="5.56617">
        <ele>1472.5999755859</ele>
        <time>2021-09-25T11:18:16.000Z</time>
      </trkpt>
      <trkpt lat="44.2596" lon="5.56616">
        <ele>1472.4000244141</ele>
        <time>2021-09-25T11:18:17.000Z</time>
      </trkpt>
      <trkpt lat="44.2596" lon="5.56615">
        <ele>1472.4000244141</ele>
        <time>2021-09-25T11:18:18.000Z</time>
      </trkpt>
      <trkpt lat="44.2596" lon="5.56615">
        <ele>1472</ele>
        <time>2021-09-25T11:18:19.000Z</time>
      </trkpt>
      <trkpt lat="44.25961" lon="5.56614">
        <ele>1471.5999755859</ele>
        <time>2021-09-25T11:18:21.000Z</time>
      </trkpt>
      <trkpt lat="44.2596" lon="5.56612">
        <ele>1471.4000244141</ele>
        <time>2021-09-25T11:18:23.000Z</time>
      </trkpt>
      <trkpt lat="44.25961" lon="5.56609">
        <ele>1471</ele>
        <time>2021-09-25T11:18:27.000Z</time>
      </trkpt>
      <trkpt lat="44.2596" lon="5.56607">
        <ele>1470.4000244141</ele>
        <time>2021-09-25T11:18:31.000Z</time>
      </trkpt>
      <trkpt lat="44.2596" lon="5.56606">
        <ele>1470.1999511719</ele>
        <time>2021-09-25T11:18:32.000Z</time>
      </trkpt>
      <trkpt lat="44.2596" lon="5.56601">
        <ele>1469.5999755859</ele>
        <time>2021-09-25T11:18:39.000Z</time>
      </trkpt>
      <trkpt lat="44.25959" lon="5.566">
        <ele>1469.4000244141</ele>
        <time>2021-09-25T11:18:40.000Z</time>
      </trkpt>
      <trkpt lat="44.25959" lon="5.56599">
        <ele>1469.1999511719</ele>
        <time>2021-09-25T11:18:41.000Z</time>
      </trkpt>
      <trkpt lat="44.25959" lon="5.56597">
        <ele>1468.4000244141</ele>
        <time>2021-09-25T11:18:45.000Z</time>
      </trkpt>
      <trkpt lat="44.25959" lon="5.56596">
        <ele>1468.1999511719</ele>
        <time>2021-09-25T11:18:47.000Z</time>
      </trkpt>
      <trkpt lat="44.25958" lon="5.56594">
        <ele>1468.4000244141</ele>
        <time>2021-09-25T11:18:49.000Z</time>
      </trkpt>
      <trkpt lat="44.25958" lon="5.56593">
        <ele>1468.1999511719</ele>
        <time>2021-09-25T11:18:51.000Z</time>
      </trkpt>
      <trkpt lat="44.25958" lon="5.56592">
        <ele>1468.1999511719</ele>
        <time>2021-09-25T11:18:52.000Z</time>
      </trkpt>
      <trkpt lat="44.25958" lon="5.56588">
        <ele>1467.4000244141</ele>
        <time>2021-09-25T11:18:56.000Z</time>
      </trkpt>
      <trkpt lat="44.25958" lon="5.56586">
        <ele>1466.8000488281</ele>
        <time>2021-09-25T11:18:58.000Z</time>
      </trkpt>
      <trkpt lat="44.25957" lon="5.56582">
        <ele>1465.8000488281</ele>
        <time>2021-09-25T11:19:02.000Z</time>
      </trkpt>
      <trkpt lat="44.25957" lon="5.56582">
        <ele>1465.5999755859</ele>
        <time>2021-09-25T11:19:03.000Z</time>
      </trkpt>
      <trkpt lat="44.25957" lon="5.56581">
        <ele>1465.1999511719</ele>
        <time>2021-09-25T11:19:05.000Z</time>
      </trkpt>
      <trkpt lat="44.25956" lon="5.56578">
        <ele>1464.4000244141</ele>
        <time>2021-09-25T11:19:08.000Z</time>
      </trkpt>
      <trkpt lat="44.25956" lon="5.56575">
        <ele>1463.5999755859</ele>
        <time>2021-09-25T11:19:12.000Z</time>
      </trkpt>
      <trkpt lat="44.25955" lon="5.56574">
        <ele>1463.1999511719</ele>
        <time>2021-09-25T11:19:14.000Z</time>
      </trkpt>
      <trkpt lat="44.25956" lon="5.56572">
        <ele>1463</ele>
        <time>2021-09-25T11:19:17.000Z</time>
      </trkpt>
      <trkpt lat="44.25955" lon="5.5657">
        <ele>1462.5999755859</ele>
        <time>2021-09-25T11:19:20.000Z</time>
      </trkpt>
      <trkpt lat="44.25955" lon="5.56569">
        <ele>1462</ele>
        <time>2021-09-25T11:19:21.000Z</time>
      </trkpt>
      <trkpt lat="44.25955" lon="5.56565">
        <ele>1461</ele>
        <time>2021-09-25T11:19:26.000Z</time>
      </trkpt>
      <trkpt lat="44.25954" lon="5.56563">
        <ele>1461</ele>
        <time>2021-09-25T11:19:28.000Z</time>
      </trkpt>
      <trkpt lat="44.25953" lon="5.56557">
        <ele>1460.1999511719</ele>
        <time>2021-09-25T11:19:35.000Z</time>
      </trkpt>
      <trkpt lat="44.25953" lon="5.56556">
        <ele>1459.8000488281</ele>
        <time>2021-09-25T11:19:36.000Z</time>
      </trkpt>
      <trkpt lat="44.25952" lon="5.56553">
        <ele>1458.8000488281</ele>
        <time>2021-09-25T11:19:39.000Z</time>
      </trkpt>
      <trkpt lat="44.25952" lon="5.56549">
        <ele>1458</ele>
        <time>2021-09-25T11:19:43.000Z</time>
      </trkpt>
      <trkpt lat="44.25952" lon="5.56548">
        <ele>1457.5999755859</ele>
        <time>2021-09-25T11:19:45.000Z</time>
      </trkpt>
      <trkpt lat="44.2595" lon="5.56545">
        <ele>1456.8000488281</ele>
        <time>2021-09-25T11:19:52.000Z</time>
      </trkpt>
      <trkpt lat="44.25951" lon="5.56544">
        <ele>1456.8000488281</ele>
        <time>2021-09-25T11:19:53.000Z</time>
      </trkpt>
      <trkpt lat="44.25951" lon="5.56542">
        <ele>1456.8000488281</ele>
        <time>2021-09-25T11:19:56.000Z</time>
      </trkpt>
      <trkpt lat="44.2595" lon="5.56541">
        <ele>1456.5999755859</ele>
        <time>2021-09-25T11:19:57.000Z</time>
      </trkpt>
      <trkpt lat="44.2595" lon="5.56538">
        <ele>1455.8000488281</ele>
        <time>2021-09-25T11:20:00.000Z</time>
      </trkpt>
      <trkpt lat="44.2595" lon="5.56537">
        <ele>1455.5999755859</ele>
        <time>2021-09-25T11:20:01.000Z</time>
      </trkpt>
      <trkpt lat="44.2595" lon="5.56536">
        <ele>1455.1999511719</ele>
        <time>2021-09-25T11:20:02.000Z</time>
      </trkpt>
      <trkpt lat="44.25948" lon="5.5653">
        <ele>1454.4000244141</ele>
        <time>2021-09-25T11:20:08.000Z</time>
      </trkpt>
      <trkpt lat="44.25948" lon="5.56527">
        <ele>1454.4000244141</ele>
        <time>2021-09-25T11:20:12.000Z</time>
      </trkpt>
      <trkpt lat="44.25947" lon="5.56524">
        <ele>1454.1999511719</ele>
        <time>2021-09-25T11:20:14.000Z</time>
      </trkpt>
      <trkpt lat="44.25947" lon="5.56523">
        <ele>1454.1999511719</ele>
        <time>2021-09-25T11:20:15.000Z</time>
      </trkpt>
      <trkpt lat="44.25947" lon="5.56523">
        <ele>1454</ele>
        <time>2021-09-25T11:20:16.000Z</time>
      </trkpt>
      <trkpt lat="44.25946" lon="5.56519">
        <ele>1453.4000244141</ele>
        <time>2021-09-25T11:20:21.000Z</time>
      </trkpt>
      <trkpt lat="44.25946" lon="5.56518">
        <ele>1453</ele>
        <time>2021-09-25T11:20:22.000Z</time>
      </trkpt>
      <trkpt lat="44.25945" lon="5.56517">
        <ele>1452.4000244141</ele>
        <time>2021-09-25T11:20:23.000Z</time>
      </trkpt>
      <trkpt lat="44.25945" lon="5.56515">
        <ele>1451.8000488281</ele>
        <time>2021-09-25T11:20:25.000Z</time>
      </trkpt>
      <trkpt lat="44.25944" lon="5.56512">
        <ele>1451</ele>
        <time>2021-09-25T11:20:29.000Z</time>
      </trkpt>
      <trkpt lat="44.25944" lon="5.56512">
        <ele>1450.8000488281</ele>
        <time>2021-09-25T11:20:30.000Z</time>
      </trkpt>
      <trkpt lat="44.25944" lon="5.5651">
        <ele>1450.5999755859</ele>
        <time>2021-09-25T11:20:31.000Z</time>
      </trkpt>
      <trkpt lat="44.25943" lon="5.56509">
        <ele>1450.4000244141</ele>
        <time>2021-09-25T11:20:32.000Z</time>
      </trkpt>
      <trkpt lat="44.25942" lon="5.56506">
        <ele>1449.5999755859</ele>
        <time>2021-09-25T11:20:37.000Z</time>
      </trkpt>
      <trkpt lat="44.25942" lon="5.56505">
        <ele>1449.5999755859</ele>
        <time>2021-09-25T11:20:39.000Z</time>
      </trkpt>
      <trkpt lat="44.25942" lon="5.56504">
        <ele>1449.4000244141</ele>
        <time>2021-09-25T11:20:40.000Z</time>
      </trkpt>
      <trkpt lat="44.25942" lon="5.56503">
        <ele>1449.1999511719</ele>
        <time>2021-09-25T11:20:41.000Z</time>
      </trkpt>
      <trkpt lat="44.2594" lon="5.565">
        <ele>1448.5999755859</ele>
        <time>2021-09-25T11:20:44.000Z</time>
      </trkpt>
      <trkpt lat="44.2594" lon="5.56498">
        <ele>1448.1999511719</ele>
        <time>2021-09-25T11:20:47.000Z</time>
      </trkpt>
      <trkpt lat="44.25939" lon="5.56496">
        <ele>1447.8000488281</ele>
        <time>2021-09-25T11:20:51.000Z</time>
      </trkpt>
      <trkpt lat="44.25938" lon="5.56495">
        <ele>1447.5999755859</ele>
        <time>2021-09-25T11:20:58.000Z</time>
      </trkpt>
      <trkpt lat="44.25937" lon="5.56491">
        <ele>1447.8000488281</ele>
        <time>2021-09-25T11:21:04.000Z</time>
      </trkpt>
      <trkpt lat="44.25937" lon="5.56489">
        <ele>1447.5999755859</ele>
        <time>2021-09-25T11:21:06.000Z</time>
      </trkpt>
      <trkpt lat="44.25937" lon="5.56488">
        <ele>1447.4000244141</ele>
        <time>2021-09-25T11:21:07.000Z</time>
      </trkpt>
      <trkpt lat="44.25936" lon="5.56486">
        <ele>1446.5999755859</ele>
        <time>2021-09-25T11:21:09.000Z</time>
      </trkpt>
      <trkpt lat="44.25936" lon="5.56485">
        <ele>1446</ele>
        <time>2021-09-25T11:21:10.000Z</time>
      </trkpt>
      <trkpt lat="44.25936" lon="5.56483">
        <ele>1445.5999755859</ele>
        <time>2021-09-25T11:21:12.000Z</time>
      </trkpt>
      <trkpt lat="44.25935" lon="5.56479">
        <ele>1445</ele>
        <time>2021-09-25T11:21:16.000Z</time>
      </trkpt>
      <trkpt lat="44.25935" lon="5.56478">
        <ele>1444.5999755859</ele>
        <time>2021-09-25T11:21:17.000Z</time>
      </trkpt>
      <trkpt lat="44.25935" lon="5.56477">
        <ele>1444.1999511719</ele>
        <time>2021-09-25T11:21:18.000Z</time>
      </trkpt>
      <trkpt lat="44.25935" lon="5.56473">
        <ele>1443.4000244141</ele>
        <time>2021-09-25T11:21:22.000Z</time>
      </trkpt>
      <trkpt lat="44.25936" lon="5.56467">
        <ele>1443</ele>
        <time>2021-09-25T11:21:29.000Z</time>
      </trkpt>
      <trkpt lat="44.25934" lon="5.56464">
        <ele>1442</ele>
        <time>2021-09-25T11:21:33.000Z</time>
      </trkpt>
      <trkpt lat="44.25934" lon="5.56461">
        <ele>1441.4000244141</ele>
        <time>2021-09-25T11:21:36.000Z</time>
      </trkpt>
      <trkpt lat="44.25933" lon="5.56458">
        <ele>1441</ele>
        <time>2021-09-25T11:21:39.000Z</time>
      </trkpt>
      <trkpt lat="44.25933" lon="5.56456">
        <ele>1440.5999755859</ele>
        <time>2021-09-25T11:21:41.000Z</time>
      </trkpt>
      <trkpt lat="44.25932" lon="5.56452">
        <ele>1440</ele>
        <time>2021-09-25T11:21:46.000Z</time>
      </trkpt>
      <trkpt lat="44.25932" lon="5.56451">
        <ele>1440</ele>
        <time>2021-09-25T11:21:47.000Z</time>
      </trkpt>
      <trkpt lat="44.25932" lon="5.56448">
        <ele>1438.8000488281</ele>
        <time>2021-09-25T11:21:54.000Z</time>
      </trkpt>
      <trkpt lat="44.25931" lon="5.56448">
        <ele>1438.5999755859</ele>
        <time>2021-09-25T11:21:55.000Z</time>
      </trkpt>
      <trkpt lat="44.25932" lon="5.56446">
        <ele>1438.4000244141</ele>
        <time>2021-09-25T11:21:58.000Z</time>
      </trkpt>
      <trkpt lat="44.25932" lon="5.56445">
        <ele>1437.8000488281</ele>
        <time>2021-09-25T11:22:00.000Z</time>
      </trkpt>
      <trkpt lat="44.25931" lon="5.56442">
        <ele>1437.1999511719</ele>
        <time>2021-09-25T11:22:04.000Z</time>
      </trkpt>
      <trkpt lat="44.25931" lon="5.5644">
        <ele>1436.8000488281</ele>
        <time>2021-09-25T11:22:06.000Z</time>
      </trkpt>
      <trkpt lat="44.25931" lon="5.56436">
        <ele>1435.4000244141</ele>
        <time>2021-09-25T11:22:11.000Z</time>
      </trkpt>
      <trkpt lat="44.2593" lon="5.56435">
        <ele>1435</ele>
        <time>2021-09-25T11:22:13.000Z</time>
      </trkpt>
      <trkpt lat="44.25931" lon="5.56429">
        <ele>1434.4000244141</ele>
        <time>2021-09-25T11:22:20.000Z</time>
      </trkpt>
      <trkpt lat="44.25932" lon="5.56427">
        <ele>1434</ele>
        <time>2021-09-25T11:22:22.000Z</time>
      </trkpt>
      <trkpt lat="44.25934" lon="5.56421">
        <ele>1433.5999755859</ele>
        <time>2021-09-25T11:22:29.000Z</time>
      </trkpt>
      <trkpt lat="44.25934" lon="5.5642">
        <ele>1433.1999511719</ele>
        <time>2021-09-25T11:22:31.000Z</time>
      </trkpt>
      <trkpt lat="44.25935" lon="5.56416">
        <ele>1431.8000488281</ele>
        <time>2021-09-25T11:22:35.000Z</time>
      </trkpt>
      <trkpt lat="44.25934" lon="5.56415">
        <ele>1431.4000244141</ele>
        <time>2021-09-25T11:22:37.000Z</time>
      </trkpt>
      <trkpt lat="44.25935" lon="5.56411">
        <ele>1431.1999511719</ele>
        <time>2021-09-25T11:22:42.000Z</time>
      </trkpt>
      <trkpt lat="44.25935" lon="5.56408">
        <ele>1430.8000488281</ele>
        <time>2021-09-25T11:22:46.000Z</time>
      </trkpt>
      <trkpt lat="44.25937" lon="5.56401">
        <ele>1429.5999755859</ele>
        <time>2021-09-25T11:22:55.000Z</time>
      </trkpt>
      <trkpt lat="44.25937" lon="5.564">
        <ele>1429.4000244141</ele>
        <time>2021-09-25T11:22:56.000Z</time>
      </trkpt>
      <trkpt lat="44.2594" lon="5.56395">
        <ele>1428.8000488281</ele>
        <time>2021-09-25T11:23:02.000Z</time>
      </trkpt>
      <trkpt lat="44.2594" lon="5.56394">
        <ele>1428.4000244141</ele>
        <time>2021-09-25T11:23:04.000Z</time>
      </trkpt>
      <trkpt lat="44.2594" lon="5.5639">
        <ele>1428</ele>
        <time>2021-09-25T11:23:07.000Z</time>
      </trkpt>
      <trkpt lat="44.2594" lon="5.56388">
        <ele>1427.4000244141</ele>
        <time>2021-09-25T11:23:10.000Z</time>
      </trkpt>
      <trkpt lat="44.2594" lon="5.56384">
        <ele>1426.4000244141</ele>
        <time>2021-09-25T11:23:14.000Z</time>
      </trkpt>
      <trkpt lat="44.25938" lon="5.56381">
        <ele>1426.1999511719</ele>
        <time>2021-09-25T11:23:17.000Z</time>
      </trkpt>
      <trkpt lat="44.25938" lon="5.5638">
        <ele>1426.1999511719</ele>
        <time>2021-09-25T11:23:18.000Z</time>
      </trkpt>
      <trkpt lat="44.25939" lon="5.56375">
        <ele>1425.4000244141</ele>
        <time>2021-09-25T11:23:24.000Z</time>
      </trkpt>
      <trkpt lat="44.25939" lon="5.56373">
        <ele>1425.4000244141</ele>
        <time>2021-09-25T11:23:25.000Z</time>
      </trkpt>
      <trkpt lat="44.25943" lon="5.56366">
        <ele>1424.8000488281</ele>
        <time>2021-09-25T11:23:33.000Z</time>
      </trkpt>
      <trkpt lat="44.25944" lon="5.56366">
        <ele>1424.5999755859</ele>
        <time>2021-09-25T11:23:41.000Z</time>
      </trkpt>
      <trkpt lat="44.25944" lon="5.56366">
        <ele>1424.4000244141</ele>
        <time>2021-09-25T11:23:42.000Z</time>
      </trkpt>
      <trkpt lat="44.25944" lon="5.56365">
        <ele>1424.4000244141</ele>
        <time>2021-09-25T11:23:44.000Z</time>
      </trkpt>
      <trkpt lat="44.25944" lon="5.56365">
        <ele>1424.1999511719</ele>
        <time>2021-09-25T11:23:45.000Z</time>
      </trkpt>
      <trkpt lat="44.25944" lon="5.56361">
        <ele>1424</ele>
        <time>2021-09-25T11:23:48.000Z</time>
      </trkpt>
      <trkpt lat="44.25943" lon="5.56356">
        <ele>1423.8000488281</ele>
        <time>2021-09-25T11:23:52.000Z</time>
      </trkpt>
      <trkpt lat="44.25943" lon="5.56355">
        <ele>1424</ele>
        <time>2021-09-25T11:23:53.000Z</time>
      </trkpt>
      <trkpt lat="44.25943" lon="5.56353">
        <ele>1424.1999511719</ele>
        <time>2021-09-25T11:23:54.000Z</time>
      </trkpt>
      <trkpt lat="44.25942" lon="5.56349">
        <ele>1424.5999755859</ele>
        <time>2021-09-25T11:23:57.000Z</time>
      </trkpt>
      <trkpt lat="44.2594" lon="5.5634">
        <ele>1424</ele>
        <time>2021-09-25T11:24:04.000Z</time>
      </trkpt>
      <trkpt lat="44.2594" lon="5.56337">
        <ele>1424</ele>
        <time>2021-09-25T11:24:06.000Z</time>
      </trkpt>
      <trkpt lat="44.2594" lon="5.56332">
        <ele>1424.4000244141</ele>
        <time>2021-09-25T11:24:10.000Z</time>
      </trkpt>
      <trkpt lat="44.2594" lon="5.5633">
        <ele>1424.8000488281</ele>
        <time>2021-09-25T11:24:12.000Z</time>
      </trkpt>
      <trkpt lat="44.2594" lon="5.56327">
        <ele>1424.8000488281</ele>
        <time>2021-09-25T11:24:14.000Z</time>
      </trkpt>
      <trkpt lat="44.25942" lon="5.5632">
        <ele>1425.1999511719</ele>
        <time>2021-09-25T11:24:20.000Z</time>
      </trkpt>
      <trkpt lat="44.25942" lon="5.56317">
        <ele>1425.1999511719</ele>
        <time>2021-09-25T11:24:22.000Z</time>
      </trkpt>
      <trkpt lat="44.25944" lon="5.56311">
        <ele>1425.1999511719</ele>
        <time>2021-09-25T11:24:27.000Z</time>
      </trkpt>
      <trkpt lat="44.25944" lon="5.56308">
        <ele>1425.1999511719</ele>
        <time>2021-09-25T11:24:29.000Z</time>
      </trkpt>
      <trkpt lat="44.25947" lon="5.56297">
        <ele>1426</ele>
        <time>2021-09-25T11:24:38.000Z</time>
      </trkpt>
      <trkpt lat="44.25948" lon="5.56295">
        <ele>1426.4000244141</ele>
        <time>2021-09-25T11:24:40.000Z</time>
      </trkpt>
      <trkpt lat="44.25949" lon="5.56292">
        <ele>1427</ele>
        <time>2021-09-25T11:24:43.000Z</time>
      </trkpt>
      <trkpt lat="44.2595" lon="5.56291">
        <ele>1427</ele>
        <time>2021-09-25T11:24:45.000Z</time>
      </trkpt>
      <trkpt lat="44.25953" lon="5.56287">
        <ele>1427.1999511719</ele>
        <time>2021-09-25T11:24:50.000Z</time>
      </trkpt>
      <trkpt lat="44.25953" lon="5.56284">
        <ele>1427</ele>
        <time>2021-09-25T11:24:52.000Z</time>
      </trkpt>
      <trkpt lat="44.25953" lon="5.56282">
        <ele>1426.8000488281</ele>
        <time>2021-09-25T11:24:53.000Z</time>
      </trkpt>
      <trkpt lat="44.25953" lon="5.56281">
        <ele>1426.8000488281</ele>
        <time>2021-09-25T11:24:54.000Z</time>
      </trkpt>
      <trkpt lat="44.25954" lon="5.56278">
        <ele>1427.1999511719</ele>
        <time>2021-09-25T11:24:56.000Z</time>
      </trkpt>
      <trkpt lat="44.25953" lon="5.56277">
        <ele>1427.1999511719</ele>
        <time>2021-09-25T11:24:57.000Z</time>
      </trkpt>
      <trkpt lat="44.25953" lon="5.56276">
        <ele>1427.1999511719</ele>
        <time>2021-09-25T11:24:58.000Z</time>
      </trkpt>
      <trkpt lat="44.25953" lon="5.56273">
        <ele>1427.4000244141</ele>
        <time>2021-09-25T11:25:00.000Z</time>
      </trkpt>
      <trkpt lat="44.25953" lon="5.56268">
        <ele>1427.4000244141</ele>
        <time>2021-09-25T11:25:04.000Z</time>
      </trkpt>
      <trkpt lat="44.25953" lon="5.56267">
        <ele>1427.4000244141</ele>
        <time>2021-09-25T11:25:05.000Z</time>
      </trkpt>
      <trkpt lat="44.25953" lon="5.56265">
        <ele>1427.4000244141</ele>
        <time>2021-09-25T11:25:07.000Z</time>
      </trkpt>
      <trkpt lat="44.25953" lon="5.5626">
        <ele>1427.4000244141</ele>
        <time>2021-09-25T11:25:10.000Z</time>
      </trkpt>
      <trkpt lat="44.25955" lon="5.56253">
        <ele>1427.8000488281</ele>
        <time>2021-09-25T11:25:16.000Z</time>
      </trkpt>
      <trkpt lat="44.25955" lon="5.5625">
        <ele>1428.5999755859</ele>
        <time>2021-09-25T11:25:19.000Z</time>
      </trkpt>
      <trkpt lat="44.25958" lon="5.56247">
        <ele>1429.4000244141</ele>
        <time>2021-09-25T11:25:22.000Z</time>
      </trkpt>
      <trkpt lat="44.25958" lon="5.56246">
        <ele>1429.5999755859</ele>
        <time>2021-09-25T11:25:23.000Z</time>
      </trkpt>
      <trkpt lat="44.25958" lon="5.56245">
        <ele>1429.8000488281</ele>
        <time>2021-09-25T11:25:24.000Z</time>
      </trkpt>
      <trkpt lat="44.25961" lon="5.56236">
        <ele>1429.8000488281</ele>
        <time>2021-09-25T11:25:30.000Z</time>
      </trkpt>
      <trkpt lat="44.25961" lon="5.56233">
        <ele>1429.8000488281</ele>
        <time>2021-09-25T11:25:33.000Z</time>
      </trkpt>
      <trkpt lat="44.25962" lon="5.56231">
        <ele>1430.1999511719</ele>
        <time>2021-09-25T11:25:35.000Z</time>
      </trkpt>
      <trkpt lat="44.25962" lon="5.56228">
        <ele>1430.1999511719</ele>
        <time>2021-09-25T11:25:37.000Z</time>
      </trkpt>
      <trkpt lat="44.25962" lon="5.56226">
        <ele>1430.1999511719</ele>
        <time>2021-09-25T11:25:39.000Z</time>
      </trkpt>
      <trkpt lat="44.25962" lon="5.56223">
        <ele>1430</ele>
        <time>2021-09-25T11:25:42.000Z</time>
      </trkpt>
      <trkpt lat="44.25961" lon="5.56221">
        <ele>1430</ele>
        <time>2021-09-25T11:25:43.000Z</time>
      </trkpt>
      <trkpt lat="44.25961" lon="5.5622">
        <ele>1429.8000488281</ele>
        <time>2021-09-25T11:25:44.000Z</time>
      </trkpt>
      <trkpt lat="44.2596" lon="5.56217">
        <ele>1429.5999755859</ele>
        <time>2021-09-25T11:25:47.000Z</time>
      </trkpt>
      <trkpt lat="44.2596" lon="5.56212">
        <ele>1429.5999755859</ele>
        <time>2021-09-25T11:25:51.000Z</time>
      </trkpt>
      <trkpt lat="44.2596" lon="5.56211">
        <ele>1430</ele>
        <time>2021-09-25T11:25:52.000Z</time>
      </trkpt>
      <trkpt lat="44.2596" lon="5.56209">
        <ele>1430</ele>
        <time>2021-09-25T11:25:53.000Z</time>
      </trkpt>
      <trkpt lat="44.25962" lon="5.56201">
        <ele>1430.8000488281</ele>
        <time>2021-09-25T11:25:59.000Z</time>
      </trkpt>
      <trkpt lat="44.25963" lon="5.56198">
        <ele>1430.1999511719</ele>
        <time>2021-09-25T11:26:02.000Z</time>
      </trkpt>
      <trkpt lat="44.25964" lon="5.56194">
        <ele>1430</ele>
        <time>2021-09-25T11:26:05.000Z</time>
      </trkpt>
      <trkpt lat="44.25965" lon="5.56188">
        <ele>1430</ele>
        <time>2021-09-25T11:26:09.000Z</time>
      </trkpt>
      <trkpt lat="44.25965" lon="5.56184">
        <ele>1429.4000244141</ele>
        <time>2021-09-25T11:26:12.000Z</time>
      </trkpt>
      <trkpt lat="44.25965" lon="5.56182">
        <ele>1429.8000488281</ele>
        <time>2021-09-25T11:26:14.000Z</time>
      </trkpt>
      <trkpt lat="44.25965" lon="5.56178">
        <ele>1430.4000244141</ele>
        <time>2021-09-25T11:26:17.000Z</time>
      </trkpt>
      <trkpt lat="44.25965" lon="5.5617">
        <ele>1429.1999511719</ele>
        <time>2021-09-25T11:26:22.000Z</time>
      </trkpt>
      <trkpt lat="44.25966" lon="5.56161">
        <ele>1428.5999755859</ele>
        <time>2021-09-25T11:26:29.000Z</time>
      </trkpt>
      <trkpt lat="44.25966" lon="5.56161">
        <ele>1428.4000244141</ele>
        <time>2021-09-25T11:26:30.000Z</time>
      </trkpt>
      <trkpt lat="44.25967" lon="5.56154">
        <ele>1428.4000244141</ele>
        <time>2021-09-25T11:26:35.000Z</time>
      </trkpt>
      <trkpt lat="44.25967" lon="5.56151">
        <ele>1428.1999511719</ele>
        <time>2021-09-25T11:26:37.000Z</time>
      </trkpt>
      <trkpt lat="44.25967" lon="5.5615">
        <ele>1428.1999511719</ele>
        <time>2021-09-25T11:26:38.000Z</time>
      </trkpt>
      <trkpt lat="44.25968" lon="5.56147">
        <ele>1427.8000488281</ele>
        <time>2021-09-25T11:26:40.000Z</time>
      </trkpt>
      <trkpt lat="44.25967" lon="5.56144">
        <ele>1427.5999755859</ele>
        <time>2021-09-25T11:26:42.000Z</time>
      </trkpt>
      <trkpt lat="44.25965" lon="5.56138">
        <ele>1427.4000244141</ele>
        <time>2021-09-25T11:26:47.000Z</time>
      </trkpt>
      <trkpt lat="44.25966" lon="5.56135">
        <ele>1427.5999755859</ele>
        <time>2021-09-25T11:26:50.000Z</time>
      </trkpt>
      <trkpt lat="44.25967" lon="5.56134">
        <ele>1428.4000244141</ele>
        <time>2021-09-25T11:26:54.000Z</time>
      </trkpt>
      <trkpt lat="44.25966" lon="5.56133">
        <ele>1428.8000488281</ele>
        <time>2021-09-25T11:26:57.000Z</time>
      </trkpt>
      <trkpt lat="44.25966" lon="5.56129">
        <ele>1428</ele>
        <time>2021-09-25T11:27:02.000Z</time>
      </trkpt>
      <trkpt lat="44.25966" lon="5.56129">
        <ele>1428</ele>
        <time>2021-09-25T11:27:06.000Z</time>
      </trkpt>
      <trkpt lat="44.25966" lon="5.56127">
        <ele>1428</ele>
        <time>2021-09-25T11:27:08.000Z</time>
      </trkpt>
      <trkpt lat="44.25966" lon="5.56127">
        <ele>1428</ele>
        <time>2021-09-25T11:27:09.000Z</time>
      </trkpt>
      <trkpt lat="44.25965" lon="5.56124">
        <ele>1428</ele>
        <time>2021-09-25T11:27:12.000Z</time>
      </trkpt>
      <trkpt lat="44.25966" lon="5.5612">
        <ele>1428</ele>
        <time>2021-09-25T11:27:15.000Z</time>
      </trkpt>
      <trkpt lat="44.25966" lon="5.56119">
        <ele>1428</ele>
        <time>2021-09-25T11:27:16.000Z</time>
      </trkpt>
      <trkpt lat="44.25966" lon="5.56116">
        <ele>1428</ele>
        <time>2021-09-25T11:27:18.000Z</time>
      </trkpt>
      <trkpt lat="44.25965" lon="5.56114">
        <ele>1427.1999511719</ele>
        <time>2021-09-25T11:27:20.000Z</time>
      </trkpt>
      <trkpt lat="44.25965" lon="5.56112">
        <ele>1426.8000488281</ele>
        <time>2021-09-25T11:27:21.000Z</time>
      </trkpt>
      <trkpt lat="44.25965" lon="5.56108">
        <ele>1425.8000488281</ele>
        <time>2021-09-25T11:27:24.000Z</time>
      </trkpt>
      <trkpt lat="44.25964" lon="5.56106">
        <ele>1425.5999755859</ele>
        <time>2021-09-25T11:27:25.000Z</time>
      </trkpt>
      <trkpt lat="44.25964" lon="5.56105">
        <ele>1425.5999755859</ele>
        <time>2021-09-25T11:27:26.000Z</time>
      </trkpt>
      <trkpt lat="44.25963" lon="5.56102">
        <ele>1425.4000244141</ele>
        <time>2021-09-25T11:27:28.000Z</time>
      </trkpt>
      <trkpt lat="44.25963" lon="5.56092">
        <ele>1424.8000488281</ele>
        <time>2021-09-25T11:27:35.000Z</time>
      </trkpt>
      <trkpt lat="44.25963" lon="5.56089">
        <ele>1425</ele>
        <time>2021-09-25T11:27:37.000Z</time>
      </trkpt>
      <trkpt lat="44.25963" lon="5.5608">
        <ele>1425.8000488281</ele>
        <time>2021-09-25T11:27:44.000Z</time>
      </trkpt>
      <trkpt lat="44.25962" lon="5.56072">
        <ele>1424.5999755859</ele>
        <time>2021-09-25T11:27:51.000Z</time>
      </trkpt>
      <trkpt lat="44.25962" lon="5.5607">
        <ele>1424.8000488281</ele>
        <time>2021-09-25T11:27:52.000Z</time>
      </trkpt>
      <trkpt lat="44.25961" lon="5.56067">
        <ele>1424.5999755859</ele>
        <time>2021-09-25T11:27:54.000Z</time>
      </trkpt>
      <trkpt lat="44.2596" lon="5.56058">
        <ele>1424.5999755859</ele>
        <time>2021-09-25T11:28:00.000Z</time>
      </trkpt>
      <trkpt lat="44.25961" lon="5.56051">
        <ele>1424.4000244141</ele>
        <time>2021-09-25T11:28:05.000Z</time>
      </trkpt>
      <trkpt lat="44.25961" lon="5.56046">
        <ele>1424.5999755859</ele>
        <time>2021-09-25T11:28:09.000Z</time>
      </trkpt>
      <trkpt lat="44.25961" lon="5.56045">
        <ele>1424.5999755859</ele>
        <time>2021-09-25T11:28:10.000Z</time>
      </trkpt>
      <trkpt lat="44.25961" lon="5.56042">
        <ele>1424.8000488281</ele>
        <time>2021-09-25T11:28:12.000Z</time>
      </trkpt>
      <trkpt lat="44.25961" lon="5.56035">
        <ele>1425.4000244141</ele>
        <time>2021-09-25T11:28:18.000Z</time>
      </trkpt>
      <trkpt lat="44.25961" lon="5.56033">
        <ele>1425.4000244141</ele>
        <time>2021-09-25T11:28:19.000Z</time>
      </trkpt>
      <trkpt lat="44.25961" lon="5.5603">
        <ele>1425.1999511719</ele>
        <time>2021-09-25T11:28:22.000Z</time>
      </trkpt>
      <trkpt lat="44.2596" lon="5.56028">
        <ele>1425.8000488281</ele>
        <time>2021-09-25T11:28:26.000Z</time>
      </trkpt>
      <trkpt lat="44.2596" lon="5.56027">
        <ele>1426.1999511719</ele>
        <time>2021-09-25T11:28:29.000Z</time>
      </trkpt>
      <trkpt lat="44.25959" lon="5.56027">
        <ele>1426.1999511719</ele>
        <time>2021-09-25T11:28:32.000Z</time>
      </trkpt>
      <trkpt lat="44.25958" lon="5.56026">
        <ele>1427</ele>
        <time>2021-09-25T11:28:38.000Z</time>
      </trkpt>
      <trkpt lat="44.25958" lon="5.56026">
        <ele>1427.8000488281</ele>
        <time>2021-09-25T11:28:43.000Z</time>
      </trkpt>
      <trkpt lat="44.25958" lon="5.56026">
        <ele>1428.5999755859</ele>
        <time>2021-09-25T11:28:44.000Z</time>
      </trkpt>
      <trkpt lat="44.25959" lon="5.56026">
        <ele>1428.8000488281</ele>
        <time>2021-09-25T11:28:46.000Z</time>
      </trkpt>
      <trkpt lat="44.25959" lon="5.56026">
        <ele>1429.1999511719</ele>
        <time>2021-09-25T11:28:47.000Z</time>
      </trkpt>
      <trkpt lat="44.2596" lon="5.56025">
        <ele>1429</ele>
        <time>2021-09-25T11:28:50.000Z</time>
      </trkpt>
      <trkpt lat="44.25961" lon="5.56024">
        <ele>1428.4000244141</ele>
        <time>2021-09-25T11:28:51.000Z</time>
      </trkpt>
      <trkpt lat="44.25961" lon="5.56022">
        <ele>1428.1999511719</ele>
        <time>2021-09-25T11:28:52.000Z</time>
      </trkpt>
      <trkpt lat="44.25961" lon="5.5602">
        <ele>1428</ele>
        <time>2021-09-25T11:28:53.000Z</time>
      </trkpt>
      <trkpt lat="44.25961" lon="5.56019">
        <ele>1427.8000488281</ele>
        <time>2021-09-25T11:28:54.000Z</time>
      </trkpt>
      <trkpt lat="44.25961" lon="5.56017">
        <ele>1427.5999755859</ele>
        <time>2021-09-25T11:28:56.000Z</time>
      </trkpt>
      <trkpt lat="44.2596" lon="5.56015">
        <ele>1427.8000488281</ele>
        <time>2021-09-25T11:28:58.000Z</time>
      </trkpt>
      <trkpt lat="44.25958" lon="5.56006">
        <ele>1428.1999511719</ele>
        <time>2021-09-25T11:29:05.000Z</time>
      </trkpt>
      <trkpt lat="44.25958" lon="5.56005">
        <ele>1428.1999511719</ele>
        <time>2021-09-25T11:29:06.000Z</time>
      </trkpt>
      <trkpt lat="44.25959" lon="5.56003">
        <ele>1428</ele>
        <time>2021-09-25T11:29:07.000Z</time>
      </trkpt>
      <trkpt lat="44.2596" lon="5.55997">
        <ele>1428</ele>
        <time>2021-09-25T11:29:11.000Z</time>
      </trkpt>
      <trkpt lat="44.25959" lon="5.55994">
        <ele>1428</ele>
        <time>2021-09-25T11:29:13.000Z</time>
      </trkpt>
      <trkpt lat="44.25959" lon="5.5599">
        <ele>1428.4000244141</ele>
        <time>2021-09-25T11:29:16.000Z</time>
      </trkpt>
      <trkpt lat="44.25959" lon="5.55985">
        <ele>1429.4000244141</ele>
        <time>2021-09-25T11:29:20.000Z</time>
      </trkpt>
      <trkpt lat="44.25958" lon="5.55984">
        <ele>1429.8000488281</ele>
        <time>2021-09-25T11:29:21.000Z</time>
      </trkpt>
      <trkpt lat="44.25958" lon="5.55978">
        <ele>1430.4000244141</ele>
        <time>2021-09-25T11:29:26.000Z</time>
      </trkpt>
      <trkpt lat="44.25957" lon="5.55977">
        <ele>1430.1999511719</ele>
        <time>2021-09-25T11:29:27.000Z</time>
      </trkpt>
      <trkpt lat="44.25956" lon="5.55972">
        <ele>1428.8000488281</ele>
        <time>2021-09-25T11:29:32.000Z</time>
      </trkpt>
      <trkpt lat="44.25956" lon="5.55966">
        <ele>1428.5999755859</ele>
        <time>2021-09-25T11:29:36.000Z</time>
      </trkpt>
      <trkpt lat="44.25956" lon="5.55962">
        <ele>1428.5999755859</ele>
        <time>2021-09-25T11:29:39.000Z</time>
      </trkpt>
      <trkpt lat="44.25954" lon="5.55956">
        <ele>1430</ele>
        <time>2021-09-25T11:29:44.000Z</time>
      </trkpt>
      <trkpt lat="44.25953" lon="5.55954">
        <ele>1430</ele>
        <time>2021-09-25T11:29:45.000Z</time>
      </trkpt>
      <trkpt lat="44.25953" lon="5.55953">
        <ele>1429.8000488281</ele>
        <time>2021-09-25T11:29:46.000Z</time>
      </trkpt>
      <trkpt lat="44.25953" lon="5.55951">
        <ele>1429</ele>
        <time>2021-09-25T11:29:49.000Z</time>
      </trkpt>
      <trkpt lat="44.25952" lon="5.55947">
        <ele>1428.4000244141</ele>
        <time>2021-09-25T11:29:53.000Z</time>
      </trkpt>
      <trkpt lat="44.25951" lon="5.55943">
        <ele>1429</ele>
        <time>2021-09-25T11:29:58.000Z</time>
      </trkpt>
      <trkpt lat="44.25951" lon="5.55942">
        <ele>1429</ele>
        <time>2021-09-25T11:30:01.000Z</time>
      </trkpt>
      <trkpt lat="44.25952" lon="5.55943">
        <ele>1430</ele>
        <time>2021-09-25T11:30:06.000Z</time>
      </trkpt>
      <trkpt lat="44.25952" lon="5.55943">
        <ele>1430.1999511719</ele>
        <time>2021-09-25T11:30:07.000Z</time>
      </trkpt>
      <trkpt lat="44.25952" lon="5.5594">
        <ele>1431.4000244141</ele>
        <time>2021-09-25T11:30:10.000Z</time>
      </trkpt>
      <trkpt lat="44.25953" lon="5.55937">
        <ele>1431.5999755859</ele>
        <time>2021-09-25T11:30:12.000Z</time>
      </trkpt>
      <trkpt lat="44.25953" lon="5.55931">
        <ele>1432</ele>
        <time>2021-09-25T11:30:16.000Z</time>
      </trkpt>
      <trkpt lat="44.25952" lon="5.55927">
        <ele>1430.5999755859</ele>
        <time>2021-09-25T11:30:19.000Z</time>
      </trkpt>
      <trkpt lat="44.25951" lon="5.55926">
        <ele>1429.8000488281</ele>
        <time>2021-09-25T11:30:20.000Z</time>
      </trkpt>
      <trkpt lat="44.25951" lon="5.55925">
        <ele>1429.4000244141</ele>
        <time>2021-09-25T11:30:21.000Z</time>
      </trkpt>
      <trkpt lat="44.25951" lon="5.55923">
        <ele>1429.5999755859</ele>
        <time>2021-09-25T11:30:24.000Z</time>
      </trkpt>
      <trkpt lat="44.2595" lon="5.55919">
        <ele>1429.4000244141</ele>
        <time>2021-09-25T11:30:27.000Z</time>
      </trkpt>
      <trkpt lat="44.25949" lon="5.55913">
        <ele>1428.4000244141</ele>
        <time>2021-09-25T11:30:32.000Z</time>
      </trkpt>
      <trkpt lat="44.25949" lon="5.55912">
        <ele>1427.1999511719</ele>
        <time>2021-09-25T11:30:34.000Z</time>
      </trkpt>
      <trkpt lat="44.25949" lon="5.55907">
        <ele>1426.8000488281</ele>
        <time>2021-09-25T11:30:38.000Z</time>
      </trkpt>
      <trkpt lat="44.25949" lon="5.55906">
        <ele>1427</ele>
        <time>2021-09-25T11:30:39.000Z</time>
      </trkpt>
      <trkpt lat="44.25947" lon="5.55898">
        <ele>1425.8000488281</ele>
        <time>2021-09-25T11:30:46.000Z</time>
      </trkpt>
      <trkpt lat="44.25945" lon="5.55893">
        <ele>1425.1999511719</ele>
        <time>2021-09-25T11:30:50.000Z</time>
      </trkpt>
      <trkpt lat="44.25944" lon="5.55886">
        <ele>1425.4000244141</ele>
        <time>2021-09-25T11:30:56.000Z</time>
      </trkpt>
      <trkpt lat="44.25944" lon="5.55882">
        <ele>1424.8000488281</ele>
        <time>2021-09-25T11:31:02.000Z</time>
      </trkpt>
      <trkpt lat="44.25943" lon="5.55874">
        <ele>1423.8000488281</ele>
        <time>2021-09-25T11:31:09.000Z</time>
      </trkpt>
      <trkpt lat="44.25942" lon="5.55872">
        <ele>1423.8000488281</ele>
        <time>2021-09-25T11:31:10.000Z</time>
      </trkpt>
      <trkpt lat="44.25942" lon="5.5587">
        <ele>1423.8000488281</ele>
        <time>2021-09-25T11:31:12.000Z</time>
      </trkpt>
      <trkpt lat="44.25941" lon="5.55864">
        <ele>1424</ele>
        <time>2021-09-25T11:31:16.000Z</time>
      </trkpt>
      <trkpt lat="44.25941" lon="5.55863">
        <ele>1423.8000488281</ele>
        <time>2021-09-25T11:31:17.000Z</time>
      </trkpt>
      <trkpt lat="44.25941" lon="5.55859">
        <ele>1423.1999511719</ele>
        <time>2021-09-25T11:31:20.000Z</time>
      </trkpt>
      <trkpt lat="44.25941" lon="5.55857">
        <ele>1422.5999755859</ele>
        <time>2021-09-25T11:31:22.000Z</time>
      </trkpt>
      <trkpt lat="44.25941" lon="5.55854">
        <ele>1422.8000488281</ele>
        <time>2021-09-25T11:31:24.000Z</time>
      </trkpt>
      <trkpt lat="44.25941" lon="5.55853">
        <ele>1423</ele>
        <time>2021-09-25T11:31:25.000Z</time>
      </trkpt>
      <trkpt lat="44.25942" lon="5.55847">
        <ele>1422.4000244141</ele>
        <time>2021-09-25T11:31:30.000Z</time>
      </trkpt>
      <trkpt lat="44.25944" lon="5.55843">
        <ele>1421.8000488281</ele>
        <time>2021-09-25T11:31:34.000Z</time>
      </trkpt>
      <trkpt lat="44.25945" lon="5.55842">
        <ele>1421.5999755859</ele>
        <time>2021-09-25T11:31:37.000Z</time>
      </trkpt>
      <trkpt lat="44.25945" lon="5.55842">
        <ele>1421.5999755859</ele>
        <time>2021-09-25T11:31:38.000Z</time>
      </trkpt>
      <trkpt lat="44.25945" lon="5.55841">
        <ele>1421.1999511719</ele>
        <time>2021-09-25T11:31:44.000Z</time>
      </trkpt>
      <trkpt lat="44.25944" lon="5.55837">
        <ele>1421.8000488281</ele>
        <time>2021-09-25T11:31:47.000Z</time>
      </trkpt>
      <trkpt lat="44.25944" lon="5.55835">
        <ele>1421.4000244141</ele>
        <time>2021-09-25T11:31:49.000Z</time>
      </trkpt>
      <trkpt lat="44.25943" lon="5.55832">
        <ele>1420.4000244141</ele>
        <time>2021-09-25T11:31:51.000Z</time>
      </trkpt>
      <trkpt lat="44.25943" lon="5.5583">
        <ele>1420.1999511719</ele>
        <time>2021-09-25T11:31:52.000Z</time>
      </trkpt>
      <trkpt lat="44.25943" lon="5.55829">
        <ele>1419.8000488281</ele>
        <time>2021-09-25T11:31:53.000Z</time>
      </trkpt>
      <trkpt lat="44.25943" lon="5.55828">
        <ele>1419.4000244141</ele>
        <time>2021-09-25T11:31:54.000Z</time>
      </trkpt>
      <trkpt lat="44.25944" lon="5.55826">
        <ele>1419.4000244141</ele>
        <time>2021-09-25T11:31:55.000Z</time>
      </trkpt>
      <trkpt lat="44.25944" lon="5.55825">
        <ele>1419.1999511719</ele>
        <time>2021-09-25T11:31:56.000Z</time>
      </trkpt>
      <trkpt lat="44.25944" lon="5.55821">
        <ele>1419</ele>
        <time>2021-09-25T11:31:59.000Z</time>
      </trkpt>
      <trkpt lat="44.25945" lon="5.55812">
        <ele>1419</ele>
        <time>2021-09-25T11:32:07.000Z</time>
      </trkpt>
      <trkpt lat="44.25947" lon="5.55808">
        <ele>1419.5999755859</ele>
        <time>2021-09-25T11:32:10.000Z</time>
      </trkpt>
      <trkpt lat="44.25947" lon="5.55806">
        <ele>1419.5999755859</ele>
        <time>2021-09-25T11:32:13.000Z</time>
      </trkpt>
      <trkpt lat="44.25948" lon="5.55798">
        <ele>1419.4000244141</ele>
        <time>2021-09-25T11:32:20.000Z</time>
      </trkpt>
      <trkpt lat="44.25949" lon="5.55797">
        <ele>1419.4000244141</ele>
        <time>2021-09-25T11:32:21.000Z</time>
      </trkpt>
      <trkpt lat="44.25948" lon="5.55795">
        <ele>1418.5999755859</ele>
        <time>2021-09-25T11:32:23.000Z</time>
      </trkpt>
      <trkpt lat="44.25948" lon="5.55795">
        <ele>1418.1999511719</ele>
        <time>2021-09-25T11:32:24.000Z</time>
      </trkpt>
      <trkpt lat="44.25948" lon="5.55793">
        <ele>1417</ele>
        <time>2021-09-25T11:32:26.000Z</time>
      </trkpt>
      <trkpt lat="44.25948" lon="5.55792">
        <ele>1416.5999755859</ele>
        <time>2021-09-25T11:32:27.000Z</time>
      </trkpt>
      <trkpt lat="44.25949" lon="5.55787">
        <ele>1416.1999511719</ele>
        <time>2021-09-25T11:32:33.000Z</time>
      </trkpt>
      <trkpt lat="44.2595" lon="5.55785">
        <ele>1415.8000488281</ele>
        <time>2021-09-25T11:32:35.000Z</time>
      </trkpt>
      <trkpt lat="44.25949" lon="5.55782">
        <ele>1415.1999511719</ele>
        <time>2021-09-25T11:32:38.000Z</time>
      </trkpt>
      <trkpt lat="44.25949" lon="5.55775">
        <ele>1414.4000244141</ele>
        <time>2021-09-25T11:32:44.000Z</time>
      </trkpt>
      <trkpt lat="44.25949" lon="5.55772">
        <ele>1414</ele>
        <time>2021-09-25T11:32:47.000Z</time>
      </trkpt>
      <trkpt lat="44.25949" lon="5.55771">
        <ele>1414</ele>
        <time>2021-09-25T11:32:48.000Z</time>
      </trkpt>
      <trkpt lat="44.25948" lon="5.55766">
        <ele>1413.4000244141</ele>
        <time>2021-09-25T11:32:52.000Z</time>
      </trkpt>
      <trkpt lat="44.25948" lon="5.55765">
        <ele>1413.4000244141</ele>
        <time>2021-09-25T11:32:53.000Z</time>
      </trkpt>
      <trkpt lat="44.25946" lon="5.55762">
        <ele>1412.4000244141</ele>
        <time>2021-09-25T11:32:57.000Z</time>
      </trkpt>
      <trkpt lat="44.25945" lon="5.55761">
        <ele>1412.4000244141</ele>
        <time>2021-09-25T11:32:58.000Z</time>
      </trkpt>
      <trkpt lat="44.25945" lon="5.55756">
        <ele>1411.5999755859</ele>
        <time>2021-09-25T11:33:04.000Z</time>
      </trkpt>
      <trkpt lat="44.25945" lon="5.55751">
        <ele>1411.4000244141</ele>
        <time>2021-09-25T11:33:09.000Z</time>
      </trkpt>
      <trkpt lat="44.25945" lon="5.5575">
        <ele>1411</ele>
        <time>2021-09-25T11:33:10.000Z</time>
      </trkpt>
      <trkpt lat="44.25944" lon="5.55746">
        <ele>1410.4000244141</ele>
        <time>2021-09-25T11:33:14.000Z</time>
      </trkpt>
      <trkpt lat="44.25944" lon="5.55744">
        <ele>1410.5999755859</ele>
        <time>2021-09-25T11:33:16.000Z</time>
      </trkpt>
      <trkpt lat="44.25944" lon="5.55743">
        <ele>1410.5999755859</ele>
        <time>2021-09-25T11:33:17.000Z</time>
      </trkpt>
      <trkpt lat="44.25943" lon="5.55742">
        <ele>1410.4000244141</ele>
        <time>2021-09-25T11:33:18.000Z</time>
      </trkpt>
      <trkpt lat="44.25944" lon="5.55739">
        <ele>1410.1999511719</ele>
        <time>2021-09-25T11:33:21.000Z</time>
      </trkpt>
      <trkpt lat="44.25944" lon="5.55738">
        <ele>1410.1999511719</ele>
        <time>2021-09-25T11:33:22.000Z</time>
      </trkpt>
      <trkpt lat="44.25943" lon="5.55737">
        <ele>1410</ele>
        <time>2021-09-25T11:33:24.000Z</time>
      </trkpt>
      <trkpt lat="44.25943" lon="5.55735">
        <ele>1409.4000244141</ele>
        <time>2021-09-25T11:33:26.000Z</time>
      </trkpt>
      <trkpt lat="44.25943" lon="5.55734">
        <ele>1409.1999511719</ele>
        <time>2021-09-25T11:33:27.000Z</time>
      </trkpt>
      <trkpt lat="44.25941" lon="5.55732">
        <ele>1407.8000488281</ele>
        <time>2021-09-25T11:33:31.000Z</time>
      </trkpt>
      <trkpt lat="44.25941" lon="5.55731">
        <ele>1407.5999755859</ele>
        <time>2021-09-25T11:33:33.000Z</time>
      </trkpt>
      <trkpt lat="44.25941" lon="5.55725">
        <ele>1407</ele>
        <time>2021-09-25T11:33:40.000Z</time>
      </trkpt>
      <trkpt lat="44.25941" lon="5.55724">
        <ele>1406.5999755859</ele>
        <time>2021-09-25T11:33:41.000Z</time>
      </trkpt>
      <trkpt lat="44.25939" lon="5.5572">
        <ele>1405.4000244141</ele>
        <time>2021-09-25T11:33:47.000Z</time>
      </trkpt>
      <trkpt lat="44.25939" lon="5.5572">
        <ele>1405.4000244141</ele>
        <time>2021-09-25T11:33:48.000Z</time>
      </trkpt>
      <trkpt lat="44.25938" lon="5.55718">
        <ele>1405</ele>
        <time>2021-09-25T11:33:51.000Z</time>
      </trkpt>
      <trkpt lat="44.25937" lon="5.55715">
        <ele>1405.1999511719</ele>
        <time>2021-09-25T11:33:55.000Z</time>
      </trkpt>
      <trkpt lat="44.25936" lon="5.5571">
        <ele>1405</ele>
        <time>2021-09-25T11:34:01.000Z</time>
      </trkpt>
      <trkpt lat="44.25935" lon="5.55709">
        <ele>1404</ele>
        <time>2021-09-25T11:34:04.000Z</time>
      </trkpt>
      <trkpt lat="44.25936" lon="5.55706">
        <ele>1403</ele>
        <time>2021-09-25T11:34:07.000Z</time>
      </trkpt>
      <trkpt lat="44.25936" lon="5.55704">
        <ele>1402.4000244141</ele>
        <time>2021-09-25T11:34:10.000Z</time>
      </trkpt>
      <trkpt lat="44.25935" lon="5.55702">
        <ele>1401.8000488281</ele>
        <time>2021-09-25T11:34:13.000Z</time>
      </trkpt>
      <trkpt lat="44.25935" lon="5.55702">
        <ele>1401.1999511719</ele>
        <time>2021-09-25T11:34:15.000Z</time>
      </trkpt>
      <trkpt lat="44.25934" lon="5.55701">
        <ele>1401</ele>
        <time>2021-09-25T11:34:16.000Z</time>
      </trkpt>
      <trkpt lat="44.25934" lon="5.557">
        <ele>1400.5999755859</ele>
        <time>2021-09-25T11:34:18.000Z</time>
      </trkpt>
      <trkpt lat="44.25933" lon="5.55699">
        <ele>1401</ele>
        <time>2021-09-25T11:34:22.000Z</time>
      </trkpt>
      <trkpt lat="44.25929" lon="5.55697">
        <ele>1399.5999755859</ele>
        <time>2021-09-25T11:34:30.000Z</time>
      </trkpt>
      <trkpt lat="44.25928" lon="5.55697">
        <ele>1399.4000244141</ele>
        <time>2021-09-25T11:34:31.000Z</time>
      </trkpt>
      <trkpt lat="44.25926" lon="5.55695">
        <ele>1398.1999511719</ele>
        <time>2021-09-25T11:34:35.000Z</time>
      </trkpt>
      <trkpt lat="44.25925" lon="5.55694">
        <ele>1398</ele>
        <time>2021-09-25T11:34:37.000Z</time>
      </trkpt>
      <trkpt lat="44.25925" lon="5.55694">
        <ele>1397.8000488281</ele>
        <time>2021-09-25T11:34:38.000Z</time>
      </trkpt>
      <trkpt lat="44.25923" lon="5.5569">
        <ele>1397</ele>
        <time>2021-09-25T11:34:43.000Z</time>
      </trkpt>
      <trkpt lat="44.25923" lon="5.55688">
        <ele>1396</ele>
        <time>2021-09-25T11:34:46.000Z</time>
      </trkpt>
      <trkpt lat="44.2592" lon="5.55688">
        <ele>1395</ele>
        <time>2021-09-25T11:34:53.000Z</time>
      </trkpt>
      <trkpt lat="44.25919" lon="5.55688">
        <ele>1394.8000488281</ele>
        <time>2021-09-25T11:34:54.000Z</time>
      </trkpt>
      <trkpt lat="44.25916" lon="5.55687">
        <ele>1393.8000488281</ele>
        <time>2021-09-25T11:35:00.000Z</time>
      </trkpt>
      <trkpt lat="44.25916" lon="5.55687">
        <ele>1393.5999755859</ele>
        <time>2021-09-25T11:35:01.000Z</time>
      </trkpt>
      <trkpt lat="44.25915" lon="5.55686">
        <ele>1393</ele>
        <time>2021-09-25T11:35:04.000Z</time>
      </trkpt>
      <trkpt lat="44.25915" lon="5.55685">
        <ele>1392.8000488281</ele>
        <time>2021-09-25T11:35:05.000Z</time>
      </trkpt>
      <trkpt lat="44.25915" lon="5.55684">
        <ele>1392.5999755859</ele>
        <time>2021-09-25T11:35:06.000Z</time>
      </trkpt>
      <trkpt lat="44.25914" lon="5.55681">
        <ele>1392</ele>
        <time>2021-09-25T11:35:10.000Z</time>
      </trkpt>
      <trkpt lat="44.25914" lon="5.5568">
        <ele>1391.8000488281</ele>
        <time>2021-09-25T11:35:11.000Z</time>
      </trkpt>
      <trkpt lat="44.25913" lon="5.55677">
        <ele>1391.5999755859</ele>
        <time>2021-09-25T11:35:17.000Z</time>
      </trkpt>
      <trkpt lat="44.25912" lon="5.55674">
        <ele>1391.4000244141</ele>
        <time>2021-09-25T11:35:20.000Z</time>
      </trkpt>
      <trkpt lat="44.25912" lon="5.55673">
        <ele>1391.4000244141</ele>
        <time>2021-09-25T11:35:22.000Z</time>
      </trkpt>
      <trkpt lat="44.25912" lon="5.55672">
        <ele>1391</ele>
        <time>2021-09-25T11:35:24.000Z</time>
      </trkpt>
      <trkpt lat="44.25912" lon="5.55671">
        <ele>1390.4000244141</ele>
        <time>2021-09-25T11:35:26.000Z</time>
      </trkpt>
      <trkpt lat="44.25912" lon="5.5567">
        <ele>1390.1999511719</ele>
        <time>2021-09-25T11:35:27.000Z</time>
      </trkpt>
      <trkpt lat="44.25911" lon="5.55667">
        <ele>1389.4000244141</ele>
        <time>2021-09-25T11:35:32.000Z</time>
      </trkpt>
      <trkpt lat="44.25912" lon="5.55664">
        <ele>1388.4000244141</ele>
        <time>2021-09-25T11:35:36.000Z</time>
      </trkpt>
      <trkpt lat="44.25912" lon="5.55664">
        <ele>1388.1999511719</ele>
        <time>2021-09-25T11:35:37.000Z</time>
      </trkpt>
      <trkpt lat="44.25912" lon="5.55656">
        <ele>1387.1999511719</ele>
        <time>2021-09-25T11:35:45.000Z</time>
      </trkpt>
      <trkpt lat="44.25912" lon="5.55655">
        <ele>1386.5999755859</ele>
        <time>2021-09-25T11:35:47.000Z</time>
      </trkpt>
      <trkpt lat="44.25912" lon="5.55653">
        <ele>1386.4000244141</ele>
        <time>2021-09-25T11:35:51.000Z</time>
      </trkpt>
      <trkpt lat="44.25912" lon="5.5565">
        <ele>1386.1999511719</ele>
        <time>2021-09-25T11:35:57.000Z</time>
      </trkpt>
      <trkpt lat="44.25911" lon="5.55648">
        <ele>1386</ele>
        <time>2021-09-25T11:36:03.000Z</time>
      </trkpt>
      <trkpt lat="44.25911" lon="5.55647">
        <ele>1385.8000488281</ele>
        <time>2021-09-25T11:36:04.000Z</time>
      </trkpt>
      <trkpt lat="44.25909" lon="5.55648">
        <ele>1387</ele>
        <time>2021-09-25T11:36:07.000Z</time>
      </trkpt>
      <trkpt lat="44.25909" lon="5.55648">
        <ele>1387.1999511719</ele>
        <time>2021-09-25T11:36:08.000Z</time>
      </trkpt>
      <trkpt lat="44.25907" lon="5.55648">
        <ele>1386.4000244141</ele>
        <time>2021-09-25T11:36:11.000Z</time>
      </trkpt>
      <trkpt lat="44.25907" lon="5.55648">
        <ele>1386</ele>
        <time>2021-09-25T11:36:12.000Z</time>
      </trkpt>
      <trkpt lat="44.25905" lon="5.55646">
        <ele>1385.1999511719</ele>
        <time>2021-09-25T11:36:18.000Z</time>
      </trkpt>
      <trkpt lat="44.25905" lon="5.55645">
        <ele>1385.1999511719</ele>
        <time>2021-09-25T11:36:19.000Z</time>
      </trkpt>
      <trkpt lat="44.25905" lon="5.55645">
        <ele>1384.8000488281</ele>
        <time>2021-09-25T11:36:21.000Z</time>
      </trkpt>
      <trkpt lat="44.25904" lon="5.55641">
        <ele>1383.1999511719</ele>
        <time>2021-09-25T11:36:26.000Z</time>
      </trkpt>
      <trkpt lat="44.25904" lon="5.5564">
        <ele>1382.4000244141</ele>
        <time>2021-09-25T11:36:27.000Z</time>
      </trkpt>
      <trkpt lat="44.25903" lon="5.5564">
        <ele>1382</ele>
        <time>2021-09-25T11:36:28.000Z</time>
      </trkpt>
      <trkpt lat="44.25902" lon="5.55635">
        <ele>1381</ele>
        <time>2021-09-25T11:36:35.000Z</time>
      </trkpt>
      <trkpt lat="44.25902" lon="5.55634">
        <ele>1380.8000488281</ele>
        <time>2021-09-25T11:36:38.000Z</time>
      </trkpt>
      <trkpt lat="44.25902" lon="5.55634">
        <ele>1380.4000244141</ele>
        <time>2021-09-25T11:36:39.000Z</time>
      </trkpt>
      <trkpt lat="44.25902" lon="5.55633">
        <ele>1379.5999755859</ele>
        <time>2021-09-25T11:36:42.000Z</time>
      </trkpt>
      <trkpt lat="44.25902" lon="5.55632">
        <ele>1379.4000244141</ele>
        <time>2021-09-25T11:36:45.000Z</time>
      </trkpt>
      <trkpt lat="44.25902" lon="5.55632">
        <ele>1379</ele>
        <time>2021-09-25T11:36:47.000Z</time>
      </trkpt>
      <trkpt lat="44.25902" lon="5.5563">
        <ele>1378.5999755859</ele>
        <time>2021-09-25T11:36:51.000Z</time>
      </trkpt>
      <trkpt lat="44.25902" lon="5.55629">
        <ele>1378.4000244141</ele>
        <time>2021-09-25T11:36:53.000Z</time>
      </trkpt>
      <trkpt lat="44.25901" lon="5.55628">
        <ele>1378.4000244141</ele>
        <time>2021-09-25T11:36:55.000Z</time>
      </trkpt>
      <trkpt lat="44.259" lon="5.55633">
        <ele>1378</ele>
        <time>2021-09-25T11:36:58.000Z</time>
      </trkpt>
      <trkpt lat="44.259" lon="5.55633">
        <ele>1378</ele>
        <time>2021-09-25T11:36:59.000Z</time>
      </trkpt>
      <trkpt lat="44.25899" lon="5.55633">
        <ele>1377.4000244141</ele>
        <time>2021-09-25T11:37:03.000Z</time>
      </trkpt>
      <trkpt lat="44.259" lon="5.55633">
        <ele>1377.1999511719</ele>
        <time>2021-09-25T11:37:05.000Z</time>
      </trkpt>
      <trkpt lat="44.259" lon="5.55633">
        <ele>1377</ele>
        <time>2021-09-25T11:37:07.000Z</time>
      </trkpt>
      <trkpt lat="44.25899" lon="5.55633">
        <ele>1377</ele>
        <time>2021-09-25T11:37:08.000Z</time>
      </trkpt>
      <trkpt lat="44.25897" lon="5.55634">
        <ele>1376.8000488281</ele>
        <time>2021-09-25T11:37:12.000Z</time>
      </trkpt>
      <trkpt lat="44.25895" lon="5.55634">
        <ele>1376.1999511719</ele>
        <time>2021-09-25T11:37:16.000Z</time>
      </trkpt>
      <trkpt lat="44.25895" lon="5.55634">
        <ele>1375.8000488281</ele>
        <time>2021-09-25T11:37:19.000Z</time>
      </trkpt>
      <trkpt lat="44.25894" lon="5.55633">
        <ele>1375.8000488281</ele>
        <time>2021-09-25T11:37:21.000Z</time>
      </trkpt>
      <trkpt lat="44.25894" lon="5.55629">
        <ele>1376.4000244141</ele>
        <time>2021-09-25T11:37:27.000Z</time>
      </trkpt>
      <trkpt lat="44.25893" lon="5.55623">
        <ele>1375.4000244141</ele>
        <time>2021-09-25T11:37:35.000Z</time>
      </trkpt>
      <trkpt lat="44.25893" lon="5.55622">
        <ele>1375.1999511719</ele>
        <time>2021-09-25T11:37:37.000Z</time>
      </trkpt>
      <trkpt lat="44.25893" lon="5.55621">
        <ele>1374.1999511719</ele>
        <time>2021-09-25T11:37:40.000Z</time>
      </trkpt>
      <trkpt lat="44.25893" lon="5.5562">
        <ele>1373.5999755859</ele>
        <time>2021-09-25T11:37:42.000Z</time>
      </trkpt>
      <trkpt lat="44.25892" lon="5.55619">
        <ele>1373.5999755859</ele>
        <time>2021-09-25T11:37:44.000Z</time>
      </trkpt>
      <trkpt lat="44.25892" lon="5.55618">
        <ele>1373.1999511719</ele>
        <time>2021-09-25T11:37:46.000Z</time>
      </trkpt>
      <trkpt lat="44.25892" lon="5.55618">
        <ele>1373</ele>
        <time>2021-09-25T11:37:47.000Z</time>
      </trkpt>
      <trkpt lat="44.25892" lon="5.55617">
        <ele>1372.4000244141</ele>
        <time>2021-09-25T11:37:51.000Z</time>
      </trkpt>
      <trkpt lat="44.25892" lon="5.55617">
        <ele>1372.4000244141</ele>
        <time>2021-09-25T11:37:52.000Z</time>
      </trkpt>
      <trkpt lat="44.25891" lon="5.55618">
        <ele>1372</ele>
        <time>2021-09-25T11:37:57.000Z</time>
      </trkpt>
      <trkpt lat="44.25891" lon="5.55618">
        <ele>1371.8000488281</ele>
        <time>2021-09-25T11:37:58.000Z</time>
      </trkpt>
      <trkpt lat="44.2589" lon="5.55619">
        <ele>1371.8000488281</ele>
        <time>2021-09-25T11:38:03.000Z</time>
      </trkpt>
      <trkpt lat="44.25892" lon="5.55618">
        <ele>1371.8000488281</ele>
        <time>2021-09-25T11:38:06.000Z</time>
      </trkpt>
      <trkpt lat="44.25891" lon="5.55618">
        <ele>1371.8000488281</ele>
        <time>2021-09-25T11:38:08.000Z</time>
      </trkpt>
      <trkpt lat="44.2589" lon="5.55614">
        <ele>1370.4000244141</ele>
        <time>2021-09-25T11:38:14.000Z</time>
      </trkpt>
      <trkpt lat="44.25888" lon="5.55612">
        <ele>1369.8000488281</ele>
        <time>2021-09-25T11:38:17.000Z</time>
      </trkpt>
      <trkpt lat="44.25887" lon="5.5561">
        <ele>1369.5999755859</ele>
        <time>2021-09-25T11:38:22.000Z</time>
      </trkpt>
      <trkpt lat="44.25887" lon="5.55608">
        <ele>1369.1999511719</ele>
        <time>2021-09-25T11:38:24.000Z</time>
      </trkpt>
      <trkpt lat="44.25885" lon="5.55605">
        <ele>1368</ele>
        <time>2021-09-25T11:38:30.000Z</time>
      </trkpt>
      <trkpt lat="44.25885" lon="5.55601">
        <ele>1367.1999511719</ele>
        <time>2021-09-25T11:38:35.000Z</time>
      </trkpt>
      <trkpt lat="44.25884" lon="5.556">
        <ele>1366.5999755859</ele>
        <time>2021-09-25T11:38:37.000Z</time>
      </trkpt>
      <trkpt lat="44.25884" lon="5.55599">
        <ele>1366.1999511719</ele>
        <time>2021-09-25T11:38:39.000Z</time>
      </trkpt>
      <trkpt lat="44.25883" lon="5.55595">
        <ele>1365.5999755859</ele>
        <time>2021-09-25T11:38:44.000Z</time>
      </trkpt>
      <trkpt lat="44.25883" lon="5.55593">
        <ele>1364.8000488281</ele>
        <time>2021-09-25T11:38:48.000Z</time>
      </trkpt>
      <trkpt lat="44.25882" lon="5.55591">
        <ele>1364.4000244141</ele>
        <time>2021-09-25T11:38:51.000Z</time>
      </trkpt>
      <trkpt lat="44.2588" lon="5.55588">
        <ele>1363.4000244141</ele>
        <time>2021-09-25T11:38:57.000Z</time>
      </trkpt>
      <trkpt lat="44.25879" lon="5.55587">
        <ele>1363.4000244141</ele>
        <time>2021-09-25T11:38:59.000Z</time>
      </trkpt>
      <trkpt lat="44.25878" lon="5.55587">
        <ele>1362.8000488281</ele>
        <time>2021-09-25T11:39:02.000Z</time>
      </trkpt>
      <trkpt lat="44.25878" lon="5.55587">
        <ele>1362.5999755859</ele>
        <time>2021-09-25T11:39:03.000Z</time>
      </trkpt>
      <trkpt lat="44.25877" lon="5.55586">
        <ele>1362.1999511719</ele>
        <time>2021-09-25T11:39:05.000Z</time>
      </trkpt>
      <trkpt lat="44.25877" lon="5.55585">
        <ele>1362</ele>
        <time>2021-09-25T11:39:06.000Z</time>
      </trkpt>
      <trkpt lat="44.25876" lon="5.55581">
        <ele>1361.1999511719</ele>
        <time>2021-09-25T11:39:14.000Z</time>
      </trkpt>
      <trkpt lat="44.25875" lon="5.5558">
        <ele>1360.4000244141</ele>
        <time>2021-09-25T11:39:16.000Z</time>
      </trkpt>
      <trkpt lat="44.25875" lon="5.5558">
        <ele>1360.1999511719</ele>
        <time>2021-09-25T11:39:17.000Z</time>
      </trkpt>
      <trkpt lat="44.25874" lon="5.55579">
        <ele>1359.5999755859</ele>
        <time>2021-09-25T11:39:19.000Z</time>
      </trkpt>
      <trkpt lat="44.25873" lon="5.55578">
        <ele>1359.4000244141</ele>
        <time>2021-09-25T11:39:22.000Z</time>
      </trkpt>
      <trkpt lat="44.25872" lon="5.55577">
        <ele>1359.1999511719</ele>
        <time>2021-09-25T11:39:25.000Z</time>
      </trkpt>
      <trkpt lat="44.25871" lon="5.55575">
        <ele>1358.4000244141</ele>
        <time>2021-09-25T11:39:29.000Z</time>
      </trkpt>
      <trkpt lat="44.25871" lon="5.55575">
        <ele>1358.1999511719</ele>
        <time>2021-09-25T11:39:30.000Z</time>
      </trkpt>
      <trkpt lat="44.2587" lon="5.55573">
        <ele>1358</ele>
        <time>2021-09-25T11:39:35.000Z</time>
      </trkpt>
      <trkpt lat="44.2587" lon="5.55573">
        <ele>1358</ele>
        <time>2021-09-25T11:39:36.000Z</time>
      </trkpt>
      <trkpt lat="44.2587" lon="5.55575">
        <ele>1358</ele>
        <time>2021-09-25T11:39:40.000Z</time>
      </trkpt>
      <trkpt lat="44.2587" lon="5.55576">
        <ele>1358.1999511719</ele>
        <time>2021-09-25T11:39:48.000Z</time>
      </trkpt>
      <trkpt lat="44.2587" lon="5.55575">
        <ele>1358.4000244141</ele>
        <time>2021-09-25T11:39:49.000Z</time>
      </trkpt>
      <trkpt lat="44.2587" lon="5.55575">
        <ele>1358.4000244141</ele>
        <time>2021-09-25T11:39:50.000Z</time>
      </trkpt>
      <trkpt lat="44.2587" lon="5.55577">
        <ele>1358.5999755859</ele>
        <time>2021-09-25T11:39:52.000Z</time>
      </trkpt>
      <trkpt lat="44.2587" lon="5.55577">
        <ele>1358.4000244141</ele>
        <time>2021-09-25T11:39:55.000Z</time>
      </trkpt>
      <trkpt lat="44.2587" lon="5.55578">
        <ele>1357.8000488281</ele>
        <time>2021-09-25T11:40:01.000Z</time>
      </trkpt>
      <trkpt lat="44.25869" lon="5.55575">
        <ele>1358.1999511719</ele>
        <time>2021-09-25T11:40:07.000Z</time>
      </trkpt>
      <trkpt lat="44.25867" lon="5.55571">
        <ele>1357.5999755859</ele>
        <time>2021-09-25T11:40:14.000Z</time>
      </trkpt>
      <trkpt lat="44.25867" lon="5.5557">
        <ele>1357.8000488281</ele>
        <time>2021-09-25T11:40:15.000Z</time>
      </trkpt>
      <trkpt lat="44.25866" lon="5.55569">
        <ele>1357.4000244141</ele>
        <time>2021-09-25T11:40:23.000Z</time>
      </trkpt>
      <trkpt lat="44.25866" lon="5.55569">
        <ele>1357</ele>
        <time>2021-09-25T11:40:24.000Z</time>
      </trkpt>
      <trkpt lat="44.25866" lon="5.55569">
        <ele>1355.8000488281</ele>
        <time>2021-09-25T11:40:29.000Z</time>
      </trkpt>
      <trkpt lat="44.25866" lon="5.55568">
        <ele>1355.5999755859</ele>
        <time>2021-09-25T11:40:30.000Z</time>
      </trkpt>
      <trkpt lat="44.25866" lon="5.55566">
        <ele>1355.4000244141</ele>
        <time>2021-09-25T11:40:38.000Z</time>
      </trkpt>
      <trkpt lat="44.25866" lon="5.55565">
        <ele>1355.1999511719</ele>
        <time>2021-09-25T11:40:40.000Z</time>
      </trkpt>
      <trkpt lat="44.25867" lon="5.55564">
        <ele>1354.5999755859</ele>
        <time>2021-09-25T11:40:45.000Z</time>
      </trkpt>
      <trkpt lat="44.25867" lon="5.55564">
        <ele>1354.4000244141</ele>
        <time>2021-09-25T11:40:46.000Z</time>
      </trkpt>
      <trkpt lat="44.25866" lon="5.55565">
        <ele>1354.1999511719</ele>
        <time>2021-09-25T11:40:53.000Z</time>
      </trkpt>
      <trkpt lat="44.25867" lon="5.55567">
        <ele>1354.1999511719</ele>
        <time>2021-09-25T11:40:55.000Z</time>
      </trkpt>
      <trkpt lat="44.25869" lon="5.55572">
        <ele>1355.4000244141</ele>
        <time>2021-09-25T11:41:01.000Z</time>
      </trkpt>
      <trkpt lat="44.2587" lon="5.55573">
        <ele>1356.1999511719</ele>
        <time>2021-09-25T11:41:03.000Z</time>
      </trkpt>
      <trkpt lat="44.25871" lon="5.55574">
        <ele>1356.8000488281</ele>
        <time>2021-09-25T11:41:08.000Z</time>
      </trkpt>
      <trkpt lat="44.25871" lon="5.55574">
        <ele>1357.1999511719</ele>
        <time>2021-09-25T11:41:15.000Z</time>
      </trkpt>
      <trkpt lat="44.25868" lon="5.55573">
        <ele>1357.4000244141</ele>
        <time>2021-09-25T11:41:18.000Z</time>
      </trkpt>
      <trkpt lat="44.25868" lon="5.55572">
        <ele>1356.1999511719</ele>
        <time>2021-09-25T11:41:25.000Z</time>
      </trkpt>
      <trkpt lat="44.25868" lon="5.55571">
        <ele>1356.1999511719</ele>
        <time>2021-09-25T11:41:26.000Z</time>
      </trkpt>
      <trkpt lat="44.25868" lon="5.55571">
        <ele>1356.1999511719</ele>
        <time>2021-09-25T11:41:27.000Z</time>
      </trkpt>
      <trkpt lat="44.25868" lon="5.55569">
        <ele>1356</ele>
        <time>2021-09-25T11:41:30.000Z</time>
      </trkpt>
      <trkpt lat="44.25868" lon="5.55567">
        <ele>1356.1999511719</ele>
        <time>2021-09-25T11:41:33.000Z</time>
      </trkpt>
      <trkpt lat="44.25868" lon="5.55567">
        <ele>1355.5999755859</ele>
        <time>2021-09-25T11:41:35.000Z</time>
      </trkpt>
      <trkpt lat="44.25868" lon="5.55567">
        <ele>1354.8000488281</ele>
        <time>2021-09-25T11:41:37.000Z</time>
      </trkpt>
      <trkpt lat="44.25867" lon="5.55564">
        <ele>1354.1999511719</ele>
        <time>2021-09-25T11:41:41.000Z</time>
      </trkpt>
      <trkpt lat="44.25866" lon="5.55562">
        <ele>1354.4000244141</ele>
        <time>2021-09-25T11:41:44.000Z</time>
      </trkpt>
      <trkpt lat="44.25864" lon="5.55559">
        <ele>1354.4000244141</ele>
        <time>2021-09-25T11:41:48.000Z</time>
      </trkpt>
      <trkpt lat="44.25863" lon="5.55558">
        <ele>1353.5999755859</ele>
        <time>2021-09-25T11:41:50.000Z</time>
      </trkpt>
      <trkpt lat="44.25861" lon="5.55555">
        <ele>1352.8000488281</ele>
        <time>2021-09-25T11:41:54.000Z</time>
      </trkpt>
      <trkpt lat="44.25861" lon="5.55553">
        <ele>1352.1999511719</ele>
        <time>2021-09-25T11:41:57.000Z</time>
      </trkpt>
      <trkpt lat="44.25861" lon="5.5555">
        <ele>1351.8000488281</ele>
        <time>2021-09-25T11:42:02.000Z</time>
      </trkpt>
      <trkpt lat="44.25861" lon="5.55549">
        <ele>1351.1999511719</ele>
        <time>2021-09-25T11:42:03.000Z</time>
      </trkpt>
      <trkpt lat="44.25861" lon="5.55545">
        <ele>1350.4000244141</ele>
        <time>2021-09-25T11:42:10.000Z</time>
      </trkpt>
      <trkpt lat="44.25865" lon="5.5554">
        <ele>1350.4000244141</ele>
        <time>2021-09-25T11:42:15.000Z</time>
      </trkpt>
      <trkpt lat="44.25865" lon="5.55539">
        <ele>1350.4000244141</ele>
        <time>2021-09-25T11:42:16.000Z</time>
      </trkpt>
      <trkpt lat="44.25866" lon="5.55536">
        <ele>1350.4000244141</ele>
        <time>2021-09-25T11:42:19.000Z</time>
      </trkpt>
      <trkpt lat="44.25867" lon="5.55534">
        <ele>1350.1999511719</ele>
        <time>2021-09-25T11:42:22.000Z</time>
      </trkpt>
      <trkpt lat="44.25869" lon="5.55531">
        <ele>1350.1999511719</ele>
        <time>2021-09-25T11:42:25.000Z</time>
      </trkpt>
      <trkpt lat="44.25874" lon="5.55526">
        <ele>1349.4000244141</ele>
        <time>2021-09-25T11:42:33.000Z</time>
      </trkpt>
      <trkpt lat="44.25874" lon="5.55526">
        <ele>1349.1999511719</ele>
        <time>2021-09-25T11:42:34.000Z</time>
      </trkpt>
      <trkpt lat="44.25877" lon="5.55523">
        <ele>1348.5999755859</ele>
        <time>2021-09-25T11:42:39.000Z</time>
      </trkpt>
      <trkpt lat="44.25877" lon="5.55522">
        <ele>1348.4000244141</ele>
        <time>2021-09-25T11:42:40.000Z</time>
      </trkpt>
      <trkpt lat="44.25877" lon="5.55521">
        <ele>1348.1999511719</ele>
        <time>2021-09-25T11:42:41.000Z</time>
      </trkpt>
      <trkpt lat="44.25877" lon="5.55521">
        <ele>1348</ele>
        <time>2021-09-25T11:42:42.000Z</time>
      </trkpt>
      <trkpt lat="44.25878" lon="5.55515">
        <ele>1347.4000244141</ele>
        <time>2021-09-25T11:42:50.000Z</time>
      </trkpt>
      <trkpt lat="44.25877" lon="5.55514">
        <ele>1347</ele>
        <time>2021-09-25T11:42:53.000Z</time>
      </trkpt>
      <trkpt lat="44.25876" lon="5.55513">
        <ele>1346.5999755859</ele>
        <time>2021-09-25T11:42:57.000Z</time>
      </trkpt>
      <trkpt lat="44.25874" lon="5.55511">
        <ele>1346.5999755859</ele>
        <time>2021-09-25T11:43:02.000Z</time>
      </trkpt>
      <trkpt lat="44.25873" lon="5.55511">
        <ele>1346.5999755859</ele>
        <time>2021-09-25T11:43:03.000Z</time>
      </trkpt>
      <trkpt lat="44.25872" lon="5.55511">
        <ele>1346.4000244141</ele>
        <time>2021-09-25T11:43:04.000Z</time>
      </trkpt>
      <trkpt lat="44.25871" lon="5.5551">
        <ele>1345.5999755859</ele>
        <time>2021-09-25T11:43:07.000Z</time>
      </trkpt>
      <trkpt lat="44.25871" lon="5.5551">
        <ele>1345.4000244141</ele>
        <time>2021-09-25T11:43:08.000Z</time>
      </trkpt>
      <trkpt lat="44.25869" lon="5.55509">
        <ele>1344.8000488281</ele>
        <time>2021-09-25T11:43:13.000Z</time>
      </trkpt>
      <trkpt lat="44.25868" lon="5.55509">
        <ele>1344.4000244141</ele>
        <time>2021-09-25T11:43:15.000Z</time>
      </trkpt>
      <trkpt lat="44.25868" lon="5.5551">
        <ele>1344.4000244141</ele>
        <time>2021-09-25T11:43:16.000Z</time>
      </trkpt>
      <trkpt lat="44.25867" lon="5.5551">
        <ele>1344</ele>
        <time>2021-09-25T11:43:19.000Z</time>
      </trkpt>
      <trkpt lat="44.25867" lon="5.55509">
        <ele>1343.8000488281</ele>
        <time>2021-09-25T11:43:20.000Z</time>
      </trkpt>
      <trkpt lat="44.25866" lon="5.55509">
        <ele>1343.4000244141</ele>
        <time>2021-09-25T11:43:23.000Z</time>
      </trkpt>
      <trkpt lat="44.25863" lon="5.55507">
        <ele>1342.4000244141</ele>
        <time>2021-09-25T11:43:27.000Z</time>
      </trkpt>
      <trkpt lat="44.25863" lon="5.55507">
        <ele>1342.1999511719</ele>
        <time>2021-09-25T11:43:28.000Z</time>
      </trkpt>
      <trkpt lat="44.25862" lon="5.55506">
        <ele>1341.8000488281</ele>
        <time>2021-09-25T11:43:29.000Z</time>
      </trkpt>
      <trkpt lat="44.25861" lon="5.55505">
        <ele>1341.1999511719</ele>
        <time>2021-09-25T11:43:31.000Z</time>
      </trkpt>
      <trkpt lat="44.25858" lon="5.55504">
        <ele>1340.1999511719</ele>
        <time>2021-09-25T11:43:34.000Z</time>
      </trkpt>
      <trkpt lat="44.25857" lon="5.55503">
        <ele>1340</ele>
        <time>2021-09-25T11:43:36.000Z</time>
      </trkpt>
      <trkpt lat="44.25856" lon="5.55502">
        <ele>1339.1999511719</ele>
        <time>2021-09-25T11:43:38.000Z</time>
      </trkpt>
      <trkpt lat="44.25855" lon="5.555">
        <ele>1338.8000488281</ele>
        <time>2021-09-25T11:43:40.000Z</time>
      </trkpt>
      <trkpt lat="44.25854" lon="5.55499">
        <ele>1338.4000244141</ele>
        <time>2021-09-25T11:43:41.000Z</time>
      </trkpt>
      <trkpt lat="44.25854" lon="5.55499">
        <ele>1338</ele>
        <time>2021-09-25T11:43:42.000Z</time>
      </trkpt>
      <trkpt lat="44.25854" lon="5.55498">
        <ele>1337.8000488281</ele>
        <time>2021-09-25T11:43:43.000Z</time>
      </trkpt>
      <trkpt lat="44.25852" lon="5.55494">
        <ele>1337.1999511719</ele>
        <time>2021-09-25T11:43:47.000Z</time>
      </trkpt>
      <trkpt lat="44.25851" lon="5.55493">
        <ele>1337</ele>
        <time>2021-09-25T11:43:49.000Z</time>
      </trkpt>
      <trkpt lat="44.2585" lon="5.55491">
        <ele>1336.5999755859</ele>
        <time>2021-09-25T11:43:51.000Z</time>
      </trkpt>
      <trkpt lat="44.25849" lon="5.55489">
        <ele>1335.4000244141</ele>
        <time>2021-09-25T11:43:53.000Z</time>
      </trkpt>
      <trkpt lat="44.25848" lon="5.55485">
        <ele>1334.4000244141</ele>
        <time>2021-09-25T11:43:56.000Z</time>
      </trkpt>
      <trkpt lat="44.25846" lon="5.55483">
        <ele>1333.8000488281</ele>
        <time>2021-09-25T11:43:58.000Z</time>
      </trkpt>
      <trkpt lat="44.25844" lon="5.55481">
        <ele>1333.5999755859</ele>
        <time>2021-09-25T11:44:00.000Z</time>
      </trkpt>
      <trkpt lat="44.25842" lon="5.55479">
        <ele>1332.8000488281</ele>
        <time>2021-09-25T11:44:02.000Z</time>
      </trkpt>
      <trkpt lat="44.25837" lon="5.55476">
        <ele>1332.4000244141</ele>
        <time>2021-09-25T11:44:05.000Z</time>
      </trkpt>
      <trkpt lat="44.25831" lon="5.55466">
        <ele>1332</ele>
        <time>2021-09-25T11:44:12.000Z</time>
      </trkpt>
      <trkpt lat="44.2583" lon="5.55465">
        <ele>1331.8000488281</ele>
        <time>2021-09-25T11:44:13.000Z</time>
      </trkpt>
      <trkpt lat="44.25826" lon="5.55461">
        <ele>1331.4000244141</ele>
        <time>2021-09-25T11:44:17.000Z</time>
      </trkpt>
      <trkpt lat="44.25826" lon="5.55459">
        <ele>1331.1999511719</ele>
        <time>2021-09-25T11:44:19.000Z</time>
      </trkpt>
      <trkpt lat="44.25824" lon="5.55451">
        <ele>1330.5999755859</ele>
        <time>2021-09-25T11:44:24.000Z</time>
      </trkpt>
      <trkpt lat="44.25823" lon="5.55449">
        <ele>1330.5999755859</ele>
        <time>2021-09-25T11:44:26.000Z</time>
      </trkpt>
      <trkpt lat="44.25822" lon="5.55447">
        <ele>1330.5999755859</ele>
        <time>2021-09-25T11:44:27.000Z</time>
      </trkpt>
      <trkpt lat="44.2582" lon="5.55445">
        <ele>1331</ele>
        <time>2021-09-25T11:44:30.000Z</time>
      </trkpt>
      <trkpt lat="44.25819" lon="5.55443">
        <ele>1331.8000488281</ele>
        <time>2021-09-25T11:44:33.000Z</time>
      </trkpt>
      <trkpt lat="44.25819" lon="5.55442">
        <ele>1331.8000488281</ele>
        <time>2021-09-25T11:44:34.000Z</time>
      </trkpt>
      <trkpt lat="44.2582" lon="5.55441">
        <ele>1332.4000244141</ele>
        <time>2021-09-25T11:44:39.000Z</time>
      </trkpt>
      <trkpt lat="44.2582" lon="5.55443">
        <ele>1332.4000244141</ele>
        <time>2021-09-25T11:44:42.000Z</time>
      </trkpt>
      <trkpt lat="44.25821" lon="5.55446">
        <ele>1332.1999511719</ele>
        <time>2021-09-25T11:44:46.000Z</time>
      </trkpt>
      <trkpt lat="44.25821" lon="5.55447">
        <ele>1332.1999511719</ele>
        <time>2021-09-25T11:44:47.000Z</time>
      </trkpt>
      <trkpt lat="44.25826" lon="5.55451">
        <ele>1331</ele>
        <time>2021-09-25T11:44:54.000Z</time>
      </trkpt>
      <trkpt lat="44.25827" lon="5.55453">
        <ele>1330.5999755859</ele>
        <time>2021-09-25T11:44:56.000Z</time>
      </trkpt>
      <trkpt lat="44.2583" lon="5.55456">
        <ele>1330.4000244141</ele>
        <time>2021-09-25T11:44:59.000Z</time>
      </trkpt>
      <trkpt lat="44.25831" lon="5.55458">
        <ele>1330.1999511719</ele>
        <time>2021-09-25T11:45:01.000Z</time>
      </trkpt>
      <trkpt lat="44.25832" lon="5.5546">
        <ele>1330.1999511719</ele>
        <time>2021-09-25T11:45:03.000Z</time>
      </trkpt>
      <trkpt lat="44.25833" lon="5.55464">
        <ele>1329.4000244141</ele>
        <time>2021-09-25T11:45:07.000Z</time>
      </trkpt>
      <trkpt lat="44.25833" lon="5.55464">
        <ele>1329.1999511719</ele>
        <time>2021-09-25T11:45:08.000Z</time>
      </trkpt>
      <trkpt lat="44.25835" lon="5.55467">
        <ele>1329.1999511719</ele>
        <time>2021-09-25T11:45:12.000Z</time>
      </trkpt>
      <trkpt lat="44.25835" lon="5.5547">
        <ele>1330.1999511719</ele>
        <time>2021-09-25T11:45:17.000Z</time>
      </trkpt>
      <trkpt lat="44.25837" lon="5.55473">
        <ele>1330.1999511719</ele>
        <time>2021-09-25T11:45:22.000Z</time>
      </trkpt>
      <trkpt lat="44.25838" lon="5.55474">
        <ele>1330.5999755859</ele>
        <time>2021-09-25T11:45:23.000Z</time>
      </trkpt>
      <trkpt lat="44.2584" lon="5.55475">
        <ele>1331</ele>
        <time>2021-09-25T11:45:25.000Z</time>
      </trkpt>
      <trkpt lat="44.25841" lon="5.55477">
        <ele>1331</ele>
        <time>2021-09-25T11:45:28.000Z</time>
      </trkpt>
      <trkpt lat="44.25842" lon="5.55477">
        <ele>1330.8000488281</ele>
        <time>2021-09-25T11:45:29.000Z</time>
      </trkpt>
      <trkpt lat="44.25841" lon="5.55479">
        <ele>1330.8000488281</ele>
        <time>2021-09-25T11:45:31.000Z</time>
      </trkpt>
      <trkpt lat="44.25841" lon="5.55479">
        <ele>1330.8000488281</ele>
        <time>2021-09-25T11:45:32.000Z</time>
      </trkpt>
      <trkpt lat="44.2584" lon="5.55482">
        <ele>1331.1999511719</ele>
        <time>2021-09-25T11:45:37.000Z</time>
      </trkpt>
      <trkpt lat="44.25841" lon="5.55481">
        <ele>1331.4000244141</ele>
        <time>2021-09-25T11:45:42.000Z</time>
      </trkpt>
      <trkpt lat="44.25842" lon="5.5548">
        <ele>1331.4000244141</ele>
        <time>2021-09-25T11:45:44.000Z</time>
      </trkpt>
      <trkpt lat="44.25842" lon="5.5548">
        <ele>1331.4000244141</ele>
        <time>2021-09-25T11:45:48.000Z</time>
      </trkpt>
      <trkpt lat="44.25844" lon="5.55478">
        <ele>1331.4000244141</ele>
        <time>2021-09-25T11:45:54.000Z</time>
      </trkpt>
      <trkpt lat="44.2584" lon="5.55476">
        <ele>1331.1999511719</ele>
        <time>2021-09-25T11:45:58.000Z</time>
      </trkpt>
      <trkpt lat="44.2584" lon="5.55475">
        <ele>1331</ele>
        <time>2021-09-25T11:45:59.000Z</time>
      </trkpt>
      <trkpt lat="44.2584" lon="5.55473">
        <ele>1330.8000488281</ele>
        <time>2021-09-25T11:46:06.000Z</time>
      </trkpt>
      <trkpt lat="44.2584" lon="5.55471">
        <ele>1331</ele>
        <time>2021-09-25T11:46:10.000Z</time>
      </trkpt>
      <trkpt lat="44.2584" lon="5.55469">
        <ele>1331.1999511719</ele>
        <time>2021-09-25T11:46:15.000Z</time>
      </trkpt>
      <trkpt lat="44.25839" lon="5.5547">
        <ele>1330.8000488281</ele>
        <time>2021-09-25T11:46:23.000Z</time>
      </trkpt>
      <trkpt lat="44.25839" lon="5.55472">
        <ele>1331.4000244141</ele>
        <time>2021-09-25T11:46:34.000Z</time>
      </trkpt>
      <trkpt lat="44.25839" lon="5.55472">
        <ele>1331</ele>
        <time>2021-09-25T11:46:37.000Z</time>
      </trkpt>
      <trkpt lat="44.25839" lon="5.55473">
        <ele>1330.5999755859</ele>
        <time>2021-09-25T11:46:40.000Z</time>
      </trkpt>
      <trkpt lat="44.25839" lon="5.55474">
        <ele>1330.1999511719</ele>
        <time>2021-09-25T11:46:44.000Z</time>
      </trkpt>
      <trkpt lat="44.25839" lon="5.55476">
        <ele>1329.8000488281</ele>
        <time>2021-09-25T11:46:53.000Z</time>
      </trkpt>
      <trkpt lat="44.25839" lon="5.55476">
        <ele>1329.8000488281</ele>
        <time>2021-09-25T11:46:56.000Z</time>
      </trkpt>
      <trkpt lat="44.25839" lon="5.55477">
        <ele>1330.4000244141</ele>
        <time>2021-09-25T11:47:01.000Z</time>
      </trkpt>
      <trkpt lat="44.2584" lon="5.55477">
        <ele>1330.8000488281</ele>
        <time>2021-09-25T11:47:07.000Z</time>
      </trkpt>
      <trkpt lat="44.2584" lon="5.55474">
        <ele>1330.4000244141</ele>
        <time>2021-09-25T11:47:14.000Z</time>
      </trkpt>
      <trkpt lat="44.2584" lon="5.55473">
        <ele>1330.1999511719</ele>
        <time>2021-09-25T11:47:15.000Z</time>
      </trkpt>
      <trkpt lat="44.25841" lon="5.5547">
        <ele>1329.8000488281</ele>
        <time>2021-09-25T11:47:22.000Z</time>
      </trkpt>
      <trkpt lat="44.25841" lon="5.55471">
        <ele>1330</ele>
        <time>2021-09-25T11:47:24.000Z</time>
      </trkpt>
      <trkpt lat="44.25841" lon="5.55472">
        <ele>1330</ele>
        <time>2021-09-25T11:47:29.000Z</time>
      </trkpt>
      <trkpt lat="44.25841" lon="5.55472">
        <ele>1330.1999511719</ele>
        <time>2021-09-25T11:47:31.000Z</time>
      </trkpt>
      <trkpt lat="44.25841" lon="5.55473">
        <ele>1330.5999755859</ele>
        <time>2021-09-25T11:47:37.000Z</time>
      </trkpt>
      <trkpt lat="44.2584" lon="5.55473">
        <ele>1330.8000488281</ele>
        <time>2021-09-25T11:47:39.000Z</time>
      </trkpt>
      <trkpt lat="44.2584" lon="5.55472">
        <ele>1331.1999511719</ele>
        <time>2021-09-25T11:47:42.000Z</time>
      </trkpt>
      <trkpt lat="44.2584" lon="5.55472">
        <ele>1331.4000244141</ele>
        <time>2021-09-25T11:47:50.000Z</time>
      </trkpt>
      <trkpt lat="44.2584" lon="5.55472">
        <ele>1331.4000244141</ele>
        <time>2021-09-25T11:47:53.000Z</time>
      </trkpt>
      <trkpt lat="44.2584" lon="5.55472">
        <ele>1331.5999755859</ele>
        <time>2021-09-25T11:47:59.000Z</time>
      </trkpt>
      <trkpt lat="44.2584" lon="5.55472">
        <ele>1332</ele>
        <time>2021-09-25T11:48:03.000Z</time>
      </trkpt>
      <trkpt lat="44.2584" lon="5.5547">
        <ele>1331</ele>
        <time>2021-09-25T11:48:14.000Z</time>
      </trkpt>
      <trkpt lat="44.25841" lon="5.55469">
        <ele>1331.1999511719</ele>
        <time>2021-09-25T11:48:25.000Z</time>
      </trkpt>
      <trkpt lat="44.2584" lon="5.55469">
        <ele>1331.4000244141</ele>
        <time>2021-09-25T11:48:35.000Z</time>
      </trkpt>
      <trkpt lat="44.25839" lon="5.55467">
        <ele>1331.5999755859</ele>
        <time>2021-09-25T11:48:41.000Z</time>
      </trkpt>
      <trkpt lat="44.25839" lon="5.55466">
        <ele>1331</ele>
        <time>2021-09-25T11:48:43.000Z</time>
      </trkpt>
      <trkpt lat="44.25839" lon="5.55466">
        <ele>1331</ele>
        <time>2021-09-25T11:48:50.000Z</time>
      </trkpt>
      <trkpt lat="44.25839" lon="5.55466">
        <ele>1331</ele>
        <time>2021-09-25T11:48:57.000Z</time>
      </trkpt>
      <trkpt lat="44.25839" lon="5.55465">
        <ele>1331</ele>
        <time>2021-09-25T11:49:03.000Z</time>
      </trkpt>
      <trkpt lat="44.25839" lon="5.55464">
        <ele>1331</ele>
        <time>2021-09-25T11:49:09.000Z</time>
      </trkpt>
      <trkpt lat="44.25839" lon="5.55464">
        <ele>1331</ele>
        <time>2021-09-25T11:49:13.000Z</time>
      </trkpt>
      <trkpt lat="44.25839" lon="5.55466">
        <ele>1331</ele>
        <time>2021-09-25T11:49:23.000Z</time>
      </trkpt>
      <trkpt lat="44.25839" lon="5.55467">
        <ele>1331</ele>
        <time>2021-09-25T11:49:29.000Z</time>
      </trkpt>
      <trkpt lat="44.25839" lon="5.55467">
        <ele>1331</ele>
        <time>2021-09-25T11:49:35.000Z</time>
      </trkpt>
      <trkpt lat="44.25839" lon="5.55467">
        <ele>1331</ele>
        <time>2021-09-25T11:49:45.000Z</time>
      </trkpt>
      <trkpt lat="44.25839" lon="5.55467">
        <ele>1331</ele>
        <time>2021-09-25T11:49:46.000Z</time>
      </trkpt>
      <trkpt lat="44.25839" lon="5.55469">
        <ele>1331</ele>
        <time>2021-09-25T11:49:54.000Z</time>
      </trkpt>
      <trkpt lat="44.2584" lon="5.5547">
        <ele>1331</ele>
        <time>2021-09-25T11:49:57.000Z</time>
      </trkpt>
      <trkpt lat="44.2584" lon="5.5547">
        <ele>1331</ele>
        <time>2021-09-25T11:50:00.000Z</time>
      </trkpt>
      <trkpt lat="44.2584" lon="5.5547">
        <ele>1331</ele>
        <time>2021-09-25T11:50:01.000Z</time>
      </trkpt>
      <trkpt lat="44.2584" lon="5.5547">
        <ele>1331</ele>
        <time>2021-09-25T11:50:04.000Z</time>
      </trkpt>
      <trkpt lat="44.2584" lon="5.5547">
        <ele>1331</ele>
        <time>2021-09-25T11:50:07.000Z</time>
      </trkpt>
      <trkpt lat="44.2584" lon="5.55469">
        <ele>1331</ele>
        <time>2021-09-25T11:50:08.000Z</time>
      </trkpt>
      <trkpt lat="44.2584" lon="5.55469">
        <ele>1331</ele>
        <time>2021-09-25T11:50:10.000Z</time>
      </trkpt>
      <trkpt lat="44.25841" lon="5.55468">
        <ele>1331</ele>
        <time>2021-09-25T11:50:19.000Z</time>
      </trkpt>
      <trkpt lat="44.25841" lon="5.55469">
        <ele>1331</ele>
        <time>2021-09-25T11:50:24.000Z</time>
      </trkpt>
      <trkpt lat="44.25841" lon="5.55468">
        <ele>1331</ele>
        <time>2021-09-25T11:50:26.000Z</time>
      </trkpt>
      <trkpt lat="44.2584" lon="5.55469">
        <ele>1331</ele>
        <time>2021-09-25T11:50:34.000Z</time>
      </trkpt>
      <trkpt lat="44.2584" lon="5.55468">
        <ele>1331</ele>
        <time>2021-09-25T11:50:36.000Z</time>
      </trkpt>
      <trkpt lat="44.2584" lon="5.5547">
        <ele>1331</ele>
        <time>2021-09-25T11:50:42.000Z</time>
      </trkpt>
      <trkpt lat="44.25841" lon="5.55471">
        <ele>1331</ele>
        <time>2021-09-25T11:50:44.000Z</time>
      </trkpt>
      <trkpt lat="44.25841" lon="5.55471">
        <ele>1331</ele>
        <time>2021-09-25T11:50:45.000Z</time>
      </trkpt>
      <trkpt lat="44.25842" lon="5.55474">
        <ele>1331</ele>
        <time>2021-09-25T11:50:49.000Z</time>
      </trkpt>
      <trkpt lat="44.25842" lon="5.55474">
        <ele>1331</ele>
        <time>2021-09-25T11:50:50.000Z</time>
      </trkpt>
      <trkpt lat="44.25843" lon="5.55474">
        <ele>1331</ele>
        <time>2021-09-25T11:50:52.000Z</time>
      </trkpt>
      <trkpt lat="44.25843" lon="5.55474">
        <ele>1331</ele>
        <time>2021-09-25T11:50:53.000Z</time>
      </trkpt>
      <trkpt lat="44.25846" lon="5.55474">
        <ele>1331</ele>
        <time>2021-09-25T11:50:56.000Z</time>
      </trkpt>
      <trkpt lat="44.25849" lon="5.55477">
        <ele>1331</ele>
        <time>2021-09-25T11:51:02.000Z</time>
      </trkpt>
      <trkpt lat="44.25849" lon="5.55477">
        <ele>1331</ele>
        <time>2021-09-25T11:51:04.000Z</time>
      </trkpt>
      <trkpt lat="44.2585" lon="5.55476">
        <ele>1333.1999511719</ele>
        <time>2021-09-25T11:51:08.000Z</time>
      </trkpt>
      <trkpt lat="44.25851" lon="5.55475">
        <ele>1334</ele>
        <time>2021-09-25T11:51:11.000Z</time>
      </trkpt>
      <trkpt lat="44.25854" lon="5.55474">
        <ele>1334.1999511719</ele>
        <time>2021-09-25T11:51:15.000Z</time>
      </trkpt>
      <trkpt lat="44.25856" lon="5.55473">
        <ele>1334.4000244141</ele>
        <time>2021-09-25T11:51:17.000Z</time>
      </trkpt>
      <trkpt lat="44.25857" lon="5.55473">
        <ele>1334.4000244141</ele>
        <time>2021-09-25T11:51:18.000Z</time>
      </trkpt>
      <trkpt lat="44.25859" lon="5.55471">
        <ele>1335</ele>
        <time>2021-09-25T11:51:20.000Z</time>
      </trkpt>
      <trkpt lat="44.2586" lon="5.55472">
        <ele>1335.1999511719</ele>
        <time>2021-09-25T11:51:24.000Z</time>
      </trkpt>
      <trkpt lat="44.2586" lon="5.55472">
        <ele>1335.4000244141</ele>
        <time>2021-09-25T11:51:26.000Z</time>
      </trkpt>
      <trkpt lat="44.25861" lon="5.55471">
        <ele>1335.1999511719</ele>
        <time>2021-09-25T11:51:29.000Z</time>
      </trkpt>
      <trkpt lat="44.25861" lon="5.5547">
        <ele>1335.1999511719</ele>
        <time>2021-09-25T11:51:31.000Z</time>
      </trkpt>
      <trkpt lat="44.25865" lon="5.55468">
        <ele>1336.1999511719</ele>
        <time>2021-09-25T11:51:39.000Z</time>
      </trkpt>
      <trkpt lat="44.25869" lon="5.55466">
        <ele>1335.8000488281</ele>
        <time>2021-09-25T11:51:43.000Z</time>
      </trkpt>
      <trkpt lat="44.2587" lon="5.55465">
        <ele>1335.4000244141</ele>
        <time>2021-09-25T11:51:45.000Z</time>
      </trkpt>
      <trkpt lat="44.2587" lon="5.55464">
        <ele>1335.4000244141</ele>
        <time>2021-09-25T11:51:46.000Z</time>
      </trkpt>
      <trkpt lat="44.2587" lon="5.55463">
        <ele>1335.4000244141</ele>
        <time>2021-09-25T11:51:47.000Z</time>
      </trkpt>
      <trkpt lat="44.25872" lon="5.5546">
        <ele>1335.5999755859</ele>
        <time>2021-09-25T11:51:51.000Z</time>
      </trkpt>
      <trkpt lat="44.25873" lon="5.55459">
        <ele>1335.5999755859</ele>
        <time>2021-09-25T11:51:52.000Z</time>
      </trkpt>
      <trkpt lat="44.25874" lon="5.55459">
        <ele>1335.5999755859</ele>
        <time>2021-09-25T11:51:53.000Z</time>
      </trkpt>
      <trkpt lat="44.25874" lon="5.55458">
        <ele>1336</ele>
        <time>2021-09-25T11:51:54.000Z</time>
      </trkpt>
      <trkpt lat="44.25877" lon="5.55456">
        <ele>1335.8000488281</ele>
        <time>2021-09-25T11:51:58.000Z</time>
      </trkpt>
      <trkpt lat="44.25877" lon="5.55455">
        <ele>1335.5999755859</ele>
        <time>2021-09-25T11:52:00.000Z</time>
      </trkpt>
      <trkpt lat="44.25877" lon="5.55454">
        <ele>1335.5999755859</ele>
        <time>2021-09-25T11:52:01.000Z</time>
      </trkpt>
      <trkpt lat="44.25881" lon="5.55452">
        <ele>1335.5999755859</ele>
        <time>2021-09-25T11:52:05.000Z</time>
      </trkpt>
      <trkpt lat="44.25881" lon="5.55452">
        <ele>1335.5999755859</ele>
        <time>2021-09-25T11:52:06.000Z</time>
      </trkpt>
      <trkpt lat="44.25883" lon="5.55452">
        <ele>1335.5999755859</ele>
        <time>2021-09-25T11:52:09.000Z</time>
      </trkpt>
      <trkpt lat="44.25885" lon="5.55452">
        <ele>1335.8000488281</ele>
        <time>2021-09-25T11:52:11.000Z</time>
      </trkpt>
      <trkpt lat="44.25888" lon="5.5545">
        <ele>1335.8000488281</ele>
        <time>2021-09-25T11:52:13.000Z</time>
      </trkpt>
      <trkpt lat="44.25889" lon="5.5545">
        <ele>1335.8000488281</ele>
        <time>2021-09-25T11:52:14.000Z</time>
      </trkpt>
      <trkpt lat="44.25893" lon="5.55447">
        <ele>1336</ele>
        <time>2021-09-25T11:52:20.000Z</time>
      </trkpt>
      <trkpt lat="44.25894" lon="5.55446">
        <ele>1336.4000244141</ele>
        <time>2021-09-25T11:52:23.000Z</time>
      </trkpt>
      <trkpt lat="44.25895" lon="5.55445">
        <ele>1336.4000244141</ele>
        <time>2021-09-25T11:52:24.000Z</time>
      </trkpt>
      <trkpt lat="44.25895" lon="5.55445">
        <ele>1336.8000488281</ele>
        <time>2021-09-25T11:52:26.000Z</time>
      </trkpt>
      <trkpt lat="44.25896" lon="5.55444">
        <ele>1336.8000488281</ele>
        <time>2021-09-25T11:52:27.000Z</time>
      </trkpt>
      <trkpt lat="44.25896" lon="5.55443">
        <ele>1336.8000488281</ele>
        <time>2021-09-25T11:52:28.000Z</time>
      </trkpt>
      <trkpt lat="44.259" lon="5.55442">
        <ele>1336.4000244141</ele>
        <time>2021-09-25T11:52:34.000Z</time>
      </trkpt>
      <trkpt lat="44.25902" lon="5.55438">
        <ele>1336.4000244141</ele>
        <time>2021-09-25T11:52:38.000Z</time>
      </trkpt>
      <trkpt lat="44.25903" lon="5.55437">
        <ele>1336.4000244141</ele>
        <time>2021-09-25T11:52:40.000Z</time>
      </trkpt>
      <trkpt lat="44.25905" lon="5.55436">
        <ele>1336.4000244141</ele>
        <time>2021-09-25T11:52:42.000Z</time>
      </trkpt>
      <trkpt lat="44.25907" lon="5.55436">
        <ele>1336.5999755859</ele>
        <time>2021-09-25T11:52:45.000Z</time>
      </trkpt>
      <trkpt lat="44.25906" lon="5.55436">
        <ele>1336.5999755859</ele>
        <time>2021-09-25T11:52:46.000Z</time>
      </trkpt>
      <trkpt lat="44.25907" lon="5.55437">
        <ele>1336.8000488281</ele>
        <time>2021-09-25T11:52:52.000Z</time>
      </trkpt>
      <trkpt lat="44.25908" lon="5.55436">
        <ele>1337.4000244141</ele>
        <time>2021-09-25T11:52:57.000Z</time>
      </trkpt>
      <trkpt lat="44.25913" lon="5.55434">
        <ele>1337.5999755859</ele>
        <time>2021-09-25T11:53:02.000Z</time>
      </trkpt>
      <trkpt lat="44.25914" lon="5.55434">
        <ele>1337.8000488281</ele>
        <time>2021-09-25T11:53:03.000Z</time>
      </trkpt>
      <trkpt lat="44.25915" lon="5.55434">
        <ele>1338.5999755859</ele>
        <time>2021-09-25T11:53:05.000Z</time>
      </trkpt>
      <trkpt lat="44.25916" lon="5.55434">
        <ele>1338.8000488281</ele>
        <time>2021-09-25T11:53:08.000Z</time>
      </trkpt>
      <trkpt lat="44.25916" lon="5.55433">
        <ele>1338.8000488281</ele>
        <time>2021-09-25T11:53:10.000Z</time>
      </trkpt>
      <trkpt lat="44.25918" lon="5.55433">
        <ele>1339</ele>
        <time>2021-09-25T11:53:12.000Z</time>
      </trkpt>
      <trkpt lat="44.25919" lon="5.55432">
        <ele>1339.1999511719</ele>
        <time>2021-09-25T11:53:15.000Z</time>
      </trkpt>
      <trkpt lat="44.2592" lon="5.55429">
        <ele>1339.1999511719</ele>
        <time>2021-09-25T11:53:16.000Z</time>
      </trkpt>
      <trkpt lat="44.2592" lon="5.55428">
        <ele>1339.1999511719</ele>
        <time>2021-09-25T11:53:17.000Z</time>
      </trkpt>
      <trkpt lat="44.25921" lon="5.55427">
        <ele>1339.1999511719</ele>
        <time>2021-09-25T11:53:18.000Z</time>
      </trkpt>
      <trkpt lat="44.25922" lon="5.55426">
        <ele>1339</ele>
        <time>2021-09-25T11:53:21.000Z</time>
      </trkpt>
      <trkpt lat="44.25923" lon="5.55426">
        <ele>1338.8000488281</ele>
        <time>2021-09-25T11:53:22.000Z</time>
      </trkpt>
      <trkpt lat="44.25924" lon="5.55426">
        <ele>1338.8000488281</ele>
        <time>2021-09-25T11:53:24.000Z</time>
      </trkpt>
      <trkpt lat="44.25925" lon="5.55426">
        <ele>1338.8000488281</ele>
        <time>2021-09-25T11:53:25.000Z</time>
      </trkpt>
      <trkpt lat="44.25926" lon="5.55426">
        <ele>1338.8000488281</ele>
        <time>2021-09-25T11:53:26.000Z</time>
      </trkpt>
      <trkpt lat="44.25927" lon="5.55426">
        <ele>1338.8000488281</ele>
        <time>2021-09-25T11:53:28.000Z</time>
      </trkpt>
      <trkpt lat="44.25926" lon="5.55427">
        <ele>1339.1999511719</ele>
        <time>2021-09-25T11:53:30.000Z</time>
      </trkpt>
      <trkpt lat="44.25929" lon="5.55427">
        <ele>1339.4000244141</ele>
        <time>2021-09-25T11:53:33.000Z</time>
      </trkpt>
      <trkpt lat="44.25931" lon="5.55429">
        <ele>1339.5999755859</ele>
        <time>2021-09-25T11:53:37.000Z</time>
      </trkpt>
      <trkpt lat="44.25932" lon="5.55429">
        <ele>1339.8000488281</ele>
        <time>2021-09-25T11:53:39.000Z</time>
      </trkpt>
      <trkpt lat="44.25933" lon="5.5543">
        <ele>1340.1999511719</ele>
        <time>2021-09-25T11:53:41.000Z</time>
      </trkpt>
      <trkpt lat="44.25933" lon="5.55431">
        <ele>1340.4000244141</ele>
        <time>2021-09-25T11:53:44.000Z</time>
      </trkpt>
      <trkpt lat="44.25934" lon="5.55432">
        <ele>1340.4000244141</ele>
        <time>2021-09-25T11:53:47.000Z</time>
      </trkpt>
      <trkpt lat="44.25934" lon="5.55433">
        <ele>1340.5999755859</ele>
        <time>2021-09-25T11:53:48.000Z</time>
      </trkpt>
      <trkpt lat="44.25936" lon="5.55435">
        <ele>1341.1999511719</ele>
        <time>2021-09-25T11:53:53.000Z</time>
      </trkpt>
      <trkpt lat="44.25937" lon="5.55436">
        <ele>1341.4000244141</ele>
        <time>2021-09-25T11:53:56.000Z</time>
      </trkpt>
      <trkpt lat="44.25938" lon="5.55438">
        <ele>1341.5999755859</ele>
        <time>2021-09-25T11:53:59.000Z</time>
      </trkpt>
      <trkpt lat="44.25938" lon="5.55438">
        <ele>1341.8000488281</ele>
        <time>2021-09-25T11:54:00.000Z</time>
      </trkpt>
      <trkpt lat="44.25941" lon="5.5544">
        <ele>1342.1999511719</ele>
        <time>2021-09-25T11:54:08.000Z</time>
      </trkpt>
      <trkpt lat="44.25942" lon="5.55438">
        <ele>1342.4000244141</ele>
        <time>2021-09-25T11:54:12.000Z</time>
      </trkpt>
      <trkpt lat="44.25943" lon="5.55438">
        <ele>1342.5999755859</ele>
        <time>2021-09-25T11:54:15.000Z</time>
      </trkpt>
      <trkpt lat="44.25945" lon="5.55439">
        <ele>1342.8000488281</ele>
        <time>2021-09-25T11:54:17.000Z</time>
      </trkpt>
      <trkpt lat="44.25947" lon="5.55438">
        <ele>1343</ele>
        <time>2021-09-25T11:54:21.000Z</time>
      </trkpt>
      <trkpt lat="44.25949" lon="5.55437">
        <ele>1343.1999511719</ele>
        <time>2021-09-25T11:54:23.000Z</time>
      </trkpt>
      <trkpt lat="44.25951" lon="5.55434">
        <ele>1343.4000244141</ele>
        <time>2021-09-25T11:54:29.000Z</time>
      </trkpt>
      <trkpt lat="44.2595" lon="5.55435">
        <ele>1343.8000488281</ele>
        <time>2021-09-25T11:54:33.000Z</time>
      </trkpt>
      <trkpt lat="44.25948" lon="5.55436">
        <ele>1344</ele>
        <time>2021-09-25T11:54:35.000Z</time>
      </trkpt>
      <trkpt lat="44.25949" lon="5.55437">
        <ele>1344.5999755859</ele>
        <time>2021-09-25T11:54:40.000Z</time>
      </trkpt>
      <trkpt lat="44.2595" lon="5.55437">
        <ele>1344.8000488281</ele>
        <time>2021-09-25T11:54:42.000Z</time>
      </trkpt>
      <trkpt lat="44.2595" lon="5.55436">
        <ele>1345.1999511719</ele>
        <time>2021-09-25T11:54:45.000Z</time>
      </trkpt>
      <trkpt lat="44.2595" lon="5.55436">
        <ele>1345.4000244141</ele>
        <time>2021-09-25T11:54:47.000Z</time>
      </trkpt>
      <trkpt lat="44.2595" lon="5.55436">
        <ele>1345.4000244141</ele>
        <time>2021-09-25T11:54:49.000Z</time>
      </trkpt>
      <trkpt lat="44.25952" lon="5.55435">
        <ele>1345.4000244141</ele>
        <time>2021-09-25T11:54:51.000Z</time>
      </trkpt>
      <trkpt lat="44.25953" lon="5.55435">
        <ele>1345.1999511719</ele>
        <time>2021-09-25T11:54:53.000Z</time>
      </trkpt>
      <trkpt lat="44.25953" lon="5.55434">
        <ele>1345.1999511719</ele>
        <time>2021-09-25T11:54:54.000Z</time>
      </trkpt>
      <trkpt lat="44.25955" lon="5.55434">
        <ele>1345</ele>
        <time>2021-09-25T11:54:56.000Z</time>
      </trkpt>
      <trkpt lat="44.25955" lon="5.55434">
        <ele>1345.1999511719</ele>
        <time>2021-09-25T11:54:58.000Z</time>
      </trkpt>
      <trkpt lat="44.25959" lon="5.55434">
        <ele>1345.8000488281</ele>
        <time>2021-09-25T11:55:03.000Z</time>
      </trkpt>
      <trkpt lat="44.25959" lon="5.55434">
        <ele>1346</ele>
        <time>2021-09-25T11:55:04.000Z</time>
      </trkpt>
      <trkpt lat="44.25963" lon="5.55433">
        <ele>1346.8000488281</ele>
        <time>2021-09-25T11:55:08.000Z</time>
      </trkpt>
      <trkpt lat="44.25963" lon="5.55434">
        <ele>1346.8000488281</ele>
        <time>2021-09-25T11:55:09.000Z</time>
      </trkpt>
      <trkpt lat="44.25966" lon="5.55433">
        <ele>1347</ele>
        <time>2021-09-25T11:55:11.000Z</time>
      </trkpt>
      <trkpt lat="44.25974" lon="5.55432">
        <ele>1347.8000488281</ele>
        <time>2021-09-25T11:55:18.000Z</time>
      </trkpt>
      <trkpt lat="44.25975" lon="5.55433">
        <ele>1348.1999511719</ele>
        <time>2021-09-25T11:55:19.000Z</time>
      </trkpt>
      <trkpt lat="44.25977" lon="5.55433">
        <ele>1349.1999511719</ele>
        <time>2021-09-25T11:55:24.000Z</time>
      </trkpt>
      <trkpt lat="44.25981" lon="5.55434">
        <ele>1350</ele>
        <time>2021-09-25T11:55:31.000Z</time>
      </trkpt>
      <trkpt lat="44.25982" lon="5.55435">
        <ele>1350.4000244141</ele>
        <time>2021-09-25T11:55:34.000Z</time>
      </trkpt>
      <trkpt lat="44.25983" lon="5.55434">
        <ele>1350.5999755859</ele>
        <time>2021-09-25T11:55:35.000Z</time>
      </trkpt>
      <trkpt lat="44.25984" lon="5.55434">
        <ele>1350.5999755859</ele>
        <time>2021-09-25T11:55:37.000Z</time>
      </trkpt>
      <trkpt lat="44.25984" lon="5.55434">
        <ele>1350.5999755859</ele>
        <time>2021-09-25T11:55:38.000Z</time>
      </trkpt>
      <trkpt lat="44.25986" lon="5.55435">
        <ele>1351.1999511719</ele>
        <time>2021-09-25T11:55:45.000Z</time>
      </trkpt>
      <trkpt lat="44.25987" lon="5.55436">
        <ele>1351.5999755859</ele>
        <time>2021-09-25T11:55:47.000Z</time>
      </trkpt>
      <trkpt lat="44.25988" lon="5.55435">
        <ele>1352.1999511719</ele>
        <time>2021-09-25T11:55:51.000Z</time>
      </trkpt>
      <trkpt lat="44.25989" lon="5.55435">
        <ele>1352.5999755859</ele>
        <time>2021-09-25T11:55:52.000Z</time>
      </trkpt>
      <trkpt lat="44.2599" lon="5.55434">
        <ele>1352.5999755859</ele>
        <time>2021-09-25T11:55:54.000Z</time>
      </trkpt>
      <trkpt lat="44.25992" lon="5.55435">
        <ele>1353</ele>
        <time>2021-09-25T11:55:56.000Z</time>
      </trkpt>
      <trkpt lat="44.25993" lon="5.55434">
        <ele>1353</ele>
        <time>2021-09-25T11:55:58.000Z</time>
      </trkpt>
      <trkpt lat="44.25994" lon="5.55434">
        <ele>1353.1999511719</ele>
        <time>2021-09-25T11:55:59.000Z</time>
      </trkpt>
      <trkpt lat="44.25997" lon="5.55435">
        <ele>1353.8000488281</ele>
        <time>2021-09-25T11:56:05.000Z</time>
      </trkpt>
      <trkpt lat="44.25998" lon="5.55436">
        <ele>1354.1999511719</ele>
        <time>2021-09-25T11:56:13.000Z</time>
      </trkpt>
      <trkpt lat="44.25999" lon="5.55436">
        <ele>1354.8000488281</ele>
        <time>2021-09-25T11:56:16.000Z</time>
      </trkpt>
      <trkpt lat="44.26002" lon="5.55437">
        <ele>1355.4000244141</ele>
        <time>2021-09-25T11:56:20.000Z</time>
      </trkpt>
      <trkpt lat="44.26003" lon="5.55438">
        <ele>1355.5999755859</ele>
        <time>2021-09-25T11:56:22.000Z</time>
      </trkpt>
      <trkpt lat="44.26005" lon="5.55438">
        <ele>1355.8000488281</ele>
        <time>2021-09-25T11:56:25.000Z</time>
      </trkpt>
      <trkpt lat="44.26006" lon="5.55437">
        <ele>1356.1999511719</ele>
        <time>2021-09-25T11:56:27.000Z</time>
      </trkpt>
      <trkpt lat="44.26007" lon="5.55436">
        <ele>1356.4000244141</ele>
        <time>2021-09-25T11:56:29.000Z</time>
      </trkpt>
      <trkpt lat="44.26009" lon="5.55436">
        <ele>1356.5999755859</ele>
        <time>2021-09-25T11:56:30.000Z</time>
      </trkpt>
      <trkpt lat="44.26011" lon="5.55435">
        <ele>1356.8000488281</ele>
        <time>2021-09-25T11:56:33.000Z</time>
      </trkpt>
      <trkpt lat="44.26011" lon="5.55435">
        <ele>1357.1999511719</ele>
        <time>2021-09-25T11:56:34.000Z</time>
      </trkpt>
      <trkpt lat="44.26013" lon="5.55436">
        <ele>1358.1999511719</ele>
        <time>2021-09-25T11:56:40.000Z</time>
      </trkpt>
      <trkpt lat="44.26014" lon="5.55436">
        <ele>1358.4000244141</ele>
        <time>2021-09-25T11:56:42.000Z</time>
      </trkpt>
      <trkpt lat="44.26015" lon="5.55435">
        <ele>1358.4000244141</ele>
        <time>2021-09-25T11:56:44.000Z</time>
      </trkpt>
      <trkpt lat="44.26015" lon="5.55436">
        <ele>1358.4000244141</ele>
        <time>2021-09-25T11:56:47.000Z</time>
      </trkpt>
      <trkpt lat="44.26016" lon="5.55435">
        <ele>1358.1999511719</ele>
        <time>2021-09-25T11:56:54.000Z</time>
      </trkpt>
      <trkpt lat="44.26017" lon="5.55435">
        <ele>1358.4000244141</ele>
        <time>2021-09-25T11:56:56.000Z</time>
      </trkpt>
      <trkpt lat="44.26018" lon="5.55435">
        <ele>1358.4000244141</ele>
        <time>2021-09-25T11:56:58.000Z</time>
      </trkpt>
      <trkpt lat="44.26019" lon="5.55435">
        <ele>1358.8000488281</ele>
        <time>2021-09-25T11:57:01.000Z</time>
      </trkpt>
      <trkpt lat="44.26022" lon="5.55435">
        <ele>1359.1999511719</ele>
        <time>2021-09-25T11:57:03.000Z</time>
      </trkpt>
      <trkpt lat="44.26023" lon="5.55436">
        <ele>1359.1999511719</ele>
        <time>2021-09-25T11:57:04.000Z</time>
      </trkpt>
      <trkpt lat="44.2603" lon="5.55434">
        <ele>1359.4000244141</ele>
        <time>2021-09-25T11:57:09.000Z</time>
      </trkpt>
      <trkpt lat="44.26031" lon="5.55435">
        <ele>1359.4000244141</ele>
        <time>2021-09-25T11:57:11.000Z</time>
      </trkpt>
      <trkpt lat="44.26034" lon="5.55434">
        <ele>1359.4000244141</ele>
        <time>2021-09-25T11:57:17.000Z</time>
      </trkpt>
      <trkpt lat="44.26035" lon="5.55434">
        <ele>1359.4000244141</ele>
        <time>2021-09-25T11:57:18.000Z</time>
      </trkpt>
      <trkpt lat="44.26038" lon="5.55432">
        <ele>1359.1999511719</ele>
        <time>2021-09-25T11:57:25.000Z</time>
      </trkpt>
      <trkpt lat="44.26041" lon="5.55431">
        <ele>1359.4000244141</ele>
        <time>2021-09-25T11:57:28.000Z</time>
      </trkpt>
      <trkpt lat="44.26044" lon="5.55431">
        <ele>1360.4000244141</ele>
        <time>2021-09-25T11:57:32.000Z</time>
      </trkpt>
      <trkpt lat="44.26046" lon="5.55431">
        <ele>1360.4000244141</ele>
        <time>2021-09-25T11:57:34.000Z</time>
      </trkpt>
      <trkpt lat="44.26048" lon="5.5543">
        <ele>1360.4000244141</ele>
        <time>2021-09-25T11:57:37.000Z</time>
      </trkpt>
      <trkpt lat="44.26051" lon="5.55429">
        <ele>1360</ele>
        <time>2021-09-25T11:57:42.000Z</time>
      </trkpt>
      <trkpt lat="44.26054" lon="5.55428">
        <ele>1360</ele>
        <time>2021-09-25T11:57:49.000Z</time>
      </trkpt>
      <trkpt lat="44.26054" lon="5.55427">
        <ele>1360</ele>
        <time>2021-09-25T11:57:50.000Z</time>
      </trkpt>
      <trkpt lat="44.26058" lon="5.55424">
        <ele>1359.8000488281</ele>
        <time>2021-09-25T11:57:57.000Z</time>
      </trkpt>
      <trkpt lat="44.26059" lon="5.55423">
        <ele>1359.5999755859</ele>
        <time>2021-09-25T11:57:58.000Z</time>
      </trkpt>
      <trkpt lat="44.26062" lon="5.55421">
        <ele>1359.8000488281</ele>
        <time>2021-09-25T11:58:03.000Z</time>
      </trkpt>
      <trkpt lat="44.26062" lon="5.5542">
        <ele>1359.8000488281</ele>
        <time>2021-09-25T11:58:05.000Z</time>
      </trkpt>
      <trkpt lat="44.26061" lon="5.5542">
        <ele>1360.1999511719</ele>
        <time>2021-09-25T11:58:06.000Z</time>
      </trkpt>
      <trkpt lat="44.26061" lon="5.55419">
        <ele>1360.5999755859</ele>
        <time>2021-09-25T11:58:09.000Z</time>
      </trkpt>
      <trkpt lat="44.2606" lon="5.55418">
        <ele>1360.8000488281</ele>
        <time>2021-09-25T11:58:12.000Z</time>
      </trkpt>
      <trkpt lat="44.2606" lon="5.55417">
        <ele>1360.4000244141</ele>
        <time>2021-09-25T11:58:16.000Z</time>
      </trkpt>
      <trkpt lat="44.2606" lon="5.55416">
        <ele>1359.8000488281</ele>
        <time>2021-09-25T11:58:18.000Z</time>
      </trkpt>
      <trkpt lat="44.2606" lon="5.55416">
        <ele>1359.4000244141</ele>
        <time>2021-09-25T11:58:19.000Z</time>
      </trkpt>
      <trkpt lat="44.26061" lon="5.55415">
        <ele>1359.1999511719</ele>
        <time>2021-09-25T11:58:20.000Z</time>
      </trkpt>
      <trkpt lat="44.26063" lon="5.55413">
        <ele>1359.1999511719</ele>
        <time>2021-09-25T11:58:25.000Z</time>
      </trkpt>
      <trkpt lat="44.26066" lon="5.5541">
        <ele>1359.1999511719</ele>
        <time>2021-09-25T11:58:29.000Z</time>
      </trkpt>
      <trkpt lat="44.26072" lon="5.55407">
        <ele>1358.8000488281</ele>
        <time>2021-09-25T11:58:34.000Z</time>
      </trkpt>
      <trkpt lat="44.26074" lon="5.55404">
        <ele>1358.1999511719</ele>
        <time>2021-09-25T11:58:38.000Z</time>
      </trkpt>
      <trkpt lat="44.26074" lon="5.55404">
        <ele>1358</ele>
        <time>2021-09-25T11:58:39.000Z</time>
      </trkpt>
      <trkpt lat="44.26075" lon="5.55404">
        <ele>1357.8000488281</ele>
        <time>2021-09-25T11:58:41.000Z</time>
      </trkpt>
      <trkpt lat="44.26076" lon="5.55402">
        <ele>1357.4000244141</ele>
        <time>2021-09-25T11:58:44.000Z</time>
      </trkpt>
      <trkpt lat="44.26076" lon="5.55401">
        <ele>1357.1999511719</ele>
        <time>2021-09-25T11:58:45.000Z</time>
      </trkpt>
      <trkpt lat="44.26076" lon="5.55399">
        <ele>1356.5999755859</ele>
        <time>2021-09-25T11:58:47.000Z</time>
      </trkpt>
      <trkpt lat="44.26078" lon="5.55395">
        <ele>1356.1999511719</ele>
        <time>2021-09-25T11:58:52.000Z</time>
      </trkpt>
      <trkpt lat="44.2608" lon="5.55392">
        <ele>1356</ele>
        <time>2021-09-25T11:58:56.000Z</time>
      </trkpt>
      <trkpt lat="44.26084" lon="5.55389">
        <ele>1355.1999511719</ele>
        <time>2021-09-25T11:59:02.000Z</time>
      </trkpt>
      <trkpt lat="44.26085" lon="5.55389">
        <ele>1355.1999511719</ele>
        <time>2021-09-25T11:59:03.000Z</time>
      </trkpt>
      <trkpt lat="44.26088" lon="5.55388">
        <ele>1355</ele>
        <time>2021-09-25T11:59:07.000Z</time>
      </trkpt>
      <trkpt lat="44.26091" lon="5.55388">
        <ele>1354.8000488281</ele>
        <time>2021-09-25T11:59:10.000Z</time>
      </trkpt>
      <trkpt lat="44.26094" lon="5.55389">
        <ele>1354.8000488281</ele>
        <time>2021-09-25T11:59:13.000Z</time>
      </trkpt>
      <trkpt lat="44.26096" lon="5.5539">
        <ele>1354.8000488281</ele>
        <time>2021-09-25T11:59:15.000Z</time>
      </trkpt>
      <trkpt lat="44.26099" lon="5.5539">
        <ele>1354.4000244141</ele>
        <time>2021-09-25T11:59:18.000Z</time>
      </trkpt>
      <trkpt lat="44.261" lon="5.5539">
        <ele>1354.1999511719</ele>
        <time>2021-09-25T11:59:19.000Z</time>
      </trkpt>
      <trkpt lat="44.26103" lon="5.5539">
        <ele>1354</ele>
        <time>2021-09-25T11:59:23.000Z</time>
      </trkpt>
      <trkpt lat="44.26106" lon="5.55391">
        <ele>1353.5999755859</ele>
        <time>2021-09-25T11:59:27.000Z</time>
      </trkpt>
      <trkpt lat="44.26108" lon="5.55391">
        <ele>1354.4000244141</ele>
        <time>2021-09-25T11:59:31.000Z</time>
      </trkpt>
      <trkpt lat="44.26112" lon="5.55395">
        <ele>1354.5999755859</ele>
        <time>2021-09-25T11:59:37.000Z</time>
      </trkpt>
      <trkpt lat="44.26113" lon="5.55397">
        <ele>1354.1999511719</ele>
        <time>2021-09-25T11:59:39.000Z</time>
      </trkpt>
      <trkpt lat="44.26114" lon="5.55402">
        <ele>1353.4000244141</ele>
        <time>2021-09-25T11:59:45.000Z</time>
      </trkpt>
      <trkpt lat="44.26115" lon="5.55408">
        <ele>1353.8000488281</ele>
        <time>2021-09-25T11:59:53.000Z</time>
      </trkpt>
      <trkpt lat="44.26115" lon="5.55409">
        <ele>1354.1999511719</ele>
        <time>2021-09-25T11:59:54.000Z</time>
      </trkpt>
      <trkpt lat="44.26115" lon="5.55412">
        <ele>1354.4000244141</ele>
        <time>2021-09-25T11:59:57.000Z</time>
      </trkpt>
      <trkpt lat="44.26114" lon="5.55415">
        <ele>1354.5999755859</ele>
        <time>2021-09-25T11:59:59.000Z</time>
      </trkpt>
      <trkpt lat="44.26116" lon="5.5542">
        <ele>1354.5999755859</ele>
        <time>2021-09-25T12:00:04.000Z</time>
      </trkpt>
      <trkpt lat="44.26117" lon="5.55421">
        <ele>1354.5999755859</ele>
        <time>2021-09-25T12:00:05.000Z</time>
      </trkpt>
      <trkpt lat="44.26116" lon="5.55421">
        <ele>1354.5999755859</ele>
        <time>2021-09-25T12:00:06.000Z</time>
      </trkpt>
      <trkpt lat="44.26117" lon="5.55422">
        <ele>1354.5999755859</ele>
        <time>2021-09-25T12:00:07.000Z</time>
      </trkpt>
      <trkpt lat="44.26118" lon="5.55425">
        <ele>1354.1999511719</ele>
        <time>2021-09-25T12:00:10.000Z</time>
      </trkpt>
      <trkpt lat="44.26119" lon="5.55427">
        <ele>1354</ele>
        <time>2021-09-25T12:00:12.000Z</time>
      </trkpt>
      <trkpt lat="44.2612" lon="5.55434">
        <ele>1354</ele>
        <time>2021-09-25T12:00:18.000Z</time>
      </trkpt>
      <trkpt lat="44.2612" lon="5.55435">
        <ele>1354</ele>
        <time>2021-09-25T12:00:19.000Z</time>
      </trkpt>
      <trkpt lat="44.26122" lon="5.55439">
        <ele>1353.4000244141</ele>
        <time>2021-09-25T12:00:25.000Z</time>
      </trkpt>
      <trkpt lat="44.26122" lon="5.55443">
        <ele>1353.5999755859</ele>
        <time>2021-09-25T12:00:28.000Z</time>
      </trkpt>
      <trkpt lat="44.26123" lon="5.55444">
        <ele>1353.5999755859</ele>
        <time>2021-09-25T12:00:29.000Z</time>
      </trkpt>
      <trkpt lat="44.26124" lon="5.55446">
        <ele>1353.1999511719</ele>
        <time>2021-09-25T12:00:31.000Z</time>
      </trkpt>
      <trkpt lat="44.26126" lon="5.5545">
        <ele>1352.8000488281</ele>
        <time>2021-09-25T12:00:34.000Z</time>
      </trkpt>
      <trkpt lat="44.26126" lon="5.55451">
        <ele>1352.8000488281</ele>
        <time>2021-09-25T12:00:35.000Z</time>
      </trkpt>
      <trkpt lat="44.26127" lon="5.55452">
        <ele>1352.8000488281</ele>
        <time>2021-09-25T12:00:36.000Z</time>
      </trkpt>
      <trkpt lat="44.26128" lon="5.55452">
        <ele>1352.8000488281</ele>
        <time>2021-09-25T12:00:37.000Z</time>
      </trkpt>
      <trkpt lat="44.26128" lon="5.55453">
        <ele>1353</ele>
        <time>2021-09-25T12:00:38.000Z</time>
      </trkpt>
      <trkpt lat="44.26129" lon="5.55453">
        <ele>1353</ele>
        <time>2021-09-25T12:00:39.000Z</time>
      </trkpt>
      <trkpt lat="44.26131" lon="5.55454">
        <ele>1352.8000488281</ele>
        <time>2021-09-25T12:00:41.000Z</time>
      </trkpt>
      <trkpt lat="44.26133" lon="5.55455">
        <ele>1352.1999511719</ele>
        <time>2021-09-25T12:00:43.000Z</time>
      </trkpt>
      <trkpt lat="44.26133" lon="5.55455">
        <ele>1352</ele>
        <time>2021-09-25T12:00:44.000Z</time>
      </trkpt>
      <trkpt lat="44.26134" lon="5.55456">
        <ele>1351.5999755859</ele>
        <time>2021-09-25T12:00:45.000Z</time>
      </trkpt>
      <trkpt lat="44.26133" lon="5.55458">
        <ele>1351.5999755859</ele>
        <time>2021-09-25T12:00:46.000Z</time>
      </trkpt>
      <trkpt lat="44.26134" lon="5.55458">
        <ele>1351.4000244141</ele>
        <time>2021-09-25T12:00:48.000Z</time>
      </trkpt>
      <trkpt lat="44.26136" lon="5.55459">
        <ele>1351.1999511719</ele>
        <time>2021-09-25T12:00:50.000Z</time>
      </trkpt>
      <trkpt lat="44.26137" lon="5.55459">
        <ele>1351.1999511719</ele>
        <time>2021-09-25T12:00:51.000Z</time>
      </trkpt>
      <trkpt lat="44.26138" lon="5.5546">
        <ele>1351</ele>
        <time>2021-09-25T12:00:52.000Z</time>
      </trkpt>
      <trkpt lat="44.26139" lon="5.5546">
        <ele>1351</ele>
        <time>2021-09-25T12:00:54.000Z</time>
      </trkpt>
      <trkpt lat="44.2614" lon="5.5546">
        <ele>1351</ele>
        <time>2021-09-25T12:00:55.000Z</time>
      </trkpt>
      <trkpt lat="44.26141" lon="5.5546">
        <ele>1351</ele>
        <time>2021-09-25T12:00:56.000Z</time>
      </trkpt>
      <trkpt lat="44.2614" lon="5.55463">
        <ele>1350.8000488281</ele>
        <time>2021-09-25T12:00:58.000Z</time>
      </trkpt>
      <trkpt lat="44.26141" lon="5.55464">
        <ele>1350.5999755859</ele>
        <time>2021-09-25T12:01:00.000Z</time>
      </trkpt>
      <trkpt lat="44.26142" lon="5.55466">
        <ele>1350.5999755859</ele>
        <time>2021-09-25T12:01:02.000Z</time>
      </trkpt>
      <trkpt lat="44.26143" lon="5.55466">
        <ele>1350.8000488281</ele>
        <time>2021-09-25T12:01:04.000Z</time>
      </trkpt>
      <trkpt lat="44.26144" lon="5.55466">
        <ele>1350.8000488281</ele>
        <time>2021-09-25T12:01:05.000Z</time>
      </trkpt>
      <trkpt lat="44.26144" lon="5.55466">
        <ele>1351</ele>
        <time>2021-09-25T12:01:08.000Z</time>
      </trkpt>
      <trkpt lat="44.26148" lon="5.55463">
        <ele>1350.4000244141</ele>
        <time>2021-09-25T12:01:14.000Z</time>
      </trkpt>
      <trkpt lat="44.26149" lon="5.55463">
        <ele>1350.4000244141</ele>
        <time>2021-09-25T12:01:15.000Z</time>
      </trkpt>
      <trkpt lat="44.26154" lon="5.55463">
        <ele>1350.4000244141</ele>
        <time>2021-09-25T12:01:20.000Z</time>
      </trkpt>
      <trkpt lat="44.26154" lon="5.55463">
        <ele>1350.4000244141</ele>
        <time>2021-09-25T12:01:21.000Z</time>
      </trkpt>
      <trkpt lat="44.26157" lon="5.5546">
        <ele>1350.4000244141</ele>
        <time>2021-09-25T12:01:27.000Z</time>
      </trkpt>
      <trkpt lat="44.26161" lon="5.5546">
        <ele>1349.5999755859</ele>
        <time>2021-09-25T12:01:32.000Z</time>
      </trkpt>
      <trkpt lat="44.26161" lon="5.5546">
        <ele>1349.5999755859</ele>
        <time>2021-09-25T12:01:34.000Z</time>
      </trkpt>
      <trkpt lat="44.26162" lon="5.5546">
        <ele>1349.5999755859</ele>
        <time>2021-09-25T12:01:35.000Z</time>
      </trkpt>
      <trkpt lat="44.26163" lon="5.55459">
        <ele>1349.5999755859</ele>
        <time>2021-09-25T12:01:36.000Z</time>
      </trkpt>
      <trkpt lat="44.26164" lon="5.55459">
        <ele>1349.5999755859</ele>
        <time>2021-09-25T12:01:38.000Z</time>
      </trkpt>
      <trkpt lat="44.26165" lon="5.55459">
        <ele>1349.8000488281</ele>
        <time>2021-09-25T12:01:39.000Z</time>
      </trkpt>
      <trkpt lat="44.26169" lon="5.55459">
        <ele>1349.5999755859</ele>
        <time>2021-09-25T12:01:42.000Z</time>
      </trkpt>
      <trkpt lat="44.26175" lon="5.55457">
        <ele>1349.1999511719</ele>
        <time>2021-09-25T12:01:48.000Z</time>
      </trkpt>
      <trkpt lat="44.26176" lon="5.55458">
        <ele>1349.1999511719</ele>
        <time>2021-09-25T12:01:50.000Z</time>
      </trkpt>
      <trkpt lat="44.26176" lon="5.55458">
        <ele>1349.4000244141</ele>
        <time>2021-09-25T12:01:51.000Z</time>
      </trkpt>
      <trkpt lat="44.26181" lon="5.55463">
        <ele>1349.8000488281</ele>
        <time>2021-09-25T12:01:58.000Z</time>
      </trkpt>
      <trkpt lat="44.26181" lon="5.55463">
        <ele>1349.8000488281</ele>
        <time>2021-09-25T12:01:59.000Z</time>
      </trkpt>
      <trkpt lat="44.26181" lon="5.55466">
        <ele>1349.8000488281</ele>
        <time>2021-09-25T12:02:06.000Z</time>
      </trkpt>
      <trkpt lat="44.26187" lon="5.55466">
        <ele>1349.4000244141</ele>
        <time>2021-09-25T12:02:12.000Z</time>
      </trkpt>
      <trkpt lat="44.26194" lon="5.55467">
        <ele>1350</ele>
        <time>2021-09-25T12:02:19.000Z</time>
      </trkpt>
      <trkpt lat="44.26196" lon="5.55468">
        <ele>1350</ele>
        <time>2021-09-25T12:02:21.000Z</time>
      </trkpt>
      <trkpt lat="44.26197" lon="5.55468">
        <ele>1350.1999511719</ele>
        <time>2021-09-25T12:02:24.000Z</time>
      </trkpt>
      <trkpt lat="44.26198" lon="5.55468">
        <ele>1350.1999511719</ele>
        <time>2021-09-25T12:02:26.000Z</time>
      </trkpt>
      <trkpt lat="44.26199" lon="5.5547">
        <ele>1350.4000244141</ele>
        <time>2021-09-25T12:02:33.000Z</time>
      </trkpt>
      <trkpt lat="44.26203" lon="5.5547">
        <ele>1350.1999511719</ele>
        <time>2021-09-25T12:02:39.000Z</time>
      </trkpt>
      <trkpt lat="44.26205" lon="5.55472">
        <ele>1350.1999511719</ele>
        <time>2021-09-25T12:02:45.000Z</time>
      </trkpt>
      <trkpt lat="44.26207" lon="5.55471">
        <ele>1350</ele>
        <time>2021-09-25T12:02:49.000Z</time>
      </trkpt>
      <trkpt lat="44.26212" lon="5.5547">
        <ele>1350</ele>
        <time>2021-09-25T12:02:54.000Z</time>
      </trkpt>
      <trkpt lat="44.26214" lon="5.55469">
        <ele>1349.8000488281</ele>
        <time>2021-09-25T12:02:58.000Z</time>
      </trkpt>
      <trkpt lat="44.26216" lon="5.55468">
        <ele>1350</ele>
        <time>2021-09-25T12:03:00.000Z</time>
      </trkpt>
      <trkpt lat="44.26216" lon="5.55467">
        <ele>1350</ele>
        <time>2021-09-25T12:03:01.000Z</time>
      </trkpt>
      <trkpt lat="44.26217" lon="5.55467">
        <ele>1350</ele>
        <time>2021-09-25T12:03:02.000Z</time>
      </trkpt>
      <trkpt lat="44.26218" lon="5.55467">
        <ele>1350</ele>
        <time>2021-09-25T12:03:05.000Z</time>
      </trkpt>
      <trkpt lat="44.2622" lon="5.55466">
        <ele>1349.1999511719</ele>
        <time>2021-09-25T12:03:07.000Z</time>
      </trkpt>
      <trkpt lat="44.26221" lon="5.55466">
        <ele>1348.5999755859</ele>
        <time>2021-09-25T12:03:09.000Z</time>
      </trkpt>
      <trkpt lat="44.26223" lon="5.55466">
        <ele>1348.4000244141</ele>
        <time>2021-09-25T12:03:11.000Z</time>
      </trkpt>
      <trkpt lat="44.26224" lon="5.55464">
        <ele>1348</ele>
        <time>2021-09-25T12:03:14.000Z</time>
      </trkpt>
      <trkpt lat="44.26231" lon="5.55463">
        <ele>1348</ele>
        <time>2021-09-25T12:03:21.000Z</time>
      </trkpt>
      <trkpt lat="44.26231" lon="5.55463">
        <ele>1348</ele>
        <time>2021-09-25T12:03:23.000Z</time>
      </trkpt>
      <trkpt lat="44.26231" lon="5.55463">
        <ele>1348.1999511719</ele>
        <time>2021-09-25T12:03:25.000Z</time>
      </trkpt>
      <trkpt lat="44.26232" lon="5.55462">
        <ele>1348.5999755859</ele>
        <time>2021-09-25T12:03:26.000Z</time>
      </trkpt>
      <trkpt lat="44.26233" lon="5.55462">
        <ele>1348.8000488281</ele>
        <time>2021-09-25T12:03:28.000Z</time>
      </trkpt>
      <trkpt lat="44.26234" lon="5.55463">
        <ele>1348.8000488281</ele>
        <time>2021-09-25T12:03:29.000Z</time>
      </trkpt>
      <trkpt lat="44.26237" lon="5.55463">
        <ele>1348.5999755859</ele>
        <time>2021-09-25T12:03:36.000Z</time>
      </trkpt>
      <trkpt lat="44.26243" lon="5.55463">
        <ele>1349</ele>
        <time>2021-09-25T12:03:42.000Z</time>
      </trkpt>
      <trkpt lat="44.26243" lon="5.55465">
        <ele>1349</ele>
        <time>2021-09-25T12:03:44.000Z</time>
      </trkpt>
      <trkpt lat="44.26244" lon="5.55467">
        <ele>1349</ele>
        <time>2021-09-25T12:03:46.000Z</time>
      </trkpt>
      <trkpt lat="44.26245" lon="5.55467">
        <ele>1349</ele>
        <time>2021-09-25T12:03:50.000Z</time>
      </trkpt>
      <trkpt lat="44.26248" lon="5.55467">
        <ele>1349.1999511719</ele>
        <time>2021-09-25T12:03:54.000Z</time>
      </trkpt>
      <trkpt lat="44.26253" lon="5.55469">
        <ele>1349.4000244141</ele>
        <time>2021-09-25T12:04:01.000Z</time>
      </trkpt>
      <trkpt lat="44.26261" lon="5.55471">
        <ele>1349.5999755859</ele>
        <time>2021-09-25T12:04:09.000Z</time>
      </trkpt>
      <trkpt lat="44.26262" lon="5.55471">
        <ele>1349.5999755859</ele>
        <time>2021-09-25T12:04:10.000Z</time>
      </trkpt>
      <trkpt lat="44.26263" lon="5.55472">
        <ele>1349.5999755859</ele>
        <time>2021-09-25T12:04:11.000Z</time>
      </trkpt>
      <trkpt lat="44.26266" lon="5.55474">
        <ele>1349.5999755859</ele>
        <time>2021-09-25T12:04:15.000Z</time>
      </trkpt>
      <trkpt lat="44.26266" lon="5.55473">
        <ele>1349.5999755859</ele>
        <time>2021-09-25T12:04:16.000Z</time>
      </trkpt>
      <trkpt lat="44.26268" lon="5.55471">
        <ele>1349.1999511719</ele>
        <time>2021-09-25T12:04:23.000Z</time>
      </trkpt>
      <trkpt lat="44.26268" lon="5.5547">
        <ele>1349.4000244141</ele>
        <time>2021-09-25T12:04:30.000Z</time>
      </trkpt>
      <trkpt lat="44.2627" lon="5.5547">
        <ele>1348.5999755859</ele>
        <time>2021-09-25T12:04:35.000Z</time>
      </trkpt>
      <trkpt lat="44.26271" lon="5.5547">
        <ele>1348.5999755859</ele>
        <time>2021-09-25T12:04:36.000Z</time>
      </trkpt>
      <trkpt lat="44.26277" lon="5.55469">
        <ele>1348.5999755859</ele>
        <time>2021-09-25T12:04:44.000Z</time>
      </trkpt>
      <trkpt lat="44.26279" lon="5.55469">
        <ele>1348.8000488281</ele>
        <time>2021-09-25T12:04:49.000Z</time>
      </trkpt>
      <trkpt lat="44.26281" lon="5.55468">
        <ele>1348.5999755859</ele>
        <time>2021-09-25T12:04:55.000Z</time>
      </trkpt>
      <trkpt lat="44.26281" lon="5.55467">
        <ele>1348.5999755859</ele>
        <time>2021-09-25T12:05:00.000Z</time>
      </trkpt>
      <trkpt lat="44.26283" lon="5.55467">
        <ele>1348.4000244141</ele>
        <time>2021-09-25T12:05:03.000Z</time>
      </trkpt>
      <trkpt lat="44.26288" lon="5.55468">
        <ele>1347.8000488281</ele>
        <time>2021-09-25T12:05:09.000Z</time>
      </trkpt>
      <trkpt lat="44.2629" lon="5.55468">
        <ele>1347.5999755859</ele>
        <time>2021-09-25T12:05:11.000Z</time>
      </trkpt>
      <trkpt lat="44.26291" lon="5.55468">
        <ele>1347.5999755859</ele>
        <time>2021-09-25T12:05:12.000Z</time>
      </trkpt>
      <trkpt lat="44.26293" lon="5.55468">
        <ele>1347.5999755859</ele>
        <time>2021-09-25T12:05:14.000Z</time>
      </trkpt>
      <trkpt lat="44.26296" lon="5.55469">
        <ele>1347.4000244141</ele>
        <time>2021-09-25T12:05:17.000Z</time>
      </trkpt>
      <trkpt lat="44.26298" lon="5.55469">
        <ele>1347.1999511719</ele>
        <time>2021-09-25T12:05:20.000Z</time>
      </trkpt>
      <trkpt lat="44.26301" lon="5.5547">
        <ele>1347.1999511719</ele>
        <time>2021-09-25T12:05:24.000Z</time>
      </trkpt>
      <trkpt lat="44.26306" lon="5.55474">
        <ele>1347.4000244141</ele>
        <time>2021-09-25T12:05:30.000Z</time>
      </trkpt>
      <trkpt lat="44.26308" lon="5.55476">
        <ele>1347.4000244141</ele>
        <time>2021-09-25T12:05:33.000Z</time>
      </trkpt>
      <trkpt lat="44.26309" lon="5.55476">
        <ele>1347.1999511719</ele>
        <time>2021-09-25T12:05:35.000Z</time>
      </trkpt>
      <trkpt lat="44.26312" lon="5.55478">
        <ele>1347.1999511719</ele>
        <time>2021-09-25T12:05:41.000Z</time>
      </trkpt>
      <trkpt lat="44.26312" lon="5.55478">
        <ele>1347.1999511719</ele>
        <time>2021-09-25T12:05:44.000Z</time>
      </trkpt>
      <trkpt lat="44.26312" lon="5.55477">
        <ele>1347.1999511719</ele>
        <time>2021-09-25T12:05:48.000Z</time>
      </trkpt>
      <trkpt lat="44.26312" lon="5.55477">
        <ele>1347.5999755859</ele>
        <time>2021-09-25T12:05:49.000Z</time>
      </trkpt>
      <trkpt lat="44.26311" lon="5.55475">
        <ele>1348.1999511719</ele>
        <time>2021-09-25T12:05:53.000Z</time>
      </trkpt>
      <trkpt lat="44.26312" lon="5.55474">
        <ele>1347.1999511719</ele>
        <time>2021-09-25T12:05:55.000Z</time>
      </trkpt>
      <trkpt lat="44.26315" lon="5.55474">
        <ele>1346.5999755859</ele>
        <time>2021-09-25T12:05:59.000Z</time>
      </trkpt>
      <trkpt lat="44.26317" lon="5.55474">
        <ele>1346.1999511719</ele>
        <time>2021-09-25T12:06:01.000Z</time>
      </trkpt>
      <trkpt lat="44.26321" lon="5.55474">
        <ele>1345.5999755859</ele>
        <time>2021-09-25T12:06:07.000Z</time>
      </trkpt>
      <trkpt lat="44.26323" lon="5.55475">
        <ele>1345.4000244141</ele>
        <time>2021-09-25T12:06:10.000Z</time>
      </trkpt>
      <trkpt lat="44.26324" lon="5.55475">
        <ele>1345.4000244141</ele>
        <time>2021-09-25T12:06:11.000Z</time>
      </trkpt>
      <trkpt lat="44.26326" lon="5.55475">
        <ele>1345</ele>
        <time>2021-09-25T12:06:14.000Z</time>
      </trkpt>
      <trkpt lat="44.2633" lon="5.55477">
        <ele>1344.4000244141</ele>
        <time>2021-09-25T12:06:19.000Z</time>
      </trkpt>
      <trkpt lat="44.26332" lon="5.55477">
        <ele>1344.4000244141</ele>
        <time>2021-09-25T12:06:20.000Z</time>
      </trkpt>
      <trkpt lat="44.26336" lon="5.55479">
        <ele>1344.4000244141</ele>
        <time>2021-09-25T12:06:26.000Z</time>
      </trkpt>
      <trkpt lat="44.26337" lon="5.55478">
        <ele>1344.4000244141</ele>
        <time>2021-09-25T12:06:27.000Z</time>
      </trkpt>
      <trkpt lat="44.26338" lon="5.55478">
        <ele>1344.1999511719</ele>
        <time>2021-09-25T12:06:28.000Z</time>
      </trkpt>
      <trkpt lat="44.26338" lon="5.55478">
        <ele>1344</ele>
        <time>2021-09-25T12:06:30.000Z</time>
      </trkpt>
      <trkpt lat="44.2634" lon="5.55478">
        <ele>1344</ele>
        <time>2021-09-25T12:06:33.000Z</time>
      </trkpt>
      <trkpt lat="44.26342" lon="5.55477">
        <ele>1343.1999511719</ele>
        <time>2021-09-25T12:06:36.000Z</time>
      </trkpt>
      <trkpt lat="44.26343" lon="5.55478">
        <ele>1343.1999511719</ele>
        <time>2021-09-25T12:06:40.000Z</time>
      </trkpt>
      <trkpt lat="44.26345" lon="5.55479">
        <ele>1343.1999511719</ele>
        <time>2021-09-25T12:06:44.000Z</time>
      </trkpt>
      <trkpt lat="44.26345" lon="5.55479">
        <ele>1343.1999511719</ele>
        <time>2021-09-25T12:06:46.000Z</time>
      </trkpt>
      <trkpt lat="44.26347" lon="5.55479">
        <ele>1342.1999511719</ele>
        <time>2021-09-25T12:06:54.000Z</time>
      </trkpt>
      <trkpt lat="44.26347" lon="5.5548">
        <ele>1342</ele>
        <time>2021-09-25T12:06:55.000Z</time>
      </trkpt>
      <trkpt lat="44.26349" lon="5.55484">
        <ele>1341.5999755859</ele>
        <time>2021-09-25T12:06:59.000Z</time>
      </trkpt>
      <trkpt lat="44.26349" lon="5.55484">
        <ele>1341.4000244141</ele>
        <time>2021-09-25T12:07:00.000Z</time>
      </trkpt>
      <trkpt lat="44.2635" lon="5.55485">
        <ele>1341.1999511719</ele>
        <time>2021-09-25T12:07:01.000Z</time>
      </trkpt>
      <trkpt lat="44.26351" lon="5.55487">
        <ele>1341</ele>
        <time>2021-09-25T12:07:03.000Z</time>
      </trkpt>
      <trkpt lat="44.26353" lon="5.5549">
        <ele>1340.4000244141</ele>
        <time>2021-09-25T12:07:08.000Z</time>
      </trkpt>
      <trkpt lat="44.26357" lon="5.55496">
        <ele>1340.4000244141</ele>
        <time>2021-09-25T12:07:14.000Z</time>
      </trkpt>
      <trkpt lat="44.26358" lon="5.55498">
        <ele>1340.8000488281</ele>
        <time>2021-09-25T12:07:18.000Z</time>
      </trkpt>
      <trkpt lat="44.26359" lon="5.55501">
        <ele>1340.8000488281</ele>
        <time>2021-09-25T12:07:20.000Z</time>
      </trkpt>
      <trkpt lat="44.26359" lon="5.55503">
        <ele>1340</ele>
        <time>2021-09-25T12:07:23.000Z</time>
      </trkpt>
      <trkpt lat="44.26359" lon="5.55502">
        <ele>1339.8000488281</ele>
        <time>2021-09-25T12:07:24.000Z</time>
      </trkpt>
      <trkpt lat="44.26359" lon="5.55502">
        <ele>1339.5999755859</ele>
        <time>2021-09-25T12:07:25.000Z</time>
      </trkpt>
      <trkpt lat="44.26359" lon="5.55502">
        <ele>1339.1999511719</ele>
        <time>2021-09-25T12:07:27.000Z</time>
      </trkpt>
      <trkpt lat="44.26358" lon="5.55503">
        <ele>1338.8000488281</ele>
        <time>2021-09-25T12:07:30.000Z</time>
      </trkpt>
      <trkpt lat="44.26357" lon="5.55504">
        <ele>1338.8000488281</ele>
        <time>2021-09-25T12:07:31.000Z</time>
      </trkpt>
      <trkpt lat="44.26357" lon="5.55505">
        <ele>1338.8000488281</ele>
        <time>2021-09-25T12:07:33.000Z</time>
      </trkpt>
      <trkpt lat="44.26358" lon="5.55508">
        <ele>1339</ele>
        <time>2021-09-25T12:07:40.000Z</time>
      </trkpt>
      <trkpt lat="44.26356" lon="5.5551">
        <ele>1338.4000244141</ele>
        <time>2021-09-25T12:07:47.000Z</time>
      </trkpt>
      <trkpt lat="44.26355" lon="5.55514">
        <ele>1338</ele>
        <time>2021-09-25T12:07:52.000Z</time>
      </trkpt>
      <trkpt lat="44.26354" lon="5.55515">
        <ele>1338</ele>
        <time>2021-09-25T12:07:53.000Z</time>
      </trkpt>
      <trkpt lat="44.26353" lon="5.55517">
        <ele>1338.1999511719</ele>
        <time>2021-09-25T12:07:56.000Z</time>
      </trkpt>
      <trkpt lat="44.26353" lon="5.55517">
        <ele>1338.1999511719</ele>
        <time>2021-09-25T12:07:57.000Z</time>
      </trkpt>
      <trkpt lat="44.26352" lon="5.55518">
        <ele>1338.1999511719</ele>
        <time>2021-09-25T12:07:59.000Z</time>
      </trkpt>
      <trkpt lat="44.2635" lon="5.55522">
        <ele>1338.4000244141</ele>
        <time>2021-09-25T12:08:05.000Z</time>
      </trkpt>
      <trkpt lat="44.26347" lon="5.55528">
        <ele>1337.8000488281</ele>
        <time>2021-09-25T12:08:12.000Z</time>
      </trkpt>
      <trkpt lat="44.26346" lon="5.5553">
        <ele>1337.8000488281</ele>
        <time>2021-09-25T12:08:15.000Z</time>
      </trkpt>
      <trkpt lat="44.26344" lon="5.55532">
        <ele>1337</ele>
        <time>2021-09-25T12:08:18.000Z</time>
      </trkpt>
      <trkpt lat="44.26341" lon="5.55533">
        <ele>1336.5999755859</ele>
        <time>2021-09-25T12:08:22.000Z</time>
      </trkpt>
      <trkpt lat="44.2634" lon="5.55534">
        <ele>1336.5999755859</ele>
        <time>2021-09-25T12:08:24.000Z</time>
      </trkpt>
      <trkpt lat="44.2634" lon="5.55535">
        <ele>1336.5999755859</ele>
        <time>2021-09-25T12:08:25.000Z</time>
      </trkpt>
      <trkpt lat="44.26337" lon="5.55537">
        <ele>1336.1999511719</ele>
        <time>2021-09-25T12:08:29.000Z</time>
      </trkpt>
      <trkpt lat="44.26337" lon="5.55538">
        <ele>1335.8000488281</ele>
        <time>2021-09-25T12:08:31.000Z</time>
      </trkpt>
      <trkpt lat="44.26336" lon="5.55539">
        <ele>1335.5999755859</ele>
        <time>2021-09-25T12:08:32.000Z</time>
      </trkpt>
      <trkpt lat="44.26335" lon="5.55541">
        <ele>1335.4000244141</ele>
        <time>2021-09-25T12:08:34.000Z</time>
      </trkpt>
      <trkpt lat="44.26336" lon="5.55546">
        <ele>1335</ele>
        <time>2021-09-25T12:08:39.000Z</time>
      </trkpt>
      <trkpt lat="44.26336" lon="5.55548">
        <ele>1334.4000244141</ele>
        <time>2021-09-25T12:08:42.000Z</time>
      </trkpt>
      <trkpt lat="44.26337" lon="5.55549">
        <ele>1334</ele>
        <time>2021-09-25T12:08:45.000Z</time>
      </trkpt>
      <trkpt lat="44.26337" lon="5.5555">
        <ele>1334</ele>
        <time>2021-09-25T12:08:46.000Z</time>
      </trkpt>
      <trkpt lat="44.26336" lon="5.5555">
        <ele>1333.8000488281</ele>
        <time>2021-09-25T12:08:48.000Z</time>
      </trkpt>
      <trkpt lat="44.26336" lon="5.55552">
        <ele>1333.4000244141</ele>
        <time>2021-09-25T12:08:51.000Z</time>
      </trkpt>
      <trkpt lat="44.26337" lon="5.55555">
        <ele>1333</ele>
        <time>2021-09-25T12:08:53.000Z</time>
      </trkpt>
      <trkpt lat="44.26337" lon="5.5556">
        <ele>1332.4000244141</ele>
        <time>2021-09-25T12:08:58.000Z</time>
      </trkpt>
      <trkpt lat="44.26337" lon="5.5556">
        <ele>1332.1999511719</ele>
        <time>2021-09-25T12:08:59.000Z</time>
      </trkpt>
      <trkpt lat="44.26337" lon="5.55562">
        <ele>1331.1999511719</ele>
        <time>2021-09-25T12:09:05.000Z</time>
      </trkpt>
      <trkpt lat="44.26336" lon="5.55562">
        <ele>1331.1999511719</ele>
        <time>2021-09-25T12:09:06.000Z</time>
      </trkpt>
      <trkpt lat="44.26336" lon="5.55563">
        <ele>1330.8000488281</ele>
        <time>2021-09-25T12:09:12.000Z</time>
      </trkpt>
      <trkpt lat="44.26335" lon="5.55563">
        <ele>1330.8000488281</ele>
        <time>2021-09-25T12:09:14.000Z</time>
      </trkpt>
      <trkpt lat="44.26335" lon="5.55563">
        <ele>1330.4000244141</ele>
        <time>2021-09-25T12:09:15.000Z</time>
      </trkpt>
      <trkpt lat="44.26335" lon="5.55564">
        <ele>1330</ele>
        <time>2021-09-25T12:09:16.000Z</time>
      </trkpt>
      <trkpt lat="44.26335" lon="5.55564">
        <ele>1329.5999755859</ele>
        <time>2021-09-25T12:09:18.000Z</time>
      </trkpt>
      <trkpt lat="44.26335" lon="5.55566">
        <ele>1328.5999755859</ele>
        <time>2021-09-25T12:09:27.000Z</time>
      </trkpt>
      <trkpt lat="44.2633" lon="5.55568">
        <ele>1328.4000244141</ele>
        <time>2021-09-25T12:09:34.000Z</time>
      </trkpt>
      <trkpt lat="44.2633" lon="5.55569">
        <ele>1327.5999755859</ele>
        <time>2021-09-25T12:09:37.000Z</time>
      </trkpt>
      <trkpt lat="44.26331" lon="5.55571">
        <ele>1327</ele>
        <time>2021-09-25T12:09:41.000Z</time>
      </trkpt>
      <trkpt lat="44.2633" lon="5.55575">
        <ele>1326.5999755859</ele>
        <time>2021-09-25T12:09:44.000Z</time>
      </trkpt>
      <trkpt lat="44.26328" lon="5.55579">
        <ele>1326</ele>
        <time>2021-09-25T12:09:48.000Z</time>
      </trkpt>
      <trkpt lat="44.26329" lon="5.55581">
        <ele>1326</ele>
        <time>2021-09-25T12:09:54.000Z</time>
      </trkpt>
      <trkpt lat="44.2633" lon="5.55584">
        <ele>1325.4000244141</ele>
        <time>2021-09-25T12:09:59.000Z</time>
      </trkpt>
      <trkpt lat="44.2633" lon="5.55586">
        <ele>1325.1999511719</ele>
        <time>2021-09-25T12:10:00.000Z</time>
      </trkpt>
      <trkpt lat="44.2633" lon="5.5559">
        <ele>1324.5999755859</ele>
        <time>2021-09-25T12:10:04.000Z</time>
      </trkpt>
      <trkpt lat="44.26331" lon="5.55592">
        <ele>1324.4000244141</ele>
        <time>2021-09-25T12:10:07.000Z</time>
      </trkpt>
      <trkpt lat="44.26331" lon="5.55598">
        <ele>1324.1999511719</ele>
        <time>2021-09-25T12:10:12.000Z</time>
      </trkpt>
      <trkpt lat="44.26331" lon="5.55599">
        <ele>1324.1999511719</ele>
        <time>2021-09-25T12:10:13.000Z</time>
      </trkpt>
      <trkpt lat="44.2633" lon="5.55604">
        <ele>1323.5999755859</ele>
        <time>2021-09-25T12:10:19.000Z</time>
      </trkpt>
      <trkpt lat="44.26329" lon="5.55605">
        <ele>1323.5999755859</ele>
        <time>2021-09-25T12:10:20.000Z</time>
      </trkpt>
      <trkpt lat="44.26326" lon="5.55607">
        <ele>1323.4000244141</ele>
        <time>2021-09-25T12:10:25.000Z</time>
      </trkpt>
      <trkpt lat="44.26322" lon="5.5561">
        <ele>1323.4000244141</ele>
        <time>2021-09-25T12:10:30.000Z</time>
      </trkpt>
      <trkpt lat="44.26321" lon="5.5561">
        <ele>1323.1999511719</ele>
        <time>2021-09-25T12:10:31.000Z</time>
      </trkpt>
      <trkpt lat="44.2632" lon="5.55612">
        <ele>1322.8000488281</ele>
        <time>2021-09-25T12:10:39.000Z</time>
      </trkpt>
      <trkpt lat="44.2632" lon="5.55612">
        <ele>1323</ele>
        <time>2021-09-25T12:10:40.000Z</time>
      </trkpt>
      <trkpt lat="44.2632" lon="5.55612">
        <ele>1323</ele>
        <time>2021-09-25T12:10:42.000Z</time>
      </trkpt>
      <trkpt lat="44.26322" lon="5.55612">
        <ele>1322.8000488281</ele>
        <time>2021-09-25T12:10:48.000Z</time>
      </trkpt>
      <trkpt lat="44.26326" lon="5.55614">
        <ele>1322.5999755859</ele>
        <time>2021-09-25T12:10:55.000Z</time>
      </trkpt>
      <trkpt lat="44.26325" lon="5.55619">
        <ele>1323</ele>
        <time>2021-09-25T12:11:01.000Z</time>
      </trkpt>
      <trkpt lat="44.26326" lon="5.55619">
        <ele>1323.1999511719</ele>
        <time>2021-09-25T12:11:03.000Z</time>
      </trkpt>
      <trkpt lat="44.26322" lon="5.55623">
        <ele>1323.4000244141</ele>
        <time>2021-09-25T12:11:11.000Z</time>
      </trkpt>
      <trkpt lat="44.26322" lon="5.55625">
        <ele>1323.4000244141</ele>
        <time>2021-09-25T12:11:14.000Z</time>
      </trkpt>
      <trkpt lat="44.26325" lon="5.55626">
        <ele>1323.1999511719</ele>
        <time>2021-09-25T12:11:18.000Z</time>
      </trkpt>
      <trkpt lat="44.26329" lon="5.55624">
        <ele>1323.1999511719</ele>
        <time>2021-09-25T12:11:21.000Z</time>
      </trkpt>
      <trkpt lat="44.26336" lon="5.55624">
        <ele>1323</ele>
        <time>2021-09-25T12:11:26.000Z</time>
      </trkpt>
      <trkpt lat="44.26333" lon="5.55627">
        <ele>1322.8000488281</ele>
        <time>2021-09-25T12:11:33.000Z</time>
      </trkpt>
      <trkpt lat="44.26329" lon="5.5563">
        <ele>1322.4000244141</ele>
        <time>2021-09-25T12:11:37.000Z</time>
      </trkpt>
      <trkpt lat="44.26328" lon="5.55632">
        <ele>1322</ele>
        <time>2021-09-25T12:11:40.000Z</time>
      </trkpt>
      <trkpt lat="44.26328" lon="5.55632">
        <ele>1322</ele>
        <time>2021-09-25T12:11:41.000Z</time>
      </trkpt>
      <trkpt lat="44.26326" lon="5.55635">
        <ele>1321.4000244141</ele>
        <time>2021-09-25T12:11:45.000Z</time>
      </trkpt>
      <trkpt lat="44.26325" lon="5.55636">
        <ele>1321.4000244141</ele>
        <time>2021-09-25T12:11:46.000Z</time>
      </trkpt>
      <trkpt lat="44.26324" lon="5.55641">
        <ele>1320.5999755859</ele>
        <time>2021-09-25T12:11:52.000Z</time>
      </trkpt>
      <trkpt lat="44.26325" lon="5.55642">
        <ele>1320.4000244141</ele>
        <time>2021-09-25T12:11:55.000Z</time>
      </trkpt>
      <trkpt lat="44.26326" lon="5.55643">
        <ele>1320.1999511719</ele>
        <time>2021-09-25T12:11:56.000Z</time>
      </trkpt>
      <trkpt lat="44.26326" lon="5.55646">
        <ele>1320</ele>
        <time>2021-09-25T12:11:58.000Z</time>
      </trkpt>
      <trkpt lat="44.26327" lon="5.55651">
        <ele>1320</ele>
        <time>2021-09-25T12:12:05.000Z</time>
      </trkpt>
      <trkpt lat="44.26327" lon="5.55652">
        <ele>1319.1999511719</ele>
        <time>2021-09-25T12:12:07.000Z</time>
      </trkpt>
      <trkpt lat="44.26328" lon="5.55658">
        <ele>1318.5999755859</ele>
        <time>2021-09-25T12:12:12.000Z</time>
      </trkpt>
      <trkpt lat="44.26327" lon="5.55659">
        <ele>1318.1999511719</ele>
        <time>2021-09-25T12:12:14.000Z</time>
      </trkpt>
      <trkpt lat="44.26323" lon="5.55664">
        <ele>1318</ele>
        <time>2021-09-25T12:12:19.000Z</time>
      </trkpt>
      <trkpt lat="44.26321" lon="5.5567">
        <ele>1317.8000488281</ele>
        <time>2021-09-25T12:12:25.000Z</time>
      </trkpt>
      <trkpt lat="44.26318" lon="5.55675">
        <ele>1317.1999511719</ele>
        <time>2021-09-25T12:12:30.000Z</time>
      </trkpt>
      <trkpt lat="44.26318" lon="5.55676">
        <ele>1317</ele>
        <time>2021-09-25T12:12:31.000Z</time>
      </trkpt>
      <trkpt lat="44.26318" lon="5.55682">
        <ele>1316.5999755859</ele>
        <time>2021-09-25T12:12:37.000Z</time>
      </trkpt>
      <trkpt lat="44.26315" lon="5.55686">
        <ele>1316</ele>
        <time>2021-09-25T12:12:42.000Z</time>
      </trkpt>
      <trkpt lat="44.26314" lon="5.55687">
        <ele>1316</ele>
        <time>2021-09-25T12:12:43.000Z</time>
      </trkpt>
      <trkpt lat="44.26312" lon="5.55694">
        <ele>1316</ele>
        <time>2021-09-25T12:12:49.000Z</time>
      </trkpt>
      <trkpt lat="44.26313" lon="5.55696">
        <ele>1315.4000244141</ele>
        <time>2021-09-25T12:12:54.000Z</time>
      </trkpt>
      <trkpt lat="44.26316" lon="5.557">
        <ele>1315.1999511719</ele>
        <time>2021-09-25T12:12:56.000Z</time>
      </trkpt>
      <trkpt lat="44.26317" lon="5.55701">
        <ele>1315.1999511719</ele>
        <time>2021-09-25T12:12:57.000Z</time>
      </trkpt>
      <trkpt lat="44.26316" lon="5.55702">
        <ele>1315.1999511719</ele>
        <time>2021-09-25T12:12:58.000Z</time>
      </trkpt>
      <trkpt lat="44.26316" lon="5.55704">
        <ele>1315</ele>
        <time>2021-09-25T12:12:59.000Z</time>
      </trkpt>
      <trkpt lat="44.26317" lon="5.55705">
        <ele>1315</ele>
        <time>2021-09-25T12:13:00.000Z</time>
      </trkpt>
      <trkpt lat="44.26317" lon="5.55713">
        <ele>1314.5999755859</ele>
        <time>2021-09-25T12:13:06.000Z</time>
      </trkpt>
      <trkpt lat="44.26319" lon="5.55718">
        <ele>1314.1999511719</ele>
        <time>2021-09-25T12:13:10.000Z</time>
      </trkpt>
      <trkpt lat="44.26318" lon="5.55722">
        <ele>1314.1999511719</ele>
        <time>2021-09-25T12:13:13.000Z</time>
      </trkpt>
      <trkpt lat="44.26317" lon="5.55725">
        <ele>1314</ele>
        <time>2021-09-25T12:13:15.000Z</time>
      </trkpt>
      <trkpt lat="44.26316" lon="5.55726">
        <ele>1313.8000488281</ele>
        <time>2021-09-25T12:13:16.000Z</time>
      </trkpt>
      <trkpt lat="44.26315" lon="5.55727">
        <ele>1313.8000488281</ele>
        <time>2021-09-25T12:13:18.000Z</time>
      </trkpt>
      <trkpt lat="44.26315" lon="5.55728">
        <ele>1313.8000488281</ele>
        <time>2021-09-25T12:13:19.000Z</time>
      </trkpt>
      <trkpt lat="44.26315" lon="5.55729">
        <ele>1313.8000488281</ele>
        <time>2021-09-25T12:13:20.000Z</time>
      </trkpt>
      <trkpt lat="44.26314" lon="5.55732">
        <ele>1313.8000488281</ele>
        <time>2021-09-25T12:13:21.000Z</time>
      </trkpt>
      <trkpt lat="44.26312" lon="5.55737">
        <ele>1313.5999755859</ele>
        <time>2021-09-25T12:13:24.000Z</time>
      </trkpt>
      <trkpt lat="44.26312" lon="5.55738">
        <ele>1313.4000244141</ele>
        <time>2021-09-25T12:13:25.000Z</time>
      </trkpt>
      <trkpt lat="44.26311" lon="5.5574">
        <ele>1313.4000244141</ele>
        <time>2021-09-25T12:13:26.000Z</time>
      </trkpt>
      <trkpt lat="44.26312" lon="5.55741">
        <ele>1313.1999511719</ele>
        <time>2021-09-25T12:13:28.000Z</time>
      </trkpt>
      <trkpt lat="44.26311" lon="5.55742">
        <ele>1313.1999511719</ele>
        <time>2021-09-25T12:13:29.000Z</time>
      </trkpt>
      <trkpt lat="44.26311" lon="5.55743">
        <ele>1313.1999511719</ele>
        <time>2021-09-25T12:13:30.000Z</time>
      </trkpt>
      <trkpt lat="44.26311" lon="5.55743">
        <ele>1313</ele>
        <time>2021-09-25T12:13:31.000Z</time>
      </trkpt>
      <trkpt lat="44.2631" lon="5.55745">
        <ele>1313</ele>
        <time>2021-09-25T12:13:33.000Z</time>
      </trkpt>
      <trkpt lat="44.2631" lon="5.55747">
        <ele>1312.8000488281</ele>
        <time>2021-09-25T12:13:37.000Z</time>
      </trkpt>
      <trkpt lat="44.26309" lon="5.55755">
        <ele>1312.8000488281</ele>
        <time>2021-09-25T12:13:44.000Z</time>
      </trkpt>
      <trkpt lat="44.26309" lon="5.55756">
        <ele>1312.8000488281</ele>
        <time>2021-09-25T12:13:45.000Z</time>
      </trkpt>
      <trkpt lat="44.26309" lon="5.55757">
        <ele>1312.8000488281</ele>
        <time>2021-09-25T12:13:46.000Z</time>
      </trkpt>
      <trkpt lat="44.26311" lon="5.55762">
        <ele>1312.4000244141</ele>
        <time>2021-09-25T12:13:50.000Z</time>
      </trkpt>
      <trkpt lat="44.2631" lon="5.55765">
        <ele>1312</ele>
        <time>2021-09-25T12:13:52.000Z</time>
      </trkpt>
      <trkpt lat="44.2631" lon="5.55766">
        <ele>1311.8000488281</ele>
        <time>2021-09-25T12:13:53.000Z</time>
      </trkpt>
      <trkpt lat="44.26308" lon="5.5577">
        <ele>1311.8000488281</ele>
        <time>2021-09-25T12:13:58.000Z</time>
      </trkpt>
      <trkpt lat="44.26308" lon="5.5577">
        <ele>1311.8000488281</ele>
        <time>2021-09-25T12:13:59.000Z</time>
      </trkpt>
      <trkpt lat="44.26304" lon="5.55774">
        <ele>1311.1999511719</ele>
        <time>2021-09-25T12:14:03.000Z</time>
      </trkpt>
      <trkpt lat="44.26304" lon="5.55776">
        <ele>1310.8000488281</ele>
        <time>2021-09-25T12:14:05.000Z</time>
      </trkpt>
      <trkpt lat="44.26303" lon="5.55777">
        <ele>1310.8000488281</ele>
        <time>2021-09-25T12:14:06.000Z</time>
      </trkpt>
      <trkpt lat="44.26304" lon="5.55781">
        <ele>1310.4000244141</ele>
        <time>2021-09-25T12:14:10.000Z</time>
      </trkpt>
      <trkpt lat="44.26305" lon="5.55785">
        <ele>1310.1999511719</ele>
        <time>2021-09-25T12:14:13.000Z</time>
      </trkpt>
      <trkpt lat="44.26303" lon="5.55788">
        <ele>1309.8000488281</ele>
        <time>2021-09-25T12:14:17.000Z</time>
      </trkpt>
      <trkpt lat="44.26305" lon="5.5579">
        <ele>1309.5999755859</ele>
        <time>2021-09-25T12:14:19.000Z</time>
      </trkpt>
      <trkpt lat="44.26304" lon="5.55796">
        <ele>1309.1999511719</ele>
        <time>2021-09-25T12:14:25.000Z</time>
      </trkpt>
      <trkpt lat="44.26304" lon="5.55797">
        <ele>1309.1999511719</ele>
        <time>2021-09-25T12:14:26.000Z</time>
      </trkpt>
      <trkpt lat="44.26303" lon="5.55801">
        <ele>1309.1999511719</ele>
        <time>2021-09-25T12:14:32.000Z</time>
      </trkpt>
      <trkpt lat="44.263" lon="5.55807">
        <ele>1308.8000488281</ele>
        <time>2021-09-25T12:14:39.000Z</time>
      </trkpt>
      <trkpt lat="44.263" lon="5.55809">
        <ele>1308.8000488281</ele>
        <time>2021-09-25T12:14:40.000Z</time>
      </trkpt>
      <trkpt lat="44.26299" lon="5.55811">
        <ele>1308.4000244141</ele>
        <time>2021-09-25T12:14:42.000Z</time>
      </trkpt>
      <trkpt lat="44.263" lon="5.55813">
        <ele>1308.4000244141</ele>
        <time>2021-09-25T12:14:43.000Z</time>
      </trkpt>
      <trkpt lat="44.26301" lon="5.55816">
        <ele>1308</ele>
        <time>2021-09-25T12:14:46.000Z</time>
      </trkpt>
      <trkpt lat="44.26301" lon="5.55817">
        <ele>1308</ele>
        <time>2021-09-25T12:14:47.000Z</time>
      </trkpt>
      <trkpt lat="44.263" lon="5.55819">
        <ele>1307.8000488281</ele>
        <time>2021-09-25T12:14:49.000Z</time>
      </trkpt>
      <trkpt lat="44.263" lon="5.55827">
        <ele>1307.1999511719</ele>
        <time>2021-09-25T12:14:54.000Z</time>
      </trkpt>
      <trkpt lat="44.263" lon="5.55834">
        <ele>1306.5999755859</ele>
        <time>2021-09-25T12:14:59.000Z</time>
      </trkpt>
      <trkpt lat="44.263" lon="5.55836">
        <ele>1306.4000244141</ele>
        <time>2021-09-25T12:15:00.000Z</time>
      </trkpt>
      <trkpt lat="44.26301" lon="5.55837">
        <ele>1306.1999511719</ele>
        <time>2021-09-25T12:15:01.000Z</time>
      </trkpt>
      <trkpt lat="44.26297" lon="5.55843">
        <ele>1306</ele>
        <time>2021-09-25T12:15:05.000Z</time>
      </trkpt>
      <trkpt lat="44.26298" lon="5.55846">
        <ele>1305.8000488281</ele>
        <time>2021-09-25T12:15:07.000Z</time>
      </trkpt>
      <trkpt lat="44.26298" lon="5.55846">
        <ele>1305.8000488281</ele>
        <time>2021-09-25T12:15:08.000Z</time>
      </trkpt>
      <trkpt lat="44.26297" lon="5.55849">
        <ele>1305.8000488281</ele>
        <time>2021-09-25T12:15:10.000Z</time>
      </trkpt>
      <trkpt lat="44.26298" lon="5.55852">
        <ele>1305.8000488281</ele>
        <time>2021-09-25T12:15:12.000Z</time>
      </trkpt>
      <trkpt lat="44.26297" lon="5.55854">
        <ele>1305.4000244141</ele>
        <time>2021-09-25T12:15:14.000Z</time>
      </trkpt>
      <trkpt lat="44.26297" lon="5.55855">
        <ele>1305.4000244141</ele>
        <time>2021-09-25T12:15:15.000Z</time>
      </trkpt>
      <trkpt lat="44.26298" lon="5.55858">
        <ele>1305</ele>
        <time>2021-09-25T12:15:17.000Z</time>
      </trkpt>
      <trkpt lat="44.26298" lon="5.55859">
        <ele>1304.4000244141</ele>
        <time>2021-09-25T12:15:19.000Z</time>
      </trkpt>
      <trkpt lat="44.26298" lon="5.55861">
        <ele>1304.1999511719</ele>
        <time>2021-09-25T12:15:21.000Z</time>
      </trkpt>
      <trkpt lat="44.26299" lon="5.55865">
        <ele>1304</ele>
        <time>2021-09-25T12:15:24.000Z</time>
      </trkpt>
      <trkpt lat="44.26299" lon="5.55866">
        <ele>1303.8000488281</ele>
        <time>2021-09-25T12:15:26.000Z</time>
      </trkpt>
      <trkpt lat="44.26299" lon="5.55869">
        <ele>1303.5999755859</ele>
        <time>2021-09-25T12:15:29.000Z</time>
      </trkpt>
      <trkpt lat="44.26299" lon="5.55869">
        <ele>1303.4000244141</ele>
        <time>2021-09-25T12:15:30.000Z</time>
      </trkpt>
      <trkpt lat="44.26298" lon="5.55872">
        <ele>1303</ele>
        <time>2021-09-25T12:15:34.000Z</time>
      </trkpt>
      <trkpt lat="44.263" lon="5.55877">
        <ele>1302.4000244141</ele>
        <time>2021-09-25T12:15:38.000Z</time>
      </trkpt>
      <trkpt lat="44.26299" lon="5.55878">
        <ele>1302.1999511719</ele>
        <time>2021-09-25T12:15:39.000Z</time>
      </trkpt>
      <trkpt lat="44.26301" lon="5.5588">
        <ele>1302</ele>
        <time>2021-09-25T12:15:44.000Z</time>
      </trkpt>
      <trkpt lat="44.26303" lon="5.55881">
        <ele>1302.1999511719</ele>
        <time>2021-09-25T12:15:45.000Z</time>
      </trkpt>
      <trkpt lat="44.26305" lon="5.55881">
        <ele>1302.1999511719</ele>
        <time>2021-09-25T12:15:46.000Z</time>
      </trkpt>
      <trkpt lat="44.26308" lon="5.5588">
        <ele>1302.4000244141</ele>
        <time>2021-09-25T12:15:49.000Z</time>
      </trkpt>
      <trkpt lat="44.2631" lon="5.5588">
        <ele>1302.5999755859</ele>
        <time>2021-09-25T12:15:51.000Z</time>
      </trkpt>
      <trkpt lat="44.26311" lon="5.55879">
        <ele>1302.5999755859</ele>
        <time>2021-09-25T12:15:52.000Z</time>
      </trkpt>
      <trkpt lat="44.26311" lon="5.55879">
        <ele>1302.5999755859</ele>
        <time>2021-09-25T12:15:53.000Z</time>
      </trkpt>
      <trkpt lat="44.26315" lon="5.55875">
        <ele>1303.1999511719</ele>
        <time>2021-09-25T12:15:58.000Z</time>
      </trkpt>
      <trkpt lat="44.26317" lon="5.55872">
        <ele>1303.1999511719</ele>
        <time>2021-09-25T12:16:00.000Z</time>
      </trkpt>
      <trkpt lat="44.26318" lon="5.55871">
        <ele>1303.4000244141</ele>
        <time>2021-09-25T12:16:01.000Z</time>
      </trkpt>
      <trkpt lat="44.2632" lon="5.55869">
        <ele>1303.4000244141</ele>
        <time>2021-09-25T12:16:03.000Z</time>
      </trkpt>
      <trkpt lat="44.26323" lon="5.55868">
        <ele>1303.4000244141</ele>
        <time>2021-09-25T12:16:04.000Z</time>
      </trkpt>
      <trkpt lat="44.26325" lon="5.55865">
        <ele>1303.8000488281</ele>
        <time>2021-09-25T12:16:06.000Z</time>
      </trkpt>
      <trkpt lat="44.26331" lon="5.55857">
        <ele>1303.8000488281</ele>
        <time>2021-09-25T12:16:13.000Z</time>
      </trkpt>
      <trkpt lat="44.26333" lon="5.55855">
        <ele>1303.8000488281</ele>
        <time>2021-09-25T12:16:17.000Z</time>
      </trkpt>
      <trkpt lat="44.26336" lon="5.55854">
        <ele>1303.8000488281</ele>
        <time>2021-09-25T12:16:19.000Z</time>
      </trkpt>
      <trkpt lat="44.26338" lon="5.55853">
        <ele>1303.5999755859</ele>
        <time>2021-09-25T12:16:21.000Z</time>
      </trkpt>
      <trkpt lat="44.2634" lon="5.55852">
        <ele>1303.4000244141</ele>
        <time>2021-09-25T12:16:23.000Z</time>
      </trkpt>
      <trkpt lat="44.26341" lon="5.55851">
        <ele>1303.4000244141</ele>
        <time>2021-09-25T12:16:24.000Z</time>
      </trkpt>
      <trkpt lat="44.26342" lon="5.5585">
        <ele>1303.4000244141</ele>
        <time>2021-09-25T12:16:26.000Z</time>
      </trkpt>
      <trkpt lat="44.26344" lon="5.55847">
        <ele>1303.8000488281</ele>
        <time>2021-09-25T12:16:29.000Z</time>
      </trkpt>
      <trkpt lat="44.26346" lon="5.55843">
        <ele>1303.8000488281</ele>
        <time>2021-09-25T12:16:31.000Z</time>
      </trkpt>
      <trkpt lat="44.26349" lon="5.55838">
        <ele>1303.5999755859</ele>
        <time>2021-09-25T12:16:36.000Z</time>
      </trkpt>
      <trkpt lat="44.2635" lon="5.55836">
        <ele>1303.5999755859</ele>
        <time>2021-09-25T12:16:39.000Z</time>
      </trkpt>
      <trkpt lat="44.26351" lon="5.55835">
        <ele>1303.5999755859</ele>
        <time>2021-09-25T12:16:41.000Z</time>
      </trkpt>
      <trkpt lat="44.26352" lon="5.55835">
        <ele>1303.5999755859</ele>
        <time>2021-09-25T12:16:42.000Z</time>
      </trkpt>
      <trkpt lat="44.26357" lon="5.55829">
        <ele>1302.8000488281</ele>
        <time>2021-09-25T12:16:49.000Z</time>
      </trkpt>
      <trkpt lat="44.26359" lon="5.55826">
        <ele>1303</ele>
        <time>2021-09-25T12:16:52.000Z</time>
      </trkpt>
      <trkpt lat="44.2636" lon="5.55824">
        <ele>1303</ele>
        <time>2021-09-25T12:16:54.000Z</time>
      </trkpt>
      <trkpt lat="44.26361" lon="5.55824">
        <ele>1303</ele>
        <time>2021-09-25T12:16:55.000Z</time>
      </trkpt>
      <trkpt lat="44.26361" lon="5.55824">
        <ele>1303</ele>
        <time>2021-09-25T12:16:56.000Z</time>
      </trkpt>
      <trkpt lat="44.26362" lon="5.55823">
        <ele>1302.8000488281</ele>
        <time>2021-09-25T12:16:58.000Z</time>
      </trkpt>
      <trkpt lat="44.26364" lon="5.55822">
        <ele>1302.4000244141</ele>
        <time>2021-09-25T12:17:01.000Z</time>
      </trkpt>
      <trkpt lat="44.26366" lon="5.55821">
        <ele>1302.4000244141</ele>
        <time>2021-09-25T12:17:03.000Z</time>
      </trkpt>
      <trkpt lat="44.26367" lon="5.55819">
        <ele>1302.4000244141</ele>
        <time>2021-09-25T12:17:04.000Z</time>
      </trkpt>
      <trkpt lat="44.26372" lon="5.55815">
        <ele>1302.1999511719</ele>
        <time>2021-09-25T12:17:10.000Z</time>
      </trkpt>
      <trkpt lat="44.26377" lon="5.55812">
        <ele>1301.8000488281</ele>
        <time>2021-09-25T12:17:17.000Z</time>
      </trkpt>
      <trkpt lat="44.26377" lon="5.55811">
        <ele>1302</ele>
        <time>2021-09-25T12:17:18.000Z</time>
      </trkpt>
      <trkpt lat="44.26379" lon="5.5581">
        <ele>1302</ele>
        <time>2021-09-25T12:17:20.000Z</time>
      </trkpt>
      <trkpt lat="44.26382" lon="5.55806">
        <ele>1302.4000244141</ele>
        <time>2021-09-25T12:17:24.000Z</time>
      </trkpt>
      <trkpt lat="44.26383" lon="5.55806">
        <ele>1302.4000244141</ele>
        <time>2021-09-25T12:17:25.000Z</time>
      </trkpt>
      <trkpt lat="44.26387" lon="5.55801">
        <ele>1302.1999511719</ele>
        <time>2021-09-25T12:17:31.000Z</time>
      </trkpt>
      <trkpt lat="44.26388" lon="5.558">
        <ele>1302.1999511719</ele>
        <time>2021-09-25T12:17:32.000Z</time>
      </trkpt>
      <trkpt lat="44.2639" lon="5.558">
        <ele>1302.1999511719</ele>
        <time>2021-09-25T12:17:34.000Z</time>
      </trkpt>
      <trkpt lat="44.26394" lon="5.55796">
        <ele>1302.1999511719</ele>
        <time>2021-09-25T12:17:39.000Z</time>
      </trkpt>
      <trkpt lat="44.26395" lon="5.55793">
        <ele>1302</ele>
        <time>2021-09-25T12:17:42.000Z</time>
      </trkpt>
      <trkpt lat="44.26396" lon="5.5579">
        <ele>1302.1999511719</ele>
        <time>2021-09-25T12:17:44.000Z</time>
      </trkpt>
      <trkpt lat="44.26397" lon="5.55788">
        <ele>1302.1999511719</ele>
        <time>2021-09-25T12:17:46.000Z</time>
      </trkpt>
      <trkpt lat="44.26397" lon="5.55787">
        <ele>1302.1999511719</ele>
        <time>2021-09-25T12:17:47.000Z</time>
      </trkpt>
      <trkpt lat="44.264" lon="5.55784">
        <ele>1302</ele>
        <time>2021-09-25T12:17:51.000Z</time>
      </trkpt>
      <trkpt lat="44.26401" lon="5.55783">
        <ele>1302</ele>
        <time>2021-09-25T12:17:52.000Z</time>
      </trkpt>
      <trkpt lat="44.26401" lon="5.55783">
        <ele>1302</ele>
        <time>2021-09-25T12:17:53.000Z</time>
      </trkpt>
      <trkpt lat="44.26401" lon="5.55782">
        <ele>1302</ele>
        <time>2021-09-25T12:17:54.000Z</time>
      </trkpt>
      <trkpt lat="44.26406" lon="5.5578">
        <ele>1301.4000244141</ele>
        <time>2021-09-25T12:18:00.000Z</time>
      </trkpt>
      <trkpt lat="44.26409" lon="5.55778">
        <ele>1301.5999755859</ele>
        <time>2021-09-25T12:18:04.000Z</time>
      </trkpt>
      <trkpt lat="44.26412" lon="5.55775">
        <ele>1301.5999755859</ele>
        <time>2021-09-25T12:18:07.000Z</time>
      </trkpt>
      <trkpt lat="44.26412" lon="5.55774">
        <ele>1301.5999755859</ele>
        <time>2021-09-25T12:18:08.000Z</time>
      </trkpt>
      <trkpt lat="44.26412" lon="5.55774">
        <ele>1301.4000244141</ele>
        <time>2021-09-25T12:18:09.000Z</time>
      </trkpt>
      <trkpt lat="44.26412" lon="5.55773">
        <ele>1301</ele>
        <time>2021-09-25T12:18:10.000Z</time>
      </trkpt>
      <trkpt lat="44.26415" lon="5.55767">
        <ele>1300</ele>
        <time>2021-09-25T12:18:15.000Z</time>
      </trkpt>
      <trkpt lat="44.2642" lon="5.55761">
        <ele>1299.5999755859</ele>
        <time>2021-09-25T12:18:23.000Z</time>
      </trkpt>
      <trkpt lat="44.26423" lon="5.55761">
        <ele>1299.4000244141</ele>
        <time>2021-09-25T12:18:25.000Z</time>
      </trkpt>
      <trkpt lat="44.26423" lon="5.5576">
        <ele>1299.1999511719</ele>
        <time>2021-09-25T12:18:27.000Z</time>
      </trkpt>
      <trkpt lat="44.26424" lon="5.55759">
        <ele>1299</ele>
        <time>2021-09-25T12:18:29.000Z</time>
      </trkpt>
      <trkpt lat="44.26426" lon="5.55758">
        <ele>1299</ele>
        <time>2021-09-25T12:18:31.000Z</time>
      </trkpt>
      <trkpt lat="44.2643" lon="5.55755">
        <ele>1298.5999755859</ele>
        <time>2021-09-25T12:18:36.000Z</time>
      </trkpt>
      <trkpt lat="44.2643" lon="5.55754">
        <ele>1298.8000488281</ele>
        <time>2021-09-25T12:18:37.000Z</time>
      </trkpt>
      <trkpt lat="44.26432" lon="5.55751">
        <ele>1298.4000244141</ele>
        <time>2021-09-25T12:18:40.000Z</time>
      </trkpt>
      <trkpt lat="44.26433" lon="5.5575">
        <ele>1298</ele>
        <time>2021-09-25T12:18:42.000Z</time>
      </trkpt>
      <trkpt lat="44.26433" lon="5.55749">
        <ele>1298</ele>
        <time>2021-09-25T12:18:43.000Z</time>
      </trkpt>
      <trkpt lat="44.26435" lon="5.55747">
        <ele>1298</ele>
        <time>2021-09-25T12:18:45.000Z</time>
      </trkpt>
      <trkpt lat="44.26436" lon="5.55747">
        <ele>1297.8000488281</ele>
        <time>2021-09-25T12:18:46.000Z</time>
      </trkpt>
      <trkpt lat="44.26439" lon="5.55743">
        <ele>1297.1999511719</ele>
        <time>2021-09-25T12:18:52.000Z</time>
      </trkpt>
      <trkpt lat="44.2644" lon="5.55741">
        <ele>1297</ele>
        <time>2021-09-25T12:18:55.000Z</time>
      </trkpt>
      <trkpt lat="44.26441" lon="5.55739">
        <ele>1296.8000488281</ele>
        <time>2021-09-25T12:18:58.000Z</time>
      </trkpt>
      <trkpt lat="44.26441" lon="5.55739">
        <ele>1296.4000244141</ele>
        <time>2021-09-25T12:19:05.000Z</time>
      </trkpt>
      <trkpt lat="44.2644" lon="5.55738">
        <ele>1296.4000244141</ele>
        <time>2021-09-25T12:19:06.000Z</time>
      </trkpt>
      <trkpt lat="44.26441" lon="5.55737">
        <ele>1296.5999755859</ele>
        <time>2021-09-25T12:19:14.000Z</time>
      </trkpt>
      <trkpt lat="44.2644" lon="5.55735">
        <ele>1296.8000488281</ele>
        <time>2021-09-25T12:19:21.000Z</time>
      </trkpt>
      <trkpt lat="44.26439" lon="5.55735">
        <ele>1296.8000488281</ele>
        <time>2021-09-25T12:19:28.000Z</time>
      </trkpt>
      <trkpt lat="44.26439" lon="5.55737">
        <ele>1297.1999511719</ele>
        <time>2021-09-25T12:19:37.000Z</time>
      </trkpt>
      <trkpt lat="44.2644" lon="5.55737">
        <ele>1297.1999511719</ele>
        <time>2021-09-25T12:19:48.000Z</time>
      </trkpt>
      <trkpt lat="44.2644" lon="5.55736">
        <ele>1297.1999511719</ele>
        <time>2021-09-25T12:19:51.000Z</time>
      </trkpt>
      <trkpt lat="44.26439" lon="5.55732">
        <ele>1296.8000488281</ele>
        <time>2021-09-25T12:19:54.000Z</time>
      </trkpt>
      <trkpt lat="44.26439" lon="5.5573">
        <ele>1295.8000488281</ele>
        <time>2021-09-25T12:19:56.000Z</time>
      </trkpt>
      <trkpt lat="44.26439" lon="5.55726">
        <ele>1295.1999511719</ele>
        <time>2021-09-25T12:20:01.000Z</time>
      </trkpt>
      <trkpt lat="44.2644" lon="5.55724">
        <ele>1295.1999511719</ele>
        <time>2021-09-25T12:20:05.000Z</time>
      </trkpt>
      <trkpt lat="44.26442" lon="5.55722">
        <ele>1295</ele>
        <time>2021-09-25T12:20:09.000Z</time>
      </trkpt>
      <trkpt lat="44.26442" lon="5.55721">
        <ele>1294.8000488281</ele>
        <time>2021-09-25T12:20:12.000Z</time>
      </trkpt>
      <trkpt lat="44.26443" lon="5.55718">
        <ele>1294.5999755859</ele>
        <time>2021-09-25T12:20:15.000Z</time>
      </trkpt>
      <trkpt lat="44.26447" lon="5.55715">
        <ele>1294.4000244141</ele>
        <time>2021-09-25T12:20:20.000Z</time>
      </trkpt>
      <trkpt lat="44.26448" lon="5.55713">
        <ele>1294.4000244141</ele>
        <time>2021-09-25T12:20:22.000Z</time>
      </trkpt>
      <trkpt lat="44.26453" lon="5.55711">
        <ele>1294.1999511719</ele>
        <time>2021-09-25T12:20:27.000Z</time>
      </trkpt>
      <trkpt lat="44.26455" lon="5.5571">
        <ele>1294</ele>
        <time>2021-09-25T12:20:29.000Z</time>
      </trkpt>
      <trkpt lat="44.26456" lon="5.55709">
        <ele>1294</ele>
        <time>2021-09-25T12:20:31.000Z</time>
      </trkpt>
      <trkpt lat="44.26459" lon="5.55704">
        <ele>1293.8000488281</ele>
        <time>2021-09-25T12:20:36.000Z</time>
      </trkpt>
      <trkpt lat="44.2646" lon="5.55703">
        <ele>1293.5999755859</ele>
        <time>2021-09-25T12:20:37.000Z</time>
      </trkpt>
      <trkpt lat="44.26461" lon="5.55702">
        <ele>1293.1999511719</ele>
        <time>2021-09-25T12:20:39.000Z</time>
      </trkpt>
      <trkpt lat="44.26463" lon="5.55701">
        <ele>1292.5999755859</ele>
        <time>2021-09-25T12:20:42.000Z</time>
      </trkpt>
      <trkpt lat="44.26464" lon="5.557">
        <ele>1292.4000244141</ele>
        <time>2021-09-25T12:20:44.000Z</time>
      </trkpt>
      <trkpt lat="44.26466" lon="5.55695">
        <ele>1291.8000488281</ele>
        <time>2021-09-25T12:20:51.000Z</time>
      </trkpt>
      <trkpt lat="44.26468" lon="5.55693">
        <ele>1291.8000488281</ele>
        <time>2021-09-25T12:20:55.000Z</time>
      </trkpt>
      <trkpt lat="44.26468" lon="5.55693">
        <ele>1291.5999755859</ele>
        <time>2021-09-25T12:20:57.000Z</time>
      </trkpt>
      <trkpt lat="44.26469" lon="5.55692">
        <ele>1291.4000244141</ele>
        <time>2021-09-25T12:20:58.000Z</time>
      </trkpt>
      <trkpt lat="44.26472" lon="5.55691">
        <ele>1290.8000488281</ele>
        <time>2021-09-25T12:21:02.000Z</time>
      </trkpt>
      <trkpt lat="44.26474" lon="5.55691">
        <ele>1290.8000488281</ele>
        <time>2021-09-25T12:21:04.000Z</time>
      </trkpt>
      <trkpt lat="44.26475" lon="5.5569">
        <ele>1290.8000488281</ele>
        <time>2021-09-25T12:21:05.000Z</time>
      </trkpt>
      <trkpt lat="44.26476" lon="5.5569">
        <ele>1290.8000488281</ele>
        <time>2021-09-25T12:21:06.000Z</time>
      </trkpt>
      <trkpt lat="44.26477" lon="5.5569">
        <ele>1290.8000488281</ele>
        <time>2021-09-25T12:21:09.000Z</time>
      </trkpt>
      <trkpt lat="44.2648" lon="5.55688">
        <ele>1290.5999755859</ele>
        <time>2021-09-25T12:21:12.000Z</time>
      </trkpt>
      <trkpt lat="44.26482" lon="5.55685">
        <ele>1290.5999755859</ele>
        <time>2021-09-25T12:21:17.000Z</time>
      </trkpt>
      <trkpt lat="44.26483" lon="5.55683">
        <ele>1290.5999755859</ele>
        <time>2021-09-25T12:21:19.000Z</time>
      </trkpt>
      <trkpt lat="44.26483" lon="5.55682">
        <ele>1290.5999755859</ele>
        <time>2021-09-25T12:21:20.000Z</time>
      </trkpt>
      <trkpt lat="44.26488" lon="5.55677">
        <ele>1290</ele>
        <time>2021-09-25T12:21:28.000Z</time>
      </trkpt>
      <trkpt lat="44.26491" lon="5.55675">
        <ele>1289.4000244141</ele>
        <time>2021-09-25T12:21:33.000Z</time>
      </trkpt>
      <trkpt lat="44.26492" lon="5.55674">
        <ele>1288.8000488281</ele>
        <time>2021-09-25T12:21:35.000Z</time>
      </trkpt>
      <trkpt lat="44.26494" lon="5.5567">
        <ele>1288.1999511719</ele>
        <time>2021-09-25T12:21:39.000Z</time>
      </trkpt>
      <trkpt lat="44.26495" lon="5.55669">
        <ele>1288</ele>
        <time>2021-09-25T12:21:40.000Z</time>
      </trkpt>
      <trkpt lat="44.26496" lon="5.55668">
        <ele>1288</ele>
        <time>2021-09-25T12:21:41.000Z</time>
      </trkpt>
      <trkpt lat="44.26497" lon="5.55667">
        <ele>1287.8000488281</ele>
        <time>2021-09-25T12:21:42.000Z</time>
      </trkpt>
      <trkpt lat="44.26497" lon="5.55666">
        <ele>1287.8000488281</ele>
        <time>2021-09-25T12:21:43.000Z</time>
      </trkpt>
      <trkpt lat="44.26497" lon="5.55666">
        <ele>1287.8000488281</ele>
        <time>2021-09-25T12:21:44.000Z</time>
      </trkpt>
      <trkpt lat="44.26499" lon="5.55664">
        <ele>1287.1999511719</ele>
        <time>2021-09-25T12:21:48.000Z</time>
      </trkpt>
      <trkpt lat="44.265" lon="5.55663">
        <ele>1287.1999511719</ele>
        <time>2021-09-25T12:21:49.000Z</time>
      </trkpt>
      <trkpt lat="44.265" lon="5.55663">
        <ele>1287</ele>
        <time>2021-09-25T12:21:51.000Z</time>
      </trkpt>
      <trkpt lat="44.26501" lon="5.55663">
        <ele>1287</ele>
        <time>2021-09-25T12:21:52.000Z</time>
      </trkpt>
      <trkpt lat="44.26501" lon="5.55663">
        <ele>1286.8000488281</ele>
        <time>2021-09-25T12:21:53.000Z</time>
      </trkpt>
      <trkpt lat="44.26502" lon="5.55662">
        <ele>1286.4000244141</ele>
        <time>2021-09-25T12:21:58.000Z</time>
      </trkpt>
      <trkpt lat="44.26505" lon="5.55661">
        <ele>1286.8000488281</ele>
        <time>2021-09-25T12:22:03.000Z</time>
      </trkpt>
      <trkpt lat="44.26506" lon="5.5566">
        <ele>1286.8000488281</ele>
        <time>2021-09-25T12:22:04.000Z</time>
      </trkpt>
      <trkpt lat="44.26506" lon="5.5566">
        <ele>1286.8000488281</ele>
        <time>2021-09-25T12:22:05.000Z</time>
      </trkpt>
      <trkpt lat="44.26507" lon="5.55659">
        <ele>1286.5999755859</ele>
        <time>2021-09-25T12:22:06.000Z</time>
      </trkpt>
      <trkpt lat="44.26511" lon="5.55652">
        <ele>1286</ele>
        <time>2021-09-25T12:22:12.000Z</time>
      </trkpt>
      <trkpt lat="44.26513" lon="5.5565">
        <ele>1285.8000488281</ele>
        <time>2021-09-25T12:22:13.000Z</time>
      </trkpt>
      <trkpt lat="44.26514" lon="5.55648">
        <ele>1285.5999755859</ele>
        <time>2021-09-25T12:22:15.000Z</time>
      </trkpt>
      <trkpt lat="44.26516" lon="5.55646">
        <ele>1285</ele>
        <time>2021-09-25T12:22:18.000Z</time>
      </trkpt>
      <trkpt lat="44.26517" lon="5.55645">
        <ele>1284.4000244141</ele>
        <time>2021-09-25T12:22:20.000Z</time>
      </trkpt>
      <trkpt lat="44.2652" lon="5.55642">
        <ele>1284</ele>
        <time>2021-09-25T12:22:26.000Z</time>
      </trkpt>
      <trkpt lat="44.26522" lon="5.55641">
        <ele>1283.8000488281</ele>
        <time>2021-09-25T12:22:28.000Z</time>
      </trkpt>
      <trkpt lat="44.26524" lon="5.55639">
        <ele>1283.1999511719</ele>
        <time>2021-09-25T12:22:34.000Z</time>
      </trkpt>
      <trkpt lat="44.26525" lon="5.55638">
        <ele>1283.1999511719</ele>
        <time>2021-09-25T12:22:35.000Z</time>
      </trkpt>
      <trkpt lat="44.26525" lon="5.55638">
        <ele>1283</ele>
        <time>2021-09-25T12:22:36.000Z</time>
      </trkpt>
      <trkpt lat="44.26526" lon="5.55637">
        <ele>1283</ele>
        <time>2021-09-25T12:22:37.000Z</time>
      </trkpt>
      <trkpt lat="44.26528" lon="5.55635">
        <ele>1282.5999755859</ele>
        <time>2021-09-25T12:22:39.000Z</time>
      </trkpt>
      <trkpt lat="44.2653" lon="5.55634">
        <ele>1282</ele>
        <time>2021-09-25T12:22:43.000Z</time>
      </trkpt>
      <trkpt lat="44.2653" lon="5.55633">
        <ele>1281.8000488281</ele>
        <time>2021-09-25T12:22:44.000Z</time>
      </trkpt>
      <trkpt lat="44.26534" lon="5.5563">
        <ele>1281</ele>
        <time>2021-09-25T12:22:52.000Z</time>
      </trkpt>
      <trkpt lat="44.26536" lon="5.55629">
        <ele>1281.5999755859</ele>
        <time>2021-09-25T12:22:56.000Z</time>
      </trkpt>
      <trkpt lat="44.26537" lon="5.55629">
        <ele>1281.8000488281</ele>
        <time>2021-09-25T12:22:57.000Z</time>
      </trkpt>
      <trkpt lat="44.26539" lon="5.55628">
        <ele>1281.5999755859</ele>
        <time>2021-09-25T12:23:00.000Z</time>
      </trkpt>
      <trkpt lat="44.26545" lon="5.55626">
        <ele>1281.1999511719</ele>
        <time>2021-09-25T12:23:07.000Z</time>
      </trkpt>
      <trkpt lat="44.26547" lon="5.55624">
        <ele>1280.8000488281</ele>
        <time>2021-09-25T12:23:10.000Z</time>
      </trkpt>
      <trkpt lat="44.26549" lon="5.55624">
        <ele>1280.4000244141</ele>
        <time>2021-09-25T12:23:14.000Z</time>
      </trkpt>
      <trkpt lat="44.26554" lon="5.55626">
        <ele>1279.8000488281</ele>
        <time>2021-09-25T12:23:22.000Z</time>
      </trkpt>
      <trkpt lat="44.26559" lon="5.55628">
        <ele>1279.8000488281</ele>
        <time>2021-09-25T12:23:28.000Z</time>
      </trkpt>
      <trkpt lat="44.2656" lon="5.55628">
        <ele>1279.4000244141</ele>
        <time>2021-09-25T12:23:30.000Z</time>
      </trkpt>
      <trkpt lat="44.26564" lon="5.55629">
        <ele>1278.8000488281</ele>
        <time>2021-09-25T12:23:32.000Z</time>
      </trkpt>
      <trkpt lat="44.26569" lon="5.55632">
        <ele>1278</ele>
        <time>2021-09-25T12:23:37.000Z</time>
      </trkpt>
      <trkpt lat="44.26571" lon="5.55633">
        <ele>1277.8000488281</ele>
        <time>2021-09-25T12:23:40.000Z</time>
      </trkpt>
      <trkpt lat="44.26572" lon="5.55633">
        <ele>1277.5999755859</ele>
        <time>2021-09-25T12:23:41.000Z</time>
      </trkpt>
      <trkpt lat="44.2657" lon="5.55635">
        <ele>1277</ele>
        <time>2021-09-25T12:23:45.000Z</time>
      </trkpt>
      <trkpt lat="44.26572" lon="5.55636">
        <ele>1276.5999755859</ele>
        <time>2021-09-25T12:23:49.000Z</time>
      </trkpt>
      <trkpt lat="44.26574" lon="5.55636">
        <ele>1276.5999755859</ele>
        <time>2021-09-25T12:23:51.000Z</time>
      </trkpt>
      <trkpt lat="44.26575" lon="5.55635">
        <ele>1276.1999511719</ele>
        <time>2021-09-25T12:23:53.000Z</time>
      </trkpt>
      <trkpt lat="44.26574" lon="5.55635">
        <ele>1276</ele>
        <time>2021-09-25T12:23:54.000Z</time>
      </trkpt>
      <trkpt lat="44.26576" lon="5.55634">
        <ele>1275.5999755859</ele>
        <time>2021-09-25T12:23:57.000Z</time>
      </trkpt>
      <trkpt lat="44.26577" lon="5.55633">
        <ele>1275.5999755859</ele>
        <time>2021-09-25T12:23:58.000Z</time>
      </trkpt>
      <trkpt lat="44.26583" lon="5.55631">
        <ele>1275.4000244141</ele>
        <time>2021-09-25T12:24:02.000Z</time>
      </trkpt>
      <trkpt lat="44.26586" lon="5.5563">
        <ele>1275.1999511719</ele>
        <time>2021-09-25T12:24:04.000Z</time>
      </trkpt>
      <trkpt lat="44.26589" lon="5.55629">
        <ele>1275</ele>
        <time>2021-09-25T12:24:07.000Z</time>
      </trkpt>
      <trkpt lat="44.2659" lon="5.55628">
        <ele>1274.5999755859</ele>
        <time>2021-09-25T12:24:09.000Z</time>
      </trkpt>
      <trkpt lat="44.2659" lon="5.55627">
        <ele>1274.4000244141</ele>
        <time>2021-09-25T12:24:10.000Z</time>
      </trkpt>
      <trkpt lat="44.26592" lon="5.55625">
        <ele>1274.1999511719</ele>
        <time>2021-09-25T12:24:12.000Z</time>
      </trkpt>
      <trkpt lat="44.26592" lon="5.55625">
        <ele>1274</ele>
        <time>2021-09-25T12:24:13.000Z</time>
      </trkpt>
      <trkpt lat="44.26595" lon="5.55623">
        <ele>1273.4000244141</ele>
        <time>2021-09-25T12:24:17.000Z</time>
      </trkpt>
      <trkpt lat="44.26597" lon="5.55622">
        <ele>1272.8000488281</ele>
        <time>2021-09-25T12:24:20.000Z</time>
      </trkpt>
      <trkpt lat="44.266" lon="5.55622">
        <ele>1272.4000244141</ele>
        <time>2021-09-25T12:24:25.000Z</time>
      </trkpt>
      <trkpt lat="44.26601" lon="5.55622">
        <ele>1272.1999511719</ele>
        <time>2021-09-25T12:24:27.000Z</time>
      </trkpt>
      <trkpt lat="44.26605" lon="5.55621">
        <ele>1271.8000488281</ele>
        <time>2021-09-25T12:24:32.000Z</time>
      </trkpt>
      <trkpt lat="44.26609" lon="5.5562">
        <ele>1271.1999511719</ele>
        <time>2021-09-25T12:24:38.000Z</time>
      </trkpt>
      <trkpt lat="44.26609" lon="5.55621">
        <ele>1271</ele>
        <time>2021-09-25T12:24:39.000Z</time>
      </trkpt>
      <trkpt lat="44.26613" lon="5.55619">
        <ele>1270.5999755859</ele>
        <time>2021-09-25T12:24:45.000Z</time>
      </trkpt>
      <trkpt lat="44.26619" lon="5.55617">
        <ele>1270.4000244141</ele>
        <time>2021-09-25T12:24:49.000Z</time>
      </trkpt>
      <trkpt lat="44.26621" lon="5.55615">
        <ele>1270.1999511719</ele>
        <time>2021-09-25T12:24:52.000Z</time>
      </trkpt>
      <trkpt lat="44.26621" lon="5.55614">
        <ele>1270</ele>
        <time>2021-09-25T12:24:54.000Z</time>
      </trkpt>
      <trkpt lat="44.26622" lon="5.55612">
        <ele>1270.4000244141</ele>
        <time>2021-09-25T12:24:56.000Z</time>
      </trkpt>
      <trkpt lat="44.26623" lon="5.55611">
        <ele>1270.8000488281</ele>
        <time>2021-09-25T12:24:57.000Z</time>
      </trkpt>
      <trkpt lat="44.26624" lon="5.5561">
        <ele>1271.1999511719</ele>
        <time>2021-09-25T12:25:00.000Z</time>
      </trkpt>
      <trkpt lat="44.26628" lon="5.55611">
        <ele>1271.1999511719</ele>
        <time>2021-09-25T12:25:02.000Z</time>
      </trkpt>
      <trkpt lat="44.26634" lon="5.55611">
        <ele>1270.8000488281</ele>
        <time>2021-09-25T12:25:09.000Z</time>
      </trkpt>
      <trkpt lat="44.26633" lon="5.55613">
        <ele>1271</ele>
        <time>2021-09-25T12:25:14.000Z</time>
      </trkpt>
      <trkpt lat="44.26633" lon="5.55613">
        <ele>1271.1999511719</ele>
        <time>2021-09-25T12:25:18.000Z</time>
      </trkpt>
      <trkpt lat="44.26632" lon="5.55611">
        <ele>1271.1999511719</ele>
        <time>2021-09-25T12:25:21.000Z</time>
      </trkpt>
      <trkpt lat="44.26633" lon="5.5561">
        <ele>1270.8000488281</ele>
        <time>2021-09-25T12:25:26.000Z</time>
      </trkpt>
      <trkpt lat="44.26634" lon="5.5561">
        <ele>1270.1999511719</ele>
        <time>2021-09-25T12:25:28.000Z</time>
      </trkpt>
      <trkpt lat="44.26638" lon="5.55611">
        <ele>1269.4000244141</ele>
        <time>2021-09-25T12:25:33.000Z</time>
      </trkpt>
      <trkpt lat="44.2664" lon="5.5561">
        <ele>1269.1999511719</ele>
        <time>2021-09-25T12:25:37.000Z</time>
      </trkpt>
      <trkpt lat="44.26641" lon="5.5561">
        <ele>1268.8000488281</ele>
        <time>2021-09-25T12:25:42.000Z</time>
      </trkpt>
      <trkpt lat="44.26642" lon="5.55611">
        <ele>1268.5999755859</ele>
        <time>2021-09-25T12:25:47.000Z</time>
      </trkpt>
      <trkpt lat="44.26642" lon="5.55611">
        <ele>1268.1999511719</ele>
        <time>2021-09-25T12:25:50.000Z</time>
      </trkpt>
      <trkpt lat="44.26643" lon="5.55611">
        <ele>1268</ele>
        <time>2021-09-25T12:25:51.000Z</time>
      </trkpt>
      <trkpt lat="44.26643" lon="5.5561">
        <ele>1267.8000488281</ele>
        <time>2021-09-25T12:25:53.000Z</time>
      </trkpt>
      <trkpt lat="44.26643" lon="5.55609">
        <ele>1267.5999755859</ele>
        <time>2021-09-25T12:25:57.000Z</time>
      </trkpt>
      <trkpt lat="44.26644" lon="5.55608">
        <ele>1267.4000244141</ele>
        <time>2021-09-25T12:25:59.000Z</time>
      </trkpt>
      <trkpt lat="44.26644" lon="5.55607">
        <ele>1267.1999511719</ele>
        <time>2021-09-25T12:26:02.000Z</time>
      </trkpt>
      <trkpt lat="44.26645" lon="5.55606">
        <ele>1267.1999511719</ele>
        <time>2021-09-25T12:26:04.000Z</time>
      </trkpt>
      <trkpt lat="44.26646" lon="5.55605">
        <ele>1266.5999755859</ele>
        <time>2021-09-25T12:26:06.000Z</time>
      </trkpt>
      <trkpt lat="44.2665" lon="5.55604">
        <ele>1266.4000244141</ele>
        <time>2021-09-25T12:26:10.000Z</time>
      </trkpt>
      <trkpt lat="44.26651" lon="5.55603">
        <ele>1266.1999511719</ele>
        <time>2021-09-25T12:26:12.000Z</time>
      </trkpt>
      <trkpt lat="44.26652" lon="5.55602">
        <ele>1266.1999511719</ele>
        <time>2021-09-25T12:26:14.000Z</time>
      </trkpt>
      <trkpt lat="44.26654" lon="5.556">
        <ele>1265.5999755859</ele>
        <time>2021-09-25T12:26:17.000Z</time>
      </trkpt>
      <trkpt lat="44.26658" lon="5.55598">
        <ele>1265.1999511719</ele>
        <time>2021-09-25T12:26:23.000Z</time>
      </trkpt>
      <trkpt lat="44.26662" lon="5.55596">
        <ele>1264.5999755859</ele>
        <time>2021-09-25T12:26:28.000Z</time>
      </trkpt>
      <trkpt lat="44.26665" lon="5.55596">
        <ele>1264</ele>
        <time>2021-09-25T12:26:32.000Z</time>
      </trkpt>
      <trkpt lat="44.26668" lon="5.55596">
        <ele>1263.5999755859</ele>
        <time>2021-09-25T12:26:35.000Z</time>
      </trkpt>
      <trkpt lat="44.26673" lon="5.55597">
        <ele>1263</ele>
        <time>2021-09-25T12:26:39.000Z</time>
      </trkpt>
      <trkpt lat="44.26674" lon="5.55597">
        <ele>1262.5999755859</ele>
        <time>2021-09-25T12:26:41.000Z</time>
      </trkpt>
      <trkpt lat="44.26674" lon="5.55598">
        <ele>1262.4000244141</ele>
        <time>2021-09-25T12:26:42.000Z</time>
      </trkpt>
      <trkpt lat="44.2668" lon="5.556">
        <ele>1262.1999511719</ele>
        <time>2021-09-25T12:26:46.000Z</time>
      </trkpt>
      <trkpt lat="44.26681" lon="5.556">
        <ele>1262</ele>
        <time>2021-09-25T12:26:47.000Z</time>
      </trkpt>
      <trkpt lat="44.26686" lon="5.55601">
        <ele>1262</ele>
        <time>2021-09-25T12:26:51.000Z</time>
      </trkpt>
      <trkpt lat="44.26687" lon="5.55603">
        <ele>1261.8000488281</ele>
        <time>2021-09-25T12:26:54.000Z</time>
      </trkpt>
      <trkpt lat="44.26689" lon="5.55604">
        <ele>1261.4000244141</ele>
        <time>2021-09-25T12:26:56.000Z</time>
      </trkpt>
      <trkpt lat="44.26691" lon="5.55603">
        <ele>1261</ele>
        <time>2021-09-25T12:26:58.000Z</time>
      </trkpt>
      <trkpt lat="44.26692" lon="5.55603">
        <ele>1260.8000488281</ele>
        <time>2021-09-25T12:27:00.000Z</time>
      </trkpt>
      <trkpt lat="44.26693" lon="5.55604">
        <ele>1260.8000488281</ele>
        <time>2021-09-25T12:27:01.000Z</time>
      </trkpt>
      <trkpt lat="44.26695" lon="5.55605">
        <ele>1260.5999755859</ele>
        <time>2021-09-25T12:27:04.000Z</time>
      </trkpt>
      <trkpt lat="44.26696" lon="5.55606">
        <ele>1260.4000244141</ele>
        <time>2021-09-25T12:27:06.000Z</time>
      </trkpt>
      <trkpt lat="44.26697" lon="5.55607">
        <ele>1260.4000244141</ele>
        <time>2021-09-25T12:27:07.000Z</time>
      </trkpt>
      <trkpt lat="44.26698" lon="5.55607">
        <ele>1260.4000244141</ele>
        <time>2021-09-25T12:27:08.000Z</time>
      </trkpt>
      <trkpt lat="44.267" lon="5.55606">
        <ele>1260</ele>
        <time>2021-09-25T12:27:10.000Z</time>
      </trkpt>
      <trkpt lat="44.26702" lon="5.55608">
        <ele>1259.4000244141</ele>
        <time>2021-09-25T12:27:12.000Z</time>
      </trkpt>
      <trkpt lat="44.26703" lon="5.55608">
        <ele>1259.4000244141</ele>
        <time>2021-09-25T12:27:13.000Z</time>
      </trkpt>
      <trkpt lat="44.26703" lon="5.55609">
        <ele>1259.4000244141</ele>
        <time>2021-09-25T12:27:14.000Z</time>
      </trkpt>
      <trkpt lat="44.26705" lon="5.5561">
        <ele>1259.4000244141</ele>
        <time>2021-09-25T12:27:16.000Z</time>
      </trkpt>
      <trkpt lat="44.26705" lon="5.55611">
        <ele>1259.1999511719</ele>
        <time>2021-09-25T12:27:17.000Z</time>
      </trkpt>
      <trkpt lat="44.26704" lon="5.55612">
        <ele>1259.1999511719</ele>
        <time>2021-09-25T12:27:20.000Z</time>
      </trkpt>
      <trkpt lat="44.26704" lon="5.55613">
        <ele>1259.1999511719</ele>
        <time>2021-09-25T12:27:23.000Z</time>
      </trkpt>
      <trkpt lat="44.26703" lon="5.55617">
        <ele>1259.1999511719</ele>
        <time>2021-09-25T12:27:29.000Z</time>
      </trkpt>
      <trkpt lat="44.26705" lon="5.55618">
        <ele>1259</ele>
        <time>2021-09-25T12:27:35.000Z</time>
      </trkpt>
      <trkpt lat="44.26706" lon="5.5562">
        <ele>1258.8000488281</ele>
        <time>2021-09-25T12:27:41.000Z</time>
      </trkpt>
      <trkpt lat="44.26707" lon="5.5562">
        <ele>1258.8000488281</ele>
        <time>2021-09-25T12:27:43.000Z</time>
      </trkpt>
      <trkpt lat="44.26708" lon="5.5562">
        <ele>1258.4000244141</ele>
        <time>2021-09-25T12:27:44.000Z</time>
      </trkpt>
      <trkpt lat="44.26708" lon="5.5562">
        <ele>1258.1999511719</ele>
        <time>2021-09-25T12:27:45.000Z</time>
      </trkpt>
      <trkpt lat="44.26707" lon="5.55622">
        <ele>1258.1999511719</ele>
        <time>2021-09-25T12:27:46.000Z</time>
      </trkpt>
      <trkpt lat="44.26711" lon="5.55622">
        <ele>1258.4000244141</ele>
        <time>2021-09-25T12:27:50.000Z</time>
      </trkpt>
      <trkpt lat="44.26712" lon="5.55622">
        <ele>1258.4000244141</ele>
        <time>2021-09-25T12:27:51.000Z</time>
      </trkpt>
      <trkpt lat="44.26714" lon="5.55623">
        <ele>1257.8000488281</ele>
        <time>2021-09-25T12:27:55.000Z</time>
      </trkpt>
      <trkpt lat="44.26716" lon="5.55624">
        <ele>1257.5999755859</ele>
        <time>2021-09-25T12:27:57.000Z</time>
      </trkpt>
      <trkpt lat="44.26716" lon="5.55624">
        <ele>1257.5999755859</ele>
        <time>2021-09-25T12:27:58.000Z</time>
      </trkpt>
      <trkpt lat="44.26719" lon="5.55625">
        <ele>1257.1999511719</ele>
        <time>2021-09-25T12:28:04.000Z</time>
      </trkpt>
      <trkpt lat="44.26727" lon="5.55629">
        <ele>1256.8000488281</ele>
        <time>2021-09-25T12:28:10.000Z</time>
      </trkpt>
      <trkpt lat="44.26728" lon="5.55629">
        <ele>1256.5999755859</ele>
        <time>2021-09-25T12:28:11.000Z</time>
      </trkpt>
      <trkpt lat="44.26729" lon="5.55629">
        <ele>1256.5999755859</ele>
        <time>2021-09-25T12:28:12.000Z</time>
      </trkpt>
      <trkpt lat="44.26734" lon="5.55631">
        <ele>1256.4000244141</ele>
        <time>2021-09-25T12:28:14.000Z</time>
      </trkpt>
      <trkpt lat="44.26734" lon="5.55631">
        <ele>1256.1999511719</ele>
        <time>2021-09-25T12:28:15.000Z</time>
      </trkpt>
      <trkpt lat="44.26736" lon="5.55632">
        <ele>1255.8000488281</ele>
        <time>2021-09-25T12:28:17.000Z</time>
      </trkpt>
      <trkpt lat="44.26738" lon="5.55633">
        <ele>1255.5999755859</ele>
        <time>2021-09-25T12:28:19.000Z</time>
      </trkpt>
      <trkpt lat="44.26739" lon="5.55636">
        <ele>1255.5999755859</ele>
        <time>2021-09-25T12:28:22.000Z</time>
      </trkpt>
      <trkpt lat="44.26741" lon="5.55637">
        <ele>1255.8000488281</ele>
        <time>2021-09-25T12:28:24.000Z</time>
      </trkpt>
      <trkpt lat="44.26742" lon="5.55638">
        <ele>1256</ele>
        <time>2021-09-25T12:28:26.000Z</time>
      </trkpt>
      <trkpt lat="44.26742" lon="5.5564">
        <ele>1256</ele>
        <time>2021-09-25T12:28:28.000Z</time>
      </trkpt>
      <trkpt lat="44.26745" lon="5.55643">
        <ele>1256</ele>
        <time>2021-09-25T12:28:31.000Z</time>
      </trkpt>
      <trkpt lat="44.26746" lon="5.55644">
        <ele>1255.8000488281</ele>
        <time>2021-09-25T12:28:32.000Z</time>
      </trkpt>
      <trkpt lat="44.26747" lon="5.55646">
        <ele>1255.1999511719</ele>
        <time>2021-09-25T12:28:35.000Z</time>
      </trkpt>
      <trkpt lat="44.26746" lon="5.55647">
        <ele>1254.8000488281</ele>
        <time>2021-09-25T12:28:36.000Z</time>
      </trkpt>
      <trkpt lat="44.26746" lon="5.55649">
        <ele>1254.5999755859</ele>
        <time>2021-09-25T12:28:37.000Z</time>
      </trkpt>
      <trkpt lat="44.26747" lon="5.55651">
        <ele>1254.4000244141</ele>
        <time>2021-09-25T12:28:39.000Z</time>
      </trkpt>
      <trkpt lat="44.26748" lon="5.55652">
        <ele>1254.1999511719</ele>
        <time>2021-09-25T12:28:40.000Z</time>
      </trkpt>
      <trkpt lat="44.2675" lon="5.55654">
        <ele>1253.4000244141</ele>
        <time>2021-09-25T12:28:43.000Z</time>
      </trkpt>
      <trkpt lat="44.2675" lon="5.55657">
        <ele>1252.5999755859</ele>
        <time>2021-09-25T12:28:46.000Z</time>
      </trkpt>
      <trkpt lat="44.2675" lon="5.55658">
        <ele>1252.5999755859</ele>
        <time>2021-09-25T12:28:47.000Z</time>
      </trkpt>
      <trkpt lat="44.26751" lon="5.55658">
        <ele>1252.4000244141</ele>
        <time>2021-09-25T12:28:48.000Z</time>
      </trkpt>
      <trkpt lat="44.26751" lon="5.55659">
        <ele>1252.1999511719</ele>
        <time>2021-09-25T12:28:49.000Z</time>
      </trkpt>
      <trkpt lat="44.2675" lon="5.5566">
        <ele>1252.5999755859</ele>
        <time>2021-09-25T12:28:53.000Z</time>
      </trkpt>
      <trkpt lat="44.2675" lon="5.55667">
        <ele>1252.1999511719</ele>
        <time>2021-09-25T12:28:59.000Z</time>
      </trkpt>
      <trkpt lat="44.26748" lon="5.5567">
        <ele>1252</ele>
        <time>2021-09-25T12:29:00.000Z</time>
      </trkpt>
      <trkpt lat="44.2675" lon="5.55671">
        <ele>1251.4000244141</ele>
        <time>2021-09-25T12:29:02.000Z</time>
      </trkpt>
      <trkpt lat="44.26751" lon="5.55672">
        <ele>1251.1999511719</ele>
        <time>2021-09-25T12:29:03.000Z</time>
      </trkpt>
      <trkpt lat="44.26751" lon="5.55673">
        <ele>1251.1999511719</ele>
        <time>2021-09-25T12:29:04.000Z</time>
      </trkpt>
      <trkpt lat="44.26752" lon="5.55675">
        <ele>1251</ele>
        <time>2021-09-25T12:29:06.000Z</time>
      </trkpt>
      <trkpt lat="44.26755" lon="5.55678">
        <ele>1251</ele>
        <time>2021-09-25T12:29:10.000Z</time>
      </trkpt>
      <trkpt lat="44.26754" lon="5.55681">
        <ele>1250.8000488281</ele>
        <time>2021-09-25T12:29:12.000Z</time>
      </trkpt>
      <trkpt lat="44.26758" lon="5.55687">
        <ele>1250.1999511719</ele>
        <time>2021-09-25T12:29:18.000Z</time>
      </trkpt>
      <trkpt lat="44.26759" lon="5.55688">
        <ele>1250.1999511719</ele>
        <time>2021-09-25T12:29:19.000Z</time>
      </trkpt>
      <trkpt lat="44.26763" lon="5.5569">
        <ele>1250</ele>
        <time>2021-09-25T12:29:22.000Z</time>
      </trkpt>
      <trkpt lat="44.26764" lon="5.55692">
        <ele>1249.8000488281</ele>
        <time>2021-09-25T12:29:24.000Z</time>
      </trkpt>
      <trkpt lat="44.26765" lon="5.55693">
        <ele>1249.8000488281</ele>
        <time>2021-09-25T12:29:26.000Z</time>
      </trkpt>
      <trkpt lat="44.26767" lon="5.55697">
        <ele>1249.1999511719</ele>
        <time>2021-09-25T12:29:29.000Z</time>
      </trkpt>
      <trkpt lat="44.26767" lon="5.55698">
        <ele>1249</ele>
        <time>2021-09-25T12:29:30.000Z</time>
      </trkpt>
      <trkpt lat="44.26768" lon="5.55698">
        <ele>1249</ele>
        <time>2021-09-25T12:29:31.000Z</time>
      </trkpt>
      <trkpt lat="44.26772" lon="5.55701">
        <ele>1248.8000488281</ele>
        <time>2021-09-25T12:29:35.000Z</time>
      </trkpt>
      <trkpt lat="44.26773" lon="5.55703">
        <ele>1248.8000488281</ele>
        <time>2021-09-25T12:29:37.000Z</time>
      </trkpt>
      <trkpt lat="44.26774" lon="5.55704">
        <ele>1248.8000488281</ele>
        <time>2021-09-25T12:29:39.000Z</time>
      </trkpt>
      <trkpt lat="44.26774" lon="5.55705">
        <ele>1248.5999755859</ele>
        <time>2021-09-25T12:29:41.000Z</time>
      </trkpt>
      <trkpt lat="44.26775" lon="5.55705">
        <ele>1248.5999755859</ele>
        <time>2021-09-25T12:29:44.000Z</time>
      </trkpt>
      <trkpt lat="44.26779" lon="5.55703">
        <ele>1248.1999511719</ele>
        <time>2021-09-25T12:29:48.000Z</time>
      </trkpt>
      <trkpt lat="44.26781" lon="5.55701">
        <ele>1248.1999511719</ele>
        <time>2021-09-25T12:29:50.000Z</time>
      </trkpt>
      <trkpt lat="44.26785" lon="5.55698">
        <ele>1248</ele>
        <time>2021-09-25T12:29:54.000Z</time>
      </trkpt>
      <trkpt lat="44.26786" lon="5.55697">
        <ele>1248</ele>
        <time>2021-09-25T12:29:56.000Z</time>
      </trkpt>
      <trkpt lat="44.26787" lon="5.55697">
        <ele>1248</ele>
        <time>2021-09-25T12:29:57.000Z</time>
      </trkpt>
      <trkpt lat="44.26789" lon="5.55694">
        <ele>1248</ele>
        <time>2021-09-25T12:29:59.000Z</time>
      </trkpt>
      <trkpt lat="44.26794" lon="5.55688">
        <ele>1247.4000244141</ele>
        <time>2021-09-25T12:30:04.000Z</time>
      </trkpt>
      <trkpt lat="44.26795" lon="5.55686">
        <ele>1247.1999511719</ele>
        <time>2021-09-25T12:30:05.000Z</time>
      </trkpt>
      <trkpt lat="44.26796" lon="5.55685">
        <ele>1247</ele>
        <time>2021-09-25T12:30:06.000Z</time>
      </trkpt>
      <trkpt lat="44.26795" lon="5.55684">
        <ele>1247</ele>
        <time>2021-09-25T12:30:07.000Z</time>
      </trkpt>
      <trkpt lat="44.26795" lon="5.55679">
        <ele>1246.1999511719</ele>
        <time>2021-09-25T12:30:10.000Z</time>
      </trkpt>
      <trkpt lat="44.26795" lon="5.55675">
        <ele>1246.4000244141</ele>
        <time>2021-09-25T12:30:13.000Z</time>
      </trkpt>
      <trkpt lat="44.26795" lon="5.55673">
        <ele>1246.4000244141</ele>
        <time>2021-09-25T12:30:14.000Z</time>
      </trkpt>
      <trkpt lat="44.26795" lon="5.5567">
        <ele>1246.1999511719</ele>
        <time>2021-09-25T12:30:16.000Z</time>
      </trkpt>
      <trkpt lat="44.26796" lon="5.55667">
        <ele>1246</ele>
        <time>2021-09-25T12:30:19.000Z</time>
      </trkpt>
      <trkpt lat="44.26796" lon="5.55666">
        <ele>1246</ele>
        <time>2021-09-25T12:30:20.000Z</time>
      </trkpt>
      <trkpt lat="44.26796" lon="5.55664">
        <ele>1245.8000488281</ele>
        <time>2021-09-25T12:30:21.000Z</time>
      </trkpt>
      <trkpt lat="44.26796" lon="5.55662">
        <ele>1245.8000488281</ele>
        <time>2021-09-25T12:30:23.000Z</time>
      </trkpt>
      <trkpt lat="44.26796" lon="5.5566">
        <ele>1245.5999755859</ele>
        <time>2021-09-25T12:30:25.000Z</time>
      </trkpt>
      <trkpt lat="44.26795" lon="5.55658">
        <ele>1245.5999755859</ele>
        <time>2021-09-25T12:30:26.000Z</time>
      </trkpt>
      <trkpt lat="44.26793" lon="5.55658">
        <ele>1245.4000244141</ele>
        <time>2021-09-25T12:30:27.000Z</time>
      </trkpt>
      <trkpt lat="44.26792" lon="5.55657">
        <ele>1245.4000244141</ele>
        <time>2021-09-25T12:30:28.000Z</time>
      </trkpt>
      <trkpt lat="44.26792" lon="5.55656">
        <ele>1245.4000244141</ele>
        <time>2021-09-25T12:30:30.000Z</time>
      </trkpt>
      <trkpt lat="44.26794" lon="5.55655">
        <ele>1245.4000244141</ele>
        <time>2021-09-25T12:30:32.000Z</time>
      </trkpt>
      <trkpt lat="44.26796" lon="5.55653">
        <ele>1245</ele>
        <time>2021-09-25T12:30:35.000Z</time>
      </trkpt>
      <trkpt lat="44.26797" lon="5.55652">
        <ele>1244.8000488281</ele>
        <time>2021-09-25T12:30:36.000Z</time>
      </trkpt>
      <trkpt lat="44.26798" lon="5.55651">
        <ele>1244.5999755859</ele>
        <time>2021-09-25T12:30:37.000Z</time>
      </trkpt>
      <trkpt lat="44.26798" lon="5.5565">
        <ele>1244.5999755859</ele>
        <time>2021-09-25T12:30:38.000Z</time>
      </trkpt>
      <trkpt lat="44.26798" lon="5.55645">
        <ele>1244.1999511719</ele>
        <time>2021-09-25T12:30:42.000Z</time>
      </trkpt>
      <trkpt lat="44.26799" lon="5.55644">
        <ele>1244.1999511719</ele>
        <time>2021-09-25T12:30:43.000Z</time>
      </trkpt>
      <trkpt lat="44.26799" lon="5.55643">
        <ele>1244</ele>
        <time>2021-09-25T12:30:44.000Z</time>
      </trkpt>
      <trkpt lat="44.26798" lon="5.55642">
        <ele>1244</ele>
        <time>2021-09-25T12:30:46.000Z</time>
      </trkpt>
      <trkpt lat="44.26799" lon="5.55637">
        <ele>1244</ele>
        <time>2021-09-25T12:30:50.000Z</time>
      </trkpt>
      <trkpt lat="44.26799" lon="5.55634">
        <ele>1244</ele>
        <time>2021-09-25T12:30:51.000Z</time>
      </trkpt>
      <trkpt lat="44.26801" lon="5.55629">
        <ele>1243.8000488281</ele>
        <time>2021-09-25T12:30:56.000Z</time>
      </trkpt>
      <trkpt lat="44.26802" lon="5.55628">
        <ele>1243.5999755859</ele>
        <time>2021-09-25T12:30:57.000Z</time>
      </trkpt>
      <trkpt lat="44.26803" lon="5.55627">
        <ele>1243.5999755859</ele>
        <time>2021-09-25T12:30:58.000Z</time>
      </trkpt>
      <trkpt lat="44.26806" lon="5.55618">
        <ele>1243</ele>
        <time>2021-09-25T12:31:04.000Z</time>
      </trkpt>
      <trkpt lat="44.26806" lon="5.55617">
        <ele>1243</ele>
        <time>2021-09-25T12:31:05.000Z</time>
      </trkpt>
      <trkpt lat="44.26807" lon="5.55612">
        <ele>1242.8000488281</ele>
        <time>2021-09-25T12:31:08.000Z</time>
      </trkpt>
      <trkpt lat="44.26808" lon="5.55604">
        <ele>1242.4000244141</ele>
        <time>2021-09-25T12:31:13.000Z</time>
      </trkpt>
      <trkpt lat="44.26809" lon="5.55602">
        <ele>1242.4000244141</ele>
        <time>2021-09-25T12:31:15.000Z</time>
      </trkpt>
      <trkpt lat="44.26808" lon="5.556">
        <ele>1242.1999511719</ele>
        <time>2021-09-25T12:31:17.000Z</time>
      </trkpt>
      <trkpt lat="44.26809" lon="5.55598">
        <ele>1242</ele>
        <time>2021-09-25T12:31:20.000Z</time>
      </trkpt>
      <trkpt lat="44.2681" lon="5.55597">
        <ele>1241.8000488281</ele>
        <time>2021-09-25T12:31:22.000Z</time>
      </trkpt>
      <trkpt lat="44.2681" lon="5.55591">
        <ele>1241.5999755859</ele>
        <time>2021-09-25T12:31:27.000Z</time>
      </trkpt>
      <trkpt lat="44.26809" lon="5.5559">
        <ele>1241.5999755859</ele>
        <time>2021-09-25T12:31:29.000Z</time>
      </trkpt>
      <trkpt lat="44.26809" lon="5.55587">
        <ele>1241.5999755859</ele>
        <time>2021-09-25T12:31:31.000Z</time>
      </trkpt>
      <trkpt lat="44.2681" lon="5.55585">
        <ele>1241.4000244141</ele>
        <time>2021-09-25T12:31:33.000Z</time>
      </trkpt>
      <trkpt lat="44.2681" lon="5.55583">
        <ele>1241.4000244141</ele>
        <time>2021-09-25T12:31:34.000Z</time>
      </trkpt>
      <trkpt lat="44.26813" lon="5.55576">
        <ele>1241</ele>
        <time>2021-09-25T12:31:39.000Z</time>
      </trkpt>
      <trkpt lat="44.26814" lon="5.55575">
        <ele>1240.8000488281</ele>
        <time>2021-09-25T12:31:41.000Z</time>
      </trkpt>
      <trkpt lat="44.26814" lon="5.55574">
        <ele>1240.5999755859</ele>
        <time>2021-09-25T12:31:42.000Z</time>
      </trkpt>
      <trkpt lat="44.26814" lon="5.55573">
        <ele>1240.4000244141</ele>
        <time>2021-09-25T12:31:44.000Z</time>
      </trkpt>
      <trkpt lat="44.26814" lon="5.55572">
        <ele>1240.1999511719</ele>
        <time>2021-09-25T12:31:45.000Z</time>
      </trkpt>
      <trkpt lat="44.26814" lon="5.5557">
        <ele>1239.8000488281</ele>
        <time>2021-09-25T12:31:47.000Z</time>
      </trkpt>
      <trkpt lat="44.26815" lon="5.55569">
        <ele>1239.8000488281</ele>
        <time>2021-09-25T12:31:48.000Z</time>
      </trkpt>
      <trkpt lat="44.26816" lon="5.55567">
        <ele>1239.5999755859</ele>
        <time>2021-09-25T12:31:49.000Z</time>
      </trkpt>
      <trkpt lat="44.26818" lon="5.55562">
        <ele>1239.5999755859</ele>
        <time>2021-09-25T12:31:53.000Z</time>
      </trkpt>
      <trkpt lat="44.26818" lon="5.55561">
        <ele>1239.8000488281</ele>
        <time>2021-09-25T12:31:54.000Z</time>
      </trkpt>
      <trkpt lat="44.26818" lon="5.5556">
        <ele>1239.8000488281</ele>
        <time>2021-09-25T12:31:55.000Z</time>
      </trkpt>
      <trkpt lat="44.26818" lon="5.55558">
        <ele>1239.4000244141</ele>
        <time>2021-09-25T12:31:57.000Z</time>
      </trkpt>
      <trkpt lat="44.26819" lon="5.55555">
        <ele>1239.1999511719</ele>
        <time>2021-09-25T12:31:59.000Z</time>
      </trkpt>
      <trkpt lat="44.26819" lon="5.55554">
        <ele>1239</ele>
        <time>2021-09-25T12:32:00.000Z</time>
      </trkpt>
      <trkpt lat="44.2682" lon="5.55553">
        <ele>1239</ele>
        <time>2021-09-25T12:32:02.000Z</time>
      </trkpt>
      <trkpt lat="44.26822" lon="5.55548">
        <ele>1238.8000488281</ele>
        <time>2021-09-25T12:32:05.000Z</time>
      </trkpt>
      <trkpt lat="44.26822" lon="5.55545">
        <ele>1238.5999755859</ele>
        <time>2021-09-25T12:32:07.000Z</time>
      </trkpt>
      <trkpt lat="44.26822" lon="5.55544">
        <ele>1238.5999755859</ele>
        <time>2021-09-25T12:32:08.000Z</time>
      </trkpt>
      <trkpt lat="44.26822" lon="5.55538">
        <ele>1237.5999755859</ele>
        <time>2021-09-25T12:32:13.000Z</time>
      </trkpt>
      <trkpt lat="44.26822" lon="5.55537">
        <ele>1237.5999755859</ele>
        <time>2021-09-25T12:32:14.000Z</time>
      </trkpt>
      <trkpt lat="44.26823" lon="5.55533">
        <ele>1237.1999511719</ele>
        <time>2021-09-25T12:32:18.000Z</time>
      </trkpt>
      <trkpt lat="44.26824" lon="5.55532">
        <ele>1237.1999511719</ele>
        <time>2021-09-25T12:32:19.000Z</time>
      </trkpt>
      <trkpt lat="44.26825" lon="5.55532">
        <ele>1237.1999511719</ele>
        <time>2021-09-25T12:32:20.000Z</time>
      </trkpt>
      <trkpt lat="44.26827" lon="5.5553">
        <ele>1237.1999511719</ele>
        <time>2021-09-25T12:32:23.000Z</time>
      </trkpt>
      <trkpt lat="44.26828" lon="5.55528">
        <ele>1237</ele>
        <time>2021-09-25T12:32:25.000Z</time>
      </trkpt>
      <trkpt lat="44.26829" lon="5.55527">
        <ele>1236.8000488281</ele>
        <time>2021-09-25T12:32:26.000Z</time>
      </trkpt>
      <trkpt lat="44.26829" lon="5.55526">
        <ele>1236.5999755859</ele>
        <time>2021-09-25T12:32:27.000Z</time>
      </trkpt>
      <trkpt lat="44.2683" lon="5.55524">
        <ele>1236.4000244141</ele>
        <time>2021-09-25T12:32:28.000Z</time>
      </trkpt>
      <trkpt lat="44.26832" lon="5.5552">
        <ele>1236.4000244141</ele>
        <time>2021-09-25T12:32:30.000Z</time>
      </trkpt>
      <trkpt lat="44.26832" lon="5.55519">
        <ele>1236.4000244141</ele>
        <time>2021-09-25T12:32:31.000Z</time>
      </trkpt>
      <trkpt lat="44.26833" lon="5.55518">
        <ele>1236.4000244141</ele>
        <time>2021-09-25T12:32:32.000Z</time>
      </trkpt>
      <trkpt lat="44.26833" lon="5.55517">
        <ele>1236.4000244141</ele>
        <time>2021-09-25T12:32:33.000Z</time>
      </trkpt>
      <trkpt lat="44.26833" lon="5.55516">
        <ele>1236</ele>
        <time>2021-09-25T12:32:34.000Z</time>
      </trkpt>
      <trkpt lat="44.26833" lon="5.55513">
        <ele>1236.1999511719</ele>
        <time>2021-09-25T12:32:37.000Z</time>
      </trkpt>
      <trkpt lat="44.26834" lon="5.55512">
        <ele>1236.1999511719</ele>
        <time>2021-09-25T12:32:39.000Z</time>
      </trkpt>
      <trkpt lat="44.26834" lon="5.55512">
        <ele>1236</ele>
        <time>2021-09-25T12:32:40.000Z</time>
      </trkpt>
      <trkpt lat="44.26834" lon="5.5551">
        <ele>1235.8000488281</ele>
        <time>2021-09-25T12:32:42.000Z</time>
      </trkpt>
      <trkpt lat="44.26836" lon="5.55506">
        <ele>1235.5999755859</ele>
        <time>2021-09-25T12:32:46.000Z</time>
      </trkpt>
      <trkpt lat="44.26838" lon="5.55502">
        <ele>1235.4000244141</ele>
        <time>2021-09-25T12:32:49.000Z</time>
      </trkpt>
      <trkpt lat="44.26838" lon="5.55502">
        <ele>1235.4000244141</ele>
        <time>2021-09-25T12:32:50.000Z</time>
      </trkpt>
      <trkpt lat="44.2684" lon="5.55498">
        <ele>1235.1999511719</ele>
        <time>2021-09-25T12:32:53.000Z</time>
      </trkpt>
      <trkpt lat="44.26842" lon="5.55494">
        <ele>1234.8000488281</ele>
        <time>2021-09-25T12:32:57.000Z</time>
      </trkpt>
      <trkpt lat="44.26847" lon="5.5549">
        <ele>1235</ele>
        <time>2021-09-25T12:33:01.000Z</time>
      </trkpt>
      <trkpt lat="44.26847" lon="5.55489">
        <ele>1235</ele>
        <time>2021-09-25T12:33:02.000Z</time>
      </trkpt>
      <trkpt lat="44.26848" lon="5.55489">
        <ele>1235</ele>
        <time>2021-09-25T12:33:03.000Z</time>
      </trkpt>
      <trkpt lat="44.26849" lon="5.55489">
        <ele>1235</ele>
        <time>2021-09-25T12:33:06.000Z</time>
      </trkpt>
      <trkpt lat="44.26849" lon="5.55489">
        <ele>1235</ele>
        <time>2021-09-25T12:33:07.000Z</time>
      </trkpt>
      <trkpt lat="44.2685" lon="5.55489">
        <ele>1234.8000488281</ele>
        <time>2021-09-25T12:33:09.000Z</time>
      </trkpt>
      <trkpt lat="44.26856" lon="5.55488">
        <ele>1235.1999511719</ele>
        <time>2021-09-25T12:33:15.000Z</time>
      </trkpt>
      <trkpt lat="44.26856" lon="5.55488">
        <ele>1235.1999511719</ele>
        <time>2021-09-25T12:33:16.000Z</time>
      </trkpt>
      <trkpt lat="44.26857" lon="5.55489">
        <ele>1235.1999511719</ele>
        <time>2021-09-25T12:33:18.000Z</time>
      </trkpt>
      <trkpt lat="44.26855" lon="5.5549">
        <ele>1235.5999755859</ele>
        <time>2021-09-25T12:33:22.000Z</time>
      </trkpt>
      <trkpt lat="44.26856" lon="5.5549">
        <ele>1235.8000488281</ele>
        <time>2021-09-25T12:33:24.000Z</time>
      </trkpt>
      <trkpt lat="44.26858" lon="5.5549">
        <ele>1236.5999755859</ele>
        <time>2021-09-25T12:33:26.000Z</time>
      </trkpt>
      <trkpt lat="44.26858" lon="5.55491">
        <ele>1236.8000488281</ele>
        <time>2021-09-25T12:33:27.000Z</time>
      </trkpt>
      <trkpt lat="44.2686" lon="5.55491">
        <ele>1237.4000244141</ele>
        <time>2021-09-25T12:33:29.000Z</time>
      </trkpt>
      <trkpt lat="44.26861" lon="5.55491">
        <ele>1237.5999755859</ele>
        <time>2021-09-25T12:33:30.000Z</time>
      </trkpt>
      <trkpt lat="44.26866" lon="5.55489">
        <ele>1237.8000488281</ele>
        <time>2021-09-25T12:33:36.000Z</time>
      </trkpt>
      <trkpt lat="44.26867" lon="5.55488">
        <ele>1238</ele>
        <time>2021-09-25T12:33:37.000Z</time>
      </trkpt>
      <trkpt lat="44.26868" lon="5.55488">
        <ele>1238</ele>
        <time>2021-09-25T12:33:38.000Z</time>
      </trkpt>
      <trkpt lat="44.26869" lon="5.55488">
        <ele>1238</ele>
        <time>2021-09-25T12:33:39.000Z</time>
      </trkpt>
      <trkpt lat="44.26869" lon="5.55488">
        <ele>1238</ele>
        <time>2021-09-25T12:33:40.000Z</time>
      </trkpt>
      <trkpt lat="44.2687" lon="5.55487">
        <ele>1238.1999511719</ele>
        <time>2021-09-25T12:33:41.000Z</time>
      </trkpt>
      <trkpt lat="44.26873" lon="5.55487">
        <ele>1238.1999511719</ele>
        <time>2021-09-25T12:33:43.000Z</time>
      </trkpt>
      <trkpt lat="44.26874" lon="5.55486">
        <ele>1238.4000244141</ele>
        <time>2021-09-25T12:33:44.000Z</time>
      </trkpt>
      <trkpt lat="44.26876" lon="5.55485">
        <ele>1238.4000244141</ele>
        <time>2021-09-25T12:33:45.000Z</time>
      </trkpt>
      <trkpt lat="44.26877" lon="5.55484">
        <ele>1238.5999755859</ele>
        <time>2021-09-25T12:33:48.000Z</time>
      </trkpt>
      <trkpt lat="44.26878" lon="5.55484">
        <ele>1238.8000488281</ele>
        <time>2021-09-25T12:33:49.000Z</time>
      </trkpt>
      <trkpt lat="44.2688" lon="5.55483">
        <ele>1239</ele>
        <time>2021-09-25T12:33:51.000Z</time>
      </trkpt>
      <trkpt lat="44.26881" lon="5.55483">
        <ele>1239.1999511719</ele>
        <time>2021-09-25T12:33:52.000Z</time>
      </trkpt>
      <trkpt lat="44.26882" lon="5.55483">
        <ele>1239.1999511719</ele>
        <time>2021-09-25T12:33:54.000Z</time>
      </trkpt>
      <trkpt lat="44.26882" lon="5.55483">
        <ele>1239.4000244141</ele>
        <time>2021-09-25T12:33:56.000Z</time>
      </trkpt>
      <trkpt lat="44.26884" lon="5.55483">
        <ele>1239.4000244141</ele>
        <time>2021-09-25T12:33:59.000Z</time>
      </trkpt>
      <trkpt lat="44.26888" lon="5.55482">
        <ele>1239.8000488281</ele>
        <time>2021-09-25T12:34:04.000Z</time>
      </trkpt>
      <trkpt lat="44.2689" lon="5.55482">
        <ele>1239.8000488281</ele>
        <time>2021-09-25T12:34:05.000Z</time>
      </trkpt>
      <trkpt lat="44.26894" lon="5.55481">
        <ele>1239.8000488281</ele>
        <time>2021-09-25T12:34:07.000Z</time>
      </trkpt>
      <trkpt lat="44.26898" lon="5.5548">
        <ele>1240</ele>
        <time>2021-09-25T12:34:09.000Z</time>
      </trkpt>
      <trkpt lat="44.26901" lon="5.55477">
        <ele>1240.4000244141</ele>
        <time>2021-09-25T12:34:13.000Z</time>
      </trkpt>
      <trkpt lat="44.26901" lon="5.55477">
        <ele>1240.5999755859</ele>
        <time>2021-09-25T12:34:14.000Z</time>
      </trkpt>
      <trkpt lat="44.26905" lon="5.55476">
        <ele>1240.5999755859</ele>
        <time>2021-09-25T12:34:18.000Z</time>
      </trkpt>
      <trkpt lat="44.26907" lon="5.55475">
        <ele>1240.5999755859</ele>
        <time>2021-09-25T12:34:21.000Z</time>
      </trkpt>
      <trkpt lat="44.26909" lon="5.55474">
        <ele>1241</ele>
        <time>2021-09-25T12:34:24.000Z</time>
      </trkpt>
      <trkpt lat="44.26914" lon="5.55472">
        <ele>1241</ele>
        <time>2021-09-25T12:34:30.000Z</time>
      </trkpt>
      <trkpt lat="44.26916" lon="5.55471">
        <ele>1241.4000244141</ele>
        <time>2021-09-25T12:34:32.000Z</time>
      </trkpt>
      <trkpt lat="44.26922" lon="5.55468">
        <ele>1241.5999755859</ele>
        <time>2021-09-25T12:34:37.000Z</time>
      </trkpt>
      <trkpt lat="44.26924" lon="5.55465">
        <ele>1241.5999755859</ele>
        <time>2021-09-25T12:34:40.000Z</time>
      </trkpt>
      <trkpt lat="44.26925" lon="5.55464">
        <ele>1241.5999755859</ele>
        <time>2021-09-25T12:34:42.000Z</time>
      </trkpt>
      <trkpt lat="44.26926" lon="5.55464">
        <ele>1241.5999755859</ele>
        <time>2021-09-25T12:34:43.000Z</time>
      </trkpt>
      <trkpt lat="44.26926" lon="5.55462">
        <ele>1242</ele>
        <time>2021-09-25T12:34:46.000Z</time>
      </trkpt>
      <trkpt lat="44.2693" lon="5.5546">
        <ele>1242.4000244141</ele>
        <time>2021-09-25T12:34:50.000Z</time>
      </trkpt>
      <trkpt lat="44.26932" lon="5.5546">
        <ele>1242.4000244141</ele>
        <time>2021-09-25T12:34:51.000Z</time>
      </trkpt>
      <trkpt lat="44.26934" lon="5.55459">
        <ele>1242.8000488281</ele>
        <time>2021-09-25T12:34:53.000Z</time>
      </trkpt>
      <trkpt lat="44.26934" lon="5.55458">
        <ele>1243</ele>
        <time>2021-09-25T12:34:55.000Z</time>
      </trkpt>
      <trkpt lat="44.26937" lon="5.55456">
        <ele>1243.4000244141</ele>
        <time>2021-09-25T12:34:57.000Z</time>
      </trkpt>
      <trkpt lat="44.26941" lon="5.55454">
        <ele>1244.1999511719</ele>
        <time>2021-09-25T12:35:02.000Z</time>
      </trkpt>
      <trkpt lat="44.26944" lon="5.55453">
        <ele>1244</ele>
        <time>2021-09-25T12:35:06.000Z</time>
      </trkpt>
      <trkpt lat="44.26947" lon="5.55451">
        <ele>1244</ele>
        <time>2021-09-25T12:35:08.000Z</time>
      </trkpt>
      <trkpt lat="44.26948" lon="5.55451">
        <ele>1244</ele>
        <time>2021-09-25T12:35:09.000Z</time>
      </trkpt>
      <trkpt lat="44.26951" lon="5.55448">
        <ele>1244.4000244141</ele>
        <time>2021-09-25T12:35:12.000Z</time>
      </trkpt>
      <trkpt lat="44.26952" lon="5.55448">
        <ele>1244.5999755859</ele>
        <time>2021-09-25T12:35:13.000Z</time>
      </trkpt>
      <trkpt lat="44.26953" lon="5.55447">
        <ele>1244.5999755859</ele>
        <time>2021-09-25T12:35:14.000Z</time>
      </trkpt>
      <trkpt lat="44.26954" lon="5.55446">
        <ele>1244.8000488281</ele>
        <time>2021-09-25T12:35:16.000Z</time>
      </trkpt>
      <trkpt lat="44.26956" lon="5.55444">
        <ele>1245</ele>
        <time>2021-09-25T12:35:19.000Z</time>
      </trkpt>
      <trkpt lat="44.26957" lon="5.55441">
        <ele>1245</ele>
        <time>2021-09-25T12:35:22.000Z</time>
      </trkpt>
      <trkpt lat="44.26959" lon="5.55441">
        <ele>1245.1999511719</ele>
        <time>2021-09-25T12:35:24.000Z</time>
      </trkpt>
      <trkpt lat="44.26963" lon="5.55439">
        <ele>1245.4000244141</ele>
        <time>2021-09-25T12:35:28.000Z</time>
      </trkpt>
      <trkpt lat="44.26965" lon="5.55438">
        <ele>1245.4000244141</ele>
        <time>2021-09-25T12:35:30.000Z</time>
      </trkpt>
      <trkpt lat="44.26967" lon="5.55438">
        <ele>1245.4000244141</ele>
        <time>2021-09-25T12:35:31.000Z</time>
      </trkpt>
      <trkpt lat="44.26969" lon="5.55437">
        <ele>1245.8000488281</ele>
        <time>2021-09-25T12:35:33.000Z</time>
      </trkpt>
      <trkpt lat="44.26971" lon="5.55435">
        <ele>1246</ele>
        <time>2021-09-25T12:35:35.000Z</time>
      </trkpt>
      <trkpt lat="44.26972" lon="5.55435">
        <ele>1246.1999511719</ele>
        <time>2021-09-25T12:35:36.000Z</time>
      </trkpt>
      <trkpt lat="44.26973" lon="5.55434">
        <ele>1246.1999511719</ele>
        <time>2021-09-25T12:35:37.000Z</time>
      </trkpt>
      <trkpt lat="44.26974" lon="5.55433">
        <ele>1246.4000244141</ele>
        <time>2021-09-25T12:35:38.000Z</time>
      </trkpt>
      <trkpt lat="44.26979" lon="5.55432">
        <ele>1246.5999755859</ele>
        <time>2021-09-25T12:35:43.000Z</time>
      </trkpt>
      <trkpt lat="44.26986" lon="5.55429">
        <ele>1247</ele>
        <time>2021-09-25T12:35:49.000Z</time>
      </trkpt>
      <trkpt lat="44.2699" lon="5.55429">
        <ele>1247.1999511719</ele>
        <time>2021-09-25T12:35:51.000Z</time>
      </trkpt>
      <trkpt lat="44.26991" lon="5.55429">
        <ele>1247.4000244141</ele>
        <time>2021-09-25T12:35:53.000Z</time>
      </trkpt>
      <trkpt lat="44.26992" lon="5.55429">
        <ele>1247.5999755859</ele>
        <time>2021-09-25T12:35:54.000Z</time>
      </trkpt>
      <trkpt lat="44.26994" lon="5.55429">
        <ele>1247.8000488281</ele>
        <time>2021-09-25T12:35:56.000Z</time>
      </trkpt>
      <trkpt lat="44.26998" lon="5.55428">
        <ele>1248.4000244141</ele>
        <time>2021-09-25T12:35:59.000Z</time>
      </trkpt>
      <trkpt lat="44.26998" lon="5.55429">
        <ele>1248.5999755859</ele>
        <time>2021-09-25T12:36:00.000Z</time>
      </trkpt>
      <trkpt lat="44.27001" lon="5.55429">
        <ele>1249</ele>
        <time>2021-09-25T12:36:03.000Z</time>
      </trkpt>
      <trkpt lat="44.27001" lon="5.55428">
        <ele>1249.1999511719</ele>
        <time>2021-09-25T12:36:04.000Z</time>
      </trkpt>
      <trkpt lat="44.27002" lon="5.55428">
        <ele>1249.1999511719</ele>
        <time>2021-09-25T12:36:06.000Z</time>
      </trkpt>
      <trkpt lat="44.27006" lon="5.55424">
        <ele>1249.1999511719</ele>
        <time>2021-09-25T12:36:10.000Z</time>
      </trkpt>
      <trkpt lat="44.27008" lon="5.55424">
        <ele>1249.4000244141</ele>
        <time>2021-09-25T12:36:12.000Z</time>
      </trkpt>
      <trkpt lat="44.27017" lon="5.55424">
        <ele>1249.1999511719</ele>
        <time>2021-09-25T12:36:20.000Z</time>
      </trkpt>
      <trkpt lat="44.27018" lon="5.55422">
        <ele>1249.1999511719</ele>
        <time>2021-09-25T12:36:22.000Z</time>
      </trkpt>
      <trkpt lat="44.27023" lon="5.55418">
        <ele>1249.1999511719</ele>
        <time>2021-09-25T12:36:27.000Z</time>
      </trkpt>
      <trkpt lat="44.27026" lon="5.55418">
        <ele>1249.5999755859</ele>
        <time>2021-09-25T12:36:31.000Z</time>
      </trkpt>
      <trkpt lat="44.27026" lon="5.55418">
        <ele>1249.8000488281</ele>
        <time>2021-09-25T12:36:33.000Z</time>
      </trkpt>
      <trkpt lat="44.27025" lon="5.55418">
        <ele>1249.8000488281</ele>
        <time>2021-09-25T12:36:35.000Z</time>
      </trkpt>
      <trkpt lat="44.27027" lon="5.55418">
        <ele>1249.8000488281</ele>
        <time>2021-09-25T12:36:37.000Z</time>
      </trkpt>
      <trkpt lat="44.2703" lon="5.55418">
        <ele>1250.1999511719</ele>
        <time>2021-09-25T12:36:40.000Z</time>
      </trkpt>
      <trkpt lat="44.27033" lon="5.55418">
        <ele>1250.1999511719</ele>
        <time>2021-09-25T12:36:43.000Z</time>
      </trkpt>
      <trkpt lat="44.27035" lon="5.55416">
        <ele>1250.1999511719</ele>
        <time>2021-09-25T12:36:46.000Z</time>
      </trkpt>
      <trkpt lat="44.27037" lon="5.55414">
        <ele>1250.1999511719</ele>
        <time>2021-09-25T12:36:48.000Z</time>
      </trkpt>
      <trkpt lat="44.27041" lon="5.55414">
        <ele>1250.1999511719</ele>
        <time>2021-09-25T12:36:52.000Z</time>
      </trkpt>
      <trkpt lat="44.27045" lon="5.55415">
        <ele>1250.5999755859</ele>
        <time>2021-09-25T12:36:56.000Z</time>
      </trkpt>
      <trkpt lat="44.27046" lon="5.55416">
        <ele>1250.8000488281</ele>
        <time>2021-09-25T12:36:58.000Z</time>
      </trkpt>
      <trkpt lat="44.2705" lon="5.55416">
        <ele>1252</ele>
        <time>2021-09-25T12:37:02.000Z</time>
      </trkpt>
      <trkpt lat="44.27051" lon="5.55416">
        <ele>1252.1999511719</ele>
        <time>2021-09-25T12:37:03.000Z</time>
      </trkpt>
      <trkpt lat="44.27052" lon="5.55415">
        <ele>1252.1999511719</ele>
        <time>2021-09-25T12:37:04.000Z</time>
      </trkpt>
      <trkpt lat="44.27057" lon="5.55409">
        <ele>1251.5999755859</ele>
        <time>2021-09-25T12:37:11.000Z</time>
      </trkpt>
      <trkpt lat="44.27062" lon="5.55404">
        <ele>1252.1999511719</ele>
        <time>2021-09-25T12:37:18.000Z</time>
      </trkpt>
      <trkpt lat="44.27065" lon="5.554">
        <ele>1252.1999511719</ele>
        <time>2021-09-25T12:37:22.000Z</time>
      </trkpt>
      <trkpt lat="44.27066" lon="5.55399">
        <ele>1252.1999511719</ele>
        <time>2021-09-25T12:37:23.000Z</time>
      </trkpt>
      <trkpt lat="44.27066" lon="5.55397">
        <ele>1252.1999511719</ele>
        <time>2021-09-25T12:37:25.000Z</time>
      </trkpt>
      <trkpt lat="44.27066" lon="5.55395">
        <ele>1252</ele>
        <time>2021-09-25T12:37:27.000Z</time>
      </trkpt>
      <trkpt lat="44.27067" lon="5.55394">
        <ele>1252</ele>
        <time>2021-09-25T12:37:28.000Z</time>
      </trkpt>
      <trkpt lat="44.27068" lon="5.55392">
        <ele>1252</ele>
        <time>2021-09-25T12:37:30.000Z</time>
      </trkpt>
      <trkpt lat="44.27071" lon="5.55387">
        <ele>1252.8000488281</ele>
        <time>2021-09-25T12:37:35.000Z</time>
      </trkpt>
      <trkpt lat="44.27071" lon="5.55386">
        <ele>1252.8000488281</ele>
        <time>2021-09-25T12:37:36.000Z</time>
      </trkpt>
      <trkpt lat="44.27071" lon="5.55386">
        <ele>1252.8000488281</ele>
        <time>2021-09-25T12:37:37.000Z</time>
      </trkpt>
      <trkpt lat="44.27072" lon="5.55385">
        <ele>1252.8000488281</ele>
        <time>2021-09-25T12:37:38.000Z</time>
      </trkpt>
      <trkpt lat="44.27072" lon="5.55384">
        <ele>1253</ele>
        <time>2021-09-25T12:37:39.000Z</time>
      </trkpt>
      <trkpt lat="44.27072" lon="5.55384">
        <ele>1253</ele>
        <time>2021-09-25T12:37:40.000Z</time>
      </trkpt>
      <trkpt lat="44.27073" lon="5.55383">
        <ele>1253.1999511719</ele>
        <time>2021-09-25T12:37:42.000Z</time>
      </trkpt>
      <trkpt lat="44.27074" lon="5.55382">
        <ele>1253.4000244141</ele>
        <time>2021-09-25T12:37:44.000Z</time>
      </trkpt>
      <trkpt lat="44.27075" lon="5.55382">
        <ele>1253.4000244141</ele>
        <time>2021-09-25T12:37:45.000Z</time>
      </trkpt>
      <trkpt lat="44.27077" lon="5.55381">
        <ele>1253.5999755859</ele>
        <time>2021-09-25T12:37:49.000Z</time>
      </trkpt>
      <trkpt lat="44.27079" lon="5.55378">
        <ele>1254</ele>
        <time>2021-09-25T12:37:53.000Z</time>
      </trkpt>
      <trkpt lat="44.27082" lon="5.55378">
        <ele>1254</ele>
        <time>2021-09-25T12:37:57.000Z</time>
      </trkpt>
      <trkpt lat="44.27083" lon="5.55377">
        <ele>1254</ele>
        <time>2021-09-25T12:37:58.000Z</time>
      </trkpt>
      <trkpt lat="44.27086" lon="5.55376">
        <ele>1254</ele>
        <time>2021-09-25T12:38:04.000Z</time>
      </trkpt>
      <trkpt lat="44.27089" lon="5.55375">
        <ele>1254.1999511719</ele>
        <time>2021-09-25T12:38:07.000Z</time>
      </trkpt>
      <trkpt lat="44.2709" lon="5.55374">
        <ele>1254.4000244141</ele>
        <time>2021-09-25T12:38:08.000Z</time>
      </trkpt>
      <trkpt lat="44.27093" lon="5.55374">
        <ele>1254.8000488281</ele>
        <time>2021-09-25T12:38:12.000Z</time>
      </trkpt>
      <trkpt lat="44.27096" lon="5.55374">
        <ele>1255.1999511719</ele>
        <time>2021-09-25T12:38:15.000Z</time>
      </trkpt>
      <trkpt lat="44.271" lon="5.55371">
        <ele>1255.5999755859</ele>
        <time>2021-09-25T12:38:20.000Z</time>
      </trkpt>
      <trkpt lat="44.27104" lon="5.55369">
        <ele>1256</ele>
        <time>2021-09-25T12:38:24.000Z</time>
      </trkpt>
      <trkpt lat="44.27106" lon="5.55367">
        <ele>1256.1999511719</ele>
        <time>2021-09-25T12:38:26.000Z</time>
      </trkpt>
      <trkpt lat="44.27108" lon="5.55367">
        <ele>1256.1999511719</ele>
        <time>2021-09-25T12:38:28.000Z</time>
      </trkpt>
      <trkpt lat="44.27109" lon="5.55366">
        <ele>1256.4000244141</ele>
        <time>2021-09-25T12:38:30.000Z</time>
      </trkpt>
      <trkpt lat="44.27111" lon="5.55366">
        <ele>1256.5999755859</ele>
        <time>2021-09-25T12:38:32.000Z</time>
      </trkpt>
      <trkpt lat="44.27112" lon="5.55366">
        <ele>1256.8000488281</ele>
        <time>2021-09-25T12:38:34.000Z</time>
      </trkpt>
      <trkpt lat="44.27113" lon="5.55365">
        <ele>1257</ele>
        <time>2021-09-25T12:38:35.000Z</time>
      </trkpt>
      <trkpt lat="44.27114" lon="5.55365">
        <ele>1257</ele>
        <time>2021-09-25T12:38:37.000Z</time>
      </trkpt>
      <trkpt lat="44.27116" lon="5.55365">
        <ele>1257</ele>
        <time>2021-09-25T12:38:39.000Z</time>
      </trkpt>
      <trkpt lat="44.27117" lon="5.55365">
        <ele>1257.1999511719</ele>
        <time>2021-09-25T12:38:40.000Z</time>
      </trkpt>
      <trkpt lat="44.27117" lon="5.55365">
        <ele>1257.1999511719</ele>
        <time>2021-09-25T12:38:41.000Z</time>
      </trkpt>
      <trkpt lat="44.27118" lon="5.55365">
        <ele>1257.1999511719</ele>
        <time>2021-09-25T12:38:42.000Z</time>
      </trkpt>
      <trkpt lat="44.27119" lon="5.55365">
        <ele>1257.4000244141</ele>
        <time>2021-09-25T12:38:44.000Z</time>
      </trkpt>
      <trkpt lat="44.27122" lon="5.55365">
        <ele>1257.1999511719</ele>
        <time>2021-09-25T12:38:47.000Z</time>
      </trkpt>
      <trkpt lat="44.27122" lon="5.55365">
        <ele>1257.4000244141</ele>
        <time>2021-09-25T12:38:48.000Z</time>
      </trkpt>
      <trkpt lat="44.2713" lon="5.55364">
        <ele>1257.4000244141</ele>
        <time>2021-09-25T12:38:55.000Z</time>
      </trkpt>
      <trkpt lat="44.2713" lon="5.55365">
        <ele>1257.8000488281</ele>
        <time>2021-09-25T12:38:56.000Z</time>
      </trkpt>
      <trkpt lat="44.27132" lon="5.55364">
        <ele>1258</ele>
        <time>2021-09-25T12:38:58.000Z</time>
      </trkpt>
      <trkpt lat="44.27135" lon="5.55365">
        <ele>1258.1999511719</ele>
        <time>2021-09-25T12:39:00.000Z</time>
      </trkpt>
      <trkpt lat="44.27135" lon="5.55366">
        <ele>1258.1999511719</ele>
        <time>2021-09-25T12:39:01.000Z</time>
      </trkpt>
      <trkpt lat="44.27136" lon="5.55366">
        <ele>1258.4000244141</ele>
        <time>2021-09-25T12:39:03.000Z</time>
      </trkpt>
      <trkpt lat="44.27137" lon="5.55367">
        <ele>1258.4000244141</ele>
        <time>2021-09-25T12:39:04.000Z</time>
      </trkpt>
      <trkpt lat="44.2714" lon="5.55367">
        <ele>1258.5999755859</ele>
        <time>2021-09-25T12:39:06.000Z</time>
      </trkpt>
      <trkpt lat="44.27142" lon="5.55368">
        <ele>1258.8000488281</ele>
        <time>2021-09-25T12:39:08.000Z</time>
      </trkpt>
      <trkpt lat="44.27145" lon="5.55368">
        <ele>1258.5999755859</ele>
        <time>2021-09-25T12:39:10.000Z</time>
      </trkpt>
      <trkpt lat="44.27151" lon="5.55369">
        <ele>1258.5999755859</ele>
        <time>2021-09-25T12:39:14.000Z</time>
      </trkpt>
      <trkpt lat="44.27151" lon="5.55371">
        <ele>1259</ele>
        <time>2021-09-25T12:39:16.000Z</time>
      </trkpt>
      <trkpt lat="44.27152" lon="5.55371">
        <ele>1259</ele>
        <time>2021-09-25T12:39:17.000Z</time>
      </trkpt>
      <trkpt lat="44.27155" lon="5.55373">
        <ele>1259.1999511719</ele>
        <time>2021-09-25T12:39:21.000Z</time>
      </trkpt>
      <trkpt lat="44.27156" lon="5.55374">
        <ele>1259.4000244141</ele>
        <time>2021-09-25T12:39:23.000Z</time>
      </trkpt>
      <trkpt lat="44.27157" lon="5.55375">
        <ele>1260.4000244141</ele>
        <time>2021-09-25T12:39:26.000Z</time>
      </trkpt>
      <trkpt lat="44.27157" lon="5.55376">
        <ele>1260.5999755859</ele>
        <time>2021-09-25T12:39:28.000Z</time>
      </trkpt>
      <trkpt lat="44.27158" lon="5.55377">
        <ele>1260.8000488281</ele>
        <time>2021-09-25T12:39:29.000Z</time>
      </trkpt>
      <trkpt lat="44.27161" lon="5.55379">
        <ele>1261.5999755859</ele>
        <time>2021-09-25T12:39:34.000Z</time>
      </trkpt>
      <trkpt lat="44.27163" lon="5.5538">
        <ele>1262</ele>
        <time>2021-09-25T12:39:36.000Z</time>
      </trkpt>
      <trkpt lat="44.27166" lon="5.55381">
        <ele>1262.4000244141</ele>
        <time>2021-09-25T12:39:39.000Z</time>
      </trkpt>
      <trkpt lat="44.27167" lon="5.55384">
        <ele>1262.4000244141</ele>
        <time>2021-09-25T12:39:42.000Z</time>
      </trkpt>
      <trkpt lat="44.2717" lon="5.55385">
        <ele>1262.4000244141</ele>
        <time>2021-09-25T12:39:45.000Z</time>
      </trkpt>
      <trkpt lat="44.27175" lon="5.55387">
        <ele>1262.4000244141</ele>
        <time>2021-09-25T12:39:49.000Z</time>
      </trkpt>
      <trkpt lat="44.27177" lon="5.55387">
        <ele>1262.5999755859</ele>
        <time>2021-09-25T12:39:50.000Z</time>
      </trkpt>
      <trkpt lat="44.27179" lon="5.55389">
        <ele>1262.8000488281</ele>
        <time>2021-09-25T12:39:53.000Z</time>
      </trkpt>
      <trkpt lat="44.2718" lon="5.55389">
        <ele>1263</ele>
        <time>2021-09-25T12:39:55.000Z</time>
      </trkpt>
      <trkpt lat="44.27181" lon="5.55391">
        <ele>1263</ele>
        <time>2021-09-25T12:39:57.000Z</time>
      </trkpt>
      <trkpt lat="44.27184" lon="5.55393">
        <ele>1263.1999511719</ele>
        <time>2021-09-25T12:40:00.000Z</time>
      </trkpt>
      <trkpt lat="44.27186" lon="5.55394">
        <ele>1263.4000244141</ele>
        <time>2021-09-25T12:40:02.000Z</time>
      </trkpt>
      <trkpt lat="44.27188" lon="5.55394">
        <ele>1263.5999755859</ele>
        <time>2021-09-25T12:40:03.000Z</time>
      </trkpt>
      <trkpt lat="44.2719" lon="5.55396">
        <ele>1264</ele>
        <time>2021-09-25T12:40:05.000Z</time>
      </trkpt>
      <trkpt lat="44.27192" lon="5.55398">
        <ele>1264.5999755859</ele>
        <time>2021-09-25T12:40:08.000Z</time>
      </trkpt>
      <trkpt lat="44.27192" lon="5.55399">
        <ele>1264.5999755859</ele>
        <time>2021-09-25T12:40:09.000Z</time>
      </trkpt>
      <trkpt lat="44.27193" lon="5.55399">
        <ele>1264.8000488281</ele>
        <time>2021-09-25T12:40:10.000Z</time>
      </trkpt>
      <trkpt lat="44.27192" lon="5.55403">
        <ele>1265.1999511719</ele>
        <time>2021-09-25T12:40:12.000Z</time>
      </trkpt>
      <trkpt lat="44.27191" lon="5.55405">
        <ele>1265.4000244141</ele>
        <time>2021-09-25T12:40:13.000Z</time>
      </trkpt>
      <trkpt lat="44.27191" lon="5.55406">
        <ele>1265.8000488281</ele>
        <time>2021-09-25T12:40:14.000Z</time>
      </trkpt>
      <trkpt lat="44.27192" lon="5.55407">
        <ele>1266</ele>
        <time>2021-09-25T12:40:15.000Z</time>
      </trkpt>
      <trkpt lat="44.27193" lon="5.5541">
        <ele>1266</ele>
        <time>2021-09-25T12:40:18.000Z</time>
      </trkpt>
      <trkpt lat="44.27194" lon="5.55411">
        <ele>1265.8000488281</ele>
        <time>2021-09-25T12:40:19.000Z</time>
      </trkpt>
      <trkpt lat="44.27197" lon="5.55413">
        <ele>1265.5999755859</ele>
        <time>2021-09-25T12:40:23.000Z</time>
      </trkpt>
      <trkpt lat="44.27198" lon="5.55415">
        <ele>1265.5999755859</ele>
        <time>2021-09-25T12:40:25.000Z</time>
      </trkpt>
      <trkpt lat="44.27198" lon="5.55416">
        <ele>1265.8000488281</ele>
        <time>2021-09-25T12:40:26.000Z</time>
      </trkpt>
      <trkpt lat="44.27199" lon="5.55425">
        <ele>1266.8000488281</ele>
        <time>2021-09-25T12:40:34.000Z</time>
      </trkpt>
      <trkpt lat="44.27202" lon="5.55427">
        <ele>1267</ele>
        <time>2021-09-25T12:40:38.000Z</time>
      </trkpt>
      <trkpt lat="44.27205" lon="5.5543">
        <ele>1267</ele>
        <time>2021-09-25T12:40:42.000Z</time>
      </trkpt>
      <trkpt lat="44.27208" lon="5.55437">
        <ele>1267.8000488281</ele>
        <time>2021-09-25T12:40:49.000Z</time>
      </trkpt>
      <trkpt lat="44.27209" lon="5.55438">
        <ele>1268</ele>
        <time>2021-09-25T12:40:50.000Z</time>
      </trkpt>
      <trkpt lat="44.27209" lon="5.55443">
        <ele>1268.4000244141</ele>
        <time>2021-09-25T12:40:54.000Z</time>
      </trkpt>
      <trkpt lat="44.27206" lon="5.55449">
        <ele>1268.4000244141</ele>
        <time>2021-09-25T12:40:57.000Z</time>
      </trkpt>
      <trkpt lat="44.27207" lon="5.55453">
        <ele>1269.1999511719</ele>
        <time>2021-09-25T12:41:01.000Z</time>
      </trkpt>
      <trkpt lat="44.2721" lon="5.55457">
        <ele>1269.5999755859</ele>
        <time>2021-09-25T12:41:04.000Z</time>
      </trkpt>
      <trkpt lat="44.27211" lon="5.55457">
        <ele>1269.5999755859</ele>
        <time>2021-09-25T12:41:05.000Z</time>
      </trkpt>
      <trkpt lat="44.27213" lon="5.55462">
        <ele>1269.8000488281</ele>
        <time>2021-09-25T12:41:12.000Z</time>
      </trkpt>
      <trkpt lat="44.27214" lon="5.55463">
        <ele>1269.8000488281</ele>
        <time>2021-09-25T12:41:13.000Z</time>
      </trkpt>
      <trkpt lat="44.27215" lon="5.55465">
        <ele>1270</ele>
        <time>2021-09-25T12:41:15.000Z</time>
      </trkpt>
      <trkpt lat="44.27216" lon="5.55466">
        <ele>1270.1999511719</ele>
        <time>2021-09-25T12:41:17.000Z</time>
      </trkpt>
      <trkpt lat="44.27217" lon="5.55468">
        <ele>1270.4000244141</ele>
        <time>2021-09-25T12:41:19.000Z</time>
      </trkpt>
      <trkpt lat="44.27218" lon="5.55471">
        <ele>1270.5999755859</ele>
        <time>2021-09-25T12:41:22.000Z</time>
      </trkpt>
      <trkpt lat="44.27219" lon="5.55472">
        <ele>1270.5999755859</ele>
        <time>2021-09-25T12:41:24.000Z</time>
      </trkpt>
      <trkpt lat="44.27219" lon="5.55474">
        <ele>1270.8000488281</ele>
        <time>2021-09-25T12:41:26.000Z</time>
      </trkpt>
      <trkpt lat="44.27218" lon="5.55477">
        <ele>1271</ele>
        <time>2021-09-25T12:41:28.000Z</time>
      </trkpt>
      <trkpt lat="44.27218" lon="5.55479">
        <ele>1271.4000244141</ele>
        <time>2021-09-25T12:41:30.000Z</time>
      </trkpt>
      <trkpt lat="44.2722" lon="5.55481">
        <ele>1271.4000244141</ele>
        <time>2021-09-25T12:41:32.000Z</time>
      </trkpt>
      <trkpt lat="44.27222" lon="5.55485">
        <ele>1271.8000488281</ele>
        <time>2021-09-25T12:41:36.000Z</time>
      </trkpt>
      <trkpt lat="44.27223" lon="5.55488">
        <ele>1272</ele>
        <time>2021-09-25T12:41:38.000Z</time>
      </trkpt>
      <trkpt lat="44.27224" lon="5.5549">
        <ele>1272</ele>
        <time>2021-09-25T12:41:40.000Z</time>
      </trkpt>
      <trkpt lat="44.27226" lon="5.55495">
        <ele>1272</ele>
        <time>2021-09-25T12:41:44.000Z</time>
      </trkpt>
      <trkpt lat="44.27226" lon="5.55496">
        <ele>1272</ele>
        <time>2021-09-25T12:41:45.000Z</time>
      </trkpt>
      <trkpt lat="44.27226" lon="5.55503">
        <ele>1272.4000244141</ele>
        <time>2021-09-25T12:41:50.000Z</time>
      </trkpt>
      <trkpt lat="44.27226" lon="5.55504">
        <ele>1272.4000244141</ele>
        <time>2021-09-25T12:41:51.000Z</time>
      </trkpt>
      <trkpt lat="44.27223" lon="5.55506">
        <ele>1272.5999755859</ele>
        <time>2021-09-25T12:41:52.000Z</time>
      </trkpt>
      <trkpt lat="44.27223" lon="5.55506">
        <ele>1272.5999755859</ele>
        <time>2021-09-25T12:41:53.000Z</time>
      </trkpt>
      <trkpt lat="44.27223" lon="5.55507">
        <ele>1272.8000488281</ele>
        <time>2021-09-25T12:41:55.000Z</time>
      </trkpt>
      <trkpt lat="44.27223" lon="5.55509">
        <ele>1272.8000488281</ele>
        <time>2021-09-25T12:41:57.000Z</time>
      </trkpt>
      <trkpt lat="44.27222" lon="5.55511">
        <ele>1272.8000488281</ele>
        <time>2021-09-25T12:41:59.000Z</time>
      </trkpt>
      <trkpt lat="44.27223" lon="5.55513">
        <ele>1273.5999755859</ele>
        <time>2021-09-25T12:42:03.000Z</time>
      </trkpt>
      <trkpt lat="44.27224" lon="5.55515">
        <ele>1273.5999755859</ele>
        <time>2021-09-25T12:42:06.000Z</time>
      </trkpt>
      <trkpt lat="44.27226" lon="5.55519">
        <ele>1273.5999755859</ele>
        <time>2021-09-25T12:42:10.000Z</time>
      </trkpt>
      <trkpt lat="44.27228" lon="5.55521">
        <ele>1273.5999755859</ele>
        <time>2021-09-25T12:42:13.000Z</time>
      </trkpt>
      <trkpt lat="44.27229" lon="5.55522">
        <ele>1273.5999755859</ele>
        <time>2021-09-25T12:42:14.000Z</time>
      </trkpt>
      <trkpt lat="44.2723" lon="5.55526">
        <ele>1274.1999511719</ele>
        <time>2021-09-25T12:42:20.000Z</time>
      </trkpt>
      <trkpt lat="44.27231" lon="5.55527">
        <ele>1274.8000488281</ele>
        <time>2021-09-25T12:42:23.000Z</time>
      </trkpt>
      <trkpt lat="44.27231" lon="5.55527">
        <ele>1275</ele>
        <time>2021-09-25T12:42:25.000Z</time>
      </trkpt>
      <trkpt lat="44.27233" lon="5.55526">
        <ele>1275</ele>
        <time>2021-09-25T12:42:28.000Z</time>
      </trkpt>
      <trkpt lat="44.2724" lon="5.55523">
        <ele>1275</ele>
        <time>2021-09-25T12:42:34.000Z</time>
      </trkpt>
      <trkpt lat="44.27242" lon="5.55523">
        <ele>1275</ele>
        <time>2021-09-25T12:42:36.000Z</time>
      </trkpt>
      <trkpt lat="44.27243" lon="5.55523">
        <ele>1275</ele>
        <time>2021-09-25T12:42:37.000Z</time>
      </trkpt>
      <trkpt lat="44.27249" lon="5.55518">
        <ele>1275.1999511719</ele>
        <time>2021-09-25T12:42:42.000Z</time>
      </trkpt>
      <trkpt lat="44.2725" lon="5.55517">
        <ele>1275.4000244141</ele>
        <time>2021-09-25T12:42:43.000Z</time>
      </trkpt>
      <trkpt lat="44.27251" lon="5.55517">
        <ele>1275.4000244141</ele>
        <time>2021-09-25T12:42:44.000Z</time>
      </trkpt>
      <trkpt lat="44.27254" lon="5.55516">
        <ele>1275.4000244141</ele>
        <time>2021-09-25T12:42:46.000Z</time>
      </trkpt>
      <trkpt lat="44.27255" lon="5.55515">
        <ele>1275.4000244141</ele>
        <time>2021-09-25T12:42:48.000Z</time>
      </trkpt>
      <trkpt lat="44.27256" lon="5.55515">
        <ele>1275.4000244141</ele>
        <time>2021-09-25T12:42:49.000Z</time>
      </trkpt>
      <trkpt lat="44.27258" lon="5.55516">
        <ele>1275.1999511719</ele>
        <time>2021-09-25T12:42:52.000Z</time>
      </trkpt>
      <trkpt lat="44.27259" lon="5.55516">
        <ele>1275.1999511719</ele>
        <time>2021-09-25T12:42:54.000Z</time>
      </trkpt>
      <trkpt lat="44.2726" lon="5.55517">
        <ele>1275.1999511719</ele>
        <time>2021-09-25T12:42:56.000Z</time>
      </trkpt>
      <trkpt lat="44.27262" lon="5.55514">
        <ele>1275.5999755859</ele>
        <time>2021-09-25T12:43:01.000Z</time>
      </trkpt>
      <trkpt lat="44.27262" lon="5.55514">
        <ele>1275.8000488281</ele>
        <time>2021-09-25T12:43:02.000Z</time>
      </trkpt>
      <trkpt lat="44.27266" lon="5.55513">
        <ele>1275.8000488281</ele>
        <time>2021-09-25T12:43:11.000Z</time>
      </trkpt>
      <trkpt lat="44.27268" lon="5.55517">
        <ele>1275.8000488281</ele>
        <time>2021-09-25T12:43:16.000Z</time>
      </trkpt>
      <trkpt lat="44.27269" lon="5.55517">
        <ele>1276</ele>
        <time>2021-09-25T12:43:17.000Z</time>
      </trkpt>
      <trkpt lat="44.27269" lon="5.55518">
        <ele>1276.1999511719</ele>
        <time>2021-09-25T12:43:18.000Z</time>
      </trkpt>
      <trkpt lat="44.27268" lon="5.55521">
        <ele>1276.5999755859</ele>
        <time>2021-09-25T12:43:21.000Z</time>
      </trkpt>
      <trkpt lat="44.27268" lon="5.55522">
        <ele>1277.1999511719</ele>
        <time>2021-09-25T12:43:22.000Z</time>
      </trkpt>
      <trkpt lat="44.27268" lon="5.5552">
        <ele>1277.8000488281</ele>
        <time>2021-09-25T12:43:24.000Z</time>
      </trkpt>
      <trkpt lat="44.27267" lon="5.55519">
        <ele>1277.8000488281</ele>
        <time>2021-09-25T12:43:25.000Z</time>
      </trkpt>
      <trkpt lat="44.27266" lon="5.55516">
        <ele>1277.8000488281</ele>
        <time>2021-09-25T12:43:29.000Z</time>
      </trkpt>
      <trkpt lat="44.27266" lon="5.55514">
        <ele>1277.4000244141</ele>
        <time>2021-09-25T12:43:31.000Z</time>
      </trkpt>
      <trkpt lat="44.27266" lon="5.55513">
        <ele>1277.1999511719</ele>
        <time>2021-09-25T12:43:32.000Z</time>
      </trkpt>
      <trkpt lat="44.27265" lon="5.55509">
        <ele>1277</ele>
        <time>2021-09-25T12:43:34.000Z</time>
      </trkpt>
      <trkpt lat="44.27265" lon="5.55508">
        <ele>1276</ele>
        <time>2021-09-25T12:43:37.000Z</time>
      </trkpt>
      <trkpt lat="44.27264" lon="5.55508">
        <ele>1275.8000488281</ele>
        <time>2021-09-25T12:43:40.000Z</time>
      </trkpt>
      <trkpt lat="44.27264" lon="5.55507">
        <ele>1275.8000488281</ele>
        <time>2021-09-25T12:43:41.000Z</time>
      </trkpt>
      <trkpt lat="44.27264" lon="5.55504">
        <ele>1275</ele>
        <time>2021-09-25T12:43:47.000Z</time>
      </trkpt>
      <trkpt lat="44.27264" lon="5.55503">
        <ele>1274.4000244141</ele>
        <time>2021-09-25T12:43:50.000Z</time>
      </trkpt>
      <trkpt lat="44.27264" lon="5.55502">
        <ele>1274.1999511719</ele>
        <time>2021-09-25T12:43:51.000Z</time>
      </trkpt>
      <trkpt lat="44.27264" lon="5.55501">
        <ele>1275.1999511719</ele>
        <time>2021-09-25T12:43:59.000Z</time>
      </trkpt>
      <trkpt lat="44.27263" lon="5.55501">
        <ele>1275</ele>
        <time>2021-09-25T12:44:06.000Z</time>
      </trkpt>
      <trkpt lat="44.27263" lon="5.55502">
        <ele>1275</ele>
        <time>2021-09-25T12:44:07.000Z</time>
      </trkpt>
      <trkpt lat="44.27263" lon="5.55502">
        <ele>1275</ele>
        <time>2021-09-25T12:44:13.000Z</time>
      </trkpt>
      <trkpt lat="44.27264" lon="5.55503">
        <ele>1275</ele>
        <time>2021-09-25T12:44:16.000Z</time>
      </trkpt>
      <trkpt lat="44.27264" lon="5.55503">
        <ele>1275.1999511719</ele>
        <time>2021-09-25T12:44:19.000Z</time>
      </trkpt>
      <trkpt lat="44.27265" lon="5.55503">
        <ele>1274.8000488281</ele>
        <time>2021-09-25T12:44:23.000Z</time>
      </trkpt>
      <trkpt lat="44.27265" lon="5.55504">
        <ele>1274.8000488281</ele>
        <time>2021-09-25T12:44:25.000Z</time>
      </trkpt>
      <trkpt lat="44.27267" lon="5.55506">
        <ele>1274.5999755859</ele>
        <time>2021-09-25T12:44:30.000Z</time>
      </trkpt>
      <trkpt lat="44.27266" lon="5.55506">
        <ele>1274.5999755859</ele>
        <time>2021-09-25T12:44:37.000Z</time>
      </trkpt>
      <trkpt lat="44.27265" lon="5.55506">
        <ele>1274.4000244141</ele>
        <time>2021-09-25T12:44:39.000Z</time>
      </trkpt>
      <trkpt lat="44.27264" lon="5.55505">
        <ele>1275</ele>
        <time>2021-09-25T12:44:47.000Z</time>
      </trkpt>
      <trkpt lat="44.27264" lon="5.55506">
        <ele>1275</ele>
        <time>2021-09-25T12:44:55.000Z</time>
      </trkpt>
      <trkpt lat="44.27266" lon="5.55503">
        <ele>1275</ele>
        <time>2021-09-25T12:45:01.000Z</time>
      </trkpt>
      <trkpt lat="44.27266" lon="5.55502">
        <ele>1275</ele>
        <time>2021-09-25T12:45:02.000Z</time>
      </trkpt>
      <trkpt lat="44.27268" lon="5.55501">
        <ele>1275</ele>
        <time>2021-09-25T12:45:06.000Z</time>
      </trkpt>
      <trkpt lat="44.27269" lon="5.55501">
        <ele>1275</ele>
        <time>2021-09-25T12:45:09.000Z</time>
      </trkpt>
      <trkpt lat="44.2727" lon="5.555">
        <ele>1275</ele>
        <time>2021-09-25T12:45:12.000Z</time>
      </trkpt>
      <trkpt lat="44.27272" lon="5.55498">
        <ele>1275</ele>
        <time>2021-09-25T12:45:15.000Z</time>
      </trkpt>
      <trkpt lat="44.27273" lon="5.55497">
        <ele>1275</ele>
        <time>2021-09-25T12:45:17.000Z</time>
      </trkpt>
      <trkpt lat="44.27276" lon="5.55493">
        <ele>1275</ele>
        <time>2021-09-25T12:45:23.000Z</time>
      </trkpt>
      <trkpt lat="44.27281" lon="5.55488">
        <ele>1275</ele>
        <time>2021-09-25T12:45:30.000Z</time>
      </trkpt>
      <trkpt lat="44.27284" lon="5.55482">
        <ele>1275</ele>
        <time>2021-09-25T12:45:35.000Z</time>
      </trkpt>
      <trkpt lat="44.27285" lon="5.5548">
        <ele>1275</ele>
        <time>2021-09-25T12:45:37.000Z</time>
      </trkpt>
      <trkpt lat="44.27285" lon="5.55478">
        <ele>1275.5999755859</ele>
        <time>2021-09-25T12:45:38.000Z</time>
      </trkpt>
      <trkpt lat="44.27285" lon="5.55477">
        <ele>1276.1999511719</ele>
        <time>2021-09-25T12:45:39.000Z</time>
      </trkpt>
      <trkpt lat="44.27285" lon="5.55475">
        <ele>1276.5999755859</ele>
        <time>2021-09-25T12:45:41.000Z</time>
      </trkpt>
      <trkpt lat="44.27286" lon="5.55473">
        <ele>1276.8000488281</ele>
        <time>2021-09-25T12:45:43.000Z</time>
      </trkpt>
      <trkpt lat="44.27287" lon="5.55473">
        <ele>1276.5999755859</ele>
        <time>2021-09-25T12:45:44.000Z</time>
      </trkpt>
      <trkpt lat="44.27288" lon="5.55472">
        <ele>1276.5999755859</ele>
        <time>2021-09-25T12:45:45.000Z</time>
      </trkpt>
      <trkpt lat="44.27289" lon="5.55471">
        <ele>1276.8000488281</ele>
        <time>2021-09-25T12:45:46.000Z</time>
      </trkpt>
      <trkpt lat="44.2729" lon="5.5547">
        <ele>1276.8000488281</ele>
        <time>2021-09-25T12:45:47.000Z</time>
      </trkpt>
      <trkpt lat="44.27291" lon="5.5547">
        <ele>1277</ele>
        <time>2021-09-25T12:45:48.000Z</time>
      </trkpt>
      <trkpt lat="44.27291" lon="5.55468">
        <ele>1277.1999511719</ele>
        <time>2021-09-25T12:45:49.000Z</time>
      </trkpt>
      <trkpt lat="44.27291" lon="5.55467">
        <ele>1277.1999511719</ele>
        <time>2021-09-25T12:45:50.000Z</time>
      </trkpt>
      <trkpt lat="44.27294" lon="5.55459">
        <ele>1276.1999511719</ele>
        <time>2021-09-25T12:45:56.000Z</time>
      </trkpt>
      <trkpt lat="44.27295" lon="5.55457">
        <ele>1276.1999511719</ele>
        <time>2021-09-25T12:45:58.000Z</time>
      </trkpt>
      <trkpt lat="44.27296" lon="5.55455">
        <ele>1276.1999511719</ele>
        <time>2021-09-25T12:46:00.000Z</time>
      </trkpt>
      <trkpt lat="44.27298" lon="5.55451">
        <ele>1276.1999511719</ele>
        <time>2021-09-25T12:46:04.000Z</time>
      </trkpt>
      <trkpt lat="44.27299" lon="5.5545">
        <ele>1276.1999511719</ele>
        <time>2021-09-25T12:46:05.000Z</time>
      </trkpt>
      <trkpt lat="44.27299" lon="5.55448">
        <ele>1276.4000244141</ele>
        <time>2021-09-25T12:46:06.000Z</time>
      </trkpt>
      <trkpt lat="44.27303" lon="5.55439">
        <ele>1276.4000244141</ele>
        <time>2021-09-25T12:46:13.000Z</time>
      </trkpt>
      <trkpt lat="44.27306" lon="5.55435">
        <ele>1276.5999755859</ele>
        <time>2021-09-25T12:46:17.000Z</time>
      </trkpt>
      <trkpt lat="44.27311" lon="5.55432">
        <ele>1276.1999511719</ele>
        <time>2021-09-25T12:46:21.000Z</time>
      </trkpt>
      <trkpt lat="44.27317" lon="5.55427">
        <ele>1276.5999755859</ele>
        <time>2021-09-25T12:46:28.000Z</time>
      </trkpt>
      <trkpt lat="44.27319" lon="5.55427">
        <ele>1276.4000244141</ele>
        <time>2021-09-25T12:46:30.000Z</time>
      </trkpt>
      <trkpt lat="44.27321" lon="5.55425">
        <ele>1276.4000244141</ele>
        <time>2021-09-25T12:46:33.000Z</time>
      </trkpt>
      <trkpt lat="44.27322" lon="5.55424">
        <ele>1276.4000244141</ele>
        <time>2021-09-25T12:46:35.000Z</time>
      </trkpt>
      <trkpt lat="44.27322" lon="5.55422">
        <ele>1276.5999755859</ele>
        <time>2021-09-25T12:46:37.000Z</time>
      </trkpt>
      <trkpt lat="44.27323" lon="5.5542">
        <ele>1276.4000244141</ele>
        <time>2021-09-25T12:46:39.000Z</time>
      </trkpt>
      <trkpt lat="44.27323" lon="5.55418">
        <ele>1276.4000244141</ele>
        <time>2021-09-25T12:46:41.000Z</time>
      </trkpt>
      <trkpt lat="44.27326" lon="5.55415">
        <ele>1276.1999511719</ele>
        <time>2021-09-25T12:46:45.000Z</time>
      </trkpt>
      <trkpt lat="44.27329" lon="5.55412">
        <ele>1275.8000488281</ele>
        <time>2021-09-25T12:46:49.000Z</time>
      </trkpt>
      <trkpt lat="44.27332" lon="5.5541">
        <ele>1275.8000488281</ele>
        <time>2021-09-25T12:46:53.000Z</time>
      </trkpt>
      <trkpt lat="44.27334" lon="5.55407">
        <ele>1275.5999755859</ele>
        <time>2021-09-25T12:46:56.000Z</time>
      </trkpt>
      <trkpt lat="44.27336" lon="5.55406">
        <ele>1275.5999755859</ele>
        <time>2021-09-25T12:46:57.000Z</time>
      </trkpt>
      <trkpt lat="44.27338" lon="5.55403">
        <ele>1275.1999511719</ele>
        <time>2021-09-25T12:47:00.000Z</time>
      </trkpt>
      <trkpt lat="44.27338" lon="5.55402">
        <ele>1275.1999511719</ele>
        <time>2021-09-25T12:47:01.000Z</time>
      </trkpt>
      <trkpt lat="44.2734" lon="5.55399">
        <ele>1275</ele>
        <time>2021-09-25T12:47:04.000Z</time>
      </trkpt>
      <trkpt lat="44.27341" lon="5.55398">
        <ele>1275</ele>
        <time>2021-09-25T12:47:05.000Z</time>
      </trkpt>
      <trkpt lat="44.27342" lon="5.55398">
        <ele>1274.8000488281</ele>
        <time>2021-09-25T12:47:06.000Z</time>
      </trkpt>
      <trkpt lat="44.27343" lon="5.55397">
        <ele>1275</ele>
        <time>2021-09-25T12:47:08.000Z</time>
      </trkpt>
      <trkpt lat="44.27346" lon="5.55395">
        <ele>1275</ele>
        <time>2021-09-25T12:47:10.000Z</time>
      </trkpt>
      <trkpt lat="44.27347" lon="5.55395">
        <ele>1275</ele>
        <time>2021-09-25T12:47:11.000Z</time>
      </trkpt>
      <trkpt lat="44.27349" lon="5.55392">
        <ele>1275</ele>
        <time>2021-09-25T12:47:14.000Z</time>
      </trkpt>
      <trkpt lat="44.2735" lon="5.55392">
        <ele>1275</ele>
        <time>2021-09-25T12:47:15.000Z</time>
      </trkpt>
      <trkpt lat="44.27352" lon="5.5539">
        <ele>1275.1999511719</ele>
        <time>2021-09-25T12:47:18.000Z</time>
      </trkpt>
      <trkpt lat="44.27353" lon="5.55389">
        <ele>1275.1999511719</ele>
        <time>2021-09-25T12:47:19.000Z</time>
      </trkpt>
      <trkpt lat="44.27355" lon="5.55389">
        <ele>1275.4000244141</ele>
        <time>2021-09-25T12:47:22.000Z</time>
      </trkpt>
      <trkpt lat="44.27357" lon="5.55387">
        <ele>1275.5999755859</ele>
        <time>2021-09-25T12:47:25.000Z</time>
      </trkpt>
      <trkpt lat="44.27358" lon="5.55385">
        <ele>1275.4000244141</ele>
        <time>2021-09-25T12:47:27.000Z</time>
      </trkpt>
      <trkpt lat="44.27362" lon="5.55382">
        <ele>1275.4000244141</ele>
        <time>2021-09-25T12:47:32.000Z</time>
      </trkpt>
      <trkpt lat="44.27363" lon="5.5538">
        <ele>1275</ele>
        <time>2021-09-25T12:47:34.000Z</time>
      </trkpt>
      <trkpt lat="44.27366" lon="5.55379">
        <ele>1274.8000488281</ele>
        <time>2021-09-25T12:47:37.000Z</time>
      </trkpt>
      <trkpt lat="44.27366" lon="5.55379">
        <ele>1274.8000488281</ele>
        <time>2021-09-25T12:47:38.000Z</time>
      </trkpt>
      <trkpt lat="44.27369" lon="5.55374">
        <ele>1274</ele>
        <time>2021-09-25T12:47:43.000Z</time>
      </trkpt>
      <trkpt lat="44.27369" lon="5.55373">
        <ele>1274</ele>
        <time>2021-09-25T12:47:44.000Z</time>
      </trkpt>
      <trkpt lat="44.27376" lon="5.55368">
        <ele>1273.1999511719</ele>
        <time>2021-09-25T12:47:51.000Z</time>
      </trkpt>
      <trkpt lat="44.27377" lon="5.55367">
        <ele>1273</ele>
        <time>2021-09-25T12:47:52.000Z</time>
      </trkpt>
      <trkpt lat="44.27382" lon="5.55363">
        <ele>1272.4000244141</ele>
        <time>2021-09-25T12:47:58.000Z</time>
      </trkpt>
      <trkpt lat="44.27383" lon="5.55361">
        <ele>1272</ele>
        <time>2021-09-25T12:48:01.000Z</time>
      </trkpt>
      <trkpt lat="44.27384" lon="5.55361">
        <ele>1272</ele>
        <time>2021-09-25T12:48:02.000Z</time>
      </trkpt>
      <trkpt lat="44.27384" lon="5.55361">
        <ele>1271.8000488281</ele>
        <time>2021-09-25T12:48:03.000Z</time>
      </trkpt>
      <trkpt lat="44.27385" lon="5.5536">
        <ele>1271.8000488281</ele>
        <time>2021-09-25T12:48:04.000Z</time>
      </trkpt>
      <trkpt lat="44.27385" lon="5.5536">
        <ele>1271.8000488281</ele>
        <time>2021-09-25T12:48:05.000Z</time>
      </trkpt>
      <trkpt lat="44.27386" lon="5.55359">
        <ele>1271.5999755859</ele>
        <time>2021-09-25T12:48:07.000Z</time>
      </trkpt>
      <trkpt lat="44.27387" lon="5.55357">
        <ele>1271.4000244141</ele>
        <time>2021-09-25T12:48:09.000Z</time>
      </trkpt>
      <trkpt lat="44.27388" lon="5.55355">
        <ele>1271</ele>
        <time>2021-09-25T12:48:11.000Z</time>
      </trkpt>
      <trkpt lat="44.27389" lon="5.55354">
        <ele>1270.8000488281</ele>
        <time>2021-09-25T12:48:12.000Z</time>
      </trkpt>
      <trkpt lat="44.2739" lon="5.5535">
        <ele>1270.1999511719</ele>
        <time>2021-09-25T12:48:15.000Z</time>
      </trkpt>
      <trkpt lat="44.27391" lon="5.55344">
        <ele>1269.8000488281</ele>
        <time>2021-09-25T12:48:19.000Z</time>
      </trkpt>
      <trkpt lat="44.27391" lon="5.55344">
        <ele>1269.4000244141</ele>
        <time>2021-09-25T12:48:20.000Z</time>
      </trkpt>
      <trkpt lat="44.27393" lon="5.55342">
        <ele>1269</ele>
        <time>2021-09-25T12:48:23.000Z</time>
      </trkpt>
      <trkpt lat="44.27394" lon="5.55341">
        <ele>1269</ele>
        <time>2021-09-25T12:48:24.000Z</time>
      </trkpt>
      <trkpt lat="44.27396" lon="5.5534">
        <ele>1269</ele>
        <time>2021-09-25T12:48:27.000Z</time>
      </trkpt>
      <trkpt lat="44.27396" lon="5.5534">
        <ele>1268.8000488281</ele>
        <time>2021-09-25T12:48:28.000Z</time>
      </trkpt>
      <trkpt lat="44.27396" lon="5.55339">
        <ele>1268.4000244141</ele>
        <time>2021-09-25T12:48:31.000Z</time>
      </trkpt>
      <trkpt lat="44.27397" lon="5.55337">
        <ele>1268.1999511719</ele>
        <time>2021-09-25T12:48:34.000Z</time>
      </trkpt>
      <trkpt lat="44.27399" lon="5.55332">
        <ele>1267.4000244141</ele>
        <time>2021-09-25T12:48:40.000Z</time>
      </trkpt>
      <trkpt lat="44.27399" lon="5.55332">
        <ele>1267.1999511719</ele>
        <time>2021-09-25T12:48:41.000Z</time>
      </trkpt>
      <trkpt lat="44.27401" lon="5.55329">
        <ele>1266.8000488281</ele>
        <time>2021-09-25T12:48:44.000Z</time>
      </trkpt>
      <trkpt lat="44.27404" lon="5.55325">
        <ele>1266</ele>
        <time>2021-09-25T12:48:48.000Z</time>
      </trkpt>
      <trkpt lat="44.27404" lon="5.55325">
        <ele>1265.8000488281</ele>
        <time>2021-09-25T12:48:49.000Z</time>
      </trkpt>
      <trkpt lat="44.27405" lon="5.55324">
        <ele>1265.8000488281</ele>
        <time>2021-09-25T12:48:50.000Z</time>
      </trkpt>
      <trkpt lat="44.27408" lon="5.55323">
        <ele>1265.1999511719</ele>
        <time>2021-09-25T12:48:54.000Z</time>
      </trkpt>
      <trkpt lat="44.2741" lon="5.55321">
        <ele>1265.1999511719</ele>
        <time>2021-09-25T12:48:57.000Z</time>
      </trkpt>
      <trkpt lat="44.27414" lon="5.55319">
        <ele>1265</ele>
        <time>2021-09-25T12:49:00.000Z</time>
      </trkpt>
      <trkpt lat="44.27416" lon="5.55318">
        <ele>1264.8000488281</ele>
        <time>2021-09-25T12:49:02.000Z</time>
      </trkpt>
      <trkpt lat="44.27417" lon="5.55316">
        <ele>1264.4000244141</ele>
        <time>2021-09-25T12:49:04.000Z</time>
      </trkpt>
      <trkpt lat="44.27419" lon="5.55315">
        <ele>1263.8000488281</ele>
        <time>2021-09-25T12:49:06.000Z</time>
      </trkpt>
      <trkpt lat="44.2742" lon="5.55314">
        <ele>1263.5999755859</ele>
        <time>2021-09-25T12:49:07.000Z</time>
      </trkpt>
      <trkpt lat="44.27422" lon="5.55312">
        <ele>1263.4000244141</ele>
        <time>2021-09-25T12:49:10.000Z</time>
      </trkpt>
      <trkpt lat="44.27423" lon="5.55311">
        <ele>1263.4000244141</ele>
        <time>2021-09-25T12:49:12.000Z</time>
      </trkpt>
      <trkpt lat="44.27427" lon="5.55311">
        <ele>1263.1999511719</ele>
        <time>2021-09-25T12:49:15.000Z</time>
      </trkpt>
      <trkpt lat="44.27429" lon="5.55311">
        <ele>1263.1999511719</ele>
        <time>2021-09-25T12:49:19.000Z</time>
      </trkpt>
      <trkpt lat="44.27429" lon="5.55311">
        <ele>1263.4000244141</ele>
        <time>2021-09-25T12:49:20.000Z</time>
      </trkpt>
      <trkpt lat="44.27435" lon="5.55311">
        <ele>1263.4000244141</ele>
        <time>2021-09-25T12:49:26.000Z</time>
      </trkpt>
      <trkpt lat="44.27436" lon="5.55311">
        <ele>1263.4000244141</ele>
        <time>2021-09-25T12:49:27.000Z</time>
      </trkpt>
      <trkpt lat="44.27437" lon="5.55311">
        <ele>1263.5999755859</ele>
        <time>2021-09-25T12:49:28.000Z</time>
      </trkpt>
      <trkpt lat="44.27437" lon="5.55311">
        <ele>1263.5999755859</ele>
        <time>2021-09-25T12:49:29.000Z</time>
      </trkpt>
      <trkpt lat="44.27439" lon="5.55313">
        <ele>1263.5999755859</ele>
        <time>2021-09-25T12:49:32.000Z</time>
      </trkpt>
      <trkpt lat="44.2744" lon="5.55313">
        <ele>1263.5999755859</ele>
        <time>2021-09-25T12:49:33.000Z</time>
      </trkpt>
      <trkpt lat="44.27441" lon="5.55312">
        <ele>1263.5999755859</ele>
        <time>2021-09-25T12:49:35.000Z</time>
      </trkpt>
      <trkpt lat="44.27441" lon="5.55311">
        <ele>1263.5999755859</ele>
        <time>2021-09-25T12:49:36.000Z</time>
      </trkpt>
      <trkpt lat="44.27442" lon="5.55311">
        <ele>1263.5999755859</ele>
        <time>2021-09-25T12:49:37.000Z</time>
      </trkpt>
      <trkpt lat="44.27443" lon="5.55311">
        <ele>1263.4000244141</ele>
        <time>2021-09-25T12:49:38.000Z</time>
      </trkpt>
      <trkpt lat="44.27445" lon="5.55312">
        <ele>1263.5999755859</ele>
        <time>2021-09-25T12:49:40.000Z</time>
      </trkpt>
      <trkpt lat="44.27448" lon="5.55312">
        <ele>1263.4000244141</ele>
        <time>2021-09-25T12:49:44.000Z</time>
      </trkpt>
      <trkpt lat="44.27451" lon="5.55313">
        <ele>1263.4000244141</ele>
        <time>2021-09-25T12:49:46.000Z</time>
      </trkpt>
      <trkpt lat="44.27452" lon="5.55313">
        <ele>1263.5999755859</ele>
        <time>2021-09-25T12:49:47.000Z</time>
      </trkpt>
      <trkpt lat="44.27454" lon="5.55313">
        <ele>1263.4000244141</ele>
        <time>2021-09-25T12:49:50.000Z</time>
      </trkpt>
      <trkpt lat="44.27456" lon="5.55312">
        <ele>1263.1999511719</ele>
        <time>2021-09-25T12:49:53.000Z</time>
      </trkpt>
      <trkpt lat="44.27458" lon="5.55311">
        <ele>1263</ele>
        <time>2021-09-25T12:49:55.000Z</time>
      </trkpt>
      <trkpt lat="44.27459" lon="5.5531">
        <ele>1263</ele>
        <time>2021-09-25T12:49:56.000Z</time>
      </trkpt>
      <trkpt lat="44.2746" lon="5.55309">
        <ele>1262.8000488281</ele>
        <time>2021-09-25T12:49:58.000Z</time>
      </trkpt>
      <trkpt lat="44.27466" lon="5.55308">
        <ele>1262.4000244141</ele>
        <time>2021-09-25T12:50:03.000Z</time>
      </trkpt>
      <trkpt lat="44.27467" lon="5.55308">
        <ele>1262.4000244141</ele>
        <time>2021-09-25T12:50:04.000Z</time>
      </trkpt>
      <trkpt lat="44.27469" lon="5.55308">
        <ele>1262.4000244141</ele>
        <time>2021-09-25T12:50:05.000Z</time>
      </trkpt>
      <trkpt lat="44.27471" lon="5.55308">
        <ele>1262.1999511719</ele>
        <time>2021-09-25T12:50:07.000Z</time>
      </trkpt>
      <trkpt lat="44.27473" lon="5.55306">
        <ele>1262</ele>
        <time>2021-09-25T12:50:10.000Z</time>
      </trkpt>
      <trkpt lat="44.27475" lon="5.55306">
        <ele>1262</ele>
        <time>2021-09-25T12:50:12.000Z</time>
      </trkpt>
      <trkpt lat="44.27476" lon="5.55307">
        <ele>1262</ele>
        <time>2021-09-25T12:50:16.000Z</time>
      </trkpt>
      <trkpt lat="44.27477" lon="5.55307">
        <ele>1262</ele>
        <time>2021-09-25T12:50:17.000Z</time>
      </trkpt>
      <trkpt lat="44.2748" lon="5.55307">
        <ele>1262.4000244141</ele>
        <time>2021-09-25T12:50:23.000Z</time>
      </trkpt>
      <trkpt lat="44.27483" lon="5.55308">
        <ele>1262.5999755859</ele>
        <time>2021-09-25T12:50:28.000Z</time>
      </trkpt>
      <trkpt lat="44.27485" lon="5.55309">
        <ele>1263</ele>
        <time>2021-09-25T12:50:31.000Z</time>
      </trkpt>
      <trkpt lat="44.27485" lon="5.5531">
        <ele>1263</ele>
        <time>2021-09-25T12:50:32.000Z</time>
      </trkpt>
      <trkpt lat="44.27489" lon="5.55315">
        <ele>1263.5999755859</ele>
        <time>2021-09-25T12:50:38.000Z</time>
      </trkpt>
      <trkpt lat="44.27489" lon="5.55316">
        <ele>1263.5999755859</ele>
        <time>2021-09-25T12:50:39.000Z</time>
      </trkpt>
      <trkpt lat="44.2749" lon="5.55316">
        <ele>1264</ele>
        <time>2021-09-25T12:50:41.000Z</time>
      </trkpt>
      <trkpt lat="44.27491" lon="5.55317">
        <ele>1264.4000244141</ele>
        <time>2021-09-25T12:50:43.000Z</time>
      </trkpt>
      <trkpt lat="44.27492" lon="5.55318">
        <ele>1264.5999755859</ele>
        <time>2021-09-25T12:50:44.000Z</time>
      </trkpt>
      <trkpt lat="44.27493" lon="5.55318">
        <ele>1264.5999755859</ele>
        <time>2021-09-25T12:50:45.000Z</time>
      </trkpt>
      <trkpt lat="44.27495" lon="5.55318">
        <ele>1264.8000488281</ele>
        <time>2021-09-25T12:50:47.000Z</time>
      </trkpt>
      <trkpt lat="44.27496" lon="5.55318">
        <ele>1264.8000488281</ele>
        <time>2021-09-25T12:50:48.000Z</time>
      </trkpt>
      <trkpt lat="44.27497" lon="5.55318">
        <ele>1265</ele>
        <time>2021-09-25T12:50:49.000Z</time>
      </trkpt>
      <trkpt lat="44.27498" lon="5.55318">
        <ele>1265</ele>
        <time>2021-09-25T12:50:50.000Z</time>
      </trkpt>
      <trkpt lat="44.27499" lon="5.55318">
        <ele>1265</ele>
        <time>2021-09-25T12:50:51.000Z</time>
      </trkpt>
      <trkpt lat="44.27501" lon="5.55318">
        <ele>1264.8000488281</ele>
        <time>2021-09-25T12:50:53.000Z</time>
      </trkpt>
      <trkpt lat="44.27502" lon="5.55317">
        <ele>1264.8000488281</ele>
        <time>2021-09-25T12:50:55.000Z</time>
      </trkpt>
      <trkpt lat="44.27504" lon="5.55317">
        <ele>1264.8000488281</ele>
        <time>2021-09-25T12:50:56.000Z</time>
      </trkpt>
      <trkpt lat="44.27504" lon="5.55316">
        <ele>1264.8000488281</ele>
        <time>2021-09-25T12:50:57.000Z</time>
      </trkpt>
      <trkpt lat="44.27505" lon="5.55315">
        <ele>1264.8000488281</ele>
        <time>2021-09-25T12:50:59.000Z</time>
      </trkpt>
      <trkpt lat="44.27506" lon="5.55315">
        <ele>1264.8000488281</ele>
        <time>2021-09-25T12:51:00.000Z</time>
      </trkpt>
      <trkpt lat="44.2751" lon="5.55317">
        <ele>1264.5999755859</ele>
        <time>2021-09-25T12:51:03.000Z</time>
      </trkpt>
      <trkpt lat="44.27512" lon="5.55317">
        <ele>1264.5999755859</ele>
        <time>2021-09-25T12:51:05.000Z</time>
      </trkpt>
      <trkpt lat="44.27514" lon="5.55317">
        <ele>1264.5999755859</ele>
        <time>2021-09-25T12:51:07.000Z</time>
      </trkpt>
      <trkpt lat="44.27515" lon="5.55318">
        <ele>1264.5999755859</ele>
        <time>2021-09-25T12:51:10.000Z</time>
      </trkpt>
      <trkpt lat="44.27519" lon="5.55318">
        <ele>1264.8000488281</ele>
        <time>2021-09-25T12:51:14.000Z</time>
      </trkpt>
      <trkpt lat="44.2752" lon="5.55318">
        <ele>1264.8000488281</ele>
        <time>2021-09-25T12:51:15.000Z</time>
      </trkpt>
      <trkpt lat="44.27522" lon="5.55317">
        <ele>1264.8000488281</ele>
        <time>2021-09-25T12:51:17.000Z</time>
      </trkpt>
      <trkpt lat="44.27526" lon="5.55317">
        <ele>1264.8000488281</ele>
        <time>2021-09-25T12:51:21.000Z</time>
      </trkpt>
      <trkpt lat="44.27529" lon="5.55317">
        <ele>1264.5999755859</ele>
        <time>2021-09-25T12:51:23.000Z</time>
      </trkpt>
      <trkpt lat="44.2753" lon="5.55317">
        <ele>1264.5999755859</ele>
        <time>2021-09-25T12:51:24.000Z</time>
      </trkpt>
      <trkpt lat="44.27532" lon="5.55317">
        <ele>1264.5999755859</ele>
        <time>2021-09-25T12:51:25.000Z</time>
      </trkpt>
      <trkpt lat="44.27533" lon="5.55317">
        <ele>1264.5999755859</ele>
        <time>2021-09-25T12:51:26.000Z</time>
      </trkpt>
      <trkpt lat="44.27535" lon="5.55317">
        <ele>1264.8000488281</ele>
        <time>2021-09-25T12:51:28.000Z</time>
      </trkpt>
      <trkpt lat="44.27536" lon="5.55316">
        <ele>1264.8000488281</ele>
        <time>2021-09-25T12:51:30.000Z</time>
      </trkpt>
      <trkpt lat="44.27537" lon="5.55316">
        <ele>1264.8000488281</ele>
        <time>2021-09-25T12:51:31.000Z</time>
      </trkpt>
      <trkpt lat="44.27537" lon="5.55316">
        <ele>1264.8000488281</ele>
        <time>2021-09-25T12:51:32.000Z</time>
      </trkpt>
      <trkpt lat="44.27537" lon="5.55316">
        <ele>1264.5999755859</ele>
        <time>2021-09-25T12:51:33.000Z</time>
      </trkpt>
      <trkpt lat="44.27538" lon="5.55316">
        <ele>1264.5999755859</ele>
        <time>2021-09-25T12:51:35.000Z</time>
      </trkpt>
      <trkpt lat="44.27538" lon="5.55316">
        <ele>1264.4000244141</ele>
        <time>2021-09-25T12:51:36.000Z</time>
      </trkpt>
      <trkpt lat="44.27539" lon="5.55316">
        <ele>1264</ele>
        <time>2021-09-25T12:51:39.000Z</time>
      </trkpt>
      <trkpt lat="44.2754" lon="5.55317">
        <ele>1263.8000488281</ele>
        <time>2021-09-25T12:51:41.000Z</time>
      </trkpt>
      <trkpt lat="44.2754" lon="5.55317">
        <ele>1263.8000488281</ele>
        <time>2021-09-25T12:51:44.000Z</time>
      </trkpt>
      <trkpt lat="44.27541" lon="5.55317">
        <ele>1263.8000488281</ele>
        <time>2021-09-25T12:51:47.000Z</time>
      </trkpt>
      <trkpt lat="44.27546" lon="5.55317">
        <ele>1264</ele>
        <time>2021-09-25T12:51:53.000Z</time>
      </trkpt>
      <trkpt lat="44.27547" lon="5.55317">
        <ele>1264.1999511719</ele>
        <time>2021-09-25T12:51:55.000Z</time>
      </trkpt>
      <trkpt lat="44.27549" lon="5.55316">
        <ele>1264.1999511719</ele>
        <time>2021-09-25T12:51:56.000Z</time>
      </trkpt>
      <trkpt lat="44.27552" lon="5.55315">
        <ele>1263.5999755859</ele>
        <time>2021-09-25T12:51:59.000Z</time>
      </trkpt>
      <trkpt lat="44.27553" lon="5.55314">
        <ele>1263.4000244141</ele>
        <time>2021-09-25T12:52:01.000Z</time>
      </trkpt>
      <trkpt lat="44.27557" lon="5.55312">
        <ele>1263.1999511719</ele>
        <time>2021-09-25T12:52:06.000Z</time>
      </trkpt>
      <trkpt lat="44.27558" lon="5.55312">
        <ele>1262.8000488281</ele>
        <time>2021-09-25T12:52:07.000Z</time>
      </trkpt>
      <trkpt lat="44.27559" lon="5.55311">
        <ele>1262.5999755859</ele>
        <time>2021-09-25T12:52:08.000Z</time>
      </trkpt>
      <trkpt lat="44.2756" lon="5.55311">
        <ele>1262.5999755859</ele>
        <time>2021-09-25T12:52:09.000Z</time>
      </trkpt>
      <trkpt lat="44.2756" lon="5.5531">
        <ele>1262.5999755859</ele>
        <time>2021-09-25T12:52:11.000Z</time>
      </trkpt>
      <trkpt lat="44.27562" lon="5.55309">
        <ele>1262.4000244141</ele>
        <time>2021-09-25T12:52:13.000Z</time>
      </trkpt>
      <trkpt lat="44.27565" lon="5.55308">
        <ele>1262.1999511719</ele>
        <time>2021-09-25T12:52:16.000Z</time>
      </trkpt>
      <trkpt lat="44.27568" lon="5.55306">
        <ele>1261.8000488281</ele>
        <time>2021-09-25T12:52:20.000Z</time>
      </trkpt>
      <trkpt lat="44.27571" lon="5.55305">
        <ele>1261.5999755859</ele>
        <time>2021-09-25T12:52:24.000Z</time>
      </trkpt>
      <trkpt lat="44.27574" lon="5.55302">
        <ele>1261.1999511719</ele>
        <time>2021-09-25T12:52:29.000Z</time>
      </trkpt>
      <trkpt lat="44.27575" lon="5.553">
        <ele>1260.4000244141</ele>
        <time>2021-09-25T12:52:32.000Z</time>
      </trkpt>
      <trkpt lat="44.27576" lon="5.553">
        <ele>1260.1999511719</ele>
        <time>2021-09-25T12:52:33.000Z</time>
      </trkpt>
      <trkpt lat="44.27578" lon="5.55299">
        <ele>1260</ele>
        <time>2021-09-25T12:52:36.000Z</time>
      </trkpt>
      <trkpt lat="44.27581" lon="5.55298">
        <ele>1259.4000244141</ele>
        <time>2021-09-25T12:52:39.000Z</time>
      </trkpt>
      <trkpt lat="44.27581" lon="5.55297">
        <ele>1259.1999511719</ele>
        <time>2021-09-25T12:52:40.000Z</time>
      </trkpt>
      <trkpt lat="44.27585" lon="5.55296">
        <ele>1259</ele>
        <time>2021-09-25T12:52:44.000Z</time>
      </trkpt>
      <trkpt lat="44.27587" lon="5.55294">
        <ele>1259</ele>
        <time>2021-09-25T12:52:47.000Z</time>
      </trkpt>
      <trkpt lat="44.27587" lon="5.55294">
        <ele>1259</ele>
        <time>2021-09-25T12:52:48.000Z</time>
      </trkpt>
      <trkpt lat="44.27589" lon="5.55293">
        <ele>1259.1999511719</ele>
        <time>2021-09-25T12:52:51.000Z</time>
      </trkpt>
      <trkpt lat="44.2759" lon="5.55292">
        <ele>1259.4000244141</ele>
        <time>2021-09-25T12:52:52.000Z</time>
      </trkpt>
      <trkpt lat="44.27591" lon="5.55292">
        <ele>1259.5999755859</ele>
        <time>2021-09-25T12:52:53.000Z</time>
      </trkpt>
      <trkpt lat="44.27596" lon="5.55289">
        <ele>1259.4000244141</ele>
        <time>2021-09-25T12:53:01.000Z</time>
      </trkpt>
      <trkpt lat="44.27601" lon="5.55287">
        <ele>1258.5999755859</ele>
        <time>2021-09-25T12:53:07.000Z</time>
      </trkpt>
      <trkpt lat="44.27603" lon="5.55286">
        <ele>1258.4000244141</ele>
        <time>2021-09-25T12:53:09.000Z</time>
      </trkpt>
      <trkpt lat="44.27606" lon="5.55283">
        <ele>1258</ele>
        <time>2021-09-25T12:53:13.000Z</time>
      </trkpt>
      <trkpt lat="44.27607" lon="5.55282">
        <ele>1258</ele>
        <time>2021-09-25T12:53:14.000Z</time>
      </trkpt>
      <trkpt lat="44.27609" lon="5.55281">
        <ele>1257.8000488281</ele>
        <time>2021-09-25T12:53:16.000Z</time>
      </trkpt>
      <trkpt lat="44.27611" lon="5.55282">
        <ele>1257.5999755859</ele>
        <time>2021-09-25T12:53:18.000Z</time>
      </trkpt>
      <trkpt lat="44.27612" lon="5.55281">
        <ele>1257.5999755859</ele>
        <time>2021-09-25T12:53:20.000Z</time>
      </trkpt>
      <trkpt lat="44.27614" lon="5.5528">
        <ele>1257.8000488281</ele>
        <time>2021-09-25T12:53:22.000Z</time>
      </trkpt>
      <trkpt lat="44.27617" lon="5.55278">
        <ele>1257.5999755859</ele>
        <time>2021-09-25T12:53:26.000Z</time>
      </trkpt>
      <trkpt lat="44.27619" lon="5.55278">
        <ele>1257.5999755859</ele>
        <time>2021-09-25T12:53:28.000Z</time>
      </trkpt>
      <trkpt lat="44.2762" lon="5.55278">
        <ele>1257.4000244141</ele>
        <time>2021-09-25T12:53:29.000Z</time>
      </trkpt>
      <trkpt lat="44.27623" lon="5.55276">
        <ele>1257.4000244141</ele>
        <time>2021-09-25T12:53:33.000Z</time>
      </trkpt>
      <trkpt lat="44.27625" lon="5.55275">
        <ele>1257.4000244141</ele>
        <time>2021-09-25T12:53:35.000Z</time>
      </trkpt>
      <trkpt lat="44.27627" lon="5.55275">
        <ele>1257.5999755859</ele>
        <time>2021-09-25T12:53:37.000Z</time>
      </trkpt>
      <trkpt lat="44.27628" lon="5.55274">
        <ele>1257.8000488281</ele>
        <time>2021-09-25T12:53:38.000Z</time>
      </trkpt>
      <trkpt lat="44.27635" lon="5.55271">
        <ele>1257.8000488281</ele>
        <time>2021-09-25T12:53:45.000Z</time>
      </trkpt>
      <trkpt lat="44.27637" lon="5.55269">
        <ele>1258</ele>
        <time>2021-09-25T12:53:47.000Z</time>
      </trkpt>
      <trkpt lat="44.27639" lon="5.55268">
        <ele>1258</ele>
        <time>2021-09-25T12:53:49.000Z</time>
      </trkpt>
      <trkpt lat="44.2764" lon="5.55268">
        <ele>1258</ele>
        <time>2021-09-25T12:53:50.000Z</time>
      </trkpt>
      <trkpt lat="44.27641" lon="5.55267">
        <ele>1258.1999511719</ele>
        <time>2021-09-25T12:53:51.000Z</time>
      </trkpt>
      <trkpt lat="44.27641" lon="5.55267">
        <ele>1258.1999511719</ele>
        <time>2021-09-25T12:53:52.000Z</time>
      </trkpt>
      <trkpt lat="44.27642" lon="5.55266">
        <ele>1258.1999511719</ele>
        <time>2021-09-25T12:53:53.000Z</time>
      </trkpt>
      <trkpt lat="44.27643" lon="5.55266">
        <ele>1258.1999511719</ele>
        <time>2021-09-25T12:53:54.000Z</time>
      </trkpt>
      <trkpt lat="44.27644" lon="5.55266">
        <ele>1257.8000488281</ele>
        <time>2021-09-25T12:53:56.000Z</time>
      </trkpt>
      <trkpt lat="44.27645" lon="5.55265">
        <ele>1258</ele>
        <time>2021-09-25T12:53:57.000Z</time>
      </trkpt>
      <trkpt lat="44.27646" lon="5.55265">
        <ele>1258</ele>
        <time>2021-09-25T12:53:58.000Z</time>
      </trkpt>
      <trkpt lat="44.27647" lon="5.55265">
        <ele>1258.1999511719</ele>
        <time>2021-09-25T12:53:59.000Z</time>
      </trkpt>
      <trkpt lat="44.27653" lon="5.55263">
        <ele>1258.5999755859</ele>
        <time>2021-09-25T12:54:06.000Z</time>
      </trkpt>
      <trkpt lat="44.27653" lon="5.55263">
        <ele>1258.8000488281</ele>
        <time>2021-09-25T12:54:07.000Z</time>
      </trkpt>
      <trkpt lat="44.27655" lon="5.55262">
        <ele>1258.8000488281</ele>
        <time>2021-09-25T12:54:09.000Z</time>
      </trkpt>
      <trkpt lat="44.2766" lon="5.55261">
        <ele>1258.8000488281</ele>
        <time>2021-09-25T12:54:14.000Z</time>
      </trkpt>
      <trkpt lat="44.27662" lon="5.55261">
        <ele>1258.8000488281</ele>
        <time>2021-09-25T12:54:16.000Z</time>
      </trkpt>
      <trkpt lat="44.27665" lon="5.55261">
        <ele>1259</ele>
        <time>2021-09-25T12:54:20.000Z</time>
      </trkpt>
      <trkpt lat="44.27667" lon="5.55261">
        <ele>1259.4000244141</ele>
        <time>2021-09-25T12:54:22.000Z</time>
      </trkpt>
      <trkpt lat="44.27668" lon="5.55261">
        <ele>1259.4000244141</ele>
        <time>2021-09-25T12:54:23.000Z</time>
      </trkpt>
      <trkpt lat="44.27669" lon="5.5526">
        <ele>1259.5999755859</ele>
        <time>2021-09-25T12:54:24.000Z</time>
      </trkpt>
      <trkpt lat="44.27673" lon="5.55257">
        <ele>1259.5999755859</ele>
        <time>2021-09-25T12:54:28.000Z</time>
      </trkpt>
      <trkpt lat="44.27673" lon="5.55257">
        <ele>1259.5999755859</ele>
        <time>2021-09-25T12:54:29.000Z</time>
      </trkpt>
      <trkpt lat="44.27675" lon="5.55257">
        <ele>1259.5999755859</ele>
        <time>2021-09-25T12:54:30.000Z</time>
      </trkpt>
      <trkpt lat="44.27675" lon="5.55256">
        <ele>1259.5999755859</ele>
        <time>2021-09-25T12:54:31.000Z</time>
      </trkpt>
      <trkpt lat="44.27679" lon="5.55256">
        <ele>1259.5999755859</ele>
        <time>2021-09-25T12:54:35.000Z</time>
      </trkpt>
      <trkpt lat="44.27681" lon="5.55255">
        <ele>1259.8000488281</ele>
        <time>2021-09-25T12:54:38.000Z</time>
      </trkpt>
      <trkpt lat="44.27683" lon="5.55254">
        <ele>1260</ele>
        <time>2021-09-25T12:54:41.000Z</time>
      </trkpt>
      <trkpt lat="44.27686" lon="5.55252">
        <ele>1260.4000244141</ele>
        <time>2021-09-25T12:54:45.000Z</time>
      </trkpt>
      <trkpt lat="44.27687" lon="5.55252">
        <ele>1260.4000244141</ele>
        <time>2021-09-25T12:54:46.000Z</time>
      </trkpt>
      <trkpt lat="44.27695" lon="5.55248">
        <ele>1260.5999755859</ele>
        <time>2021-09-25T12:54:54.000Z</time>
      </trkpt>
      <trkpt lat="44.27703" lon="5.55247">
        <ele>1260.5999755859</ele>
        <time>2021-09-25T12:55:01.000Z</time>
      </trkpt>
      <trkpt lat="44.27704" lon="5.55246">
        <ele>1260.8000488281</ele>
        <time>2021-09-25T12:55:02.000Z</time>
      </trkpt>
      <trkpt lat="44.27707" lon="5.55244">
        <ele>1260.8000488281</ele>
        <time>2021-09-25T12:55:07.000Z</time>
      </trkpt>
      <trkpt lat="44.27709" lon="5.55244">
        <ele>1261</ele>
        <time>2021-09-25T12:55:09.000Z</time>
      </trkpt>
      <trkpt lat="44.27711" lon="5.55244">
        <ele>1261.4000244141</ele>
        <time>2021-09-25T12:55:12.000Z</time>
      </trkpt>
      <trkpt lat="44.27713" lon="5.55243">
        <ele>1261.5999755859</ele>
        <time>2021-09-25T12:55:15.000Z</time>
      </trkpt>
      <trkpt lat="44.27714" lon="5.55242">
        <ele>1261.5999755859</ele>
        <time>2021-09-25T12:55:16.000Z</time>
      </trkpt>
      <trkpt lat="44.27716" lon="5.55242">
        <ele>1261.8000488281</ele>
        <time>2021-09-25T12:55:19.000Z</time>
      </trkpt>
      <trkpt lat="44.27719" lon="5.55242">
        <ele>1262.1999511719</ele>
        <time>2021-09-25T12:55:22.000Z</time>
      </trkpt>
      <trkpt lat="44.27719" lon="5.55242">
        <ele>1262.1999511719</ele>
        <time>2021-09-25T12:55:23.000Z</time>
      </trkpt>
      <trkpt lat="44.2772" lon="5.5524">
        <ele>1262.1999511719</ele>
        <time>2021-09-25T12:55:25.000Z</time>
      </trkpt>
      <trkpt lat="44.27722" lon="5.55239">
        <ele>1262.5999755859</ele>
        <time>2021-09-25T12:55:28.000Z</time>
      </trkpt>
      <trkpt lat="44.27723" lon="5.55238">
        <ele>1262.5999755859</ele>
        <time>2021-09-25T12:55:29.000Z</time>
      </trkpt>
      <trkpt lat="44.27724" lon="5.55238">
        <ele>1262.8000488281</ele>
        <time>2021-09-25T12:55:31.000Z</time>
      </trkpt>
      <trkpt lat="44.27727" lon="5.55237">
        <ele>1263.1999511719</ele>
        <time>2021-09-25T12:55:35.000Z</time>
      </trkpt>
      <trkpt lat="44.2773" lon="5.55237">
        <ele>1263.1999511719</ele>
        <time>2021-09-25T12:55:39.000Z</time>
      </trkpt>
      <trkpt lat="44.27732" lon="5.55237">
        <ele>1263.1999511719</ele>
        <time>2021-09-25T12:55:41.000Z</time>
      </trkpt>
      <trkpt lat="44.27734" lon="5.55237">
        <ele>1263.5999755859</ele>
        <time>2021-09-25T12:55:45.000Z</time>
      </trkpt>
      <trkpt lat="44.27735" lon="5.55237">
        <ele>1263.5999755859</ele>
        <time>2021-09-25T12:55:46.000Z</time>
      </trkpt>
      <trkpt lat="44.27736" lon="5.55237">
        <ele>1263.8000488281</ele>
        <time>2021-09-25T12:55:47.000Z</time>
      </trkpt>
      <trkpt lat="44.27738" lon="5.55237">
        <ele>1264.1999511719</ele>
        <time>2021-09-25T12:55:49.000Z</time>
      </trkpt>
      <trkpt lat="44.27741" lon="5.55237">
        <ele>1264.8000488281</ele>
        <time>2021-09-25T12:55:54.000Z</time>
      </trkpt>
      <trkpt lat="44.27742" lon="5.55236">
        <ele>1265</ele>
        <time>2021-09-25T12:55:55.000Z</time>
      </trkpt>
      <trkpt lat="44.27748" lon="5.55234">
        <ele>1265.5999755859</ele>
        <time>2021-09-25T12:56:03.000Z</time>
      </trkpt>
      <trkpt lat="44.2775" lon="5.55233">
        <ele>1265.8000488281</ele>
        <time>2021-09-25T12:56:05.000Z</time>
      </trkpt>
      <trkpt lat="44.2775" lon="5.55232">
        <ele>1265.8000488281</ele>
        <time>2021-09-25T12:56:06.000Z</time>
      </trkpt>
      <trkpt lat="44.27751" lon="5.55232">
        <ele>1266</ele>
        <time>2021-09-25T12:56:07.000Z</time>
      </trkpt>
      <trkpt lat="44.27753" lon="5.55231">
        <ele>1266.4000244141</ele>
        <time>2021-09-25T12:56:09.000Z</time>
      </trkpt>
      <trkpt lat="44.27755" lon="5.55231">
        <ele>1266.5999755859</ele>
        <time>2021-09-25T12:56:11.000Z</time>
      </trkpt>
      <trkpt lat="44.27757" lon="5.55229">
        <ele>1266.8000488281</ele>
        <time>2021-09-25T12:56:14.000Z</time>
      </trkpt>
      <trkpt lat="44.27759" lon="5.55229">
        <ele>1266.5999755859</ele>
        <time>2021-09-25T12:56:15.000Z</time>
      </trkpt>
      <trkpt lat="44.27759" lon="5.55228">
        <ele>1266.8000488281</ele>
        <time>2021-09-25T12:56:16.000Z</time>
      </trkpt>
      <trkpt lat="44.2776" lon="5.55227">
        <ele>1266.8000488281</ele>
        <time>2021-09-25T12:56:17.000Z</time>
      </trkpt>
      <trkpt lat="44.27762" lon="5.55226">
        <ele>1266.4000244141</ele>
        <time>2021-09-25T12:56:20.000Z</time>
      </trkpt>
      <trkpt lat="44.27765" lon="5.55225">
        <ele>1266.1999511719</ele>
        <time>2021-09-25T12:56:23.000Z</time>
      </trkpt>
      <trkpt lat="44.27766" lon="5.55224">
        <ele>1266.1999511719</ele>
        <time>2021-09-25T12:56:24.000Z</time>
      </trkpt>
      <trkpt lat="44.27767" lon="5.55224">
        <ele>1266.1999511719</ele>
        <time>2021-09-25T12:56:25.000Z</time>
      </trkpt>
      <trkpt lat="44.2777" lon="5.55222">
        <ele>1266.4000244141</ele>
        <time>2021-09-25T12:56:29.000Z</time>
      </trkpt>
      <trkpt lat="44.27771" lon="5.5522">
        <ele>1266.4000244141</ele>
        <time>2021-09-25T12:56:32.000Z</time>
      </trkpt>
      <trkpt lat="44.27773" lon="5.5522">
        <ele>1266.5999755859</ele>
        <time>2021-09-25T12:56:34.000Z</time>
      </trkpt>
      <trkpt lat="44.27774" lon="5.55219">
        <ele>1267</ele>
        <time>2021-09-25T12:56:36.000Z</time>
      </trkpt>
      <trkpt lat="44.27775" lon="5.55218">
        <ele>1267.1999511719</ele>
        <time>2021-09-25T12:56:39.000Z</time>
      </trkpt>
      <trkpt lat="44.27777" lon="5.55217">
        <ele>1267.5999755859</ele>
        <time>2021-09-25T12:56:44.000Z</time>
      </trkpt>
      <trkpt lat="44.27778" lon="5.55217">
        <ele>1267.4000244141</ele>
        <time>2021-09-25T12:56:48.000Z</time>
      </trkpt>
      <trkpt lat="44.2778" lon="5.55217">
        <ele>1267.5999755859</ele>
        <time>2021-09-25T12:56:51.000Z</time>
      </trkpt>
      <trkpt lat="44.27782" lon="5.55216">
        <ele>1267.5999755859</ele>
        <time>2021-09-25T12:56:54.000Z</time>
      </trkpt>
      <trkpt lat="44.27788" lon="5.55214">
        <ele>1267.4000244141</ele>
        <time>2021-09-25T12:57:00.000Z</time>
      </trkpt>
      <trkpt lat="44.27795" lon="5.55211">
        <ele>1267.8000488281</ele>
        <time>2021-09-25T12:57:07.000Z</time>
      </trkpt>
      <trkpt lat="44.27797" lon="5.5521">
        <ele>1268</ele>
        <time>2021-09-25T12:57:10.000Z</time>
      </trkpt>
      <trkpt lat="44.27799" lon="5.5521">
        <ele>1268.1999511719</ele>
        <time>2021-09-25T12:57:12.000Z</time>
      </trkpt>
      <trkpt lat="44.27799" lon="5.55209">
        <ele>1268.1999511719</ele>
        <time>2021-09-25T12:57:13.000Z</time>
      </trkpt>
      <trkpt lat="44.27801" lon="5.55209">
        <ele>1268.1999511719</ele>
        <time>2021-09-25T12:57:15.000Z</time>
      </trkpt>
      <trkpt lat="44.27802" lon="5.55208">
        <ele>1268.1999511719</ele>
        <time>2021-09-25T12:57:17.000Z</time>
      </trkpt>
      <trkpt lat="44.27803" lon="5.55208">
        <ele>1268.1999511719</ele>
        <time>2021-09-25T12:57:18.000Z</time>
      </trkpt>
      <trkpt lat="44.27805" lon="5.55206">
        <ele>1268.1999511719</ele>
        <time>2021-09-25T12:57:22.000Z</time>
      </trkpt>
      <trkpt lat="44.2781" lon="5.55203">
        <ele>1268</ele>
        <time>2021-09-25T12:57:28.000Z</time>
      </trkpt>
      <trkpt lat="44.27812" lon="5.55202">
        <ele>1268</ele>
        <time>2021-09-25T12:57:30.000Z</time>
      </trkpt>
      <trkpt lat="44.27818" lon="5.55199">
        <ele>1268</ele>
        <time>2021-09-25T12:57:38.000Z</time>
      </trkpt>
      <trkpt lat="44.27819" lon="5.55197">
        <ele>1268</ele>
        <time>2021-09-25T12:57:40.000Z</time>
      </trkpt>
      <trkpt lat="44.27822" lon="5.55197">
        <ele>1268.1999511719</ele>
        <time>2021-09-25T12:57:44.000Z</time>
      </trkpt>
      <trkpt lat="44.27826" lon="5.55196">
        <ele>1268.1999511719</ele>
        <time>2021-09-25T12:57:49.000Z</time>
      </trkpt>
      <trkpt lat="44.27829" lon="5.55196">
        <ele>1268.4000244141</ele>
        <time>2021-09-25T12:57:53.000Z</time>
      </trkpt>
      <trkpt lat="44.27831" lon="5.55196">
        <ele>1268.8000488281</ele>
        <time>2021-09-25T12:57:56.000Z</time>
      </trkpt>
      <trkpt lat="44.27833" lon="5.55197">
        <ele>1269</ele>
        <time>2021-09-25T12:57:58.000Z</time>
      </trkpt>
      <trkpt lat="44.27837" lon="5.55197">
        <ele>1269</ele>
        <time>2021-09-25T12:58:01.000Z</time>
      </trkpt>
      <trkpt lat="44.27839" lon="5.55197">
        <ele>1269.1999511719</ele>
        <time>2021-09-25T12:58:03.000Z</time>
      </trkpt>
      <trkpt lat="44.2784" lon="5.55197">
        <ele>1269.1999511719</ele>
        <time>2021-09-25T12:58:05.000Z</time>
      </trkpt>
      <trkpt lat="44.27842" lon="5.55196">
        <ele>1269.1999511719</ele>
        <time>2021-09-25T12:58:08.000Z</time>
      </trkpt>
      <trkpt lat="44.27845" lon="5.55197">
        <ele>1269.1999511719</ele>
        <time>2021-09-25T12:58:11.000Z</time>
      </trkpt>
      <trkpt lat="44.27848" lon="5.55198">
        <ele>1269</ele>
        <time>2021-09-25T12:58:14.000Z</time>
      </trkpt>
      <trkpt lat="44.27853" lon="5.55197">
        <ele>1269</ele>
        <time>2021-09-25T12:58:18.000Z</time>
      </trkpt>
      <trkpt lat="44.27857" lon="5.55198">
        <ele>1269.5999755859</ele>
        <time>2021-09-25T12:58:23.000Z</time>
      </trkpt>
      <trkpt lat="44.27861" lon="5.552">
        <ele>1269</ele>
        <time>2021-09-25T12:58:27.000Z</time>
      </trkpt>
      <trkpt lat="44.27867" lon="5.552">
        <ele>1269.4000244141</ele>
        <time>2021-09-25T12:58:31.000Z</time>
      </trkpt>
      <trkpt lat="44.27869" lon="5.552">
        <ele>1269.5999755859</ele>
        <time>2021-09-25T12:58:33.000Z</time>
      </trkpt>
      <trkpt lat="44.27872" lon="5.552">
        <ele>1269.5999755859</ele>
        <time>2021-09-25T12:58:35.000Z</time>
      </trkpt>
      <trkpt lat="44.27874" lon="5.552">
        <ele>1269.5999755859</ele>
        <time>2021-09-25T12:58:37.000Z</time>
      </trkpt>
      <trkpt lat="44.27878" lon="5.55199">
        <ele>1269.8000488281</ele>
        <time>2021-09-25T12:58:42.000Z</time>
      </trkpt>
      <trkpt lat="44.27879" lon="5.55198">
        <ele>1270.1999511719</ele>
        <time>2021-09-25T12:58:43.000Z</time>
      </trkpt>
      <trkpt lat="44.27882" lon="5.55197">
        <ele>1270.4000244141</ele>
        <time>2021-09-25T12:58:46.000Z</time>
      </trkpt>
      <trkpt lat="44.27883" lon="5.55197">
        <ele>1270.1999511719</ele>
        <time>2021-09-25T12:58:47.000Z</time>
      </trkpt>
      <trkpt lat="44.27883" lon="5.55197">
        <ele>1270</ele>
        <time>2021-09-25T12:58:48.000Z</time>
      </trkpt>
      <trkpt lat="44.27885" lon="5.55197">
        <ele>1269.5999755859</ele>
        <time>2021-09-25T12:58:50.000Z</time>
      </trkpt>
      <trkpt lat="44.27886" lon="5.55197">
        <ele>1269.8000488281</ele>
        <time>2021-09-25T12:58:51.000Z</time>
      </trkpt>
      <trkpt lat="44.27889" lon="5.55198">
        <ele>1270.1999511719</ele>
        <time>2021-09-25T12:58:55.000Z</time>
      </trkpt>
      <trkpt lat="44.2789" lon="5.55198">
        <ele>1270.4000244141</ele>
        <time>2021-09-25T12:58:56.000Z</time>
      </trkpt>
      <trkpt lat="44.27892" lon="5.55199">
        <ele>1270.5999755859</ele>
        <time>2021-09-25T12:58:58.000Z</time>
      </trkpt>
      <trkpt lat="44.27894" lon="5.552">
        <ele>1271.1999511719</ele>
        <time>2021-09-25T12:59:00.000Z</time>
      </trkpt>
      <trkpt lat="44.27895" lon="5.552">
        <ele>1271.5999755859</ele>
        <time>2021-09-25T12:59:02.000Z</time>
      </trkpt>
      <trkpt lat="44.27896" lon="5.552">
        <ele>1271.5999755859</ele>
        <time>2021-09-25T12:59:04.000Z</time>
      </trkpt>
      <trkpt lat="44.27897" lon="5.55201">
        <ele>1271.4000244141</ele>
        <time>2021-09-25T12:59:06.000Z</time>
      </trkpt>
      <trkpt lat="44.279" lon="5.552">
        <ele>1271.1999511719</ele>
        <time>2021-09-25T12:59:10.000Z</time>
      </trkpt>
      <trkpt lat="44.27901" lon="5.552">
        <ele>1271.1999511719</ele>
        <time>2021-09-25T12:59:11.000Z</time>
      </trkpt>
      <trkpt lat="44.27902" lon="5.552">
        <ele>1271.1999511719</ele>
        <time>2021-09-25T12:59:12.000Z</time>
      </trkpt>
      <trkpt lat="44.27904" lon="5.552">
        <ele>1271.1999511719</ele>
        <time>2021-09-25T12:59:14.000Z</time>
      </trkpt>
      <trkpt lat="44.27906" lon="5.55199">
        <ele>1270.5999755859</ele>
        <time>2021-09-25T12:59:16.000Z</time>
      </trkpt>
      <trkpt lat="44.27906" lon="5.55199">
        <ele>1270.1999511719</ele>
        <time>2021-09-25T12:59:17.000Z</time>
      </trkpt>
      <trkpt lat="44.27907" lon="5.552">
        <ele>1270</ele>
        <time>2021-09-25T12:59:18.000Z</time>
      </trkpt>
      <trkpt lat="44.27908" lon="5.552">
        <ele>1269.8000488281</ele>
        <time>2021-09-25T12:59:19.000Z</time>
      </trkpt>
      <trkpt lat="44.27912" lon="5.55203">
        <ele>1270.4000244141</ele>
        <time>2021-09-25T12:59:25.000Z</time>
      </trkpt>
      <trkpt lat="44.27912" lon="5.55203">
        <ele>1270</ele>
        <time>2021-09-25T12:59:26.000Z</time>
      </trkpt>
      <trkpt lat="44.27915" lon="5.55204">
        <ele>1269.8000488281</ele>
        <time>2021-09-25T12:59:29.000Z</time>
      </trkpt>
      <trkpt lat="44.27918" lon="5.55203">
        <ele>1269.8000488281</ele>
        <time>2021-09-25T12:59:32.000Z</time>
      </trkpt>
      <trkpt lat="44.27921" lon="5.55204">
        <ele>1269.5999755859</ele>
        <time>2021-09-25T12:59:38.000Z</time>
      </trkpt>
      <trkpt lat="44.27925" lon="5.55208">
        <ele>1270.4000244141</ele>
        <time>2021-09-25T12:59:45.000Z</time>
      </trkpt>
      <trkpt lat="44.27928" lon="5.55209">
        <ele>1271.1999511719</ele>
        <time>2021-09-25T12:59:49.000Z</time>
      </trkpt>
      <trkpt lat="44.2793" lon="5.5521">
        <ele>1271.4000244141</ele>
        <time>2021-09-25T12:59:51.000Z</time>
      </trkpt>
      <trkpt lat="44.2793" lon="5.55211">
        <ele>1271.4000244141</ele>
        <time>2021-09-25T12:59:52.000Z</time>
      </trkpt>
      <trkpt lat="44.27931" lon="5.55211">
        <ele>1271.5999755859</ele>
        <time>2021-09-25T12:59:53.000Z</time>
      </trkpt>
      <trkpt lat="44.27932" lon="5.55212">
        <ele>1271.5999755859</ele>
        <time>2021-09-25T12:59:54.000Z</time>
      </trkpt>
      <trkpt lat="44.27934" lon="5.55214">
        <ele>1271.5999755859</ele>
        <time>2021-09-25T12:59:56.000Z</time>
      </trkpt>
      <trkpt lat="44.27935" lon="5.55215">
        <ele>1271.8000488281</ele>
        <time>2021-09-25T12:59:58.000Z</time>
      </trkpt>
      <trkpt lat="44.27937" lon="5.55215">
        <ele>1272</ele>
        <time>2021-09-25T13:00:00.000Z</time>
      </trkpt>
      <trkpt lat="44.27938" lon="5.55215">
        <ele>1272.1999511719</ele>
        <time>2021-09-25T13:00:01.000Z</time>
      </trkpt>
      <trkpt lat="44.2794" lon="5.55217">
        <ele>1272.1999511719</ele>
        <time>2021-09-25T13:00:03.000Z</time>
      </trkpt>
      <trkpt lat="44.27941" lon="5.55217">
        <ele>1272.1999511719</ele>
        <time>2021-09-25T13:00:06.000Z</time>
      </trkpt>
      <trkpt lat="44.27942" lon="5.55217">
        <ele>1272.1999511719</ele>
        <time>2021-09-25T13:00:07.000Z</time>
      </trkpt>
      <trkpt lat="44.27943" lon="5.55218">
        <ele>1272.1999511719</ele>
        <time>2021-09-25T13:00:08.000Z</time>
      </trkpt>
      <trkpt lat="44.27946" lon="5.5522">
        <ele>1272.4000244141</ele>
        <time>2021-09-25T13:00:12.000Z</time>
      </trkpt>
      <trkpt lat="44.27947" lon="5.5522">
        <ele>1272.4000244141</ele>
        <time>2021-09-25T13:00:13.000Z</time>
      </trkpt>
      <trkpt lat="44.2795" lon="5.5522">
        <ele>1272.8000488281</ele>
        <time>2021-09-25T13:00:15.000Z</time>
      </trkpt>
      <trkpt lat="44.27958" lon="5.55222">
        <ele>1273.4000244141</ele>
        <time>2021-09-25T13:00:22.000Z</time>
      </trkpt>
      <trkpt lat="44.27961" lon="5.55222">
        <ele>1273.5999755859</ele>
        <time>2021-09-25T13:00:25.000Z</time>
      </trkpt>
      <trkpt lat="44.27965" lon="5.5522">
        <ele>1274</ele>
        <time>2021-09-25T13:00:29.000Z</time>
      </trkpt>
      <trkpt lat="44.27967" lon="5.55221">
        <ele>1273.8000488281</ele>
        <time>2021-09-25T13:00:32.000Z</time>
      </trkpt>
      <trkpt lat="44.27968" lon="5.55222">
        <ele>1273.8000488281</ele>
        <time>2021-09-25T13:00:33.000Z</time>
      </trkpt>
      <trkpt lat="44.27969" lon="5.55224">
        <ele>1274</ele>
        <time>2021-09-25T13:00:35.000Z</time>
      </trkpt>
      <trkpt lat="44.2797" lon="5.55225">
        <ele>1274.4000244141</ele>
        <time>2021-09-25T13:00:36.000Z</time>
      </trkpt>
      <trkpt lat="44.2797" lon="5.55226">
        <ele>1274.5999755859</ele>
        <time>2021-09-25T13:00:37.000Z</time>
      </trkpt>
      <trkpt lat="44.27971" lon="5.55227">
        <ele>1274.8000488281</ele>
        <time>2021-09-25T13:00:39.000Z</time>
      </trkpt>
      <trkpt lat="44.27972" lon="5.55228">
        <ele>1275</ele>
        <time>2021-09-25T13:00:40.000Z</time>
      </trkpt>
      <trkpt lat="44.27974" lon="5.5523">
        <ele>1275.1999511719</ele>
        <time>2021-09-25T13:00:44.000Z</time>
      </trkpt>
      <trkpt lat="44.27974" lon="5.55231">
        <ele>1275.1999511719</ele>
        <time>2021-09-25T13:00:45.000Z</time>
      </trkpt>
      <trkpt lat="44.27975" lon="5.55231">
        <ele>1275.1999511719</ele>
        <time>2021-09-25T13:00:46.000Z</time>
      </trkpt>
      <trkpt lat="44.27976" lon="5.55231">
        <ele>1275.1999511719</ele>
        <time>2021-09-25T13:00:47.000Z</time>
      </trkpt>
      <trkpt lat="44.27978" lon="5.55231">
        <ele>1275.1999511719</ele>
        <time>2021-09-25T13:00:49.000Z</time>
      </trkpt>
      <trkpt lat="44.2798" lon="5.5523">
        <ele>1275.1999511719</ele>
        <time>2021-09-25T13:00:51.000Z</time>
      </trkpt>
      <trkpt lat="44.27981" lon="5.5523">
        <ele>1275.1999511719</ele>
        <time>2021-09-25T13:00:52.000Z</time>
      </trkpt>
      <trkpt lat="44.27983" lon="5.55229">
        <ele>1275.4000244141</ele>
        <time>2021-09-25T13:00:54.000Z</time>
      </trkpt>
      <trkpt lat="44.27985" lon="5.55228">
        <ele>1275.5999755859</ele>
        <time>2021-09-25T13:00:55.000Z</time>
      </trkpt>
      <trkpt lat="44.27986" lon="5.55227">
        <ele>1275.5999755859</ele>
        <time>2021-09-25T13:00:56.000Z</time>
      </trkpt>
      <trkpt lat="44.27987" lon="5.55226">
        <ele>1275.5999755859</ele>
        <time>2021-09-25T13:00:58.000Z</time>
      </trkpt>
      <trkpt lat="44.27987" lon="5.55226">
        <ele>1275.5999755859</ele>
        <time>2021-09-25T13:01:00.000Z</time>
      </trkpt>
      <trkpt lat="44.27987" lon="5.55226">
        <ele>1275.5999755859</ele>
        <time>2021-09-25T13:01:02.000Z</time>
      </trkpt>
      <trkpt lat="44.27989" lon="5.55229">
        <ele>1276</ele>
        <time>2021-09-25T13:01:08.000Z</time>
      </trkpt>
      <trkpt lat="44.2799" lon="5.5523">
        <ele>1276.4000244141</ele>
        <time>2021-09-25T13:01:09.000Z</time>
      </trkpt>
      <trkpt lat="44.27991" lon="5.5523">
        <ele>1276.1999511719</ele>
        <time>2021-09-25T13:01:11.000Z</time>
      </trkpt>
      <trkpt lat="44.27994" lon="5.55234">
        <ele>1276.5999755859</ele>
        <time>2021-09-25T13:01:16.000Z</time>
      </trkpt>
      <trkpt lat="44.27994" lon="5.55235">
        <ele>1276.8000488281</ele>
        <time>2021-09-25T13:01:17.000Z</time>
      </trkpt>
      <trkpt lat="44.27995" lon="5.55236">
        <ele>1277.1999511719</ele>
        <time>2021-09-25T13:01:19.000Z</time>
      </trkpt>
      <trkpt lat="44.27997" lon="5.55238">
        <ele>1277.8000488281</ele>
        <time>2021-09-25T13:01:23.000Z</time>
      </trkpt>
      <trkpt lat="44.27998" lon="5.55238">
        <ele>1277.8000488281</ele>
        <time>2021-09-25T13:01:24.000Z</time>
      </trkpt>
      <trkpt lat="44.27999" lon="5.5524">
        <ele>1278.5999755859</ele>
        <time>2021-09-25T13:01:29.000Z</time>
      </trkpt>
      <trkpt lat="44.28" lon="5.55241">
        <ele>1278.8000488281</ele>
        <time>2021-09-25T13:01:30.000Z</time>
      </trkpt>
      <trkpt lat="44.28001" lon="5.55241">
        <ele>1279</ele>
        <time>2021-09-25T13:01:31.000Z</time>
      </trkpt>
      <trkpt lat="44.28001" lon="5.55241">
        <ele>1279.1999511719</ele>
        <time>2021-09-25T13:01:32.000Z</time>
      </trkpt>
      <trkpt lat="44.28002" lon="5.55242">
        <ele>1279.1999511719</ele>
        <time>2021-09-25T13:01:33.000Z</time>
      </trkpt>
      <trkpt lat="44.28001" lon="5.55242">
        <ele>1279.5999755859</ele>
        <time>2021-09-25T13:01:35.000Z</time>
      </trkpt>
      <trkpt lat="44.28002" lon="5.55243">
        <ele>1280</ele>
        <time>2021-09-25T13:01:38.000Z</time>
      </trkpt>
      <trkpt lat="44.28003" lon="5.55245">
        <ele>1280.4000244141</ele>
        <time>2021-09-25T13:01:41.000Z</time>
      </trkpt>
      <trkpt lat="44.28004" lon="5.55246">
        <ele>1280.5999755859</ele>
        <time>2021-09-25T13:01:42.000Z</time>
      </trkpt>
      <trkpt lat="44.28006" lon="5.55247">
        <ele>1280.8000488281</ele>
        <time>2021-09-25T13:01:46.000Z</time>
      </trkpt>
      <trkpt lat="44.28008" lon="5.55247">
        <ele>1281</ele>
        <time>2021-09-25T13:01:49.000Z</time>
      </trkpt>
      <trkpt lat="44.28015" lon="5.55243">
        <ele>1280.5999755859</ele>
        <time>2021-09-25T13:01:56.000Z</time>
      </trkpt>
      <trkpt lat="44.28016" lon="5.55244">
        <ele>1280.4000244141</ele>
        <time>2021-09-25T13:01:58.000Z</time>
      </trkpt>
      <trkpt lat="44.28018" lon="5.55244">
        <ele>1280</ele>
        <time>2021-09-25T13:02:00.000Z</time>
      </trkpt>
      <trkpt lat="44.28018" lon="5.55244">
        <ele>1279.8000488281</ele>
        <time>2021-09-25T13:02:01.000Z</time>
      </trkpt>
      <trkpt lat="44.2802" lon="5.55243">
        <ele>1279.1999511719</ele>
        <time>2021-09-25T13:02:04.000Z</time>
      </trkpt>
      <trkpt lat="44.28021" lon="5.55243">
        <ele>1278.8000488281</ele>
        <time>2021-09-25T13:02:05.000Z</time>
      </trkpt>
      <trkpt lat="44.28024" lon="5.55242">
        <ele>1278.5999755859</ele>
        <time>2021-09-25T13:02:08.000Z</time>
      </trkpt>
      <trkpt lat="44.28027" lon="5.55242">
        <ele>1278.4000244141</ele>
        <time>2021-09-25T13:02:11.000Z</time>
      </trkpt>
      <trkpt lat="44.28031" lon="5.55243">
        <ele>1278.4000244141</ele>
        <time>2021-09-25T13:02:15.000Z</time>
      </trkpt>
      <trkpt lat="44.28032" lon="5.5524">
        <ele>1278.4000244141</ele>
        <time>2021-09-25T13:02:18.000Z</time>
      </trkpt>
      <trkpt lat="44.28034" lon="5.5524">
        <ele>1278.1999511719</ele>
        <time>2021-09-25T13:02:20.000Z</time>
      </trkpt>
      <trkpt lat="44.28036" lon="5.55241">
        <ele>1278</ele>
        <time>2021-09-25T13:02:22.000Z</time>
      </trkpt>
      <trkpt lat="44.28037" lon="5.55242">
        <ele>1278</ele>
        <time>2021-09-25T13:02:24.000Z</time>
      </trkpt>
      <trkpt lat="44.28038" lon="5.55242">
        <ele>1277.8000488281</ele>
        <time>2021-09-25T13:02:25.000Z</time>
      </trkpt>
      <trkpt lat="44.28039" lon="5.55242">
        <ele>1278</ele>
        <time>2021-09-25T13:02:26.000Z</time>
      </trkpt>
      <trkpt lat="44.28042" lon="5.55244">
        <ele>1279</ele>
        <time>2021-09-25T13:02:30.000Z</time>
      </trkpt>
      <trkpt lat="44.28043" lon="5.55244">
        <ele>1279.1999511719</ele>
        <time>2021-09-25T13:02:33.000Z</time>
      </trkpt>
      <trkpt lat="44.28049" lon="5.55246">
        <ele>1279</ele>
        <time>2021-09-25T13:02:39.000Z</time>
      </trkpt>
      <trkpt lat="44.2805" lon="5.55246">
        <ele>1279</ele>
        <time>2021-09-25T13:02:40.000Z</time>
      </trkpt>
      <trkpt lat="44.28052" lon="5.55246">
        <ele>1279</ele>
        <time>2021-09-25T13:02:42.000Z</time>
      </trkpt>
      <trkpt lat="44.28054" lon="5.55247">
        <ele>1279</ele>
        <time>2021-09-25T13:02:44.000Z</time>
      </trkpt>
      <trkpt lat="44.28056" lon="5.55247">
        <ele>1279.1999511719</ele>
        <time>2021-09-25T13:02:47.000Z</time>
      </trkpt>
      <trkpt lat="44.28058" lon="5.55249">
        <ele>1279.1999511719</ele>
        <time>2021-09-25T13:02:50.000Z</time>
      </trkpt>
      <trkpt lat="44.2806" lon="5.55249">
        <ele>1279.4000244141</ele>
        <time>2021-09-25T13:02:53.000Z</time>
      </trkpt>
      <trkpt lat="44.28064" lon="5.55252">
        <ele>1279.1999511719</ele>
        <time>2021-09-25T13:02:59.000Z</time>
      </trkpt>
      <trkpt lat="44.28066" lon="5.55252">
        <ele>1279.1999511719</ele>
        <time>2021-09-25T13:03:01.000Z</time>
      </trkpt>
      <trkpt lat="44.28071" lon="5.55255">
        <ele>1279.5999755859</ele>
        <time>2021-09-25T13:03:06.000Z</time>
      </trkpt>
      <trkpt lat="44.28075" lon="5.55254">
        <ele>1278.5999755859</ele>
        <time>2021-09-25T13:03:12.000Z</time>
      </trkpt>
      <trkpt lat="44.28079" lon="5.55255">
        <ele>1278.1999511719</ele>
        <time>2021-09-25T13:03:17.000Z</time>
      </trkpt>
      <trkpt lat="44.28082" lon="5.55256">
        <ele>1278.1999511719</ele>
        <time>2021-09-25T13:03:19.000Z</time>
      </trkpt>
      <trkpt lat="44.28083" lon="5.55256">
        <ele>1278</ele>
        <time>2021-09-25T13:03:20.000Z</time>
      </trkpt>
      <trkpt lat="44.28084" lon="5.55256">
        <ele>1278</ele>
        <time>2021-09-25T13:03:21.000Z</time>
      </trkpt>
      <trkpt lat="44.28087" lon="5.55257">
        <ele>1277.8000488281</ele>
        <time>2021-09-25T13:03:25.000Z</time>
      </trkpt>
      <trkpt lat="44.28089" lon="5.55257">
        <ele>1277.8000488281</ele>
        <time>2021-09-25T13:03:26.000Z</time>
      </trkpt>
      <trkpt lat="44.2809" lon="5.55257">
        <ele>1277.4000244141</ele>
        <time>2021-09-25T13:03:28.000Z</time>
      </trkpt>
      <trkpt lat="44.28092" lon="5.55257">
        <ele>1277</ele>
        <time>2021-09-25T13:03:30.000Z</time>
      </trkpt>
      <trkpt lat="44.28094" lon="5.55257">
        <ele>1277</ele>
        <time>2021-09-25T13:03:31.000Z</time>
      </trkpt>
      <trkpt lat="44.28094" lon="5.55257">
        <ele>1277</ele>
        <time>2021-09-25T13:03:32.000Z</time>
      </trkpt>
      <trkpt lat="44.28096" lon="5.55257">
        <ele>1276.8000488281</ele>
        <time>2021-09-25T13:03:33.000Z</time>
      </trkpt>
      <trkpt lat="44.28098" lon="5.55256">
        <ele>1276.5999755859</ele>
        <time>2021-09-25T13:03:35.000Z</time>
      </trkpt>
      <trkpt lat="44.281" lon="5.55256">
        <ele>1276.5999755859</ele>
        <time>2021-09-25T13:03:37.000Z</time>
      </trkpt>
      <trkpt lat="44.28101" lon="5.55256">
        <ele>1276.8000488281</ele>
        <time>2021-09-25T13:03:39.000Z</time>
      </trkpt>
      <trkpt lat="44.28103" lon="5.55257">
        <ele>1277</ele>
        <time>2021-09-25T13:03:42.000Z</time>
      </trkpt>
      <trkpt lat="44.28107" lon="5.55259">
        <ele>1277.1999511719</ele>
        <time>2021-09-25T13:03:46.000Z</time>
      </trkpt>
      <trkpt lat="44.2811" lon="5.5526">
        <ele>1277.4000244141</ele>
        <time>2021-09-25T13:03:49.000Z</time>
      </trkpt>
      <trkpt lat="44.28114" lon="5.55261">
        <ele>1277.5999755859</ele>
        <time>2021-09-25T13:03:53.000Z</time>
      </trkpt>
      <trkpt lat="44.28116" lon="5.55262">
        <ele>1277.5999755859</ele>
        <time>2021-09-25T13:03:55.000Z</time>
      </trkpt>
      <trkpt lat="44.28117" lon="5.55262">
        <ele>1277.8000488281</ele>
        <time>2021-09-25T13:03:56.000Z</time>
      </trkpt>
      <trkpt lat="44.28118" lon="5.55262">
        <ele>1278</ele>
        <time>2021-09-25T13:03:57.000Z</time>
      </trkpt>
      <trkpt lat="44.28119" lon="5.55262">
        <ele>1278.1999511719</ele>
        <time>2021-09-25T13:03:59.000Z</time>
      </trkpt>
      <trkpt lat="44.28121" lon="5.55262">
        <ele>1278.4000244141</ele>
        <time>2021-09-25T13:04:01.000Z</time>
      </trkpt>
      <trkpt lat="44.28123" lon="5.55262">
        <ele>1278.4000244141</ele>
        <time>2021-09-25T13:04:04.000Z</time>
      </trkpt>
      <trkpt lat="44.28125" lon="5.55263">
        <ele>1279</ele>
        <time>2021-09-25T13:04:06.000Z</time>
      </trkpt>
      <trkpt lat="44.28126" lon="5.55264">
        <ele>1279.1999511719</ele>
        <time>2021-09-25T13:04:08.000Z</time>
      </trkpt>
      <trkpt lat="44.28127" lon="5.55265">
        <ele>1279.4000244141</ele>
        <time>2021-09-25T13:04:09.000Z</time>
      </trkpt>
      <trkpt lat="44.28128" lon="5.55267">
        <ele>1279.4000244141</ele>
        <time>2021-09-25T13:04:11.000Z</time>
      </trkpt>
      <trkpt lat="44.28131" lon="5.55266">
        <ele>1279.4000244141</ele>
        <time>2021-09-25T13:04:15.000Z</time>
      </trkpt>
      <trkpt lat="44.28132" lon="5.55266">
        <ele>1279.5999755859</ele>
        <time>2021-09-25T13:04:16.000Z</time>
      </trkpt>
      <trkpt lat="44.28133" lon="5.55266">
        <ele>1279.5999755859</ele>
        <time>2021-09-25T13:04:17.000Z</time>
      </trkpt>
      <trkpt lat="44.28134" lon="5.55266">
        <ele>1279.5999755859</ele>
        <time>2021-09-25T13:04:18.000Z</time>
      </trkpt>
      <trkpt lat="44.28135" lon="5.55266">
        <ele>1279.8000488281</ele>
        <time>2021-09-25T13:04:19.000Z</time>
      </trkpt>
      <trkpt lat="44.28136" lon="5.55266">
        <ele>1279.8000488281</ele>
        <time>2021-09-25T13:04:20.000Z</time>
      </trkpt>
      <trkpt lat="44.28138" lon="5.55266">
        <ele>1280.1999511719</ele>
        <time>2021-09-25T13:04:22.000Z</time>
      </trkpt>
      <trkpt lat="44.2814" lon="5.55267">
        <ele>1280.1999511719</ele>
        <time>2021-09-25T13:04:23.000Z</time>
      </trkpt>
      <trkpt lat="44.28142" lon="5.55267">
        <ele>1280.4000244141</ele>
        <time>2021-09-25T13:04:25.000Z</time>
      </trkpt>
      <trkpt lat="44.28143" lon="5.55267">
        <ele>1280.4000244141</ele>
        <time>2021-09-25T13:04:27.000Z</time>
      </trkpt>
      <trkpt lat="44.28145" lon="5.55266">
        <ele>1280.5999755859</ele>
        <time>2021-09-25T13:04:29.000Z</time>
      </trkpt>
      <trkpt lat="44.28146" lon="5.55265">
        <ele>1280.4000244141</ele>
        <time>2021-09-25T13:04:31.000Z</time>
      </trkpt>
      <trkpt lat="44.28151" lon="5.55265">
        <ele>1280.4000244141</ele>
        <time>2021-09-25T13:04:36.000Z</time>
      </trkpt>
      <trkpt lat="44.28153" lon="5.55266">
        <ele>1280.5999755859</ele>
        <time>2021-09-25T13:04:39.000Z</time>
      </trkpt>
      <trkpt lat="44.28157" lon="5.55267">
        <ele>1280.5999755859</ele>
        <time>2021-09-25T13:04:44.000Z</time>
      </trkpt>
      <trkpt lat="44.28158" lon="5.55267">
        <ele>1280.5999755859</ele>
        <time>2021-09-25T13:04:45.000Z</time>
      </trkpt>
      <trkpt lat="44.28159" lon="5.55268">
        <ele>1280.5999755859</ele>
        <time>2021-09-25T13:04:46.000Z</time>
      </trkpt>
      <trkpt lat="44.28162" lon="5.5527">
        <ele>1280.4000244141</ele>
        <time>2021-09-25T13:04:50.000Z</time>
      </trkpt>
      <trkpt lat="44.28164" lon="5.5527">
        <ele>1280.8000488281</ele>
        <time>2021-09-25T13:04:52.000Z</time>
      </trkpt>
      <trkpt lat="44.28165" lon="5.55271">
        <ele>1280.8000488281</ele>
        <time>2021-09-25T13:04:55.000Z</time>
      </trkpt>
      <trkpt lat="44.28167" lon="5.5527">
        <ele>1281.1999511719</ele>
        <time>2021-09-25T13:04:57.000Z</time>
      </trkpt>
      <trkpt lat="44.2817" lon="5.55268">
        <ele>1281.5999755859</ele>
        <time>2021-09-25T13:05:01.000Z</time>
      </trkpt>
      <trkpt lat="44.2817" lon="5.55268">
        <ele>1281.5999755859</ele>
        <time>2021-09-25T13:05:02.000Z</time>
      </trkpt>
      <trkpt lat="44.28173" lon="5.55269">
        <ele>1282</ele>
        <time>2021-09-25T13:05:07.000Z</time>
      </trkpt>
      <trkpt lat="44.28174" lon="5.55269">
        <ele>1282.4000244141</ele>
        <time>2021-09-25T13:05:09.000Z</time>
      </trkpt>
      <trkpt lat="44.28174" lon="5.55271">
        <ele>1282.5999755859</ele>
        <time>2021-09-25T13:05:12.000Z</time>
      </trkpt>
      <trkpt lat="44.28175" lon="5.5527">
        <ele>1283.1999511719</ele>
        <time>2021-09-25T13:05:15.000Z</time>
      </trkpt>
      <trkpt lat="44.28175" lon="5.5527">
        <ele>1283.5999755859</ele>
        <time>2021-09-25T13:05:16.000Z</time>
      </trkpt>
      <trkpt lat="44.28174" lon="5.55268">
        <ele>1283.4000244141</ele>
        <time>2021-09-25T13:05:25.000Z</time>
      </trkpt>
      <trkpt lat="44.28178" lon="5.55271">
        <ele>1284</ele>
        <time>2021-09-25T13:05:33.000Z</time>
      </trkpt>
      <trkpt lat="44.28178" lon="5.55274">
        <ele>1284.5999755859</ele>
        <time>2021-09-25T13:05:36.000Z</time>
      </trkpt>
      <trkpt lat="44.28179" lon="5.55275">
        <ele>1284.8000488281</ele>
        <time>2021-09-25T13:05:38.000Z</time>
      </trkpt>
      <trkpt lat="44.28179" lon="5.55276">
        <ele>1284.8000488281</ele>
        <time>2021-09-25T13:05:40.000Z</time>
      </trkpt>
      <trkpt lat="44.28179" lon="5.55277">
        <ele>1285</ele>
        <time>2021-09-25T13:05:41.000Z</time>
      </trkpt>
      <trkpt lat="44.28179" lon="5.55277">
        <ele>1285</ele>
        <time>2021-09-25T13:05:42.000Z</time>
      </trkpt>
      <trkpt lat="44.2818" lon="5.55279">
        <ele>1285.4000244141</ele>
        <time>2021-09-25T13:05:45.000Z</time>
      </trkpt>
      <trkpt lat="44.28181" lon="5.5528">
        <ele>1285.8000488281</ele>
        <time>2021-09-25T13:05:48.000Z</time>
      </trkpt>
      <trkpt lat="44.28182" lon="5.55281">
        <ele>1286</ele>
        <time>2021-09-25T13:05:50.000Z</time>
      </trkpt>
      <trkpt lat="44.28183" lon="5.55282">
        <ele>1286.4000244141</ele>
        <time>2021-09-25T13:05:52.000Z</time>
      </trkpt>
      <trkpt lat="44.28183" lon="5.55283">
        <ele>1286.8000488281</ele>
        <time>2021-09-25T13:05:54.000Z</time>
      </trkpt>
      <trkpt lat="44.28183" lon="5.55284">
        <ele>1286.8000488281</ele>
        <time>2021-09-25T13:05:55.000Z</time>
      </trkpt>
      <trkpt lat="44.28182" lon="5.55285">
        <ele>1287.1999511719</ele>
        <time>2021-09-25T13:05:57.000Z</time>
      </trkpt>
      <trkpt lat="44.28182" lon="5.55286">
        <ele>1287.4000244141</ele>
        <time>2021-09-25T13:05:58.000Z</time>
      </trkpt>
      <trkpt lat="44.28183" lon="5.55287">
        <ele>1287.5999755859</ele>
        <time>2021-09-25T13:05:59.000Z</time>
      </trkpt>
      <trkpt lat="44.28183" lon="5.55287">
        <ele>1287.8000488281</ele>
        <time>2021-09-25T13:06:00.000Z</time>
      </trkpt>
      <trkpt lat="44.28184" lon="5.55287">
        <ele>1287.8000488281</ele>
        <time>2021-09-25T13:06:01.000Z</time>
      </trkpt>
      <trkpt lat="44.28184" lon="5.55288">
        <ele>1288.4000244141</ele>
        <time>2021-09-25T13:06:03.000Z</time>
      </trkpt>
      <trkpt lat="44.28184" lon="5.55289">
        <ele>1288.5999755859</ele>
        <time>2021-09-25T13:06:04.000Z</time>
      </trkpt>
      <trkpt lat="44.28185" lon="5.55291">
        <ele>1289</ele>
        <time>2021-09-25T13:06:06.000Z</time>
      </trkpt>
      <trkpt lat="44.28186" lon="5.55294">
        <ele>1289.4000244141</ele>
        <time>2021-09-25T13:06:10.000Z</time>
      </trkpt>
      <trkpt lat="44.28187" lon="5.55295">
        <ele>1289.5999755859</ele>
        <time>2021-09-25T13:06:12.000Z</time>
      </trkpt>
      <trkpt lat="44.28187" lon="5.55297">
        <ele>1290.1999511719</ele>
        <time>2021-09-25T13:06:15.000Z</time>
      </trkpt>
      <trkpt lat="44.2819" lon="5.553">
        <ele>1290.8000488281</ele>
        <time>2021-09-25T13:06:20.000Z</time>
      </trkpt>
      <trkpt lat="44.2819" lon="5.55302">
        <ele>1291</ele>
        <time>2021-09-25T13:06:23.000Z</time>
      </trkpt>
      <trkpt lat="44.2819" lon="5.55303">
        <ele>1291.1999511719</ele>
        <time>2021-09-25T13:06:24.000Z</time>
      </trkpt>
      <trkpt lat="44.28191" lon="5.55304">
        <ele>1291.4000244141</ele>
        <time>2021-09-25T13:06:26.000Z</time>
      </trkpt>
      <trkpt lat="44.28191" lon="5.55304">
        <ele>1291.5999755859</ele>
        <time>2021-09-25T13:06:29.000Z</time>
      </trkpt>
      <trkpt lat="44.28187" lon="5.55308">
        <ele>1291.5999755859</ele>
        <time>2021-09-25T13:06:36.000Z</time>
      </trkpt>
      <trkpt lat="44.28188" lon="5.5531">
        <ele>1292.4000244141</ele>
        <time>2021-09-25T13:06:42.000Z</time>
      </trkpt>
      <trkpt lat="44.28188" lon="5.55309">
        <ele>1292.5999755859</ele>
        <time>2021-09-25T13:06:43.000Z</time>
      </trkpt>
      <trkpt lat="44.2819" lon="5.55313">
        <ele>1292.8000488281</ele>
        <time>2021-09-25T13:06:47.000Z</time>
      </trkpt>
      <trkpt lat="44.28192" lon="5.55314">
        <ele>1293</ele>
        <time>2021-09-25T13:06:49.000Z</time>
      </trkpt>
      <trkpt lat="44.28192" lon="5.55314">
        <ele>1293.1999511719</ele>
        <time>2021-09-25T13:06:50.000Z</time>
      </trkpt>
      <trkpt lat="44.28195" lon="5.55315">
        <ele>1293.1999511719</ele>
        <time>2021-09-25T13:06:54.000Z</time>
      </trkpt>
      <trkpt lat="44.28196" lon="5.55316">
        <ele>1293.5999755859</ele>
        <time>2021-09-25T13:06:57.000Z</time>
      </trkpt>
      <trkpt lat="44.28198" lon="5.55318">
        <ele>1294.4000244141</ele>
        <time>2021-09-25T13:07:03.000Z</time>
      </trkpt>
      <trkpt lat="44.28198" lon="5.55319">
        <ele>1294.5999755859</ele>
        <time>2021-09-25T13:07:05.000Z</time>
      </trkpt>
      <trkpt lat="44.28197" lon="5.5532">
        <ele>1294.5999755859</ele>
        <time>2021-09-25T13:07:06.000Z</time>
      </trkpt>
      <trkpt lat="44.28198" lon="5.55322">
        <ele>1295</ele>
        <time>2021-09-25T13:07:09.000Z</time>
      </trkpt>
      <trkpt lat="44.28198" lon="5.55326">
        <ele>1295.5999755859</ele>
        <time>2021-09-25T13:07:13.000Z</time>
      </trkpt>
      <trkpt lat="44.28198" lon="5.55327">
        <ele>1295.8000488281</ele>
        <time>2021-09-25T13:07:14.000Z</time>
      </trkpt>
      <trkpt lat="44.28197" lon="5.55329">
        <ele>1296.1999511719</ele>
        <time>2021-09-25T13:07:16.000Z</time>
      </trkpt>
      <trkpt lat="44.282" lon="5.5533">
        <ele>1296.5999755859</ele>
        <time>2021-09-25T13:07:21.000Z</time>
      </trkpt>
      <trkpt lat="44.28201" lon="5.55331">
        <ele>1296.8000488281</ele>
        <time>2021-09-25T13:07:22.000Z</time>
      </trkpt>
      <trkpt lat="44.28202" lon="5.55333">
        <ele>1297.5999755859</ele>
        <time>2021-09-25T13:07:25.000Z</time>
      </trkpt>
      <trkpt lat="44.28204" lon="5.55334">
        <ele>1298</ele>
        <time>2021-09-25T13:07:28.000Z</time>
      </trkpt>
      <trkpt lat="44.28204" lon="5.55335">
        <ele>1298</ele>
        <time>2021-09-25T13:07:30.000Z</time>
      </trkpt>
      <trkpt lat="44.28204" lon="5.55338">
        <ele>1298.5999755859</ele>
        <time>2021-09-25T13:07:35.000Z</time>
      </trkpt>
      <trkpt lat="44.28204" lon="5.55339">
        <ele>1298.5999755859</ele>
        <time>2021-09-25T13:07:36.000Z</time>
      </trkpt>
      <trkpt lat="44.28204" lon="5.5534">
        <ele>1298.8000488281</ele>
        <time>2021-09-25T13:07:38.000Z</time>
      </trkpt>
      <trkpt lat="44.28205" lon="5.55341">
        <ele>1299.1999511719</ele>
        <time>2021-09-25T13:07:40.000Z</time>
      </trkpt>
      <trkpt lat="44.28206" lon="5.55342">
        <ele>1299.5999755859</ele>
        <time>2021-09-25T13:07:43.000Z</time>
      </trkpt>
      <trkpt lat="44.28207" lon="5.55343">
        <ele>1299.8000488281</ele>
        <time>2021-09-25T13:07:44.000Z</time>
      </trkpt>
      <trkpt lat="44.28209" lon="5.55344">
        <ele>1300.1999511719</ele>
        <time>2021-09-25T13:07:48.000Z</time>
      </trkpt>
      <trkpt lat="44.2821" lon="5.55345">
        <ele>1300.5999755859</ele>
        <time>2021-09-25T13:07:50.000Z</time>
      </trkpt>
      <trkpt lat="44.2821" lon="5.55346">
        <ele>1300.8000488281</ele>
        <time>2021-09-25T13:07:52.000Z</time>
      </trkpt>
      <trkpt lat="44.28211" lon="5.55349">
        <ele>1301.1999511719</ele>
        <time>2021-09-25T13:07:55.000Z</time>
      </trkpt>
      <trkpt lat="44.28212" lon="5.5535">
        <ele>1301.5999755859</ele>
        <time>2021-09-25T13:07:57.000Z</time>
      </trkpt>
      <trkpt lat="44.28213" lon="5.5535">
        <ele>1301.5999755859</ele>
        <time>2021-09-25T13:07:58.000Z</time>
      </trkpt>
      <trkpt lat="44.28215" lon="5.55353">
        <ele>1302.4000244141</ele>
        <time>2021-09-25T13:08:03.000Z</time>
      </trkpt>
      <trkpt lat="44.28216" lon="5.55355">
        <ele>1302.5999755859</ele>
        <time>2021-09-25T13:08:05.000Z</time>
      </trkpt>
      <trkpt lat="44.28216" lon="5.55357">
        <ele>1302.8000488281</ele>
        <time>2021-09-25T13:08:06.000Z</time>
      </trkpt>
      <trkpt lat="44.28216" lon="5.55358">
        <ele>1303.1999511719</ele>
        <time>2021-09-25T13:08:08.000Z</time>
      </trkpt>
      <trkpt lat="44.28216" lon="5.5536">
        <ele>1303.4000244141</ele>
        <time>2021-09-25T13:08:10.000Z</time>
      </trkpt>
      <trkpt lat="44.28217" lon="5.55365">
        <ele>1304.4000244141</ele>
        <time>2021-09-25T13:08:14.000Z</time>
      </trkpt>
      <trkpt lat="44.28218" lon="5.55366">
        <ele>1304.5999755859</ele>
        <time>2021-09-25T13:08:16.000Z</time>
      </trkpt>
      <trkpt lat="44.28218" lon="5.55367">
        <ele>1304.5999755859</ele>
        <time>2021-09-25T13:08:17.000Z</time>
      </trkpt>
      <trkpt lat="44.28218" lon="5.55372">
        <ele>1305.5999755859</ele>
        <time>2021-09-25T13:08:23.000Z</time>
      </trkpt>
      <trkpt lat="44.28219" lon="5.55373">
        <ele>1305.5999755859</ele>
        <time>2021-09-25T13:08:24.000Z</time>
      </trkpt>
      <trkpt lat="44.28218" lon="5.55376">
        <ele>1306</ele>
        <time>2021-09-25T13:08:27.000Z</time>
      </trkpt>
      <trkpt lat="44.28219" lon="5.55378">
        <ele>1306.1999511719</ele>
        <time>2021-09-25T13:08:29.000Z</time>
      </trkpt>
      <trkpt lat="44.28219" lon="5.55379">
        <ele>1306.1999511719</ele>
        <time>2021-09-25T13:08:30.000Z</time>
      </trkpt>
      <trkpt lat="44.2822" lon="5.55381">
        <ele>1306.5999755859</ele>
        <time>2021-09-25T13:08:32.000Z</time>
      </trkpt>
      <trkpt lat="44.28223" lon="5.55384">
        <ele>1307.1999511719</ele>
        <time>2021-09-25T13:08:37.000Z</time>
      </trkpt>
      <trkpt lat="44.28225" lon="5.55386">
        <ele>1307.5999755859</ele>
        <time>2021-09-25T13:08:41.000Z</time>
      </trkpt>
      <trkpt lat="44.28224" lon="5.55389">
        <ele>1308.1999511719</ele>
        <time>2021-09-25T13:08:44.000Z</time>
      </trkpt>
      <trkpt lat="44.28224" lon="5.5539">
        <ele>1308.4000244141</ele>
        <time>2021-09-25T13:08:45.000Z</time>
      </trkpt>
      <trkpt lat="44.28225" lon="5.55392">
        <ele>1308.8000488281</ele>
        <time>2021-09-25T13:08:48.000Z</time>
      </trkpt>
      <trkpt lat="44.28226" lon="5.55395">
        <ele>1309</ele>
        <time>2021-09-25T13:08:51.000Z</time>
      </trkpt>
      <trkpt lat="44.28227" lon="5.55398">
        <ele>1309.5999755859</ele>
        <time>2021-09-25T13:08:55.000Z</time>
      </trkpt>
      <trkpt lat="44.28228" lon="5.55399">
        <ele>1310</ele>
        <time>2021-09-25T13:08:56.000Z</time>
      </trkpt>
      <trkpt lat="44.28229" lon="5.55399">
        <ele>1310.1999511719</ele>
        <time>2021-09-25T13:08:57.000Z</time>
      </trkpt>
      <trkpt lat="44.28231" lon="5.55401">
        <ele>1311</ele>
        <time>2021-09-25T13:09:02.000Z</time>
      </trkpt>
      <trkpt lat="44.28231" lon="5.55404">
        <ele>1311.1999511719</ele>
        <time>2021-09-25T13:09:04.000Z</time>
      </trkpt>
      <trkpt lat="44.28236" lon="5.55408">
        <ele>1311.4000244141</ele>
        <time>2021-09-25T13:09:10.000Z</time>
      </trkpt>
      <trkpt lat="44.28236" lon="5.55412">
        <ele>1311.4000244141</ele>
        <time>2021-09-25T13:09:14.000Z</time>
      </trkpt>
      <trkpt lat="44.28237" lon="5.55412">
        <ele>1311.5999755859</ele>
        <time>2021-09-25T13:09:16.000Z</time>
      </trkpt>
      <trkpt lat="44.2824" lon="5.5541">
        <ele>1311.5999755859</ele>
        <time>2021-09-25T13:09:21.000Z</time>
      </trkpt>
      <trkpt lat="44.28241" lon="5.55409">
        <ele>1311.4000244141</ele>
        <time>2021-09-25T13:09:22.000Z</time>
      </trkpt>
      <trkpt lat="44.28242" lon="5.55408">
        <ele>1311.1999511719</ele>
        <time>2021-09-25T13:09:24.000Z</time>
      </trkpt>
      <trkpt lat="44.28247" lon="5.55405">
        <ele>1311.4000244141</ele>
        <time>2021-09-25T13:09:30.000Z</time>
      </trkpt>
      <trkpt lat="44.2825" lon="5.55403">
        <ele>1312.1999511719</ele>
        <time>2021-09-25T13:09:35.000Z</time>
      </trkpt>
      <trkpt lat="44.28251" lon="5.55404">
        <ele>1312</ele>
        <time>2021-09-25T13:09:40.000Z</time>
      </trkpt>
      <trkpt lat="44.28251" lon="5.55404">
        <ele>1311.4000244141</ele>
        <time>2021-09-25T13:09:43.000Z</time>
      </trkpt>
      <trkpt lat="44.28251" lon="5.55404">
        <ele>1311.1999511719</ele>
        <time>2021-09-25T13:09:44.000Z</time>
      </trkpt>
      <trkpt lat="44.2825" lon="5.55404">
        <ele>1311</ele>
        <time>2021-09-25T13:09:45.000Z</time>
      </trkpt>
      <trkpt lat="44.28251" lon="5.55404">
        <ele>1311</ele>
        <time>2021-09-25T13:09:47.000Z</time>
      </trkpt>
      <trkpt lat="44.28251" lon="5.55406">
        <ele>1311</ele>
        <time>2021-09-25T13:09:52.000Z</time>
      </trkpt>
      <trkpt lat="44.2825" lon="5.55406">
        <ele>1311</ele>
        <time>2021-09-25T13:09:53.000Z</time>
      </trkpt>
      <trkpt lat="44.28249" lon="5.55406">
        <ele>1310.1999511719</ele>
        <time>2021-09-25T13:09:58.000Z</time>
      </trkpt>
      <trkpt lat="44.28249" lon="5.55406">
        <ele>1309.8000488281</ele>
        <time>2021-09-25T13:09:59.000Z</time>
      </trkpt>
      <trkpt lat="44.28249" lon="5.55406">
        <ele>1309.5999755859</ele>
        <time>2021-09-25T13:10:00.000Z</time>
      </trkpt>
      <trkpt lat="44.2825" lon="5.55406">
        <ele>1309.4000244141</ele>
        <time>2021-09-25T13:10:07.000Z</time>
      </trkpt>
      <trkpt lat="44.2825" lon="5.55406">
        <ele>1310.1999511719</ele>
        <time>2021-09-25T13:10:10.000Z</time>
      </trkpt>
      <trkpt lat="44.2825" lon="5.55406">
        <ele>1309.8000488281</ele>
        <time>2021-09-25T13:10:15.000Z</time>
      </trkpt>
      <trkpt lat="44.2825" lon="5.55406">
        <ele>1309.5999755859</ele>
        <time>2021-09-25T13:10:18.000Z</time>
      </trkpt>
      <trkpt lat="44.2825" lon="5.55405">
        <ele>1309.4000244141</ele>
        <time>2021-09-25T13:10:22.000Z</time>
      </trkpt>
      <trkpt lat="44.28249" lon="5.55403">
        <ele>1309.1999511719</ele>
        <time>2021-09-25T13:10:27.000Z</time>
      </trkpt>
      <trkpt lat="44.28249" lon="5.55403">
        <ele>1309</ele>
        <time>2021-09-25T13:10:28.000Z</time>
      </trkpt>
      <trkpt lat="44.28249" lon="5.55403">
        <ele>1309</ele>
        <time>2021-09-25T13:10:29.000Z</time>
      </trkpt>
      <trkpt lat="44.28249" lon="5.55403">
        <ele>1309</ele>
        <time>2021-09-25T13:10:30.000Z</time>
      </trkpt>
      <trkpt lat="44.28249" lon="5.55403">
        <ele>1308.8000488281</ele>
        <time>2021-09-25T13:10:31.000Z</time>
      </trkpt>
      <trkpt lat="44.28249" lon="5.55403">
        <ele>1309</ele>
        <time>2021-09-25T13:10:35.000Z</time>
      </trkpt>
      <trkpt lat="44.28249" lon="5.55403">
        <ele>1308.8000488281</ele>
        <time>2021-09-25T13:10:38.000Z</time>
      </trkpt>
      <trkpt lat="44.28248" lon="5.55402">
        <ele>1308.8000488281</ele>
        <time>2021-09-25T13:10:41.000Z</time>
      </trkpt>
      <trkpt lat="44.28249" lon="5.55402">
        <ele>1308.5999755859</ele>
        <time>2021-09-25T13:10:44.000Z</time>
      </trkpt>
      <trkpt lat="44.28249" lon="5.55401">
        <ele>1309.1999511719</ele>
        <time>2021-09-25T13:10:49.000Z</time>
      </trkpt>
      <trkpt lat="44.28248" lon="5.55399">
        <ele>1309.1999511719</ele>
        <time>2021-09-25T13:10:50.000Z</time>
      </trkpt>
      <trkpt lat="44.28247" lon="5.55399">
        <ele>1308.8000488281</ele>
        <time>2021-09-25T13:10:56.000Z</time>
      </trkpt>
      <trkpt lat="44.28247" lon="5.55399">
        <ele>1308.5999755859</ele>
        <time>2021-09-25T13:10:57.000Z</time>
      </trkpt>
      <trkpt lat="44.28248" lon="5.55399">
        <ele>1308.8000488281</ele>
        <time>2021-09-25T13:11:00.000Z</time>
      </trkpt>
      <trkpt lat="44.28248" lon="5.55399">
        <ele>1308.8000488281</ele>
        <time>2021-09-25T13:11:01.000Z</time>
      </trkpt>
      <trkpt lat="44.2825" lon="5.55399">
        <ele>1308.8000488281</ele>
        <time>2021-09-25T13:11:03.000Z</time>
      </trkpt>
      <trkpt lat="44.28253" lon="5.554">
        <ele>1308.8000488281</ele>
        <time>2021-09-25T13:11:09.000Z</time>
      </trkpt>
      <trkpt lat="44.28254" lon="5.55398">
        <ele>1308.8000488281</ele>
        <time>2021-09-25T13:11:14.000Z</time>
      </trkpt>
      <trkpt lat="44.28254" lon="5.55398">
        <ele>1308.8000488281</ele>
        <time>2021-09-25T13:11:17.000Z</time>
      </trkpt>
      <trkpt lat="44.28255" lon="5.55394">
        <ele>1308.8000488281</ele>
        <time>2021-09-25T13:11:25.000Z</time>
      </trkpt>
      <trkpt lat="44.28255" lon="5.55394">
        <ele>1308.8000488281</ele>
        <time>2021-09-25T13:11:28.000Z</time>
      </trkpt>
      <trkpt lat="44.28255" lon="5.55395">
        <ele>1308.8000488281</ele>
        <time>2021-09-25T13:11:30.000Z</time>
      </trkpt>
      <trkpt lat="44.28252" lon="5.55396">
        <ele>1308.8000488281</ele>
        <time>2021-09-25T13:11:35.000Z</time>
      </trkpt>
      <trkpt lat="44.2825" lon="5.55397">
        <ele>1308.8000488281</ele>
        <time>2021-09-25T13:11:40.000Z</time>
      </trkpt>
      <trkpt lat="44.2825" lon="5.55395">
        <ele>1308.8000488281</ele>
        <time>2021-09-25T13:11:42.000Z</time>
      </trkpt>
      <trkpt lat="44.28249" lon="5.55391">
        <ele>1308.8000488281</ele>
        <time>2021-09-25T13:11:49.000Z</time>
      </trkpt>
      <trkpt lat="44.28249" lon="5.55394">
        <ele>1308.8000488281</ele>
        <time>2021-09-25T13:11:56.000Z</time>
      </trkpt>
      <trkpt lat="44.28249" lon="5.55395">
        <ele>1308.8000488281</ele>
        <time>2021-09-25T13:12:00.000Z</time>
      </trkpt>
      <trkpt lat="44.28249" lon="5.55394">
        <ele>1308.8000488281</ele>
        <time>2021-09-25T13:12:05.000Z</time>
      </trkpt>
      <trkpt lat="44.28249" lon="5.55394">
        <ele>1308.8000488281</ele>
        <time>2021-09-25T13:12:14.000Z</time>
      </trkpt>
      <trkpt lat="44.2825" lon="5.55394">
        <ele>1308.8000488281</ele>
        <time>2021-09-25T13:12:15.000Z</time>
      </trkpt>
      <trkpt lat="44.2825" lon="5.55395">
        <ele>1308.8000488281</ele>
        <time>2021-09-25T13:12:17.000Z</time>
      </trkpt>
      <trkpt lat="44.2825" lon="5.55395">
        <ele>1308.8000488281</ele>
        <time>2021-09-25T13:12:22.000Z</time>
      </trkpt>
      <trkpt lat="44.2825" lon="5.55398">
        <ele>1308.8000488281</ele>
        <time>2021-09-25T13:12:29.000Z</time>
      </trkpt>
      <trkpt lat="44.28251" lon="5.55398">
        <ele>1308.8000488281</ele>
        <time>2021-09-25T13:12:30.000Z</time>
      </trkpt>
      <trkpt lat="44.28251" lon="5.55397">
        <ele>1308.8000488281</ele>
        <time>2021-09-25T13:12:32.000Z</time>
      </trkpt>
      <trkpt lat="44.2825" lon="5.55395">
        <ele>1308.8000488281</ele>
        <time>2021-09-25T13:12:36.000Z</time>
      </trkpt>
      <trkpt lat="44.28253" lon="5.55394">
        <ele>1308.8000488281</ele>
        <time>2021-09-25T13:12:42.000Z</time>
      </trkpt>
      <trkpt lat="44.28253" lon="5.5539">
        <ele>1308.8000488281</ele>
        <time>2021-09-25T13:12:49.000Z</time>
      </trkpt>
      <trkpt lat="44.28256" lon="5.55385">
        <ele>1308.8000488281</ele>
        <time>2021-09-25T13:12:55.000Z</time>
      </trkpt>
      <trkpt lat="44.28257" lon="5.55383">
        <ele>1308.8000488281</ele>
        <time>2021-09-25T13:12:57.000Z</time>
      </trkpt>
      <trkpt lat="44.28258" lon="5.55382">
        <ele>1308.8000488281</ele>
        <time>2021-09-25T13:12:59.000Z</time>
      </trkpt>
      <trkpt lat="44.28258" lon="5.55381">
        <ele>1308.8000488281</ele>
        <time>2021-09-25T13:13:00.000Z</time>
      </trkpt>
      <trkpt lat="44.28259" lon="5.55381">
        <ele>1312.1999511719</ele>
        <time>2021-09-25T13:13:01.000Z</time>
      </trkpt>
      <trkpt lat="44.28259" lon="5.5538">
        <ele>1312.1999511719</ele>
        <time>2021-09-25T13:13:02.000Z</time>
      </trkpt>
      <trkpt lat="44.2826" lon="5.5538">
        <ele>1312.1999511719</ele>
        <time>2021-09-25T13:13:03.000Z</time>
      </trkpt>
      <trkpt lat="44.2826" lon="5.55379">
        <ele>1312.1999511719</ele>
        <time>2021-09-25T13:13:04.000Z</time>
      </trkpt>
      <trkpt lat="44.28261" lon="5.55378">
        <ele>1312.1999511719</ele>
        <time>2021-09-25T13:13:05.000Z</time>
      </trkpt>
      <trkpt lat="44.28261" lon="5.55377">
        <ele>1312.1999511719</ele>
        <time>2021-09-25T13:13:06.000Z</time>
      </trkpt>
      <trkpt lat="44.28261" lon="5.55375">
        <ele>1312.4000244141</ele>
        <time>2021-09-25T13:13:08.000Z</time>
      </trkpt>
      <trkpt lat="44.28261" lon="5.55374">
        <ele>1312.4000244141</ele>
        <time>2021-09-25T13:13:09.000Z</time>
      </trkpt>
      <trkpt lat="44.28262" lon="5.55373">
        <ele>1312.5999755859</ele>
        <time>2021-09-25T13:13:10.000Z</time>
      </trkpt>
      <trkpt lat="44.28264" lon="5.55369">
        <ele>1313.1999511719</ele>
        <time>2021-09-25T13:13:13.000Z</time>
      </trkpt>
      <trkpt lat="44.28264" lon="5.55368">
        <ele>1313.4000244141</ele>
        <time>2021-09-25T13:13:14.000Z</time>
      </trkpt>
      <trkpt lat="44.28264" lon="5.55365">
        <ele>1314</ele>
        <time>2021-09-25T13:13:16.000Z</time>
      </trkpt>
      <trkpt lat="44.28264" lon="5.55363">
        <ele>1314.1999511719</ele>
        <time>2021-09-25T13:13:17.000Z</time>
      </trkpt>
      <trkpt lat="44.28263" lon="5.55362">
        <ele>1314.4000244141</ele>
        <time>2021-09-25T13:13:18.000Z</time>
      </trkpt>
      <trkpt lat="44.28263" lon="5.55361">
        <ele>1314.4000244141</ele>
        <time>2021-09-25T13:13:19.000Z</time>
      </trkpt>
      <trkpt lat="44.28263" lon="5.55359">
        <ele>1314.5999755859</ele>
        <time>2021-09-25T13:13:20.000Z</time>
      </trkpt>
      <trkpt lat="44.28262" lon="5.55357">
        <ele>1314.8000488281</ele>
        <time>2021-09-25T13:13:22.000Z</time>
      </trkpt>
      <trkpt lat="44.28262" lon="5.55353">
        <ele>1315.4000244141</ele>
        <time>2021-09-25T13:13:25.000Z</time>
      </trkpt>
      <trkpt lat="44.28262" lon="5.55352">
        <ele>1315.5999755859</ele>
        <time>2021-09-25T13:13:26.000Z</time>
      </trkpt>
      <trkpt lat="44.28263" lon="5.55353">
        <ele>1316.1999511719</ele>
        <time>2021-09-25T13:13:29.000Z</time>
      </trkpt>
      <trkpt lat="44.28262" lon="5.55353">
        <ele>1316.4000244141</ele>
        <time>2021-09-25T13:13:30.000Z</time>
      </trkpt>
      <trkpt lat="44.28262" lon="5.5535">
        <ele>1316.4000244141</ele>
        <time>2021-09-25T13:13:34.000Z</time>
      </trkpt>
      <trkpt lat="44.28262" lon="5.55348">
        <ele>1316.5999755859</ele>
        <time>2021-09-25T13:13:36.000Z</time>
      </trkpt>
      <trkpt lat="44.28263" lon="5.55343">
        <ele>1317</ele>
        <time>2021-09-25T13:13:42.000Z</time>
      </trkpt>
      <trkpt lat="44.28264" lon="5.55342">
        <ele>1317.4000244141</ele>
        <time>2021-09-25T13:13:43.000Z</time>
      </trkpt>
      <trkpt lat="44.28265" lon="5.55339">
        <ele>1317.8000488281</ele>
        <time>2021-09-25T13:13:45.000Z</time>
      </trkpt>
      <trkpt lat="44.28267" lon="5.55334">
        <ele>1318.5999755859</ele>
        <time>2021-09-25T13:13:50.000Z</time>
      </trkpt>
      <trkpt lat="44.28269" lon="5.55329">
        <ele>1318.8000488281</ele>
        <time>2021-09-25T13:13:54.000Z</time>
      </trkpt>
      <trkpt lat="44.2827" lon="5.55328">
        <ele>1318.8000488281</ele>
        <time>2021-09-25T13:13:55.000Z</time>
      </trkpt>
      <trkpt lat="44.2827" lon="5.55326">
        <ele>1319</ele>
        <time>2021-09-25T13:13:57.000Z</time>
      </trkpt>
      <trkpt lat="44.28273" lon="5.55318">
        <ele>1318.8000488281</ele>
        <time>2021-09-25T13:14:04.000Z</time>
      </trkpt>
      <trkpt lat="44.28274" lon="5.55314">
        <ele>1318.5999755859</ele>
        <time>2021-09-25T13:14:07.000Z</time>
      </trkpt>
      <trkpt lat="44.28275" lon="5.55313">
        <ele>1318.5999755859</ele>
        <time>2021-09-25T13:14:09.000Z</time>
      </trkpt>
      <trkpt lat="44.28276" lon="5.55312">
        <ele>1318.8000488281</ele>
        <time>2021-09-25T13:14:11.000Z</time>
      </trkpt>
      <trkpt lat="44.28277" lon="5.55312">
        <ele>1318.8000488281</ele>
        <time>2021-09-25T13:14:12.000Z</time>
      </trkpt>
      <trkpt lat="44.28278" lon="5.55312">
        <ele>1319</ele>
        <time>2021-09-25T13:14:14.000Z</time>
      </trkpt>
      <trkpt lat="44.28279" lon="5.55312">
        <ele>1319.1999511719</ele>
        <time>2021-09-25T13:14:15.000Z</time>
      </trkpt>
      <trkpt lat="44.28281" lon="5.55309">
        <ele>1319.4000244141</ele>
        <time>2021-09-25T13:14:18.000Z</time>
      </trkpt>
      <trkpt lat="44.28283" lon="5.55308">
        <ele>1319</ele>
        <time>2021-09-25T13:14:20.000Z</time>
      </trkpt>
      <trkpt lat="44.28285" lon="5.55305">
        <ele>1318.8000488281</ele>
        <time>2021-09-25T13:14:23.000Z</time>
      </trkpt>
      <trkpt lat="44.28286" lon="5.55304">
        <ele>1318.5999755859</ele>
        <time>2021-09-25T13:14:24.000Z</time>
      </trkpt>
      <trkpt lat="44.28287" lon="5.55304">
        <ele>1318.5999755859</ele>
        <time>2021-09-25T13:14:25.000Z</time>
      </trkpt>
      <trkpt lat="44.28289" lon="5.55304">
        <ele>1318.5999755859</ele>
        <time>2021-09-25T13:14:27.000Z</time>
      </trkpt>
      <trkpt lat="44.28289" lon="5.55303">
        <ele>1318.5999755859</ele>
        <time>2021-09-25T13:14:29.000Z</time>
      </trkpt>
      <trkpt lat="44.28291" lon="5.55301">
        <ele>1318.5999755859</ele>
        <time>2021-09-25T13:14:32.000Z</time>
      </trkpt>
      <trkpt lat="44.28295" lon="5.55298">
        <ele>1318.4000244141</ele>
        <time>2021-09-25T13:14:36.000Z</time>
      </trkpt>
      <trkpt lat="44.28297" lon="5.55296">
        <ele>1318</ele>
        <time>2021-09-25T13:14:39.000Z</time>
      </trkpt>
      <trkpt lat="44.28298" lon="5.55295">
        <ele>1317.5999755859</ele>
        <time>2021-09-25T13:14:40.000Z</time>
      </trkpt>
      <trkpt lat="44.28298" lon="5.55295">
        <ele>1317.4000244141</ele>
        <time>2021-09-25T13:14:42.000Z</time>
      </trkpt>
      <trkpt lat="44.28301" lon="5.55296">
        <ele>1317.5999755859</ele>
        <time>2021-09-25T13:14:44.000Z</time>
      </trkpt>
      <trkpt lat="44.28304" lon="5.55294">
        <ele>1317.8000488281</ele>
        <time>2021-09-25T13:14:47.000Z</time>
      </trkpt>
      <trkpt lat="44.28306" lon="5.55292">
        <ele>1317.5999755859</ele>
        <time>2021-09-25T13:14:49.000Z</time>
      </trkpt>
      <trkpt lat="44.28309" lon="5.5529">
        <ele>1317</ele>
        <time>2021-09-25T13:14:52.000Z</time>
      </trkpt>
      <trkpt lat="44.2831" lon="5.55288">
        <ele>1316.5999755859</ele>
        <time>2021-09-25T13:14:55.000Z</time>
      </trkpt>
      <trkpt lat="44.28311" lon="5.55287">
        <ele>1316.1999511719</ele>
        <time>2021-09-25T13:14:56.000Z</time>
      </trkpt>
      <trkpt lat="44.28313" lon="5.55286">
        <ele>1315.8000488281</ele>
        <time>2021-09-25T13:15:01.000Z</time>
      </trkpt>
      <trkpt lat="44.28313" lon="5.55286">
        <ele>1315.8000488281</ele>
        <time>2021-09-25T13:15:02.000Z</time>
      </trkpt>
      <trkpt lat="44.28314" lon="5.55285">
        <ele>1315.5999755859</ele>
        <time>2021-09-25T13:15:03.000Z</time>
      </trkpt>
      <trkpt lat="44.28318" lon="5.55284">
        <ele>1314.8000488281</ele>
        <time>2021-09-25T13:15:08.000Z</time>
      </trkpt>
      <trkpt lat="44.28322" lon="5.55283">
        <ele>1314.5999755859</ele>
        <time>2021-09-25T13:15:12.000Z</time>
      </trkpt>
      <trkpt lat="44.28322" lon="5.55282">
        <ele>1314.4000244141</ele>
        <time>2021-09-25T13:15:13.000Z</time>
      </trkpt>
      <trkpt lat="44.28324" lon="5.5528">
        <ele>1314.4000244141</ele>
        <time>2021-09-25T13:15:15.000Z</time>
      </trkpt>
      <trkpt lat="44.28327" lon="5.55278">
        <ele>1314.1999511719</ele>
        <time>2021-09-25T13:15:19.000Z</time>
      </trkpt>
      <trkpt lat="44.28328" lon="5.55276">
        <ele>1314</ele>
        <time>2021-09-25T13:15:21.000Z</time>
      </trkpt>
      <trkpt lat="44.28328" lon="5.55276">
        <ele>1314</ele>
        <time>2021-09-25T13:15:22.000Z</time>
      </trkpt>
      <trkpt lat="44.2833" lon="5.55276">
        <ele>1314</ele>
        <time>2021-09-25T13:15:24.000Z</time>
      </trkpt>
      <trkpt lat="44.2833" lon="5.55275">
        <ele>1314</ele>
        <time>2021-09-25T13:15:25.000Z</time>
      </trkpt>
      <trkpt lat="44.28333" lon="5.55275">
        <ele>1313.5999755859</ele>
        <time>2021-09-25T13:15:28.000Z</time>
      </trkpt>
      <trkpt lat="44.28333" lon="5.55275">
        <ele>1313.4000244141</ele>
        <time>2021-09-25T13:15:29.000Z</time>
      </trkpt>
      <trkpt lat="44.28335" lon="5.55275">
        <ele>1313.5999755859</ele>
        <time>2021-09-25T13:15:30.000Z</time>
      </trkpt>
      <trkpt lat="44.28338" lon="5.55274">
        <ele>1313.4000244141</ele>
        <time>2021-09-25T13:15:33.000Z</time>
      </trkpt>
      <trkpt lat="44.28338" lon="5.55274">
        <ele>1313.4000244141</ele>
        <time>2021-09-25T13:15:34.000Z</time>
      </trkpt>
      <trkpt lat="44.28339" lon="5.55274">
        <ele>1313.1999511719</ele>
        <time>2021-09-25T13:15:35.000Z</time>
      </trkpt>
      <trkpt lat="44.28341" lon="5.55274">
        <ele>1312.5999755859</ele>
        <time>2021-09-25T13:15:37.000Z</time>
      </trkpt>
      <trkpt lat="44.28342" lon="5.55273">
        <ele>1312.4000244141</ele>
        <time>2021-09-25T13:15:39.000Z</time>
      </trkpt>
      <trkpt lat="44.28344" lon="5.55273">
        <ele>1312.4000244141</ele>
        <time>2021-09-25T13:15:40.000Z</time>
      </trkpt>
      <trkpt lat="44.28345" lon="5.55273">
        <ele>1312.4000244141</ele>
        <time>2021-09-25T13:15:41.000Z</time>
      </trkpt>
      <trkpt lat="44.28347" lon="5.55272">
        <ele>1312.4000244141</ele>
        <time>2021-09-25T13:15:43.000Z</time>
      </trkpt>
      <trkpt lat="44.28349" lon="5.55271">
        <ele>1312.4000244141</ele>
        <time>2021-09-25T13:15:45.000Z</time>
      </trkpt>
      <trkpt lat="44.28352" lon="5.55269">
        <ele>1312.1999511719</ele>
        <time>2021-09-25T13:15:48.000Z</time>
      </trkpt>
      <trkpt lat="44.28354" lon="5.55269">
        <ele>1311.8000488281</ele>
        <time>2021-09-25T13:15:50.000Z</time>
      </trkpt>
      <trkpt lat="44.28355" lon="5.55269">
        <ele>1311.4000244141</ele>
        <time>2021-09-25T13:15:52.000Z</time>
      </trkpt>
      <trkpt lat="44.28357" lon="5.55268">
        <ele>1311.4000244141</ele>
        <time>2021-09-25T13:15:54.000Z</time>
      </trkpt>
      <trkpt lat="44.28357" lon="5.55267">
        <ele>1311.4000244141</ele>
        <time>2021-09-25T13:15:55.000Z</time>
      </trkpt>
      <trkpt lat="44.2836" lon="5.55266">
        <ele>1311.4000244141</ele>
        <time>2021-09-25T13:15:59.000Z</time>
      </trkpt>
      <trkpt lat="44.28362" lon="5.55265">
        <ele>1311.1999511719</ele>
        <time>2021-09-25T13:16:02.000Z</time>
      </trkpt>
      <trkpt lat="44.28363" lon="5.55264">
        <ele>1311.1999511719</ele>
        <time>2021-09-25T13:16:03.000Z</time>
      </trkpt>
      <trkpt lat="44.28364" lon="5.55263">
        <ele>1310.5999755859</ele>
        <time>2021-09-25T13:16:05.000Z</time>
      </trkpt>
      <trkpt lat="44.28367" lon="5.55261">
        <ele>1310.4000244141</ele>
        <time>2021-09-25T13:16:07.000Z</time>
      </trkpt>
      <trkpt lat="44.28369" lon="5.5526">
        <ele>1310</ele>
        <time>2021-09-25T13:16:09.000Z</time>
      </trkpt>
      <trkpt lat="44.28376" lon="5.55257">
        <ele>1309.5999755859</ele>
        <time>2021-09-25T13:16:15.000Z</time>
      </trkpt>
      <trkpt lat="44.28378" lon="5.55255">
        <ele>1309.1999511719</ele>
        <time>2021-09-25T13:16:17.000Z</time>
      </trkpt>
      <trkpt lat="44.28385" lon="5.5525">
        <ele>1308.4000244141</ele>
        <time>2021-09-25T13:16:23.000Z</time>
      </trkpt>
      <trkpt lat="44.28386" lon="5.55249">
        <ele>1308</ele>
        <time>2021-09-25T13:16:24.000Z</time>
      </trkpt>
      <trkpt lat="44.28387" lon="5.55247">
        <ele>1307.8000488281</ele>
        <time>2021-09-25T13:16:25.000Z</time>
      </trkpt>
      <trkpt lat="44.28392" lon="5.55242">
        <ele>1307</ele>
        <time>2021-09-25T13:16:28.000Z</time>
      </trkpt>
      <trkpt lat="44.28393" lon="5.55239">
        <ele>1306.8000488281</ele>
        <time>2021-09-25T13:16:30.000Z</time>
      </trkpt>
      <trkpt lat="44.28395" lon="5.55238">
        <ele>1306.5999755859</ele>
        <time>2021-09-25T13:16:33.000Z</time>
      </trkpt>
      <trkpt lat="44.28399" lon="5.55232">
        <ele>1306.5999755859</ele>
        <time>2021-09-25T13:16:39.000Z</time>
      </trkpt>
      <trkpt lat="44.28399" lon="5.55231">
        <ele>1306.5999755859</ele>
        <time>2021-09-25T13:16:40.000Z</time>
      </trkpt>
      <trkpt lat="44.284" lon="5.55229">
        <ele>1306.5999755859</ele>
        <time>2021-09-25T13:16:42.000Z</time>
      </trkpt>
      <trkpt lat="44.28401" lon="5.55228">
        <ele>1306.4000244141</ele>
        <time>2021-09-25T13:16:45.000Z</time>
      </trkpt>
      <trkpt lat="44.28402" lon="5.55227">
        <ele>1306.4000244141</ele>
        <time>2021-09-25T13:16:46.000Z</time>
      </trkpt>
      <trkpt lat="44.28402" lon="5.55226">
        <ele>1306.1999511719</ele>
        <time>2021-09-25T13:16:47.000Z</time>
      </trkpt>
      <trkpt lat="44.28404" lon="5.55222">
        <ele>1306.1999511719</ele>
        <time>2021-09-25T13:16:50.000Z</time>
      </trkpt>
      <trkpt lat="44.28407" lon="5.5522">
        <ele>1306.1999511719</ele>
        <time>2021-09-25T13:16:54.000Z</time>
      </trkpt>
      <trkpt lat="44.28409" lon="5.55218">
        <ele>1306.1999511719</ele>
        <time>2021-09-25T13:16:56.000Z</time>
      </trkpt>
      <trkpt lat="44.28409" lon="5.55218">
        <ele>1306</ele>
        <time>2021-09-25T13:16:57.000Z</time>
      </trkpt>
      <trkpt lat="44.28411" lon="5.55215">
        <ele>1305.4000244141</ele>
        <time>2021-09-25T13:17:00.000Z</time>
      </trkpt>
      <trkpt lat="44.28412" lon="5.5521">
        <ele>1305.1999511719</ele>
        <time>2021-09-25T13:17:03.000Z</time>
      </trkpt>
      <trkpt lat="44.28415" lon="5.55205">
        <ele>1305</ele>
        <time>2021-09-25T13:17:07.000Z</time>
      </trkpt>
      <trkpt lat="44.28415" lon="5.55204">
        <ele>1305</ele>
        <time>2021-09-25T13:17:08.000Z</time>
      </trkpt>
      <trkpt lat="44.28417" lon="5.55201">
        <ele>1304.5999755859</ele>
        <time>2021-09-25T13:17:11.000Z</time>
      </trkpt>
      <trkpt lat="44.28417" lon="5.552">
        <ele>1304.4000244141</ele>
        <time>2021-09-25T13:17:12.000Z</time>
      </trkpt>
      <trkpt lat="44.28418" lon="5.55198">
        <ele>1304.1999511719</ele>
        <time>2021-09-25T13:17:15.000Z</time>
      </trkpt>
      <trkpt lat="44.28421" lon="5.55196">
        <ele>1304.4000244141</ele>
        <time>2021-09-25T13:17:18.000Z</time>
      </trkpt>
      <trkpt lat="44.2842" lon="5.55196">
        <ele>1304.4000244141</ele>
        <time>2021-09-25T13:17:22.000Z</time>
      </trkpt>
      <trkpt lat="44.2842" lon="5.55196">
        <ele>1304.1999511719</ele>
        <time>2021-09-25T13:17:23.000Z</time>
      </trkpt>
      <trkpt lat="44.2842" lon="5.55196">
        <ele>1304.1999511719</ele>
        <time>2021-09-25T13:17:24.000Z</time>
      </trkpt>
      <trkpt lat="44.28421" lon="5.55196">
        <ele>1304</ele>
        <time>2021-09-25T13:17:25.000Z</time>
      </trkpt>
      <trkpt lat="44.28421" lon="5.55193">
        <ele>1304</ele>
        <time>2021-09-25T13:17:33.000Z</time>
      </trkpt>
      <trkpt lat="44.28422" lon="5.55189">
        <ele>1304</ele>
        <time>2021-09-25T13:17:39.000Z</time>
      </trkpt>
      <trkpt lat="44.28423" lon="5.55187">
        <ele>1303.8000488281</ele>
        <time>2021-09-25T13:17:41.000Z</time>
      </trkpt>
      <trkpt lat="44.28425" lon="5.55185">
        <ele>1303.8000488281</ele>
        <time>2021-09-25T13:17:43.000Z</time>
      </trkpt>
      <trkpt lat="44.28426" lon="5.55182">
        <ele>1303.5999755859</ele>
        <time>2021-09-25T13:17:45.000Z</time>
      </trkpt>
      <trkpt lat="44.28427" lon="5.55178">
        <ele>1302.8000488281</ele>
        <time>2021-09-25T13:17:49.000Z</time>
      </trkpt>
      <trkpt lat="44.28429" lon="5.55173">
        <ele>1302.4000244141</ele>
        <time>2021-09-25T13:17:52.000Z</time>
      </trkpt>
      <trkpt lat="44.28431" lon="5.55168">
        <ele>1302.4000244141</ele>
        <time>2021-09-25T13:17:58.000Z</time>
      </trkpt>
      <trkpt lat="44.2843" lon="5.55166">
        <ele>1302.1999511719</ele>
        <time>2021-09-25T13:18:00.000Z</time>
      </trkpt>
      <trkpt lat="44.28431" lon="5.55164">
        <ele>1302</ele>
        <time>2021-09-25T13:18:02.000Z</time>
      </trkpt>
      <trkpt lat="44.28432" lon="5.55162">
        <ele>1301.8000488281</ele>
        <time>2021-09-25T13:18:03.000Z</time>
      </trkpt>
      <trkpt lat="44.28432" lon="5.55161">
        <ele>1301.5999755859</ele>
        <time>2021-09-25T13:18:04.000Z</time>
      </trkpt>
      <trkpt lat="44.28433" lon="5.55159">
        <ele>1301.4000244141</ele>
        <time>2021-09-25T13:18:07.000Z</time>
      </trkpt>
      <trkpt lat="44.28434" lon="5.55156">
        <ele>1301</ele>
        <time>2021-09-25T13:18:09.000Z</time>
      </trkpt>
      <trkpt lat="44.28435" lon="5.55143">
        <ele>1301</ele>
        <time>2021-09-25T13:18:18.000Z</time>
      </trkpt>
      <trkpt lat="44.28436" lon="5.55141">
        <ele>1300.8000488281</ele>
        <time>2021-09-25T13:18:20.000Z</time>
      </trkpt>
      <trkpt lat="44.28436" lon="5.5514">
        <ele>1300.5999755859</ele>
        <time>2021-09-25T13:18:21.000Z</time>
      </trkpt>
      <trkpt lat="44.28437" lon="5.55137">
        <ele>1300.1999511719</ele>
        <time>2021-09-25T13:18:24.000Z</time>
      </trkpt>
      <trkpt lat="44.28437" lon="5.55136">
        <ele>1300.1999511719</ele>
        <time>2021-09-25T13:18:25.000Z</time>
      </trkpt>
      <trkpt lat="44.28437" lon="5.55135">
        <ele>1300</ele>
        <time>2021-09-25T13:18:26.000Z</time>
      </trkpt>
      <trkpt lat="44.28438" lon="5.55134">
        <ele>1300</ele>
        <time>2021-09-25T13:18:27.000Z</time>
      </trkpt>
      <trkpt lat="44.28439" lon="5.55133">
        <ele>1299.8000488281</ele>
        <time>2021-09-25T13:18:28.000Z</time>
      </trkpt>
      <trkpt lat="44.2844" lon="5.55129">
        <ele>1299.5999755859</ele>
        <time>2021-09-25T13:18:31.000Z</time>
      </trkpt>
      <trkpt lat="44.28443" lon="5.55127">
        <ele>1299.5999755859</ele>
        <time>2021-09-25T13:18:33.000Z</time>
      </trkpt>
      <trkpt lat="44.28446" lon="5.5512">
        <ele>1300</ele>
        <time>2021-09-25T13:18:39.000Z</time>
      </trkpt>
      <trkpt lat="44.28446" lon="5.55119">
        <ele>1299.8000488281</ele>
        <time>2021-09-25T13:18:40.000Z</time>
      </trkpt>
      <trkpt lat="44.28448" lon="5.55111">
        <ele>1298.8000488281</ele>
        <time>2021-09-25T13:18:46.000Z</time>
      </trkpt>
      <trkpt lat="44.28448" lon="5.55109">
        <ele>1298.4000244141</ele>
        <time>2021-09-25T13:18:47.000Z</time>
      </trkpt>
      <trkpt lat="44.28449" lon="5.55104">
        <ele>1298</ele>
        <time>2021-09-25T13:18:51.000Z</time>
      </trkpt>
      <trkpt lat="44.2845" lon="5.55102">
        <ele>1297.8000488281</ele>
        <time>2021-09-25T13:18:53.000Z</time>
      </trkpt>
      <trkpt lat="44.28453" lon="5.55094">
        <ele>1297.1999511719</ele>
        <time>2021-09-25T13:18:59.000Z</time>
      </trkpt>
      <trkpt lat="44.28454" lon="5.55091">
        <ele>1297</ele>
        <time>2021-09-25T13:19:01.000Z</time>
      </trkpt>
      <trkpt lat="44.28454" lon="5.5509">
        <ele>1296.8000488281</ele>
        <time>2021-09-25T13:19:02.000Z</time>
      </trkpt>
      <trkpt lat="44.28456" lon="5.55082">
        <ele>1296.1999511719</ele>
        <time>2021-09-25T13:19:09.000Z</time>
      </trkpt>
      <trkpt lat="44.28459" lon="5.55074">
        <ele>1295.8000488281</ele>
        <time>2021-09-25T13:19:15.000Z</time>
      </trkpt>
      <trkpt lat="44.2846" lon="5.55071">
        <ele>1295.5999755859</ele>
        <time>2021-09-25T13:19:17.000Z</time>
      </trkpt>
      <trkpt lat="44.28462" lon="5.55066">
        <ele>1295.1999511719</ele>
        <time>2021-09-25T13:19:21.000Z</time>
      </trkpt>
      <trkpt lat="44.28464" lon="5.55056">
        <ele>1294.5999755859</ele>
        <time>2021-09-25T13:19:29.000Z</time>
      </trkpt>
      <trkpt lat="44.28465" lon="5.55055">
        <ele>1294.4000244141</ele>
        <time>2021-09-25T13:19:30.000Z</time>
      </trkpt>
      <trkpt lat="44.28467" lon="5.55051">
        <ele>1294.1999511719</ele>
        <time>2021-09-25T13:19:34.000Z</time>
      </trkpt>
      <trkpt lat="44.28468" lon="5.55045">
        <ele>1294.1999511719</ele>
        <time>2021-09-25T13:19:38.000Z</time>
      </trkpt>
      <trkpt lat="44.28469" lon="5.55044">
        <ele>1294</ele>
        <time>2021-09-25T13:19:39.000Z</time>
      </trkpt>
      <trkpt lat="44.28469" lon="5.55043">
        <ele>1294</ele>
        <time>2021-09-25T13:19:40.000Z</time>
      </trkpt>
      <trkpt lat="44.28471" lon="5.55038">
        <ele>1293.8000488281</ele>
        <time>2021-09-25T13:19:45.000Z</time>
      </trkpt>
      <trkpt lat="44.28473" lon="5.55033">
        <ele>1293.8000488281</ele>
        <time>2021-09-25T13:19:48.000Z</time>
      </trkpt>
      <trkpt lat="44.28473" lon="5.5503">
        <ele>1293.5999755859</ele>
        <time>2021-09-25T13:19:50.000Z</time>
      </trkpt>
      <trkpt lat="44.28476" lon="5.55021">
        <ele>1293.1999511719</ele>
        <time>2021-09-25T13:19:56.000Z</time>
      </trkpt>
      <trkpt lat="44.28476" lon="5.55019">
        <ele>1293.4000244141</ele>
        <time>2021-09-25T13:19:57.000Z</time>
      </trkpt>
      <trkpt lat="44.28477" lon="5.55014">
        <ele>1293.4000244141</ele>
        <time>2021-09-25T13:20:00.000Z</time>
      </trkpt>
      <trkpt lat="44.28477" lon="5.55013">
        <ele>1293.4000244141</ele>
        <time>2021-09-25T13:20:01.000Z</time>
      </trkpt>
      <trkpt lat="44.28477" lon="5.55011">
        <ele>1293.4000244141</ele>
        <time>2021-09-25T13:20:03.000Z</time>
      </trkpt>
      <trkpt lat="44.28478" lon="5.55009">
        <ele>1293</ele>
        <time>2021-09-25T13:20:05.000Z</time>
      </trkpt>
      <trkpt lat="44.2848" lon="5.55005">
        <ele>1292.5999755859</ele>
        <time>2021-09-25T13:20:09.000Z</time>
      </trkpt>
      <trkpt lat="44.2848" lon="5.55003">
        <ele>1292.4000244141</ele>
        <time>2021-09-25T13:20:10.000Z</time>
      </trkpt>
      <trkpt lat="44.28481" lon="5.55002">
        <ele>1292.1999511719</ele>
        <time>2021-09-25T13:20:11.000Z</time>
      </trkpt>
      <trkpt lat="44.28482" lon="5.55">
        <ele>1292.1999511719</ele>
        <time>2021-09-25T13:20:13.000Z</time>
      </trkpt>
      <trkpt lat="44.28482" lon="5.54998">
        <ele>1292.1999511719</ele>
        <time>2021-09-25T13:20:14.000Z</time>
      </trkpt>
      <trkpt lat="44.28482" lon="5.54994">
        <ele>1292.1999511719</ele>
        <time>2021-09-25T13:20:16.000Z</time>
      </trkpt>
      <trkpt lat="44.28483" lon="5.54993">
        <ele>1292.1999511719</ele>
        <time>2021-09-25T13:20:17.000Z</time>
      </trkpt>
      <trkpt lat="44.28484" lon="5.54992">
        <ele>1292.4000244141</ele>
        <time>2021-09-25T13:20:18.000Z</time>
      </trkpt>
      <trkpt lat="44.28484" lon="5.54991">
        <ele>1292.4000244141</ele>
        <time>2021-09-25T13:20:19.000Z</time>
      </trkpt>
      <trkpt lat="44.28485" lon="5.54988">
        <ele>1292.4000244141</ele>
        <time>2021-09-25T13:20:21.000Z</time>
      </trkpt>
      <trkpt lat="44.28486" lon="5.54986">
        <ele>1292</ele>
        <time>2021-09-25T13:20:23.000Z</time>
      </trkpt>
      <trkpt lat="44.28486" lon="5.54985">
        <ele>1291.8000488281</ele>
        <time>2021-09-25T13:20:24.000Z</time>
      </trkpt>
      <trkpt lat="44.28487" lon="5.54984">
        <ele>1291.8000488281</ele>
        <time>2021-09-25T13:20:26.000Z</time>
      </trkpt>
      <trkpt lat="44.28488" lon="5.54983">
        <ele>1291.5999755859</ele>
        <time>2021-09-25T13:20:27.000Z</time>
      </trkpt>
      <trkpt lat="44.2849" lon="5.54978">
        <ele>1290.5999755859</ele>
        <time>2021-09-25T13:20:31.000Z</time>
      </trkpt>
      <trkpt lat="44.28491" lon="5.54977">
        <ele>1290.4000244141</ele>
        <time>2021-09-25T13:20:32.000Z</time>
      </trkpt>
      <trkpt lat="44.28496" lon="5.54973">
        <ele>1290</ele>
        <time>2021-09-25T13:20:38.000Z</time>
      </trkpt>
      <trkpt lat="44.285" lon="5.5497">
        <ele>1289.5999755859</ele>
        <time>2021-09-25T13:20:42.000Z</time>
      </trkpt>
      <trkpt lat="44.28501" lon="5.54968">
        <ele>1289.4000244141</ele>
        <time>2021-09-25T13:20:45.000Z</time>
      </trkpt>
      <trkpt lat="44.28503" lon="5.54964">
        <ele>1289.1999511719</ele>
        <time>2021-09-25T13:20:49.000Z</time>
      </trkpt>
      <trkpt lat="44.28505" lon="5.54958">
        <ele>1289</ele>
        <time>2021-09-25T13:20:52.000Z</time>
      </trkpt>
      <trkpt lat="44.28507" lon="5.54956">
        <ele>1288.8000488281</ele>
        <time>2021-09-25T13:20:54.000Z</time>
      </trkpt>
      <trkpt lat="44.28508" lon="5.54954">
        <ele>1288.8000488281</ele>
        <time>2021-09-25T13:20:56.000Z</time>
      </trkpt>
      <trkpt lat="44.28508" lon="5.54953">
        <ele>1288.5999755859</ele>
        <time>2021-09-25T13:20:57.000Z</time>
      </trkpt>
      <trkpt lat="44.28509" lon="5.54952">
        <ele>1288.5999755859</ele>
        <time>2021-09-25T13:20:58.000Z</time>
      </trkpt>
      <trkpt lat="44.28513" lon="5.54943">
        <ele>1288.1999511719</ele>
        <time>2021-09-25T13:21:05.000Z</time>
      </trkpt>
      <trkpt lat="44.28516" lon="5.54939">
        <ele>1287.8000488281</ele>
        <time>2021-09-25T13:21:10.000Z</time>
      </trkpt>
      <trkpt lat="44.28517" lon="5.54935">
        <ele>1287.5999755859</ele>
        <time>2021-09-25T13:21:13.000Z</time>
      </trkpt>
      <trkpt lat="44.28518" lon="5.54932">
        <ele>1287.4000244141</ele>
        <time>2021-09-25T13:21:16.000Z</time>
      </trkpt>
      <trkpt lat="44.28519" lon="5.54928">
        <ele>1287.4000244141</ele>
        <time>2021-09-25T13:21:19.000Z</time>
      </trkpt>
      <trkpt lat="44.28521" lon="5.54926">
        <ele>1287.4000244141</ele>
        <time>2021-09-25T13:21:21.000Z</time>
      </trkpt>
    </trkseg>
  </trk>
</gpx>